<?xml version="1.0" encoding="utf-8"?>
<gpx xmlns:xsi="http://www.w3.org/2001/XMLSchema-instance" xmlns:xsd="http://www.w3.org/2001/XMLSchema" version="1.1" creator="Shapelink.com" xmlns="http://www.topografix.com/GPX/1/1" xmlns:gpxtpx="http://www.garmin.com/xmlschemas/TrackPointExtension/v1">
  <metadata>
    <name>Sykling 45.22 km, 2013-05-01</name>
    <desc></desc>
    <author><name>Mikael Blom</name></author> 
    <time>2013-05-01T10:04:47Z</time>
  </metadata>
  <trk>
    <name>Sykling 45.22 km, 2013-05-01</name>
    <trkseg>
      <trkpt lat="59.9786218" lon="17.7392617">
        <ele>40.0321</ele>
        <time>2013-05-01T10:04:47Z</time>
      </trkpt>
      <trkpt lat="59.9785802" lon="17.7392559">
        <ele>40.0321</ele>
        <time>2013-05-01T10:04:48Z</time>
      </trkpt>
      <trkpt lat="59.978537" lon="17.739248">
        <ele>40.0321</ele>
        <time>2013-05-01T10:04:49Z</time>
      </trkpt>
      <trkpt lat="59.9784914" lon="17.7392409">
        <ele>40.0321</ele>
        <time>2013-05-01T10:04:50Z</time>
      </trkpt>
      <trkpt lat="59.978445" lon="17.7392288">
        <ele>40.5128</ele>
        <time>2013-05-01T10:04:51Z</time>
      </trkpt>
      <trkpt lat="59.9783978" lon="17.739217">
        <ele>40.5128</ele>
        <time>2013-05-01T10:04:52Z</time>
      </trkpt>
      <trkpt lat="59.978349" lon="17.7391992">
        <ele>40.0321</ele>
        <time>2013-05-01T10:04:53Z</time>
      </trkpt>
      <trkpt lat="59.9782983" lon="17.7391823">
        <ele>40.0321</ele>
        <time>2013-05-01T10:04:54Z</time>
      </trkpt>
      <trkpt lat="59.9782446" lon="17.7391685">
        <ele>40.5128</ele>
        <time>2013-05-01T10:04:55Z</time>
      </trkpt>
      <trkpt lat="59.978192" lon="17.7391518">
        <ele>40.5128</ele>
        <time>2013-05-01T10:04:56Z</time>
      </trkpt>
      <trkpt lat="59.9781409" lon="17.739129">
        <ele>40.0321</ele>
        <time>2013-05-01T10:04:57Z</time>
      </trkpt>
      <trkpt lat="59.9780901" lon="17.7390999">
        <ele>39.0707</ele>
        <time>2013-05-01T10:04:58Z</time>
      </trkpt>
      <trkpt lat="59.9780397" lon="17.7390694">
        <ele>38.5901</ele>
        <time>2013-05-01T10:04:59Z</time>
      </trkpt>
      <trkpt lat="59.9779886" lon="17.73904">
        <ele>38.1094</ele>
        <time>2013-05-01T10:05:00Z</time>
      </trkpt>
      <trkpt lat="59.977938" lon="17.7390087">
        <ele>38.1094</ele>
        <time>2013-05-01T10:05:01Z</time>
      </trkpt>
      <trkpt lat="59.977887" lon="17.7389797">
        <ele>38.1094</ele>
        <time>2013-05-01T10:05:02Z</time>
      </trkpt>
      <trkpt lat="59.9778343" lon="17.7389555">
        <ele>38.1094</ele>
        <time>2013-05-01T10:05:03Z</time>
      </trkpt>
      <trkpt lat="59.9777791" lon="17.7389384">
        <ele>38.1094</ele>
        <time>2013-05-01T10:05:04Z</time>
      </trkpt>
      <trkpt lat="59.9777211" lon="17.7389285">
        <ele>38.1094</ele>
        <time>2013-05-01T10:05:05Z</time>
      </trkpt>
      <trkpt lat="59.9776605" lon="17.7389306">
        <ele>38.1094</ele>
        <time>2013-05-01T10:05:06Z</time>
      </trkpt>
      <trkpt lat="59.9775948" lon="17.7389492">
        <ele>38.5901</ele>
        <time>2013-05-01T10:05:07Z</time>
      </trkpt>
      <trkpt lat="59.9775244" lon="17.738974">
        <ele>38.5901</ele>
        <time>2013-05-01T10:05:08Z</time>
      </trkpt>
      <trkpt lat="59.9774514" lon="17.7390044">
        <ele>38.1094</ele>
        <time>2013-05-01T10:05:09Z</time>
      </trkpt>
      <trkpt lat="59.9773795" lon="17.7390337">
        <ele>37.6287</ele>
        <time>2013-05-01T10:05:10Z</time>
      </trkpt>
      <trkpt lat="59.9773042" lon="17.7390704">
        <ele>37.6287</ele>
        <time>2013-05-01T10:05:11Z</time>
      </trkpt>
      <trkpt lat="59.9772256" lon="17.739114">
        <ele>37.1481</ele>
        <time>2013-05-01T10:05:12Z</time>
      </trkpt>
      <trkpt lat="59.9771468" lon="17.7391602">
        <ele>37.1481</ele>
        <time>2013-05-01T10:05:13Z</time>
      </trkpt>
      <trkpt lat="59.9770674" lon="17.7392062">
        <ele>37.1481</ele>
        <time>2013-05-01T10:05:14Z</time>
      </trkpt>
      <trkpt lat="59.9769876" lon="17.7392458">
        <ele>36.6675</ele>
        <time>2013-05-01T10:05:15Z</time>
      </trkpt>
      <trkpt lat="59.9769068" lon="17.7392791">
        <ele>35.7061</ele>
        <time>2013-05-01T10:05:16Z</time>
      </trkpt>
      <trkpt lat="59.9768252" lon="17.7393148">
        <ele>35.2255</ele>
        <time>2013-05-01T10:05:17Z</time>
      </trkpt>
      <trkpt lat="59.9767434" lon="17.7393614">
        <ele>34.7449</ele>
        <time>2013-05-01T10:05:18Z</time>
      </trkpt>
      <trkpt lat="59.9766611" lon="17.7394139">
        <ele>34.2642</ele>
        <time>2013-05-01T10:05:19Z</time>
      </trkpt>
      <trkpt lat="59.9765798" lon="17.739475">
        <ele>33.7834</ele>
        <time>2013-05-01T10:05:20Z</time>
      </trkpt>
      <trkpt lat="59.9765066" lon="17.7395553">
        <ele>33.7834</ele>
        <time>2013-05-01T10:05:21Z</time>
      </trkpt>
      <trkpt lat="59.9764409" lon="17.7396445">
        <ele>33.3029</ele>
        <time>2013-05-01T10:05:22Z</time>
      </trkpt>
      <trkpt lat="59.9763772" lon="17.7397181">
        <ele>32.8223</ele>
        <time>2013-05-01T10:05:23Z</time>
      </trkpt>
      <trkpt lat="59.9763098" lon="17.7397607">
        <ele>32.3416</ele>
        <time>2013-05-01T10:05:24Z</time>
      </trkpt>
      <trkpt lat="59.9762392" lon="17.7397579">
        <ele>31.3801</ele>
        <time>2013-05-01T10:05:25Z</time>
      </trkpt>
      <trkpt lat="59.9761705" lon="17.7397084">
        <ele>30.4188</ele>
        <time>2013-05-01T10:05:26Z</time>
      </trkpt>
      <trkpt lat="59.9761067" lon="17.7396214">
        <ele>29.9381</ele>
        <time>2013-05-01T10:05:27Z</time>
      </trkpt>
      <trkpt lat="59.976046" lon="17.7395069">
        <ele>29.4575</ele>
        <time>2013-05-01T10:05:28Z</time>
      </trkpt>
      <trkpt lat="59.9759851" lon="17.7393808">
        <ele>28.9769</ele>
        <time>2013-05-01T10:05:29Z</time>
      </trkpt>
      <trkpt lat="59.9759228" lon="17.7392518">
        <ele>28.4962</ele>
        <time>2013-05-01T10:05:30Z</time>
      </trkpt>
      <trkpt lat="59.9758582" lon="17.7391236">
        <ele>28.4962</ele>
        <time>2013-05-01T10:05:31Z</time>
      </trkpt>
      <trkpt lat="59.9757907" lon="17.7390016">
        <ele>28.4962</ele>
        <time>2013-05-01T10:05:32Z</time>
      </trkpt>
      <trkpt lat="59.975724" lon="17.7388799">
        <ele>28.4962</ele>
        <time>2013-05-01T10:05:33Z</time>
      </trkpt>
      <trkpt lat="59.9756585" lon="17.7387577">
        <ele>28.4962</ele>
        <time>2013-05-01T10:05:34Z</time>
      </trkpt>
      <trkpt lat="59.9755919" lon="17.7386377">
        <ele>28.4962</ele>
        <time>2013-05-01T10:05:35Z</time>
      </trkpt>
      <trkpt lat="59.9755234" lon="17.7385203">
        <ele>28.4962</ele>
        <time>2013-05-01T10:05:36Z</time>
      </trkpt>
      <trkpt lat="59.9754541" lon="17.7384032">
        <ele>28.4962</ele>
        <time>2013-05-01T10:05:37Z</time>
      </trkpt>
      <trkpt lat="59.9753854" lon="17.7382851">
        <ele>28.4962</ele>
        <time>2013-05-01T10:05:38Z</time>
      </trkpt>
      <trkpt lat="59.9753177" lon="17.7381658">
        <ele>28.4962</ele>
        <time>2013-05-01T10:05:39Z</time>
      </trkpt>
      <trkpt lat="59.9752499" lon="17.7380488">
        <ele>28.4962</ele>
        <time>2013-05-01T10:05:40Z</time>
      </trkpt>
      <trkpt lat="59.9751821" lon="17.7379345">
        <ele>28.4962</ele>
        <time>2013-05-01T10:05:41Z</time>
      </trkpt>
      <trkpt lat="59.9751167" lon="17.7378189">
        <ele>28.4962</ele>
        <time>2013-05-01T10:05:42Z</time>
      </trkpt>
      <trkpt lat="59.9750526" lon="17.7377003">
        <ele>28.4962</ele>
        <time>2013-05-01T10:05:43Z</time>
      </trkpt>
      <trkpt lat="59.9749903" lon="17.7375796">
        <ele>28.4962</ele>
        <time>2013-05-01T10:05:44Z</time>
      </trkpt>
      <trkpt lat="59.9749298" lon="17.7374559">
        <ele>28.4962</ele>
        <time>2013-05-01T10:05:45Z</time>
      </trkpt>
      <trkpt lat="59.9748723" lon="17.7373259">
        <ele>28.4962</ele>
        <time>2013-05-01T10:05:46Z</time>
      </trkpt>
      <trkpt lat="59.9748168" lon="17.7371927">
        <ele>28.4962</ele>
        <time>2013-05-01T10:05:47Z</time>
      </trkpt>
      <trkpt lat="59.974763" lon="17.7370557">
        <ele>28.9769</ele>
        <time>2013-05-01T10:05:48Z</time>
      </trkpt>
      <trkpt lat="59.9747115" lon="17.7369141">
        <ele>28.9769</ele>
        <time>2013-05-01T10:05:49Z</time>
      </trkpt>
      <trkpt lat="59.9746639" lon="17.736767">
        <ele>28.9769</ele>
        <time>2013-05-01T10:05:50Z</time>
      </trkpt>
      <trkpt lat="59.9746206" lon="17.7366156">
        <ele>28.9769</ele>
        <time>2013-05-01T10:05:51Z</time>
      </trkpt>
      <trkpt lat="59.9745796" lon="17.7364637">
        <ele>29.4575</ele>
        <time>2013-05-01T10:05:52Z</time>
      </trkpt>
      <trkpt lat="59.9745412" lon="17.7363101">
        <ele>29.4575</ele>
        <time>2013-05-01T10:05:53Z</time>
      </trkpt>
      <trkpt lat="59.9745067" lon="17.7361551">
        <ele>29.4575</ele>
        <time>2013-05-01T10:05:54Z</time>
      </trkpt>
      <trkpt lat="59.9744759" lon="17.7360011">
        <ele>29.4575</ele>
        <time>2013-05-01T10:05:55Z</time>
      </trkpt>
      <trkpt lat="59.9744485" lon="17.7358489">
        <ele>29.4575</ele>
        <time>2013-05-01T10:05:56Z</time>
      </trkpt>
      <trkpt lat="59.9744233" lon="17.7356982">
        <ele>29.9381</ele>
        <time>2013-05-01T10:05:57Z</time>
      </trkpt>
      <trkpt lat="59.9744019" lon="17.7355489">
        <ele>29.9381</ele>
        <time>2013-05-01T10:05:58Z</time>
      </trkpt>
      <trkpt lat="59.9743839" lon="17.7353997">
        <ele>30.4188</ele>
        <time>2013-05-01T10:05:59Z</time>
      </trkpt>
      <trkpt lat="59.9743688" lon="17.7352496">
        <ele>30.4188</ele>
        <time>2013-05-01T10:06:00Z</time>
      </trkpt>
      <trkpt lat="59.9743551" lon="17.7350976">
        <ele>30.4188</ele>
        <time>2013-05-01T10:06:01Z</time>
      </trkpt>
      <trkpt lat="59.9743429" lon="17.734944">
        <ele>30.4188</ele>
        <time>2013-05-01T10:06:02Z</time>
      </trkpt>
      <trkpt lat="59.9743339" lon="17.7347891">
        <ele>30.8995</ele>
        <time>2013-05-01T10:06:03Z</time>
      </trkpt>
      <trkpt lat="59.9743277" lon="17.7346341">
        <ele>30.8995</ele>
        <time>2013-05-01T10:06:04Z</time>
      </trkpt>
      <trkpt lat="59.9743247" lon="17.7344783">
        <ele>30.8995</ele>
        <time>2013-05-01T10:06:05Z</time>
      </trkpt>
      <trkpt lat="59.9743256" lon="17.7343225">
        <ele>30.8995</ele>
        <time>2013-05-01T10:06:06Z</time>
      </trkpt>
      <trkpt lat="59.9743309" lon="17.7341685">
        <ele>31.3801</ele>
        <time>2013-05-01T10:06:07Z</time>
      </trkpt>
      <trkpt lat="59.9743393" lon="17.7340183">
        <ele>31.3801</ele>
        <time>2013-05-01T10:06:08Z</time>
      </trkpt>
      <trkpt lat="59.974348" lon="17.7338708">
        <ele>31.3801</ele>
        <time>2013-05-01T10:06:09Z</time>
      </trkpt>
      <trkpt lat="59.9743562" lon="17.7337247">
        <ele>31.3801</ele>
        <time>2013-05-01T10:06:10Z</time>
      </trkpt>
      <trkpt lat="59.974363" lon="17.7335801">
        <ele>31.8607</ele>
        <time>2013-05-01T10:06:11Z</time>
      </trkpt>
      <trkpt lat="59.9743693" lon="17.7334384">
        <ele>31.8607</ele>
        <time>2013-05-01T10:06:12Z</time>
      </trkpt>
      <trkpt lat="59.9743756" lon="17.7332987">
        <ele>32.3416</ele>
        <time>2013-05-01T10:06:13Z</time>
      </trkpt>
      <trkpt lat="59.9743807" lon="17.73316">
        <ele>32.8223</ele>
        <time>2013-05-01T10:06:14Z</time>
      </trkpt>
      <trkpt lat="59.9743834" lon="17.7330217">
        <ele>32.8223</ele>
        <time>2013-05-01T10:06:15Z</time>
      </trkpt>
      <trkpt lat="59.9743836" lon="17.7328862">
        <ele>32.3416</ele>
        <time>2013-05-01T10:06:16Z</time>
      </trkpt>
      <trkpt lat="59.9743843" lon="17.7327506">
        <ele>32.3416</ele>
        <time>2013-05-01T10:06:17Z</time>
      </trkpt>
      <trkpt lat="59.9743839" lon="17.7326154">
        <ele>32.3416</ele>
        <time>2013-05-01T10:06:18Z</time>
      </trkpt>
      <trkpt lat="59.974382" lon="17.7324792">
        <ele>31.8607</ele>
        <time>2013-05-01T10:06:19Z</time>
      </trkpt>
      <trkpt lat="59.9743791" lon="17.7323425">
        <ele>31.8607</ele>
        <time>2013-05-01T10:06:20Z</time>
      </trkpt>
      <trkpt lat="59.974376" lon="17.7322053">
        <ele>31.8607</ele>
        <time>2013-05-01T10:06:21Z</time>
      </trkpt>
      <trkpt lat="59.9743724" lon="17.7320665">
        <ele>31.3801</ele>
        <time>2013-05-01T10:06:22Z</time>
      </trkpt>
      <trkpt lat="59.9743688" lon="17.7319267">
        <ele>31.3801</ele>
        <time>2013-05-01T10:06:23Z</time>
      </trkpt>
      <trkpt lat="59.9743658" lon="17.7317872">
        <ele>30.8995</ele>
        <time>2013-05-01T10:06:24Z</time>
      </trkpt>
      <trkpt lat="59.9743636" lon="17.7316475">
        <ele>30.8995</ele>
        <time>2013-05-01T10:06:25Z</time>
      </trkpt>
      <trkpt lat="59.9743627" lon="17.7315076">
        <ele>30.4188</ele>
        <time>2013-05-01T10:06:26Z</time>
      </trkpt>
      <trkpt lat="59.9743641" lon="17.7313671">
        <ele>30.4188</ele>
        <time>2013-05-01T10:06:27Z</time>
      </trkpt>
      <trkpt lat="59.9743677" lon="17.7312265">
        <ele>30.4188</ele>
        <time>2013-05-01T10:06:28Z</time>
      </trkpt>
      <trkpt lat="59.9743738" lon="17.7310864">
        <ele>30.4188</ele>
        <time>2013-05-01T10:06:29Z</time>
      </trkpt>
      <trkpt lat="59.974382" lon="17.7309459">
        <ele>30.4188</ele>
        <time>2013-05-01T10:06:30Z</time>
      </trkpt>
      <trkpt lat="59.9743917" lon="17.7308056">
        <ele>29.9381</ele>
        <time>2013-05-01T10:06:31Z</time>
      </trkpt>
      <trkpt lat="59.9744031" lon="17.7306673">
        <ele>29.9381</ele>
        <time>2013-05-01T10:06:32Z</time>
      </trkpt>
      <trkpt lat="59.9744143" lon="17.7305293">
        <ele>29.9381</ele>
        <time>2013-05-01T10:06:33Z</time>
      </trkpt>
      <trkpt lat="59.9744247" lon="17.7303917">
        <ele>29.9381</ele>
        <time>2013-05-01T10:06:34Z</time>
      </trkpt>
      <trkpt lat="59.9744349" lon="17.7302555">
        <ele>29.9381</ele>
        <time>2013-05-01T10:06:35Z</time>
      </trkpt>
      <trkpt lat="59.9744452" lon="17.7301206">
        <ele>29.4575</ele>
        <time>2013-05-01T10:06:36Z</time>
      </trkpt>
      <trkpt lat="59.9744556" lon="17.7299859">
        <ele>29.4575</ele>
        <time>2013-05-01T10:06:37Z</time>
      </trkpt>
      <trkpt lat="59.9744655" lon="17.729851">
        <ele>29.9381</ele>
        <time>2013-05-01T10:06:38Z</time>
      </trkpt>
      <trkpt lat="59.9744745" lon="17.7297147">
        <ele>29.9381</ele>
        <time>2013-05-01T10:06:39Z</time>
      </trkpt>
      <trkpt lat="59.9744808" lon="17.729577">
        <ele>29.9381</ele>
        <time>2013-05-01T10:06:40Z</time>
      </trkpt>
      <trkpt lat="59.9744846" lon="17.7294409">
        <ele>29.4575</ele>
        <time>2013-05-01T10:06:41Z</time>
      </trkpt>
      <trkpt lat="59.9744869" lon="17.7293063">
        <ele>29.9381</ele>
        <time>2013-05-01T10:06:42Z</time>
      </trkpt>
      <trkpt lat="59.9744858" lon="17.7291705">
        <ele>29.9381</ele>
        <time>2013-05-01T10:06:43Z</time>
      </trkpt>
      <trkpt lat="59.9744837" lon="17.7290377">
        <ele>29.9381</ele>
        <time>2013-05-01T10:06:44Z</time>
      </trkpt>
      <trkpt lat="59.974481" lon="17.728905">
        <ele>29.9381</ele>
        <time>2013-05-01T10:06:45Z</time>
      </trkpt>
      <trkpt lat="59.9744781" lon="17.7287712">
        <ele>29.9381</ele>
        <time>2013-05-01T10:06:46Z</time>
      </trkpt>
      <trkpt lat="59.9744759" lon="17.7286357">
        <ele>30.4188</ele>
        <time>2013-05-01T10:06:47Z</time>
      </trkpt>
      <trkpt lat="59.9744732" lon="17.728499">
        <ele>30.4188</ele>
        <time>2013-05-01T10:06:48Z</time>
      </trkpt>
      <trkpt lat="59.9744692" lon="17.7283636">
        <ele>30.4188</ele>
        <time>2013-05-01T10:06:49Z</time>
      </trkpt>
      <trkpt lat="59.9744661" lon="17.7282289">
        <ele>30.4188</ele>
        <time>2013-05-01T10:06:50Z</time>
      </trkpt>
      <trkpt lat="59.9744657" lon="17.7280946">
        <ele>30.4188</ele>
        <time>2013-05-01T10:06:51Z</time>
      </trkpt>
      <trkpt lat="59.9744656" lon="17.727961">
        <ele>30.8995</ele>
        <time>2013-05-01T10:06:52Z</time>
      </trkpt>
      <trkpt lat="59.9744646" lon="17.7278282">
        <ele>30.8995</ele>
        <time>2013-05-01T10:06:53Z</time>
      </trkpt>
      <trkpt lat="59.9744625" lon="17.727698">
        <ele>30.8995</ele>
        <time>2013-05-01T10:06:54Z</time>
      </trkpt>
      <trkpt lat="59.9744623" lon="17.7275727">
        <ele>31.3801</ele>
        <time>2013-05-01T10:06:55Z</time>
      </trkpt>
      <trkpt lat="59.9744632" lon="17.7274493">
        <ele>31.3801</ele>
        <time>2013-05-01T10:06:56Z</time>
      </trkpt>
      <trkpt lat="59.9744631" lon="17.7273233">
        <ele>31.8607</ele>
        <time>2013-05-01T10:06:57Z</time>
      </trkpt>
      <trkpt lat="59.9744615" lon="17.7271971">
        <ele>31.8607</ele>
        <time>2013-05-01T10:06:58Z</time>
      </trkpt>
      <trkpt lat="59.9744618" lon="17.7270722">
        <ele>31.8607</ele>
        <time>2013-05-01T10:06:59Z</time>
      </trkpt>
      <trkpt lat="59.974463" lon="17.7269457">
        <ele>31.8607</ele>
        <time>2013-05-01T10:07:00Z</time>
      </trkpt>
      <trkpt lat="59.974463" lon="17.7268157">
        <ele>31.8607</ele>
        <time>2013-05-01T10:07:01Z</time>
      </trkpt>
      <trkpt lat="59.9744598" lon="17.7266846">
        <ele>32.3416</ele>
        <time>2013-05-01T10:07:02Z</time>
      </trkpt>
      <trkpt lat="59.9744559" lon="17.7265553">
        <ele>31.8607</ele>
        <time>2013-05-01T10:07:03Z</time>
      </trkpt>
      <trkpt lat="59.9744536" lon="17.7264238">
        <ele>31.3801</ele>
        <time>2013-05-01T10:07:04Z</time>
      </trkpt>
      <trkpt lat="59.9744497" lon="17.726289">
        <ele>31.3801</ele>
        <time>2013-05-01T10:07:05Z</time>
      </trkpt>
      <trkpt lat="59.9744433" lon="17.7261481">
        <ele>30.8995</ele>
        <time>2013-05-01T10:07:06Z</time>
      </trkpt>
      <trkpt lat="59.974437" lon="17.7260074">
        <ele>30.4188</ele>
        <time>2013-05-01T10:07:07Z</time>
      </trkpt>
      <trkpt lat="59.9744278" lon="17.7258647">
        <ele>29.9381</ele>
        <time>2013-05-01T10:07:08Z</time>
      </trkpt>
      <trkpt lat="59.9744144" lon="17.7257202">
        <ele>29.4575</ele>
        <time>2013-05-01T10:07:09Z</time>
      </trkpt>
      <trkpt lat="59.9743992" lon="17.725582">
        <ele>28.9769</ele>
        <time>2013-05-01T10:07:10Z</time>
      </trkpt>
      <trkpt lat="59.9743841" lon="17.7254427">
        <ele>28.4962</ele>
        <time>2013-05-01T10:07:11Z</time>
      </trkpt>
      <trkpt lat="59.9743697" lon="17.7253055">
        <ele>28.0155</ele>
        <time>2013-05-01T10:07:12Z</time>
      </trkpt>
      <trkpt lat="59.9743544" lon="17.7251681">
        <ele>28.0155</ele>
        <time>2013-05-01T10:07:13Z</time>
      </trkpt>
      <trkpt lat="59.974334" lon="17.7250255">
        <ele>28.0155</ele>
        <time>2013-05-01T10:07:14Z</time>
      </trkpt>
      <trkpt lat="59.9743122" lon="17.7248836">
        <ele>27.5349</ele>
        <time>2013-05-01T10:07:15Z</time>
      </trkpt>
      <trkpt lat="59.9742906" lon="17.7247403">
        <ele>27.0543</ele>
        <time>2013-05-01T10:07:16Z</time>
      </trkpt>
      <trkpt lat="59.9742692" lon="17.7245961">
        <ele>26.5736</ele>
        <time>2013-05-01T10:07:17Z</time>
      </trkpt>
      <trkpt lat="59.974247" lon="17.7244527">
        <ele>26.0929</ele>
        <time>2013-05-01T10:07:18Z</time>
      </trkpt>
      <trkpt lat="59.9742243" lon="17.7243099">
        <ele>26.0929</ele>
        <time>2013-05-01T10:07:19Z</time>
      </trkpt>
      <trkpt lat="59.9742016" lon="17.7241659">
        <ele>25.6123</ele>
        <time>2013-05-01T10:07:20Z</time>
      </trkpt>
      <trkpt lat="59.9741782" lon="17.7240212">
        <ele>25.6123</ele>
        <time>2013-05-01T10:07:21Z</time>
      </trkpt>
      <trkpt lat="59.9741548" lon="17.723876">
        <ele>25.6123</ele>
        <time>2013-05-01T10:07:22Z</time>
      </trkpt>
      <trkpt lat="59.9741319" lon="17.7237306">
        <ele>25.6123</ele>
        <time>2013-05-01T10:07:23Z</time>
      </trkpt>
      <trkpt lat="59.9741087" lon="17.7235857">
        <ele>25.6123</ele>
        <time>2013-05-01T10:07:24Z</time>
      </trkpt>
      <trkpt lat="59.9740852" lon="17.7234415">
        <ele>25.6123</ele>
        <time>2013-05-01T10:07:25Z</time>
      </trkpt>
      <trkpt lat="59.9740612" lon="17.7232982">
        <ele>25.6123</ele>
        <time>2013-05-01T10:07:26Z</time>
      </trkpt>
      <trkpt lat="59.9740365" lon="17.7231577">
        <ele>25.6123</ele>
        <time>2013-05-01T10:07:27Z</time>
      </trkpt>
      <trkpt lat="59.9740086" lon="17.7230187">
        <ele>25.6123</ele>
        <time>2013-05-01T10:07:28Z</time>
      </trkpt>
      <trkpt lat="59.9739782" lon="17.7228811">
        <ele>25.6123</ele>
        <time>2013-05-01T10:07:29Z</time>
      </trkpt>
      <trkpt lat="59.9739466" lon="17.7227443">
        <ele>25.6123</ele>
        <time>2013-05-01T10:07:30Z</time>
      </trkpt>
      <trkpt lat="59.973911" lon="17.7226079">
        <ele>25.6123</ele>
        <time>2013-05-01T10:07:31Z</time>
      </trkpt>
      <trkpt lat="59.9738723" lon="17.7224734">
        <ele>25.6123</ele>
        <time>2013-05-01T10:07:32Z</time>
      </trkpt>
      <trkpt lat="59.9738319" lon="17.7223418">
        <ele>26.0929</ele>
        <time>2013-05-01T10:07:33Z</time>
      </trkpt>
      <trkpt lat="59.9737898" lon="17.7222103">
        <ele>26.0929</ele>
        <time>2013-05-01T10:07:34Z</time>
      </trkpt>
      <trkpt lat="59.9737477" lon="17.7220806">
        <ele>26.0929</ele>
        <time>2013-05-01T10:07:35Z</time>
      </trkpt>
      <trkpt lat="59.9737037" lon="17.7219538">
        <ele>26.5736</ele>
        <time>2013-05-01T10:07:36Z</time>
      </trkpt>
      <trkpt lat="59.9736575" lon="17.7218319">
        <ele>26.5736</ele>
        <time>2013-05-01T10:07:37Z</time>
      </trkpt>
      <trkpt lat="59.9736093" lon="17.7217115">
        <ele>26.5736</ele>
        <time>2013-05-01T10:07:38Z</time>
      </trkpt>
      <trkpt lat="59.9735611" lon="17.7215947">
        <ele>27.0543</ele>
        <time>2013-05-01T10:07:39Z</time>
      </trkpt>
      <trkpt lat="59.973512" lon="17.7214808">
        <ele>27.0543</ele>
        <time>2013-05-01T10:07:40Z</time>
      </trkpt>
      <trkpt lat="59.9734619" lon="17.7213706">
        <ele>27.0543</ele>
        <time>2013-05-01T10:07:41Z</time>
      </trkpt>
      <trkpt lat="59.9734105" lon="17.7212644">
        <ele>27.0543</ele>
        <time>2013-05-01T10:07:42Z</time>
      </trkpt>
      <trkpt lat="59.9733569" lon="17.7211634">
        <ele>27.5349</ele>
        <time>2013-05-01T10:07:43Z</time>
      </trkpt>
      <trkpt lat="59.9733016" lon="17.7210655">
        <ele>27.5349</ele>
        <time>2013-05-01T10:07:44Z</time>
      </trkpt>
      <trkpt lat="59.9732455" lon="17.7209708">
        <ele>27.5349</ele>
        <time>2013-05-01T10:07:45Z</time>
      </trkpt>
      <trkpt lat="59.9731893" lon="17.7208785">
        <ele>28.0155</ele>
        <time>2013-05-01T10:07:46Z</time>
      </trkpt>
      <trkpt lat="59.9731328" lon="17.7207883">
        <ele>28.0155</ele>
        <time>2013-05-01T10:07:47Z</time>
      </trkpt>
      <trkpt lat="59.9730749" lon="17.7207023">
        <ele>28.4962</ele>
        <time>2013-05-01T10:07:48Z</time>
      </trkpt>
      <trkpt lat="59.9730156" lon="17.7206203">
        <ele>28.4962</ele>
        <time>2013-05-01T10:07:49Z</time>
      </trkpt>
      <trkpt lat="59.9729547" lon="17.720541">
        <ele>28.9769</ele>
        <time>2013-05-01T10:07:50Z</time>
      </trkpt>
      <trkpt lat="59.9728923" lon="17.720464">
        <ele>28.9769</ele>
        <time>2013-05-01T10:07:51Z</time>
      </trkpt>
      <trkpt lat="59.9728291" lon="17.72039">
        <ele>28.9769</ele>
        <time>2013-05-01T10:07:52Z</time>
      </trkpt>
      <trkpt lat="59.9727633" lon="17.7203193">
        <ele>28.9769</ele>
        <time>2013-05-01T10:07:53Z</time>
      </trkpt>
      <trkpt lat="59.9726968" lon="17.7202542">
        <ele>29.4575</ele>
        <time>2013-05-01T10:07:54Z</time>
      </trkpt>
      <trkpt lat="59.9726293" lon="17.7201931">
        <ele>29.4575</ele>
        <time>2013-05-01T10:07:55Z</time>
      </trkpt>
      <trkpt lat="59.9725616" lon="17.7201356">
        <ele>29.4575</ele>
        <time>2013-05-01T10:07:56Z</time>
      </trkpt>
      <trkpt lat="59.972494" lon="17.7200754">
        <ele>29.4575</ele>
        <time>2013-05-01T10:07:57Z</time>
      </trkpt>
      <trkpt lat="59.9724277" lon="17.7200149">
        <ele>29.4575</ele>
        <time>2013-05-01T10:07:58Z</time>
      </trkpt>
      <trkpt lat="59.9723614" lon="17.7199553">
        <ele>29.4575</ele>
        <time>2013-05-01T10:07:59Z</time>
      </trkpt>
      <trkpt lat="59.9722941" lon="17.7198966">
        <ele>29.9381</ele>
        <time>2013-05-01T10:08:00Z</time>
      </trkpt>
      <trkpt lat="59.9722273" lon="17.7198374">
        <ele>29.9381</ele>
        <time>2013-05-01T10:08:01Z</time>
      </trkpt>
      <trkpt lat="59.9721619" lon="17.7197766">
        <ele>29.4575</ele>
        <time>2013-05-01T10:08:02Z</time>
      </trkpt>
      <trkpt lat="59.9720973" lon="17.7197145">
        <ele>29.4575</ele>
        <time>2013-05-01T10:08:03Z</time>
      </trkpt>
      <trkpt lat="59.9720329" lon="17.7196544">
        <ele>29.4575</ele>
        <time>2013-05-01T10:08:04Z</time>
      </trkpt>
      <trkpt lat="59.9719688" lon="17.719596">
        <ele>29.4575</ele>
        <time>2013-05-01T10:08:05Z</time>
      </trkpt>
      <trkpt lat="59.9719056" lon="17.7195377">
        <ele>29.4575</ele>
        <time>2013-05-01T10:08:06Z</time>
      </trkpt>
      <trkpt lat="59.9718425" lon="17.7194776">
        <ele>29.4575</ele>
        <time>2013-05-01T10:08:07Z</time>
      </trkpt>
      <trkpt lat="59.9717793" lon="17.7194172">
        <ele>29.4575</ele>
        <time>2013-05-01T10:08:08Z</time>
      </trkpt>
      <trkpt lat="59.9717151" lon="17.7193591">
        <ele>29.4575</ele>
        <time>2013-05-01T10:08:09Z</time>
      </trkpt>
      <trkpt lat="59.9716497" lon="17.719302">
        <ele>29.4575</ele>
        <time>2013-05-01T10:08:10Z</time>
      </trkpt>
      <trkpt lat="59.9715841" lon="17.719244">
        <ele>29.4575</ele>
        <time>2013-05-01T10:08:11Z</time>
      </trkpt>
      <trkpt lat="59.9715188" lon="17.7191835">
        <ele>29.4575</ele>
        <time>2013-05-01T10:08:12Z</time>
      </trkpt>
      <trkpt lat="59.9714529" lon="17.7191223">
        <ele>29.4575</ele>
        <time>2013-05-01T10:08:13Z</time>
      </trkpt>
      <trkpt lat="59.9713867" lon="17.7190611">
        <ele>29.4575</ele>
        <time>2013-05-01T10:08:14Z</time>
      </trkpt>
      <trkpt lat="59.9713201" lon="17.7190005">
        <ele>29.4575</ele>
        <time>2013-05-01T10:08:15Z</time>
      </trkpt>
      <trkpt lat="59.9712528" lon="17.7189389">
        <ele>29.4575</ele>
        <time>2013-05-01T10:08:16Z</time>
      </trkpt>
      <trkpt lat="59.9711849" lon="17.7188756">
        <ele>29.4575</ele>
        <time>2013-05-01T10:08:17Z</time>
      </trkpt>
      <trkpt lat="59.9711165" lon="17.7188125">
        <ele>29.4575</ele>
        <time>2013-05-01T10:08:18Z</time>
      </trkpt>
      <trkpt lat="59.9710473" lon="17.7187488">
        <ele>28.9769</ele>
        <time>2013-05-01T10:08:19Z</time>
      </trkpt>
      <trkpt lat="59.9709773" lon="17.7186836">
        <ele>28.9769</ele>
        <time>2013-05-01T10:08:20Z</time>
      </trkpt>
      <trkpt lat="59.9709062" lon="17.7186179">
        <ele>28.9769</ele>
        <time>2013-05-01T10:08:21Z</time>
      </trkpt>
      <trkpt lat="59.9708343" lon="17.7185552">
        <ele>28.9769</ele>
        <time>2013-05-01T10:08:22Z</time>
      </trkpt>
      <trkpt lat="59.9707624" lon="17.718491">
        <ele>28.9769</ele>
        <time>2013-05-01T10:08:23Z</time>
      </trkpt>
      <trkpt lat="59.9706904" lon="17.7184257">
        <ele>28.9769</ele>
        <time>2013-05-01T10:08:24Z</time>
      </trkpt>
      <trkpt lat="59.9706188" lon="17.7183594">
        <ele>28.9769</ele>
        <time>2013-05-01T10:08:25Z</time>
      </trkpt>
      <trkpt lat="59.9705469" lon="17.7182936">
        <ele>28.9769</ele>
        <time>2013-05-01T10:08:26Z</time>
      </trkpt>
      <trkpt lat="59.9704749" lon="17.7182304">
        <ele>28.9769</ele>
        <time>2013-05-01T10:08:27Z</time>
      </trkpt>
      <trkpt lat="59.9704034" lon="17.7181672">
        <ele>28.9769</ele>
        <time>2013-05-01T10:08:28Z</time>
      </trkpt>
      <trkpt lat="59.9703325" lon="17.7181028">
        <ele>28.9769</ele>
        <time>2013-05-01T10:08:29Z</time>
      </trkpt>
      <trkpt lat="59.9702624" lon="17.718039">
        <ele>28.9769</ele>
        <time>2013-05-01T10:08:30Z</time>
      </trkpt>
      <trkpt lat="59.9701927" lon="17.7179762">
        <ele>28.9769</ele>
        <time>2013-05-01T10:08:31Z</time>
      </trkpt>
      <trkpt lat="59.9701233" lon="17.7179139">
        <ele>28.9769</ele>
        <time>2013-05-01T10:08:32Z</time>
      </trkpt>
      <trkpt lat="59.9700539" lon="17.717851">
        <ele>28.9769</ele>
        <time>2013-05-01T10:08:33Z</time>
      </trkpt>
      <trkpt lat="59.9699845" lon="17.7177871">
        <ele>28.9769</ele>
        <time>2013-05-01T10:08:34Z</time>
      </trkpt>
      <trkpt lat="59.969915" lon="17.7177249">
        <ele>28.9769</ele>
        <time>2013-05-01T10:08:35Z</time>
      </trkpt>
      <trkpt lat="59.9698459" lon="17.7176632">
        <ele>28.9769</ele>
        <time>2013-05-01T10:08:36Z</time>
      </trkpt>
      <trkpt lat="59.9697767" lon="17.7176049">
        <ele>28.9769</ele>
        <time>2013-05-01T10:08:37Z</time>
      </trkpt>
      <trkpt lat="59.9697067" lon="17.7175553">
        <ele>28.9769</ele>
        <time>2013-05-01T10:08:38Z</time>
      </trkpt>
      <trkpt lat="59.9696365" lon="17.7175104">
        <ele>28.4962</ele>
        <time>2013-05-01T10:08:39Z</time>
      </trkpt>
      <trkpt lat="59.9695663" lon="17.7174652">
        <ele>28.4962</ele>
        <time>2013-05-01T10:08:40Z</time>
      </trkpt>
      <trkpt lat="59.9694959" lon="17.7174212">
        <ele>28.4962</ele>
        <time>2013-05-01T10:08:41Z</time>
      </trkpt>
      <trkpt lat="59.9694249" lon="17.7173829">
        <ele>28.4962</ele>
        <time>2013-05-01T10:08:42Z</time>
      </trkpt>
      <trkpt lat="59.9693544" lon="17.7173452">
        <ele>28.4962</ele>
        <time>2013-05-01T10:08:43Z</time>
      </trkpt>
      <trkpt lat="59.969284" lon="17.7173094">
        <ele>28.4962</ele>
        <time>2013-05-01T10:08:44Z</time>
      </trkpt>
      <trkpt lat="59.9692129" lon="17.7172777">
        <ele>28.4962</ele>
        <time>2013-05-01T10:08:45Z</time>
      </trkpt>
      <trkpt lat="59.9691408" lon="17.7172497">
        <ele>28.4962</ele>
        <time>2013-05-01T10:08:46Z</time>
      </trkpt>
      <trkpt lat="59.9690675" lon="17.7172245">
        <ele>28.4962</ele>
        <time>2013-05-01T10:08:47Z</time>
      </trkpt>
      <trkpt lat="59.9689939" lon="17.717199">
        <ele>28.4962</ele>
        <time>2013-05-01T10:08:48Z</time>
      </trkpt>
      <trkpt lat="59.9689212" lon="17.7171716">
        <ele>28.4962</ele>
        <time>2013-05-01T10:08:49Z</time>
      </trkpt>
      <trkpt lat="59.9688488" lon="17.7171418">
        <ele>28.4962</ele>
        <time>2013-05-01T10:08:50Z</time>
      </trkpt>
      <trkpt lat="59.9687767" lon="17.7171094">
        <ele>28.0155</ele>
        <time>2013-05-01T10:08:51Z</time>
      </trkpt>
      <trkpt lat="59.9687039" lon="17.7170767">
        <ele>28.0155</ele>
        <time>2013-05-01T10:08:52Z</time>
      </trkpt>
      <trkpt lat="59.9686292" lon="17.7170446">
        <ele>28.0155</ele>
        <time>2013-05-01T10:08:53Z</time>
      </trkpt>
      <trkpt lat="59.9685546" lon="17.7170088">
        <ele>28.0155</ele>
        <time>2013-05-01T10:08:54Z</time>
      </trkpt>
      <trkpt lat="59.9684794" lon="17.7169691">
        <ele>28.0155</ele>
        <time>2013-05-01T10:08:55Z</time>
      </trkpt>
      <trkpt lat="59.9684026" lon="17.7169232">
        <ele>27.5349</ele>
        <time>2013-05-01T10:08:56Z</time>
      </trkpt>
      <trkpt lat="59.9683244" lon="17.7168683">
        <ele>28.0155</ele>
        <time>2013-05-01T10:08:57Z</time>
      </trkpt>
      <trkpt lat="59.9682472" lon="17.7167995">
        <ele>27.5349</ele>
        <time>2013-05-01T10:08:58Z</time>
      </trkpt>
      <trkpt lat="59.9681714" lon="17.7167168">
        <ele>27.0543</ele>
        <time>2013-05-01T10:08:59Z</time>
      </trkpt>
      <trkpt lat="59.9680946" lon="17.7166228">
        <ele>27.0543</ele>
        <time>2013-05-01T10:09:00Z</time>
      </trkpt>
      <trkpt lat="59.9680184" lon="17.7165158">
        <ele>27.0543</ele>
        <time>2013-05-01T10:09:01Z</time>
      </trkpt>
      <trkpt lat="59.9679439" lon="17.7163945">
        <ele>26.5736</ele>
        <time>2013-05-01T10:09:02Z</time>
      </trkpt>
      <trkpt lat="59.9678722" lon="17.7162595">
        <ele>26.5736</ele>
        <time>2013-05-01T10:09:03Z</time>
      </trkpt>
      <trkpt lat="59.9678049" lon="17.7161097">
        <ele>26.5736</ele>
        <time>2013-05-01T10:09:04Z</time>
      </trkpt>
      <trkpt lat="59.967742" lon="17.7159469">
        <ele>26.0929</ele>
        <time>2013-05-01T10:09:05Z</time>
      </trkpt>
      <trkpt lat="59.9676839" lon="17.7157736">
        <ele>26.0929</ele>
        <time>2013-05-01T10:09:06Z</time>
      </trkpt>
      <trkpt lat="59.9676346" lon="17.7155916">
        <ele>26.0929</ele>
        <time>2013-05-01T10:09:07Z</time>
      </trkpt>
      <trkpt lat="59.9675858" lon="17.7154103">
        <ele>25.6123</ele>
        <time>2013-05-01T10:09:08Z</time>
      </trkpt>
      <trkpt lat="59.9675404" lon="17.7152281">
        <ele>25.1317</ele>
        <time>2013-05-01T10:09:09Z</time>
      </trkpt>
      <trkpt lat="59.9674948" lon="17.7150322">
        <ele>24.1703</ele>
        <time>2013-05-01T10:09:10Z</time>
      </trkpt>
      <trkpt lat="59.9674583" lon="17.7148383">
        <ele>24.1703</ele>
        <time>2013-05-01T10:09:11Z</time>
      </trkpt>
      <trkpt lat="59.9674315" lon="17.7146523">
        <ele>24.1703</ele>
        <time>2013-05-01T10:09:12Z</time>
      </trkpt>
      <trkpt lat="59.9674093" lon="17.7144732">
        <ele>24.1703</ele>
        <time>2013-05-01T10:09:13Z</time>
      </trkpt>
      <trkpt lat="59.9673881" lon="17.7143023">
        <ele>23.6896</ele>
        <time>2013-05-01T10:09:14Z</time>
      </trkpt>
      <trkpt lat="59.9673667" lon="17.7141448">
        <ele>23.6896</ele>
        <time>2013-05-01T10:09:15Z</time>
      </trkpt>
      <trkpt lat="59.9673459" lon="17.7139906">
        <ele>23.209</ele>
        <time>2013-05-01T10:09:16Z</time>
      </trkpt>
      <trkpt lat="59.9673275" lon="17.7138361">
        <ele>23.209</ele>
        <time>2013-05-01T10:09:17Z</time>
      </trkpt>
      <trkpt lat="59.9673093" lon="17.7136874">
        <ele>23.209</ele>
        <time>2013-05-01T10:09:18Z</time>
      </trkpt>
      <trkpt lat="59.9672906" lon="17.7135409">
        <ele>23.6896</ele>
        <time>2013-05-01T10:09:19Z</time>
      </trkpt>
      <trkpt lat="59.9672715" lon="17.7133968">
        <ele>24.1703</ele>
        <time>2013-05-01T10:09:20Z</time>
      </trkpt>
      <trkpt lat="59.9672777" lon="17.7132714">
        <ele>23.6896</ele>
        <time>2013-05-01T10:09:21Z</time>
      </trkpt>
      <trkpt lat="59.9672653" lon="17.7131337">
        <ele>23.6896</ele>
        <time>2013-05-01T10:09:22Z</time>
      </trkpt>
      <trkpt lat="59.9672349" lon="17.7130063">
        <ele>23.6896</ele>
        <time>2013-05-01T10:09:23Z</time>
      </trkpt>
      <trkpt lat="59.9672012" lon="17.7128757">
        <ele>23.6896</ele>
        <time>2013-05-01T10:09:24Z</time>
      </trkpt>
      <trkpt lat="59.9671646" lon="17.7127451">
        <ele>23.6896</ele>
        <time>2013-05-01T10:09:25Z</time>
      </trkpt>
      <trkpt lat="59.967126" lon="17.712614">
        <ele>24.1703</ele>
        <time>2013-05-01T10:09:26Z</time>
      </trkpt>
      <trkpt lat="59.9670851" lon="17.7124871">
        <ele>24.1703</ele>
        <time>2013-05-01T10:09:27Z</time>
      </trkpt>
      <trkpt lat="59.9670442" lon="17.7123572">
        <ele>24.1703</ele>
        <time>2013-05-01T10:09:28Z</time>
      </trkpt>
      <trkpt lat="59.9669963" lon="17.7122323">
        <ele>25.1317</ele>
        <time>2013-05-01T10:09:29Z</time>
      </trkpt>
      <trkpt lat="59.9669462" lon="17.7121073">
        <ele>25.6123</ele>
        <time>2013-05-01T10:09:30Z</time>
      </trkpt>
      <trkpt lat="59.9668979" lon="17.7119821">
        <ele>25.6123</ele>
        <time>2013-05-01T10:09:31Z</time>
      </trkpt>
      <trkpt lat="59.9668515" lon="17.7118603">
        <ele>26.0929</ele>
        <time>2013-05-01T10:09:32Z</time>
      </trkpt>
      <trkpt lat="59.9668053" lon="17.7117365">
        <ele>26.5736</ele>
        <time>2013-05-01T10:09:33Z</time>
      </trkpt>
      <trkpt lat="59.9667603" lon="17.7116136">
        <ele>27.0543</ele>
        <time>2013-05-01T10:09:34Z</time>
      </trkpt>
      <trkpt lat="59.9667172" lon="17.7114921">
        <ele>27.0543</ele>
        <time>2013-05-01T10:09:35Z</time>
      </trkpt>
      <trkpt lat="59.9666759" lon="17.7113666">
        <ele>27.0543</ele>
        <time>2013-05-01T10:09:36Z</time>
      </trkpt>
      <trkpt lat="59.966635" lon="17.7112386">
        <ele>27.0543</ele>
        <time>2013-05-01T10:09:37Z</time>
      </trkpt>
      <trkpt lat="59.9665956" lon="17.7111097">
        <ele>27.5349</ele>
        <time>2013-05-01T10:09:38Z</time>
      </trkpt>
      <trkpt lat="59.9665582" lon="17.7109775">
        <ele>27.5349</ele>
        <time>2013-05-01T10:09:39Z</time>
      </trkpt>
      <trkpt lat="59.9665213" lon="17.7108425">
        <ele>28.0155</ele>
        <time>2013-05-01T10:09:40Z</time>
      </trkpt>
      <trkpt lat="59.9664816" lon="17.7107104">
        <ele>28.0155</ele>
        <time>2013-05-01T10:09:41Z</time>
      </trkpt>
      <trkpt lat="59.9664412" lon="17.7105774">
        <ele>28.0155</ele>
        <time>2013-05-01T10:09:42Z</time>
      </trkpt>
      <trkpt lat="59.9664012" lon="17.7104431">
        <ele>28.4962</ele>
        <time>2013-05-01T10:09:43Z</time>
      </trkpt>
      <trkpt lat="59.9663607" lon="17.7103085">
        <ele>28.4962</ele>
        <time>2013-05-01T10:09:44Z</time>
      </trkpt>
      <trkpt lat="59.9663192" lon="17.7101753">
        <ele>28.9769</ele>
        <time>2013-05-01T10:09:45Z</time>
      </trkpt>
      <trkpt lat="59.9662804" lon="17.7100386">
        <ele>28.9769</ele>
        <time>2013-05-01T10:09:46Z</time>
      </trkpt>
      <trkpt lat="59.966242" lon="17.7099011">
        <ele>28.9769</ele>
        <time>2013-05-01T10:09:47Z</time>
      </trkpt>
      <trkpt lat="59.9662024" lon="17.7097634">
        <ele>28.9769</ele>
        <time>2013-05-01T10:09:48Z</time>
      </trkpt>
      <trkpt lat="59.9661612" lon="17.7096253">
        <ele>28.9769</ele>
        <time>2013-05-01T10:09:49Z</time>
      </trkpt>
      <trkpt lat="59.9661195" lon="17.709487">
        <ele>29.4575</ele>
        <time>2013-05-01T10:09:50Z</time>
      </trkpt>
      <trkpt lat="59.9660796" lon="17.7093453">
        <ele>29.4575</ele>
        <time>2013-05-01T10:09:51Z</time>
      </trkpt>
      <trkpt lat="59.9660382" lon="17.7092034">
        <ele>29.4575</ele>
        <time>2013-05-01T10:09:52Z</time>
      </trkpt>
      <trkpt lat="59.965995" lon="17.7090635">
        <ele>29.4575</ele>
        <time>2013-05-01T10:09:53Z</time>
      </trkpt>
      <trkpt lat="59.9659511" lon="17.7089254">
        <ele>29.4575</ele>
        <time>2013-05-01T10:09:54Z</time>
      </trkpt>
      <trkpt lat="59.9659062" lon="17.7087845">
        <ele>29.9381</ele>
        <time>2013-05-01T10:09:55Z</time>
      </trkpt>
      <trkpt lat="59.9658589" lon="17.7086504">
        <ele>29.9381</ele>
        <time>2013-05-01T10:09:56Z</time>
      </trkpt>
      <trkpt lat="59.9658105" lon="17.7085281">
        <ele>29.9381</ele>
        <time>2013-05-01T10:09:57Z</time>
      </trkpt>
      <trkpt lat="59.9657615" lon="17.7084087">
        <ele>30.4188</ele>
        <time>2013-05-01T10:09:58Z</time>
      </trkpt>
      <trkpt lat="59.965707" lon="17.7082986">
        <ele>30.4188</ele>
        <time>2013-05-01T10:09:59Z</time>
      </trkpt>
      <trkpt lat="59.9656472" lon="17.708197">
        <ele>30.4188</ele>
        <time>2013-05-01T10:10:00Z</time>
      </trkpt>
      <trkpt lat="59.9655833" lon="17.7081067">
        <ele>30.4188</ele>
        <time>2013-05-01T10:10:01Z</time>
      </trkpt>
      <trkpt lat="59.965516" lon="17.7080271">
        <ele>29.9381</ele>
        <time>2013-05-01T10:10:02Z</time>
      </trkpt>
      <trkpt lat="59.9654469" lon="17.7079562">
        <ele>29.9381</ele>
        <time>2013-05-01T10:10:03Z</time>
      </trkpt>
      <trkpt lat="59.9653777" lon="17.707894">
        <ele>29.9381</ele>
        <time>2013-05-01T10:10:04Z</time>
      </trkpt>
      <trkpt lat="59.9653058" lon="17.7078353">
        <ele>29.9381</ele>
        <time>2013-05-01T10:10:05Z</time>
      </trkpt>
      <trkpt lat="59.9652335" lon="17.7077783">
        <ele>29.9381</ele>
        <time>2013-05-01T10:10:06Z</time>
      </trkpt>
      <trkpt lat="59.9651612" lon="17.707721">
        <ele>29.9381</ele>
        <time>2013-05-01T10:10:07Z</time>
      </trkpt>
      <trkpt lat="59.9650896" lon="17.707663">
        <ele>29.9381</ele>
        <time>2013-05-01T10:10:08Z</time>
      </trkpt>
      <trkpt lat="59.9650182" lon="17.7076048">
        <ele>29.9381</ele>
        <time>2013-05-01T10:10:09Z</time>
      </trkpt>
      <trkpt lat="59.9649462" lon="17.7075496">
        <ele>30.4188</ele>
        <time>2013-05-01T10:10:10Z</time>
      </trkpt>
      <trkpt lat="59.9648742" lon="17.7074957">
        <ele>30.4188</ele>
        <time>2013-05-01T10:10:11Z</time>
      </trkpt>
      <trkpt lat="59.9648021" lon="17.7074419">
        <ele>30.4188</ele>
        <time>2013-05-01T10:10:12Z</time>
      </trkpt>
      <trkpt lat="59.9647291" lon="17.7073901">
        <ele>30.4188</ele>
        <time>2013-05-01T10:10:13Z</time>
      </trkpt>
      <trkpt lat="59.9646557" lon="17.7073413">
        <ele>30.8995</ele>
        <time>2013-05-01T10:10:14Z</time>
      </trkpt>
      <trkpt lat="59.9645815" lon="17.7072942">
        <ele>30.8995</ele>
        <time>2013-05-01T10:10:15Z</time>
      </trkpt>
      <trkpt lat="59.9645043" lon="17.7072513">
        <ele>30.8995</ele>
        <time>2013-05-01T10:10:16Z</time>
      </trkpt>
      <trkpt lat="59.9644256" lon="17.7072154">
        <ele>31.3801</ele>
        <time>2013-05-01T10:10:17Z</time>
      </trkpt>
      <trkpt lat="59.9643453" lon="17.7071883">
        <ele>31.3801</ele>
        <time>2013-05-01T10:10:18Z</time>
      </trkpt>
      <trkpt lat="59.9642638" lon="17.7071692">
        <ele>31.3801</ele>
        <time>2013-05-01T10:10:19Z</time>
      </trkpt>
      <trkpt lat="59.9641816" lon="17.7071563">
        <ele>31.8607</ele>
        <time>2013-05-01T10:10:20Z</time>
      </trkpt>
      <trkpt lat="59.9641002" lon="17.7071413">
        <ele>31.8607</ele>
        <time>2013-05-01T10:10:21Z</time>
      </trkpt>
      <trkpt lat="59.9640185" lon="17.7071244">
        <ele>32.3416</ele>
        <time>2013-05-01T10:10:22Z</time>
      </trkpt>
      <trkpt lat="59.9639374" lon="17.7071119">
        <ele>32.3416</ele>
        <time>2013-05-01T10:10:23Z</time>
      </trkpt>
      <trkpt lat="59.9638568" lon="17.707105">
        <ele>32.3416</ele>
        <time>2013-05-01T10:10:24Z</time>
      </trkpt>
      <trkpt lat="59.9637748" lon="17.7070987">
        <ele>32.3416</ele>
        <time>2013-05-01T10:10:25Z</time>
      </trkpt>
      <trkpt lat="59.963692" lon="17.7070901">
        <ele>32.3416</ele>
        <time>2013-05-01T10:10:26Z</time>
      </trkpt>
      <trkpt lat="59.9636097" lon="17.7070826">
        <ele>32.3416</ele>
        <time>2013-05-01T10:10:27Z</time>
      </trkpt>
      <trkpt lat="59.9635279" lon="17.7070774">
        <ele>32.3416</ele>
        <time>2013-05-01T10:10:28Z</time>
      </trkpt>
      <trkpt lat="59.9634471" lon="17.7070723">
        <ele>32.3416</ele>
        <time>2013-05-01T10:10:29Z</time>
      </trkpt>
      <trkpt lat="59.9633672" lon="17.7070673">
        <ele>32.3416</ele>
        <time>2013-05-01T10:10:30Z</time>
      </trkpt>
      <trkpt lat="59.9632896" lon="17.7070634">
        <ele>32.3416</ele>
        <time>2013-05-01T10:10:31Z</time>
      </trkpt>
      <trkpt lat="59.9632133" lon="17.7070594">
        <ele>32.8223</ele>
        <time>2013-05-01T10:10:32Z</time>
      </trkpt>
      <trkpt lat="59.9631387" lon="17.7070564">
        <ele>32.3416</ele>
        <time>2013-05-01T10:10:33Z</time>
      </trkpt>
      <trkpt lat="59.9630649" lon="17.7070541">
        <ele>32.8223</ele>
        <time>2013-05-01T10:10:34Z</time>
      </trkpt>
      <trkpt lat="59.9629908" lon="17.7070505">
        <ele>32.3416</ele>
        <time>2013-05-01T10:10:35Z</time>
      </trkpt>
      <trkpt lat="59.962915" lon="17.7070481">
        <ele>32.8223</ele>
        <time>2013-05-01T10:10:36Z</time>
      </trkpt>
      <trkpt lat="59.962839" lon="17.707042">
        <ele>32.8223</ele>
        <time>2013-05-01T10:10:37Z</time>
      </trkpt>
      <trkpt lat="59.9627637" lon="17.7070353">
        <ele>32.8223</ele>
        <time>2013-05-01T10:10:38Z</time>
      </trkpt>
      <trkpt lat="59.9626878" lon="17.7070277">
        <ele>32.8223</ele>
        <time>2013-05-01T10:10:39Z</time>
      </trkpt>
      <trkpt lat="59.9626139" lon="17.707014">
        <ele>32.8223</ele>
        <time>2013-05-01T10:10:40Z</time>
      </trkpt>
      <trkpt lat="59.9625405" lon="17.7069974">
        <ele>32.8223</ele>
        <time>2013-05-01T10:10:41Z</time>
      </trkpt>
      <trkpt lat="59.9624685" lon="17.7069745">
        <ele>32.8223</ele>
        <time>2013-05-01T10:10:42Z</time>
      </trkpt>
      <trkpt lat="59.9623972" lon="17.7069445">
        <ele>32.3416</ele>
        <time>2013-05-01T10:10:43Z</time>
      </trkpt>
      <trkpt lat="59.9623257" lon="17.7069134">
        <ele>32.3416</ele>
        <time>2013-05-01T10:10:44Z</time>
      </trkpt>
      <trkpt lat="59.9622545" lon="17.7068827">
        <ele>32.3416</ele>
        <time>2013-05-01T10:10:45Z</time>
      </trkpt>
      <trkpt lat="59.9621841" lon="17.7068486">
        <ele>32.3416</ele>
        <time>2013-05-01T10:10:46Z</time>
      </trkpt>
      <trkpt lat="59.9621147" lon="17.7068098">
        <ele>32.3416</ele>
        <time>2013-05-01T10:10:47Z</time>
      </trkpt>
      <trkpt lat="59.9620456" lon="17.7067684">
        <ele>32.3416</ele>
        <time>2013-05-01T10:10:48Z</time>
      </trkpt>
      <trkpt lat="59.9619769" lon="17.7067223">
        <ele>32.3416</ele>
        <time>2013-05-01T10:10:49Z</time>
      </trkpt>
      <trkpt lat="59.961908" lon="17.7066736">
        <ele>32.3416</ele>
        <time>2013-05-01T10:10:50Z</time>
      </trkpt>
      <trkpt lat="59.9618386" lon="17.7066223">
        <ele>32.8223</ele>
        <time>2013-05-01T10:10:51Z</time>
      </trkpt>
      <trkpt lat="59.9617718" lon="17.7065622">
        <ele>32.8223</ele>
        <time>2013-05-01T10:10:52Z</time>
      </trkpt>
      <trkpt lat="59.9617065" lon="17.7064942">
        <ele>32.3416</ele>
        <time>2013-05-01T10:10:53Z</time>
      </trkpt>
      <trkpt lat="59.9616416" lon="17.7064232">
        <ele>32.8223</ele>
        <time>2013-05-01T10:10:54Z</time>
      </trkpt>
      <trkpt lat="59.9615774" lon="17.7063457">
        <ele>32.3416</ele>
        <time>2013-05-01T10:10:55Z</time>
      </trkpt>
      <trkpt lat="59.9615158" lon="17.7062567">
        <ele>31.8607</ele>
        <time>2013-05-01T10:10:56Z</time>
      </trkpt>
      <trkpt lat="59.9614564" lon="17.7061605">
        <ele>31.8607</ele>
        <time>2013-05-01T10:10:57Z</time>
      </trkpt>
      <trkpt lat="59.9613994" lon="17.7060596">
        <ele>31.8607</ele>
        <time>2013-05-01T10:10:58Z</time>
      </trkpt>
      <trkpt lat="59.9613439" lon="17.7059562">
        <ele>31.3801</ele>
        <time>2013-05-01T10:10:59Z</time>
      </trkpt>
      <trkpt lat="59.961288" lon="17.7058546">
        <ele>31.3801</ele>
        <time>2013-05-01T10:11:00Z</time>
      </trkpt>
      <trkpt lat="59.9612334" lon="17.7057536">
        <ele>30.8995</ele>
        <time>2013-05-01T10:11:01Z</time>
      </trkpt>
      <trkpt lat="59.9611797" lon="17.7056529">
        <ele>30.8995</ele>
        <time>2013-05-01T10:11:02Z</time>
      </trkpt>
      <trkpt lat="59.9611258" lon="17.7055531">
        <ele>31.3801</ele>
        <time>2013-05-01T10:11:03Z</time>
      </trkpt>
      <trkpt lat="59.9610711" lon="17.7054574">
        <ele>30.8995</ele>
        <time>2013-05-01T10:11:04Z</time>
      </trkpt>
      <trkpt lat="59.9610155" lon="17.7053656">
        <ele>31.3801</ele>
        <time>2013-05-01T10:11:05Z</time>
      </trkpt>
      <trkpt lat="59.9609591" lon="17.7052744">
        <ele>30.8995</ele>
        <time>2013-05-01T10:11:06Z</time>
      </trkpt>
      <trkpt lat="59.960902" lon="17.7051837">
        <ele>30.8995</ele>
        <time>2013-05-01T10:11:07Z</time>
      </trkpt>
      <trkpt lat="59.960843" lon="17.7050988">
        <ele>30.8995</ele>
        <time>2013-05-01T10:11:08Z</time>
      </trkpt>
      <trkpt lat="59.9607838" lon="17.7050154">
        <ele>30.8995</ele>
        <time>2013-05-01T10:11:09Z</time>
      </trkpt>
      <trkpt lat="59.9607238" lon="17.7049314">
        <ele>30.8995</ele>
        <time>2013-05-01T10:11:10Z</time>
      </trkpt>
      <trkpt lat="59.9606626" lon="17.7048508">
        <ele>31.3801</ele>
        <time>2013-05-01T10:11:11Z</time>
      </trkpt>
      <trkpt lat="59.9605991" lon="17.7047754">
        <ele>31.3801</ele>
        <time>2013-05-01T10:11:12Z</time>
      </trkpt>
      <trkpt lat="59.9605352" lon="17.7047003">
        <ele>30.8995</ele>
        <time>2013-05-01T10:11:13Z</time>
      </trkpt>
      <trkpt lat="59.9604715" lon="17.7046223">
        <ele>30.8995</ele>
        <time>2013-05-01T10:11:14Z</time>
      </trkpt>
      <trkpt lat="59.9604084" lon="17.7045456">
        <ele>30.8995</ele>
        <time>2013-05-01T10:11:15Z</time>
      </trkpt>
      <trkpt lat="59.9603452" lon="17.7044696">
        <ele>30.8995</ele>
        <time>2013-05-01T10:11:16Z</time>
      </trkpt>
      <trkpt lat="59.9602815" lon="17.7043954">
        <ele>30.8995</ele>
        <time>2013-05-01T10:11:17Z</time>
      </trkpt>
      <trkpt lat="59.9602186" lon="17.7043151">
        <ele>30.8995</ele>
        <time>2013-05-01T10:11:18Z</time>
      </trkpt>
      <trkpt lat="59.9601598" lon="17.704225">
        <ele>31.3801</ele>
        <time>2013-05-01T10:11:19Z</time>
      </trkpt>
      <trkpt lat="59.9601046" lon="17.7041275">
        <ele>31.3801</ele>
        <time>2013-05-01T10:11:20Z</time>
      </trkpt>
      <trkpt lat="59.9600537" lon="17.7040173">
        <ele>30.8995</ele>
        <time>2013-05-01T10:11:21Z</time>
      </trkpt>
      <trkpt lat="59.9600068" lon="17.7038945">
        <ele>31.3801</ele>
        <time>2013-05-01T10:11:22Z</time>
      </trkpt>
      <trkpt lat="59.9599638" lon="17.7037633">
        <ele>31.3801</ele>
        <time>2013-05-01T10:11:23Z</time>
      </trkpt>
      <trkpt lat="59.9599226" lon="17.7036303">
        <ele>31.3801</ele>
        <time>2013-05-01T10:11:24Z</time>
      </trkpt>
      <trkpt lat="59.9598832" lon="17.7035013">
        <ele>31.3801</ele>
        <time>2013-05-01T10:11:25Z</time>
      </trkpt>
      <trkpt lat="59.9598449" lon="17.7033728">
        <ele>31.8607</ele>
        <time>2013-05-01T10:11:26Z</time>
      </trkpt>
      <trkpt lat="59.9598076" lon="17.7032436">
        <ele>31.8607</ele>
        <time>2013-05-01T10:11:27Z</time>
      </trkpt>
      <trkpt lat="59.9597712" lon="17.7031139">
        <ele>31.8607</ele>
        <time>2013-05-01T10:11:28Z</time>
      </trkpt>
      <trkpt lat="59.959735" lon="17.7029869">
        <ele>30.8995</ele>
        <time>2013-05-01T10:11:29Z</time>
      </trkpt>
      <trkpt lat="59.9596961" lon="17.702865">
        <ele>31.3801</ele>
        <time>2013-05-01T10:11:30Z</time>
      </trkpt>
      <trkpt lat="59.9596578" lon="17.7027417">
        <ele>31.8607</ele>
        <time>2013-05-01T10:11:31Z</time>
      </trkpt>
      <trkpt lat="59.9596185" lon="17.7026201">
        <ele>32.8223</ele>
        <time>2013-05-01T10:11:32Z</time>
      </trkpt>
      <trkpt lat="59.9595795" lon="17.7025013">
        <ele>33.3029</ele>
        <time>2013-05-01T10:11:33Z</time>
      </trkpt>
      <trkpt lat="59.9595408" lon="17.7023782">
        <ele>33.3029</ele>
        <time>2013-05-01T10:11:34Z</time>
      </trkpt>
      <trkpt lat="59.9595024" lon="17.7022487">
        <ele>33.7834</ele>
        <time>2013-05-01T10:11:35Z</time>
      </trkpt>
      <trkpt lat="59.9594624" lon="17.7021203">
        <ele>33.7834</ele>
        <time>2013-05-01T10:11:36Z</time>
      </trkpt>
      <trkpt lat="59.9594251" lon="17.7019833">
        <ele>33.7834</ele>
        <time>2013-05-01T10:11:37Z</time>
      </trkpt>
      <trkpt lat="59.9593903" lon="17.701844">
        <ele>33.7834</ele>
        <time>2013-05-01T10:11:38Z</time>
      </trkpt>
      <trkpt lat="59.9593594" lon="17.7017033">
        <ele>33.7834</ele>
        <time>2013-05-01T10:11:39Z</time>
      </trkpt>
      <trkpt lat="59.959328" lon="17.7015618">
        <ele>33.7834</ele>
        <time>2013-05-01T10:11:40Z</time>
      </trkpt>
      <trkpt lat="59.9592979" lon="17.7014211">
        <ele>33.7834</ele>
        <time>2013-05-01T10:11:41Z</time>
      </trkpt>
      <trkpt lat="59.9592715" lon="17.7012806">
        <ele>33.7834</ele>
        <time>2013-05-01T10:11:42Z</time>
      </trkpt>
      <trkpt lat="59.9592486" lon="17.701137">
        <ele>34.2642</ele>
        <time>2013-05-01T10:11:43Z</time>
      </trkpt>
      <trkpt lat="59.959229" lon="17.7009869">
        <ele>33.3029</ele>
        <time>2013-05-01T10:11:44Z</time>
      </trkpt>
      <trkpt lat="59.9592122" lon="17.7008334">
        <ele>33.3029</ele>
        <time>2013-05-01T10:11:45Z</time>
      </trkpt>
      <trkpt lat="59.9591957" lon="17.7006774">
        <ele>32.3416</ele>
        <time>2013-05-01T10:11:46Z</time>
      </trkpt>
      <trkpt lat="59.9591798" lon="17.7005217">
        <ele>31.8607</ele>
        <time>2013-05-01T10:11:47Z</time>
      </trkpt>
      <trkpt lat="59.9591661" lon="17.7003635">
        <ele>31.3801</ele>
        <time>2013-05-01T10:11:48Z</time>
      </trkpt>
      <trkpt lat="59.9591517" lon="17.7002048">
        <ele>30.8995</ele>
        <time>2013-05-01T10:11:49Z</time>
      </trkpt>
      <trkpt lat="59.9591377" lon="17.7000435">
        <ele>30.8995</ele>
        <time>2013-05-01T10:11:50Z</time>
      </trkpt>
      <trkpt lat="59.9591246" lon="17.6998808">
        <ele>30.4188</ele>
        <time>2013-05-01T10:11:51Z</time>
      </trkpt>
      <trkpt lat="59.9591119" lon="17.6997168">
        <ele>29.9381</ele>
        <time>2013-05-01T10:11:52Z</time>
      </trkpt>
      <trkpt lat="59.9590998" lon="17.6995554">
        <ele>29.9381</ele>
        <time>2013-05-01T10:11:53Z</time>
      </trkpt>
      <trkpt lat="59.9590941" lon="17.6993939">
        <ele>29.4575</ele>
        <time>2013-05-01T10:11:54Z</time>
      </trkpt>
      <trkpt lat="59.9590893" lon="17.6992356">
        <ele>28.9769</ele>
        <time>2013-05-01T10:11:55Z</time>
      </trkpt>
      <trkpt lat="59.9590839" lon="17.699079">
        <ele>28.4962</ele>
        <time>2013-05-01T10:11:56Z</time>
      </trkpt>
      <trkpt lat="59.9590795" lon="17.6989215">
        <ele>28.0155</ele>
        <time>2013-05-01T10:11:57Z</time>
      </trkpt>
      <trkpt lat="59.9590761" lon="17.6987688">
        <ele>28.4962</ele>
        <time>2013-05-01T10:11:58Z</time>
      </trkpt>
      <trkpt lat="59.959075" lon="17.6986214">
        <ele>28.4962</ele>
        <time>2013-05-01T10:11:59Z</time>
      </trkpt>
      <trkpt lat="59.9590708" lon="17.6984724">
        <ele>28.0155</ele>
        <time>2013-05-01T10:12:00Z</time>
      </trkpt>
      <trkpt lat="59.9590662" lon="17.6983251">
        <ele>28.4962</ele>
        <time>2013-05-01T10:12:01Z</time>
      </trkpt>
      <trkpt lat="59.9590574" lon="17.6981752">
        <ele>28.4962</ele>
        <time>2013-05-01T10:12:02Z</time>
      </trkpt>
      <trkpt lat="59.9590475" lon="17.6980258">
        <ele>28.0155</ele>
        <time>2013-05-01T10:12:03Z</time>
      </trkpt>
      <trkpt lat="59.9590336" lon="17.6978743">
        <ele>27.5349</ele>
        <time>2013-05-01T10:12:04Z</time>
      </trkpt>
      <trkpt lat="59.9590165" lon="17.6977232">
        <ele>27.5349</ele>
        <time>2013-05-01T10:12:05Z</time>
      </trkpt>
      <trkpt lat="59.9589948" lon="17.6975652">
        <ele>27.5349</ele>
        <time>2013-05-01T10:12:06Z</time>
      </trkpt>
      <trkpt lat="59.9589681" lon="17.6974033">
        <ele>27.5349</ele>
        <time>2013-05-01T10:12:07Z</time>
      </trkpt>
      <trkpt lat="59.9589374" lon="17.6972427">
        <ele>27.0543</ele>
        <time>2013-05-01T10:12:08Z</time>
      </trkpt>
      <trkpt lat="59.9589039" lon="17.697083">
        <ele>27.0543</ele>
        <time>2013-05-01T10:12:09Z</time>
      </trkpt>
      <trkpt lat="59.9588677" lon="17.6969261">
        <ele>27.0543</ele>
        <time>2013-05-01T10:12:10Z</time>
      </trkpt>
      <trkpt lat="59.9588262" lon="17.6967721">
        <ele>26.5736</ele>
        <time>2013-05-01T10:12:11Z</time>
      </trkpt>
      <trkpt lat="59.9587819" lon="17.6966147">
        <ele>26.5736</ele>
        <time>2013-05-01T10:12:12Z</time>
      </trkpt>
      <trkpt lat="59.9587357" lon="17.6964595">
        <ele>26.0929</ele>
        <time>2013-05-01T10:12:13Z</time>
      </trkpt>
      <trkpt lat="59.9586865" lon="17.6963077">
        <ele>26.0929</ele>
        <time>2013-05-01T10:12:14Z</time>
      </trkpt>
      <trkpt lat="59.9586312" lon="17.6961565">
        <ele>26.0929</ele>
        <time>2013-05-01T10:12:15Z</time>
      </trkpt>
      <trkpt lat="59.958574" lon="17.6960103">
        <ele>26.5736</ele>
        <time>2013-05-01T10:12:16Z</time>
      </trkpt>
      <trkpt lat="59.9585165" lon="17.6958648">
        <ele>26.5736</ele>
        <time>2013-05-01T10:12:17Z</time>
      </trkpt>
      <trkpt lat="59.9584591" lon="17.6957203">
        <ele>26.5736</ele>
        <time>2013-05-01T10:12:18Z</time>
      </trkpt>
      <trkpt lat="59.9584022" lon="17.6955755">
        <ele>27.0543</ele>
        <time>2013-05-01T10:12:19Z</time>
      </trkpt>
      <trkpt lat="59.9583451" lon="17.6954312">
        <ele>27.0543</ele>
        <time>2013-05-01T10:12:20Z</time>
      </trkpt>
      <trkpt lat="59.9582888" lon="17.6952893">
        <ele>27.0543</ele>
        <time>2013-05-01T10:12:21Z</time>
      </trkpt>
      <trkpt lat="59.9582343" lon="17.6951469">
        <ele>27.5349</ele>
        <time>2013-05-01T10:12:22Z</time>
      </trkpt>
      <trkpt lat="59.9581818" lon="17.6950018">
        <ele>27.5349</ele>
        <time>2013-05-01T10:12:23Z</time>
      </trkpt>
      <trkpt lat="59.9581297" lon="17.6948571">
        <ele>27.5349</ele>
        <time>2013-05-01T10:12:24Z</time>
      </trkpt>
      <trkpt lat="59.958077" lon="17.6947136">
        <ele>27.5349</ele>
        <time>2013-05-01T10:12:25Z</time>
      </trkpt>
      <trkpt lat="59.9580245" lon="17.694573">
        <ele>28.0155</ele>
        <time>2013-05-01T10:12:26Z</time>
      </trkpt>
      <trkpt lat="59.9579727" lon="17.6944319">
        <ele>28.0155</ele>
        <time>2013-05-01T10:12:27Z</time>
      </trkpt>
      <trkpt lat="59.9579218" lon="17.6942907">
        <ele>28.4962</ele>
        <time>2013-05-01T10:12:28Z</time>
      </trkpt>
      <trkpt lat="59.9578712" lon="17.694151">
        <ele>28.4962</ele>
        <time>2013-05-01T10:12:29Z</time>
      </trkpt>
      <trkpt lat="59.9578204" lon="17.6940096">
        <ele>28.9769</ele>
        <time>2013-05-01T10:12:30Z</time>
      </trkpt>
      <trkpt lat="59.9577698" lon="17.6938668">
        <ele>28.9769</ele>
        <time>2013-05-01T10:12:31Z</time>
      </trkpt>
      <trkpt lat="59.9577204" lon="17.6937228">
        <ele>28.9769</ele>
        <time>2013-05-01T10:12:32Z</time>
      </trkpt>
      <trkpt lat="59.9576703" lon="17.6935783">
        <ele>28.9769</ele>
        <time>2013-05-01T10:12:33Z</time>
      </trkpt>
      <trkpt lat="59.9576194" lon="17.6934346">
        <ele>28.9769</ele>
        <time>2013-05-01T10:12:34Z</time>
      </trkpt>
      <trkpt lat="59.957569" lon="17.6932912">
        <ele>28.9769</ele>
        <time>2013-05-01T10:12:35Z</time>
      </trkpt>
      <trkpt lat="59.9575204" lon="17.6931469">
        <ele>28.9769</ele>
        <time>2013-05-01T10:12:36Z</time>
      </trkpt>
      <trkpt lat="59.9574726" lon="17.6930037">
        <ele>28.9769</ele>
        <time>2013-05-01T10:12:37Z</time>
      </trkpt>
      <trkpt lat="59.9574234" lon="17.6928608">
        <ele>28.9769</ele>
        <time>2013-05-01T10:12:38Z</time>
      </trkpt>
      <trkpt lat="59.9573734" lon="17.6927199">
        <ele>29.4575</ele>
        <time>2013-05-01T10:12:39Z</time>
      </trkpt>
      <trkpt lat="59.9573229" lon="17.6925816">
        <ele>29.4575</ele>
        <time>2013-05-01T10:12:40Z</time>
      </trkpt>
      <trkpt lat="59.9572724" lon="17.6924419">
        <ele>29.4575</ele>
        <time>2013-05-01T10:12:41Z</time>
      </trkpt>
      <trkpt lat="59.9572242" lon="17.6922971">
        <ele>29.4575</ele>
        <time>2013-05-01T10:12:42Z</time>
      </trkpt>
      <trkpt lat="59.9571755" lon="17.6921557">
        <ele>29.4575</ele>
        <time>2013-05-01T10:12:43Z</time>
      </trkpt>
      <trkpt lat="59.9571266" lon="17.6920165">
        <ele>29.4575</ele>
        <time>2013-05-01T10:12:44Z</time>
      </trkpt>
      <trkpt lat="59.9570776" lon="17.6918777">
        <ele>29.4575</ele>
        <time>2013-05-01T10:12:45Z</time>
      </trkpt>
      <trkpt lat="59.95703" lon="17.6917373">
        <ele>29.9381</ele>
        <time>2013-05-01T10:12:46Z</time>
      </trkpt>
      <trkpt lat="59.9569834" lon="17.6915979">
        <ele>29.9381</ele>
        <time>2013-05-01T10:12:47Z</time>
      </trkpt>
      <trkpt lat="59.9569384" lon="17.6914549">
        <ele>29.9381</ele>
        <time>2013-05-01T10:12:48Z</time>
      </trkpt>
      <trkpt lat="59.9568928" lon="17.6913222">
        <ele>29.9381</ele>
        <time>2013-05-01T10:12:49Z</time>
      </trkpt>
      <trkpt lat="59.9568455" lon="17.691197">
        <ele>29.4575</ele>
        <time>2013-05-01T10:12:50Z</time>
      </trkpt>
      <trkpt lat="59.9568013" lon="17.691071">
        <ele>29.9381</ele>
        <time>2013-05-01T10:12:51Z</time>
      </trkpt>
      <trkpt lat="59.9567574" lon="17.6909472">
        <ele>29.9381</ele>
        <time>2013-05-01T10:12:52Z</time>
      </trkpt>
      <trkpt lat="59.9567191" lon="17.6908204">
        <ele>30.4188</ele>
        <time>2013-05-01T10:12:53Z</time>
      </trkpt>
      <trkpt lat="59.9566834" lon="17.6906939">
        <ele>30.8995</ele>
        <time>2013-05-01T10:12:54Z</time>
      </trkpt>
      <trkpt lat="59.9566464" lon="17.6905759">
        <ele>30.8995</ele>
        <time>2013-05-01T10:12:55Z</time>
      </trkpt>
      <trkpt lat="59.9566089" lon="17.6904577">
        <ele>30.8995</ele>
        <time>2013-05-01T10:12:56Z</time>
      </trkpt>
      <trkpt lat="59.956574" lon="17.6903397">
        <ele>30.8995</ele>
        <time>2013-05-01T10:12:57Z</time>
      </trkpt>
      <trkpt lat="59.9565363" lon="17.6902247">
        <ele>30.8995</ele>
        <time>2013-05-01T10:12:58Z</time>
      </trkpt>
      <trkpt lat="59.9564948" lon="17.6901184">
        <ele>30.8995</ele>
        <time>2013-05-01T10:12:59Z</time>
      </trkpt>
      <trkpt lat="59.9564499" lon="17.6900165">
        <ele>30.4188</ele>
        <time>2013-05-01T10:13:00Z</time>
      </trkpt>
      <trkpt lat="59.956405" lon="17.6899161">
        <ele>29.4575</ele>
        <time>2013-05-01T10:13:01Z</time>
      </trkpt>
      <trkpt lat="59.9563586" lon="17.6898112">
        <ele>29.4575</ele>
        <time>2013-05-01T10:13:02Z</time>
      </trkpt>
      <trkpt lat="59.9563166" lon="17.6896974">
        <ele>29.4575</ele>
        <time>2013-05-01T10:13:03Z</time>
      </trkpt>
      <trkpt lat="59.9562757" lon="17.6895801">
        <ele>28.0155</ele>
        <time>2013-05-01T10:13:04Z</time>
      </trkpt>
      <trkpt lat="59.9562389" lon="17.6894584">
        <ele>25.6123</ele>
        <time>2013-05-01T10:13:05Z</time>
      </trkpt>
      <trkpt lat="59.9561963" lon="17.6893418">
        <ele>25.1317</ele>
        <time>2013-05-01T10:13:06Z</time>
      </trkpt>
      <trkpt lat="59.9561539" lon="17.6892206">
        <ele>24.651</ele>
        <time>2013-05-01T10:13:07Z</time>
      </trkpt>
      <trkpt lat="59.9561186" lon="17.6890891">
        <ele>24.651</ele>
        <time>2013-05-01T10:13:08Z</time>
      </trkpt>
      <trkpt lat="59.9560944" lon="17.6889538">
        <ele>24.651</ele>
        <time>2013-05-01T10:13:09Z</time>
      </trkpt>
      <trkpt lat="59.9560772" lon="17.6888198">
        <ele>24.651</ele>
        <time>2013-05-01T10:13:10Z</time>
      </trkpt>
      <trkpt lat="59.9560593" lon="17.6886858">
        <ele>24.651</ele>
        <time>2013-05-01T10:13:11Z</time>
      </trkpt>
      <trkpt lat="59.95604" lon="17.6885469">
        <ele>24.651</ele>
        <time>2013-05-01T10:13:12Z</time>
      </trkpt>
      <trkpt lat="59.9560204" lon="17.688408">
        <ele>24.651</ele>
        <time>2013-05-01T10:13:13Z</time>
      </trkpt>
      <trkpt lat="59.9560012" lon="17.6882678">
        <ele>24.651</ele>
        <time>2013-05-01T10:13:14Z</time>
      </trkpt>
      <trkpt lat="59.95598" lon="17.6881269">
        <ele>24.651</ele>
        <time>2013-05-01T10:13:15Z</time>
      </trkpt>
      <trkpt lat="59.955957" lon="17.6879867">
        <ele>24.1703</ele>
        <time>2013-05-01T10:13:16Z</time>
      </trkpt>
      <trkpt lat="59.9559344" lon="17.6878425">
        <ele>24.1703</ele>
        <time>2013-05-01T10:13:17Z</time>
      </trkpt>
      <trkpt lat="59.955913" lon="17.687695">
        <ele>24.1703</ele>
        <time>2013-05-01T10:13:18Z</time>
      </trkpt>
      <trkpt lat="59.9558929" lon="17.6875466">
        <ele>24.1703</ele>
        <time>2013-05-01T10:13:19Z</time>
      </trkpt>
      <trkpt lat="59.9558723" lon="17.6873975">
        <ele>24.1703</ele>
        <time>2013-05-01T10:13:20Z</time>
      </trkpt>
      <trkpt lat="59.9558504" lon="17.6872467">
        <ele>24.1703</ele>
        <time>2013-05-01T10:13:21Z</time>
      </trkpt>
      <trkpt lat="59.9558285" lon="17.6870916">
        <ele>24.1703</ele>
        <time>2013-05-01T10:13:22Z</time>
      </trkpt>
      <trkpt lat="59.9558064" lon="17.6869326">
        <ele>24.1703</ele>
        <time>2013-05-01T10:13:23Z</time>
      </trkpt>
      <trkpt lat="59.9557832" lon="17.6867716">
        <ele>24.1703</ele>
        <time>2013-05-01T10:13:24Z</time>
      </trkpt>
      <trkpt lat="59.9557599" lon="17.686611">
        <ele>24.1703</ele>
        <time>2013-05-01T10:13:25Z</time>
      </trkpt>
      <trkpt lat="59.9557368" lon="17.686448">
        <ele>24.1703</ele>
        <time>2013-05-01T10:13:26Z</time>
      </trkpt>
      <trkpt lat="59.9557127" lon="17.6862852">
        <ele>24.1703</ele>
        <time>2013-05-01T10:13:27Z</time>
      </trkpt>
      <trkpt lat="59.9556893" lon="17.6861244">
        <ele>24.1703</ele>
        <time>2013-05-01T10:13:28Z</time>
      </trkpt>
      <trkpt lat="59.9556658" lon="17.6859635">
        <ele>24.651</ele>
        <time>2013-05-01T10:13:29Z</time>
      </trkpt>
      <trkpt lat="59.9556427" lon="17.6858024">
        <ele>24.651</ele>
        <time>2013-05-01T10:13:30Z</time>
      </trkpt>
      <trkpt lat="59.9556195" lon="17.6856399">
        <ele>24.651</ele>
        <time>2013-05-01T10:13:31Z</time>
      </trkpt>
      <trkpt lat="59.9555959" lon="17.6854755">
        <ele>24.651</ele>
        <time>2013-05-01T10:13:32Z</time>
      </trkpt>
      <trkpt lat="59.9555723" lon="17.6853089">
        <ele>24.651</ele>
        <time>2013-05-01T10:13:33Z</time>
      </trkpt>
      <trkpt lat="59.955549" lon="17.6851416">
        <ele>24.651</ele>
        <time>2013-05-01T10:13:34Z</time>
      </trkpt>
      <trkpt lat="59.9555247" lon="17.6849743">
        <ele>24.651</ele>
        <time>2013-05-01T10:13:35Z</time>
      </trkpt>
      <trkpt lat="59.9554988" lon="17.6848071">
        <ele>24.651</ele>
        <time>2013-05-01T10:13:36Z</time>
      </trkpt>
      <trkpt lat="59.9554719" lon="17.6846411">
        <ele>24.651</ele>
        <time>2013-05-01T10:13:37Z</time>
      </trkpt>
      <trkpt lat="59.9554447" lon="17.6844747">
        <ele>24.651</ele>
        <time>2013-05-01T10:13:38Z</time>
      </trkpt>
      <trkpt lat="59.9554151" lon="17.6843089">
        <ele>24.651</ele>
        <time>2013-05-01T10:13:39Z</time>
      </trkpt>
      <trkpt lat="59.9553836" lon="17.6841433">
        <ele>24.651</ele>
        <time>2013-05-01T10:13:40Z</time>
      </trkpt>
      <trkpt lat="59.9553509" lon="17.683977">
        <ele>24.651</ele>
        <time>2013-05-01T10:13:41Z</time>
      </trkpt>
      <trkpt lat="59.955317" lon="17.6838113">
        <ele>24.651</ele>
        <time>2013-05-01T10:13:42Z</time>
      </trkpt>
      <trkpt lat="59.9552827" lon="17.6836468">
        <ele>25.1317</ele>
        <time>2013-05-01T10:13:43Z</time>
      </trkpt>
      <trkpt lat="59.9552468" lon="17.6834841">
        <ele>25.1317</ele>
        <time>2013-05-01T10:13:44Z</time>
      </trkpt>
      <trkpt lat="59.9552081" lon="17.6833253">
        <ele>25.1317</ele>
        <time>2013-05-01T10:13:45Z</time>
      </trkpt>
      <trkpt lat="59.9551681" lon="17.6831721">
        <ele>25.1317</ele>
        <time>2013-05-01T10:13:46Z</time>
      </trkpt>
      <trkpt lat="59.9551271" lon="17.6830205">
        <ele>25.1317</ele>
        <time>2013-05-01T10:13:47Z</time>
      </trkpt>
      <trkpt lat="59.9550857" lon="17.6828663">
        <ele>25.1317</ele>
        <time>2013-05-01T10:13:48Z</time>
      </trkpt>
      <trkpt lat="59.955043" lon="17.6827151">
        <ele>25.1317</ele>
        <time>2013-05-01T10:13:49Z</time>
      </trkpt>
      <trkpt lat="59.9550004" lon="17.682565">
        <ele>25.6123</ele>
        <time>2013-05-01T10:13:50Z</time>
      </trkpt>
      <trkpt lat="59.9549551" lon="17.6824167">
        <ele>25.6123</ele>
        <time>2013-05-01T10:13:51Z</time>
      </trkpt>
      <trkpt lat="59.9549092" lon="17.6822722">
        <ele>25.6123</ele>
        <time>2013-05-01T10:13:52Z</time>
      </trkpt>
      <trkpt lat="59.9548629" lon="17.6821365">
        <ele>26.0929</ele>
        <time>2013-05-01T10:13:53Z</time>
      </trkpt>
      <trkpt lat="59.9548087" lon="17.6820198">
        <ele>26.0929</ele>
        <time>2013-05-01T10:13:54Z</time>
      </trkpt>
      <trkpt lat="59.9547438" lon="17.6819249">
        <ele>26.0929</ele>
        <time>2013-05-01T10:13:55Z</time>
      </trkpt>
      <trkpt lat="59.9546791" lon="17.6818297">
        <ele>26.0929</ele>
        <time>2013-05-01T10:13:56Z</time>
      </trkpt>
      <trkpt lat="59.9546231" lon="17.6817133">
        <ele>26.0929</ele>
        <time>2013-05-01T10:13:57Z</time>
      </trkpt>
      <trkpt lat="59.9545741" lon="17.6815873">
        <ele>26.0929</ele>
        <time>2013-05-01T10:13:58Z</time>
      </trkpt>
      <trkpt lat="59.9545273" lon="17.6814549">
        <ele>26.0929</ele>
        <time>2013-05-01T10:13:59Z</time>
      </trkpt>
      <trkpt lat="59.9544817" lon="17.6813185">
        <ele>26.0929</ele>
        <time>2013-05-01T10:14:00Z</time>
      </trkpt>
      <trkpt lat="59.9544378" lon="17.6811766">
        <ele>26.0929</ele>
        <time>2013-05-01T10:14:01Z</time>
      </trkpt>
      <trkpt lat="59.9543946" lon="17.681029">
        <ele>26.0929</ele>
        <time>2013-05-01T10:14:02Z</time>
      </trkpt>
      <trkpt lat="59.9543503" lon="17.6808817">
        <ele>26.5736</ele>
        <time>2013-05-01T10:14:03Z</time>
      </trkpt>
      <trkpt lat="59.9543043" lon="17.6807387">
        <ele>26.5736</ele>
        <time>2013-05-01T10:14:04Z</time>
      </trkpt>
      <trkpt lat="59.9542568" lon="17.6805979">
        <ele>26.5736</ele>
        <time>2013-05-01T10:14:05Z</time>
      </trkpt>
      <trkpt lat="59.9542089" lon="17.6804571">
        <ele>26.5736</ele>
        <time>2013-05-01T10:14:06Z</time>
      </trkpt>
      <trkpt lat="59.9541601" lon="17.6803166">
        <ele>27.0543</ele>
        <time>2013-05-01T10:14:07Z</time>
      </trkpt>
      <trkpt lat="59.9541104" lon="17.6801773">
        <ele>27.0543</ele>
        <time>2013-05-01T10:14:08Z</time>
      </trkpt>
      <trkpt lat="59.9540618" lon="17.6800375">
        <ele>27.0543</ele>
        <time>2013-05-01T10:14:09Z</time>
      </trkpt>
      <trkpt lat="59.9540141" lon="17.6798981">
        <ele>27.5349</ele>
        <time>2013-05-01T10:14:10Z</time>
      </trkpt>
      <trkpt lat="59.9539673" lon="17.6797594">
        <ele>27.5349</ele>
        <time>2013-05-01T10:14:11Z</time>
      </trkpt>
      <trkpt lat="59.9539214" lon="17.6796216">
        <ele>28.0155</ele>
        <time>2013-05-01T10:14:12Z</time>
      </trkpt>
      <trkpt lat="59.9538757" lon="17.6794801">
        <ele>27.5349</ele>
        <time>2013-05-01T10:14:13Z</time>
      </trkpt>
      <trkpt lat="59.9538297" lon="17.6793373">
        <ele>27.5349</ele>
        <time>2013-05-01T10:14:14Z</time>
      </trkpt>
      <trkpt lat="59.9537841" lon="17.679194">
        <ele>27.5349</ele>
        <time>2013-05-01T10:14:15Z</time>
      </trkpt>
      <trkpt lat="59.953738" lon="17.6790533">
        <ele>27.5349</ele>
        <time>2013-05-01T10:14:16Z</time>
      </trkpt>
      <trkpt lat="59.9536906" lon="17.6789158">
        <ele>27.0543</ele>
        <time>2013-05-01T10:14:17Z</time>
      </trkpt>
      <trkpt lat="59.9536443" lon="17.6787808">
        <ele>27.0543</ele>
        <time>2013-05-01T10:14:18Z</time>
      </trkpt>
      <trkpt lat="59.9535992" lon="17.6786475">
        <ele>27.0543</ele>
        <time>2013-05-01T10:14:19Z</time>
      </trkpt>
      <trkpt lat="59.9535535" lon="17.6785129">
        <ele>26.5736</ele>
        <time>2013-05-01T10:14:20Z</time>
      </trkpt>
      <trkpt lat="59.953509" lon="17.6783813">
        <ele>26.5736</ele>
        <time>2013-05-01T10:14:21Z</time>
      </trkpt>
      <trkpt lat="59.9534664" lon="17.6782487">
        <ele>26.5736</ele>
        <time>2013-05-01T10:14:22Z</time>
      </trkpt>
      <trkpt lat="59.9534246" lon="17.6781167">
        <ele>26.5736</ele>
        <time>2013-05-01T10:14:23Z</time>
      </trkpt>
      <trkpt lat="59.9533811" lon="17.6779879">
        <ele>26.5736</ele>
        <time>2013-05-01T10:14:24Z</time>
      </trkpt>
      <trkpt lat="59.9533363" lon="17.6778609">
        <ele>26.5736</ele>
        <time>2013-05-01T10:14:25Z</time>
      </trkpt>
      <trkpt lat="59.953292" lon="17.677737">
        <ele>27.0543</ele>
        <time>2013-05-01T10:14:26Z</time>
      </trkpt>
      <trkpt lat="59.9532488" lon="17.6776187">
        <ele>27.0543</ele>
        <time>2013-05-01T10:14:27Z</time>
      </trkpt>
      <trkpt lat="59.9532055" lon="17.677507">
        <ele>27.0543</ele>
        <time>2013-05-01T10:14:28Z</time>
      </trkpt>
      <trkpt lat="59.9531621" lon="17.6773952">
        <ele>27.0543</ele>
        <time>2013-05-01T10:14:29Z</time>
      </trkpt>
      <trkpt lat="59.95312" lon="17.6772833">
        <ele>27.0543</ele>
        <time>2013-05-01T10:14:30Z</time>
      </trkpt>
      <trkpt lat="59.9530781" lon="17.677164">
        <ele>27.5349</ele>
        <time>2013-05-01T10:14:31Z</time>
      </trkpt>
      <trkpt lat="59.9530393" lon="17.6770387">
        <ele>27.5349</ele>
        <time>2013-05-01T10:14:32Z</time>
      </trkpt>
      <trkpt lat="59.9529968" lon="17.6768896">
        <ele>27.5349</ele>
        <time>2013-05-01T10:14:33Z</time>
      </trkpt>
      <trkpt lat="59.9529536" lon="17.6767797">
        <ele>28.0155</ele>
        <time>2013-05-01T10:14:34Z</time>
      </trkpt>
      <trkpt lat="59.9529096" lon="17.6766627">
        <ele>28.4962</ele>
        <time>2013-05-01T10:14:35Z</time>
      </trkpt>
      <trkpt lat="59.9528657" lon="17.6765529">
        <ele>28.4962</ele>
        <time>2013-05-01T10:14:36Z</time>
      </trkpt>
      <trkpt lat="59.9528211" lon="17.676445">
        <ele>28.9769</ele>
        <time>2013-05-01T10:14:37Z</time>
      </trkpt>
      <trkpt lat="59.9527811" lon="17.6763332">
        <ele>29.4575</ele>
        <time>2013-05-01T10:14:38Z</time>
      </trkpt>
      <trkpt lat="59.9527422" lon="17.676215">
        <ele>29.9381</ele>
        <time>2013-05-01T10:14:39Z</time>
      </trkpt>
      <trkpt lat="59.9527036" lon="17.6760948">
        <ele>29.9381</ele>
        <time>2013-05-01T10:14:40Z</time>
      </trkpt>
      <trkpt lat="59.952663" lon="17.6759746">
        <ele>29.9381</ele>
        <time>2013-05-01T10:14:41Z</time>
      </trkpt>
      <trkpt lat="59.9526206" lon="17.6758582">
        <ele>30.4188</ele>
        <time>2013-05-01T10:14:42Z</time>
      </trkpt>
      <trkpt lat="59.952578" lon="17.6757425">
        <ele>30.4188</ele>
        <time>2013-05-01T10:14:43Z</time>
      </trkpt>
      <trkpt lat="59.9525358" lon="17.6756317">
        <ele>30.8995</ele>
        <time>2013-05-01T10:14:44Z</time>
      </trkpt>
      <trkpt lat="59.9524953" lon="17.675523">
        <ele>31.8607</ele>
        <time>2013-05-01T10:14:45Z</time>
      </trkpt>
      <trkpt lat="59.9524559" lon="17.6754198">
        <ele>31.8607</ele>
        <time>2013-05-01T10:14:46Z</time>
      </trkpt>
      <trkpt lat="59.9524185" lon="17.6753187">
        <ele>32.3416</ele>
        <time>2013-05-01T10:14:47Z</time>
      </trkpt>
      <trkpt lat="59.9523829" lon="17.6752169">
        <ele>32.8223</ele>
        <time>2013-05-01T10:14:48Z</time>
      </trkpt>
      <trkpt lat="59.9523487" lon="17.6751181">
        <ele>32.8223</ele>
        <time>2013-05-01T10:14:49Z</time>
      </trkpt>
      <trkpt lat="59.9523181" lon="17.675018">
        <ele>33.3029</ele>
        <time>2013-05-01T10:14:50Z</time>
      </trkpt>
      <trkpt lat="59.9522926" lon="17.6749121">
        <ele>33.3029</ele>
        <time>2013-05-01T10:14:51Z</time>
      </trkpt>
      <trkpt lat="59.9522678" lon="17.6747968">
        <ele>33.3029</ele>
        <time>2013-05-01T10:14:52Z</time>
      </trkpt>
      <trkpt lat="59.9522431" lon="17.6746726">
        <ele>33.3029</ele>
        <time>2013-05-01T10:14:53Z</time>
      </trkpt>
      <trkpt lat="59.9522162" lon="17.6745446">
        <ele>33.3029</ele>
        <time>2013-05-01T10:14:54Z</time>
      </trkpt>
      <trkpt lat="59.9521891" lon="17.6744092">
        <ele>33.3029</ele>
        <time>2013-05-01T10:14:55Z</time>
      </trkpt>
      <trkpt lat="59.9521592" lon="17.6742667">
        <ele>32.8223</ele>
        <time>2013-05-01T10:14:56Z</time>
      </trkpt>
      <trkpt lat="59.9521296" lon="17.6741261">
        <ele>32.8223</ele>
        <time>2013-05-01T10:14:57Z</time>
      </trkpt>
      <trkpt lat="59.9521026" lon="17.673987">
        <ele>32.8223</ele>
        <time>2013-05-01T10:14:58Z</time>
      </trkpt>
      <trkpt lat="59.9520755" lon="17.6738421">
        <ele>32.3416</ele>
        <time>2013-05-01T10:14:59Z</time>
      </trkpt>
      <trkpt lat="59.9520486" lon="17.673696">
        <ele>31.8607</ele>
        <time>2013-05-01T10:15:00Z</time>
      </trkpt>
      <trkpt lat="59.9520228" lon="17.6735479">
        <ele>31.8607</ele>
        <time>2013-05-01T10:15:01Z</time>
      </trkpt>
      <trkpt lat="59.951999" lon="17.6733982">
        <ele>31.8607</ele>
        <time>2013-05-01T10:15:02Z</time>
      </trkpt>
      <trkpt lat="59.9519762" lon="17.6732465">
        <ele>31.3801</ele>
        <time>2013-05-01T10:15:03Z</time>
      </trkpt>
      <trkpt lat="59.9519529" lon="17.673092">
        <ele>31.3801</ele>
        <time>2013-05-01T10:15:04Z</time>
      </trkpt>
      <trkpt lat="59.9519308" lon="17.6729356">
        <ele>31.3801</ele>
        <time>2013-05-01T10:15:05Z</time>
      </trkpt>
      <trkpt lat="59.9519102" lon="17.6727791">
        <ele>31.3801</ele>
        <time>2013-05-01T10:15:06Z</time>
      </trkpt>
      <trkpt lat="59.9518907" lon="17.6726205">
        <ele>30.8995</ele>
        <time>2013-05-01T10:15:07Z</time>
      </trkpt>
      <trkpt lat="59.9518735" lon="17.6724583">
        <ele>30.8995</ele>
        <time>2013-05-01T10:15:08Z</time>
      </trkpt>
      <trkpt lat="59.9518576" lon="17.6722947">
        <ele>30.4188</ele>
        <time>2013-05-01T10:15:09Z</time>
      </trkpt>
      <trkpt lat="59.9518425" lon="17.6721295">
        <ele>29.9381</ele>
        <time>2013-05-01T10:15:10Z</time>
      </trkpt>
      <trkpt lat="59.9518305" lon="17.6719651">
        <ele>29.9381</ele>
        <time>2013-05-01T10:15:11Z</time>
      </trkpt>
      <trkpt lat="59.9518255" lon="17.6718041">
        <ele>29.4575</ele>
        <time>2013-05-01T10:15:12Z</time>
      </trkpt>
      <trkpt lat="59.9518206" lon="17.6716424">
        <ele>28.9769</ele>
        <time>2013-05-01T10:15:13Z</time>
      </trkpt>
      <trkpt lat="59.9518144" lon="17.6714804">
        <ele>28.4962</ele>
        <time>2013-05-01T10:15:14Z</time>
      </trkpt>
      <trkpt lat="59.9517997" lon="17.6713199">
        <ele>28.4962</ele>
        <time>2013-05-01T10:15:15Z</time>
      </trkpt>
      <trkpt lat="59.9517732" lon="17.6711584">
        <ele>28.0155</ele>
        <time>2013-05-01T10:15:16Z</time>
      </trkpt>
      <trkpt lat="59.9517463" lon="17.6709919">
        <ele>27.5349</ele>
        <time>2013-05-01T10:15:17Z</time>
      </trkpt>
      <trkpt lat="59.9517323" lon="17.6708122">
        <ele>27.0543</ele>
        <time>2013-05-01T10:15:18Z</time>
      </trkpt>
      <trkpt lat="59.9517343" lon="17.6706292">
        <ele>26.5736</ele>
        <time>2013-05-01T10:15:19Z</time>
      </trkpt>
      <trkpt lat="59.9517472" lon="17.67045">
        <ele>26.5736</ele>
        <time>2013-05-01T10:15:20Z</time>
      </trkpt>
      <trkpt lat="59.9517623" lon="17.6702725">
        <ele>26.0929</ele>
        <time>2013-05-01T10:15:21Z</time>
      </trkpt>
      <trkpt lat="59.9517763" lon="17.6700967">
        <ele>26.0929</ele>
        <time>2013-05-01T10:15:22Z</time>
      </trkpt>
      <trkpt lat="59.9517882" lon="17.6699213">
        <ele>25.6123</ele>
        <time>2013-05-01T10:15:23Z</time>
      </trkpt>
      <trkpt lat="59.9517987" lon="17.6697471">
        <ele>25.6123</ele>
        <time>2013-05-01T10:15:24Z</time>
      </trkpt>
      <trkpt lat="59.9518085" lon="17.6695742">
        <ele>25.1317</ele>
        <time>2013-05-01T10:15:25Z</time>
      </trkpt>
      <trkpt lat="59.9518161" lon="17.6694026">
        <ele>25.1317</ele>
        <time>2013-05-01T10:15:26Z</time>
      </trkpt>
      <trkpt lat="59.951822" lon="17.669234">
        <ele>25.1317</ele>
        <time>2013-05-01T10:15:27Z</time>
      </trkpt>
      <trkpt lat="59.951826" lon="17.6690707">
        <ele>25.1317</ele>
        <time>2013-05-01T10:15:28Z</time>
      </trkpt>
      <trkpt lat="59.9518268" lon="17.6689091">
        <ele>24.651</ele>
        <time>2013-05-01T10:15:29Z</time>
      </trkpt>
      <trkpt lat="59.9518167" lon="17.6687501">
        <ele>24.651</ele>
        <time>2013-05-01T10:15:30Z</time>
      </trkpt>
      <trkpt lat="59.9517924" lon="17.6685869">
        <ele>24.1703</ele>
        <time>2013-05-01T10:15:31Z</time>
      </trkpt>
      <trkpt lat="59.9517593" lon="17.6684257">
        <ele>24.1703</ele>
        <time>2013-05-01T10:15:32Z</time>
      </trkpt>
      <trkpt lat="59.9517204" lon="17.6682771">
        <ele>24.1703</ele>
        <time>2013-05-01T10:15:33Z</time>
      </trkpt>
      <trkpt lat="59.9516696" lon="17.6681492">
        <ele>24.651</ele>
        <time>2013-05-01T10:15:34Z</time>
      </trkpt>
      <trkpt lat="59.9516033" lon="17.6680637">
        <ele>24.651</ele>
        <time>2013-05-01T10:15:35Z</time>
      </trkpt>
      <trkpt lat="59.9515266" lon="17.6680222">
        <ele>24.651</ele>
        <time>2013-05-01T10:15:36Z</time>
      </trkpt>
      <trkpt lat="59.9514478" lon="17.6680189">
        <ele>24.1703</ele>
        <time>2013-05-01T10:15:37Z</time>
      </trkpt>
      <trkpt lat="59.9513691" lon="17.6680342">
        <ele>24.1703</ele>
        <time>2013-05-01T10:15:38Z</time>
      </trkpt>
      <trkpt lat="59.9512904" lon="17.6680565">
        <ele>24.1703</ele>
        <time>2013-05-01T10:15:39Z</time>
      </trkpt>
      <trkpt lat="59.9512127" lon="17.6680839">
        <ele>24.1703</ele>
        <time>2013-05-01T10:15:40Z</time>
      </trkpt>
      <trkpt lat="59.9511363" lon="17.6681113">
        <ele>24.651</ele>
        <time>2013-05-01T10:15:41Z</time>
      </trkpt>
      <trkpt lat="59.9510613" lon="17.668135">
        <ele>24.1703</ele>
        <time>2013-05-01T10:15:42Z</time>
      </trkpt>
      <trkpt lat="59.9509879" lon="17.6681581">
        <ele>23.6896</ele>
        <time>2013-05-01T10:15:43Z</time>
      </trkpt>
      <trkpt lat="59.9509159" lon="17.6681823">
        <ele>23.6896</ele>
        <time>2013-05-01T10:15:44Z</time>
      </trkpt>
      <trkpt lat="59.9508442" lon="17.6682032">
        <ele>23.209</ele>
        <time>2013-05-01T10:15:45Z</time>
      </trkpt>
      <trkpt lat="59.950772" lon="17.6682186">
        <ele>23.209</ele>
        <time>2013-05-01T10:15:46Z</time>
      </trkpt>
      <trkpt lat="59.9506999" lon="17.6682321">
        <ele>23.209</ele>
        <time>2013-05-01T10:15:47Z</time>
      </trkpt>
      <trkpt lat="59.9506282" lon="17.6682397">
        <ele>22.7283</ele>
        <time>2013-05-01T10:15:48Z</time>
      </trkpt>
      <trkpt lat="59.9505569" lon="17.6682435">
        <ele>22.2476</ele>
        <time>2013-05-01T10:15:49Z</time>
      </trkpt>
      <trkpt lat="59.9504855" lon="17.6682436">
        <ele>22.2476</ele>
        <time>2013-05-01T10:15:50Z</time>
      </trkpt>
      <trkpt lat="59.9504142" lon="17.6682429">
        <ele>21.767</ele>
        <time>2013-05-01T10:15:51Z</time>
      </trkpt>
      <trkpt lat="59.950343" lon="17.6682402">
        <ele>21.2864</ele>
        <time>2013-05-01T10:15:52Z</time>
      </trkpt>
      <trkpt lat="59.950272" lon="17.6682331">
        <ele>21.2864</ele>
        <time>2013-05-01T10:15:53Z</time>
      </trkpt>
      <trkpt lat="59.9502005" lon="17.6682202">
        <ele>20.8057</ele>
        <time>2013-05-01T10:15:54Z</time>
      </trkpt>
      <trkpt lat="59.9501281" lon="17.668203">
        <ele>20.8057</ele>
        <time>2013-05-01T10:15:55Z</time>
      </trkpt>
      <trkpt lat="59.9500548" lon="17.6681816">
        <ele>20.325</ele>
        <time>2013-05-01T10:15:56Z</time>
      </trkpt>
      <trkpt lat="59.9499798" lon="17.6681554">
        <ele>20.325</ele>
        <time>2013-05-01T10:15:57Z</time>
      </trkpt>
      <trkpt lat="59.9499042" lon="17.6681259">
        <ele>20.325</ele>
        <time>2013-05-01T10:15:58Z</time>
      </trkpt>
      <trkpt lat="59.9498276" lon="17.6680935">
        <ele>20.8057</ele>
        <time>2013-05-01T10:15:59Z</time>
      </trkpt>
      <trkpt lat="59.9497507" lon="17.6680573">
        <ele>20.8057</ele>
        <time>2013-05-01T10:16:00Z</time>
      </trkpt>
      <trkpt lat="59.949673" lon="17.6680175">
        <ele>20.8057</ele>
        <time>2013-05-01T10:16:01Z</time>
      </trkpt>
      <trkpt lat="59.949595" lon="17.6679762">
        <ele>20.8057</ele>
        <time>2013-05-01T10:16:02Z</time>
      </trkpt>
      <trkpt lat="59.9495173" lon="17.6679348">
        <ele>20.8057</ele>
        <time>2013-05-01T10:16:03Z</time>
      </trkpt>
      <trkpt lat="59.9494396" lon="17.6678921">
        <ele>20.8057</ele>
        <time>2013-05-01T10:16:04Z</time>
      </trkpt>
      <trkpt lat="59.9493624" lon="17.6678473">
        <ele>21.2864</ele>
        <time>2013-05-01T10:16:05Z</time>
      </trkpt>
      <trkpt lat="59.9492857" lon="17.6678014">
        <ele>21.2864</ele>
        <time>2013-05-01T10:16:06Z</time>
      </trkpt>
      <trkpt lat="59.949209" lon="17.667756">
        <ele>21.2864</ele>
        <time>2013-05-01T10:16:07Z</time>
      </trkpt>
      <trkpt lat="59.9491327" lon="17.6677119">
        <ele>21.2864</ele>
        <time>2013-05-01T10:16:08Z</time>
      </trkpt>
      <trkpt lat="59.9490567" lon="17.6676694">
        <ele>21.2864</ele>
        <time>2013-05-01T10:16:09Z</time>
      </trkpt>
      <trkpt lat="59.9489812" lon="17.6676265">
        <ele>21.767</ele>
        <time>2013-05-01T10:16:10Z</time>
      </trkpt>
      <trkpt lat="59.948907" lon="17.6675802">
        <ele>21.767</ele>
        <time>2013-05-01T10:16:11Z</time>
      </trkpt>
      <trkpt lat="59.9488335" lon="17.6675344">
        <ele>21.767</ele>
        <time>2013-05-01T10:16:12Z</time>
      </trkpt>
      <trkpt lat="59.9487597" lon="17.6674927">
        <ele>22.2476</ele>
        <time>2013-05-01T10:16:13Z</time>
      </trkpt>
      <trkpt lat="59.9486854" lon="17.6674534">
        <ele>22.2476</ele>
        <time>2013-05-01T10:16:14Z</time>
      </trkpt>
      <trkpt lat="59.9486112" lon="17.6674122">
        <ele>22.7283</ele>
        <time>2013-05-01T10:16:15Z</time>
      </trkpt>
      <trkpt lat="59.9485364" lon="17.6673685">
        <ele>22.7283</ele>
        <time>2013-05-01T10:16:16Z</time>
      </trkpt>
      <trkpt lat="59.9484611" lon="17.6673241">
        <ele>23.209</ele>
        <time>2013-05-01T10:16:17Z</time>
      </trkpt>
      <trkpt lat="59.9483854" lon="17.667281">
        <ele>23.209</ele>
        <time>2013-05-01T10:16:18Z</time>
      </trkpt>
      <trkpt lat="59.9483096" lon="17.6672394">
        <ele>23.6896</ele>
        <time>2013-05-01T10:16:19Z</time>
      </trkpt>
      <trkpt lat="59.9482331" lon="17.6671955">
        <ele>23.6896</ele>
        <time>2013-05-01T10:16:20Z</time>
      </trkpt>
      <trkpt lat="59.9481568" lon="17.6671515">
        <ele>23.6896</ele>
        <time>2013-05-01T10:16:21Z</time>
      </trkpt>
      <trkpt lat="59.9480797" lon="17.6671067">
        <ele>23.6896</ele>
        <time>2013-05-01T10:16:22Z</time>
      </trkpt>
      <trkpt lat="59.9480026" lon="17.6670632">
        <ele>23.209</ele>
        <time>2013-05-01T10:16:23Z</time>
      </trkpt>
      <trkpt lat="59.9479258" lon="17.667021">
        <ele>23.209</ele>
        <time>2013-05-01T10:16:24Z</time>
      </trkpt>
      <trkpt lat="59.9478487" lon="17.6669806">
        <ele>23.209</ele>
        <time>2013-05-01T10:16:25Z</time>
      </trkpt>
      <trkpt lat="59.9477713" lon="17.6669411">
        <ele>23.209</ele>
        <time>2013-05-01T10:16:26Z</time>
      </trkpt>
      <trkpt lat="59.9476939" lon="17.6669001">
        <ele>23.209</ele>
        <time>2013-05-01T10:16:27Z</time>
      </trkpt>
      <trkpt lat="59.9476168" lon="17.6668609">
        <ele>23.209</ele>
        <time>2013-05-01T10:16:28Z</time>
      </trkpt>
      <trkpt lat="59.9475395" lon="17.6668224">
        <ele>23.209</ele>
        <time>2013-05-01T10:16:29Z</time>
      </trkpt>
      <trkpt lat="59.9474628" lon="17.6667847">
        <ele>23.209</ele>
        <time>2013-05-01T10:16:30Z</time>
      </trkpt>
      <trkpt lat="59.9473872" lon="17.6667467">
        <ele>23.209</ele>
        <time>2013-05-01T10:16:31Z</time>
      </trkpt>
      <trkpt lat="59.9473126" lon="17.6667117">
        <ele>23.209</ele>
        <time>2013-05-01T10:16:32Z</time>
      </trkpt>
      <trkpt lat="59.9472374" lon="17.6666749">
        <ele>23.209</ele>
        <time>2013-05-01T10:16:33Z</time>
      </trkpt>
      <trkpt lat="59.9471622" lon="17.6666403">
        <ele>23.209</ele>
        <time>2013-05-01T10:16:34Z</time>
      </trkpt>
      <trkpt lat="59.9470867" lon="17.666607">
        <ele>23.209</ele>
        <time>2013-05-01T10:16:35Z</time>
      </trkpt>
      <trkpt lat="59.9470111" lon="17.6665739">
        <ele>23.209</ele>
        <time>2013-05-01T10:16:36Z</time>
      </trkpt>
      <trkpt lat="59.9469353" lon="17.6665423">
        <ele>23.209</ele>
        <time>2013-05-01T10:16:37Z</time>
      </trkpt>
      <trkpt lat="59.9468591" lon="17.6665121">
        <ele>23.209</ele>
        <time>2013-05-01T10:16:38Z</time>
      </trkpt>
      <trkpt lat="59.9467828" lon="17.6664838">
        <ele>23.209</ele>
        <time>2013-05-01T10:16:39Z</time>
      </trkpt>
      <trkpt lat="59.9467058" lon="17.6664651">
        <ele>23.209</ele>
        <time>2013-05-01T10:16:40Z</time>
      </trkpt>
      <trkpt lat="59.9466274" lon="17.6664583">
        <ele>23.6896</ele>
        <time>2013-05-01T10:16:41Z</time>
      </trkpt>
      <trkpt lat="59.9465485" lon="17.6664506">
        <ele>23.209</ele>
        <time>2013-05-01T10:16:42Z</time>
      </trkpt>
      <trkpt lat="59.9464694" lon="17.6664323">
        <ele>23.209</ele>
        <time>2013-05-01T10:16:43Z</time>
      </trkpt>
      <trkpt lat="59.9463917" lon="17.6663973">
        <ele>23.209</ele>
        <time>2013-05-01T10:16:44Z</time>
      </trkpt>
      <trkpt lat="59.9463168" lon="17.6663451">
        <ele>23.209</ele>
        <time>2013-05-01T10:16:45Z</time>
      </trkpt>
      <trkpt lat="59.9462434" lon="17.6662916">
        <ele>23.209</ele>
        <time>2013-05-01T10:16:46Z</time>
      </trkpt>
      <trkpt lat="59.9461687" lon="17.6662443">
        <ele>23.209</ele>
        <time>2013-05-01T10:16:47Z</time>
      </trkpt>
      <trkpt lat="59.9460925" lon="17.6662045">
        <ele>23.209</ele>
        <time>2013-05-01T10:16:48Z</time>
      </trkpt>
      <trkpt lat="59.9460155" lon="17.6661698">
        <ele>23.6896</ele>
        <time>2013-05-01T10:16:49Z</time>
      </trkpt>
      <trkpt lat="59.9459392" lon="17.6661403">
        <ele>23.6896</ele>
        <time>2013-05-01T10:16:50Z</time>
      </trkpt>
      <trkpt lat="59.945863" lon="17.6661128">
        <ele>23.6896</ele>
        <time>2013-05-01T10:16:51Z</time>
      </trkpt>
      <trkpt lat="59.9457869" lon="17.6660849">
        <ele>23.6896</ele>
        <time>2013-05-01T10:16:52Z</time>
      </trkpt>
      <trkpt lat="59.9457107" lon="17.6660584">
        <ele>23.6896</ele>
        <time>2013-05-01T10:16:53Z</time>
      </trkpt>
      <trkpt lat="59.9456348" lon="17.6660329">
        <ele>24.1703</ele>
        <time>2013-05-01T10:16:54Z</time>
      </trkpt>
      <trkpt lat="59.9455595" lon="17.6660049">
        <ele>24.1703</ele>
        <time>2013-05-01T10:16:55Z</time>
      </trkpt>
      <trkpt lat="59.9454841" lon="17.6659742">
        <ele>24.1703</ele>
        <time>2013-05-01T10:16:56Z</time>
      </trkpt>
      <trkpt lat="59.9454085" lon="17.6659422">
        <ele>24.651</ele>
        <time>2013-05-01T10:16:57Z</time>
      </trkpt>
      <trkpt lat="59.9453323" lon="17.665912">
        <ele>24.651</ele>
        <time>2013-05-01T10:16:58Z</time>
      </trkpt>
      <trkpt lat="59.9452557" lon="17.6658838">
        <ele>24.651</ele>
        <time>2013-05-01T10:16:59Z</time>
      </trkpt>
      <trkpt lat="59.945179" lon="17.6658537">
        <ele>24.651</ele>
        <time>2013-05-01T10:17:00Z</time>
      </trkpt>
      <trkpt lat="59.945102" lon="17.6658227">
        <ele>24.651</ele>
        <time>2013-05-01T10:17:01Z</time>
      </trkpt>
      <trkpt lat="59.9450243" lon="17.6657932">
        <ele>24.651</ele>
        <time>2013-05-01T10:17:02Z</time>
      </trkpt>
      <trkpt lat="59.9449463" lon="17.6657643">
        <ele>25.1317</ele>
        <time>2013-05-01T10:17:03Z</time>
      </trkpt>
      <trkpt lat="59.9448685" lon="17.6657352">
        <ele>25.1317</ele>
        <time>2013-05-01T10:17:04Z</time>
      </trkpt>
      <trkpt lat="59.9447909" lon="17.665704">
        <ele>25.1317</ele>
        <time>2013-05-01T10:17:05Z</time>
      </trkpt>
      <trkpt lat="59.9447133" lon="17.665672">
        <ele>25.1317</ele>
        <time>2013-05-01T10:17:06Z</time>
      </trkpt>
      <trkpt lat="59.9446355" lon="17.66564">
        <ele>25.1317</ele>
        <time>2013-05-01T10:17:07Z</time>
      </trkpt>
      <trkpt lat="59.9445579" lon="17.6656089">
        <ele>25.1317</ele>
        <time>2013-05-01T10:17:08Z</time>
      </trkpt>
      <trkpt lat="59.9444807" lon="17.6655778">
        <ele>25.1317</ele>
        <time>2013-05-01T10:17:09Z</time>
      </trkpt>
      <trkpt lat="59.9444035" lon="17.6655472">
        <ele>25.6123</ele>
        <time>2013-05-01T10:17:10Z</time>
      </trkpt>
      <trkpt lat="59.9443259" lon="17.665518">
        <ele>25.6123</ele>
        <time>2013-05-01T10:17:11Z</time>
      </trkpt>
      <trkpt lat="59.9442491" lon="17.6654903">
        <ele>25.6123</ele>
        <time>2013-05-01T10:17:12Z</time>
      </trkpt>
      <trkpt lat="59.9441725" lon="17.6654612">
        <ele>25.6123</ele>
        <time>2013-05-01T10:17:13Z</time>
      </trkpt>
      <trkpt lat="59.9440963" lon="17.665427">
        <ele>25.6123</ele>
        <time>2013-05-01T10:17:14Z</time>
      </trkpt>
      <trkpt lat="59.944021" lon="17.6653883">
        <ele>26.0929</ele>
        <time>2013-05-01T10:17:15Z</time>
      </trkpt>
      <trkpt lat="59.9439461" lon="17.6653442">
        <ele>26.0929</ele>
        <time>2013-05-01T10:17:16Z</time>
      </trkpt>
      <trkpt lat="59.9438715" lon="17.6652994">
        <ele>26.0929</ele>
        <time>2013-05-01T10:17:17Z</time>
      </trkpt>
      <trkpt lat="59.9437963" lon="17.665253">
        <ele>26.0929</ele>
        <time>2013-05-01T10:17:18Z</time>
      </trkpt>
      <trkpt lat="59.9437211" lon="17.6652058">
        <ele>26.0929</ele>
        <time>2013-05-01T10:17:19Z</time>
      </trkpt>
      <trkpt lat="59.9436466" lon="17.6651566">
        <ele>26.5736</ele>
        <time>2013-05-01T10:17:20Z</time>
      </trkpt>
      <trkpt lat="59.9435732" lon="17.6651043">
        <ele>26.5736</ele>
        <time>2013-05-01T10:17:21Z</time>
      </trkpt>
      <trkpt lat="59.9435016" lon="17.6650506">
        <ele>26.5736</ele>
        <time>2013-05-01T10:17:22Z</time>
      </trkpt>
      <trkpt lat="59.943431" lon="17.664996">
        <ele>26.5736</ele>
        <time>2013-05-01T10:17:23Z</time>
      </trkpt>
      <trkpt lat="59.9433611" lon="17.6649402">
        <ele>27.0543</ele>
        <time>2013-05-01T10:17:24Z</time>
      </trkpt>
      <trkpt lat="59.9432913" lon="17.6648838">
        <ele>27.0543</ele>
        <time>2013-05-01T10:17:25Z</time>
      </trkpt>
      <trkpt lat="59.9432224" lon="17.664826">
        <ele>27.0543</ele>
        <time>2013-05-01T10:17:26Z</time>
      </trkpt>
      <trkpt lat="59.9431543" lon="17.6647654">
        <ele>27.5349</ele>
        <time>2013-05-01T10:17:27Z</time>
      </trkpt>
      <trkpt lat="59.9430862" lon="17.6647019">
        <ele>27.5349</ele>
        <time>2013-05-01T10:17:28Z</time>
      </trkpt>
      <trkpt lat="59.9430186" lon="17.6646366">
        <ele>28.0155</ele>
        <time>2013-05-01T10:17:29Z</time>
      </trkpt>
      <trkpt lat="59.9429514" lon="17.6645687">
        <ele>28.0155</ele>
        <time>2013-05-01T10:17:30Z</time>
      </trkpt>
      <trkpt lat="59.9428844" lon="17.6644997">
        <ele>28.4962</ele>
        <time>2013-05-01T10:17:31Z</time>
      </trkpt>
      <trkpt lat="59.9428178" lon="17.6644293">
        <ele>28.4962</ele>
        <time>2013-05-01T10:17:32Z</time>
      </trkpt>
      <trkpt lat="59.9427523" lon="17.664358">
        <ele>28.9769</ele>
        <time>2013-05-01T10:17:33Z</time>
      </trkpt>
      <trkpt lat="59.9426886" lon="17.6642867">
        <ele>28.9769</ele>
        <time>2013-05-01T10:17:34Z</time>
      </trkpt>
      <trkpt lat="59.9426254" lon="17.6642166">
        <ele>28.9769</ele>
        <time>2013-05-01T10:17:35Z</time>
      </trkpt>
      <trkpt lat="59.9425628" lon="17.6641471">
        <ele>28.9769</ele>
        <time>2013-05-01T10:17:36Z</time>
      </trkpt>
      <trkpt lat="59.9425017" lon="17.6640734">
        <ele>28.9769</ele>
        <time>2013-05-01T10:17:37Z</time>
      </trkpt>
      <trkpt lat="59.9424411" lon="17.6639959">
        <ele>28.9769</ele>
        <time>2013-05-01T10:17:38Z</time>
      </trkpt>
      <trkpt lat="59.9423807" lon="17.663917">
        <ele>29.4575</ele>
        <time>2013-05-01T10:17:39Z</time>
      </trkpt>
      <trkpt lat="59.9423214" lon="17.6638374">
        <ele>29.4575</ele>
        <time>2013-05-01T10:17:40Z</time>
      </trkpt>
      <trkpt lat="59.9422624" lon="17.663757">
        <ele>29.4575</ele>
        <time>2013-05-01T10:17:41Z</time>
      </trkpt>
      <trkpt lat="59.942205" lon="17.6636758">
        <ele>29.9381</ele>
        <time>2013-05-01T10:17:42Z</time>
      </trkpt>
      <trkpt lat="59.942148" lon="17.6635949">
        <ele>29.9381</ele>
        <time>2013-05-01T10:17:43Z</time>
      </trkpt>
      <trkpt lat="59.9420919" lon="17.6635133">
        <ele>29.9381</ele>
        <time>2013-05-01T10:17:44Z</time>
      </trkpt>
      <trkpt lat="59.9420363" lon="17.6634284">
        <ele>29.9381</ele>
        <time>2013-05-01T10:17:45Z</time>
      </trkpt>
      <trkpt lat="59.9419812" lon="17.663341">
        <ele>29.9381</ele>
        <time>2013-05-01T10:17:46Z</time>
      </trkpt>
      <trkpt lat="59.9419266" lon="17.6632514">
        <ele>30.4188</ele>
        <time>2013-05-01T10:17:47Z</time>
      </trkpt>
      <trkpt lat="59.9418715" lon="17.6631597">
        <ele>30.4188</ele>
        <time>2013-05-01T10:17:48Z</time>
      </trkpt>
      <trkpt lat="59.941815" lon="17.6630597">
        <ele>30.8995</ele>
        <time>2013-05-01T10:17:49Z</time>
      </trkpt>
      <trkpt lat="59.9417591" lon="17.6629577">
        <ele>30.8995</ele>
        <time>2013-05-01T10:17:50Z</time>
      </trkpt>
      <trkpt lat="59.9417047" lon="17.6628587">
        <ele>30.8995</ele>
        <time>2013-05-01T10:17:51Z</time>
      </trkpt>
      <trkpt lat="59.9416493" lon="17.6627567">
        <ele>31.3801</ele>
        <time>2013-05-01T10:17:52Z</time>
      </trkpt>
      <trkpt lat="59.9415939" lon="17.6626579">
        <ele>31.3801</ele>
        <time>2013-05-01T10:17:53Z</time>
      </trkpt>
      <trkpt lat="59.9415376" lon="17.6625659">
        <ele>31.3801</ele>
        <time>2013-05-01T10:17:54Z</time>
      </trkpt>
      <trkpt lat="59.9414787" lon="17.6624801">
        <ele>31.3801</ele>
        <time>2013-05-01T10:17:55Z</time>
      </trkpt>
      <trkpt lat="59.9414171" lon="17.6624003">
        <ele>31.3801</ele>
        <time>2013-05-01T10:17:56Z</time>
      </trkpt>
      <trkpt lat="59.9413529" lon="17.6623305">
        <ele>31.8607</ele>
        <time>2013-05-01T10:17:57Z</time>
      </trkpt>
      <trkpt lat="59.9412866" lon="17.6622682">
        <ele>31.8607</ele>
        <time>2013-05-01T10:17:58Z</time>
      </trkpt>
      <trkpt lat="59.9412207" lon="17.6622136">
        <ele>31.8607</ele>
        <time>2013-05-01T10:17:59Z</time>
      </trkpt>
      <trkpt lat="59.9411525" lon="17.6621636">
        <ele>31.8607</ele>
        <time>2013-05-01T10:18:00Z</time>
      </trkpt>
      <trkpt lat="59.9410836" lon="17.6621232">
        <ele>31.8607</ele>
        <time>2013-05-01T10:18:01Z</time>
      </trkpt>
      <trkpt lat="59.9410136" lon="17.6620908">
        <ele>31.8607</ele>
        <time>2013-05-01T10:18:02Z</time>
      </trkpt>
      <trkpt lat="59.9409414" lon="17.6620632">
        <ele>31.8607</ele>
        <time>2013-05-01T10:18:03Z</time>
      </trkpt>
      <trkpt lat="59.9408675" lon="17.6620413">
        <ele>31.3801</ele>
        <time>2013-05-01T10:18:04Z</time>
      </trkpt>
      <trkpt lat="59.9407935" lon="17.6620273">
        <ele>31.3801</ele>
        <time>2013-05-01T10:18:05Z</time>
      </trkpt>
      <trkpt lat="59.940719" lon="17.6620128">
        <ele>30.8995</ele>
        <time>2013-05-01T10:18:06Z</time>
      </trkpt>
      <trkpt lat="59.9406448" lon="17.6619793">
        <ele>30.4188</ele>
        <time>2013-05-01T10:18:07Z</time>
      </trkpt>
      <trkpt lat="59.9405738" lon="17.6619129">
        <ele>30.4188</ele>
        <time>2013-05-01T10:18:08Z</time>
      </trkpt>
      <trkpt lat="59.9405106" lon="17.6618132">
        <ele>30.4188</ele>
        <time>2013-05-01T10:18:09Z</time>
      </trkpt>
      <trkpt lat="59.9404598" lon="17.6616837">
        <ele>29.9381</ele>
        <time>2013-05-01T10:18:10Z</time>
      </trkpt>
      <trkpt lat="59.9404246" lon="17.6615319">
        <ele>29.9381</ele>
        <time>2013-05-01T10:18:11Z</time>
      </trkpt>
      <trkpt lat="59.9404053" lon="17.6613669">
        <ele>29.9381</ele>
        <time>2013-05-01T10:18:12Z</time>
      </trkpt>
      <trkpt lat="59.9403971" lon="17.6612005">
        <ele>29.9381</ele>
        <time>2013-05-01T10:18:13Z</time>
      </trkpt>
      <trkpt lat="59.940404" lon="17.6610352">
        <ele>29.9381</ele>
        <time>2013-05-01T10:18:14Z</time>
      </trkpt>
      <trkpt lat="59.9404246" lon="17.6608737">
        <ele>29.9381</ele>
        <time>2013-05-01T10:18:15Z</time>
      </trkpt>
      <trkpt lat="59.9404599" lon="17.6607261">
        <ele>29.9381</ele>
        <time>2013-05-01T10:18:16Z</time>
      </trkpt>
      <trkpt lat="59.9404973" lon="17.6605899">
        <ele>29.9381</ele>
        <time>2013-05-01T10:18:17Z</time>
      </trkpt>
      <trkpt lat="59.9405223" lon="17.6604509">
        <ele>29.9381</ele>
        <time>2013-05-01T10:18:18Z</time>
      </trkpt>
      <trkpt lat="59.9405329" lon="17.6603138">
        <ele>29.9381</ele>
        <time>2013-05-01T10:18:19Z</time>
      </trkpt>
      <trkpt lat="59.9405325" lon="17.6601832">
        <ele>29.9381</ele>
        <time>2013-05-01T10:18:20Z</time>
      </trkpt>
      <trkpt lat="59.9405154" lon="17.660059">
        <ele>29.9381</ele>
        <time>2013-05-01T10:18:21Z</time>
      </trkpt>
      <trkpt lat="59.9404643" lon="17.6599465">
        <ele>30.8995</ele>
        <time>2013-05-01T10:18:22Z</time>
      </trkpt>
      <trkpt lat="59.9404224" lon="17.6598269">
        <ele>29.9381</ele>
        <time>2013-05-01T10:18:23Z</time>
      </trkpt>
      <trkpt lat="59.9403913" lon="17.6596961">
        <ele>28.9769</ele>
        <time>2013-05-01T10:18:24Z</time>
      </trkpt>
      <trkpt lat="59.9403588" lon="17.6595576">
        <ele>29.4575</ele>
        <time>2013-05-01T10:18:25Z</time>
      </trkpt>
      <trkpt lat="59.9403293" lon="17.6593994">
        <ele>28.4962</ele>
        <time>2013-05-01T10:18:26Z</time>
      </trkpt>
      <trkpt lat="59.9403011" lon="17.6592135">
        <ele>28.4962</ele>
        <time>2013-05-01T10:18:27Z</time>
      </trkpt>
      <trkpt lat="59.9402718" lon="17.6590365">
        <ele>28.4962</ele>
        <time>2013-05-01T10:18:28Z</time>
      </trkpt>
      <trkpt lat="59.9402408" lon="17.6588722">
        <ele>28.0155</ele>
        <time>2013-05-01T10:18:29Z</time>
      </trkpt>
      <trkpt lat="59.940206" lon="17.6587105">
        <ele>28.0155</ele>
        <time>2013-05-01T10:18:30Z</time>
      </trkpt>
      <trkpt lat="59.9401704" lon="17.6585537">
        <ele>28.0155</ele>
        <time>2013-05-01T10:18:31Z</time>
      </trkpt>
      <trkpt lat="59.9401349" lon="17.6583998">
        <ele>28.0155</ele>
        <time>2013-05-01T10:18:32Z</time>
      </trkpt>
      <trkpt lat="59.9400999" lon="17.6582473">
        <ele>28.4962</ele>
        <time>2013-05-01T10:18:33Z</time>
      </trkpt>
      <trkpt lat="59.9400696" lon="17.6581076">
        <ele>28.0155</ele>
        <time>2013-05-01T10:18:34Z</time>
      </trkpt>
      <trkpt lat="59.9400409" lon="17.6579668">
        <ele>28.4962</ele>
        <time>2013-05-01T10:18:35Z</time>
      </trkpt>
      <trkpt lat="59.9400128" lon="17.657834">
        <ele>28.4962</ele>
        <time>2013-05-01T10:18:36Z</time>
      </trkpt>
      <trkpt lat="59.9399858" lon="17.657704">
        <ele>28.4962</ele>
        <time>2013-05-01T10:18:37Z</time>
      </trkpt>
      <trkpt lat="59.9399606" lon="17.6575775">
        <ele>28.4962</ele>
        <time>2013-05-01T10:18:38Z</time>
      </trkpt>
      <trkpt lat="59.9399361" lon="17.6574538">
        <ele>28.4962</ele>
        <time>2013-05-01T10:18:39Z</time>
      </trkpt>
      <trkpt lat="59.9399109" lon="17.6573295">
        <ele>28.9769</ele>
        <time>2013-05-01T10:18:40Z</time>
      </trkpt>
      <trkpt lat="59.9398854" lon="17.6572062">
        <ele>28.9769</ele>
        <time>2013-05-01T10:18:41Z</time>
      </trkpt>
      <trkpt lat="59.9398593" lon="17.6570871">
        <ele>28.9769</ele>
        <time>2013-05-01T10:18:42Z</time>
      </trkpt>
      <trkpt lat="59.9398326" lon="17.6569717">
        <ele>29.4575</ele>
        <time>2013-05-01T10:18:43Z</time>
      </trkpt>
      <trkpt lat="59.9398054" lon="17.6568602">
        <ele>29.4575</ele>
        <time>2013-05-01T10:18:44Z</time>
      </trkpt>
      <trkpt lat="59.9397803" lon="17.6567472">
        <ele>29.4575</ele>
        <time>2013-05-01T10:18:45Z</time>
      </trkpt>
      <trkpt lat="59.9397579" lon="17.6566321">
        <ele>29.4575</ele>
        <time>2013-05-01T10:18:46Z</time>
      </trkpt>
      <trkpt lat="59.9397366" lon="17.6565162">
        <ele>29.4575</ele>
        <time>2013-05-01T10:18:47Z</time>
      </trkpt>
      <trkpt lat="59.9397159" lon="17.6563997">
        <ele>29.4575</ele>
        <time>2013-05-01T10:18:48Z</time>
      </trkpt>
      <trkpt lat="59.9396947" lon="17.656282">
        <ele>29.4575</ele>
        <time>2013-05-01T10:18:49Z</time>
      </trkpt>
      <trkpt lat="59.9396725" lon="17.6561609">
        <ele>29.4575</ele>
        <time>2013-05-01T10:18:50Z</time>
      </trkpt>
      <trkpt lat="59.9396497" lon="17.6560386">
        <ele>29.4575</ele>
        <time>2013-05-01T10:18:51Z</time>
      </trkpt>
      <trkpt lat="59.9396263" lon="17.6559148">
        <ele>29.9381</ele>
        <time>2013-05-01T10:18:52Z</time>
      </trkpt>
      <trkpt lat="59.9396013" lon="17.65579">
        <ele>29.9381</ele>
        <time>2013-05-01T10:18:53Z</time>
      </trkpt>
      <trkpt lat="59.9395754" lon="17.6556645">
        <ele>29.9381</ele>
        <time>2013-05-01T10:18:54Z</time>
      </trkpt>
      <trkpt lat="59.9395493" lon="17.6555377">
        <ele>29.9381</ele>
        <time>2013-05-01T10:18:55Z</time>
      </trkpt>
      <trkpt lat="59.9395238" lon="17.6554124">
        <ele>29.9381</ele>
        <time>2013-05-01T10:18:56Z</time>
      </trkpt>
      <trkpt lat="59.939498" lon="17.6552865">
        <ele>30.4188</ele>
        <time>2013-05-01T10:18:57Z</time>
      </trkpt>
      <trkpt lat="59.939473" lon="17.6551589">
        <ele>30.4188</ele>
        <time>2013-05-01T10:18:58Z</time>
      </trkpt>
      <trkpt lat="59.939448" lon="17.6550305">
        <ele>30.4188</ele>
        <time>2013-05-01T10:18:59Z</time>
      </trkpt>
      <trkpt lat="59.9394222" lon="17.654901">
        <ele>30.4188</ele>
        <time>2013-05-01T10:19:00Z</time>
      </trkpt>
      <trkpt lat="59.939396" lon="17.6547699">
        <ele>30.4188</ele>
        <time>2013-05-01T10:19:01Z</time>
      </trkpt>
      <trkpt lat="59.9393699" lon="17.6546398">
        <ele>30.4188</ele>
        <time>2013-05-01T10:19:02Z</time>
      </trkpt>
      <trkpt lat="59.9393433" lon="17.65451">
        <ele>30.4188</ele>
        <time>2013-05-01T10:19:03Z</time>
      </trkpt>
      <trkpt lat="59.9393166" lon="17.6543811">
        <ele>30.4188</ele>
        <time>2013-05-01T10:19:04Z</time>
      </trkpt>
      <trkpt lat="59.9392897" lon="17.6542534">
        <ele>30.8995</ele>
        <time>2013-05-01T10:19:05Z</time>
      </trkpt>
      <trkpt lat="59.9392618" lon="17.6541265">
        <ele>30.4188</ele>
        <time>2013-05-01T10:19:06Z</time>
      </trkpt>
      <trkpt lat="59.9392325" lon="17.6540003">
        <ele>30.4188</ele>
        <time>2013-05-01T10:19:07Z</time>
      </trkpt>
      <trkpt lat="59.9392016" lon="17.6538747">
        <ele>30.4188</ele>
        <time>2013-05-01T10:19:08Z</time>
      </trkpt>
      <trkpt lat="59.9391716" lon="17.6537471">
        <ele>30.4188</ele>
        <time>2013-05-01T10:19:09Z</time>
      </trkpt>
      <trkpt lat="59.9391431" lon="17.6536174">
        <ele>29.9381</ele>
        <time>2013-05-01T10:19:10Z</time>
      </trkpt>
      <trkpt lat="59.9391155" lon="17.6534855">
        <ele>29.9381</ele>
        <time>2013-05-01T10:19:11Z</time>
      </trkpt>
      <trkpt lat="59.9390876" lon="17.6533527">
        <ele>29.9381</ele>
        <time>2013-05-01T10:19:12Z</time>
      </trkpt>
      <trkpt lat="59.9390587" lon="17.6532192">
        <ele>29.9381</ele>
        <time>2013-05-01T10:19:13Z</time>
      </trkpt>
      <trkpt lat="59.9390295" lon="17.6530853">
        <ele>29.4575</ele>
        <time>2013-05-01T10:19:14Z</time>
      </trkpt>
      <trkpt lat="59.938999" lon="17.6529507">
        <ele>29.4575</ele>
        <time>2013-05-01T10:19:15Z</time>
      </trkpt>
      <trkpt lat="59.9389664" lon="17.6528182">
        <ele>29.4575</ele>
        <time>2013-05-01T10:19:16Z</time>
      </trkpt>
      <trkpt lat="59.9389326" lon="17.6526869">
        <ele>29.4575</ele>
        <time>2013-05-01T10:19:17Z</time>
      </trkpt>
      <trkpt lat="59.9388985" lon="17.6525562">
        <ele>29.4575</ele>
        <time>2013-05-01T10:19:18Z</time>
      </trkpt>
      <trkpt lat="59.9388634" lon="17.6524271">
        <ele>29.4575</ele>
        <time>2013-05-01T10:19:19Z</time>
      </trkpt>
      <trkpt lat="59.9388279" lon="17.652298">
        <ele>29.4575</ele>
        <time>2013-05-01T10:19:20Z</time>
      </trkpt>
      <trkpt lat="59.9387911" lon="17.6521685">
        <ele>28.9769</ele>
        <time>2013-05-01T10:19:21Z</time>
      </trkpt>
      <trkpt lat="59.9387529" lon="17.6520378">
        <ele>28.9769</ele>
        <time>2013-05-01T10:19:22Z</time>
      </trkpt>
      <trkpt lat="59.9387135" lon="17.6519055">
        <ele>28.9769</ele>
        <time>2013-05-01T10:19:23Z</time>
      </trkpt>
      <trkpt lat="59.9386726" lon="17.6517729">
        <ele>28.9769</ele>
        <time>2013-05-01T10:19:24Z</time>
      </trkpt>
      <trkpt lat="59.9386305" lon="17.6516388">
        <ele>28.9769</ele>
        <time>2013-05-01T10:19:25Z</time>
      </trkpt>
      <trkpt lat="59.9385876" lon="17.6515028">
        <ele>29.4575</ele>
        <time>2013-05-01T10:19:26Z</time>
      </trkpt>
      <trkpt lat="59.9385442" lon="17.6513662">
        <ele>29.4575</ele>
        <time>2013-05-01T10:19:27Z</time>
      </trkpt>
      <trkpt lat="59.9385" lon="17.6512297">
        <ele>29.4575</ele>
        <time>2013-05-01T10:19:28Z</time>
      </trkpt>
      <trkpt lat="59.9384537" lon="17.6510963">
        <ele>29.4575</ele>
        <time>2013-05-01T10:19:29Z</time>
      </trkpt>
      <trkpt lat="59.9384031" lon="17.6509685">
        <ele>29.4575</ele>
        <time>2013-05-01T10:19:30Z</time>
      </trkpt>
      <trkpt lat="59.9383483" lon="17.6508465">
        <ele>29.4575</ele>
        <time>2013-05-01T10:19:31Z</time>
      </trkpt>
      <trkpt lat="59.9382928" lon="17.6507243">
        <ele>29.9381</ele>
        <time>2013-05-01T10:19:32Z</time>
      </trkpt>
      <trkpt lat="59.9382406" lon="17.6505993">
        <ele>29.9381</ele>
        <time>2013-05-01T10:19:33Z</time>
      </trkpt>
      <trkpt lat="59.938191" lon="17.6504684">
        <ele>29.9381</ele>
        <time>2013-05-01T10:19:34Z</time>
      </trkpt>
      <trkpt lat="59.9381428" lon="17.6503364">
        <ele>29.9381</ele>
        <time>2013-05-01T10:19:35Z</time>
      </trkpt>
      <trkpt lat="59.9380941" lon="17.6502059">
        <ele>30.4188</ele>
        <time>2013-05-01T10:19:36Z</time>
      </trkpt>
      <trkpt lat="59.9380448" lon="17.6500787">
        <ele>30.4188</ele>
        <time>2013-05-01T10:19:37Z</time>
      </trkpt>
      <trkpt lat="59.9379957" lon="17.6499541">
        <ele>30.4188</ele>
        <time>2013-05-01T10:19:38Z</time>
      </trkpt>
      <trkpt lat="59.937947" lon="17.6498304">
        <ele>30.8995</ele>
        <time>2013-05-01T10:19:39Z</time>
      </trkpt>
      <trkpt lat="59.9378984" lon="17.6497064">
        <ele>30.8995</ele>
        <time>2013-05-01T10:19:40Z</time>
      </trkpt>
      <trkpt lat="59.9378513" lon="17.6495836">
        <ele>30.8995</ele>
        <time>2013-05-01T10:19:41Z</time>
      </trkpt>
      <trkpt lat="59.9378062" lon="17.6494597">
        <ele>31.3801</ele>
        <time>2013-05-01T10:19:42Z</time>
      </trkpt>
      <trkpt lat="59.9377637" lon="17.6493289">
        <ele>31.3801</ele>
        <time>2013-05-01T10:19:43Z</time>
      </trkpt>
      <trkpt lat="59.9377185" lon="17.649202">
        <ele>31.8607</ele>
        <time>2013-05-01T10:19:44Z</time>
      </trkpt>
      <trkpt lat="59.9376666" lon="17.6490875">
        <ele>31.8607</ele>
        <time>2013-05-01T10:19:45Z</time>
      </trkpt>
      <trkpt lat="59.9376111" lon="17.6489824">
        <ele>31.8607</ele>
        <time>2013-05-01T10:19:46Z</time>
      </trkpt>
      <trkpt lat="59.9375554" lon="17.6488818">
        <ele>32.3416</ele>
        <time>2013-05-01T10:19:47Z</time>
      </trkpt>
      <trkpt lat="59.937502" lon="17.6487829">
        <ele>32.3416</ele>
        <time>2013-05-01T10:19:48Z</time>
      </trkpt>
      <trkpt lat="59.9374534" lon="17.6486785">
        <ele>32.3416</ele>
        <time>2013-05-01T10:19:49Z</time>
      </trkpt>
      <trkpt lat="59.9374096" lon="17.648568">
        <ele>32.3416</ele>
        <time>2013-05-01T10:19:50Z</time>
      </trkpt>
      <trkpt lat="59.937365" lon="17.6484607">
        <ele>32.8223</ele>
        <time>2013-05-01T10:19:51Z</time>
      </trkpt>
      <trkpt lat="59.937315" lon="17.6483607">
        <ele>33.3029</ele>
        <time>2013-05-01T10:19:52Z</time>
      </trkpt>
      <trkpt lat="59.9372617" lon="17.6482695">
        <ele>33.3029</ele>
        <time>2013-05-01T10:19:53Z</time>
      </trkpt>
      <trkpt lat="59.9372045" lon="17.6481866">
        <ele>33.3029</ele>
        <time>2013-05-01T10:19:54Z</time>
      </trkpt>
      <trkpt lat="59.9371441" lon="17.6481089">
        <ele>33.3029</ele>
        <time>2013-05-01T10:19:55Z</time>
      </trkpt>
      <trkpt lat="59.9370846" lon="17.6480338">
        <ele>33.3029</ele>
        <time>2013-05-01T10:19:56Z</time>
      </trkpt>
      <trkpt lat="59.9370244" lon="17.6479571">
        <ele>33.3029</ele>
        <time>2013-05-01T10:19:57Z</time>
      </trkpt>
      <trkpt lat="59.9369639" lon="17.647884">
        <ele>33.3029</ele>
        <time>2013-05-01T10:19:58Z</time>
      </trkpt>
      <trkpt lat="59.9369035" lon="17.6478083">
        <ele>33.3029</ele>
        <time>2013-05-01T10:19:59Z</time>
      </trkpt>
      <trkpt lat="59.9368425" lon="17.6477302">
        <ele>33.3029</ele>
        <time>2013-05-01T10:20:00Z</time>
      </trkpt>
      <trkpt lat="59.9367818" lon="17.6476495">
        <ele>33.3029</ele>
        <time>2013-05-01T10:20:01Z</time>
      </trkpt>
      <trkpt lat="59.9367219" lon="17.6475729">
        <ele>33.3029</ele>
        <time>2013-05-01T10:20:02Z</time>
      </trkpt>
      <trkpt lat="59.9366613" lon="17.6474972">
        <ele>33.7834</ele>
        <time>2013-05-01T10:20:03Z</time>
      </trkpt>
      <trkpt lat="59.9365991" lon="17.6474209">
        <ele>33.7834</ele>
        <time>2013-05-01T10:20:04Z</time>
      </trkpt>
      <trkpt lat="59.9365375" lon="17.6473454">
        <ele>34.2642</ele>
        <time>2013-05-01T10:20:05Z</time>
      </trkpt>
      <trkpt lat="59.9364765" lon="17.6472696">
        <ele>34.2642</ele>
        <time>2013-05-01T10:20:06Z</time>
      </trkpt>
      <trkpt lat="59.9364153" lon="17.647193">
        <ele>34.2642</ele>
        <time>2013-05-01T10:20:07Z</time>
      </trkpt>
      <trkpt lat="59.9363532" lon="17.6471157">
        <ele>34.7449</ele>
        <time>2013-05-01T10:20:08Z</time>
      </trkpt>
      <trkpt lat="59.9362904" lon="17.6470365">
        <ele>34.7449</ele>
        <time>2013-05-01T10:20:09Z</time>
      </trkpt>
      <trkpt lat="59.9362276" lon="17.6469561">
        <ele>34.7449</ele>
        <time>2013-05-01T10:20:10Z</time>
      </trkpt>
      <trkpt lat="59.9361636" lon="17.6468764">
        <ele>34.7449</ele>
        <time>2013-05-01T10:20:11Z</time>
      </trkpt>
      <trkpt lat="59.9360992" lon="17.6467961">
        <ele>34.2642</ele>
        <time>2013-05-01T10:20:12Z</time>
      </trkpt>
      <trkpt lat="59.9360341" lon="17.6467143">
        <ele>34.7449</ele>
        <time>2013-05-01T10:20:13Z</time>
      </trkpt>
      <trkpt lat="59.9359671" lon="17.6466301">
        <ele>34.7449</ele>
        <time>2013-05-01T10:20:14Z</time>
      </trkpt>
      <trkpt lat="59.9359003" lon="17.6465428">
        <ele>34.7449</ele>
        <time>2013-05-01T10:20:15Z</time>
      </trkpt>
      <trkpt lat="59.9358325" lon="17.6464566">
        <ele>34.7449</ele>
        <time>2013-05-01T10:20:16Z</time>
      </trkpt>
      <trkpt lat="59.9357644" lon="17.6463729">
        <ele>34.7449</ele>
        <time>2013-05-01T10:20:17Z</time>
      </trkpt>
      <trkpt lat="59.9356968" lon="17.6462886">
        <ele>34.7449</ele>
        <time>2013-05-01T10:20:18Z</time>
      </trkpt>
      <trkpt lat="59.9356294" lon="17.6462021">
        <ele>35.2255</ele>
        <time>2013-05-01T10:20:19Z</time>
      </trkpt>
      <trkpt lat="59.935562" lon="17.6461139">
        <ele>35.2255</ele>
        <time>2013-05-01T10:20:20Z</time>
      </trkpt>
      <trkpt lat="59.9354945" lon="17.6460255">
        <ele>35.2255</ele>
        <time>2013-05-01T10:20:21Z</time>
      </trkpt>
      <trkpt lat="59.9354248" lon="17.6459405">
        <ele>35.7061</ele>
        <time>2013-05-01T10:20:22Z</time>
      </trkpt>
      <trkpt lat="59.9353544" lon="17.6458559">
        <ele>36.1868</ele>
        <time>2013-05-01T10:20:23Z</time>
      </trkpt>
      <trkpt lat="59.935287" lon="17.6457621">
        <ele>36.1868</ele>
        <time>2013-05-01T10:20:24Z</time>
      </trkpt>
      <trkpt lat="59.9352218" lon="17.6456619">
        <ele>36.1868</ele>
        <time>2013-05-01T10:20:25Z</time>
      </trkpt>
      <trkpt lat="59.9351581" lon="17.6455618">
        <ele>36.1868</ele>
        <time>2013-05-01T10:20:26Z</time>
      </trkpt>
      <trkpt lat="59.9350944" lon="17.6454629">
        <ele>36.1868</ele>
        <time>2013-05-01T10:20:27Z</time>
      </trkpt>
      <trkpt lat="59.9350295" lon="17.6453703">
        <ele>36.1868</ele>
        <time>2013-05-01T10:20:28Z</time>
      </trkpt>
      <trkpt lat="59.9349615" lon="17.6452866">
        <ele>36.1868</ele>
        <time>2013-05-01T10:20:29Z</time>
      </trkpt>
      <trkpt lat="59.9348923" lon="17.645205">
        <ele>35.7061</ele>
        <time>2013-05-01T10:20:30Z</time>
      </trkpt>
      <trkpt lat="59.9348234" lon="17.6451221">
        <ele>35.2255</ele>
        <time>2013-05-01T10:20:31Z</time>
      </trkpt>
      <trkpt lat="59.9347569" lon="17.6450365">
        <ele>35.2255</ele>
        <time>2013-05-01T10:20:32Z</time>
      </trkpt>
      <trkpt lat="59.9346898" lon="17.6449485">
        <ele>34.7449</ele>
        <time>2013-05-01T10:20:33Z</time>
      </trkpt>
      <trkpt lat="59.9346214" lon="17.64486">
        <ele>34.2642</ele>
        <time>2013-05-01T10:20:34Z</time>
      </trkpt>
      <trkpt lat="59.9345526" lon="17.6447727">
        <ele>34.7449</ele>
        <time>2013-05-01T10:20:35Z</time>
      </trkpt>
      <trkpt lat="59.9344846" lon="17.6446776">
        <ele>34.7449</ele>
        <time>2013-05-01T10:20:36Z</time>
      </trkpt>
      <trkpt lat="59.9344203" lon="17.6445668">
        <ele>33.7834</ele>
        <time>2013-05-01T10:20:37Z</time>
      </trkpt>
      <trkpt lat="59.93435" lon="17.6444554">
        <ele>33.3029</ele>
        <time>2013-05-01T10:20:38Z</time>
      </trkpt>
      <trkpt lat="59.9342744" lon="17.6443482">
        <ele>32.8223</ele>
        <time>2013-05-01T10:20:39Z</time>
      </trkpt>
      <trkpt lat="59.9341971" lon="17.6442461">
        <ele>32.8223</ele>
        <time>2013-05-01T10:20:40Z</time>
      </trkpt>
      <trkpt lat="59.9341199" lon="17.6441447">
        <ele>32.3416</ele>
        <time>2013-05-01T10:20:41Z</time>
      </trkpt>
      <trkpt lat="59.9340417" lon="17.6440444">
        <ele>31.8607</ele>
        <time>2013-05-01T10:20:42Z</time>
      </trkpt>
      <trkpt lat="59.9339619" lon="17.6439467">
        <ele>31.3801</ele>
        <time>2013-05-01T10:20:43Z</time>
      </trkpt>
      <trkpt lat="59.9338778" lon="17.6438567">
        <ele>31.3801</ele>
        <time>2013-05-01T10:20:44Z</time>
      </trkpt>
      <trkpt lat="59.9337926" lon="17.6437777">
        <ele>30.8995</ele>
        <time>2013-05-01T10:20:45Z</time>
      </trkpt>
      <trkpt lat="59.9337077" lon="17.643699">
        <ele>30.8995</ele>
        <time>2013-05-01T10:20:46Z</time>
      </trkpt>
      <trkpt lat="59.9336231" lon="17.6436142">
        <ele>30.4188</ele>
        <time>2013-05-01T10:20:47Z</time>
      </trkpt>
      <trkpt lat="59.9335411" lon="17.643521">
        <ele>29.9381</ele>
        <time>2013-05-01T10:20:48Z</time>
      </trkpt>
      <trkpt lat="59.93346" lon="17.6434189">
        <ele>29.4575</ele>
        <time>2013-05-01T10:20:49Z</time>
      </trkpt>
      <trkpt lat="59.9333802" lon="17.6433055">
        <ele>28.4962</ele>
        <time>2013-05-01T10:20:50Z</time>
      </trkpt>
      <trkpt lat="59.9333015" lon="17.6431825">
        <ele>28.0155</ele>
        <time>2013-05-01T10:20:51Z</time>
      </trkpt>
      <trkpt lat="59.9332211" lon="17.6430542">
        <ele>27.0543</ele>
        <time>2013-05-01T10:20:52Z</time>
      </trkpt>
      <trkpt lat="59.9331381" lon="17.6429271">
        <ele>26.5736</ele>
        <time>2013-05-01T10:20:53Z</time>
      </trkpt>
      <trkpt lat="59.9330518" lon="17.6428056">
        <ele>25.6123</ele>
        <time>2013-05-01T10:20:54Z</time>
      </trkpt>
      <trkpt lat="59.9329642" lon="17.6426881">
        <ele>25.1317</ele>
        <time>2013-05-01T10:20:55Z</time>
      </trkpt>
      <trkpt lat="59.9328799" lon="17.642567">
        <ele>24.651</ele>
        <time>2013-05-01T10:20:56Z</time>
      </trkpt>
      <trkpt lat="59.9328017" lon="17.6424335">
        <ele>24.651</ele>
        <time>2013-05-01T10:20:57Z</time>
      </trkpt>
      <trkpt lat="59.9327244" lon="17.6422993">
        <ele>24.1703</ele>
        <time>2013-05-01T10:20:58Z</time>
      </trkpt>
      <trkpt lat="59.932641" lon="17.6421793">
        <ele>24.1703</ele>
        <time>2013-05-01T10:20:59Z</time>
      </trkpt>
      <trkpt lat="59.9325522" lon="17.6420744">
        <ele>23.6896</ele>
        <time>2013-05-01T10:21:00Z</time>
      </trkpt>
      <trkpt lat="59.9324607" lon="17.6419792">
        <ele>23.6896</ele>
        <time>2013-05-01T10:21:01Z</time>
      </trkpt>
      <trkpt lat="59.9323681" lon="17.6418926">
        <ele>24.1703</ele>
        <time>2013-05-01T10:21:02Z</time>
      </trkpt>
      <trkpt lat="59.9322756" lon="17.641811">
        <ele>24.1703</ele>
        <time>2013-05-01T10:21:03Z</time>
      </trkpt>
      <trkpt lat="59.9321853" lon="17.641729">
        <ele>24.1703</ele>
        <time>2013-05-01T10:21:04Z</time>
      </trkpt>
      <trkpt lat="59.9320985" lon="17.6416473">
        <ele>24.651</ele>
        <time>2013-05-01T10:21:05Z</time>
      </trkpt>
      <trkpt lat="59.9320132" lon="17.6415737">
        <ele>24.651</ele>
        <time>2013-05-01T10:21:06Z</time>
      </trkpt>
      <trkpt lat="59.931927" lon="17.6415085">
        <ele>24.651</ele>
        <time>2013-05-01T10:21:07Z</time>
      </trkpt>
      <trkpt lat="59.9318377" lon="17.6414481">
        <ele>24.1703</ele>
        <time>2013-05-01T10:21:08Z</time>
      </trkpt>
      <trkpt lat="59.931748" lon="17.6413898">
        <ele>24.1703</ele>
        <time>2013-05-01T10:21:09Z</time>
      </trkpt>
      <trkpt lat="59.9316597" lon="17.6413287">
        <ele>24.1703</ele>
        <time>2013-05-01T10:21:10Z</time>
      </trkpt>
      <trkpt lat="59.9315728" lon="17.6412665">
        <ele>24.1703</ele>
        <time>2013-05-01T10:21:11Z</time>
      </trkpt>
      <trkpt lat="59.9314869" lon="17.6412059">
        <ele>24.1703</ele>
        <time>2013-05-01T10:21:12Z</time>
      </trkpt>
      <trkpt lat="59.9314024" lon="17.6411463">
        <ele>24.1703</ele>
        <time>2013-05-01T10:21:13Z</time>
      </trkpt>
      <trkpt lat="59.931318" lon="17.6410858">
        <ele>23.6896</ele>
        <time>2013-05-01T10:21:14Z</time>
      </trkpt>
      <trkpt lat="59.9312331" lon="17.6410225">
        <ele>23.209</ele>
        <time>2013-05-01T10:21:15Z</time>
      </trkpt>
      <trkpt lat="59.9311444" lon="17.6409566">
        <ele>22.7283</ele>
        <time>2013-05-01T10:21:16Z</time>
      </trkpt>
      <trkpt lat="59.9310523" lon="17.6408895">
        <ele>22.2476</ele>
        <time>2013-05-01T10:21:17Z</time>
      </trkpt>
      <trkpt lat="59.9309578" lon="17.6408302">
        <ele>21.767</ele>
        <time>2013-05-01T10:21:18Z</time>
      </trkpt>
      <trkpt lat="59.9308628" lon="17.6407879">
        <ele>21.767</ele>
        <time>2013-05-01T10:21:19Z</time>
      </trkpt>
      <trkpt lat="59.9307684" lon="17.6407694">
        <ele>21.767</ele>
        <time>2013-05-01T10:21:20Z</time>
      </trkpt>
      <trkpt lat="59.9306742" lon="17.6407724">
        <ele>21.2864</ele>
        <time>2013-05-01T10:21:21Z</time>
      </trkpt>
      <trkpt lat="59.9305809" lon="17.6407853">
        <ele>20.8057</ele>
        <time>2013-05-01T10:21:22Z</time>
      </trkpt>
      <trkpt lat="59.9304856" lon="17.6408003">
        <ele>20.325</ele>
        <time>2013-05-01T10:21:23Z</time>
      </trkpt>
      <trkpt lat="59.9303896" lon="17.640807">
        <ele>20.325</ele>
        <time>2013-05-01T10:21:24Z</time>
      </trkpt>
      <trkpt lat="59.9302933" lon="17.6408056">
        <ele>19.8444</ele>
        <time>2013-05-01T10:21:25Z</time>
      </trkpt>
      <trkpt lat="59.9301977" lon="17.6408027">
        <ele>19.3638</ele>
        <time>2013-05-01T10:21:26Z</time>
      </trkpt>
      <trkpt lat="59.9301025" lon="17.6407999">
        <ele>19.3638</ele>
        <time>2013-05-01T10:21:27Z</time>
      </trkpt>
      <trkpt lat="59.9300074" lon="17.6407981">
        <ele>18.8831</ele>
        <time>2013-05-01T10:21:28Z</time>
      </trkpt>
      <trkpt lat="59.9299135" lon="17.6407989">
        <ele>18.8831</ele>
        <time>2013-05-01T10:21:29Z</time>
      </trkpt>
      <trkpt lat="59.9298223" lon="17.6408029">
        <ele>18.8831</ele>
        <time>2013-05-01T10:21:30Z</time>
      </trkpt>
      <trkpt lat="59.9297342" lon="17.6408157">
        <ele>18.8831</ele>
        <time>2013-05-01T10:21:31Z</time>
      </trkpt>
      <trkpt lat="59.929646" lon="17.6408359">
        <ele>18.4023</ele>
        <time>2013-05-01T10:21:32Z</time>
      </trkpt>
      <trkpt lat="59.9295564" lon="17.6408581">
        <ele>18.4023</ele>
        <time>2013-05-01T10:21:33Z</time>
      </trkpt>
      <trkpt lat="59.9294655" lon="17.6408765">
        <ele>17.9218</ele>
        <time>2013-05-01T10:21:34Z</time>
      </trkpt>
      <trkpt lat="59.9293735" lon="17.6408892">
        <ele>17.9218</ele>
        <time>2013-05-01T10:21:35Z</time>
      </trkpt>
      <trkpt lat="59.929281" lon="17.6408962">
        <ele>17.9218</ele>
        <time>2013-05-01T10:21:36Z</time>
      </trkpt>
      <trkpt lat="59.9291881" lon="17.6409001">
        <ele>17.4412</ele>
        <time>2013-05-01T10:21:37Z</time>
      </trkpt>
      <trkpt lat="59.9290957" lon="17.6409023">
        <ele>17.4412</ele>
        <time>2013-05-01T10:21:38Z</time>
      </trkpt>
      <trkpt lat="59.9290031" lon="17.6409095">
        <ele>17.4412</ele>
        <time>2013-05-01T10:21:39Z</time>
      </trkpt>
      <trkpt lat="59.9289113" lon="17.640924">
        <ele>17.4412</ele>
        <time>2013-05-01T10:21:40Z</time>
      </trkpt>
      <trkpt lat="59.9288196" lon="17.6409438">
        <ele>17.4412</ele>
        <time>2013-05-01T10:21:41Z</time>
      </trkpt>
      <trkpt lat="59.9287291" lon="17.6409656">
        <ele>17.4412</ele>
        <time>2013-05-01T10:21:42Z</time>
      </trkpt>
      <trkpt lat="59.9286395" lon="17.6409894">
        <ele>17.4412</ele>
        <time>2013-05-01T10:21:43Z</time>
      </trkpt>
      <trkpt lat="59.9285503" lon="17.6410111">
        <ele>17.4412</ele>
        <time>2013-05-01T10:21:44Z</time>
      </trkpt>
      <trkpt lat="59.9284608" lon="17.6410258">
        <ele>17.9218</ele>
        <time>2013-05-01T10:21:45Z</time>
      </trkpt>
      <trkpt lat="59.9283708" lon="17.641037">
        <ele>17.9218</ele>
        <time>2013-05-01T10:21:46Z</time>
      </trkpt>
      <trkpt lat="59.9282802" lon="17.6410485">
        <ele>17.9218</ele>
        <time>2013-05-01T10:21:47Z</time>
      </trkpt>
      <trkpt lat="59.9281892" lon="17.6410629">
        <ele>17.9218</ele>
        <time>2013-05-01T10:21:48Z</time>
      </trkpt>
      <trkpt lat="59.9280986" lon="17.6410764">
        <ele>17.9218</ele>
        <time>2013-05-01T10:21:49Z</time>
      </trkpt>
      <trkpt lat="59.9280079" lon="17.6410877">
        <ele>17.9218</ele>
        <time>2013-05-01T10:21:50Z</time>
      </trkpt>
      <trkpt lat="59.9279174" lon="17.6410973">
        <ele>17.9218</ele>
        <time>2013-05-01T10:21:51Z</time>
      </trkpt>
      <trkpt lat="59.9278272" lon="17.6411073">
        <ele>18.4023</ele>
        <time>2013-05-01T10:21:52Z</time>
      </trkpt>
      <trkpt lat="59.9277375" lon="17.6411166">
        <ele>18.4023</ele>
        <time>2013-05-01T10:21:53Z</time>
      </trkpt>
      <trkpt lat="59.9276479" lon="17.6411255">
        <ele>18.4023</ele>
        <time>2013-05-01T10:21:54Z</time>
      </trkpt>
      <trkpt lat="59.9275582" lon="17.641135">
        <ele>18.4023</ele>
        <time>2013-05-01T10:21:55Z</time>
      </trkpt>
      <trkpt lat="59.9274692" lon="17.6411443">
        <ele>18.4023</ele>
        <time>2013-05-01T10:21:56Z</time>
      </trkpt>
      <trkpt lat="59.9273817" lon="17.6411532">
        <ele>18.8831</ele>
        <time>2013-05-01T10:21:57Z</time>
      </trkpt>
      <trkpt lat="59.9272951" lon="17.6411603">
        <ele>18.8831</ele>
        <time>2013-05-01T10:21:58Z</time>
      </trkpt>
      <trkpt lat="59.9272095" lon="17.6411666">
        <ele>18.8831</ele>
        <time>2013-05-01T10:21:59Z</time>
      </trkpt>
      <trkpt lat="59.9271247" lon="17.6411733">
        <ele>18.8831</ele>
        <time>2013-05-01T10:22:00Z</time>
      </trkpt>
      <trkpt lat="59.9270407" lon="17.6411796">
        <ele>18.8831</ele>
        <time>2013-05-01T10:22:01Z</time>
      </trkpt>
      <trkpt lat="59.9269569" lon="17.6411879">
        <ele>18.8831</ele>
        <time>2013-05-01T10:22:02Z</time>
      </trkpt>
      <trkpt lat="59.9268736" lon="17.6411971">
        <ele>18.8831</ele>
        <time>2013-05-01T10:22:03Z</time>
      </trkpt>
      <trkpt lat="59.9267911" lon="17.6412075">
        <ele>18.8831</ele>
        <time>2013-05-01T10:22:04Z</time>
      </trkpt>
      <trkpt lat="59.9267097" lon="17.6412178">
        <ele>18.8831</ele>
        <time>2013-05-01T10:22:05Z</time>
      </trkpt>
      <trkpt lat="59.9266286" lon="17.6412272">
        <ele>18.8831</ele>
        <time>2013-05-01T10:22:06Z</time>
      </trkpt>
      <trkpt lat="59.9265477" lon="17.6412366">
        <ele>18.8831</ele>
        <time>2013-05-01T10:22:07Z</time>
      </trkpt>
      <trkpt lat="59.9264663" lon="17.6412456">
        <ele>18.8831</ele>
        <time>2013-05-01T10:22:08Z</time>
      </trkpt>
      <trkpt lat="59.9263844" lon="17.641256">
        <ele>18.8831</ele>
        <time>2013-05-01T10:22:09Z</time>
      </trkpt>
      <trkpt lat="59.9263019" lon="17.6412697">
        <ele>18.8831</ele>
        <time>2013-05-01T10:22:10Z</time>
      </trkpt>
      <trkpt lat="59.9262191" lon="17.6412836">
        <ele>18.8831</ele>
        <time>2013-05-01T10:22:11Z</time>
      </trkpt>
      <trkpt lat="59.9261362" lon="17.6412944">
        <ele>19.3638</ele>
        <time>2013-05-01T10:22:12Z</time>
      </trkpt>
      <trkpt lat="59.9260534" lon="17.6413029">
        <ele>19.3638</ele>
        <time>2013-05-01T10:22:13Z</time>
      </trkpt>
      <trkpt lat="59.9259707" lon="17.6413138">
        <ele>19.3638</ele>
        <time>2013-05-01T10:22:14Z</time>
      </trkpt>
      <trkpt lat="59.9258888" lon="17.6413271">
        <ele>19.3638</ele>
        <time>2013-05-01T10:22:15Z</time>
      </trkpt>
      <trkpt lat="59.925807" lon="17.641339">
        <ele>19.3638</ele>
        <time>2013-05-01T10:22:16Z</time>
      </trkpt>
      <trkpt lat="59.9257256" lon="17.6413489">
        <ele>19.8444</ele>
        <time>2013-05-01T10:22:17Z</time>
      </trkpt>
      <trkpt lat="59.9256442" lon="17.6413603">
        <ele>19.8444</ele>
        <time>2013-05-01T10:22:18Z</time>
      </trkpt>
      <trkpt lat="59.9255635" lon="17.6413718">
        <ele>19.8444</ele>
        <time>2013-05-01T10:22:19Z</time>
      </trkpt>
      <trkpt lat="59.9254837" lon="17.6413819">
        <ele>19.8444</ele>
        <time>2013-05-01T10:22:20Z</time>
      </trkpt>
      <trkpt lat="59.9254047" lon="17.6413914">
        <ele>20.325</ele>
        <time>2013-05-01T10:22:21Z</time>
      </trkpt>
      <trkpt lat="59.9253258" lon="17.6413964">
        <ele>20.325</ele>
        <time>2013-05-01T10:22:22Z</time>
      </trkpt>
      <trkpt lat="59.9252474" lon="17.6413953">
        <ele>20.325</ele>
        <time>2013-05-01T10:22:23Z</time>
      </trkpt>
      <trkpt lat="59.9251696" lon="17.6413945">
        <ele>19.8444</ele>
        <time>2013-05-01T10:22:24Z</time>
      </trkpt>
      <trkpt lat="59.925092" lon="17.6413959">
        <ele>20.325</ele>
        <time>2013-05-01T10:22:25Z</time>
      </trkpt>
      <trkpt lat="59.9250143" lon="17.6413991">
        <ele>20.325</ele>
        <time>2013-05-01T10:22:26Z</time>
      </trkpt>
      <trkpt lat="59.9249367" lon="17.6414043">
        <ele>20.325</ele>
        <time>2013-05-01T10:22:27Z</time>
      </trkpt>
      <trkpt lat="59.9248595" lon="17.6414127">
        <ele>20.325</ele>
        <time>2013-05-01T10:22:28Z</time>
      </trkpt>
      <trkpt lat="59.9247828" lon="17.641427">
        <ele>20.325</ele>
        <time>2013-05-01T10:22:29Z</time>
      </trkpt>
      <trkpt lat="59.9247061" lon="17.6414462">
        <ele>20.325</ele>
        <time>2013-05-01T10:22:30Z</time>
      </trkpt>
      <trkpt lat="59.9246295" lon="17.6414686">
        <ele>20.325</ele>
        <time>2013-05-01T10:22:31Z</time>
      </trkpt>
      <trkpt lat="59.9245528" lon="17.6414882">
        <ele>20.325</ele>
        <time>2013-05-01T10:22:32Z</time>
      </trkpt>
      <trkpt lat="59.924475" lon="17.6415018">
        <ele>20.325</ele>
        <time>2013-05-01T10:22:33Z</time>
      </trkpt>
      <trkpt lat="59.9243972" lon="17.6415099">
        <ele>20.325</ele>
        <time>2013-05-01T10:22:34Z</time>
      </trkpt>
      <trkpt lat="59.9243198" lon="17.6415137">
        <ele>20.325</ele>
        <time>2013-05-01T10:22:35Z</time>
      </trkpt>
      <trkpt lat="59.9242426" lon="17.6415148">
        <ele>20.325</ele>
        <time>2013-05-01T10:22:36Z</time>
      </trkpt>
      <trkpt lat="59.9241658" lon="17.6415145">
        <ele>20.325</ele>
        <time>2013-05-01T10:22:37Z</time>
      </trkpt>
      <trkpt lat="59.9240882" lon="17.6415174">
        <ele>20.325</ele>
        <time>2013-05-01T10:22:38Z</time>
      </trkpt>
      <trkpt lat="59.9240099" lon="17.641525">
        <ele>20.325</ele>
        <time>2013-05-01T10:22:39Z</time>
      </trkpt>
      <trkpt lat="59.9239317" lon="17.6415332">
        <ele>20.325</ele>
        <time>2013-05-01T10:22:40Z</time>
      </trkpt>
      <trkpt lat="59.9238536" lon="17.6415422">
        <ele>20.325</ele>
        <time>2013-05-01T10:22:41Z</time>
      </trkpt>
      <trkpt lat="59.9237753" lon="17.6415525">
        <ele>20.325</ele>
        <time>2013-05-01T10:22:42Z</time>
      </trkpt>
      <trkpt lat="59.9236974" lon="17.6415623">
        <ele>20.325</ele>
        <time>2013-05-01T10:22:43Z</time>
      </trkpt>
      <trkpt lat="59.9236207" lon="17.6415726">
        <ele>20.8057</ele>
        <time>2013-05-01T10:22:44Z</time>
      </trkpt>
      <trkpt lat="59.9235461" lon="17.6415828">
        <ele>20.8057</ele>
        <time>2013-05-01T10:22:45Z</time>
      </trkpt>
      <trkpt lat="59.9234727" lon="17.641594">
        <ele>20.8057</ele>
        <time>2013-05-01T10:22:46Z</time>
      </trkpt>
      <trkpt lat="59.9234005" lon="17.6416046">
        <ele>21.2864</ele>
        <time>2013-05-01T10:22:47Z</time>
      </trkpt>
      <trkpt lat="59.9233298" lon="17.6416155">
        <ele>21.2864</ele>
        <time>2013-05-01T10:22:48Z</time>
      </trkpt>
      <trkpt lat="59.9232599" lon="17.6416272">
        <ele>21.2864</ele>
        <time>2013-05-01T10:22:49Z</time>
      </trkpt>
      <trkpt lat="59.9231904" lon="17.641637">
        <ele>21.767</ele>
        <time>2013-05-01T10:22:50Z</time>
      </trkpt>
      <trkpt lat="59.9231209" lon="17.6416472">
        <ele>21.767</ele>
        <time>2013-05-01T10:22:51Z</time>
      </trkpt>
      <trkpt lat="59.9230514" lon="17.6416555">
        <ele>21.767</ele>
        <time>2013-05-01T10:22:52Z</time>
      </trkpt>
      <trkpt lat="59.9229822" lon="17.641659">
        <ele>21.767</ele>
        <time>2013-05-01T10:22:53Z</time>
      </trkpt>
      <trkpt lat="59.9229138" lon="17.6416613">
        <ele>22.2476</ele>
        <time>2013-05-01T10:22:54Z</time>
      </trkpt>
      <trkpt lat="59.9228454" lon="17.641667">
        <ele>22.2476</ele>
        <time>2013-05-01T10:22:55Z</time>
      </trkpt>
      <trkpt lat="59.9227776" lon="17.6416747">
        <ele>22.7283</ele>
        <time>2013-05-01T10:22:56Z</time>
      </trkpt>
      <trkpt lat="59.9227109" lon="17.6416809">
        <ele>22.7283</ele>
        <time>2013-05-01T10:22:57Z</time>
      </trkpt>
      <trkpt lat="59.9226443" lon="17.6416871">
        <ele>22.7283</ele>
        <time>2013-05-01T10:22:58Z</time>
      </trkpt>
      <trkpt lat="59.9225767" lon="17.641698">
        <ele>22.7283</ele>
        <time>2013-05-01T10:22:59Z</time>
      </trkpt>
      <trkpt lat="59.9225077" lon="17.6417108">
        <ele>22.7283</ele>
        <time>2013-05-01T10:23:00Z</time>
      </trkpt>
      <trkpt lat="59.9224382" lon="17.6417248">
        <ele>22.7283</ele>
        <time>2013-05-01T10:23:01Z</time>
      </trkpt>
      <trkpt lat="59.9223684" lon="17.6417411">
        <ele>22.7283</ele>
        <time>2013-05-01T10:23:02Z</time>
      </trkpt>
      <trkpt lat="59.9222989" lon="17.6417541">
        <ele>22.7283</ele>
        <time>2013-05-01T10:23:03Z</time>
      </trkpt>
      <trkpt lat="59.9222289" lon="17.641766">
        <ele>23.209</ele>
        <time>2013-05-01T10:23:04Z</time>
      </trkpt>
      <trkpt lat="59.9221596" lon="17.6417755">
        <ele>23.209</ele>
        <time>2013-05-01T10:23:05Z</time>
      </trkpt>
      <trkpt lat="59.9220902" lon="17.6417826">
        <ele>23.209</ele>
        <time>2013-05-01T10:23:06Z</time>
      </trkpt>
      <trkpt lat="59.9220204" lon="17.6417888">
        <ele>23.209</ele>
        <time>2013-05-01T10:23:07Z</time>
      </trkpt>
      <trkpt lat="59.9219514" lon="17.6417988">
        <ele>23.6896</ele>
        <time>2013-05-01T10:23:08Z</time>
      </trkpt>
      <trkpt lat="59.921883" lon="17.6418103">
        <ele>23.6896</ele>
        <time>2013-05-01T10:23:09Z</time>
      </trkpt>
      <trkpt lat="59.9218131" lon="17.6418199">
        <ele>24.1703</ele>
        <time>2013-05-01T10:23:10Z</time>
      </trkpt>
      <trkpt lat="59.9217429" lon="17.6418304">
        <ele>24.1703</ele>
        <time>2013-05-01T10:23:11Z</time>
      </trkpt>
      <trkpt lat="59.921674" lon="17.6418395">
        <ele>24.651</ele>
        <time>2013-05-01T10:23:12Z</time>
      </trkpt>
      <trkpt lat="59.9216064" lon="17.6418503">
        <ele>24.651</ele>
        <time>2013-05-01T10:23:13Z</time>
      </trkpt>
      <trkpt lat="59.9215394" lon="17.6418596">
        <ele>25.1317</ele>
        <time>2013-05-01T10:23:14Z</time>
      </trkpt>
      <trkpt lat="59.9214712" lon="17.6418665">
        <ele>25.6123</ele>
        <time>2013-05-01T10:23:15Z</time>
      </trkpt>
      <trkpt lat="59.9214007" lon="17.6418736">
        <ele>25.6123</ele>
        <time>2013-05-01T10:23:16Z</time>
      </trkpt>
      <trkpt lat="59.9213273" lon="17.6418813">
        <ele>25.6123</ele>
        <time>2013-05-01T10:23:17Z</time>
      </trkpt>
      <trkpt lat="59.9212523" lon="17.641886">
        <ele>25.1317</ele>
        <time>2013-05-01T10:23:18Z</time>
      </trkpt>
      <trkpt lat="59.9211749" lon="17.6418901">
        <ele>24.651</ele>
        <time>2013-05-01T10:23:19Z</time>
      </trkpt>
      <trkpt lat="59.9210967" lon="17.6418955">
        <ele>24.1703</ele>
        <time>2013-05-01T10:23:20Z</time>
      </trkpt>
      <trkpt lat="59.9210194" lon="17.6418985">
        <ele>23.6896</ele>
        <time>2013-05-01T10:23:21Z</time>
      </trkpt>
      <trkpt lat="59.9209423" lon="17.6419014">
        <ele>24.1703</ele>
        <time>2013-05-01T10:23:22Z</time>
      </trkpt>
      <trkpt lat="59.9208638" lon="17.6418963">
        <ele>23.6896</ele>
        <time>2013-05-01T10:23:23Z</time>
      </trkpt>
      <trkpt lat="59.9207858" lon="17.6418887">
        <ele>23.6896</ele>
        <time>2013-05-01T10:23:24Z</time>
      </trkpt>
      <trkpt lat="59.9207058" lon="17.6418883">
        <ele>23.209</ele>
        <time>2013-05-01T10:23:25Z</time>
      </trkpt>
      <trkpt lat="59.9206245" lon="17.6418885">
        <ele>23.209</ele>
        <time>2013-05-01T10:23:26Z</time>
      </trkpt>
      <trkpt lat="59.9205419" lon="17.6418902">
        <ele>22.7283</ele>
        <time>2013-05-01T10:23:27Z</time>
      </trkpt>
      <trkpt lat="59.9204579" lon="17.6418952">
        <ele>22.7283</ele>
        <time>2013-05-01T10:23:28Z</time>
      </trkpt>
      <trkpt lat="59.9203756" lon="17.6418918">
        <ele>22.7283</ele>
        <time>2013-05-01T10:23:29Z</time>
      </trkpt>
      <trkpt lat="59.9202942" lon="17.641895">
        <ele>22.7283</ele>
        <time>2013-05-01T10:23:30Z</time>
      </trkpt>
      <trkpt lat="59.9202158" lon="17.641898">
        <ele>22.7283</ele>
        <time>2013-05-01T10:23:31Z</time>
      </trkpt>
      <trkpt lat="59.9201399" lon="17.6419032">
        <ele>22.7283</ele>
        <time>2013-05-01T10:23:32Z</time>
      </trkpt>
      <trkpt lat="59.9200643" lon="17.641912">
        <ele>22.7283</ele>
        <time>2013-05-01T10:23:33Z</time>
      </trkpt>
      <trkpt lat="59.9199877" lon="17.6419234">
        <ele>22.7283</ele>
        <time>2013-05-01T10:23:34Z</time>
      </trkpt>
      <trkpt lat="59.9199123" lon="17.6419373">
        <ele>23.209</ele>
        <time>2013-05-01T10:23:35Z</time>
      </trkpt>
      <trkpt lat="59.9198384" lon="17.6419538">
        <ele>22.7283</ele>
        <time>2013-05-01T10:23:36Z</time>
      </trkpt>
      <trkpt lat="59.9197648" lon="17.6419722">
        <ele>22.7283</ele>
        <time>2013-05-01T10:23:37Z</time>
      </trkpt>
      <trkpt lat="59.9196911" lon="17.6419916">
        <ele>22.7283</ele>
        <time>2013-05-01T10:23:38Z</time>
      </trkpt>
      <trkpt lat="59.9196175" lon="17.6420068">
        <ele>22.7283</ele>
        <time>2013-05-01T10:23:39Z</time>
      </trkpt>
      <trkpt lat="59.9195436" lon="17.6420175">
        <ele>22.7283</ele>
        <time>2013-05-01T10:23:40Z</time>
      </trkpt>
      <trkpt lat="59.919469" lon="17.642027">
        <ele>22.7283</ele>
        <time>2013-05-01T10:23:41Z</time>
      </trkpt>
      <trkpt lat="59.919394" lon="17.6420368">
        <ele>22.7283</ele>
        <time>2013-05-01T10:23:42Z</time>
      </trkpt>
      <trkpt lat="59.9193193" lon="17.6420449">
        <ele>22.7283</ele>
        <time>2013-05-01T10:23:43Z</time>
      </trkpt>
      <trkpt lat="59.9192445" lon="17.6420521">
        <ele>22.7283</ele>
        <time>2013-05-01T10:23:44Z</time>
      </trkpt>
      <trkpt lat="59.9191703" lon="17.6420622">
        <ele>22.7283</ele>
        <time>2013-05-01T10:23:45Z</time>
      </trkpt>
      <trkpt lat="59.9190974" lon="17.6420755">
        <ele>22.7283</ele>
        <time>2013-05-01T10:23:46Z</time>
      </trkpt>
      <trkpt lat="59.9190237" lon="17.6420876">
        <ele>22.7283</ele>
        <time>2013-05-01T10:23:47Z</time>
      </trkpt>
      <trkpt lat="59.9189498" lon="17.6420964">
        <ele>22.7283</ele>
        <time>2013-05-01T10:23:48Z</time>
      </trkpt>
      <trkpt lat="59.9188757" lon="17.6421043">
        <ele>22.2476</ele>
        <time>2013-05-01T10:23:49Z</time>
      </trkpt>
      <trkpt lat="59.9188011" lon="17.6421146">
        <ele>22.2476</ele>
        <time>2013-05-01T10:23:50Z</time>
      </trkpt>
      <trkpt lat="59.9187262" lon="17.6421271">
        <ele>22.2476</ele>
        <time>2013-05-01T10:23:51Z</time>
      </trkpt>
      <trkpt lat="59.9186522" lon="17.6421362">
        <ele>22.2476</ele>
        <time>2013-05-01T10:23:52Z</time>
      </trkpt>
      <trkpt lat="59.918577" lon="17.6421469">
        <ele>22.2476</ele>
        <time>2013-05-01T10:23:53Z</time>
      </trkpt>
      <trkpt lat="59.9185014" lon="17.6421575">
        <ele>22.2476</ele>
        <time>2013-05-01T10:23:54Z</time>
      </trkpt>
      <trkpt lat="59.918425" lon="17.6421673">
        <ele>21.767</ele>
        <time>2013-05-01T10:23:55Z</time>
      </trkpt>
      <trkpt lat="59.9183479" lon="17.642177">
        <ele>21.767</ele>
        <time>2013-05-01T10:23:56Z</time>
      </trkpt>
      <trkpt lat="59.9182692" lon="17.6421865">
        <ele>21.767</ele>
        <time>2013-05-01T10:23:57Z</time>
      </trkpt>
      <trkpt lat="59.9181881" lon="17.6421962">
        <ele>21.767</ele>
        <time>2013-05-01T10:23:58Z</time>
      </trkpt>
      <trkpt lat="59.9181045" lon="17.6422051">
        <ele>21.2864</ele>
        <time>2013-05-01T10:23:59Z</time>
      </trkpt>
      <trkpt lat="59.9180191" lon="17.6422128">
        <ele>20.8057</ele>
        <time>2013-05-01T10:24:00Z</time>
      </trkpt>
      <trkpt lat="59.9179321" lon="17.6422217">
        <ele>20.8057</ele>
        <time>2013-05-01T10:24:01Z</time>
      </trkpt>
      <trkpt lat="59.917845" lon="17.6422304">
        <ele>20.8057</ele>
        <time>2013-05-01T10:24:02Z</time>
      </trkpt>
      <trkpt lat="59.9177575" lon="17.6422362">
        <ele>20.325</ele>
        <time>2013-05-01T10:24:03Z</time>
      </trkpt>
      <trkpt lat="59.9176703" lon="17.6422382">
        <ele>20.325</ele>
        <time>2013-05-01T10:24:04Z</time>
      </trkpt>
      <trkpt lat="59.9175825" lon="17.6422389">
        <ele>20.325</ele>
        <time>2013-05-01T10:24:05Z</time>
      </trkpt>
      <trkpt lat="59.9174944" lon="17.6422398">
        <ele>19.8444</ele>
        <time>2013-05-01T10:24:06Z</time>
      </trkpt>
      <trkpt lat="59.9174069" lon="17.6422419">
        <ele>19.8444</ele>
        <time>2013-05-01T10:24:07Z</time>
      </trkpt>
      <trkpt lat="59.9173201" lon="17.6422434">
        <ele>19.3638</ele>
        <time>2013-05-01T10:24:08Z</time>
      </trkpt>
      <trkpt lat="59.9172338" lon="17.6422399">
        <ele>19.3638</ele>
        <time>2013-05-01T10:24:09Z</time>
      </trkpt>
      <trkpt lat="59.9171482" lon="17.6422457">
        <ele>18.8831</ele>
        <time>2013-05-01T10:24:10Z</time>
      </trkpt>
      <trkpt lat="59.917065" lon="17.6422714">
        <ele>19.3638</ele>
        <time>2013-05-01T10:24:11Z</time>
      </trkpt>
      <trkpt lat="59.9169845" lon="17.6422977">
        <ele>19.3638</ele>
        <time>2013-05-01T10:24:12Z</time>
      </trkpt>
      <trkpt lat="59.9169044" lon="17.6423163">
        <ele>19.3638</ele>
        <time>2013-05-01T10:24:13Z</time>
      </trkpt>
      <trkpt lat="59.9168246" lon="17.6423322">
        <ele>19.3638</ele>
        <time>2013-05-01T10:24:14Z</time>
      </trkpt>
      <trkpt lat="59.9167459" lon="17.6423445">
        <ele>19.8444</ele>
        <time>2013-05-01T10:24:15Z</time>
      </trkpt>
      <trkpt lat="59.9166687" lon="17.6423531">
        <ele>19.8444</ele>
        <time>2013-05-01T10:24:16Z</time>
      </trkpt>
      <trkpt lat="59.9165932" lon="17.6423615">
        <ele>20.325</ele>
        <time>2013-05-01T10:24:17Z</time>
      </trkpt>
      <trkpt lat="59.9165189" lon="17.6423735">
        <ele>20.325</ele>
        <time>2013-05-01T10:24:18Z</time>
      </trkpt>
      <trkpt lat="59.9164449" lon="17.6423879">
        <ele>20.325</ele>
        <time>2013-05-01T10:24:19Z</time>
      </trkpt>
      <trkpt lat="59.9163712" lon="17.642401">
        <ele>20.325</ele>
        <time>2013-05-01T10:24:20Z</time>
      </trkpt>
      <trkpt lat="59.9162976" lon="17.6424129">
        <ele>20.325</ele>
        <time>2013-05-01T10:24:21Z</time>
      </trkpt>
      <trkpt lat="59.9162237" lon="17.6424211">
        <ele>20.325</ele>
        <time>2013-05-01T10:24:22Z</time>
      </trkpt>
      <trkpt lat="59.9161487" lon="17.6424264">
        <ele>20.325</ele>
        <time>2013-05-01T10:24:23Z</time>
      </trkpt>
      <trkpt lat="59.916073" lon="17.6424254">
        <ele>20.325</ele>
        <time>2013-05-01T10:24:24Z</time>
      </trkpt>
      <trkpt lat="59.9159953" lon="17.6424252">
        <ele>20.325</ele>
        <time>2013-05-01T10:24:25Z</time>
      </trkpt>
      <trkpt lat="59.9159175" lon="17.6424243">
        <ele>19.8444</ele>
        <time>2013-05-01T10:24:26Z</time>
      </trkpt>
      <trkpt lat="59.9158386" lon="17.6424279">
        <ele>19.8444</ele>
        <time>2013-05-01T10:24:27Z</time>
      </trkpt>
      <trkpt lat="59.9157585" lon="17.6424336">
        <ele>19.8444</ele>
        <time>2013-05-01T10:24:28Z</time>
      </trkpt>
      <trkpt lat="59.9156782" lon="17.6424391">
        <ele>19.8444</ele>
        <time>2013-05-01T10:24:29Z</time>
      </trkpt>
      <trkpt lat="59.9155977" lon="17.642447">
        <ele>19.8444</ele>
        <time>2013-05-01T10:24:30Z</time>
      </trkpt>
      <trkpt lat="59.9155156" lon="17.6424604">
        <ele>19.3638</ele>
        <time>2013-05-01T10:24:31Z</time>
      </trkpt>
      <trkpt lat="59.9154343" lon="17.6424776">
        <ele>19.3638</ele>
        <time>2013-05-01T10:24:32Z</time>
      </trkpt>
      <trkpt lat="59.9153539" lon="17.6425033">
        <ele>18.8831</ele>
        <time>2013-05-01T10:24:33Z</time>
      </trkpt>
      <trkpt lat="59.9152741" lon="17.6425481">
        <ele>18.8831</ele>
        <time>2013-05-01T10:24:34Z</time>
      </trkpt>
      <trkpt lat="59.9151997" lon="17.642603">
        <ele>18.8831</ele>
        <time>2013-05-01T10:24:35Z</time>
      </trkpt>
      <trkpt lat="59.9151292" lon="17.6426496">
        <ele>18.8831</ele>
        <time>2013-05-01T10:24:36Z</time>
      </trkpt>
      <trkpt lat="59.9150609" lon="17.6426764">
        <ele>19.3638</ele>
        <time>2013-05-01T10:24:37Z</time>
      </trkpt>
      <trkpt lat="59.9149899" lon="17.6426917">
        <ele>19.8444</ele>
        <time>2013-05-01T10:24:38Z</time>
      </trkpt>
      <trkpt lat="59.9149173" lon="17.6426999">
        <ele>19.8444</ele>
        <time>2013-05-01T10:24:39Z</time>
      </trkpt>
      <trkpt lat="59.9148449" lon="17.6427034">
        <ele>19.8444</ele>
        <time>2013-05-01T10:24:40Z</time>
      </trkpt>
      <trkpt lat="59.9147722" lon="17.6427097">
        <ele>20.325</ele>
        <time>2013-05-01T10:24:41Z</time>
      </trkpt>
      <trkpt lat="59.9146977" lon="17.6427199">
        <ele>20.8057</ele>
        <time>2013-05-01T10:24:42Z</time>
      </trkpt>
      <trkpt lat="59.9146231" lon="17.6427324">
        <ele>21.2864</ele>
        <time>2013-05-01T10:24:43Z</time>
      </trkpt>
      <trkpt lat="59.9145484" lon="17.6427468">
        <ele>21.767</ele>
        <time>2013-05-01T10:24:44Z</time>
      </trkpt>
      <trkpt lat="59.9144758" lon="17.6427603">
        <ele>21.767</ele>
        <time>2013-05-01T10:24:45Z</time>
      </trkpt>
      <trkpt lat="59.9144061" lon="17.6427739">
        <ele>22.2476</ele>
        <time>2013-05-01T10:24:46Z</time>
      </trkpt>
      <trkpt lat="59.9143385" lon="17.6427854">
        <ele>22.2476</ele>
        <time>2013-05-01T10:24:47Z</time>
      </trkpt>
      <trkpt lat="59.9142724" lon="17.6427934">
        <ele>22.7283</ele>
        <time>2013-05-01T10:24:48Z</time>
      </trkpt>
      <trkpt lat="59.914207" lon="17.642801">
        <ele>22.7283</ele>
        <time>2013-05-01T10:24:49Z</time>
      </trkpt>
      <trkpt lat="59.9141418" lon="17.6428147">
        <ele>22.7283</ele>
        <time>2013-05-01T10:24:50Z</time>
      </trkpt>
      <trkpt lat="59.9140776" lon="17.6428294">
        <ele>23.209</ele>
        <time>2013-05-01T10:24:51Z</time>
      </trkpt>
      <trkpt lat="59.9140153" lon="17.6428372">
        <ele>23.209</ele>
        <time>2013-05-01T10:24:52Z</time>
      </trkpt>
      <trkpt lat="59.9139517" lon="17.642844">
        <ele>23.6896</ele>
        <time>2013-05-01T10:24:53Z</time>
      </trkpt>
      <trkpt lat="59.9138874" lon="17.6428538">
        <ele>24.1703</ele>
        <time>2013-05-01T10:24:54Z</time>
      </trkpt>
      <trkpt lat="59.9138232" lon="17.6428656">
        <ele>24.1703</ele>
        <time>2013-05-01T10:24:55Z</time>
      </trkpt>
      <trkpt lat="59.9137593" lon="17.6428794">
        <ele>24.651</ele>
        <time>2013-05-01T10:24:56Z</time>
      </trkpt>
      <trkpt lat="59.9136954" lon="17.6428921">
        <ele>24.651</ele>
        <time>2013-05-01T10:24:57Z</time>
      </trkpt>
      <trkpt lat="59.9136306" lon="17.6429064">
        <ele>25.1317</ele>
        <time>2013-05-01T10:24:58Z</time>
      </trkpt>
      <trkpt lat="59.9135652" lon="17.64292">
        <ele>25.1317</ele>
        <time>2013-05-01T10:24:59Z</time>
      </trkpt>
      <trkpt lat="59.9135014" lon="17.6429307">
        <ele>25.6123</ele>
        <time>2013-05-01T10:25:00Z</time>
      </trkpt>
      <trkpt lat="59.9134371" lon="17.6429455">
        <ele>25.6123</ele>
        <time>2013-05-01T10:25:01Z</time>
      </trkpt>
      <trkpt lat="59.9133717" lon="17.6429629">
        <ele>25.6123</ele>
        <time>2013-05-01T10:25:02Z</time>
      </trkpt>
      <trkpt lat="59.9133058" lon="17.6429801">
        <ele>26.0929</ele>
        <time>2013-05-01T10:25:03Z</time>
      </trkpt>
      <trkpt lat="59.9132388" lon="17.6429945">
        <ele>26.0929</ele>
        <time>2013-05-01T10:25:04Z</time>
      </trkpt>
      <trkpt lat="59.9131738" lon="17.6429987">
        <ele>26.5736</ele>
        <time>2013-05-01T10:25:05Z</time>
      </trkpt>
      <trkpt lat="59.9131073" lon="17.643005">
        <ele>26.5736</ele>
        <time>2013-05-01T10:25:06Z</time>
      </trkpt>
      <trkpt lat="59.9130411" lon="17.6430117">
        <ele>26.5736</ele>
        <time>2013-05-01T10:25:07Z</time>
      </trkpt>
      <trkpt lat="59.9129731" lon="17.6430255">
        <ele>26.0929</ele>
        <time>2013-05-01T10:25:08Z</time>
      </trkpt>
      <trkpt lat="59.9129047" lon="17.6430415">
        <ele>26.0929</ele>
        <time>2013-05-01T10:25:09Z</time>
      </trkpt>
      <trkpt lat="59.9128364" lon="17.6430614">
        <ele>26.5736</ele>
        <time>2013-05-01T10:25:10Z</time>
      </trkpt>
      <trkpt lat="59.9127706" lon="17.6430617">
        <ele>26.5736</ele>
        <time>2013-05-01T10:25:11Z</time>
      </trkpt>
      <trkpt lat="59.9127008" lon="17.643048">
        <ele>26.5736</ele>
        <time>2013-05-01T10:25:12Z</time>
      </trkpt>
      <trkpt lat="59.9126256" lon="17.6430257">
        <ele>25.6123</ele>
        <time>2013-05-01T10:25:13Z</time>
      </trkpt>
      <trkpt lat="59.9125479" lon="17.6430077">
        <ele>25.6123</ele>
        <time>2013-05-01T10:25:14Z</time>
      </trkpt>
      <trkpt lat="59.9124693" lon="17.643005">
        <ele>25.1317</ele>
        <time>2013-05-01T10:25:15Z</time>
      </trkpt>
      <trkpt lat="59.9123903" lon="17.6430193">
        <ele>25.1317</ele>
        <time>2013-05-01T10:25:16Z</time>
      </trkpt>
      <trkpt lat="59.9123139" lon="17.6430334">
        <ele>25.6123</ele>
        <time>2013-05-01T10:25:17Z</time>
      </trkpt>
      <trkpt lat="59.912239" lon="17.643053">
        <ele>25.6123</ele>
        <time>2013-05-01T10:25:18Z</time>
      </trkpt>
      <trkpt lat="59.9121628" lon="17.643077">
        <ele>25.6123</ele>
        <time>2013-05-01T10:25:19Z</time>
      </trkpt>
      <trkpt lat="59.912087" lon="17.6431028">
        <ele>25.6123</ele>
        <time>2013-05-01T10:25:20Z</time>
      </trkpt>
      <trkpt lat="59.9120114" lon="17.6431333">
        <ele>25.6123</ele>
        <time>2013-05-01T10:25:21Z</time>
      </trkpt>
      <trkpt lat="59.9119349" lon="17.6431609">
        <ele>25.6123</ele>
        <time>2013-05-01T10:25:22Z</time>
      </trkpt>
      <trkpt lat="59.9118579" lon="17.6431759">
        <ele>25.6123</ele>
        <time>2013-05-01T10:25:23Z</time>
      </trkpt>
      <trkpt lat="59.9117796" lon="17.6431884">
        <ele>25.1317</ele>
        <time>2013-05-01T10:25:24Z</time>
      </trkpt>
      <trkpt lat="59.9117023" lon="17.6431981">
        <ele>25.1317</ele>
        <time>2013-05-01T10:25:25Z</time>
      </trkpt>
      <trkpt lat="59.9116226" lon="17.6432117">
        <ele>25.6123</ele>
        <time>2013-05-01T10:25:26Z</time>
      </trkpt>
      <trkpt lat="59.9115438" lon="17.6432246">
        <ele>26.0929</ele>
        <time>2013-05-01T10:25:27Z</time>
      </trkpt>
      <trkpt lat="59.9114692" lon="17.6432307">
        <ele>26.0929</ele>
        <time>2013-05-01T10:25:28Z</time>
      </trkpt>
      <trkpt lat="59.9113949" lon="17.6432487">
        <ele>26.0929</ele>
        <time>2013-05-01T10:25:29Z</time>
      </trkpt>
      <trkpt lat="59.9113226" lon="17.6432713">
        <ele>26.0929</ele>
        <time>2013-05-01T10:25:30Z</time>
      </trkpt>
      <trkpt lat="59.9112513" lon="17.6432926">
        <ele>26.0929</ele>
        <time>2013-05-01T10:25:31Z</time>
      </trkpt>
      <trkpt lat="59.9111792" lon="17.6433132">
        <ele>26.5736</ele>
        <time>2013-05-01T10:25:32Z</time>
      </trkpt>
      <trkpt lat="59.9111062" lon="17.6433287">
        <ele>26.0929</ele>
        <time>2013-05-01T10:25:33Z</time>
      </trkpt>
      <trkpt lat="59.9110337" lon="17.64334">
        <ele>26.0929</ele>
        <time>2013-05-01T10:25:34Z</time>
      </trkpt>
      <trkpt lat="59.9109606" lon="17.6433516">
        <ele>26.0929</ele>
        <time>2013-05-01T10:25:35Z</time>
      </trkpt>
      <trkpt lat="59.9108862" lon="17.6433643">
        <ele>25.6123</ele>
        <time>2013-05-01T10:25:36Z</time>
      </trkpt>
      <trkpt lat="59.9108113" lon="17.6433779">
        <ele>25.6123</ele>
        <time>2013-05-01T10:25:37Z</time>
      </trkpt>
      <trkpt lat="59.9107354" lon="17.6433941">
        <ele>25.6123</ele>
        <time>2013-05-01T10:25:38Z</time>
      </trkpt>
      <trkpt lat="59.9106592" lon="17.6434115">
        <ele>25.1317</ele>
        <time>2013-05-01T10:25:39Z</time>
      </trkpt>
      <trkpt lat="59.9105842" lon="17.6434361">
        <ele>25.1317</ele>
        <time>2013-05-01T10:25:40Z</time>
      </trkpt>
      <trkpt lat="59.9105109" lon="17.6434741">
        <ele>25.6123</ele>
        <time>2013-05-01T10:25:41Z</time>
      </trkpt>
      <trkpt lat="59.9104407" lon="17.6435104">
        <ele>25.1317</ele>
        <time>2013-05-01T10:25:42Z</time>
      </trkpt>
      <trkpt lat="59.9103707" lon="17.6435355">
        <ele>25.1317</ele>
        <time>2013-05-01T10:25:43Z</time>
      </trkpt>
      <trkpt lat="59.910299" lon="17.6435541">
        <ele>25.1317</ele>
        <time>2013-05-01T10:25:44Z</time>
      </trkpt>
      <trkpt lat="59.910227" lon="17.6435701">
        <ele>25.1317</ele>
        <time>2013-05-01T10:25:45Z</time>
      </trkpt>
      <trkpt lat="59.9101541" lon="17.643579">
        <ele>25.1317</ele>
        <time>2013-05-01T10:25:46Z</time>
      </trkpt>
      <trkpt lat="59.9100799" lon="17.6435766">
        <ele>25.1317</ele>
        <time>2013-05-01T10:25:47Z</time>
      </trkpt>
      <trkpt lat="59.910003" lon="17.6435582">
        <ele>24.651</ele>
        <time>2013-05-01T10:25:48Z</time>
      </trkpt>
      <trkpt lat="59.9099237" lon="17.6435282">
        <ele>24.651</ele>
        <time>2013-05-01T10:25:49Z</time>
      </trkpt>
      <trkpt lat="59.9098428" lon="17.6435073">
        <ele>24.651</ele>
        <time>2013-05-01T10:25:50Z</time>
      </trkpt>
      <trkpt lat="59.9097605" lon="17.6435057">
        <ele>24.1703</ele>
        <time>2013-05-01T10:25:51Z</time>
      </trkpt>
      <trkpt lat="59.9096776" lon="17.6435183">
        <ele>24.1703</ele>
        <time>2013-05-01T10:25:52Z</time>
      </trkpt>
      <trkpt lat="59.9095954" lon="17.6435357">
        <ele>23.6896</ele>
        <time>2013-05-01T10:25:53Z</time>
      </trkpt>
      <trkpt lat="59.9095142" lon="17.6435524">
        <ele>23.6896</ele>
        <time>2013-05-01T10:25:54Z</time>
      </trkpt>
      <trkpt lat="59.9094319" lon="17.6435701">
        <ele>23.6896</ele>
        <time>2013-05-01T10:25:55Z</time>
      </trkpt>
      <trkpt lat="59.9093497" lon="17.6435862">
        <ele>23.6896</ele>
        <time>2013-05-01T10:25:56Z</time>
      </trkpt>
      <trkpt lat="59.9092674" lon="17.6436021">
        <ele>23.6896</ele>
        <time>2013-05-01T10:25:57Z</time>
      </trkpt>
      <trkpt lat="59.9091855" lon="17.6436142">
        <ele>24.1703</ele>
        <time>2013-05-01T10:25:58Z</time>
      </trkpt>
      <trkpt lat="59.9091047" lon="17.6436224">
        <ele>23.6896</ele>
        <time>2013-05-01T10:25:59Z</time>
      </trkpt>
      <trkpt lat="59.9090245" lon="17.6436281">
        <ele>23.6896</ele>
        <time>2013-05-01T10:26:00Z</time>
      </trkpt>
      <trkpt lat="59.9089441" lon="17.6436363">
        <ele>23.6896</ele>
        <time>2013-05-01T10:26:01Z</time>
      </trkpt>
      <trkpt lat="59.9088633" lon="17.6436464">
        <ele>23.6896</ele>
        <time>2013-05-01T10:26:02Z</time>
      </trkpt>
      <trkpt lat="59.9087834" lon="17.6436559">
        <ele>23.6896</ele>
        <time>2013-05-01T10:26:03Z</time>
      </trkpt>
      <trkpt lat="59.9087048" lon="17.6436622">
        <ele>23.6896</ele>
        <time>2013-05-01T10:26:04Z</time>
      </trkpt>
      <trkpt lat="59.908627" lon="17.6436647">
        <ele>23.6896</ele>
        <time>2013-05-01T10:26:05Z</time>
      </trkpt>
      <trkpt lat="59.9085499" lon="17.6436637">
        <ele>23.6896</ele>
        <time>2013-05-01T10:26:06Z</time>
      </trkpt>
      <trkpt lat="59.9084738" lon="17.6436614">
        <ele>23.6896</ele>
        <time>2013-05-01T10:26:07Z</time>
      </trkpt>
      <trkpt lat="59.9083987" lon="17.643658">
        <ele>23.6896</ele>
        <time>2013-05-01T10:26:08Z</time>
      </trkpt>
      <trkpt lat="59.9083249" lon="17.6436525">
        <ele>23.6896</ele>
        <time>2013-05-01T10:26:09Z</time>
      </trkpt>
      <trkpt lat="59.9082511" lon="17.6436422">
        <ele>23.6896</ele>
        <time>2013-05-01T10:26:10Z</time>
      </trkpt>
      <trkpt lat="59.9081759" lon="17.6436337">
        <ele>23.6896</ele>
        <time>2013-05-01T10:26:11Z</time>
      </trkpt>
      <trkpt lat="59.9080998" lon="17.6436241">
        <ele>23.209</ele>
        <time>2013-05-01T10:26:12Z</time>
      </trkpt>
      <trkpt lat="59.9080229" lon="17.6436127">
        <ele>23.209</ele>
        <time>2013-05-01T10:26:13Z</time>
      </trkpt>
      <trkpt lat="59.9079452" lon="17.6435997">
        <ele>23.209</ele>
        <time>2013-05-01T10:26:14Z</time>
      </trkpt>
      <trkpt lat="59.9078667" lon="17.6435853">
        <ele>23.209</ele>
        <time>2013-05-01T10:26:15Z</time>
      </trkpt>
      <trkpt lat="59.9077874" lon="17.64357">
        <ele>23.209</ele>
        <time>2013-05-01T10:26:16Z</time>
      </trkpt>
      <trkpt lat="59.9077075" lon="17.6435528">
        <ele>22.7283</ele>
        <time>2013-05-01T10:26:17Z</time>
      </trkpt>
      <trkpt lat="59.9076267" lon="17.6435358">
        <ele>22.7283</ele>
        <time>2013-05-01T10:26:18Z</time>
      </trkpt>
      <trkpt lat="59.9075446" lon="17.6435209">
        <ele>22.7283</ele>
        <time>2013-05-01T10:26:19Z</time>
      </trkpt>
      <trkpt lat="59.9074621" lon="17.6435059">
        <ele>22.7283</ele>
        <time>2013-05-01T10:26:20Z</time>
      </trkpt>
      <trkpt lat="59.9073788" lon="17.6434882">
        <ele>22.2476</ele>
        <time>2013-05-01T10:26:21Z</time>
      </trkpt>
      <trkpt lat="59.9072948" lon="17.6434705">
        <ele>22.2476</ele>
        <time>2013-05-01T10:26:22Z</time>
      </trkpt>
      <trkpt lat="59.9072098" lon="17.6434542">
        <ele>22.2476</ele>
        <time>2013-05-01T10:26:23Z</time>
      </trkpt>
      <trkpt lat="59.9071238" lon="17.6434389">
        <ele>22.2476</ele>
        <time>2013-05-01T10:26:24Z</time>
      </trkpt>
      <trkpt lat="59.9070371" lon="17.6434249">
        <ele>22.2476</ele>
        <time>2013-05-01T10:26:25Z</time>
      </trkpt>
      <trkpt lat="59.9069489" lon="17.6434122">
        <ele>22.2476</ele>
        <time>2013-05-01T10:26:26Z</time>
      </trkpt>
      <trkpt lat="59.9068621" lon="17.6433919">
        <ele>21.767</ele>
        <time>2013-05-01T10:26:27Z</time>
      </trkpt>
      <trkpt lat="59.9067756" lon="17.6433686">
        <ele>21.767</ele>
        <time>2013-05-01T10:26:28Z</time>
      </trkpt>
      <trkpt lat="59.9066888" lon="17.6433457">
        <ele>21.767</ele>
        <time>2013-05-01T10:26:29Z</time>
      </trkpt>
      <trkpt lat="59.9066022" lon="17.6433229">
        <ele>21.767</ele>
        <time>2013-05-01T10:26:30Z</time>
      </trkpt>
      <trkpt lat="59.9065156" lon="17.6432976">
        <ele>21.767</ele>
        <time>2013-05-01T10:26:31Z</time>
      </trkpt>
      <trkpt lat="59.9064292" lon="17.6432681">
        <ele>21.2864</ele>
        <time>2013-05-01T10:26:32Z</time>
      </trkpt>
      <trkpt lat="59.9063423" lon="17.6432344">
        <ele>21.2864</ele>
        <time>2013-05-01T10:26:33Z</time>
      </trkpt>
      <trkpt lat="59.9062552" lon="17.6431972">
        <ele>20.8057</ele>
        <time>2013-05-01T10:26:34Z</time>
      </trkpt>
      <trkpt lat="59.9061679" lon="17.6431579">
        <ele>20.325</ele>
        <time>2013-05-01T10:26:35Z</time>
      </trkpt>
      <trkpt lat="59.90608" lon="17.6431173">
        <ele>20.325</ele>
        <time>2013-05-01T10:26:36Z</time>
      </trkpt>
      <trkpt lat="59.905992" lon="17.6430739">
        <ele>19.8444</ele>
        <time>2013-05-01T10:26:37Z</time>
      </trkpt>
      <trkpt lat="59.905904" lon="17.6430298">
        <ele>19.8444</ele>
        <time>2013-05-01T10:26:38Z</time>
      </trkpt>
      <trkpt lat="59.9058164" lon="17.6429856">
        <ele>19.3638</ele>
        <time>2013-05-01T10:26:39Z</time>
      </trkpt>
      <trkpt lat="59.9057283" lon="17.6429464">
        <ele>19.3638</ele>
        <time>2013-05-01T10:26:40Z</time>
      </trkpt>
      <trkpt lat="59.9056398" lon="17.6429137">
        <ele>19.3638</ele>
        <time>2013-05-01T10:26:41Z</time>
      </trkpt>
      <trkpt lat="59.9055521" lon="17.6428874">
        <ele>18.8831</ele>
        <time>2013-05-01T10:26:42Z</time>
      </trkpt>
      <trkpt lat="59.9054652" lon="17.6428739">
        <ele>18.8831</ele>
        <time>2013-05-01T10:26:43Z</time>
      </trkpt>
      <trkpt lat="59.9053787" lon="17.642861">
        <ele>18.8831</ele>
        <time>2013-05-01T10:26:44Z</time>
      </trkpt>
      <trkpt lat="59.9052937" lon="17.642834">
        <ele>19.3638</ele>
        <time>2013-05-01T10:26:45Z</time>
      </trkpt>
      <trkpt lat="59.9052093" lon="17.6427961">
        <ele>19.3638</ele>
        <time>2013-05-01T10:26:46Z</time>
      </trkpt>
      <trkpt lat="59.9051163" lon="17.6427453">
        <ele>19.3638</ele>
        <time>2013-05-01T10:26:47Z</time>
      </trkpt>
      <trkpt lat="59.9050279" lon="17.6427066">
        <ele>19.8444</ele>
        <time>2013-05-01T10:26:48Z</time>
      </trkpt>
      <trkpt lat="59.9049409" lon="17.6426437">
        <ele>19.8444</ele>
        <time>2013-05-01T10:26:49Z</time>
      </trkpt>
      <trkpt lat="59.9048539" lon="17.6426044">
        <ele>19.8444</ele>
        <time>2013-05-01T10:26:50Z</time>
      </trkpt>
      <trkpt lat="59.9047683" lon="17.6425634">
        <ele>19.3638</ele>
        <time>2013-05-01T10:26:51Z</time>
      </trkpt>
      <trkpt lat="59.9046809" lon="17.6425061">
        <ele>19.3638</ele>
        <time>2013-05-01T10:26:52Z</time>
      </trkpt>
      <trkpt lat="59.9045991" lon="17.6424486">
        <ele>19.3638</ele>
        <time>2013-05-01T10:26:53Z</time>
      </trkpt>
      <trkpt lat="59.9045182" lon="17.6423932">
        <ele>19.3638</ele>
        <time>2013-05-01T10:26:54Z</time>
      </trkpt>
      <trkpt lat="59.9044369" lon="17.6423439">
        <ele>19.8444</ele>
        <time>2013-05-01T10:26:55Z</time>
      </trkpt>
      <trkpt lat="59.9043555" lon="17.6422969">
        <ele>19.8444</ele>
        <time>2013-05-01T10:26:56Z</time>
      </trkpt>
      <trkpt lat="59.9042753" lon="17.6422496">
        <ele>20.325</ele>
        <time>2013-05-01T10:26:57Z</time>
      </trkpt>
      <trkpt lat="59.9041965" lon="17.6422021">
        <ele>20.325</ele>
        <time>2013-05-01T10:26:58Z</time>
      </trkpt>
      <trkpt lat="59.9041189" lon="17.6421552">
        <ele>20.8057</ele>
        <time>2013-05-01T10:26:59Z</time>
      </trkpt>
      <trkpt lat="59.9040423" lon="17.6421098">
        <ele>20.8057</ele>
        <time>2013-05-01T10:27:00Z</time>
      </trkpt>
      <trkpt lat="59.9039659" lon="17.6420679">
        <ele>21.2864</ele>
        <time>2013-05-01T10:27:01Z</time>
      </trkpt>
      <trkpt lat="59.9038894" lon="17.642031">
        <ele>21.2864</ele>
        <time>2013-05-01T10:27:02Z</time>
      </trkpt>
      <trkpt lat="59.9038144" lon="17.6419943">
        <ele>21.767</ele>
        <time>2013-05-01T10:27:03Z</time>
      </trkpt>
      <trkpt lat="59.9037423" lon="17.6419615">
        <ele>21.767</ele>
        <time>2013-05-01T10:27:04Z</time>
      </trkpt>
      <trkpt lat="59.9036738" lon="17.641934">
        <ele>21.767</ele>
        <time>2013-05-01T10:27:05Z</time>
      </trkpt>
      <trkpt lat="59.903609" lon="17.6419252">
        <ele>21.767</ele>
        <time>2013-05-01T10:27:06Z</time>
      </trkpt>
      <trkpt lat="59.9035496" lon="17.6419285">
        <ele>22.2476</ele>
        <time>2013-05-01T10:27:07Z</time>
      </trkpt>
      <trkpt lat="59.9034903" lon="17.641915">
        <ele>21.767</ele>
        <time>2013-05-01T10:27:08Z</time>
      </trkpt>
      <trkpt lat="59.9034279" lon="17.6418772">
        <ele>21.767</ele>
        <time>2013-05-01T10:27:09Z</time>
      </trkpt>
      <trkpt lat="59.9033642" lon="17.6418364">
        <ele>21.2864</ele>
        <time>2013-05-01T10:27:10Z</time>
      </trkpt>
      <trkpt lat="59.9032995" lon="17.6418019">
        <ele>21.2864</ele>
        <time>2013-05-01T10:27:11Z</time>
      </trkpt>
      <trkpt lat="59.9032352" lon="17.64177">
        <ele>21.2864</ele>
        <time>2013-05-01T10:27:12Z</time>
      </trkpt>
      <trkpt lat="59.9031725" lon="17.6417364">
        <ele>21.2864</ele>
        <time>2013-05-01T10:27:13Z</time>
      </trkpt>
      <trkpt lat="59.9031106" lon="17.6417111">
        <ele>21.2864</ele>
        <time>2013-05-01T10:27:14Z</time>
      </trkpt>
      <trkpt lat="59.903058" lon="17.641684">
        <ele>21.2864</ele>
        <time>2013-05-01T10:27:15Z</time>
      </trkpt>
      <trkpt lat="59.9030144" lon="17.6416645">
        <ele>21.2864</ele>
        <time>2013-05-01T10:27:16Z</time>
      </trkpt>
      <trkpt lat="59.9029813" lon="17.6416549">
        <ele>21.2864</ele>
        <time>2013-05-01T10:27:17Z</time>
      </trkpt>
      <trkpt lat="59.9029481" lon="17.6416471">
        <ele>21.2864</ele>
        <time>2013-05-01T10:27:18Z</time>
      </trkpt>
      <trkpt lat="59.9029212" lon="17.6416514">
        <ele>21.2864</ele>
        <time>2013-05-01T10:27:19Z</time>
      </trkpt>
      <trkpt lat="59.902893" lon="17.6416587">
        <ele>20.8057</ele>
        <time>2013-05-01T10:27:20Z</time>
      </trkpt>
      <trkpt lat="59.9028633" lon="17.641652">
        <ele>20.8057</ele>
        <time>2013-05-01T10:27:21Z</time>
      </trkpt>
      <trkpt lat="59.9028352" lon="17.6416267">
        <ele>20.8057</ele>
        <time>2013-05-01T10:27:22Z</time>
      </trkpt>
      <trkpt lat="59.9028124" lon="17.6415859">
        <ele>20.8057</ele>
        <time>2013-05-01T10:27:23Z</time>
      </trkpt>
      <trkpt lat="59.9027885" lon="17.6415493">
        <ele>20.8057</ele>
        <time>2013-05-01T10:27:24Z</time>
      </trkpt>
      <trkpt lat="59.9027613" lon="17.6415208">
        <ele>20.8057</ele>
        <time>2013-05-01T10:27:25Z</time>
      </trkpt>
      <trkpt lat="59.9027253" lon="17.6414996">
        <ele>20.8057</ele>
        <time>2013-05-01T10:27:26Z</time>
      </trkpt>
      <trkpt lat="59.9026819" lon="17.6414911">
        <ele>20.8057</ele>
        <time>2013-05-01T10:27:27Z</time>
      </trkpt>
      <trkpt lat="59.9026363" lon="17.6414711">
        <ele>20.8057</ele>
        <time>2013-05-01T10:27:28Z</time>
      </trkpt>
      <trkpt lat="59.9025891" lon="17.6414401">
        <ele>20.8057</ele>
        <time>2013-05-01T10:27:29Z</time>
      </trkpt>
      <trkpt lat="59.9025404" lon="17.6414036">
        <ele>20.8057</ele>
        <time>2013-05-01T10:27:30Z</time>
      </trkpt>
      <trkpt lat="59.9024895" lon="17.641364">
        <ele>20.8057</ele>
        <time>2013-05-01T10:27:31Z</time>
      </trkpt>
      <trkpt lat="59.9024357" lon="17.6413254">
        <ele>20.8057</ele>
        <time>2013-05-01T10:27:32Z</time>
      </trkpt>
      <trkpt lat="59.902379" lon="17.6412878">
        <ele>21.2864</ele>
        <time>2013-05-01T10:27:33Z</time>
      </trkpt>
      <trkpt lat="59.9023208" lon="17.6412497">
        <ele>21.2864</ele>
        <time>2013-05-01T10:27:34Z</time>
      </trkpt>
      <trkpt lat="59.9022602" lon="17.6412156">
        <ele>21.2864</ele>
        <time>2013-05-01T10:27:35Z</time>
      </trkpt>
      <trkpt lat="59.9021994" lon="17.6411798">
        <ele>21.767</ele>
        <time>2013-05-01T10:27:36Z</time>
      </trkpt>
      <trkpt lat="59.9021385" lon="17.6411389">
        <ele>21.767</ele>
        <time>2013-05-01T10:27:37Z</time>
      </trkpt>
      <trkpt lat="59.9020774" lon="17.6410934">
        <ele>21.767</ele>
        <time>2013-05-01T10:27:38Z</time>
      </trkpt>
      <trkpt lat="59.902015" lon="17.6410444">
        <ele>21.767</ele>
        <time>2013-05-01T10:27:39Z</time>
      </trkpt>
      <trkpt lat="59.901951" lon="17.6409934">
        <ele>22.2476</ele>
        <time>2013-05-01T10:27:40Z</time>
      </trkpt>
      <trkpt lat="59.9018863" lon="17.640937">
        <ele>22.2476</ele>
        <time>2013-05-01T10:27:41Z</time>
      </trkpt>
      <trkpt lat="59.9018215" lon="17.6408726">
        <ele>22.2476</ele>
        <time>2013-05-01T10:27:42Z</time>
      </trkpt>
      <trkpt lat="59.9017567" lon="17.6408049">
        <ele>22.7283</ele>
        <time>2013-05-01T10:27:43Z</time>
      </trkpt>
      <trkpt lat="59.9016924" lon="17.6407376">
        <ele>22.7283</ele>
        <time>2013-05-01T10:27:44Z</time>
      </trkpt>
      <trkpt lat="59.901627" lon="17.6406734">
        <ele>22.2476</ele>
        <time>2013-05-01T10:27:45Z</time>
      </trkpt>
      <trkpt lat="59.9015599" lon="17.6406107">
        <ele>22.2476</ele>
        <time>2013-05-01T10:27:46Z</time>
      </trkpt>
      <trkpt lat="59.9014937" lon="17.6405469">
        <ele>22.7283</ele>
        <time>2013-05-01T10:27:47Z</time>
      </trkpt>
      <trkpt lat="59.9014281" lon="17.6404824">
        <ele>22.7283</ele>
        <time>2013-05-01T10:27:48Z</time>
      </trkpt>
      <trkpt lat="59.9013626" lon="17.6404171">
        <ele>23.209</ele>
        <time>2013-05-01T10:27:49Z</time>
      </trkpt>
      <trkpt lat="59.9012967" lon="17.6403516">
        <ele>23.209</ele>
        <time>2013-05-01T10:27:50Z</time>
      </trkpt>
      <trkpt lat="59.9012304" lon="17.6402847">
        <ele>23.6896</ele>
        <time>2013-05-01T10:27:51Z</time>
      </trkpt>
      <trkpt lat="59.9011637" lon="17.6402156">
        <ele>23.6896</ele>
        <time>2013-05-01T10:27:52Z</time>
      </trkpt>
      <trkpt lat="59.9010963" lon="17.6401476">
        <ele>23.6896</ele>
        <time>2013-05-01T10:27:53Z</time>
      </trkpt>
      <trkpt lat="59.9010287" lon="17.6400825">
        <ele>23.6896</ele>
        <time>2013-05-01T10:27:54Z</time>
      </trkpt>
      <trkpt lat="59.9009614" lon="17.6400166">
        <ele>23.6896</ele>
        <time>2013-05-01T10:27:55Z</time>
      </trkpt>
      <trkpt lat="59.9008944" lon="17.639946">
        <ele>23.6896</ele>
        <time>2013-05-01T10:27:56Z</time>
      </trkpt>
      <trkpt lat="59.9008278" lon="17.6398724">
        <ele>24.1703</ele>
        <time>2013-05-01T10:27:57Z</time>
      </trkpt>
      <trkpt lat="59.9007605" lon="17.6397988">
        <ele>24.1703</ele>
        <time>2013-05-01T10:27:58Z</time>
      </trkpt>
      <trkpt lat="59.9006921" lon="17.6397271">
        <ele>24.651</ele>
        <time>2013-05-01T10:27:59Z</time>
      </trkpt>
      <trkpt lat="59.9006233" lon="17.6396564">
        <ele>24.651</ele>
        <time>2013-05-01T10:28:00Z</time>
      </trkpt>
      <trkpt lat="59.9005539" lon="17.6395852">
        <ele>25.1317</ele>
        <time>2013-05-01T10:28:01Z</time>
      </trkpt>
      <trkpt lat="59.9004859" lon="17.6395137">
        <ele>25.1317</ele>
        <time>2013-05-01T10:28:02Z</time>
      </trkpt>
      <trkpt lat="59.9004178" lon="17.639444">
        <ele>25.6123</ele>
        <time>2013-05-01T10:28:03Z</time>
      </trkpt>
      <trkpt lat="59.9003497" lon="17.6393764">
        <ele>25.6123</ele>
        <time>2013-05-01T10:28:04Z</time>
      </trkpt>
      <trkpt lat="59.9002818" lon="17.6393105">
        <ele>26.0929</ele>
        <time>2013-05-01T10:28:05Z</time>
      </trkpt>
      <trkpt lat="59.9002152" lon="17.639244">
        <ele>26.0929</ele>
        <time>2013-05-01T10:28:06Z</time>
      </trkpt>
      <trkpt lat="59.9001504" lon="17.6391758">
        <ele>26.0929</ele>
        <time>2013-05-01T10:28:07Z</time>
      </trkpt>
      <trkpt lat="59.9000849" lon="17.6391116">
        <ele>26.0929</ele>
        <time>2013-05-01T10:28:08Z</time>
      </trkpt>
      <trkpt lat="59.9000193" lon="17.6390496">
        <ele>26.5736</ele>
        <time>2013-05-01T10:28:09Z</time>
      </trkpt>
      <trkpt lat="59.899954" lon="17.6389871">
        <ele>26.5736</ele>
        <time>2013-05-01T10:28:10Z</time>
      </trkpt>
      <trkpt lat="59.8998899" lon="17.6389215">
        <ele>26.5736</ele>
        <time>2013-05-01T10:28:11Z</time>
      </trkpt>
      <trkpt lat="59.8998259" lon="17.6388547">
        <ele>26.5736</ele>
        <time>2013-05-01T10:28:12Z</time>
      </trkpt>
      <trkpt lat="59.8997615" lon="17.6387882">
        <ele>27.0543</ele>
        <time>2013-05-01T10:28:13Z</time>
      </trkpt>
      <trkpt lat="59.8996971" lon="17.6387227">
        <ele>27.0543</ele>
        <time>2013-05-01T10:28:14Z</time>
      </trkpt>
      <trkpt lat="59.8996329" lon="17.6386583">
        <ele>27.5349</ele>
        <time>2013-05-01T10:28:15Z</time>
      </trkpt>
      <trkpt lat="59.8995701" lon="17.6385935">
        <ele>27.5349</ele>
        <time>2013-05-01T10:28:16Z</time>
      </trkpt>
      <trkpt lat="59.8995074" lon="17.6385299">
        <ele>28.0155</ele>
        <time>2013-05-01T10:28:17Z</time>
      </trkpt>
      <trkpt lat="59.8994463" lon="17.6384678">
        <ele>28.0155</ele>
        <time>2013-05-01T10:28:18Z</time>
      </trkpt>
      <trkpt lat="59.8993864" lon="17.6384119">
        <ele>28.0155</ele>
        <time>2013-05-01T10:28:19Z</time>
      </trkpt>
      <trkpt lat="59.8993283" lon="17.6383587">
        <ele>28.0155</ele>
        <time>2013-05-01T10:28:20Z</time>
      </trkpt>
      <trkpt lat="59.8992724" lon="17.638304">
        <ele>28.0155</ele>
        <time>2013-05-01T10:28:21Z</time>
      </trkpt>
      <trkpt lat="59.8992165" lon="17.6382521">
        <ele>28.0155</ele>
        <time>2013-05-01T10:28:22Z</time>
      </trkpt>
      <trkpt lat="59.8991603" lon="17.6382057">
        <ele>28.0155</ele>
        <time>2013-05-01T10:28:23Z</time>
      </trkpt>
      <trkpt lat="59.899105" lon="17.6381624">
        <ele>28.0155</ele>
        <time>2013-05-01T10:28:24Z</time>
      </trkpt>
      <trkpt lat="59.8990522" lon="17.6381168">
        <ele>28.0155</ele>
        <time>2013-05-01T10:28:25Z</time>
      </trkpt>
      <trkpt lat="59.8990023" lon="17.6380686">
        <ele>28.0155</ele>
        <time>2013-05-01T10:28:26Z</time>
      </trkpt>
      <trkpt lat="59.8989549" lon="17.6380217">
        <ele>28.0155</ele>
        <time>2013-05-01T10:28:27Z</time>
      </trkpt>
      <trkpt lat="59.8989104" lon="17.6379759">
        <ele>28.0155</ele>
        <time>2013-05-01T10:28:28Z</time>
      </trkpt>
      <trkpt lat="59.8988677" lon="17.6379321">
        <ele>28.4962</ele>
        <time>2013-05-01T10:28:29Z</time>
      </trkpt>
      <trkpt lat="59.8988288" lon="17.6379004">
        <ele>28.0155</ele>
        <time>2013-05-01T10:28:30Z</time>
      </trkpt>
      <trkpt lat="59.8987932" lon="17.6378875">
        <ele>28.0155</ele>
        <time>2013-05-01T10:28:31Z</time>
      </trkpt>
      <trkpt lat="59.8987626" lon="17.6378953">
        <ele>28.4962</ele>
        <time>2013-05-01T10:28:32Z</time>
      </trkpt>
      <trkpt lat="59.8987377" lon="17.6379156">
        <ele>28.9769</ele>
        <time>2013-05-01T10:28:33Z</time>
      </trkpt>
      <trkpt lat="59.8987222" lon="17.6379433">
        <ele>29.4575</ele>
        <time>2013-05-01T10:28:34Z</time>
      </trkpt>
      <trkpt lat="59.8987086" lon="17.6379764">
        <ele>29.9381</ele>
        <time>2013-05-01T10:28:35Z</time>
      </trkpt>
      <trkpt lat="59.8986861" lon="17.6380081">
        <ele>29.9381</ele>
        <time>2013-05-01T10:28:36Z</time>
      </trkpt>
      <trkpt lat="59.898655" lon="17.6380388">
        <ele>29.4575</ele>
        <time>2013-05-01T10:28:37Z</time>
      </trkpt>
      <trkpt lat="59.8986174" lon="17.6380672">
        <ele>28.9769</ele>
        <time>2013-05-01T10:28:38Z</time>
      </trkpt>
      <trkpt lat="59.8985781" lon="17.6380953">
        <ele>28.9769</ele>
        <time>2013-05-01T10:28:39Z</time>
      </trkpt>
      <trkpt lat="59.898539" lon="17.6381173">
        <ele>28.9769</ele>
        <time>2013-05-01T10:28:40Z</time>
      </trkpt>
      <trkpt lat="59.8984978" lon="17.6381175">
        <ele>28.9769</ele>
        <time>2013-05-01T10:28:41Z</time>
      </trkpt>
      <trkpt lat="59.8984552" lon="17.6380906">
        <ele>28.0155</ele>
        <time>2013-05-01T10:28:42Z</time>
      </trkpt>
      <trkpt lat="59.8984128" lon="17.6380495">
        <ele>28.0155</ele>
        <time>2013-05-01T10:28:43Z</time>
      </trkpt>
      <trkpt lat="59.8983675" lon="17.6380073">
        <ele>28.4962</ele>
        <time>2013-05-01T10:28:44Z</time>
      </trkpt>
      <trkpt lat="59.8983193" lon="17.6379656">
        <ele>28.4962</ele>
        <time>2013-05-01T10:28:45Z</time>
      </trkpt>
      <trkpt lat="59.898269" lon="17.6379232">
        <ele>28.4962</ele>
        <time>2013-05-01T10:28:46Z</time>
      </trkpt>
      <trkpt lat="59.8982165" lon="17.6378798">
        <ele>28.9769</ele>
        <time>2013-05-01T10:28:47Z</time>
      </trkpt>
      <trkpt lat="59.8981623" lon="17.6378343">
        <ele>28.9769</ele>
        <time>2013-05-01T10:28:48Z</time>
      </trkpt>
      <trkpt lat="59.8981069" lon="17.6377841">
        <ele>29.4575</ele>
        <time>2013-05-01T10:28:49Z</time>
      </trkpt>
      <trkpt lat="59.8980499" lon="17.6377286">
        <ele>29.4575</ele>
        <time>2013-05-01T10:28:50Z</time>
      </trkpt>
      <trkpt lat="59.8979928" lon="17.6376616">
        <ele>29.4575</ele>
        <time>2013-05-01T10:28:51Z</time>
      </trkpt>
      <trkpt lat="59.897939" lon="17.6375799">
        <ele>29.4575</ele>
        <time>2013-05-01T10:28:52Z</time>
      </trkpt>
      <trkpt lat="59.8978893" lon="17.6374861">
        <ele>29.4575</ele>
        <time>2013-05-01T10:28:53Z</time>
      </trkpt>
      <trkpt lat="59.8978406" lon="17.6373838">
        <ele>29.4575</ele>
        <time>2013-05-01T10:28:54Z</time>
      </trkpt>
      <trkpt lat="59.8977883" lon="17.6372867">
        <ele>29.9381</ele>
        <time>2013-05-01T10:28:55Z</time>
      </trkpt>
      <trkpt lat="59.8977307" lon="17.6372056">
        <ele>29.9381</ele>
        <time>2013-05-01T10:28:56Z</time>
      </trkpt>
      <trkpt lat="59.8976673" lon="17.6371415">
        <ele>29.9381</ele>
        <time>2013-05-01T10:28:57Z</time>
      </trkpt>
      <trkpt lat="59.8975993" lon="17.6370891">
        <ele>29.9381</ele>
        <time>2013-05-01T10:28:58Z</time>
      </trkpt>
      <trkpt lat="59.8975291" lon="17.6370441">
        <ele>29.9381</ele>
        <time>2013-05-01T10:28:59Z</time>
      </trkpt>
      <trkpt lat="59.8974583" lon="17.6369997">
        <ele>30.4188</ele>
        <time>2013-05-01T10:29:00Z</time>
      </trkpt>
      <trkpt lat="59.8973878" lon="17.6369576">
        <ele>30.8995</ele>
        <time>2013-05-01T10:29:01Z</time>
      </trkpt>
      <trkpt lat="59.8973183" lon="17.6369173">
        <ele>30.8995</ele>
        <time>2013-05-01T10:29:02Z</time>
      </trkpt>
      <trkpt lat="59.89725" lon="17.63688">
        <ele>31.3801</ele>
        <time>2013-05-01T10:29:03Z</time>
      </trkpt>
      <trkpt lat="59.8971831" lon="17.636847">
        <ele>31.8607</ele>
        <time>2013-05-01T10:29:04Z</time>
      </trkpt>
      <trkpt lat="59.8971173" lon="17.6368189">
        <ele>32.3416</ele>
        <time>2013-05-01T10:29:05Z</time>
      </trkpt>
      <trkpt lat="59.8970542" lon="17.6367956">
        <ele>32.8223</ele>
        <time>2013-05-01T10:29:06Z</time>
      </trkpt>
      <trkpt lat="59.8969947" lon="17.6367702">
        <ele>33.3029</ele>
        <time>2013-05-01T10:29:07Z</time>
      </trkpt>
      <trkpt lat="59.8969408" lon="17.6367453">
        <ele>33.7834</ele>
        <time>2013-05-01T10:29:08Z</time>
      </trkpt>
      <trkpt lat="59.8968995" lon="17.636725">
        <ele>33.7834</ele>
        <time>2013-05-01T10:29:09Z</time>
      </trkpt>
      <trkpt lat="59.8968724" lon="17.6367091">
        <ele>34.2642</ele>
        <time>2013-05-01T10:29:10Z</time>
      </trkpt>
      <trkpt lat="59.8968494" lon="17.6366965">
        <ele>34.2642</ele>
        <time>2013-05-01T10:29:11Z</time>
      </trkpt>
      <trkpt lat="59.8968277" lon="17.6366893">
        <ele>34.2642</ele>
        <time>2013-05-01T10:29:12Z</time>
      </trkpt>
      <trkpt lat="59.8968114" lon="17.6366835">
        <ele>34.7449</ele>
        <time>2013-05-01T10:29:13Z</time>
      </trkpt>
      <trkpt lat="59.8968004" lon="17.6366768">
        <ele>34.7449</ele>
        <time>2013-05-01T10:29:14Z</time>
      </trkpt>
      <trkpt lat="59.8967909" lon="17.6366718">
        <ele>35.2255</ele>
        <time>2013-05-01T10:29:15Z</time>
      </trkpt>
      <trkpt lat="59.8967821" lon="17.6366643">
        <ele>35.2255</ele>
        <time>2013-05-01T10:29:16Z</time>
      </trkpt>
      <trkpt lat="59.8967754" lon="17.6366576">
        <ele>35.2255</ele>
        <time>2013-05-01T10:29:17Z</time>
      </trkpt>
      <trkpt lat="59.8967718" lon="17.6366557">
        <ele>35.2255</ele>
        <time>2013-05-01T10:29:18Z</time>
      </trkpt>
      <trkpt lat="59.8967652" lon="17.6366547">
        <ele>35.2255</ele>
        <time>2013-05-01T10:29:19Z</time>
      </trkpt>
      <trkpt lat="59.8967553" lon="17.6366474">
        <ele>35.2255</ele>
        <time>2013-05-01T10:29:20Z</time>
      </trkpt>
      <trkpt lat="59.8967375" lon="17.6366387">
        <ele>35.7061</ele>
        <time>2013-05-01T10:29:21Z</time>
      </trkpt>
      <trkpt lat="59.8967101" lon="17.6366327">
        <ele>35.7061</ele>
        <time>2013-05-01T10:29:22Z</time>
      </trkpt>
      <trkpt lat="59.8966749" lon="17.6366208">
        <ele>35.7061</ele>
        <time>2013-05-01T10:29:23Z</time>
      </trkpt>
      <trkpt lat="59.8966329" lon="17.6366048">
        <ele>35.7061</ele>
        <time>2013-05-01T10:29:24Z</time>
      </trkpt>
      <trkpt lat="59.8965869" lon="17.6365879">
        <ele>36.1868</ele>
        <time>2013-05-01T10:29:25Z</time>
      </trkpt>
      <trkpt lat="59.8965361" lon="17.6365673">
        <ele>35.7061</ele>
        <time>2013-05-01T10:29:26Z</time>
      </trkpt>
      <trkpt lat="59.8964809" lon="17.6365423">
        <ele>35.7061</ele>
        <time>2013-05-01T10:29:27Z</time>
      </trkpt>
      <trkpt lat="59.8964218" lon="17.6365174">
        <ele>35.7061</ele>
        <time>2013-05-01T10:29:28Z</time>
      </trkpt>
      <trkpt lat="59.8963591" lon="17.6364924">
        <ele>35.7061</ele>
        <time>2013-05-01T10:29:29Z</time>
      </trkpt>
      <trkpt lat="59.8962948" lon="17.636461">
        <ele>35.7061</ele>
        <time>2013-05-01T10:29:30Z</time>
      </trkpt>
      <trkpt lat="59.8962283" lon="17.6364288">
        <ele>35.7061</ele>
        <time>2013-05-01T10:29:31Z</time>
      </trkpt>
      <trkpt lat="59.8961589" lon="17.6363997">
        <ele>35.7061</ele>
        <time>2013-05-01T10:29:32Z</time>
      </trkpt>
      <trkpt lat="59.8960879" lon="17.6363698">
        <ele>35.7061</ele>
        <time>2013-05-01T10:29:33Z</time>
      </trkpt>
      <trkpt lat="59.8960156" lon="17.6363466">
        <ele>35.7061</ele>
        <time>2013-05-01T10:29:34Z</time>
      </trkpt>
      <trkpt lat="59.8959409" lon="17.6363386">
        <ele>35.7061</ele>
        <time>2013-05-01T10:29:35Z</time>
      </trkpt>
      <trkpt lat="59.8958626" lon="17.6363448">
        <ele>35.7061</ele>
        <time>2013-05-01T10:29:36Z</time>
      </trkpt>
      <trkpt lat="59.8957861" lon="17.6363532">
        <ele>35.7061</ele>
        <time>2013-05-01T10:29:37Z</time>
      </trkpt>
      <trkpt lat="59.8957074" lon="17.6363749">
        <ele>35.2255</ele>
        <time>2013-05-01T10:29:38Z</time>
      </trkpt>
      <trkpt lat="59.8956305" lon="17.6363999">
        <ele>35.2255</ele>
        <time>2013-05-01T10:29:39Z</time>
      </trkpt>
      <trkpt lat="59.8955532" lon="17.636432">
        <ele>35.2255</ele>
        <time>2013-05-01T10:29:40Z</time>
      </trkpt>
      <trkpt lat="59.8954727" lon="17.6364787">
        <ele>35.2255</ele>
        <time>2013-05-01T10:29:41Z</time>
      </trkpt>
      <trkpt lat="59.8953941" lon="17.6365289">
        <ele>35.2255</ele>
        <time>2013-05-01T10:29:42Z</time>
      </trkpt>
      <trkpt lat="59.8953178" lon="17.6365804">
        <ele>34.7449</ele>
        <time>2013-05-01T10:29:43Z</time>
      </trkpt>
      <trkpt lat="59.8952415" lon="17.636636">
        <ele>34.7449</ele>
        <time>2013-05-01T10:29:44Z</time>
      </trkpt>
      <trkpt lat="59.8951662" lon="17.6366882">
        <ele>34.7449</ele>
        <time>2013-05-01T10:29:45Z</time>
      </trkpt>
      <trkpt lat="59.8950904" lon="17.6367344">
        <ele>34.7449</ele>
        <time>2013-05-01T10:29:46Z</time>
      </trkpt>
      <trkpt lat="59.8950125" lon="17.6367802">
        <ele>34.7449</ele>
        <time>2013-05-01T10:29:47Z</time>
      </trkpt>
      <trkpt lat="59.8949348" lon="17.6368277">
        <ele>34.2642</ele>
        <time>2013-05-01T10:29:48Z</time>
      </trkpt>
      <trkpt lat="59.8948567" lon="17.6368783">
        <ele>33.7834</ele>
        <time>2013-05-01T10:29:49Z</time>
      </trkpt>
      <trkpt lat="59.894778" lon="17.6369293">
        <ele>33.7834</ele>
        <time>2013-05-01T10:29:50Z</time>
      </trkpt>
      <trkpt lat="59.8946983" lon="17.63698">
        <ele>33.7834</ele>
        <time>2013-05-01T10:29:51Z</time>
      </trkpt>
      <trkpt lat="59.8946199" lon="17.6370296">
        <ele>33.7834</ele>
        <time>2013-05-01T10:29:52Z</time>
      </trkpt>
      <trkpt lat="59.8945409" lon="17.637083">
        <ele>33.3029</ele>
        <time>2013-05-01T10:29:53Z</time>
      </trkpt>
      <trkpt lat="59.8944601" lon="17.6371367">
        <ele>32.3416</ele>
        <time>2013-05-01T10:29:54Z</time>
      </trkpt>
      <trkpt lat="59.8943808" lon="17.6371877">
        <ele>31.3801</ele>
        <time>2013-05-01T10:29:55Z</time>
      </trkpt>
      <trkpt lat="59.894302" lon="17.6372353">
        <ele>30.8995</ele>
        <time>2013-05-01T10:29:56Z</time>
      </trkpt>
      <trkpt lat="59.8942218" lon="17.6372851">
        <ele>29.9381</ele>
        <time>2013-05-01T10:29:57Z</time>
      </trkpt>
      <trkpt lat="59.8941423" lon="17.6373405">
        <ele>29.4575</ele>
        <time>2013-05-01T10:29:58Z</time>
      </trkpt>
      <trkpt lat="59.8940643" lon="17.6374005">
        <ele>28.9769</ele>
        <time>2013-05-01T10:29:59Z</time>
      </trkpt>
      <trkpt lat="59.8939866" lon="17.6374601">
        <ele>28.4962</ele>
        <time>2013-05-01T10:30:00Z</time>
      </trkpt>
      <trkpt lat="59.8939076" lon="17.6375181">
        <ele>28.0155</ele>
        <time>2013-05-01T10:30:01Z</time>
      </trkpt>
      <trkpt lat="59.8938275" lon="17.6375773">
        <ele>27.5349</ele>
        <time>2013-05-01T10:30:02Z</time>
      </trkpt>
      <trkpt lat="59.8937479" lon="17.6376408">
        <ele>27.0543</ele>
        <time>2013-05-01T10:30:03Z</time>
      </trkpt>
      <trkpt lat="59.8936665" lon="17.6377091">
        <ele>26.5736</ele>
        <time>2013-05-01T10:30:04Z</time>
      </trkpt>
      <trkpt lat="59.8935883" lon="17.6377688">
        <ele>25.6123</ele>
        <time>2013-05-01T10:30:05Z</time>
      </trkpt>
      <trkpt lat="59.8935098" lon="17.6378315">
        <ele>25.6123</ele>
        <time>2013-05-01T10:30:06Z</time>
      </trkpt>
      <trkpt lat="59.8934319" lon="17.63789">
        <ele>25.1317</ele>
        <time>2013-05-01T10:30:07Z</time>
      </trkpt>
      <trkpt lat="59.8933544" lon="17.6379414">
        <ele>24.651</ele>
        <time>2013-05-01T10:30:08Z</time>
      </trkpt>
      <trkpt lat="59.8932769" lon="17.6379895">
        <ele>24.651</ele>
        <time>2013-05-01T10:30:09Z</time>
      </trkpt>
      <trkpt lat="59.8931993" lon="17.6380282">
        <ele>24.1703</ele>
        <time>2013-05-01T10:30:10Z</time>
      </trkpt>
      <trkpt lat="59.8931211" lon="17.6380669">
        <ele>24.1703</ele>
        <time>2013-05-01T10:30:11Z</time>
      </trkpt>
      <trkpt lat="59.8930453" lon="17.6381073">
        <ele>24.1703</ele>
        <time>2013-05-01T10:30:12Z</time>
      </trkpt>
      <trkpt lat="59.8929722" lon="17.6381435">
        <ele>23.6896</ele>
        <time>2013-05-01T10:30:13Z</time>
      </trkpt>
      <trkpt lat="59.8929007" lon="17.6381704">
        <ele>23.6896</ele>
        <time>2013-05-01T10:30:14Z</time>
      </trkpt>
      <trkpt lat="59.8928278" lon="17.6381891">
        <ele>23.209</ele>
        <time>2013-05-01T10:30:15Z</time>
      </trkpt>
      <trkpt lat="59.892758" lon="17.6381884">
        <ele>23.209</ele>
        <time>2013-05-01T10:30:16Z</time>
      </trkpt>
      <trkpt lat="59.8926884" lon="17.6381774">
        <ele>22.2476</ele>
        <time>2013-05-01T10:30:17Z</time>
      </trkpt>
      <trkpt lat="59.8926293" lon="17.638205">
        <ele>22.2476</ele>
        <time>2013-05-01T10:30:18Z</time>
      </trkpt>
      <trkpt lat="59.8925888" lon="17.6382658">
        <ele>21.767</ele>
        <time>2013-05-01T10:30:19Z</time>
      </trkpt>
      <trkpt lat="59.89258" lon="17.6383672">
        <ele>22.2476</ele>
        <time>2013-05-01T10:30:20Z</time>
      </trkpt>
      <trkpt lat="59.8925823" lon="17.6384854">
        <ele>22.7283</ele>
        <time>2013-05-01T10:30:21Z</time>
      </trkpt>
      <trkpt lat="59.8926036" lon="17.6385896">
        <ele>23.209</ele>
        <time>2013-05-01T10:30:22Z</time>
      </trkpt>
      <trkpt lat="59.8926308" lon="17.6386957">
        <ele>23.6896</ele>
        <time>2013-05-01T10:30:23Z</time>
      </trkpt>
      <trkpt lat="59.8926504" lon="17.638807">
        <ele>24.1703</ele>
        <time>2013-05-01T10:30:24Z</time>
      </trkpt>
      <trkpt lat="59.8926641" lon="17.6389277">
        <ele>24.1703</ele>
        <time>2013-05-01T10:30:25Z</time>
      </trkpt>
      <trkpt lat="59.8926733" lon="17.6390452">
        <ele>24.651</ele>
        <time>2013-05-01T10:30:26Z</time>
      </trkpt>
      <trkpt lat="59.8926765" lon="17.6391674">
        <ele>25.1317</ele>
        <time>2013-05-01T10:30:27Z</time>
      </trkpt>
      <trkpt lat="59.8926785" lon="17.6392904">
        <ele>25.1317</ele>
        <time>2013-05-01T10:30:28Z</time>
      </trkpt>
      <trkpt lat="59.8926796" lon="17.6394203">
        <ele>25.6123</ele>
        <time>2013-05-01T10:30:29Z</time>
      </trkpt>
      <trkpt lat="59.8926813" lon="17.639553">
        <ele>26.0929</ele>
        <time>2013-05-01T10:30:30Z</time>
      </trkpt>
      <trkpt lat="59.8926832" lon="17.6396861">
        <ele>26.0929</ele>
        <time>2013-05-01T10:30:31Z</time>
      </trkpt>
      <trkpt lat="59.8926839" lon="17.6398237">
        <ele>26.5736</ele>
        <time>2013-05-01T10:30:32Z</time>
      </trkpt>
      <trkpt lat="59.8926862" lon="17.6399632">
        <ele>26.5736</ele>
        <time>2013-05-01T10:30:33Z</time>
      </trkpt>
      <trkpt lat="59.8926886" lon="17.640103">
        <ele>27.0543</ele>
        <time>2013-05-01T10:30:34Z</time>
      </trkpt>
      <trkpt lat="59.8926906" lon="17.6402357">
        <ele>27.0543</ele>
        <time>2013-05-01T10:30:35Z</time>
      </trkpt>
      <trkpt lat="59.8926908" lon="17.6403594">
        <ele>28.0155</ele>
        <time>2013-05-01T10:30:36Z</time>
      </trkpt>
      <trkpt lat="59.8926874" lon="17.6404807">
        <ele>28.4962</ele>
        <time>2013-05-01T10:30:37Z</time>
      </trkpt>
      <trkpt lat="59.8926822" lon="17.6406009">
        <ele>28.0155</ele>
        <time>2013-05-01T10:30:38Z</time>
      </trkpt>
      <trkpt lat="59.8926735" lon="17.6407255">
        <ele>28.0155</ele>
        <time>2013-05-01T10:30:39Z</time>
      </trkpt>
      <trkpt lat="59.8926641" lon="17.6408567">
        <ele>27.5349</ele>
        <time>2013-05-01T10:30:40Z</time>
      </trkpt>
      <trkpt lat="59.8926544" lon="17.6409929">
        <ele>27.5349</ele>
        <time>2013-05-01T10:30:41Z</time>
      </trkpt>
      <trkpt lat="59.8926454" lon="17.6411345">
        <ele>27.5349</ele>
        <time>2013-05-01T10:30:42Z</time>
      </trkpt>
      <trkpt lat="59.8926382" lon="17.6412791">
        <ele>27.0543</ele>
        <time>2013-05-01T10:30:43Z</time>
      </trkpt>
      <trkpt lat="59.8926308" lon="17.6414257">
        <ele>27.0543</ele>
        <time>2013-05-01T10:30:44Z</time>
      </trkpt>
      <trkpt lat="59.8926221" lon="17.6415748">
        <ele>27.0543</ele>
        <time>2013-05-01T10:30:45Z</time>
      </trkpt>
      <trkpt lat="59.8926122" lon="17.6417285">
        <ele>27.0543</ele>
        <time>2013-05-01T10:30:46Z</time>
      </trkpt>
      <trkpt lat="59.8925998" lon="17.6418859">
        <ele>27.0543</ele>
        <time>2013-05-01T10:30:47Z</time>
      </trkpt>
      <trkpt lat="59.892587" lon="17.6420467">
        <ele>27.0543</ele>
        <time>2013-05-01T10:30:48Z</time>
      </trkpt>
      <trkpt lat="59.8925758" lon="17.6422092">
        <ele>27.5349</ele>
        <time>2013-05-01T10:30:49Z</time>
      </trkpt>
      <trkpt lat="59.8925639" lon="17.6423738">
        <ele>27.5349</ele>
        <time>2013-05-01T10:30:50Z</time>
      </trkpt>
      <trkpt lat="59.8925527" lon="17.6425386">
        <ele>28.0155</ele>
        <time>2013-05-01T10:30:51Z</time>
      </trkpt>
      <trkpt lat="59.8925408" lon="17.6427045">
        <ele>28.0155</ele>
        <time>2013-05-01T10:30:52Z</time>
      </trkpt>
      <trkpt lat="59.8925288" lon="17.6428707">
        <ele>28.4962</ele>
        <time>2013-05-01T10:30:53Z</time>
      </trkpt>
      <trkpt lat="59.8925168" lon="17.6430355">
        <ele>28.4962</ele>
        <time>2013-05-01T10:30:54Z</time>
      </trkpt>
      <trkpt lat="59.8925018" lon="17.6431991">
        <ele>28.4962</ele>
        <time>2013-05-01T10:30:55Z</time>
      </trkpt>
      <trkpt lat="59.8924853" lon="17.6433599">
        <ele>28.4962</ele>
        <time>2013-05-01T10:30:56Z</time>
      </trkpt>
      <trkpt lat="59.8924683" lon="17.6435199">
        <ele>28.4962</ele>
        <time>2013-05-01T10:30:57Z</time>
      </trkpt>
      <trkpt lat="59.8924522" lon="17.6436795">
        <ele>28.4962</ele>
        <time>2013-05-01T10:30:58Z</time>
      </trkpt>
      <trkpt lat="59.8924371" lon="17.6438405">
        <ele>28.4962</ele>
        <time>2013-05-01T10:30:59Z</time>
      </trkpt>
      <trkpt lat="59.8924211" lon="17.644003">
        <ele>28.9769</ele>
        <time>2013-05-01T10:31:00Z</time>
      </trkpt>
      <trkpt lat="59.8924031" lon="17.6441668">
        <ele>28.4962</ele>
        <time>2013-05-01T10:31:01Z</time>
      </trkpt>
      <trkpt lat="59.8923859" lon="17.644331">
        <ele>28.9769</ele>
        <time>2013-05-01T10:31:02Z</time>
      </trkpt>
      <trkpt lat="59.8923705" lon="17.6444963">
        <ele>28.9769</ele>
        <time>2013-05-01T10:31:03Z</time>
      </trkpt>
      <trkpt lat="59.8923553" lon="17.6446635">
        <ele>28.9769</ele>
        <time>2013-05-01T10:31:04Z</time>
      </trkpt>
      <trkpt lat="59.8923399" lon="17.6448294">
        <ele>29.4575</ele>
        <time>2013-05-01T10:31:05Z</time>
      </trkpt>
      <trkpt lat="59.8923246" lon="17.6449971">
        <ele>29.4575</ele>
        <time>2013-05-01T10:31:06Z</time>
      </trkpt>
      <trkpt lat="59.8923087" lon="17.6451657">
        <ele>29.4575</ele>
        <time>2013-05-01T10:31:07Z</time>
      </trkpt>
      <trkpt lat="59.8922925" lon="17.6453334">
        <ele>29.4575</ele>
        <time>2013-05-01T10:31:08Z</time>
      </trkpt>
      <trkpt lat="59.8922762" lon="17.6454991">
        <ele>29.4575</ele>
        <time>2013-05-01T10:31:09Z</time>
      </trkpt>
      <trkpt lat="59.8922601" lon="17.6456654">
        <ele>29.4575</ele>
        <time>2013-05-01T10:31:10Z</time>
      </trkpt>
      <trkpt lat="59.8922436" lon="17.6458321">
        <ele>29.4575</ele>
        <time>2013-05-01T10:31:11Z</time>
      </trkpt>
      <trkpt lat="59.8922254" lon="17.6459984">
        <ele>29.4575</ele>
        <time>2013-05-01T10:31:12Z</time>
      </trkpt>
      <trkpt lat="59.8922073" lon="17.6461643">
        <ele>29.4575</ele>
        <time>2013-05-01T10:31:13Z</time>
      </trkpt>
      <trkpt lat="59.8921899" lon="17.64633">
        <ele>29.4575</ele>
        <time>2013-05-01T10:31:14Z</time>
      </trkpt>
      <trkpt lat="59.8921723" lon="17.6464953">
        <ele>29.4575</ele>
        <time>2013-05-01T10:31:15Z</time>
      </trkpt>
      <trkpt lat="59.8921539" lon="17.6466591">
        <ele>29.4575</ele>
        <time>2013-05-01T10:31:16Z</time>
      </trkpt>
      <trkpt lat="59.8921342" lon="17.6468212">
        <ele>28.9769</ele>
        <time>2013-05-01T10:31:17Z</time>
      </trkpt>
      <trkpt lat="59.8921133" lon="17.6469811">
        <ele>28.9769</ele>
        <time>2013-05-01T10:31:18Z</time>
      </trkpt>
      <trkpt lat="59.892091" lon="17.6471377">
        <ele>29.4575</ele>
        <time>2013-05-01T10:31:19Z</time>
      </trkpt>
      <trkpt lat="59.8920679" lon="17.6472925">
        <ele>28.9769</ele>
        <time>2013-05-01T10:31:20Z</time>
      </trkpt>
      <trkpt lat="59.8920466" lon="17.6474462">
        <ele>29.4575</ele>
        <time>2013-05-01T10:31:21Z</time>
      </trkpt>
      <trkpt lat="59.8920254" lon="17.6475992">
        <ele>29.4575</ele>
        <time>2013-05-01T10:31:22Z</time>
      </trkpt>
      <trkpt lat="59.8920035" lon="17.6477509">
        <ele>29.4575</ele>
        <time>2013-05-01T10:31:23Z</time>
      </trkpt>
      <trkpt lat="59.8919802" lon="17.6479017">
        <ele>29.4575</ele>
        <time>2013-05-01T10:31:24Z</time>
      </trkpt>
      <trkpt lat="59.891956" lon="17.6480519">
        <ele>29.4575</ele>
        <time>2013-05-01T10:31:25Z</time>
      </trkpt>
      <trkpt lat="59.8919301" lon="17.6482006">
        <ele>29.4575</ele>
        <time>2013-05-01T10:31:26Z</time>
      </trkpt>
      <trkpt lat="59.8919029" lon="17.6483473">
        <ele>28.9769</ele>
        <time>2013-05-01T10:31:27Z</time>
      </trkpt>
      <trkpt lat="59.8918758" lon="17.6484934">
        <ele>28.9769</ele>
        <time>2013-05-01T10:31:28Z</time>
      </trkpt>
      <trkpt lat="59.8918497" lon="17.6486402">
        <ele>28.9769</ele>
        <time>2013-05-01T10:31:29Z</time>
      </trkpt>
      <trkpt lat="59.8918227" lon="17.6487873">
        <ele>28.9769</ele>
        <time>2013-05-01T10:31:30Z</time>
      </trkpt>
      <trkpt lat="59.8917942" lon="17.6489358">
        <ele>28.4962</ele>
        <time>2013-05-01T10:31:31Z</time>
      </trkpt>
      <trkpt lat="59.891766" lon="17.6490854">
        <ele>28.9769</ele>
        <time>2013-05-01T10:31:32Z</time>
      </trkpt>
      <trkpt lat="59.8917373" lon="17.6492372">
        <ele>28.9769</ele>
        <time>2013-05-01T10:31:33Z</time>
      </trkpt>
      <trkpt lat="59.8917084" lon="17.6493904">
        <ele>28.9769</ele>
        <time>2013-05-01T10:31:34Z</time>
      </trkpt>
      <trkpt lat="59.891679" lon="17.6495438">
        <ele>28.9769</ele>
        <time>2013-05-01T10:31:35Z</time>
      </trkpt>
      <trkpt lat="59.8916442" lon="17.6496965">
        <ele>28.4962</ele>
        <time>2013-05-01T10:31:36Z</time>
      </trkpt>
      <trkpt lat="59.8916079" lon="17.6498468">
        <ele>28.4962</ele>
        <time>2013-05-01T10:31:37Z</time>
      </trkpt>
      <trkpt lat="59.8915704" lon="17.6499956">
        <ele>28.0155</ele>
        <time>2013-05-01T10:31:38Z</time>
      </trkpt>
      <trkpt lat="59.8915308" lon="17.6501419">
        <ele>28.0155</ele>
        <time>2013-05-01T10:31:39Z</time>
      </trkpt>
      <trkpt lat="59.8914886" lon="17.6502856">
        <ele>27.5349</ele>
        <time>2013-05-01T10:31:40Z</time>
      </trkpt>
      <trkpt lat="59.8914464" lon="17.6504279">
        <ele>27.0543</ele>
        <time>2013-05-01T10:31:41Z</time>
      </trkpt>
      <trkpt lat="59.8914023" lon="17.650569">
        <ele>27.0543</ele>
        <time>2013-05-01T10:31:42Z</time>
      </trkpt>
      <trkpt lat="59.891356" lon="17.6507074">
        <ele>26.5736</ele>
        <time>2013-05-01T10:31:43Z</time>
      </trkpt>
      <trkpt lat="59.8913085" lon="17.6508449">
        <ele>26.0929</ele>
        <time>2013-05-01T10:31:44Z</time>
      </trkpt>
      <trkpt lat="59.8912608" lon="17.6509798">
        <ele>26.0929</ele>
        <time>2013-05-01T10:31:45Z</time>
      </trkpt>
      <trkpt lat="59.891215" lon="17.6511154">
        <ele>25.6123</ele>
        <time>2013-05-01T10:31:46Z</time>
      </trkpt>
      <trkpt lat="59.891171" lon="17.651251">
        <ele>26.0929</ele>
        <time>2013-05-01T10:31:47Z</time>
      </trkpt>
      <trkpt lat="59.8911254" lon="17.6513843">
        <ele>26.0929</ele>
        <time>2013-05-01T10:31:48Z</time>
      </trkpt>
      <trkpt lat="59.891078" lon="17.651516">
        <ele>26.0929</ele>
        <time>2013-05-01T10:31:49Z</time>
      </trkpt>
      <trkpt lat="59.8910286" lon="17.6516468">
        <ele>25.6123</ele>
        <time>2013-05-01T10:31:50Z</time>
      </trkpt>
      <trkpt lat="59.8909795" lon="17.6517774">
        <ele>25.6123</ele>
        <time>2013-05-01T10:31:51Z</time>
      </trkpt>
      <trkpt lat="59.8909159" lon="17.6519053">
        <ele>25.6123</ele>
        <time>2013-05-01T10:31:52Z</time>
      </trkpt>
      <trkpt lat="59.8908597" lon="17.6520385">
        <ele>26.0929</ele>
        <time>2013-05-01T10:31:53Z</time>
      </trkpt>
      <trkpt lat="59.8908034" lon="17.6521705">
        <ele>25.6123</ele>
        <time>2013-05-01T10:31:54Z</time>
      </trkpt>
      <trkpt lat="59.8907502" lon="17.6523011">
        <ele>25.6123</ele>
        <time>2013-05-01T10:31:55Z</time>
      </trkpt>
      <trkpt lat="59.8906966" lon="17.6524316">
        <ele>25.1317</ele>
        <time>2013-05-01T10:31:56Z</time>
      </trkpt>
      <trkpt lat="59.8906464" lon="17.6525621">
        <ele>25.1317</ele>
        <time>2013-05-01T10:31:57Z</time>
      </trkpt>
      <trkpt lat="59.8905989" lon="17.6526969">
        <ele>25.1317</ele>
        <time>2013-05-01T10:31:58Z</time>
      </trkpt>
      <trkpt lat="59.8905517" lon="17.6528223">
        <ele>25.1317</ele>
        <time>2013-05-01T10:31:59Z</time>
      </trkpt>
      <trkpt lat="59.8905045" lon="17.6529471">
        <ele>25.1317</ele>
        <time>2013-05-01T10:32:00Z</time>
      </trkpt>
      <trkpt lat="59.8904579" lon="17.6530733">
        <ele>25.1317</ele>
        <time>2013-05-01T10:32:01Z</time>
      </trkpt>
      <trkpt lat="59.8904114" lon="17.6531999">
        <ele>25.1317</ele>
        <time>2013-05-01T10:32:02Z</time>
      </trkpt>
      <trkpt lat="59.8903641" lon="17.6533259">
        <ele>24.651</ele>
        <time>2013-05-01T10:32:03Z</time>
      </trkpt>
      <trkpt lat="59.8903169" lon="17.653453">
        <ele>24.651</ele>
        <time>2013-05-01T10:32:04Z</time>
      </trkpt>
      <trkpt lat="59.8902699" lon="17.653581">
        <ele>24.1703</ele>
        <time>2013-05-01T10:32:05Z</time>
      </trkpt>
      <trkpt lat="59.8902227" lon="17.6537087">
        <ele>24.1703</ele>
        <time>2013-05-01T10:32:06Z</time>
      </trkpt>
      <trkpt lat="59.8901751" lon="17.6538375">
        <ele>24.1703</ele>
        <time>2013-05-01T10:32:07Z</time>
      </trkpt>
      <trkpt lat="59.8901268" lon="17.6539661">
        <ele>24.1703</ele>
        <time>2013-05-01T10:32:08Z</time>
      </trkpt>
      <trkpt lat="59.8900777" lon="17.6540961">
        <ele>24.1703</ele>
        <time>2013-05-01T10:32:09Z</time>
      </trkpt>
      <trkpt lat="59.8900295" lon="17.6542282">
        <ele>24.1703</ele>
        <time>2013-05-01T10:32:10Z</time>
      </trkpt>
      <trkpt lat="59.8899839" lon="17.6543622">
        <ele>25.1317</ele>
        <time>2013-05-01T10:32:11Z</time>
      </trkpt>
      <trkpt lat="59.8899382" lon="17.654495">
        <ele>25.6123</ele>
        <time>2013-05-01T10:32:12Z</time>
      </trkpt>
      <trkpt lat="59.8898928" lon="17.6546271">
        <ele>26.5736</ele>
        <time>2013-05-01T10:32:13Z</time>
      </trkpt>
      <trkpt lat="59.8898502" lon="17.6547642">
        <ele>27.0543</ele>
        <time>2013-05-01T10:32:14Z</time>
      </trkpt>
      <trkpt lat="59.889806" lon="17.6549014">
        <ele>28.0155</ele>
        <time>2013-05-01T10:32:15Z</time>
      </trkpt>
      <trkpt lat="59.8897574" lon="17.6550337">
        <ele>28.0155</ele>
        <time>2013-05-01T10:32:16Z</time>
      </trkpt>
      <trkpt lat="59.8897077" lon="17.6551653">
        <ele>28.4962</ele>
        <time>2013-05-01T10:32:17Z</time>
      </trkpt>
      <trkpt lat="59.8896575" lon="17.6552974">
        <ele>28.4962</ele>
        <time>2013-05-01T10:32:18Z</time>
      </trkpt>
      <trkpt lat="59.8896085" lon="17.6554335">
        <ele>28.9769</ele>
        <time>2013-05-01T10:32:19Z</time>
      </trkpt>
      <trkpt lat="59.889558" lon="17.6555701">
        <ele>28.4962</ele>
        <time>2013-05-01T10:32:20Z</time>
      </trkpt>
      <trkpt lat="59.8895069" lon="17.655706">
        <ele>28.4962</ele>
        <time>2013-05-01T10:32:21Z</time>
      </trkpt>
      <trkpt lat="59.8894557" lon="17.6558421">
        <ele>28.9769</ele>
        <time>2013-05-01T10:32:22Z</time>
      </trkpt>
      <trkpt lat="59.8893968" lon="17.6559765">
        <ele>28.9769</ele>
        <time>2013-05-01T10:32:23Z</time>
      </trkpt>
      <trkpt lat="59.8893404" lon="17.6561084">
        <ele>28.9769</ele>
        <time>2013-05-01T10:32:24Z</time>
      </trkpt>
      <trkpt lat="59.8892857" lon="17.6562396">
        <ele>28.9769</ele>
        <time>2013-05-01T10:32:25Z</time>
      </trkpt>
      <trkpt lat="59.8892394" lon="17.6563856">
        <ele>28.9769</ele>
        <time>2013-05-01T10:32:26Z</time>
      </trkpt>
      <trkpt lat="59.8891903" lon="17.6565224">
        <ele>28.9769</ele>
        <time>2013-05-01T10:32:27Z</time>
      </trkpt>
      <trkpt lat="59.8891392" lon="17.6566557">
        <ele>28.9769</ele>
        <time>2013-05-01T10:32:28Z</time>
      </trkpt>
      <trkpt lat="59.8890894" lon="17.6567891">
        <ele>28.4962</ele>
        <time>2013-05-01T10:32:29Z</time>
      </trkpt>
      <trkpt lat="59.8890409" lon="17.6569228">
        <ele>28.9769</ele>
        <time>2013-05-01T10:32:30Z</time>
      </trkpt>
      <trkpt lat="59.8889933" lon="17.6570555">
        <ele>28.9769</ele>
        <time>2013-05-01T10:32:31Z</time>
      </trkpt>
      <trkpt lat="59.8889449" lon="17.6571913">
        <ele>28.9769</ele>
        <time>2013-05-01T10:32:32Z</time>
      </trkpt>
      <trkpt lat="59.8888967" lon="17.6573274">
        <ele>28.9769</ele>
        <time>2013-05-01T10:32:33Z</time>
      </trkpt>
      <trkpt lat="59.8888494" lon="17.6574568">
        <ele>29.4575</ele>
        <time>2013-05-01T10:32:34Z</time>
      </trkpt>
      <trkpt lat="59.8888017" lon="17.6575864">
        <ele>29.4575</ele>
        <time>2013-05-01T10:32:35Z</time>
      </trkpt>
      <trkpt lat="59.8887562" lon="17.6577181">
        <ele>29.4575</ele>
        <time>2013-05-01T10:32:36Z</time>
      </trkpt>
      <trkpt lat="59.8887104" lon="17.6578483">
        <ele>29.9381</ele>
        <time>2013-05-01T10:32:37Z</time>
      </trkpt>
      <trkpt lat="59.888662" lon="17.6579867">
        <ele>29.9381</ele>
        <time>2013-05-01T10:32:38Z</time>
      </trkpt>
      <trkpt lat="59.888607" lon="17.6581262">
        <ele>29.4575</ele>
        <time>2013-05-01T10:32:39Z</time>
      </trkpt>
      <trkpt lat="59.8885615" lon="17.6582679">
        <ele>29.4575</ele>
        <time>2013-05-01T10:32:40Z</time>
      </trkpt>
      <trkpt lat="59.8885136" lon="17.6583805">
        <ele>29.4575</ele>
        <time>2013-05-01T10:32:41Z</time>
      </trkpt>
      <trkpt lat="59.8884677" lon="17.6585023">
        <ele>29.4575</ele>
        <time>2013-05-01T10:32:42Z</time>
      </trkpt>
      <trkpt lat="59.8884211" lon="17.6586274">
        <ele>29.4575</ele>
        <time>2013-05-01T10:32:43Z</time>
      </trkpt>
      <trkpt lat="59.8883719" lon="17.6587604">
        <ele>29.9381</ele>
        <time>2013-05-01T10:32:44Z</time>
      </trkpt>
      <trkpt lat="59.8883194" lon="17.6588986">
        <ele>29.9381</ele>
        <time>2013-05-01T10:32:45Z</time>
      </trkpt>
      <trkpt lat="59.8882683" lon="17.6590312">
        <ele>30.4188</ele>
        <time>2013-05-01T10:32:46Z</time>
      </trkpt>
      <trkpt lat="59.8882175" lon="17.6591633">
        <ele>30.4188</ele>
        <time>2013-05-01T10:32:47Z</time>
      </trkpt>
      <trkpt lat="59.8881714" lon="17.6592913">
        <ele>30.4188</ele>
        <time>2013-05-01T10:32:48Z</time>
      </trkpt>
      <trkpt lat="59.8881301" lon="17.6594086">
        <ele>30.4188</ele>
        <time>2013-05-01T10:32:49Z</time>
      </trkpt>
      <trkpt lat="59.8880868" lon="17.6595237">
        <ele>29.9381</ele>
        <time>2013-05-01T10:32:50Z</time>
      </trkpt>
      <trkpt lat="59.8880435" lon="17.6596402">
        <ele>29.9381</ele>
        <time>2013-05-01T10:32:51Z</time>
      </trkpt>
      <trkpt lat="59.8879995" lon="17.6597624">
        <ele>29.9381</ele>
        <time>2013-05-01T10:32:52Z</time>
      </trkpt>
      <trkpt lat="59.8879632" lon="17.6598812">
        <ele>29.9381</ele>
        <time>2013-05-01T10:32:53Z</time>
      </trkpt>
      <trkpt lat="59.8879196" lon="17.6600046">
        <ele>29.9381</ele>
        <time>2013-05-01T10:32:54Z</time>
      </trkpt>
      <trkpt lat="59.8878719" lon="17.6601222">
        <ele>29.9381</ele>
        <time>2013-05-01T10:32:55Z</time>
      </trkpt>
      <trkpt lat="59.8878223" lon="17.6602431">
        <ele>29.9381</ele>
        <time>2013-05-01T10:32:56Z</time>
      </trkpt>
      <trkpt lat="59.8877719" lon="17.6603583">
        <ele>29.9381</ele>
        <time>2013-05-01T10:32:57Z</time>
      </trkpt>
      <trkpt lat="59.8877039" lon="17.6605172">
        <ele>28.4962</ele>
        <time>2013-05-01T10:32:58Z</time>
      </trkpt>
      <trkpt lat="59.8876363" lon="17.6606565">
        <ele>28.0155</ele>
        <time>2013-05-01T10:32:59Z</time>
      </trkpt>
      <trkpt lat="59.8875701" lon="17.6607799">
        <ele>27.5349</ele>
        <time>2013-05-01T10:33:00Z</time>
      </trkpt>
      <trkpt lat="59.8875042" lon="17.6608801">
        <ele>27.0543</ele>
        <time>2013-05-01T10:33:01Z</time>
      </trkpt>
      <trkpt lat="59.887439" lon="17.6609502">
        <ele>26.5736</ele>
        <time>2013-05-01T10:33:02Z</time>
      </trkpt>
      <trkpt lat="59.8873694" lon="17.661">
        <ele>26.0929</ele>
        <time>2013-05-01T10:33:03Z</time>
      </trkpt>
      <trkpt lat="59.8872979" lon="17.6610245">
        <ele>26.0929</ele>
        <time>2013-05-01T10:33:04Z</time>
      </trkpt>
      <trkpt lat="59.8872244" lon="17.661016">
        <ele>25.6123</ele>
        <time>2013-05-01T10:33:05Z</time>
      </trkpt>
      <trkpt lat="59.8871551" lon="17.66097">
        <ele>25.6123</ele>
        <time>2013-05-01T10:33:06Z</time>
      </trkpt>
      <trkpt lat="59.8870908" lon="17.6609173">
        <ele>24.651</ele>
        <time>2013-05-01T10:33:07Z</time>
      </trkpt>
      <trkpt lat="59.8870251" lon="17.6609011">
        <ele>23.6896</ele>
        <time>2013-05-01T10:33:08Z</time>
      </trkpt>
      <trkpt lat="59.886963" lon="17.6609388">
        <ele>23.209</ele>
        <time>2013-05-01T10:33:09Z</time>
      </trkpt>
      <trkpt lat="59.886923" lon="17.6610562">
        <ele>22.7283</ele>
        <time>2013-05-01T10:33:10Z</time>
      </trkpt>
      <trkpt lat="59.886906" lon="17.66118">
        <ele>22.2476</ele>
        <time>2013-05-01T10:33:11Z</time>
      </trkpt>
      <trkpt lat="59.8869238" lon="17.6612928">
        <ele>21.767</ele>
        <time>2013-05-01T10:33:12Z</time>
      </trkpt>
      <trkpt lat="59.8869587" lon="17.6614164">
        <ele>22.2476</ele>
        <time>2013-05-01T10:33:13Z</time>
      </trkpt>
      <trkpt lat="59.8869902" lon="17.6615652">
        <ele>21.767</ele>
        <time>2013-05-01T10:33:14Z</time>
      </trkpt>
      <trkpt lat="59.8870147" lon="17.6617008">
        <ele>22.2476</ele>
        <time>2013-05-01T10:33:15Z</time>
      </trkpt>
      <trkpt lat="59.8870214" lon="17.6618458">
        <ele>22.2476</ele>
        <time>2013-05-01T10:33:16Z</time>
      </trkpt>
      <trkpt lat="59.8870178" lon="17.6619891">
        <ele>22.2476</ele>
        <time>2013-05-01T10:33:17Z</time>
      </trkpt>
      <trkpt lat="59.8870038" lon="17.6621303">
        <ele>22.2476</ele>
        <time>2013-05-01T10:33:18Z</time>
      </trkpt>
      <trkpt lat="59.8869832" lon="17.6622702">
        <ele>22.2476</ele>
        <time>2013-05-01T10:33:19Z</time>
      </trkpt>
      <trkpt lat="59.8869561" lon="17.6624065">
        <ele>22.7283</ele>
        <time>2013-05-01T10:33:20Z</time>
      </trkpt>
      <trkpt lat="59.8869254" lon="17.6625401">
        <ele>22.7283</ele>
        <time>2013-05-01T10:33:21Z</time>
      </trkpt>
      <trkpt lat="59.8868914" lon="17.6626715">
        <ele>23.209</ele>
        <time>2013-05-01T10:33:22Z</time>
      </trkpt>
      <trkpt lat="59.8868531" lon="17.6627987">
        <ele>23.6896</ele>
        <time>2013-05-01T10:33:23Z</time>
      </trkpt>
      <trkpt lat="59.88681" lon="17.6629214">
        <ele>23.6896</ele>
        <time>2013-05-01T10:33:24Z</time>
      </trkpt>
      <trkpt lat="59.8867633" lon="17.6630395">
        <ele>23.6896</ele>
        <time>2013-05-01T10:33:25Z</time>
      </trkpt>
      <trkpt lat="59.8867132" lon="17.663153">
        <ele>24.1703</ele>
        <time>2013-05-01T10:33:26Z</time>
      </trkpt>
      <trkpt lat="59.8866597" lon="17.6632607">
        <ele>24.1703</ele>
        <time>2013-05-01T10:33:27Z</time>
      </trkpt>
      <trkpt lat="59.8866024" lon="17.6633605">
        <ele>24.1703</ele>
        <time>2013-05-01T10:33:28Z</time>
      </trkpt>
      <trkpt lat="59.8865424" lon="17.6634482">
        <ele>24.1703</ele>
        <time>2013-05-01T10:33:29Z</time>
      </trkpt>
      <trkpt lat="59.8864775" lon="17.6635384">
        <ele>23.6896</ele>
        <time>2013-05-01T10:33:30Z</time>
      </trkpt>
      <trkpt lat="59.8864092" lon="17.6636213">
        <ele>23.6896</ele>
        <time>2013-05-01T10:33:31Z</time>
      </trkpt>
      <trkpt lat="59.8863375" lon="17.6636811">
        <ele>23.6896</ele>
        <time>2013-05-01T10:33:32Z</time>
      </trkpt>
      <trkpt lat="59.8862616" lon="17.663718">
        <ele>23.6896</ele>
        <time>2013-05-01T10:33:33Z</time>
      </trkpt>
      <trkpt lat="59.8861839" lon="17.663727">
        <ele>23.6896</ele>
        <time>2013-05-01T10:33:34Z</time>
      </trkpt>
      <trkpt lat="59.886088" lon="17.663671">
        <ele>23.6896</ele>
        <time>2013-05-01T10:33:35Z</time>
      </trkpt>
      <trkpt lat="59.8860077" lon="17.6636332">
        <ele>23.6896</ele>
        <time>2013-05-01T10:33:36Z</time>
      </trkpt>
      <trkpt lat="59.8859336" lon="17.6636131">
        <ele>24.1703</ele>
        <time>2013-05-01T10:33:37Z</time>
      </trkpt>
      <trkpt lat="59.8858593" lon="17.6636088">
        <ele>24.1703</ele>
        <time>2013-05-01T10:33:38Z</time>
      </trkpt>
      <trkpt lat="59.8857849" lon="17.6636275">
        <ele>24.1703</ele>
        <time>2013-05-01T10:33:39Z</time>
      </trkpt>
      <trkpt lat="59.8857119" lon="17.663674">
        <ele>24.651</ele>
        <time>2013-05-01T10:33:40Z</time>
      </trkpt>
      <trkpt lat="59.8856471" lon="17.6637493">
        <ele>24.651</ele>
        <time>2013-05-01T10:33:41Z</time>
      </trkpt>
      <trkpt lat="59.8855916" lon="17.6638488">
        <ele>24.651</ele>
        <time>2013-05-01T10:33:42Z</time>
      </trkpt>
      <trkpt lat="59.885545" lon="17.6639687">
        <ele>24.651</ele>
        <time>2013-05-01T10:33:43Z</time>
      </trkpt>
      <trkpt lat="59.8855066" lon="17.6641034">
        <ele>24.651</ele>
        <time>2013-05-01T10:33:44Z</time>
      </trkpt>
      <trkpt lat="59.885471" lon="17.6642445">
        <ele>24.651</ele>
        <time>2013-05-01T10:33:45Z</time>
      </trkpt>
      <trkpt lat="59.8854351" lon="17.6643857">
        <ele>24.651</ele>
        <time>2013-05-01T10:33:46Z</time>
      </trkpt>
      <trkpt lat="59.8853993" lon="17.6645273">
        <ele>24.651</ele>
        <time>2013-05-01T10:33:47Z</time>
      </trkpt>
      <trkpt lat="59.8853637" lon="17.6646682">
        <ele>25.1317</ele>
        <time>2013-05-01T10:33:48Z</time>
      </trkpt>
      <trkpt lat="59.8853285" lon="17.664805">
        <ele>25.1317</ele>
        <time>2013-05-01T10:33:49Z</time>
      </trkpt>
      <trkpt lat="59.8852924" lon="17.664935">
        <ele>25.1317</ele>
        <time>2013-05-01T10:33:50Z</time>
      </trkpt>
      <trkpt lat="59.8852565" lon="17.6650601">
        <ele>25.6123</ele>
        <time>2013-05-01T10:33:51Z</time>
      </trkpt>
      <trkpt lat="59.8852214" lon="17.6651842">
        <ele>25.6123</ele>
        <time>2013-05-01T10:33:52Z</time>
      </trkpt>
      <trkpt lat="59.8851906" lon="17.6653101">
        <ele>25.6123</ele>
        <time>2013-05-01T10:33:53Z</time>
      </trkpt>
      <trkpt lat="59.8851637" lon="17.6654382">
        <ele>26.0929</ele>
        <time>2013-05-01T10:33:54Z</time>
      </trkpt>
      <trkpt lat="59.8851409" lon="17.6655696">
        <ele>26.0929</ele>
        <time>2013-05-01T10:33:55Z</time>
      </trkpt>
      <trkpt lat="59.8851219" lon="17.6657037">
        <ele>26.0929</ele>
        <time>2013-05-01T10:33:56Z</time>
      </trkpt>
      <trkpt lat="59.8851058" lon="17.6658384">
        <ele>26.5736</ele>
        <time>2013-05-01T10:33:57Z</time>
      </trkpt>
      <trkpt lat="59.8850904" lon="17.6659731">
        <ele>26.5736</ele>
        <time>2013-05-01T10:33:58Z</time>
      </trkpt>
      <trkpt lat="59.8850763" lon="17.6661088">
        <ele>26.5736</ele>
        <time>2013-05-01T10:33:59Z</time>
      </trkpt>
      <trkpt lat="59.8850631" lon="17.6662455">
        <ele>26.5736</ele>
        <time>2013-05-01T10:34:00Z</time>
      </trkpt>
      <trkpt lat="59.8850509" lon="17.666382">
        <ele>26.5736</ele>
        <time>2013-05-01T10:34:01Z</time>
      </trkpt>
      <trkpt lat="59.8850403" lon="17.6665184">
        <ele>26.5736</ele>
        <time>2013-05-01T10:34:02Z</time>
      </trkpt>
      <trkpt lat="59.8850322" lon="17.6666553">
        <ele>27.0543</ele>
        <time>2013-05-01T10:34:03Z</time>
      </trkpt>
      <trkpt lat="59.885022" lon="17.666792">
        <ele>27.0543</ele>
        <time>2013-05-01T10:34:04Z</time>
      </trkpt>
      <trkpt lat="59.8850034" lon="17.666927">
        <ele>27.5349</ele>
        <time>2013-05-01T10:34:05Z</time>
      </trkpt>
      <trkpt lat="59.8849753" lon="17.6670529">
        <ele>27.5349</ele>
        <time>2013-05-01T10:34:06Z</time>
      </trkpt>
      <trkpt lat="59.8849318" lon="17.6671687">
        <ele>27.0543</ele>
        <time>2013-05-01T10:34:07Z</time>
      </trkpt>
      <trkpt lat="59.884882" lon="17.6672676">
        <ele>27.5349</ele>
        <time>2013-05-01T10:34:08Z</time>
      </trkpt>
      <trkpt lat="59.8848359" lon="17.6673691">
        <ele>27.5349</ele>
        <time>2013-05-01T10:34:09Z</time>
      </trkpt>
      <trkpt lat="59.8848039" lon="17.6674897">
        <ele>27.5349</ele>
        <time>2013-05-01T10:34:10Z</time>
      </trkpt>
      <trkpt lat="59.8847905" lon="17.6676264">
        <ele>27.5349</ele>
        <time>2013-05-01T10:34:11Z</time>
      </trkpt>
      <trkpt lat="59.8847936" lon="17.6677701">
        <ele>27.5349</ele>
        <time>2013-05-01T10:34:12Z</time>
      </trkpt>
      <trkpt lat="59.8848028" lon="17.6679159">
        <ele>27.5349</ele>
        <time>2013-05-01T10:34:13Z</time>
      </trkpt>
      <trkpt lat="59.8848057" lon="17.6680633">
        <ele>27.5349</ele>
        <time>2013-05-01T10:34:14Z</time>
      </trkpt>
      <trkpt lat="59.8847945" lon="17.6682088">
        <ele>27.5349</ele>
        <time>2013-05-01T10:34:15Z</time>
      </trkpt>
      <trkpt lat="59.8847712" lon="17.6683482">
        <ele>27.5349</ele>
        <time>2013-05-01T10:34:16Z</time>
      </trkpt>
      <trkpt lat="59.8847405" lon="17.6684823">
        <ele>27.5349</ele>
        <time>2013-05-01T10:34:17Z</time>
      </trkpt>
      <trkpt lat="59.884706" lon="17.6686126">
        <ele>27.5349</ele>
        <time>2013-05-01T10:34:18Z</time>
      </trkpt>
      <trkpt lat="59.8846689" lon="17.6687396">
        <ele>27.5349</ele>
        <time>2013-05-01T10:34:19Z</time>
      </trkpt>
      <trkpt lat="59.884629" lon="17.6688631">
        <ele>27.5349</ele>
        <time>2013-05-01T10:34:20Z</time>
      </trkpt>
      <trkpt lat="59.8845872" lon="17.6689852">
        <ele>27.5349</ele>
        <time>2013-05-01T10:34:21Z</time>
      </trkpt>
      <trkpt lat="59.8845443" lon="17.6691078">
        <ele>27.5349</ele>
        <time>2013-05-01T10:34:22Z</time>
      </trkpt>
      <trkpt lat="59.8844999" lon="17.6692267">
        <ele>28.0155</ele>
        <time>2013-05-01T10:34:23Z</time>
      </trkpt>
      <trkpt lat="59.8844543" lon="17.6693427">
        <ele>28.0155</ele>
        <time>2013-05-01T10:34:24Z</time>
      </trkpt>
      <trkpt lat="59.8844084" lon="17.6694572">
        <ele>28.0155</ele>
        <time>2013-05-01T10:34:25Z</time>
      </trkpt>
      <trkpt lat="59.8843618" lon="17.66957">
        <ele>28.0155</ele>
        <time>2013-05-01T10:34:26Z</time>
      </trkpt>
      <trkpt lat="59.8843144" lon="17.6696815">
        <ele>28.0155</ele>
        <time>2013-05-01T10:34:27Z</time>
      </trkpt>
      <trkpt lat="59.884266" lon="17.6697918">
        <ele>28.0155</ele>
        <time>2013-05-01T10:34:28Z</time>
      </trkpt>
      <trkpt lat="59.8842164" lon="17.669901">
        <ele>28.0155</ele>
        <time>2013-05-01T10:34:29Z</time>
      </trkpt>
      <trkpt lat="59.8841657" lon="17.6700083">
        <ele>28.4962</ele>
        <time>2013-05-01T10:34:30Z</time>
      </trkpt>
      <trkpt lat="59.8841138" lon="17.670114">
        <ele>28.4962</ele>
        <time>2013-05-01T10:34:31Z</time>
      </trkpt>
      <trkpt lat="59.8840575" lon="17.6702127">
        <ele>28.4962</ele>
        <time>2013-05-01T10:34:32Z</time>
      </trkpt>
      <trkpt lat="59.8839934" lon="17.6702928">
        <ele>28.4962</ele>
        <time>2013-05-01T10:34:33Z</time>
      </trkpt>
      <trkpt lat="59.8839222" lon="17.6703409">
        <ele>28.4962</ele>
        <time>2013-05-01T10:34:34Z</time>
      </trkpt>
      <trkpt lat="59.883846" lon="17.6703733">
        <ele>28.0155</ele>
        <time>2013-05-01T10:34:35Z</time>
      </trkpt>
      <trkpt lat="59.8837717" lon="17.670422">
        <ele>27.5349</ele>
        <time>2013-05-01T10:34:36Z</time>
      </trkpt>
      <trkpt lat="59.8837062" lon="17.670509">
        <ele>26.5736</ele>
        <time>2013-05-01T10:34:37Z</time>
      </trkpt>
      <trkpt lat="59.8836559" lon="17.6706294">
        <ele>26.0929</ele>
        <time>2013-05-01T10:34:38Z</time>
      </trkpt>
      <trkpt lat="59.8836192" lon="17.6707708">
        <ele>26.0929</ele>
        <time>2013-05-01T10:34:39Z</time>
      </trkpt>
      <trkpt lat="59.8835844" lon="17.6709181">
        <ele>26.0929</ele>
        <time>2013-05-01T10:34:40Z</time>
      </trkpt>
      <trkpt lat="59.8835394" lon="17.6710568">
        <ele>26.0929</ele>
        <time>2013-05-01T10:34:41Z</time>
      </trkpt>
      <trkpt lat="59.8834828" lon="17.6711788">
        <ele>26.0929</ele>
        <time>2013-05-01T10:34:42Z</time>
      </trkpt>
      <trkpt lat="59.8834195" lon="17.6712868">
        <ele>25.6123</ele>
        <time>2013-05-01T10:34:43Z</time>
      </trkpt>
      <trkpt lat="59.8833542" lon="17.6713819">
        <ele>26.0929</ele>
        <time>2013-05-01T10:34:44Z</time>
      </trkpt>
      <trkpt lat="59.8832876" lon="17.6714727">
        <ele>26.0929</ele>
        <time>2013-05-01T10:34:45Z</time>
      </trkpt>
      <trkpt lat="59.8832206" lon="17.6715614">
        <ele>26.0929</ele>
        <time>2013-05-01T10:34:46Z</time>
      </trkpt>
      <trkpt lat="59.8831529" lon="17.6716488">
        <ele>26.0929</ele>
        <time>2013-05-01T10:34:47Z</time>
      </trkpt>
      <trkpt lat="59.883084" lon="17.6717326">
        <ele>26.0929</ele>
        <time>2013-05-01T10:34:48Z</time>
      </trkpt>
      <trkpt lat="59.8830137" lon="17.6718099">
        <ele>26.5736</ele>
        <time>2013-05-01T10:34:49Z</time>
      </trkpt>
      <trkpt lat="59.8829421" lon="17.6718817">
        <ele>26.5736</ele>
        <time>2013-05-01T10:34:50Z</time>
      </trkpt>
      <trkpt lat="59.8828695" lon="17.6719484">
        <ele>26.5736</ele>
        <time>2013-05-01T10:34:51Z</time>
      </trkpt>
      <trkpt lat="59.8827969" lon="17.6720115">
        <ele>26.5736</ele>
        <time>2013-05-01T10:34:52Z</time>
      </trkpt>
      <trkpt lat="59.882724" lon="17.6720722">
        <ele>26.5736</ele>
        <time>2013-05-01T10:34:53Z</time>
      </trkpt>
      <trkpt lat="59.8826509" lon="17.672132">
        <ele>26.5736</ele>
        <time>2013-05-01T10:34:54Z</time>
      </trkpt>
      <trkpt lat="59.8825777" lon="17.6721913">
        <ele>26.5736</ele>
        <time>2013-05-01T10:34:55Z</time>
      </trkpt>
      <trkpt lat="59.8825047" lon="17.6722508">
        <ele>27.0543</ele>
        <time>2013-05-01T10:34:56Z</time>
      </trkpt>
      <trkpt lat="59.882432" lon="17.6723108">
        <ele>27.0543</ele>
        <time>2013-05-01T10:34:57Z</time>
      </trkpt>
      <trkpt lat="59.88236" lon="17.6723714">
        <ele>27.0543</ele>
        <time>2013-05-01T10:34:58Z</time>
      </trkpt>
      <trkpt lat="59.8822883" lon="17.6724326">
        <ele>27.0543</ele>
        <time>2013-05-01T10:34:59Z</time>
      </trkpt>
      <trkpt lat="59.8822164" lon="17.6724935">
        <ele>27.0543</ele>
        <time>2013-05-01T10:35:00Z</time>
      </trkpt>
      <trkpt lat="59.8821441" lon="17.6725521">
        <ele>27.0543</ele>
        <time>2013-05-01T10:35:01Z</time>
      </trkpt>
      <trkpt lat="59.8820719" lon="17.6726094">
        <ele>27.5349</ele>
        <time>2013-05-01T10:35:02Z</time>
      </trkpt>
      <trkpt lat="59.8820008" lon="17.6726698">
        <ele>27.5349</ele>
        <time>2013-05-01T10:35:03Z</time>
      </trkpt>
      <trkpt lat="59.88193" lon="17.672731">
        <ele>27.5349</ele>
        <time>2013-05-01T10:35:04Z</time>
      </trkpt>
      <trkpt lat="59.881859" lon="17.6727895">
        <ele>27.5349</ele>
        <time>2013-05-01T10:35:05Z</time>
      </trkpt>
      <trkpt lat="59.881788" lon="17.6728465">
        <ele>27.5349</ele>
        <time>2013-05-01T10:35:06Z</time>
      </trkpt>
      <trkpt lat="59.8817178" lon="17.6729038">
        <ele>28.0155</ele>
        <time>2013-05-01T10:35:07Z</time>
      </trkpt>
      <trkpt lat="59.8816474" lon="17.6729605">
        <ele>28.0155</ele>
        <time>2013-05-01T10:35:08Z</time>
      </trkpt>
      <trkpt lat="59.8815769" lon="17.673017">
        <ele>28.0155</ele>
        <time>2013-05-01T10:35:09Z</time>
      </trkpt>
      <trkpt lat="59.8815062" lon="17.6730753">
        <ele>28.0155</ele>
        <time>2013-05-01T10:35:10Z</time>
      </trkpt>
      <trkpt lat="59.8814363" lon="17.6731348">
        <ele>28.0155</ele>
        <time>2013-05-01T10:35:11Z</time>
      </trkpt>
      <trkpt lat="59.8813672" lon="17.6731941">
        <ele>28.0155</ele>
        <time>2013-05-01T10:35:12Z</time>
      </trkpt>
      <trkpt lat="59.8812985" lon="17.6732509">
        <ele>28.4962</ele>
        <time>2013-05-01T10:35:13Z</time>
      </trkpt>
      <trkpt lat="59.8812305" lon="17.6733065">
        <ele>28.4962</ele>
        <time>2013-05-01T10:35:14Z</time>
      </trkpt>
      <trkpt lat="59.8811633" lon="17.6733624">
        <ele>28.4962</ele>
        <time>2013-05-01T10:35:15Z</time>
      </trkpt>
      <trkpt lat="59.8810969" lon="17.6734182">
        <ele>28.4962</ele>
        <time>2013-05-01T10:35:16Z</time>
      </trkpt>
      <trkpt lat="59.8810307" lon="17.6734739">
        <ele>28.4962</ele>
        <time>2013-05-01T10:35:17Z</time>
      </trkpt>
      <trkpt lat="59.8809654" lon="17.6735311">
        <ele>28.4962</ele>
        <time>2013-05-01T10:35:18Z</time>
      </trkpt>
      <trkpt lat="59.8809011" lon="17.6735884">
        <ele>28.9769</ele>
        <time>2013-05-01T10:35:19Z</time>
      </trkpt>
      <trkpt lat="59.8808369" lon="17.6736447">
        <ele>28.9769</ele>
        <time>2013-05-01T10:35:20Z</time>
      </trkpt>
      <trkpt lat="59.8807732" lon="17.6736995">
        <ele>28.9769</ele>
        <time>2013-05-01T10:35:21Z</time>
      </trkpt>
      <trkpt lat="59.8807099" lon="17.6737547">
        <ele>28.9769</ele>
        <time>2013-05-01T10:35:22Z</time>
      </trkpt>
      <trkpt lat="59.8806472" lon="17.673813">
        <ele>28.9769</ele>
        <time>2013-05-01T10:35:23Z</time>
      </trkpt>
      <trkpt lat="59.8805841" lon="17.6738735">
        <ele>28.9769</ele>
        <time>2013-05-01T10:35:24Z</time>
      </trkpt>
      <trkpt lat="59.8805203" lon="17.6739344">
        <ele>29.4575</ele>
        <time>2013-05-01T10:35:25Z</time>
      </trkpt>
      <trkpt lat="59.8804572" lon="17.6739947">
        <ele>29.4575</ele>
        <time>2013-05-01T10:35:26Z</time>
      </trkpt>
      <trkpt lat="59.8803944" lon="17.6740543">
        <ele>29.4575</ele>
        <time>2013-05-01T10:35:27Z</time>
      </trkpt>
      <trkpt lat="59.8803322" lon="17.674113">
        <ele>29.4575</ele>
        <time>2013-05-01T10:35:28Z</time>
      </trkpt>
      <trkpt lat="59.880271" lon="17.6741726">
        <ele>29.4575</ele>
        <time>2013-05-01T10:35:29Z</time>
      </trkpt>
      <trkpt lat="59.8802106" lon="17.6742322">
        <ele>29.4575</ele>
        <time>2013-05-01T10:35:30Z</time>
      </trkpt>
      <trkpt lat="59.8801506" lon="17.6742893">
        <ele>29.4575</ele>
        <time>2013-05-01T10:35:31Z</time>
      </trkpt>
      <trkpt lat="59.8800908" lon="17.674346">
        <ele>29.4575</ele>
        <time>2013-05-01T10:35:32Z</time>
      </trkpt>
      <trkpt lat="59.880032" lon="17.6744036">
        <ele>29.9381</ele>
        <time>2013-05-01T10:35:33Z</time>
      </trkpt>
      <trkpt lat="59.8799739" lon="17.6744606">
        <ele>29.9381</ele>
        <time>2013-05-01T10:35:34Z</time>
      </trkpt>
      <trkpt lat="59.8799163" lon="17.6745177">
        <ele>29.9381</ele>
        <time>2013-05-01T10:35:35Z</time>
      </trkpt>
      <trkpt lat="59.8798589" lon="17.6745761">
        <ele>29.9381</ele>
        <time>2013-05-01T10:35:36Z</time>
      </trkpt>
      <trkpt lat="59.8798014" lon="17.674635">
        <ele>29.9381</ele>
        <time>2013-05-01T10:35:37Z</time>
      </trkpt>
      <trkpt lat="59.879744" lon="17.6746943">
        <ele>29.9381</ele>
        <time>2013-05-01T10:35:38Z</time>
      </trkpt>
      <trkpt lat="59.8796859" lon="17.6747523">
        <ele>29.9381</ele>
        <time>2013-05-01T10:35:39Z</time>
      </trkpt>
      <trkpt lat="59.8796268" lon="17.6748059">
        <ele>29.9381</ele>
        <time>2013-05-01T10:35:40Z</time>
      </trkpt>
      <trkpt lat="59.8795671" lon="17.6748559">
        <ele>29.9381</ele>
        <time>2013-05-01T10:35:41Z</time>
      </trkpt>
      <trkpt lat="59.8795071" lon="17.6749061">
        <ele>29.4575</ele>
        <time>2013-05-01T10:35:42Z</time>
      </trkpt>
      <trkpt lat="59.8794481" lon="17.6749624">
        <ele>29.4575</ele>
        <time>2013-05-01T10:35:43Z</time>
      </trkpt>
      <trkpt lat="59.879391" lon="17.6750232">
        <ele>28.9769</ele>
        <time>2013-05-01T10:35:44Z</time>
      </trkpt>
      <trkpt lat="59.8793355" lon="17.6750812">
        <ele>28.9769</ele>
        <time>2013-05-01T10:35:45Z</time>
      </trkpt>
      <trkpt lat="59.8792788" lon="17.6751314">
        <ele>28.4962</ele>
        <time>2013-05-01T10:35:46Z</time>
      </trkpt>
      <trkpt lat="59.8792207" lon="17.6751692">
        <ele>28.9769</ele>
        <time>2013-05-01T10:35:47Z</time>
      </trkpt>
      <trkpt lat="59.8791607" lon="17.6751906">
        <ele>28.9769</ele>
        <time>2013-05-01T10:35:48Z</time>
      </trkpt>
      <trkpt lat="59.8790995" lon="17.6751813">
        <ele>28.4962</ele>
        <time>2013-05-01T10:35:49Z</time>
      </trkpt>
      <trkpt lat="59.8790435" lon="17.6751287">
        <ele>28.0155</ele>
        <time>2013-05-01T10:35:50Z</time>
      </trkpt>
      <trkpt lat="59.8789967" lon="17.6750434">
        <ele>28.0155</ele>
        <time>2013-05-01T10:35:51Z</time>
      </trkpt>
      <trkpt lat="59.8789581" lon="17.6749407">
        <ele>28.0155</ele>
        <time>2013-05-01T10:35:52Z</time>
      </trkpt>
      <trkpt lat="59.8789237" lon="17.6748367">
        <ele>28.0155</ele>
        <time>2013-05-01T10:35:53Z</time>
      </trkpt>
      <trkpt lat="59.878886" lon="17.6747455">
        <ele>27.5349</ele>
        <time>2013-05-01T10:35:54Z</time>
      </trkpt>
      <trkpt lat="59.8788404" lon="17.6746788">
        <ele>27.5349</ele>
        <time>2013-05-01T10:35:55Z</time>
      </trkpt>
      <trkpt lat="59.8787878" lon="17.674642">
        <ele>27.0543</ele>
        <time>2013-05-01T10:35:56Z</time>
      </trkpt>
      <trkpt lat="59.8787312" lon="17.6746331">
        <ele>27.0543</ele>
        <time>2013-05-01T10:35:57Z</time>
      </trkpt>
      <trkpt lat="59.8786747" lon="17.6746418">
        <ele>26.5736</ele>
        <time>2013-05-01T10:35:58Z</time>
      </trkpt>
      <trkpt lat="59.8786175" lon="17.6746548">
        <ele>26.5736</ele>
        <time>2013-05-01T10:35:59Z</time>
      </trkpt>
      <trkpt lat="59.87856" lon="17.6746589">
        <ele>26.5736</ele>
        <time>2013-05-01T10:36:00Z</time>
      </trkpt>
      <trkpt lat="59.878501" lon="17.6746497">
        <ele>27.0543</ele>
        <time>2013-05-01T10:36:01Z</time>
      </trkpt>
      <trkpt lat="59.8784432" lon="17.6746496">
        <ele>27.0543</ele>
        <time>2013-05-01T10:36:02Z</time>
      </trkpt>
      <trkpt lat="59.8783876" lon="17.6746847">
        <ele>27.5349</ele>
        <time>2013-05-01T10:36:03Z</time>
      </trkpt>
      <trkpt lat="59.8783353" lon="17.6747401">
        <ele>27.0543</ele>
        <time>2013-05-01T10:36:04Z</time>
      </trkpt>
      <trkpt lat="59.8782822" lon="17.6747989">
        <ele>27.0543</ele>
        <time>2013-05-01T10:36:05Z</time>
      </trkpt>
      <trkpt lat="59.8782278" lon="17.6748621">
        <ele>26.5736</ele>
        <time>2013-05-01T10:36:06Z</time>
      </trkpt>
      <trkpt lat="59.8781738" lon="17.6749253">
        <ele>26.5736</ele>
        <time>2013-05-01T10:36:07Z</time>
      </trkpt>
      <trkpt lat="59.87812" lon="17.6749869">
        <ele>26.0929</ele>
        <time>2013-05-01T10:36:08Z</time>
      </trkpt>
      <trkpt lat="59.8780675" lon="17.675046">
        <ele>26.0929</ele>
        <time>2013-05-01T10:36:09Z</time>
      </trkpt>
      <trkpt lat="59.878017" lon="17.6751054">
        <ele>25.6123</ele>
        <time>2013-05-01T10:36:10Z</time>
      </trkpt>
      <trkpt lat="59.877964" lon="17.6751608">
        <ele>25.1317</ele>
        <time>2013-05-01T10:36:11Z</time>
      </trkpt>
      <trkpt lat="59.8779112" lon="17.6752193">
        <ele>25.1317</ele>
        <time>2013-05-01T10:36:12Z</time>
      </trkpt>
      <trkpt lat="59.8778656" lon="17.6752856">
        <ele>26.0929</ele>
        <time>2013-05-01T10:36:13Z</time>
      </trkpt>
      <trkpt lat="59.8778224" lon="17.675338">
        <ele>26.0929</ele>
        <time>2013-05-01T10:36:14Z</time>
      </trkpt>
      <trkpt lat="59.8777832" lon="17.67537">
        <ele>27.5349</ele>
        <time>2013-05-01T10:36:15Z</time>
      </trkpt>
      <trkpt lat="59.877747" lon="17.6753982">
        <ele>28.4962</ele>
        <time>2013-05-01T10:36:16Z</time>
      </trkpt>
      <trkpt lat="59.8777071" lon="17.6754448">
        <ele>29.4575</ele>
        <time>2013-05-01T10:36:17Z</time>
      </trkpt>
      <trkpt lat="59.8776851" lon="17.6754962">
        <ele>28.9769</ele>
        <time>2013-05-01T10:36:18Z</time>
      </trkpt>
      <trkpt lat="59.8776797" lon="17.6755619">
        <ele>29.4575</ele>
        <time>2013-05-01T10:36:19Z</time>
      </trkpt>
      <trkpt lat="59.8776953" lon="17.6756448">
        <ele>30.8995</ele>
        <time>2013-05-01T10:36:20Z</time>
      </trkpt>
      <trkpt lat="59.87772" lon="17.6757442">
        <ele>31.8607</ele>
        <time>2013-05-01T10:36:21Z</time>
      </trkpt>
      <trkpt lat="59.8777447" lon="17.6758535">
        <ele>32.3416</ele>
        <time>2013-05-01T10:36:22Z</time>
      </trkpt>
      <trkpt lat="59.8777878" lon="17.675988">
        <ele>33.3029</ele>
        <time>2013-05-01T10:36:23Z</time>
      </trkpt>
      <trkpt lat="59.8778183" lon="17.6761167">
        <ele>33.7834</ele>
        <time>2013-05-01T10:36:24Z</time>
      </trkpt>
      <trkpt lat="59.8778454" lon="17.6762449">
        <ele>33.7834</ele>
        <time>2013-05-01T10:36:25Z</time>
      </trkpt>
      <trkpt lat="59.8778842" lon="17.6763783">
        <ele>34.2642</ele>
        <time>2013-05-01T10:36:26Z</time>
      </trkpt>
      <trkpt lat="59.8779158" lon="17.6765265">
        <ele>34.7449</ele>
        <time>2013-05-01T10:36:27Z</time>
      </trkpt>
      <trkpt lat="59.8779605" lon="17.6766522">
        <ele>34.2642</ele>
        <time>2013-05-01T10:36:28Z</time>
      </trkpt>
      <trkpt lat="59.8780074" lon="17.6767906">
        <ele>34.2642</ele>
        <time>2013-05-01T10:36:29Z</time>
      </trkpt>
      <trkpt lat="59.8780448" lon="17.676935">
        <ele>32.3416</ele>
        <time>2013-05-01T10:36:30Z</time>
      </trkpt>
      <trkpt lat="59.8781116" lon="17.6770344">
        <ele>28.4962</ele>
        <time>2013-05-01T10:36:31Z</time>
      </trkpt>
      <trkpt lat="59.8781531" lon="17.6771501">
        <ele>28.4962</ele>
        <time>2013-05-01T10:36:32Z</time>
      </trkpt>
      <trkpt lat="59.8782002" lon="17.6772392">
        <ele>28.4962</ele>
        <time>2013-05-01T10:36:33Z</time>
      </trkpt>
      <trkpt lat="59.8782292" lon="17.6773268">
        <ele>28.9769</ele>
        <time>2013-05-01T10:36:34Z</time>
      </trkpt>
      <trkpt lat="59.8782421" lon="17.6774281">
        <ele>28.4962</ele>
        <time>2013-05-01T10:36:35Z</time>
      </trkpt>
      <trkpt lat="59.8782358" lon="17.6775266">
        <ele>27.5349</ele>
        <time>2013-05-01T10:36:36Z</time>
      </trkpt>
      <trkpt lat="59.8782183" lon="17.6776219">
        <ele>27.0543</ele>
        <time>2013-05-01T10:36:37Z</time>
      </trkpt>
      <trkpt lat="59.878207" lon="17.6777133">
        <ele>26.5736</ele>
        <time>2013-05-01T10:36:38Z</time>
      </trkpt>
      <trkpt lat="59.8781972" lon="17.6778007">
        <ele>27.0543</ele>
        <time>2013-05-01T10:36:39Z</time>
      </trkpt>
      <trkpt lat="59.8782029" lon="17.6778888">
        <ele>27.0543</ele>
        <time>2013-05-01T10:36:40Z</time>
      </trkpt>
      <trkpt lat="59.8782078" lon="17.6779678">
        <ele>27.0543</ele>
        <time>2013-05-01T10:36:41Z</time>
      </trkpt>
      <trkpt lat="59.8782199" lon="17.6780452">
        <ele>26.5736</ele>
        <time>2013-05-01T10:36:42Z</time>
      </trkpt>
      <trkpt lat="59.8782242" lon="17.6781187">
        <ele>26.0929</ele>
        <time>2013-05-01T10:36:43Z</time>
      </trkpt>
      <trkpt lat="59.8782154" lon="17.6781891">
        <ele>26.0929</ele>
        <time>2013-05-01T10:36:44Z</time>
      </trkpt>
      <trkpt lat="59.8781928" lon="17.6782581">
        <ele>25.1317</ele>
        <time>2013-05-01T10:36:45Z</time>
      </trkpt>
      <trkpt lat="59.8781645" lon="17.6783203">
        <ele>24.651</ele>
        <time>2013-05-01T10:36:46Z</time>
      </trkpt>
      <trkpt lat="59.8781375" lon="17.6783781">
        <ele>24.1703</ele>
        <time>2013-05-01T10:36:47Z</time>
      </trkpt>
      <trkpt lat="59.8781096" lon="17.6784379">
        <ele>23.209</ele>
        <time>2013-05-01T10:36:48Z</time>
      </trkpt>
      <trkpt lat="59.8780807" lon="17.6785009">
        <ele>22.2476</ele>
        <time>2013-05-01T10:36:49Z</time>
      </trkpt>
      <trkpt lat="59.8780516" lon="17.6785591">
        <ele>21.767</ele>
        <time>2013-05-01T10:36:50Z</time>
      </trkpt>
      <trkpt lat="59.8780185" lon="17.6786239">
        <ele>20.8057</ele>
        <time>2013-05-01T10:36:51Z</time>
      </trkpt>
      <trkpt lat="59.8779857" lon="17.6786936">
        <ele>20.325</ele>
        <time>2013-05-01T10:36:52Z</time>
      </trkpt>
      <trkpt lat="59.8779537" lon="17.6787615">
        <ele>19.8444</ele>
        <time>2013-05-01T10:36:53Z</time>
      </trkpt>
      <trkpt lat="59.877918" lon="17.6788269">
        <ele>19.8444</ele>
        <time>2013-05-01T10:36:54Z</time>
      </trkpt>
      <trkpt lat="59.8778764" lon="17.678885">
        <ele>19.8444</ele>
        <time>2013-05-01T10:36:55Z</time>
      </trkpt>
      <trkpt lat="59.8778319" lon="17.6789464">
        <ele>18.8831</ele>
        <time>2013-05-01T10:36:56Z</time>
      </trkpt>
      <trkpt lat="59.8777879" lon="17.6790088">
        <ele>17.9218</ele>
        <time>2013-05-01T10:36:57Z</time>
      </trkpt>
      <trkpt lat="59.8777439" lon="17.6790725">
        <ele>17.4412</ele>
        <time>2013-05-01T10:36:58Z</time>
      </trkpt>
      <trkpt lat="59.8776978" lon="17.6791389">
        <ele>16.9604</ele>
        <time>2013-05-01T10:36:59Z</time>
      </trkpt>
      <trkpt lat="59.8776548" lon="17.6792052">
        <ele>16.9604</ele>
        <time>2013-05-01T10:37:00Z</time>
      </trkpt>
      <trkpt lat="59.8776123" lon="17.6792782">
        <ele>16.9604</ele>
        <time>2013-05-01T10:37:01Z</time>
      </trkpt>
      <trkpt lat="59.877574" lon="17.6793532">
        <ele>16.9604</ele>
        <time>2013-05-01T10:37:02Z</time>
      </trkpt>
      <trkpt lat="59.8775377" lon="17.6794242">
        <ele>16.9604</ele>
        <time>2013-05-01T10:37:03Z</time>
      </trkpt>
      <trkpt lat="59.8775003" lon="17.679488">
        <ele>16.4797</ele>
        <time>2013-05-01T10:37:04Z</time>
      </trkpt>
      <trkpt lat="59.8774636" lon="17.6795465">
        <ele>16.4797</ele>
        <time>2013-05-01T10:37:05Z</time>
      </trkpt>
      <trkpt lat="59.8774335" lon="17.679605">
        <ele>16.4797</ele>
        <time>2013-05-01T10:37:06Z</time>
      </trkpt>
      <trkpt lat="59.8774164" lon="17.679668">
        <ele>17.4412</ele>
        <time>2013-05-01T10:37:07Z</time>
      </trkpt>
      <trkpt lat="59.8774108" lon="17.6797304">
        <ele>18.4023</ele>
        <time>2013-05-01T10:37:08Z</time>
      </trkpt>
      <trkpt lat="59.8774108" lon="17.679792">
        <ele>18.4023</ele>
        <time>2013-05-01T10:37:09Z</time>
      </trkpt>
      <trkpt lat="59.877407" lon="17.6798531">
        <ele>18.8831</ele>
        <time>2013-05-01T10:37:10Z</time>
      </trkpt>
      <trkpt lat="59.8773926" lon="17.6799127">
        <ele>18.4023</ele>
        <time>2013-05-01T10:37:11Z</time>
      </trkpt>
      <trkpt lat="59.8773707" lon="17.6799722">
        <ele>18.4023</ele>
        <time>2013-05-01T10:37:12Z</time>
      </trkpt>
      <trkpt lat="59.877344" lon="17.680033">
        <ele>17.4412</ele>
        <time>2013-05-01T10:37:13Z</time>
      </trkpt>
      <trkpt lat="59.8773151" lon="17.6800964">
        <ele>17.4412</ele>
        <time>2013-05-01T10:37:14Z</time>
      </trkpt>
      <trkpt lat="59.8772839" lon="17.6801675">
        <ele>16.9604</ele>
        <time>2013-05-01T10:37:15Z</time>
      </trkpt>
      <trkpt lat="59.8772519" lon="17.6802424">
        <ele>16.9604</ele>
        <time>2013-05-01T10:37:16Z</time>
      </trkpt>
      <trkpt lat="59.8772186" lon="17.6803228">
        <ele>16.4797</ele>
        <time>2013-05-01T10:37:17Z</time>
      </trkpt>
      <trkpt lat="59.8771812" lon="17.6804048">
        <ele>16.4797</ele>
        <time>2013-05-01T10:37:18Z</time>
      </trkpt>
      <trkpt lat="59.8771414" lon="17.6804857">
        <ele>15.999</ele>
        <time>2013-05-01T10:37:19Z</time>
      </trkpt>
      <trkpt lat="59.8771025" lon="17.680568">
        <ele>15.5184</ele>
        <time>2013-05-01T10:37:20Z</time>
      </trkpt>
      <trkpt lat="59.8770666" lon="17.6806468">
        <ele>15.0377</ele>
        <time>2013-05-01T10:37:21Z</time>
      </trkpt>
      <trkpt lat="59.87703" lon="17.6807322">
        <ele>15.5184</ele>
        <time>2013-05-01T10:37:22Z</time>
      </trkpt>
      <trkpt lat="59.8769934" lon="17.6808191">
        <ele>15.5184</ele>
        <time>2013-05-01T10:37:23Z</time>
      </trkpt>
      <trkpt lat="59.8769563" lon="17.6809045">
        <ele>15.5184</ele>
        <time>2013-05-01T10:37:24Z</time>
      </trkpt>
      <trkpt lat="59.876912" lon="17.6810047">
        <ele>15.5184</ele>
        <time>2013-05-01T10:37:25Z</time>
      </trkpt>
      <trkpt lat="59.87687" lon="17.6810951">
        <ele>15.5184</ele>
        <time>2013-05-01T10:37:26Z</time>
      </trkpt>
      <trkpt lat="59.8768271" lon="17.6811837">
        <ele>15.5184</ele>
        <time>2013-05-01T10:37:27Z</time>
      </trkpt>
      <trkpt lat="59.8767803" lon="17.6812802">
        <ele>15.0377</ele>
        <time>2013-05-01T10:37:28Z</time>
      </trkpt>
      <trkpt lat="59.8767347" lon="17.6813781">
        <ele>15.0377</ele>
        <time>2013-05-01T10:37:29Z</time>
      </trkpt>
      <trkpt lat="59.8766877" lon="17.6814746">
        <ele>14.557</ele>
        <time>2013-05-01T10:37:30Z</time>
      </trkpt>
      <trkpt lat="59.8766409" lon="17.6815698">
        <ele>14.557</ele>
        <time>2013-05-01T10:37:31Z</time>
      </trkpt>
      <trkpt lat="59.8765947" lon="17.6816677">
        <ele>14.557</ele>
        <time>2013-05-01T10:37:32Z</time>
      </trkpt>
      <trkpt lat="59.8765491" lon="17.6817655">
        <ele>14.557</ele>
        <time>2013-05-01T10:37:33Z</time>
      </trkpt>
      <trkpt lat="59.8765037" lon="17.6818581">
        <ele>14.557</ele>
        <time>2013-05-01T10:37:34Z</time>
      </trkpt>
      <trkpt lat="59.8764592" lon="17.6819479">
        <ele>15.0377</ele>
        <time>2013-05-01T10:37:35Z</time>
      </trkpt>
      <trkpt lat="59.8764145" lon="17.6820422">
        <ele>15.0377</ele>
        <time>2013-05-01T10:37:36Z</time>
      </trkpt>
      <trkpt lat="59.8763676" lon="17.6821406">
        <ele>15.0377</ele>
        <time>2013-05-01T10:37:37Z</time>
      </trkpt>
      <trkpt lat="59.8763202" lon="17.6822432">
        <ele>15.0377</ele>
        <time>2013-05-01T10:37:38Z</time>
      </trkpt>
      <trkpt lat="59.8762717" lon="17.6823463">
        <ele>15.0377</ele>
        <time>2013-05-01T10:37:39Z</time>
      </trkpt>
      <trkpt lat="59.8762223" lon="17.6824493">
        <ele>14.557</ele>
        <time>2013-05-01T10:37:40Z</time>
      </trkpt>
      <trkpt lat="59.876173" lon="17.6825561">
        <ele>14.0764</ele>
        <time>2013-05-01T10:37:41Z</time>
      </trkpt>
      <trkpt lat="59.8761223" lon="17.6826659">
        <ele>14.0764</ele>
        <time>2013-05-01T10:37:42Z</time>
      </trkpt>
      <trkpt lat="59.8760685" lon="17.6827799">
        <ele>14.0764</ele>
        <time>2013-05-01T10:37:43Z</time>
      </trkpt>
      <trkpt lat="59.8760171" lon="17.6828923">
        <ele>14.0764</ele>
        <time>2013-05-01T10:37:44Z</time>
      </trkpt>
      <trkpt lat="59.8759649" lon="17.6830057">
        <ele>13.5958</ele>
        <time>2013-05-01T10:37:45Z</time>
      </trkpt>
      <trkpt lat="59.8759117" lon="17.6831184">
        <ele>13.1151</ele>
        <time>2013-05-01T10:37:46Z</time>
      </trkpt>
      <trkpt lat="59.8758583" lon="17.6832314">
        <ele>13.1151</ele>
        <time>2013-05-01T10:37:47Z</time>
      </trkpt>
      <trkpt lat="59.8757945" lon="17.6833699">
        <ele>13.5958</ele>
        <time>2013-05-01T10:37:48Z</time>
      </trkpt>
      <trkpt lat="59.8757291" lon="17.6835041">
        <ele>13.1151</ele>
        <time>2013-05-01T10:37:49Z</time>
      </trkpt>
      <trkpt lat="59.8756671" lon="17.6836361">
        <ele>13.1151</ele>
        <time>2013-05-01T10:37:50Z</time>
      </trkpt>
      <trkpt lat="59.8756089" lon="17.683762">
        <ele>13.1151</ele>
        <time>2013-05-01T10:37:51Z</time>
      </trkpt>
      <trkpt lat="59.8755494" lon="17.6838894">
        <ele>12.6344</ele>
        <time>2013-05-01T10:37:52Z</time>
      </trkpt>
      <trkpt lat="59.8754903" lon="17.6840167">
        <ele>12.1538</ele>
        <time>2013-05-01T10:37:53Z</time>
      </trkpt>
      <trkpt lat="59.8754304" lon="17.6841439">
        <ele>12.1538</ele>
        <time>2013-05-01T10:37:54Z</time>
      </trkpt>
      <trkpt lat="59.8753728" lon="17.684261">
        <ele>11.6732</ele>
        <time>2013-05-01T10:37:55Z</time>
      </trkpt>
      <trkpt lat="59.8753139" lon="17.6843831">
        <ele>11.1925</ele>
        <time>2013-05-01T10:37:56Z</time>
      </trkpt>
      <trkpt lat="59.8752551" lon="17.6845082">
        <ele>10.7118</ele>
        <time>2013-05-01T10:37:57Z</time>
      </trkpt>
      <trkpt lat="59.8751943" lon="17.6846347">
        <ele>10.7118</ele>
        <time>2013-05-01T10:37:58Z</time>
      </trkpt>
      <trkpt lat="59.8751324" lon="17.6847657">
        <ele>10.2312</ele>
        <time>2013-05-01T10:37:59Z</time>
      </trkpt>
      <trkpt lat="59.8750709" lon="17.6848964">
        <ele>10.2312</ele>
        <time>2013-05-01T10:38:00Z</time>
      </trkpt>
      <trkpt lat="59.8750089" lon="17.6850285">
        <ele>10.2312</ele>
        <time>2013-05-01T10:38:01Z</time>
      </trkpt>
      <trkpt lat="59.8749471" lon="17.6851606">
        <ele>10.2312</ele>
        <time>2013-05-01T10:38:02Z</time>
      </trkpt>
      <trkpt lat="59.8748859" lon="17.6852926">
        <ele>9.75061</ele>
        <time>2013-05-01T10:38:03Z</time>
      </trkpt>
      <trkpt lat="59.8748253" lon="17.6854254">
        <ele>9.75061</ele>
        <time>2013-05-01T10:38:04Z</time>
      </trkpt>
      <trkpt lat="59.8747643" lon="17.6855603">
        <ele>9.75061</ele>
        <time>2013-05-01T10:38:05Z</time>
      </trkpt>
      <trkpt lat="59.8747019" lon="17.6856978">
        <ele>9.75061</ele>
        <time>2013-05-01T10:38:06Z</time>
      </trkpt>
      <trkpt lat="59.8746382" lon="17.6858382">
        <ele>9.75061</ele>
        <time>2013-05-01T10:38:07Z</time>
      </trkpt>
      <trkpt lat="59.8745752" lon="17.6859773">
        <ele>9.75061</ele>
        <time>2013-05-01T10:38:08Z</time>
      </trkpt>
      <trkpt lat="59.8745146" lon="17.6861164">
        <ele>9.75061</ele>
        <time>2013-05-01T10:38:09Z</time>
      </trkpt>
      <trkpt lat="59.8744567" lon="17.686254">
        <ele>9.75061</ele>
        <time>2013-05-01T10:38:10Z</time>
      </trkpt>
      <trkpt lat="59.8743996" lon="17.6863881">
        <ele>9.75061</ele>
        <time>2013-05-01T10:38:11Z</time>
      </trkpt>
      <trkpt lat="59.8743414" lon="17.6865177">
        <ele>9.75061</ele>
        <time>2013-05-01T10:38:12Z</time>
      </trkpt>
      <trkpt lat="59.874282" lon="17.6866411">
        <ele>10.2312</ele>
        <time>2013-05-01T10:38:13Z</time>
      </trkpt>
      <trkpt lat="59.874224" lon="17.6867619">
        <ele>10.2312</ele>
        <time>2013-05-01T10:38:14Z</time>
      </trkpt>
      <trkpt lat="59.8741683" lon="17.6868819">
        <ele>10.2312</ele>
        <time>2013-05-01T10:38:15Z</time>
      </trkpt>
      <trkpt lat="59.8741142" lon="17.6870006">
        <ele>10.2312</ele>
        <time>2013-05-01T10:38:16Z</time>
      </trkpt>
      <trkpt lat="59.8740625" lon="17.6871186">
        <ele>10.2312</ele>
        <time>2013-05-01T10:38:17Z</time>
      </trkpt>
      <trkpt lat="59.8740137" lon="17.6872363">
        <ele>10.7118</ele>
        <time>2013-05-01T10:38:18Z</time>
      </trkpt>
      <trkpt lat="59.8739694" lon="17.687357">
        <ele>10.7118</ele>
        <time>2013-05-01T10:38:19Z</time>
      </trkpt>
      <trkpt lat="59.8739318" lon="17.6874874">
        <ele>10.2312</ele>
        <time>2013-05-01T10:38:20Z</time>
      </trkpt>
      <trkpt lat="59.8739075" lon="17.6876265">
        <ele>10.2312</ele>
        <time>2013-05-01T10:38:21Z</time>
      </trkpt>
      <trkpt lat="59.8739028" lon="17.6877582">
        <ele>10.7118</ele>
        <time>2013-05-01T10:38:22Z</time>
      </trkpt>
      <trkpt lat="59.8739088" lon="17.6878854">
        <ele>11.6732</ele>
        <time>2013-05-01T10:38:23Z</time>
      </trkpt>
      <trkpt lat="59.873924" lon="17.6880095">
        <ele>12.1538</ele>
        <time>2013-05-01T10:38:24Z</time>
      </trkpt>
      <trkpt lat="59.8739448" lon="17.6881391">
        <ele>12.1538</ele>
        <time>2013-05-01T10:38:25Z</time>
      </trkpt>
      <trkpt lat="59.8739717" lon="17.688266">
        <ele>12.6344</ele>
        <time>2013-05-01T10:38:26Z</time>
      </trkpt>
      <trkpt lat="59.8740015" lon="17.6883885">
        <ele>12.6344</ele>
        <time>2013-05-01T10:38:27Z</time>
      </trkpt>
      <trkpt lat="59.8740318" lon="17.6885148">
        <ele>12.6344</ele>
        <time>2013-05-01T10:38:28Z</time>
      </trkpt>
      <trkpt lat="59.8740629" lon="17.6886441">
        <ele>12.6344</ele>
        <time>2013-05-01T10:38:29Z</time>
      </trkpt>
      <trkpt lat="59.8740955" lon="17.6887744">
        <ele>13.1151</ele>
        <time>2013-05-01T10:38:30Z</time>
      </trkpt>
      <trkpt lat="59.8741276" lon="17.6889057">
        <ele>13.1151</ele>
        <time>2013-05-01T10:38:31Z</time>
      </trkpt>
      <trkpt lat="59.8741614" lon="17.6890369">
        <ele>13.5958</ele>
        <time>2013-05-01T10:38:32Z</time>
      </trkpt>
      <trkpt lat="59.8741969" lon="17.6891683">
        <ele>14.0764</ele>
        <time>2013-05-01T10:38:33Z</time>
      </trkpt>
      <trkpt lat="59.8742333" lon="17.6892994">
        <ele>14.0764</ele>
        <time>2013-05-01T10:38:34Z</time>
      </trkpt>
      <trkpt lat="59.8742691" lon="17.6894306">
        <ele>14.557</ele>
        <time>2013-05-01T10:38:35Z</time>
      </trkpt>
      <trkpt lat="59.8743052" lon="17.6895636">
        <ele>14.557</ele>
        <time>2013-05-01T10:38:36Z</time>
      </trkpt>
      <trkpt lat="59.8743415" lon="17.6896983">
        <ele>15.0377</ele>
        <time>2013-05-01T10:38:37Z</time>
      </trkpt>
      <trkpt lat="59.8743792" lon="17.6898327">
        <ele>15.0377</ele>
        <time>2013-05-01T10:38:38Z</time>
      </trkpt>
      <trkpt lat="59.8744185" lon="17.689967">
        <ele>15.5184</ele>
        <time>2013-05-01T10:38:39Z</time>
      </trkpt>
      <trkpt lat="59.8744576" lon="17.6901008">
        <ele>15.5184</ele>
        <time>2013-05-01T10:38:40Z</time>
      </trkpt>
      <trkpt lat="59.8744969" lon="17.6902329">
        <ele>15.999</ele>
        <time>2013-05-01T10:38:41Z</time>
      </trkpt>
      <trkpt lat="59.8745384" lon="17.6903625">
        <ele>16.4797</ele>
        <time>2013-05-01T10:38:42Z</time>
      </trkpt>
      <trkpt lat="59.8745828" lon="17.690489">
        <ele>16.9604</ele>
        <time>2013-05-01T10:38:43Z</time>
      </trkpt>
      <trkpt lat="59.8746309" lon="17.690613">
        <ele>17.9218</ele>
        <time>2013-05-01T10:38:44Z</time>
      </trkpt>
      <trkpt lat="59.8746758" lon="17.6907339">
        <ele>18.4023</ele>
        <time>2013-05-01T10:38:45Z</time>
      </trkpt>
      <trkpt lat="59.8747202" lon="17.6908557">
        <ele>18.4023</ele>
        <time>2013-05-01T10:38:46Z</time>
      </trkpt>
      <trkpt lat="59.8747657" lon="17.6909769">
        <ele>18.8831</ele>
        <time>2013-05-01T10:38:47Z</time>
      </trkpt>
      <trkpt lat="59.874812" lon="17.6910955">
        <ele>18.8831</ele>
        <time>2013-05-01T10:38:48Z</time>
      </trkpt>
      <trkpt lat="59.8748583" lon="17.6912105">
        <ele>19.3638</ele>
        <time>2013-05-01T10:38:49Z</time>
      </trkpt>
      <trkpt lat="59.874905" lon="17.6913244">
        <ele>19.3638</ele>
        <time>2013-05-01T10:38:50Z</time>
      </trkpt>
      <trkpt lat="59.8749506" lon="17.6914327">
        <ele>19.3638</ele>
        <time>2013-05-01T10:38:51Z</time>
      </trkpt>
      <trkpt lat="59.8749982" lon="17.6915382">
        <ele>19.8444</ele>
        <time>2013-05-01T10:38:52Z</time>
      </trkpt>
      <trkpt lat="59.8750495" lon="17.6916397">
        <ele>19.8444</ele>
        <time>2013-05-01T10:38:53Z</time>
      </trkpt>
      <trkpt lat="59.8750994" lon="17.6917382">
        <ele>19.8444</ele>
        <time>2013-05-01T10:38:54Z</time>
      </trkpt>
      <trkpt lat="59.8751419" lon="17.6918378">
        <ele>19.8444</ele>
        <time>2013-05-01T10:38:55Z</time>
      </trkpt>
      <trkpt lat="59.8751749" lon="17.6919453">
        <ele>19.8444</ele>
        <time>2013-05-01T10:38:56Z</time>
      </trkpt>
      <trkpt lat="59.8751958" lon="17.6920641">
        <ele>19.8444</ele>
        <time>2013-05-01T10:38:57Z</time>
      </trkpt>
      <trkpt lat="59.8751844" lon="17.6921932">
        <ele>19.8444</ele>
        <time>2013-05-01T10:38:58Z</time>
      </trkpt>
      <trkpt lat="59.8751476" lon="17.6923112">
        <ele>19.8444</ele>
        <time>2013-05-01T10:38:59Z</time>
      </trkpt>
      <trkpt lat="59.8750979" lon="17.6924169">
        <ele>19.8444</ele>
        <time>2013-05-01T10:39:00Z</time>
      </trkpt>
      <trkpt lat="59.8750443" lon="17.6925193">
        <ele>20.325</ele>
        <time>2013-05-01T10:39:01Z</time>
      </trkpt>
      <trkpt lat="59.8749894" lon="17.6926209">
        <ele>20.325</ele>
        <time>2013-05-01T10:39:02Z</time>
      </trkpt>
      <trkpt lat="59.8749338" lon="17.6927218">
        <ele>20.325</ele>
        <time>2013-05-01T10:39:03Z</time>
      </trkpt>
      <trkpt lat="59.8748787" lon="17.6928242">
        <ele>20.325</ele>
        <time>2013-05-01T10:39:04Z</time>
      </trkpt>
      <trkpt lat="59.8748244" lon="17.6929303">
        <ele>20.325</ele>
        <time>2013-05-01T10:39:05Z</time>
      </trkpt>
      <trkpt lat="59.8747696" lon="17.6930385">
        <ele>20.325</ele>
        <time>2013-05-01T10:39:06Z</time>
      </trkpt>
      <trkpt lat="59.8747135" lon="17.6931447">
        <ele>20.325</ele>
        <time>2013-05-01T10:39:07Z</time>
      </trkpt>
      <trkpt lat="59.874656" lon="17.6932488">
        <ele>20.8057</ele>
        <time>2013-05-01T10:39:08Z</time>
      </trkpt>
      <trkpt lat="59.874599" lon="17.6933549">
        <ele>20.8057</ele>
        <time>2013-05-01T10:39:09Z</time>
      </trkpt>
      <trkpt lat="59.8745432" lon="17.6934662">
        <ele>20.8057</ele>
        <time>2013-05-01T10:39:10Z</time>
      </trkpt>
      <trkpt lat="59.8744866" lon="17.6935788">
        <ele>20.8057</ele>
        <time>2013-05-01T10:39:11Z</time>
      </trkpt>
      <trkpt lat="59.8744281" lon="17.6936907">
        <ele>20.8057</ele>
        <time>2013-05-01T10:39:12Z</time>
      </trkpt>
      <trkpt lat="59.8743685" lon="17.6938016">
        <ele>20.8057</ele>
        <time>2013-05-01T10:39:13Z</time>
      </trkpt>
      <trkpt lat="59.8743074" lon="17.6939107">
        <ele>20.8057</ele>
        <time>2013-05-01T10:39:14Z</time>
      </trkpt>
      <trkpt lat="59.8742448" lon="17.6940145">
        <ele>20.8057</ele>
        <time>2013-05-01T10:39:15Z</time>
      </trkpt>
      <trkpt lat="59.8741821" lon="17.6941149">
        <ele>20.325</ele>
        <time>2013-05-01T10:39:16Z</time>
      </trkpt>
      <trkpt lat="59.8741219" lon="17.6942054">
        <ele>20.8057</ele>
        <time>2013-05-01T10:39:17Z</time>
      </trkpt>
      <trkpt lat="59.8740616" lon="17.69429">
        <ele>20.8057</ele>
        <time>2013-05-01T10:39:18Z</time>
      </trkpt>
      <trkpt lat="59.8740007" lon="17.6943696">
        <ele>20.8057</ele>
        <time>2013-05-01T10:39:19Z</time>
      </trkpt>
      <trkpt lat="59.8739384" lon="17.6944469">
        <ele>20.8057</ele>
        <time>2013-05-01T10:39:20Z</time>
      </trkpt>
      <trkpt lat="59.8738744" lon="17.6945222">
        <ele>19.8444</ele>
        <time>2013-05-01T10:39:21Z</time>
      </trkpt>
      <trkpt lat="59.8738111" lon="17.6945883">
        <ele>19.8444</ele>
        <time>2013-05-01T10:39:22Z</time>
      </trkpt>
      <trkpt lat="59.8737472" lon="17.6946489">
        <ele>19.8444</ele>
        <time>2013-05-01T10:39:23Z</time>
      </trkpt>
      <trkpt lat="59.8736811" lon="17.6947095">
        <ele>19.8444</ele>
        <time>2013-05-01T10:39:24Z</time>
      </trkpt>
      <trkpt lat="59.8736132" lon="17.6947634">
        <ele>19.8444</ele>
        <time>2013-05-01T10:39:25Z</time>
      </trkpt>
      <trkpt lat="59.8735444" lon="17.6948099">
        <ele>19.8444</ele>
        <time>2013-05-01T10:39:26Z</time>
      </trkpt>
      <trkpt lat="59.8734747" lon="17.6948491">
        <ele>20.325</ele>
        <time>2013-05-01T10:39:27Z</time>
      </trkpt>
      <trkpt lat="59.8734049" lon="17.6948843">
        <ele>20.325</ele>
        <time>2013-05-01T10:39:28Z</time>
      </trkpt>
      <trkpt lat="59.8733344" lon="17.6949172">
        <ele>20.8057</ele>
        <time>2013-05-01T10:39:29Z</time>
      </trkpt>
      <trkpt lat="59.8732623" lon="17.694949">
        <ele>21.2864</ele>
        <time>2013-05-01T10:39:30Z</time>
      </trkpt>
      <trkpt lat="59.87319" lon="17.6949765">
        <ele>21.2864</ele>
        <time>2013-05-01T10:39:31Z</time>
      </trkpt>
      <trkpt lat="59.8731174" lon="17.6949983">
        <ele>21.767</ele>
        <time>2013-05-01T10:39:32Z</time>
      </trkpt>
      <trkpt lat="59.8730454" lon="17.6950157">
        <ele>22.2476</ele>
        <time>2013-05-01T10:39:33Z</time>
      </trkpt>
      <trkpt lat="59.8729741" lon="17.6950349">
        <ele>22.7283</ele>
        <time>2013-05-01T10:39:34Z</time>
      </trkpt>
      <trkpt lat="59.8729029" lon="17.6950571">
        <ele>22.7283</ele>
        <time>2013-05-01T10:39:35Z</time>
      </trkpt>
      <trkpt lat="59.87283" lon="17.6950785">
        <ele>23.209</ele>
        <time>2013-05-01T10:39:36Z</time>
      </trkpt>
      <trkpt lat="59.8727554" lon="17.6950979">
        <ele>23.6896</ele>
        <time>2013-05-01T10:39:37Z</time>
      </trkpt>
      <trkpt lat="59.8726798" lon="17.695119">
        <ele>23.6896</ele>
        <time>2013-05-01T10:39:38Z</time>
      </trkpt>
      <trkpt lat="59.872605" lon="17.6951427">
        <ele>24.1703</ele>
        <time>2013-05-01T10:39:39Z</time>
      </trkpt>
      <trkpt lat="59.8725302" lon="17.6951677">
        <ele>24.1703</ele>
        <time>2013-05-01T10:39:40Z</time>
      </trkpt>
      <trkpt lat="59.8724555" lon="17.6951906">
        <ele>24.651</ele>
        <time>2013-05-01T10:39:41Z</time>
      </trkpt>
      <trkpt lat="59.872383" lon="17.6952151">
        <ele>24.651</ele>
        <time>2013-05-01T10:39:42Z</time>
      </trkpt>
      <trkpt lat="59.8723098" lon="17.6952401">
        <ele>25.1317</ele>
        <time>2013-05-01T10:39:43Z</time>
      </trkpt>
      <trkpt lat="59.8722356" lon="17.6952709">
        <ele>25.1317</ele>
        <time>2013-05-01T10:39:44Z</time>
      </trkpt>
      <trkpt lat="59.8721614" lon="17.6953042">
        <ele>25.1317</ele>
        <time>2013-05-01T10:39:45Z</time>
      </trkpt>
      <trkpt lat="59.8720859" lon="17.6953384">
        <ele>25.1317</ele>
        <time>2013-05-01T10:39:46Z</time>
      </trkpt>
      <trkpt lat="59.8720098" lon="17.6953665">
        <ele>25.1317</ele>
        <time>2013-05-01T10:39:47Z</time>
      </trkpt>
      <trkpt lat="59.8719357" lon="17.6953851">
        <ele>25.6123</ele>
        <time>2013-05-01T10:39:48Z</time>
      </trkpt>
      <trkpt lat="59.8718642" lon="17.6954048">
        <ele>25.6123</ele>
        <time>2013-05-01T10:39:49Z</time>
      </trkpt>
      <trkpt lat="59.8717951" lon="17.6954386">
        <ele>25.6123</ele>
        <time>2013-05-01T10:39:50Z</time>
      </trkpt>
      <trkpt lat="59.8717264" lon="17.6954829">
        <ele>25.6123</ele>
        <time>2013-05-01T10:39:51Z</time>
      </trkpt>
      <trkpt lat="59.8716602" lon="17.6955332">
        <ele>25.6123</ele>
        <time>2013-05-01T10:39:52Z</time>
      </trkpt>
      <trkpt lat="59.8715952" lon="17.6955885">
        <ele>25.6123</ele>
        <time>2013-05-01T10:39:53Z</time>
      </trkpt>
      <trkpt lat="59.8715303" lon="17.6956413">
        <ele>25.1317</ele>
        <time>2013-05-01T10:39:54Z</time>
      </trkpt>
      <trkpt lat="59.8714623" lon="17.6956999">
        <ele>25.1317</ele>
        <time>2013-05-01T10:39:55Z</time>
      </trkpt>
      <trkpt lat="59.8713935" lon="17.6957606">
        <ele>25.1317</ele>
        <time>2013-05-01T10:39:56Z</time>
      </trkpt>
      <trkpt lat="59.8713247" lon="17.6958235">
        <ele>25.1317</ele>
        <time>2013-05-01T10:39:57Z</time>
      </trkpt>
      <trkpt lat="59.8712571" lon="17.6958851">
        <ele>25.1317</ele>
        <time>2013-05-01T10:39:58Z</time>
      </trkpt>
      <trkpt lat="59.8711864" lon="17.6959611">
        <ele>25.1317</ele>
        <time>2013-05-01T10:39:59Z</time>
      </trkpt>
      <trkpt lat="59.8711148" lon="17.6960452">
        <ele>25.1317</ele>
        <time>2013-05-01T10:40:00Z</time>
      </trkpt>
      <trkpt lat="59.8710455" lon="17.6961282">
        <ele>25.1317</ele>
        <time>2013-05-01T10:40:01Z</time>
      </trkpt>
      <trkpt lat="59.8709796" lon="17.6962072">
        <ele>25.1317</ele>
        <time>2013-05-01T10:40:02Z</time>
      </trkpt>
      <trkpt lat="59.8709261" lon="17.6962704">
        <ele>24.651</ele>
        <time>2013-05-01T10:40:03Z</time>
      </trkpt>
      <trkpt lat="59.8708797" lon="17.6963357">
        <ele>24.651</ele>
        <time>2013-05-01T10:40:04Z</time>
      </trkpt>
      <trkpt lat="59.8708346" lon="17.6963994">
        <ele>24.651</ele>
        <time>2013-05-01T10:40:05Z</time>
      </trkpt>
      <trkpt lat="59.8707865" lon="17.6964611">
        <ele>24.651</ele>
        <time>2013-05-01T10:40:06Z</time>
      </trkpt>
      <trkpt lat="59.8707343" lon="17.6965252">
        <ele>24.651</ele>
        <time>2013-05-01T10:40:07Z</time>
      </trkpt>
      <trkpt lat="59.8706799" lon="17.6965817">
        <ele>24.1703</ele>
        <time>2013-05-01T10:40:08Z</time>
      </trkpt>
      <trkpt lat="59.8706236" lon="17.696634">
        <ele>24.1703</ele>
        <time>2013-05-01T10:40:09Z</time>
      </trkpt>
      <trkpt lat="59.8705658" lon="17.6966849">
        <ele>23.6896</ele>
        <time>2013-05-01T10:40:10Z</time>
      </trkpt>
      <trkpt lat="59.8705066" lon="17.6967351">
        <ele>23.6896</ele>
        <time>2013-05-01T10:40:11Z</time>
      </trkpt>
      <trkpt lat="59.870446" lon="17.6967822">
        <ele>23.6896</ele>
        <time>2013-05-01T10:40:12Z</time>
      </trkpt>
      <trkpt lat="59.8703861" lon="17.6968186">
        <ele>24.1703</ele>
        <time>2013-05-01T10:40:13Z</time>
      </trkpt>
      <trkpt lat="59.8703265" lon="17.6968449">
        <ele>24.1703</ele>
        <time>2013-05-01T10:40:14Z</time>
      </trkpt>
      <trkpt lat="59.8702525" lon="17.6968578">
        <ele>24.651</ele>
        <time>2013-05-01T10:40:15Z</time>
      </trkpt>
      <trkpt lat="59.8701885" lon="17.6968832">
        <ele>25.1317</ele>
        <time>2013-05-01T10:40:16Z</time>
      </trkpt>
      <trkpt lat="59.870126" lon="17.6968982">
        <ele>25.1317</ele>
        <time>2013-05-01T10:40:17Z</time>
      </trkpt>
      <trkpt lat="59.8700623" lon="17.6969065">
        <ele>25.6123</ele>
        <time>2013-05-01T10:40:18Z</time>
      </trkpt>
      <trkpt lat="59.8699978" lon="17.6969076">
        <ele>25.6123</ele>
        <time>2013-05-01T10:40:19Z</time>
      </trkpt>
      <trkpt lat="59.8699323" lon="17.6969099">
        <ele>25.6123</ele>
        <time>2013-05-01T10:40:20Z</time>
      </trkpt>
      <trkpt lat="59.8698664" lon="17.6969174">
        <ele>25.6123</ele>
        <time>2013-05-01T10:40:21Z</time>
      </trkpt>
      <trkpt lat="59.8697965" lon="17.696935">
        <ele>25.6123</ele>
        <time>2013-05-01T10:40:22Z</time>
      </trkpt>
      <trkpt lat="59.8697293" lon="17.6969537">
        <ele>25.6123</ele>
        <time>2013-05-01T10:40:23Z</time>
      </trkpt>
      <trkpt lat="59.8696671" lon="17.696975">
        <ele>25.6123</ele>
        <time>2013-05-01T10:40:24Z</time>
      </trkpt>
      <trkpt lat="59.869608" lon="17.6970185">
        <ele>25.6123</ele>
        <time>2013-05-01T10:40:25Z</time>
      </trkpt>
      <trkpt lat="59.8695496" lon="17.6970773">
        <ele>25.6123</ele>
        <time>2013-05-01T10:40:26Z</time>
      </trkpt>
      <trkpt lat="59.8695014" lon="17.6971157">
        <ele>25.6123</ele>
        <time>2013-05-01T10:40:27Z</time>
      </trkpt>
      <trkpt lat="59.8694505" lon="17.6971736">
        <ele>25.1317</ele>
        <time>2013-05-01T10:40:28Z</time>
      </trkpt>
      <trkpt lat="59.8693978" lon="17.6972509">
        <ele>25.1317</ele>
        <time>2013-05-01T10:40:29Z</time>
      </trkpt>
      <trkpt lat="59.8693459" lon="17.6973079">
        <ele>25.1317</ele>
        <time>2013-05-01T10:40:30Z</time>
      </trkpt>
      <trkpt lat="59.8692913" lon="17.6973868">
        <ele>24.651</ele>
        <time>2013-05-01T10:40:31Z</time>
      </trkpt>
      <trkpt lat="59.8692454" lon="17.6974307">
        <ele>24.651</ele>
        <time>2013-05-01T10:40:32Z</time>
      </trkpt>
      <trkpt lat="59.8691941" lon="17.6974955">
        <ele>25.1317</ele>
        <time>2013-05-01T10:40:33Z</time>
      </trkpt>
      <trkpt lat="59.8691485" lon="17.6975663">
        <ele>25.1317</ele>
        <time>2013-05-01T10:40:34Z</time>
      </trkpt>
      <trkpt lat="59.8691112" lon="17.6976488">
        <ele>25.6123</ele>
        <time>2013-05-01T10:40:35Z</time>
      </trkpt>
      <trkpt lat="59.8690838" lon="17.6977461">
        <ele>25.6123</ele>
        <time>2013-05-01T10:40:36Z</time>
      </trkpt>
      <trkpt lat="59.8690644" lon="17.6978716">
        <ele>25.6123</ele>
        <time>2013-05-01T10:40:37Z</time>
      </trkpt>
      <trkpt lat="59.8690672" lon="17.6979794">
        <ele>25.1317</ele>
        <time>2013-05-01T10:40:38Z</time>
      </trkpt>
      <trkpt lat="59.8690823" lon="17.6980828">
        <ele>25.1317</ele>
        <time>2013-05-01T10:40:39Z</time>
      </trkpt>
      <trkpt lat="59.8690988" lon="17.6981875">
        <ele>25.1317</ele>
        <time>2013-05-01T10:40:40Z</time>
      </trkpt>
      <trkpt lat="59.8691221" lon="17.698287">
        <ele>25.1317</ele>
        <time>2013-05-01T10:40:41Z</time>
      </trkpt>
      <trkpt lat="59.8691504" lon="17.6983963">
        <ele>26.0929</ele>
        <time>2013-05-01T10:40:42Z</time>
      </trkpt>
      <trkpt lat="59.8691641" lon="17.6984994">
        <ele>26.5736</ele>
        <time>2013-05-01T10:40:43Z</time>
      </trkpt>
      <trkpt lat="59.8691692" lon="17.698591">
        <ele>26.5736</ele>
        <time>2013-05-01T10:40:44Z</time>
      </trkpt>
      <trkpt lat="59.8691782" lon="17.6986818">
        <ele>26.0929</ele>
        <time>2013-05-01T10:40:45Z</time>
      </trkpt>
      <trkpt lat="59.869188" lon="17.698777">
        <ele>26.0929</ele>
        <time>2013-05-01T10:40:46Z</time>
      </trkpt>
      <trkpt lat="59.8691998" lon="17.6988817">
        <ele>26.0929</ele>
        <time>2013-05-01T10:40:47Z</time>
      </trkpt>
      <trkpt lat="59.8692141" lon="17.6990313">
        <ele>25.6123</ele>
        <time>2013-05-01T10:40:48Z</time>
      </trkpt>
      <trkpt lat="59.8692217" lon="17.6991413">
        <ele>25.6123</ele>
        <time>2013-05-01T10:40:49Z</time>
      </trkpt>
      <trkpt lat="59.8692331" lon="17.6992562">
        <ele>25.1317</ele>
        <time>2013-05-01T10:40:50Z</time>
      </trkpt>
      <trkpt lat="59.8692495" lon="17.6993654">
        <ele>25.1317</ele>
        <time>2013-05-01T10:40:51Z</time>
      </trkpt>
      <trkpt lat="59.8692485" lon="17.6994774">
        <ele>24.651</ele>
        <time>2013-05-01T10:40:52Z</time>
      </trkpt>
      <trkpt lat="59.8692538" lon="17.6995953">
        <ele>24.1703</ele>
        <time>2013-05-01T10:40:53Z</time>
      </trkpt>
      <trkpt lat="59.8692651" lon="17.6997038">
        <ele>24.1703</ele>
        <time>2013-05-01T10:40:54Z</time>
      </trkpt>
      <trkpt lat="59.8692732" lon="17.6997916">
        <ele>23.6896</ele>
        <time>2013-05-01T10:40:55Z</time>
      </trkpt>
      <trkpt lat="59.8692785" lon="17.6998529">
        <ele>23.6896</ele>
        <time>2013-05-01T10:40:56Z</time>
      </trkpt>
      <trkpt lat="59.8692766" lon="17.6998944">
        <ele>23.6896</ele>
        <time>2013-05-01T10:40:57Z</time>
      </trkpt>
      <trkpt lat="59.8692654" lon="17.6999232">
        <ele>23.6896</ele>
        <time>2013-05-01T10:40:58Z</time>
      </trkpt>
      <trkpt lat="59.8692463" lon="17.6999367">
        <ele>23.6896</ele>
        <time>2013-05-01T10:40:59Z</time>
      </trkpt>
      <trkpt lat="59.8692216" lon="17.6999427">
        <ele>23.209</ele>
        <time>2013-05-01T10:41:00Z</time>
      </trkpt>
      <trkpt lat="59.8691901" lon="17.6999514">
        <ele>23.209</ele>
        <time>2013-05-01T10:41:01Z</time>
      </trkpt>
      <trkpt lat="59.8691537" lon="17.6999641">
        <ele>23.209</ele>
        <time>2013-05-01T10:41:02Z</time>
      </trkpt>
      <trkpt lat="59.8691133" lon="17.6999836">
        <ele>23.209</ele>
        <time>2013-05-01T10:41:03Z</time>
      </trkpt>
      <trkpt lat="59.8690682" lon="17.7000113">
        <ele>22.7283</ele>
        <time>2013-05-01T10:41:04Z</time>
      </trkpt>
      <trkpt lat="59.8690191" lon="17.7000462">
        <ele>22.7283</ele>
        <time>2013-05-01T10:41:05Z</time>
      </trkpt>
      <trkpt lat="59.8689696" lon="17.7000845">
        <ele>22.2476</ele>
        <time>2013-05-01T10:41:06Z</time>
      </trkpt>
      <trkpt lat="59.868921" lon="17.7001223">
        <ele>22.2476</ele>
        <time>2013-05-01T10:41:07Z</time>
      </trkpt>
      <trkpt lat="59.8688735" lon="17.7001555">
        <ele>21.767</ele>
        <time>2013-05-01T10:41:08Z</time>
      </trkpt>
      <trkpt lat="59.8688232" lon="17.700185">
        <ele>21.767</ele>
        <time>2013-05-01T10:41:09Z</time>
      </trkpt>
      <trkpt lat="59.8687717" lon="17.7002133">
        <ele>21.767</ele>
        <time>2013-05-01T10:41:10Z</time>
      </trkpt>
      <trkpt lat="59.8687195" lon="17.7002495">
        <ele>21.767</ele>
        <time>2013-05-01T10:41:11Z</time>
      </trkpt>
      <trkpt lat="59.8686664" lon="17.700286">
        <ele>22.2476</ele>
        <time>2013-05-01T10:41:12Z</time>
      </trkpt>
      <trkpt lat="59.8686124" lon="17.7003228">
        <ele>22.2476</ele>
        <time>2013-05-01T10:41:13Z</time>
      </trkpt>
      <trkpt lat="59.868556" lon="17.7003636">
        <ele>22.2476</ele>
        <time>2013-05-01T10:41:14Z</time>
      </trkpt>
      <trkpt lat="59.8684987" lon="17.7004018">
        <ele>22.2476</ele>
        <time>2013-05-01T10:41:15Z</time>
      </trkpt>
      <trkpt lat="59.86844" lon="17.7004403">
        <ele>22.2476</ele>
        <time>2013-05-01T10:41:16Z</time>
      </trkpt>
      <trkpt lat="59.8683807" lon="17.7004823">
        <ele>22.2476</ele>
        <time>2013-05-01T10:41:17Z</time>
      </trkpt>
      <trkpt lat="59.8683205" lon="17.7005264">
        <ele>21.767</ele>
        <time>2013-05-01T10:41:18Z</time>
      </trkpt>
      <trkpt lat="59.8682596" lon="17.7005669">
        <ele>21.767</ele>
        <time>2013-05-01T10:41:19Z</time>
      </trkpt>
      <trkpt lat="59.8681973" lon="17.7006047">
        <ele>21.767</ele>
        <time>2013-05-01T10:41:20Z</time>
      </trkpt>
      <trkpt lat="59.8681332" lon="17.7006393">
        <ele>22.2476</ele>
        <time>2013-05-01T10:41:21Z</time>
      </trkpt>
      <trkpt lat="59.8680683" lon="17.7006736">
        <ele>22.2476</ele>
        <time>2013-05-01T10:41:22Z</time>
      </trkpt>
      <trkpt lat="59.8680023" lon="17.7007154">
        <ele>22.2476</ele>
        <time>2013-05-01T10:41:23Z</time>
      </trkpt>
      <trkpt lat="59.8679352" lon="17.7007569">
        <ele>22.2476</ele>
        <time>2013-05-01T10:41:24Z</time>
      </trkpt>
      <trkpt lat="59.8678671" lon="17.7007989">
        <ele>22.2476</ele>
        <time>2013-05-01T10:41:25Z</time>
      </trkpt>
      <trkpt lat="59.8677991" lon="17.7008439">
        <ele>22.2476</ele>
        <time>2013-05-01T10:41:26Z</time>
      </trkpt>
      <trkpt lat="59.8677312" lon="17.7008904">
        <ele>22.7283</ele>
        <time>2013-05-01T10:41:27Z</time>
      </trkpt>
      <trkpt lat="59.8676623" lon="17.7009383">
        <ele>22.7283</ele>
        <time>2013-05-01T10:41:28Z</time>
      </trkpt>
      <trkpt lat="59.8675948" lon="17.700992">
        <ele>23.209</ele>
        <time>2013-05-01T10:41:29Z</time>
      </trkpt>
      <trkpt lat="59.8675285" lon="17.7010541">
        <ele>23.209</ele>
        <time>2013-05-01T10:41:30Z</time>
      </trkpt>
      <trkpt lat="59.8674619" lon="17.7011204">
        <ele>23.6896</ele>
        <time>2013-05-01T10:41:31Z</time>
      </trkpt>
      <trkpt lat="59.8673949" lon="17.7011899">
        <ele>23.6896</ele>
        <time>2013-05-01T10:41:32Z</time>
      </trkpt>
      <trkpt lat="59.8673278" lon="17.7012636">
        <ele>23.209</ele>
        <time>2013-05-01T10:41:33Z</time>
      </trkpt>
      <trkpt lat="59.8672619" lon="17.7013363">
        <ele>23.209</ele>
        <time>2013-05-01T10:41:34Z</time>
      </trkpt>
      <trkpt lat="59.8671952" lon="17.7014089">
        <ele>23.209</ele>
        <time>2013-05-01T10:41:35Z</time>
      </trkpt>
      <trkpt lat="59.8671278" lon="17.7014785">
        <ele>23.209</ele>
        <time>2013-05-01T10:41:36Z</time>
      </trkpt>
      <trkpt lat="59.8670594" lon="17.7015471">
        <ele>22.7283</ele>
        <time>2013-05-01T10:41:37Z</time>
      </trkpt>
      <trkpt lat="59.8669905" lon="17.7016261">
        <ele>22.7283</ele>
        <time>2013-05-01T10:41:38Z</time>
      </trkpt>
      <trkpt lat="59.8669233" lon="17.7017079">
        <ele>22.2476</ele>
        <time>2013-05-01T10:41:39Z</time>
      </trkpt>
      <trkpt lat="59.8668558" lon="17.7017951">
        <ele>21.767</ele>
        <time>2013-05-01T10:41:40Z</time>
      </trkpt>
      <trkpt lat="59.86679" lon="17.7018849">
        <ele>21.2864</ele>
        <time>2013-05-01T10:41:41Z</time>
      </trkpt>
      <trkpt lat="59.8667292" lon="17.7019701">
        <ele>21.767</ele>
        <time>2013-05-01T10:41:42Z</time>
      </trkpt>
      <trkpt lat="59.8666713" lon="17.7020647">
        <ele>21.767</ele>
        <time>2013-05-01T10:41:43Z</time>
      </trkpt>
      <trkpt lat="59.8666163" lon="17.7021664">
        <ele>21.767</ele>
        <time>2013-05-01T10:41:44Z</time>
      </trkpt>
      <trkpt lat="59.8665625" lon="17.7022688">
        <ele>21.767</ele>
        <time>2013-05-01T10:41:45Z</time>
      </trkpt>
      <trkpt lat="59.8665083" lon="17.7023678">
        <ele>21.767</ele>
        <time>2013-05-01T10:41:46Z</time>
      </trkpt>
      <trkpt lat="59.866456" lon="17.7024678">
        <ele>21.767</ele>
        <time>2013-05-01T10:41:47Z</time>
      </trkpt>
      <trkpt lat="59.8664062" lon="17.702572">
        <ele>21.767</ele>
        <time>2013-05-01T10:41:48Z</time>
      </trkpt>
      <trkpt lat="59.866358" lon="17.7026785">
        <ele>21.767</ele>
        <time>2013-05-01T10:41:49Z</time>
      </trkpt>
      <trkpt lat="59.8663107" lon="17.702784">
        <ele>21.767</ele>
        <time>2013-05-01T10:41:50Z</time>
      </trkpt>
      <trkpt lat="59.8662643" lon="17.7028889">
        <ele>21.767</ele>
        <time>2013-05-01T10:41:51Z</time>
      </trkpt>
      <trkpt lat="59.8662187" lon="17.7029941">
        <ele>21.767</ele>
        <time>2013-05-01T10:41:52Z</time>
      </trkpt>
      <trkpt lat="59.8661731" lon="17.7030972">
        <ele>22.2476</ele>
        <time>2013-05-01T10:41:53Z</time>
      </trkpt>
      <trkpt lat="59.8661249" lon="17.7032039">
        <ele>21.767</ele>
        <time>2013-05-01T10:41:54Z</time>
      </trkpt>
      <trkpt lat="59.8660751" lon="17.7033115">
        <ele>21.2864</ele>
        <time>2013-05-01T10:41:55Z</time>
      </trkpt>
      <trkpt lat="59.8660249" lon="17.7034245">
        <ele>20.8057</ele>
        <time>2013-05-01T10:41:56Z</time>
      </trkpt>
      <trkpt lat="59.8659747" lon="17.703537">
        <ele>20.325</ele>
        <time>2013-05-01T10:41:57Z</time>
      </trkpt>
      <trkpt lat="59.8659218" lon="17.703651">
        <ele>19.8444</ele>
        <time>2013-05-01T10:41:58Z</time>
      </trkpt>
      <trkpt lat="59.8658659" lon="17.7037633">
        <ele>19.3638</ele>
        <time>2013-05-01T10:41:59Z</time>
      </trkpt>
      <trkpt lat="59.8658083" lon="17.703874">
        <ele>19.3638</ele>
        <time>2013-05-01T10:42:00Z</time>
      </trkpt>
      <trkpt lat="59.8657488" lon="17.7039896">
        <ele>18.8831</ele>
        <time>2013-05-01T10:42:01Z</time>
      </trkpt>
      <trkpt lat="59.8656896" lon="17.7041036">
        <ele>18.8831</ele>
        <time>2013-05-01T10:42:02Z</time>
      </trkpt>
      <trkpt lat="59.8656291" lon="17.7042163">
        <ele>18.4023</ele>
        <time>2013-05-01T10:42:03Z</time>
      </trkpt>
      <trkpt lat="59.8655675" lon="17.7043291">
        <ele>17.9218</ele>
        <time>2013-05-01T10:42:04Z</time>
      </trkpt>
      <trkpt lat="59.8655069" lon="17.7044316">
        <ele>17.4412</ele>
        <time>2013-05-01T10:42:05Z</time>
      </trkpt>
      <trkpt lat="59.8654446" lon="17.7045233">
        <ele>17.4412</ele>
        <time>2013-05-01T10:42:06Z</time>
      </trkpt>
      <trkpt lat="59.8653841" lon="17.704603">
        <ele>16.9604</ele>
        <time>2013-05-01T10:42:07Z</time>
      </trkpt>
      <trkpt lat="59.8653298" lon="17.7046737">
        <ele>16.4797</ele>
        <time>2013-05-01T10:42:08Z</time>
      </trkpt>
      <trkpt lat="59.8652806" lon="17.7047336">
        <ele>16.4797</ele>
        <time>2013-05-01T10:42:09Z</time>
      </trkpt>
      <trkpt lat="59.8652324" lon="17.7047917">
        <ele>15.999</ele>
        <time>2013-05-01T10:42:10Z</time>
      </trkpt>
      <trkpt lat="59.8651881" lon="17.7048552">
        <ele>15.999</ele>
        <time>2013-05-01T10:42:11Z</time>
      </trkpt>
      <trkpt lat="59.8651514" lon="17.7049274">
        <ele>15.999</ele>
        <time>2013-05-01T10:42:12Z</time>
      </trkpt>
      <trkpt lat="59.8651236" lon="17.7050191">
        <ele>15.999</ele>
        <time>2013-05-01T10:42:13Z</time>
      </trkpt>
      <trkpt lat="59.8651102" lon="17.7051307">
        <ele>15.5184</ele>
        <time>2013-05-01T10:42:14Z</time>
      </trkpt>
      <trkpt lat="59.8651144" lon="17.7052438">
        <ele>15.5184</ele>
        <time>2013-05-01T10:42:15Z</time>
      </trkpt>
      <trkpt lat="59.8651515" lon="17.7053496">
        <ele>14.557</ele>
        <time>2013-05-01T10:42:16Z</time>
      </trkpt>
      <trkpt lat="59.8651967" lon="17.7054547">
        <ele>14.0764</ele>
        <time>2013-05-01T10:42:17Z</time>
      </trkpt>
      <trkpt lat="59.8652456" lon="17.7055615">
        <ele>13.5958</ele>
        <time>2013-05-01T10:42:18Z</time>
      </trkpt>
      <trkpt lat="59.8652888" lon="17.705665">
        <ele>13.5958</ele>
        <time>2013-05-01T10:42:19Z</time>
      </trkpt>
      <trkpt lat="59.8653477" lon="17.7058084">
        <ele>13.5958</ele>
        <time>2013-05-01T10:42:20Z</time>
      </trkpt>
      <trkpt lat="59.8653872" lon="17.7059059">
        <ele>13.5958</ele>
        <time>2013-05-01T10:42:21Z</time>
      </trkpt>
      <trkpt lat="59.8654226" lon="17.7060116">
        <ele>13.5958</ele>
        <time>2013-05-01T10:42:22Z</time>
      </trkpt>
      <trkpt lat="59.8654622" lon="17.7061302">
        <ele>13.5958</ele>
        <time>2013-05-01T10:42:23Z</time>
      </trkpt>
      <trkpt lat="59.865502" lon="17.70625">
        <ele>13.5958</ele>
        <time>2013-05-01T10:42:24Z</time>
      </trkpt>
      <trkpt lat="59.8655409" lon="17.7063668">
        <ele>13.5958</ele>
        <time>2013-05-01T10:42:25Z</time>
      </trkpt>
      <trkpt lat="59.8655772" lon="17.7064766">
        <ele>13.5958</ele>
        <time>2013-05-01T10:42:26Z</time>
      </trkpt>
      <trkpt lat="59.8656168" lon="17.7065877">
        <ele>14.0764</ele>
        <time>2013-05-01T10:42:27Z</time>
      </trkpt>
      <trkpt lat="59.8656515" lon="17.7066902">
        <ele>14.0764</ele>
        <time>2013-05-01T10:42:28Z</time>
      </trkpt>
      <trkpt lat="59.8656917" lon="17.706798">
        <ele>14.0764</ele>
        <time>2013-05-01T10:42:29Z</time>
      </trkpt>
      <trkpt lat="59.8657313" lon="17.7069109">
        <ele>14.0764</ele>
        <time>2013-05-01T10:42:30Z</time>
      </trkpt>
      <trkpt lat="59.8657613" lon="17.7070325">
        <ele>14.0764</ele>
        <time>2013-05-01T10:42:31Z</time>
      </trkpt>
      <trkpt lat="59.8657736" lon="17.7071634">
        <ele>14.557</ele>
        <time>2013-05-01T10:42:32Z</time>
      </trkpt>
      <trkpt lat="59.8657638" lon="17.7072947">
        <ele>14.557</ele>
        <time>2013-05-01T10:42:33Z</time>
      </trkpt>
      <trkpt lat="59.8657355" lon="17.7074144">
        <ele>15.5184</ele>
        <time>2013-05-01T10:42:34Z</time>
      </trkpt>
      <trkpt lat="59.8656923" lon="17.7075236">
        <ele>15.5184</ele>
        <time>2013-05-01T10:42:35Z</time>
      </trkpt>
      <trkpt lat="59.865644" lon="17.7076324">
        <ele>15.5184</ele>
        <time>2013-05-01T10:42:36Z</time>
      </trkpt>
      <trkpt lat="59.865595" lon="17.7077417">
        <ele>15.0377</ele>
        <time>2013-05-01T10:42:37Z</time>
      </trkpt>
      <trkpt lat="59.8655453" lon="17.7078525">
        <ele>15.0377</ele>
        <time>2013-05-01T10:42:38Z</time>
      </trkpt>
      <trkpt lat="59.8654991" lon="17.707966">
        <ele>15.5184</ele>
        <time>2013-05-01T10:42:39Z</time>
      </trkpt>
      <trkpt lat="59.8654474" lon="17.7080767">
        <ele>15.5184</ele>
        <time>2013-05-01T10:42:40Z</time>
      </trkpt>
      <trkpt lat="59.8653924" lon="17.7081831">
        <ele>15.5184</ele>
        <time>2013-05-01T10:42:41Z</time>
      </trkpt>
      <trkpt lat="59.8653356" lon="17.708289">
        <ele>15.999</ele>
        <time>2013-05-01T10:42:42Z</time>
      </trkpt>
      <trkpt lat="59.8652762" lon="17.7083944">
        <ele>15.999</ele>
        <time>2013-05-01T10:42:43Z</time>
      </trkpt>
      <trkpt lat="59.8652123" lon="17.7084958">
        <ele>15.999</ele>
        <time>2013-05-01T10:42:44Z</time>
      </trkpt>
      <trkpt lat="59.8651437" lon="17.7085856">
        <ele>15.999</ele>
        <time>2013-05-01T10:42:45Z</time>
      </trkpt>
      <trkpt lat="59.8650728" lon="17.7086711">
        <ele>15.5184</ele>
        <time>2013-05-01T10:42:46Z</time>
      </trkpt>
      <trkpt lat="59.8650016" lon="17.7087581">
        <ele>15.5184</ele>
        <time>2013-05-01T10:42:47Z</time>
      </trkpt>
      <trkpt lat="59.8649293" lon="17.708843">
        <ele>15.5184</ele>
        <time>2013-05-01T10:42:48Z</time>
      </trkpt>
      <trkpt lat="59.8648566" lon="17.7089259">
        <ele>15.5184</ele>
        <time>2013-05-01T10:42:49Z</time>
      </trkpt>
      <trkpt lat="59.8647843" lon="17.7090076">
        <ele>15.5184</ele>
        <time>2013-05-01T10:42:50Z</time>
      </trkpt>
      <trkpt lat="59.8647132" lon="17.7090883">
        <ele>15.999</ele>
        <time>2013-05-01T10:42:51Z</time>
      </trkpt>
      <trkpt lat="59.864644" lon="17.7091689">
        <ele>15.999</ele>
        <time>2013-05-01T10:42:52Z</time>
      </trkpt>
      <trkpt lat="59.8645777" lon="17.7092481">
        <ele>15.999</ele>
        <time>2013-05-01T10:42:53Z</time>
      </trkpt>
      <trkpt lat="59.8645132" lon="17.7093257">
        <ele>16.4797</ele>
        <time>2013-05-01T10:42:54Z</time>
      </trkpt>
      <trkpt lat="59.8644492" lon="17.7094004">
        <ele>16.9604</ele>
        <time>2013-05-01T10:42:55Z</time>
      </trkpt>
      <trkpt lat="59.864385" lon="17.709479">
        <ele>17.4412</ele>
        <time>2013-05-01T10:42:56Z</time>
      </trkpt>
      <trkpt lat="59.8643217" lon="17.7095566">
        <ele>17.9218</ele>
        <time>2013-05-01T10:42:57Z</time>
      </trkpt>
      <trkpt lat="59.8642573" lon="17.709637">
        <ele>18.4023</ele>
        <time>2013-05-01T10:42:58Z</time>
      </trkpt>
      <trkpt lat="59.864193" lon="17.7097242">
        <ele>18.8831</ele>
        <time>2013-05-01T10:42:59Z</time>
      </trkpt>
      <trkpt lat="59.8641306" lon="17.7098184">
        <ele>18.8831</ele>
        <time>2013-05-01T10:43:00Z</time>
      </trkpt>
      <trkpt lat="59.8640703" lon="17.7099099">
        <ele>19.3638</ele>
        <time>2013-05-01T10:43:01Z</time>
      </trkpt>
      <trkpt lat="59.8640102" lon="17.7100037">
        <ele>19.8444</ele>
        <time>2013-05-01T10:43:02Z</time>
      </trkpt>
      <trkpt lat="59.8639516" lon="17.7100987">
        <ele>20.325</ele>
        <time>2013-05-01T10:43:03Z</time>
      </trkpt>
      <trkpt lat="59.8638939" lon="17.7101964">
        <ele>20.325</ele>
        <time>2013-05-01T10:43:04Z</time>
      </trkpt>
      <trkpt lat="59.8638367" lon="17.7102923">
        <ele>20.8057</ele>
        <time>2013-05-01T10:43:05Z</time>
      </trkpt>
      <trkpt lat="59.8637804" lon="17.7103866">
        <ele>20.8057</ele>
        <time>2013-05-01T10:43:06Z</time>
      </trkpt>
      <trkpt lat="59.863725" lon="17.7104825">
        <ele>20.8057</ele>
        <time>2013-05-01T10:43:07Z</time>
      </trkpt>
      <trkpt lat="59.8636698" lon="17.7105804">
        <ele>20.8057</ele>
        <time>2013-05-01T10:43:08Z</time>
      </trkpt>
      <trkpt lat="59.8636136" lon="17.7106783">
        <ele>20.325</ele>
        <time>2013-05-01T10:43:09Z</time>
      </trkpt>
      <trkpt lat="59.8635564" lon="17.710775">
        <ele>20.325</ele>
        <time>2013-05-01T10:43:10Z</time>
      </trkpt>
      <trkpt lat="59.8634997" lon="17.7108647">
        <ele>20.8057</ele>
        <time>2013-05-01T10:43:11Z</time>
      </trkpt>
      <trkpt lat="59.8634429" lon="17.7109601">
        <ele>20.325</ele>
        <time>2013-05-01T10:43:12Z</time>
      </trkpt>
      <trkpt lat="59.8633882" lon="17.711057">
        <ele>19.3638</ele>
        <time>2013-05-01T10:43:13Z</time>
      </trkpt>
      <trkpt lat="59.8633343" lon="17.7111477">
        <ele>19.8444</ele>
        <time>2013-05-01T10:43:14Z</time>
      </trkpt>
      <trkpt lat="59.8632784" lon="17.7112356">
        <ele>19.8444</ele>
        <time>2013-05-01T10:43:15Z</time>
      </trkpt>
      <trkpt lat="59.8632199" lon="17.7113165">
        <ele>19.8444</ele>
        <time>2013-05-01T10:43:16Z</time>
      </trkpt>
      <trkpt lat="59.8631557" lon="17.7113891">
        <ele>19.8444</ele>
        <time>2013-05-01T10:43:17Z</time>
      </trkpt>
      <trkpt lat="59.8630879" lon="17.7114508">
        <ele>19.8444</ele>
        <time>2013-05-01T10:43:18Z</time>
      </trkpt>
      <trkpt lat="59.8630184" lon="17.711503">
        <ele>19.8444</ele>
        <time>2013-05-01T10:43:19Z</time>
      </trkpt>
      <trkpt lat="59.8629472" lon="17.7115412">
        <ele>19.8444</ele>
        <time>2013-05-01T10:43:20Z</time>
      </trkpt>
      <trkpt lat="59.8628749" lon="17.7115677">
        <ele>20.325</ele>
        <time>2013-05-01T10:43:21Z</time>
      </trkpt>
      <trkpt lat="59.862802" lon="17.7115854">
        <ele>20.325</ele>
        <time>2013-05-01T10:43:22Z</time>
      </trkpt>
      <trkpt lat="59.8627288" lon="17.7115911">
        <ele>20.325</ele>
        <time>2013-05-01T10:43:23Z</time>
      </trkpt>
      <trkpt lat="59.8626557" lon="17.7115839">
        <ele>20.325</ele>
        <time>2013-05-01T10:43:24Z</time>
      </trkpt>
      <trkpt lat="59.8625838" lon="17.7115645">
        <ele>20.325</ele>
        <time>2013-05-01T10:43:25Z</time>
      </trkpt>
      <trkpt lat="59.862514" lon="17.7115335">
        <ele>19.8444</ele>
        <time>2013-05-01T10:43:26Z</time>
      </trkpt>
      <trkpt lat="59.8624465" lon="17.7114914">
        <ele>19.8444</ele>
        <time>2013-05-01T10:43:27Z</time>
      </trkpt>
      <trkpt lat="59.8623812" lon="17.7114376">
        <ele>19.8444</ele>
        <time>2013-05-01T10:43:28Z</time>
      </trkpt>
      <trkpt lat="59.8623181" lon="17.7113723">
        <ele>19.8444</ele>
        <time>2013-05-01T10:43:29Z</time>
      </trkpt>
      <trkpt lat="59.8622573" lon="17.7112952">
        <ele>19.8444</ele>
        <time>2013-05-01T10:43:30Z</time>
      </trkpt>
      <trkpt lat="59.8621985" lon="17.7112086">
        <ele>19.3638</ele>
        <time>2013-05-01T10:43:31Z</time>
      </trkpt>
      <trkpt lat="59.8621418" lon="17.711115">
        <ele>19.3638</ele>
        <time>2013-05-01T10:43:32Z</time>
      </trkpt>
      <trkpt lat="59.8620897" lon="17.7110103">
        <ele>19.3638</ele>
        <time>2013-05-01T10:43:33Z</time>
      </trkpt>
      <trkpt lat="59.8620404" lon="17.7108972">
        <ele>19.3638</ele>
        <time>2013-05-01T10:43:34Z</time>
      </trkpt>
      <trkpt lat="59.8619913" lon="17.7107808">
        <ele>18.8831</ele>
        <time>2013-05-01T10:43:35Z</time>
      </trkpt>
      <trkpt lat="59.8619421" lon="17.7106628">
        <ele>18.8831</ele>
        <time>2013-05-01T10:43:36Z</time>
      </trkpt>
      <trkpt lat="59.8618951" lon="17.7105442">
        <ele>18.8831</ele>
        <time>2013-05-01T10:43:37Z</time>
      </trkpt>
      <trkpt lat="59.8618473" lon="17.7104282">
        <ele>18.4023</ele>
        <time>2013-05-01T10:43:38Z</time>
      </trkpt>
      <trkpt lat="59.8617957" lon="17.7103131">
        <ele>18.4023</ele>
        <time>2013-05-01T10:43:39Z</time>
      </trkpt>
      <trkpt lat="59.861742" lon="17.7101974">
        <ele>18.4023</ele>
        <time>2013-05-01T10:43:40Z</time>
      </trkpt>
      <trkpt lat="59.861688" lon="17.7100799">
        <ele>18.4023</ele>
        <time>2013-05-01T10:43:41Z</time>
      </trkpt>
      <trkpt lat="59.861633" lon="17.7099609">
        <ele>18.4023</ele>
        <time>2013-05-01T10:43:42Z</time>
      </trkpt>
      <trkpt lat="59.8615788" lon="17.7098401">
        <ele>18.4023</ele>
        <time>2013-05-01T10:43:43Z</time>
      </trkpt>
      <trkpt lat="59.861525" lon="17.7097205">
        <ele>18.4023</ele>
        <time>2013-05-01T10:43:44Z</time>
      </trkpt>
      <trkpt lat="59.8614711" lon="17.7096034">
        <ele>18.4023</ele>
        <time>2013-05-01T10:43:45Z</time>
      </trkpt>
      <trkpt lat="59.8614175" lon="17.7094872">
        <ele>18.4023</ele>
        <time>2013-05-01T10:43:46Z</time>
      </trkpt>
      <trkpt lat="59.861364" lon="17.7093725">
        <ele>17.9218</ele>
        <time>2013-05-01T10:43:47Z</time>
      </trkpt>
      <trkpt lat="59.8613096" lon="17.7092577">
        <ele>17.9218</ele>
        <time>2013-05-01T10:43:48Z</time>
      </trkpt>
      <trkpt lat="59.8612551" lon="17.7091424">
        <ele>17.9218</ele>
        <time>2013-05-01T10:43:49Z</time>
      </trkpt>
      <trkpt lat="59.8612003" lon="17.7090274">
        <ele>17.9218</ele>
        <time>2013-05-01T10:43:50Z</time>
      </trkpt>
      <trkpt lat="59.8611454" lon="17.7089123">
        <ele>17.9218</ele>
        <time>2013-05-01T10:43:51Z</time>
      </trkpt>
      <trkpt lat="59.8610883" lon="17.7087996">
        <ele>17.9218</ele>
        <time>2013-05-01T10:43:52Z</time>
      </trkpt>
      <trkpt lat="59.8610313" lon="17.7086881">
        <ele>17.4412</ele>
        <time>2013-05-01T10:43:53Z</time>
      </trkpt>
      <trkpt lat="59.8609727" lon="17.7085786">
        <ele>17.4412</ele>
        <time>2013-05-01T10:43:54Z</time>
      </trkpt>
      <trkpt lat="59.8609023" lon="17.7084561">
        <ele>17.4412</ele>
        <time>2013-05-01T10:43:55Z</time>
      </trkpt>
      <trkpt lat="59.8608345" lon="17.7083509">
        <ele>17.4412</ele>
        <time>2013-05-01T10:43:56Z</time>
      </trkpt>
      <trkpt lat="59.8607677" lon="17.7082526">
        <ele>17.4412</ele>
        <time>2013-05-01T10:43:57Z</time>
      </trkpt>
      <trkpt lat="59.8607019" lon="17.7081618">
        <ele>17.4412</ele>
        <time>2013-05-01T10:43:58Z</time>
      </trkpt>
      <trkpt lat="59.8606376" lon="17.7080717">
        <ele>16.9604</ele>
        <time>2013-05-01T10:43:59Z</time>
      </trkpt>
      <trkpt lat="59.8605744" lon="17.7079821">
        <ele>16.9604</ele>
        <time>2013-05-01T10:44:00Z</time>
      </trkpt>
      <trkpt lat="59.8605108" lon="17.7078952">
        <ele>16.9604</ele>
        <time>2013-05-01T10:44:01Z</time>
      </trkpt>
      <trkpt lat="59.8604474" lon="17.7078095">
        <ele>16.9604</ele>
        <time>2013-05-01T10:44:02Z</time>
      </trkpt>
      <trkpt lat="59.8603843" lon="17.707723">
        <ele>16.9604</ele>
        <time>2013-05-01T10:44:03Z</time>
      </trkpt>
      <trkpt lat="59.8603211" lon="17.7076376">
        <ele>16.4797</ele>
        <time>2013-05-01T10:44:04Z</time>
      </trkpt>
      <trkpt lat="59.8602564" lon="17.7075537">
        <ele>16.4797</ele>
        <time>2013-05-01T10:44:05Z</time>
      </trkpt>
      <trkpt lat="59.8601927" lon="17.7074687">
        <ele>16.4797</ele>
        <time>2013-05-01T10:44:06Z</time>
      </trkpt>
      <trkpt lat="59.8601295" lon="17.7073822">
        <ele>16.4797</ele>
        <time>2013-05-01T10:44:07Z</time>
      </trkpt>
      <trkpt lat="59.8600609" lon="17.7073009">
        <ele>16.9604</ele>
        <time>2013-05-01T10:44:08Z</time>
      </trkpt>
      <trkpt lat="59.8599947" lon="17.7072184">
        <ele>16.9604</ele>
        <time>2013-05-01T10:44:09Z</time>
      </trkpt>
      <trkpt lat="59.8599286" lon="17.7071354">
        <ele>16.9604</ele>
        <time>2013-05-01T10:44:10Z</time>
      </trkpt>
      <trkpt lat="59.8598622" lon="17.7070517">
        <ele>16.9604</ele>
        <time>2013-05-01T10:44:11Z</time>
      </trkpt>
      <trkpt lat="59.8597903" lon="17.7069695">
        <ele>16.9604</ele>
        <time>2013-05-01T10:44:12Z</time>
      </trkpt>
      <trkpt lat="59.8597244" lon="17.706887">
        <ele>17.4412</ele>
        <time>2013-05-01T10:44:13Z</time>
      </trkpt>
      <trkpt lat="59.859659" lon="17.7068027">
        <ele>17.4412</ele>
        <time>2013-05-01T10:44:14Z</time>
      </trkpt>
      <trkpt lat="59.8595985" lon="17.706714">
        <ele>17.4412</ele>
        <time>2013-05-01T10:44:15Z</time>
      </trkpt>
      <trkpt lat="59.8595406" lon="17.7066238">
        <ele>17.4412</ele>
        <time>2013-05-01T10:44:16Z</time>
      </trkpt>
      <trkpt lat="59.8594845" lon="17.706533">
        <ele>17.9218</ele>
        <time>2013-05-01T10:44:17Z</time>
      </trkpt>
      <trkpt lat="59.859429" lon="17.706442">
        <ele>17.9218</ele>
        <time>2013-05-01T10:44:18Z</time>
      </trkpt>
      <trkpt lat="59.8593756" lon="17.7063473">
        <ele>17.9218</ele>
        <time>2013-05-01T10:44:19Z</time>
      </trkpt>
      <trkpt lat="59.8593239" lon="17.7062519">
        <ele>17.9218</ele>
        <time>2013-05-01T10:44:20Z</time>
      </trkpt>
      <trkpt lat="59.8592733" lon="17.7061587">
        <ele>17.9218</ele>
        <time>2013-05-01T10:44:21Z</time>
      </trkpt>
      <trkpt lat="59.8592291" lon="17.7060753">
        <ele>17.4412</ele>
        <time>2013-05-01T10:44:22Z</time>
      </trkpt>
      <trkpt lat="59.8591851" lon="17.7059868">
        <ele>17.4412</ele>
        <time>2013-05-01T10:44:23Z</time>
      </trkpt>
      <trkpt lat="59.8591402" lon="17.7059007">
        <ele>17.4412</ele>
        <time>2013-05-01T10:44:24Z</time>
      </trkpt>
      <trkpt lat="59.8590927" lon="17.7058183">
        <ele>17.4412</ele>
        <time>2013-05-01T10:44:25Z</time>
      </trkpt>
      <trkpt lat="59.8590255" lon="17.7057634">
        <ele>17.4412</ele>
        <time>2013-05-01T10:44:26Z</time>
      </trkpt>
      <trkpt lat="59.8589746" lon="17.7057758">
        <ele>17.4412</ele>
        <time>2013-05-01T10:44:27Z</time>
      </trkpt>
      <trkpt lat="59.8589183" lon="17.7057874">
        <ele>17.9218</ele>
        <time>2013-05-01T10:44:28Z</time>
      </trkpt>
      <trkpt lat="59.8588628" lon="17.705794">
        <ele>17.9218</ele>
        <time>2013-05-01T10:44:29Z</time>
      </trkpt>
      <trkpt lat="59.8588153" lon="17.705764">
        <ele>17.4412</ele>
        <time>2013-05-01T10:44:30Z</time>
      </trkpt>
      <trkpt lat="59.858769" lon="17.705734">
        <ele>17.4412</ele>
        <time>2013-05-01T10:44:31Z</time>
      </trkpt>
      <trkpt lat="59.8587225" lon="17.7057406">
        <ele>16.9604</ele>
        <time>2013-05-01T10:44:32Z</time>
      </trkpt>
      <trkpt lat="59.8586749" lon="17.705795">
        <ele>16.4797</ele>
        <time>2013-05-01T10:44:33Z</time>
      </trkpt>
      <trkpt lat="59.8586281" lon="17.7058784">
        <ele>16.4797</ele>
        <time>2013-05-01T10:44:34Z</time>
      </trkpt>
      <trkpt lat="59.8585949" lon="17.7059725">
        <ele>16.4797</ele>
        <time>2013-05-01T10:44:35Z</time>
      </trkpt>
      <trkpt lat="59.8585682" lon="17.7060775">
        <ele>15.999</ele>
        <time>2013-05-01T10:44:36Z</time>
      </trkpt>
      <trkpt lat="59.8585587" lon="17.7061947">
        <ele>16.9604</ele>
        <time>2013-05-01T10:44:37Z</time>
      </trkpt>
      <trkpt lat="59.8585481" lon="17.7063151">
        <ele>17.4412</ele>
        <time>2013-05-01T10:44:38Z</time>
      </trkpt>
      <trkpt lat="59.8585411" lon="17.70644">
        <ele>17.4412</ele>
        <time>2013-05-01T10:44:39Z</time>
      </trkpt>
      <trkpt lat="59.8585405" lon="17.7065561">
        <ele>17.9218</ele>
        <time>2013-05-01T10:44:40Z</time>
      </trkpt>
      <trkpt lat="59.8585358" lon="17.7066752">
        <ele>18.4023</ele>
        <time>2013-05-01T10:44:41Z</time>
      </trkpt>
      <trkpt lat="59.8585235" lon="17.7068019">
        <ele>17.9218</ele>
        <time>2013-05-01T10:44:42Z</time>
      </trkpt>
      <trkpt lat="59.8585112" lon="17.7069298">
        <ele>17.9218</ele>
        <time>2013-05-01T10:44:43Z</time>
      </trkpt>
      <trkpt lat="59.8584985" lon="17.7070579">
        <ele>17.9218</ele>
        <time>2013-05-01T10:44:44Z</time>
      </trkpt>
      <trkpt lat="59.8584854" lon="17.7071859">
        <ele>17.9218</ele>
        <time>2013-05-01T10:44:45Z</time>
      </trkpt>
      <trkpt lat="59.8584752" lon="17.7073195">
        <ele>17.9218</ele>
        <time>2013-05-01T10:44:46Z</time>
      </trkpt>
      <trkpt lat="59.858464" lon="17.7074566">
        <ele>17.9218</ele>
        <time>2013-05-01T10:44:47Z</time>
      </trkpt>
      <trkpt lat="59.8584526" lon="17.7075982">
        <ele>17.9218</ele>
        <time>2013-05-01T10:44:48Z</time>
      </trkpt>
      <trkpt lat="59.8584422" lon="17.70774">
        <ele>17.9218</ele>
        <time>2013-05-01T10:44:49Z</time>
      </trkpt>
      <trkpt lat="59.8584407" lon="17.7078838">
        <ele>18.8831</ele>
        <time>2013-05-01T10:44:50Z</time>
      </trkpt>
      <trkpt lat="59.858426" lon="17.7080218">
        <ele>18.8831</ele>
        <time>2013-05-01T10:44:51Z</time>
      </trkpt>
      <trkpt lat="59.8584097" lon="17.7081628">
        <ele>19.3638</ele>
        <time>2013-05-01T10:44:52Z</time>
      </trkpt>
      <trkpt lat="59.8583939" lon="17.7083069">
        <ele>19.8444</ele>
        <time>2013-05-01T10:44:53Z</time>
      </trkpt>
      <trkpt lat="59.8583797" lon="17.7084436">
        <ele>19.8444</ele>
        <time>2013-05-01T10:44:54Z</time>
      </trkpt>
      <trkpt lat="59.8583683" lon="17.7085807">
        <ele>19.8444</ele>
        <time>2013-05-01T10:44:55Z</time>
      </trkpt>
      <trkpt lat="59.8583578" lon="17.7087178">
        <ele>20.325</ele>
        <time>2013-05-01T10:44:56Z</time>
      </trkpt>
      <trkpt lat="59.8583507" lon="17.7088554">
        <ele>20.325</ele>
        <time>2013-05-01T10:44:57Z</time>
      </trkpt>
      <trkpt lat="59.8583469" lon="17.7089952">
        <ele>20.325</ele>
        <time>2013-05-01T10:44:58Z</time>
      </trkpt>
      <trkpt lat="59.8583428" lon="17.7091362">
        <ele>20.325</ele>
        <time>2013-05-01T10:44:59Z</time>
      </trkpt>
      <trkpt lat="59.8583452" lon="17.7092786">
        <ele>20.325</ele>
        <time>2013-05-01T10:45:00Z</time>
      </trkpt>
      <trkpt lat="59.8583511" lon="17.7094211">
        <ele>20.325</ele>
        <time>2013-05-01T10:45:01Z</time>
      </trkpt>
      <trkpt lat="59.8583639" lon="17.7095649">
        <ele>20.8057</ele>
        <time>2013-05-01T10:45:02Z</time>
      </trkpt>
      <trkpt lat="59.8583769" lon="17.709759">
        <ele>20.8057</ele>
        <time>2013-05-01T10:45:03Z</time>
      </trkpt>
      <trkpt lat="59.8583818" lon="17.709878">
        <ele>21.2864</ele>
        <time>2013-05-01T10:45:04Z</time>
      </trkpt>
      <trkpt lat="59.8583982" lon="17.7100109">
        <ele>21.2864</ele>
        <time>2013-05-01T10:45:05Z</time>
      </trkpt>
      <trkpt lat="59.8584091" lon="17.7101158">
        <ele>21.2864</ele>
        <time>2013-05-01T10:45:06Z</time>
      </trkpt>
      <trkpt lat="59.8584241" lon="17.7102261">
        <ele>21.2864</ele>
        <time>2013-05-01T10:45:07Z</time>
      </trkpt>
      <trkpt lat="59.8584403" lon="17.7103497">
        <ele>21.2864</ele>
        <time>2013-05-01T10:45:08Z</time>
      </trkpt>
      <trkpt lat="59.8584578" lon="17.7104826">
        <ele>20.8057</ele>
        <time>2013-05-01T10:45:09Z</time>
      </trkpt>
      <trkpt lat="59.8584779" lon="17.7106123">
        <ele>20.8057</ele>
        <time>2013-05-01T10:45:10Z</time>
      </trkpt>
      <trkpt lat="59.8584965" lon="17.7107477">
        <ele>20.8057</ele>
        <time>2013-05-01T10:45:11Z</time>
      </trkpt>
      <trkpt lat="59.8585128" lon="17.7108827">
        <ele>20.8057</ele>
        <time>2013-05-01T10:45:12Z</time>
      </trkpt>
      <trkpt lat="59.8585244" lon="17.711017">
        <ele>20.8057</ele>
        <time>2013-05-01T10:45:13Z</time>
      </trkpt>
      <trkpt lat="59.8585298" lon="17.7111513">
        <ele>20.8057</ele>
        <time>2013-05-01T10:45:14Z</time>
      </trkpt>
      <trkpt lat="59.8585293" lon="17.7112832">
        <ele>20.8057</ele>
        <time>2013-05-01T10:45:15Z</time>
      </trkpt>
      <trkpt lat="59.8585229" lon="17.7114123">
        <ele>20.8057</ele>
        <time>2013-05-01T10:45:16Z</time>
      </trkpt>
      <trkpt lat="59.8585101" lon="17.7115388">
        <ele>20.8057</ele>
        <time>2013-05-01T10:45:17Z</time>
      </trkpt>
      <trkpt lat="59.8584924" lon="17.7116636">
        <ele>20.8057</ele>
        <time>2013-05-01T10:45:18Z</time>
      </trkpt>
      <trkpt lat="59.8584714" lon="17.7117858">
        <ele>20.8057</ele>
        <time>2013-05-01T10:45:19Z</time>
      </trkpt>
      <trkpt lat="59.8584484" lon="17.7119024">
        <ele>21.2864</ele>
        <time>2013-05-01T10:45:20Z</time>
      </trkpt>
      <trkpt lat="59.8584234" lon="17.7120158">
        <ele>21.2864</ele>
        <time>2013-05-01T10:45:21Z</time>
      </trkpt>
      <trkpt lat="59.8583972" lon="17.7121277">
        <ele>21.767</ele>
        <time>2013-05-01T10:45:22Z</time>
      </trkpt>
      <trkpt lat="59.8583716" lon="17.7122406">
        <ele>21.767</ele>
        <time>2013-05-01T10:45:23Z</time>
      </trkpt>
      <trkpt lat="59.8583473" lon="17.7123567">
        <ele>21.767</ele>
        <time>2013-05-01T10:45:24Z</time>
      </trkpt>
      <trkpt lat="59.8583272" lon="17.7124785">
        <ele>21.767</ele>
        <time>2013-05-01T10:45:25Z</time>
      </trkpt>
      <trkpt lat="59.8583086" lon="17.7126032">
        <ele>21.767</ele>
        <time>2013-05-01T10:45:26Z</time>
      </trkpt>
      <trkpt lat="59.858292" lon="17.7127292">
        <ele>21.767</ele>
        <time>2013-05-01T10:45:27Z</time>
      </trkpt>
      <trkpt lat="59.858277" lon="17.7128571">
        <ele>21.767</ele>
        <time>2013-05-01T10:45:28Z</time>
      </trkpt>
      <trkpt lat="59.8582621" lon="17.7129884">
        <ele>21.767</ele>
        <time>2013-05-01T10:45:29Z</time>
      </trkpt>
      <trkpt lat="59.8582461" lon="17.7131217">
        <ele>21.767</ele>
        <time>2013-05-01T10:45:30Z</time>
      </trkpt>
      <trkpt lat="59.8582304" lon="17.7132562">
        <ele>21.767</ele>
        <time>2013-05-01T10:45:31Z</time>
      </trkpt>
      <trkpt lat="59.8582155" lon="17.7133914">
        <ele>21.767</ele>
        <time>2013-05-01T10:45:32Z</time>
      </trkpt>
      <trkpt lat="59.8581999" lon="17.7135264">
        <ele>21.767</ele>
        <time>2013-05-01T10:45:33Z</time>
      </trkpt>
      <trkpt lat="59.8581811" lon="17.7136609">
        <ele>21.767</ele>
        <time>2013-05-01T10:45:34Z</time>
      </trkpt>
      <trkpt lat="59.8581579" lon="17.7137917">
        <ele>21.767</ele>
        <time>2013-05-01T10:45:35Z</time>
      </trkpt>
      <trkpt lat="59.8581299" lon="17.7139174">
        <ele>21.767</ele>
        <time>2013-05-01T10:45:36Z</time>
      </trkpt>
      <trkpt lat="59.8580958" lon="17.7140376">
        <ele>21.767</ele>
        <time>2013-05-01T10:45:37Z</time>
      </trkpt>
      <trkpt lat="59.8580568" lon="17.714152">
        <ele>21.767</ele>
        <time>2013-05-01T10:45:38Z</time>
      </trkpt>
      <trkpt lat="59.8580149" lon="17.7142624">
        <ele>21.767</ele>
        <time>2013-05-01T10:45:39Z</time>
      </trkpt>
      <trkpt lat="59.8579726" lon="17.7143716">
        <ele>21.2864</ele>
        <time>2013-05-01T10:45:40Z</time>
      </trkpt>
      <trkpt lat="59.857931" lon="17.7144834">
        <ele>21.2864</ele>
        <time>2013-05-01T10:45:41Z</time>
      </trkpt>
      <trkpt lat="59.8578906" lon="17.7145971">
        <ele>21.2864</ele>
        <time>2013-05-01T10:45:42Z</time>
      </trkpt>
      <trkpt lat="59.8578524" lon="17.7147153">
        <ele>21.2864</ele>
        <time>2013-05-01T10:45:43Z</time>
      </trkpt>
      <trkpt lat="59.8578179" lon="17.7148395">
        <ele>21.2864</ele>
        <time>2013-05-01T10:45:44Z</time>
      </trkpt>
      <trkpt lat="59.8577852" lon="17.7149675">
        <ele>21.2864</ele>
        <time>2013-05-01T10:45:45Z</time>
      </trkpt>
      <trkpt lat="59.8577555" lon="17.7150994">
        <ele>21.2864</ele>
        <time>2013-05-01T10:45:46Z</time>
      </trkpt>
      <trkpt lat="59.8577283" lon="17.7152333">
        <ele>21.767</ele>
        <time>2013-05-01T10:45:47Z</time>
      </trkpt>
      <trkpt lat="59.8577032" lon="17.7153689">
        <ele>21.767</ele>
        <time>2013-05-01T10:45:48Z</time>
      </trkpt>
      <trkpt lat="59.8576789" lon="17.7155057">
        <ele>21.767</ele>
        <time>2013-05-01T10:45:49Z</time>
      </trkpt>
      <trkpt lat="59.8576559" lon="17.7156434">
        <ele>21.767</ele>
        <time>2013-05-01T10:45:50Z</time>
      </trkpt>
      <trkpt lat="59.8576367" lon="17.7157838">
        <ele>22.2476</ele>
        <time>2013-05-01T10:45:51Z</time>
      </trkpt>
      <trkpt lat="59.8576233" lon="17.7159272">
        <ele>22.2476</ele>
        <time>2013-05-01T10:45:52Z</time>
      </trkpt>
      <trkpt lat="59.8576151" lon="17.7160729">
        <ele>22.2476</ele>
        <time>2013-05-01T10:45:53Z</time>
      </trkpt>
      <trkpt lat="59.8576135" lon="17.71622">
        <ele>22.7283</ele>
        <time>2013-05-01T10:45:54Z</time>
      </trkpt>
      <trkpt lat="59.857617" lon="17.7163676">
        <ele>22.7283</ele>
        <time>2013-05-01T10:45:55Z</time>
      </trkpt>
      <trkpt lat="59.8576237" lon="17.7165162">
        <ele>22.7283</ele>
        <time>2013-05-01T10:45:56Z</time>
      </trkpt>
      <trkpt lat="59.8576319" lon="17.716666">
        <ele>22.7283</ele>
        <time>2013-05-01T10:45:57Z</time>
      </trkpt>
      <trkpt lat="59.8576399" lon="17.7168181">
        <ele>22.7283</ele>
        <time>2013-05-01T10:45:58Z</time>
      </trkpt>
      <trkpt lat="59.8576471" lon="17.716972">
        <ele>22.7283</ele>
        <time>2013-05-01T10:45:59Z</time>
      </trkpt>
      <trkpt lat="59.8576535" lon="17.7171271">
        <ele>22.7283</ele>
        <time>2013-05-01T10:46:00Z</time>
      </trkpt>
      <trkpt lat="59.8576601" lon="17.7172799">
        <ele>22.7283</ele>
        <time>2013-05-01T10:46:01Z</time>
      </trkpt>
      <trkpt lat="59.8576643" lon="17.7174342">
        <ele>23.209</ele>
        <time>2013-05-01T10:46:02Z</time>
      </trkpt>
      <trkpt lat="59.8576664" lon="17.7175906">
        <ele>23.209</ele>
        <time>2013-05-01T10:46:03Z</time>
      </trkpt>
      <trkpt lat="59.8576663" lon="17.7177481">
        <ele>23.209</ele>
        <time>2013-05-01T10:46:04Z</time>
      </trkpt>
      <trkpt lat="59.8576649" lon="17.7179059">
        <ele>23.209</ele>
        <time>2013-05-01T10:46:05Z</time>
      </trkpt>
      <trkpt lat="59.8576632" lon="17.7180634">
        <ele>23.209</ele>
        <time>2013-05-01T10:46:06Z</time>
      </trkpt>
      <trkpt lat="59.8576614" lon="17.7182211">
        <ele>23.209</ele>
        <time>2013-05-01T10:46:07Z</time>
      </trkpt>
      <trkpt lat="59.85766" lon="17.7183789">
        <ele>23.209</ele>
        <time>2013-05-01T10:46:08Z</time>
      </trkpt>
      <trkpt lat="59.8576595" lon="17.7185369">
        <ele>23.209</ele>
        <time>2013-05-01T10:46:09Z</time>
      </trkpt>
      <trkpt lat="59.8576597" lon="17.7186956">
        <ele>23.209</ele>
        <time>2013-05-01T10:46:10Z</time>
      </trkpt>
      <trkpt lat="59.8576611" lon="17.7188549">
        <ele>23.209</ele>
        <time>2013-05-01T10:46:11Z</time>
      </trkpt>
      <trkpt lat="59.8576646" lon="17.7190144">
        <ele>23.209</ele>
        <time>2013-05-01T10:46:12Z</time>
      </trkpt>
      <trkpt lat="59.8576679" lon="17.7191752">
        <ele>23.209</ele>
        <time>2013-05-01T10:46:13Z</time>
      </trkpt>
      <trkpt lat="59.8576725" lon="17.7193358">
        <ele>23.209</ele>
        <time>2013-05-01T10:46:14Z</time>
      </trkpt>
      <trkpt lat="59.8576788" lon="17.7194967">
        <ele>23.209</ele>
        <time>2013-05-01T10:46:15Z</time>
      </trkpt>
      <trkpt lat="59.8576865" lon="17.7196563">
        <ele>23.209</ele>
        <time>2013-05-01T10:46:16Z</time>
      </trkpt>
      <trkpt lat="59.8576938" lon="17.719816">
        <ele>23.209</ele>
        <time>2013-05-01T10:46:17Z</time>
      </trkpt>
      <trkpt lat="59.8577018" lon="17.7199749">
        <ele>23.209</ele>
        <time>2013-05-01T10:46:18Z</time>
      </trkpt>
      <trkpt lat="59.8577093" lon="17.7201323">
        <ele>23.209</ele>
        <time>2013-05-01T10:46:19Z</time>
      </trkpt>
      <trkpt lat="59.8577148" lon="17.720288">
        <ele>23.6896</ele>
        <time>2013-05-01T10:46:20Z</time>
      </trkpt>
      <trkpt lat="59.8577171" lon="17.720441">
        <ele>23.6896</ele>
        <time>2013-05-01T10:46:21Z</time>
      </trkpt>
      <trkpt lat="59.8577191" lon="17.7205786">
        <ele>23.6896</ele>
        <time>2013-05-01T10:46:22Z</time>
      </trkpt>
      <trkpt lat="59.8577192" lon="17.7207178">
        <ele>23.6896</ele>
        <time>2013-05-01T10:46:23Z</time>
      </trkpt>
      <trkpt lat="59.8577202" lon="17.7208552">
        <ele>24.1703</ele>
        <time>2013-05-01T10:46:24Z</time>
      </trkpt>
      <trkpt lat="59.8577205" lon="17.7209922">
        <ele>24.1703</ele>
        <time>2013-05-01T10:46:25Z</time>
      </trkpt>
      <trkpt lat="59.857721" lon="17.7211239">
        <ele>24.1703</ele>
        <time>2013-05-01T10:46:26Z</time>
      </trkpt>
      <trkpt lat="59.8577202" lon="17.721259">
        <ele>24.651</ele>
        <time>2013-05-01T10:46:27Z</time>
      </trkpt>
      <trkpt lat="59.8577172" lon="17.7213954">
        <ele>24.651</ele>
        <time>2013-05-01T10:46:28Z</time>
      </trkpt>
      <trkpt lat="59.8577132" lon="17.721528">
        <ele>24.651</ele>
        <time>2013-05-01T10:46:29Z</time>
      </trkpt>
      <trkpt lat="59.8577066" lon="17.7216615">
        <ele>24.651</ele>
        <time>2013-05-01T10:46:30Z</time>
      </trkpt>
      <trkpt lat="59.8576939" lon="17.7217933">
        <ele>24.1703</ele>
        <time>2013-05-01T10:46:31Z</time>
      </trkpt>
      <trkpt lat="59.8576704" lon="17.7219222">
        <ele>24.1703</ele>
        <time>2013-05-01T10:46:32Z</time>
      </trkpt>
      <trkpt lat="59.8576368" lon="17.7220425">
        <ele>24.651</ele>
        <time>2013-05-01T10:46:33Z</time>
      </trkpt>
      <trkpt lat="59.8575896" lon="17.7221513">
        <ele>24.651</ele>
        <time>2013-05-01T10:46:34Z</time>
      </trkpt>
      <trkpt lat="59.8575363" lon="17.7222513">
        <ele>24.1703</ele>
        <time>2013-05-01T10:46:35Z</time>
      </trkpt>
      <trkpt lat="59.8574783" lon="17.7223501">
        <ele>23.209</ele>
        <time>2013-05-01T10:46:36Z</time>
      </trkpt>
      <trkpt lat="59.8574161" lon="17.7224506">
        <ele>22.7283</ele>
        <time>2013-05-01T10:46:37Z</time>
      </trkpt>
      <trkpt lat="59.8573527" lon="17.7225569">
        <ele>22.7283</ele>
        <time>2013-05-01T10:46:38Z</time>
      </trkpt>
      <trkpt lat="59.8572885" lon="17.7226584">
        <ele>22.7283</ele>
        <time>2013-05-01T10:46:39Z</time>
      </trkpt>
      <trkpt lat="59.8572234" lon="17.7227569">
        <ele>22.2476</ele>
        <time>2013-05-01T10:46:40Z</time>
      </trkpt>
      <trkpt lat="59.8571587" lon="17.7228588">
        <ele>22.2476</ele>
        <time>2013-05-01T10:46:41Z</time>
      </trkpt>
      <trkpt lat="59.8570949" lon="17.7229671">
        <ele>21.767</ele>
        <time>2013-05-01T10:46:42Z</time>
      </trkpt>
      <trkpt lat="59.8570343" lon="17.7230748">
        <ele>21.767</ele>
        <time>2013-05-01T10:46:43Z</time>
      </trkpt>
      <trkpt lat="59.8569741" lon="17.7231825">
        <ele>21.2864</ele>
        <time>2013-05-01T10:46:44Z</time>
      </trkpt>
      <trkpt lat="59.856915" lon="17.7232929">
        <ele>20.8057</ele>
        <time>2013-05-01T10:46:45Z</time>
      </trkpt>
      <trkpt lat="59.8568565" lon="17.7234063">
        <ele>20.325</ele>
        <time>2013-05-01T10:46:46Z</time>
      </trkpt>
      <trkpt lat="59.8567967" lon="17.7235229">
        <ele>19.8444</ele>
        <time>2013-05-01T10:46:47Z</time>
      </trkpt>
      <trkpt lat="59.8567359" lon="17.7236435">
        <ele>19.8444</ele>
        <time>2013-05-01T10:46:48Z</time>
      </trkpt>
      <trkpt lat="59.8566743" lon="17.7237664">
        <ele>19.3638</ele>
        <time>2013-05-01T10:46:49Z</time>
      </trkpt>
      <trkpt lat="59.8566121" lon="17.7238902">
        <ele>19.3638</ele>
        <time>2013-05-01T10:46:50Z</time>
      </trkpt>
      <trkpt lat="59.8565509" lon="17.724017">
        <ele>19.3638</ele>
        <time>2013-05-01T10:46:51Z</time>
      </trkpt>
      <trkpt lat="59.8564909" lon="17.7241465">
        <ele>18.8831</ele>
        <time>2013-05-01T10:46:52Z</time>
      </trkpt>
      <trkpt lat="59.8564323" lon="17.7242782">
        <ele>18.8831</ele>
        <time>2013-05-01T10:46:53Z</time>
      </trkpt>
      <trkpt lat="59.8563753" lon="17.7244131">
        <ele>18.8831</ele>
        <time>2013-05-01T10:46:54Z</time>
      </trkpt>
      <trkpt lat="59.8563199" lon="17.7245506">
        <ele>18.8831</ele>
        <time>2013-05-01T10:46:55Z</time>
      </trkpt>
      <trkpt lat="59.8562655" lon="17.7246879">
        <ele>18.8831</ele>
        <time>2013-05-01T10:46:56Z</time>
      </trkpt>
      <trkpt lat="59.8562107" lon="17.724825">
        <ele>18.8831</ele>
        <time>2013-05-01T10:46:57Z</time>
      </trkpt>
      <trkpt lat="59.8561548" lon="17.7249602">
        <ele>18.8831</ele>
        <time>2013-05-01T10:46:58Z</time>
      </trkpt>
      <trkpt lat="59.8560978" lon="17.725093">
        <ele>18.8831</ele>
        <time>2013-05-01T10:46:59Z</time>
      </trkpt>
      <trkpt lat="59.8560409" lon="17.725224">
        <ele>18.8831</ele>
        <time>2013-05-01T10:47:00Z</time>
      </trkpt>
      <trkpt lat="59.8559848" lon="17.7253549">
        <ele>18.8831</ele>
        <time>2013-05-01T10:47:01Z</time>
      </trkpt>
      <trkpt lat="59.8559297" lon="17.725487">
        <ele>18.8831</ele>
        <time>2013-05-01T10:47:02Z</time>
      </trkpt>
      <trkpt lat="59.8558759" lon="17.7256214">
        <ele>18.8831</ele>
        <time>2013-05-01T10:47:03Z</time>
      </trkpt>
      <trkpt lat="59.8558242" lon="17.725758">
        <ele>18.4023</ele>
        <time>2013-05-01T10:47:04Z</time>
      </trkpt>
      <trkpt lat="59.8557738" lon="17.725897">
        <ele>18.4023</ele>
        <time>2013-05-01T10:47:05Z</time>
      </trkpt>
      <trkpt lat="59.8557239" lon="17.7260373">
        <ele>18.4023</ele>
        <time>2013-05-01T10:47:06Z</time>
      </trkpt>
      <trkpt lat="59.8556747" lon="17.7261782">
        <ele>18.4023</ele>
        <time>2013-05-01T10:47:07Z</time>
      </trkpt>
      <trkpt lat="59.8556269" lon="17.7263196">
        <ele>18.8831</ele>
        <time>2013-05-01T10:47:08Z</time>
      </trkpt>
      <trkpt lat="59.8555798" lon="17.7264594">
        <ele>18.8831</ele>
        <time>2013-05-01T10:47:09Z</time>
      </trkpt>
      <trkpt lat="59.855486" lon="17.7267289">
        <ele>18.8831</ele>
        <time>2013-05-01T10:47:11Z</time>
      </trkpt>
      <trkpt lat="59.8554409" lon="17.7268618">
        <ele>18.8831</ele>
        <time>2013-05-01T10:47:12Z</time>
      </trkpt>
      <trkpt lat="59.8553959" lon="17.7269921">
        <ele>18.8831</ele>
        <time>2013-05-01T10:47:13Z</time>
      </trkpt>
      <trkpt lat="59.8553513" lon="17.7271193">
        <ele>19.3638</ele>
        <time>2013-05-01T10:47:14Z</time>
      </trkpt>
      <trkpt lat="59.8553062" lon="17.7272426">
        <ele>19.3638</ele>
        <time>2013-05-01T10:47:15Z</time>
      </trkpt>
      <trkpt lat="59.8552603" lon="17.7273625">
        <ele>19.3638</ele>
        <time>2013-05-01T10:47:16Z</time>
      </trkpt>
      <trkpt lat="59.8552142" lon="17.7274805">
        <ele>19.3638</ele>
        <time>2013-05-01T10:47:17Z</time>
      </trkpt>
      <trkpt lat="59.8551686" lon="17.7275979">
        <ele>19.3638</ele>
        <time>2013-05-01T10:47:18Z</time>
      </trkpt>
      <trkpt lat="59.8551238" lon="17.7277156">
        <ele>19.3638</ele>
        <time>2013-05-01T10:47:19Z</time>
      </trkpt>
      <trkpt lat="59.8550788" lon="17.7278331">
        <ele>19.3638</ele>
        <time>2013-05-01T10:47:20Z</time>
      </trkpt>
      <trkpt lat="59.8550336" lon="17.7279499">
        <ele>19.3638</ele>
        <time>2013-05-01T10:47:21Z</time>
      </trkpt>
      <trkpt lat="59.8549887" lon="17.7280669">
        <ele>19.3638</ele>
        <time>2013-05-01T10:47:22Z</time>
      </trkpt>
      <trkpt lat="59.854944" lon="17.7281829">
        <ele>19.3638</ele>
        <time>2013-05-01T10:47:23Z</time>
      </trkpt>
      <trkpt lat="59.8548995" lon="17.7282967">
        <ele>19.3638</ele>
        <time>2013-05-01T10:47:24Z</time>
      </trkpt>
      <trkpt lat="59.8548557" lon="17.7284093">
        <ele>19.3638</ele>
        <time>2013-05-01T10:47:25Z</time>
      </trkpt>
      <trkpt lat="59.854812" lon="17.7285206">
        <ele>19.3638</ele>
        <time>2013-05-01T10:47:26Z</time>
      </trkpt>
      <trkpt lat="59.8547687" lon="17.728631">
        <ele>19.8444</ele>
        <time>2013-05-01T10:47:27Z</time>
      </trkpt>
      <trkpt lat="59.8547261" lon="17.7287422">
        <ele>19.8444</ele>
        <time>2013-05-01T10:47:28Z</time>
      </trkpt>
      <trkpt lat="59.8546832" lon="17.7288532">
        <ele>19.8444</ele>
        <time>2013-05-01T10:47:29Z</time>
      </trkpt>
      <trkpt lat="59.85464" lon="17.7289631">
        <ele>19.8444</ele>
        <time>2013-05-01T10:47:30Z</time>
      </trkpt>
      <trkpt lat="59.854596" lon="17.7290718">
        <ele>19.8444</ele>
        <time>2013-05-01T10:47:31Z</time>
      </trkpt>
      <trkpt lat="59.8545525" lon="17.7291806">
        <ele>19.8444</ele>
        <time>2013-05-01T10:47:32Z</time>
      </trkpt>
      <trkpt lat="59.8545096" lon="17.7292912">
        <ele>19.8444</ele>
        <time>2013-05-01T10:47:33Z</time>
      </trkpt>
      <trkpt lat="59.8544677" lon="17.7294031">
        <ele>19.8444</ele>
        <time>2013-05-01T10:47:34Z</time>
      </trkpt>
      <trkpt lat="59.8544257" lon="17.7295164">
        <ele>19.8444</ele>
        <time>2013-05-01T10:47:35Z</time>
      </trkpt>
      <trkpt lat="59.8543826" lon="17.7296318">
        <ele>19.8444</ele>
        <time>2013-05-01T10:47:36Z</time>
      </trkpt>
      <trkpt lat="59.8543372" lon="17.7297478">
        <ele>19.3638</ele>
        <time>2013-05-01T10:47:37Z</time>
      </trkpt>
      <trkpt lat="59.854291" lon="17.729865">
        <ele>19.3638</ele>
        <time>2013-05-01T10:47:38Z</time>
      </trkpt>
      <trkpt lat="59.8542453" lon="17.7299864">
        <ele>19.3638</ele>
        <time>2013-05-01T10:47:39Z</time>
      </trkpt>
      <trkpt lat="59.8542009" lon="17.7301135">
        <ele>18.8831</ele>
        <time>2013-05-01T10:47:40Z</time>
      </trkpt>
      <trkpt lat="59.8541584" lon="17.7302456">
        <ele>18.8831</ele>
        <time>2013-05-01T10:47:41Z</time>
      </trkpt>
      <trkpt lat="59.8541179" lon="17.7303838">
        <ele>18.8831</ele>
        <time>2013-05-01T10:47:42Z</time>
      </trkpt>
      <trkpt lat="59.8540796" lon="17.7305277">
        <ele>18.4023</ele>
        <time>2013-05-01T10:47:43Z</time>
      </trkpt>
      <trkpt lat="59.8540439" lon="17.7306775">
        <ele>18.4023</ele>
        <time>2013-05-01T10:47:44Z</time>
      </trkpt>
      <trkpt lat="59.8540102" lon="17.730834">
        <ele>17.9218</ele>
        <time>2013-05-01T10:47:45Z</time>
      </trkpt>
      <trkpt lat="59.8539796" lon="17.7309974">
        <ele>17.4412</ele>
        <time>2013-05-01T10:47:46Z</time>
      </trkpt>
      <trkpt lat="59.8539532" lon="17.7311698">
        <ele>16.9604</ele>
        <time>2013-05-01T10:47:47Z</time>
      </trkpt>
      <trkpt lat="59.8539303" lon="17.7313486">
        <ele>16.4797</ele>
        <time>2013-05-01T10:47:48Z</time>
      </trkpt>
      <trkpt lat="59.8539082" lon="17.7315302">
        <ele>15.999</ele>
        <time>2013-05-01T10:47:49Z</time>
      </trkpt>
      <trkpt lat="59.853888" lon="17.7317133">
        <ele>15.999</ele>
        <time>2013-05-01T10:47:50Z</time>
      </trkpt>
      <trkpt lat="59.8538683" lon="17.7318979">
        <ele>15.5184</ele>
        <time>2013-05-01T10:47:51Z</time>
      </trkpt>
      <trkpt lat="59.8538522" lon="17.7320789">
        <ele>15.5184</ele>
        <time>2013-05-01T10:47:52Z</time>
      </trkpt>
      <trkpt lat="59.8538393" lon="17.7322535">
        <ele>15.999</ele>
        <time>2013-05-01T10:47:53Z</time>
      </trkpt>
      <trkpt lat="59.8538222" lon="17.7324343">
        <ele>15.999</ele>
        <time>2013-05-01T10:47:54Z</time>
      </trkpt>
      <trkpt lat="59.8538059" lon="17.7326226">
        <ele>15.5184</ele>
        <time>2013-05-01T10:47:55Z</time>
      </trkpt>
      <trkpt lat="59.8537898" lon="17.7328028">
        <ele>15.5184</ele>
        <time>2013-05-01T10:47:56Z</time>
      </trkpt>
      <trkpt lat="59.8537709" lon="17.7329756">
        <ele>15.5184</ele>
        <time>2013-05-01T10:47:57Z</time>
      </trkpt>
      <trkpt lat="59.8537496" lon="17.7331444">
        <ele>15.0377</ele>
        <time>2013-05-01T10:47:58Z</time>
      </trkpt>
      <trkpt lat="59.8537175" lon="17.7333038">
        <ele>14.557</ele>
        <time>2013-05-01T10:47:59Z</time>
      </trkpt>
      <trkpt lat="59.853684" lon="17.7334545">
        <ele>14.0764</ele>
        <time>2013-05-01T10:48:00Z</time>
      </trkpt>
      <trkpt lat="59.8536481" lon="17.733593">
        <ele>14.557</ele>
        <time>2013-05-01T10:48:01Z</time>
      </trkpt>
      <trkpt lat="59.8536103" lon="17.7337241">
        <ele>15.0377</ele>
        <time>2013-05-01T10:48:02Z</time>
      </trkpt>
      <trkpt lat="59.853569" lon="17.7338499">
        <ele>15.5184</ele>
        <time>2013-05-01T10:48:03Z</time>
      </trkpt>
      <trkpt lat="59.8535244" lon="17.7339716">
        <ele>15.999</ele>
        <time>2013-05-01T10:48:04Z</time>
      </trkpt>
      <trkpt lat="59.8534796" lon="17.7340861">
        <ele>16.9604</ele>
        <time>2013-05-01T10:48:05Z</time>
      </trkpt>
      <trkpt lat="59.8534304" lon="17.7341883">
        <ele>17.4412</ele>
        <time>2013-05-01T10:48:06Z</time>
      </trkpt>
      <trkpt lat="59.8533786" lon="17.7342804">
        <ele>17.9218</ele>
        <time>2013-05-01T10:48:07Z</time>
      </trkpt>
      <trkpt lat="59.8533255" lon="17.7343637">
        <ele>18.4023</ele>
        <time>2013-05-01T10:48:08Z</time>
      </trkpt>
      <trkpt lat="59.8532719" lon="17.7344408">
        <ele>18.8831</ele>
        <time>2013-05-01T10:48:09Z</time>
      </trkpt>
      <trkpt lat="59.8532179" lon="17.734515">
        <ele>18.8831</ele>
        <time>2013-05-01T10:48:10Z</time>
      </trkpt>
      <trkpt lat="59.8531642" lon="17.7345772">
        <ele>18.8831</ele>
        <time>2013-05-01T10:48:11Z</time>
      </trkpt>
      <trkpt lat="59.8531102" lon="17.7346383">
        <ele>19.3638</ele>
        <time>2013-05-01T10:48:12Z</time>
      </trkpt>
      <trkpt lat="59.853056" lon="17.7347004">
        <ele>19.3638</ele>
        <time>2013-05-01T10:48:13Z</time>
      </trkpt>
      <trkpt lat="59.8530015" lon="17.7347632">
        <ele>19.3638</ele>
        <time>2013-05-01T10:48:14Z</time>
      </trkpt>
      <trkpt lat="59.8529455" lon="17.7348293">
        <ele>19.8444</ele>
        <time>2013-05-01T10:48:15Z</time>
      </trkpt>
      <trkpt lat="59.8528896" lon="17.734898">
        <ele>19.8444</ele>
        <time>2013-05-01T10:48:16Z</time>
      </trkpt>
      <trkpt lat="59.8528348" lon="17.7349657">
        <ele>19.8444</ele>
        <time>2013-05-01T10:48:17Z</time>
      </trkpt>
      <trkpt lat="59.8527794" lon="17.7350315">
        <ele>19.8444</ele>
        <time>2013-05-01T10:48:18Z</time>
      </trkpt>
      <trkpt lat="59.8527238" lon="17.7350982">
        <ele>19.8444</ele>
        <time>2013-05-01T10:48:19Z</time>
      </trkpt>
      <trkpt lat="59.8526685" lon="17.7351668">
        <ele>19.3638</ele>
        <time>2013-05-01T10:48:20Z</time>
      </trkpt>
      <trkpt lat="59.852613" lon="17.735236">
        <ele>19.3638</ele>
        <time>2013-05-01T10:48:21Z</time>
      </trkpt>
      <trkpt lat="59.8525567" lon="17.735305">
        <ele>19.3638</ele>
        <time>2013-05-01T10:48:22Z</time>
      </trkpt>
      <trkpt lat="59.8524998" lon="17.7353733">
        <ele>19.3638</ele>
        <time>2013-05-01T10:48:23Z</time>
      </trkpt>
      <trkpt lat="59.852443" lon="17.7354412">
        <ele>19.3638</ele>
        <time>2013-05-01T10:48:24Z</time>
      </trkpt>
      <trkpt lat="59.8523866" lon="17.7355096">
        <ele>19.3638</ele>
        <time>2013-05-01T10:48:25Z</time>
      </trkpt>
      <trkpt lat="59.8523304" lon="17.7355768">
        <ele>19.3638</ele>
        <time>2013-05-01T10:48:26Z</time>
      </trkpt>
      <trkpt lat="59.8522742" lon="17.7356433">
        <ele>19.3638</ele>
        <time>2013-05-01T10:48:27Z</time>
      </trkpt>
      <trkpt lat="59.8522174" lon="17.7357111">
        <ele>19.3638</ele>
        <time>2013-05-01T10:48:28Z</time>
      </trkpt>
      <trkpt lat="59.8521603" lon="17.7357793">
        <ele>19.3638</ele>
        <time>2013-05-01T10:48:29Z</time>
      </trkpt>
      <trkpt lat="59.8521028" lon="17.735847">
        <ele>19.3638</ele>
        <time>2013-05-01T10:48:30Z</time>
      </trkpt>
      <trkpt lat="59.8520464" lon="17.7359183">
        <ele>19.3638</ele>
        <time>2013-05-01T10:48:31Z</time>
      </trkpt>
      <trkpt lat="59.8519914" lon="17.7359953">
        <ele>19.3638</ele>
        <time>2013-05-01T10:48:32Z</time>
      </trkpt>
      <trkpt lat="59.8519376" lon="17.7360777">
        <ele>19.3638</ele>
        <time>2013-05-01T10:48:33Z</time>
      </trkpt>
      <trkpt lat="59.8518851" lon="17.7361649">
        <ele>19.3638</ele>
        <time>2013-05-01T10:48:34Z</time>
      </trkpt>
      <trkpt lat="59.8518329" lon="17.7362549">
        <ele>19.3638</ele>
        <time>2013-05-01T10:48:35Z</time>
      </trkpt>
      <trkpt lat="59.8517797" lon="17.7363445">
        <ele>19.3638</ele>
        <time>2013-05-01T10:48:36Z</time>
      </trkpt>
      <trkpt lat="59.8517259" lon="17.7364346">
        <ele>19.3638</ele>
        <time>2013-05-01T10:48:37Z</time>
      </trkpt>
      <trkpt lat="59.8516709" lon="17.7365233">
        <ele>19.3638</ele>
        <time>2013-05-01T10:48:38Z</time>
      </trkpt>
      <trkpt lat="59.8516144" lon="17.7366095">
        <ele>19.3638</ele>
        <time>2013-05-01T10:48:39Z</time>
      </trkpt>
      <trkpt lat="59.8515569" lon="17.7366938">
        <ele>19.3638</ele>
        <time>2013-05-01T10:48:40Z</time>
      </trkpt>
      <trkpt lat="59.8514979" lon="17.736774">
        <ele>19.3638</ele>
        <time>2013-05-01T10:48:41Z</time>
      </trkpt>
      <trkpt lat="59.8514367" lon="17.7368492">
        <ele>19.3638</ele>
        <time>2013-05-01T10:48:42Z</time>
      </trkpt>
      <trkpt lat="59.8513734" lon="17.7369193">
        <ele>19.3638</ele>
        <time>2013-05-01T10:48:43Z</time>
      </trkpt>
      <trkpt lat="59.8513083" lon="17.7369849">
        <ele>19.3638</ele>
        <time>2013-05-01T10:48:44Z</time>
      </trkpt>
      <trkpt lat="59.8512429" lon="17.7370495">
        <ele>19.3638</ele>
        <time>2013-05-01T10:48:45Z</time>
      </trkpt>
      <trkpt lat="59.8511781" lon="17.7371098">
        <ele>19.3638</ele>
        <time>2013-05-01T10:48:46Z</time>
      </trkpt>
      <trkpt lat="59.8511125" lon="17.737166">
        <ele>19.8444</ele>
        <time>2013-05-01T10:48:47Z</time>
      </trkpt>
      <trkpt lat="59.8510461" lon="17.7372187">
        <ele>19.8444</ele>
        <time>2013-05-01T10:48:48Z</time>
      </trkpt>
      <trkpt lat="59.8509792" lon="17.7372723">
        <ele>19.8444</ele>
        <time>2013-05-01T10:48:49Z</time>
      </trkpt>
      <trkpt lat="59.8509118" lon="17.7373252">
        <ele>20.325</ele>
        <time>2013-05-01T10:48:50Z</time>
      </trkpt>
      <trkpt lat="59.8508441" lon="17.7373759">
        <ele>20.325</ele>
        <time>2013-05-01T10:48:51Z</time>
      </trkpt>
      <trkpt lat="59.8507766" lon="17.7374242">
        <ele>20.8057</ele>
        <time>2013-05-01T10:48:52Z</time>
      </trkpt>
      <trkpt lat="59.850709" lon="17.7374729">
        <ele>20.8057</ele>
        <time>2013-05-01T10:48:53Z</time>
      </trkpt>
      <trkpt lat="59.8506424" lon="17.7375241">
        <ele>20.8057</ele>
        <time>2013-05-01T10:48:54Z</time>
      </trkpt>
      <trkpt lat="59.8505758" lon="17.7375733">
        <ele>21.2864</ele>
        <time>2013-05-01T10:48:55Z</time>
      </trkpt>
      <trkpt lat="59.8505094" lon="17.7376159">
        <ele>21.2864</ele>
        <time>2013-05-01T10:48:56Z</time>
      </trkpt>
      <trkpt lat="59.8504426" lon="17.7376569">
        <ele>21.2864</ele>
        <time>2013-05-01T10:48:57Z</time>
      </trkpt>
      <trkpt lat="59.8503752" lon="17.7376997">
        <ele>21.767</ele>
        <time>2013-05-01T10:48:58Z</time>
      </trkpt>
      <trkpt lat="59.850308" lon="17.7377413">
        <ele>21.767</ele>
        <time>2013-05-01T10:48:59Z</time>
      </trkpt>
      <trkpt lat="59.8502401" lon="17.7377801">
        <ele>21.767</ele>
        <time>2013-05-01T10:49:00Z</time>
      </trkpt>
      <trkpt lat="59.8501712" lon="17.7378158">
        <ele>22.2476</ele>
        <time>2013-05-01T10:49:01Z</time>
      </trkpt>
      <trkpt lat="59.8501016" lon="17.7378495">
        <ele>22.2476</ele>
        <time>2013-05-01T10:49:02Z</time>
      </trkpt>
      <trkpt lat="59.8500318" lon="17.7378817">
        <ele>22.7283</ele>
        <time>2013-05-01T10:49:03Z</time>
      </trkpt>
      <trkpt lat="59.849962" lon="17.7379106">
        <ele>22.7283</ele>
        <time>2013-05-01T10:49:04Z</time>
      </trkpt>
      <trkpt lat="59.8498928" lon="17.7379366">
        <ele>22.7283</ele>
        <time>2013-05-01T10:49:05Z</time>
      </trkpt>
      <trkpt lat="59.8498243" lon="17.7379614">
        <ele>22.7283</ele>
        <time>2013-05-01T10:49:06Z</time>
      </trkpt>
      <trkpt lat="59.8497562" lon="17.7379847">
        <ele>23.209</ele>
        <time>2013-05-01T10:49:07Z</time>
      </trkpt>
      <trkpt lat="59.8496877" lon="17.738009">
        <ele>23.209</ele>
        <time>2013-05-01T10:49:08Z</time>
      </trkpt>
      <trkpt lat="59.8496195" lon="17.7380342">
        <ele>22.7283</ele>
        <time>2013-05-01T10:49:09Z</time>
      </trkpt>
      <trkpt lat="59.8495512" lon="17.7380603">
        <ele>22.7283</ele>
        <time>2013-05-01T10:49:10Z</time>
      </trkpt>
      <trkpt lat="59.8494831" lon="17.7380855">
        <ele>23.209</ele>
        <time>2013-05-01T10:49:11Z</time>
      </trkpt>
      <trkpt lat="59.8494152" lon="17.7381109">
        <ele>23.209</ele>
        <time>2013-05-01T10:49:12Z</time>
      </trkpt>
      <trkpt lat="59.8493476" lon="17.7381381">
        <ele>23.209</ele>
        <time>2013-05-01T10:49:13Z</time>
      </trkpt>
      <trkpt lat="59.8492807" lon="17.7381675">
        <ele>23.209</ele>
        <time>2013-05-01T10:49:14Z</time>
      </trkpt>
      <trkpt lat="59.8492144" lon="17.7381979">
        <ele>23.209</ele>
        <time>2013-05-01T10:49:15Z</time>
      </trkpt>
      <trkpt lat="59.8491482" lon="17.7382292">
        <ele>23.6896</ele>
        <time>2013-05-01T10:49:16Z</time>
      </trkpt>
      <trkpt lat="59.8490813" lon="17.7382613">
        <ele>23.6896</ele>
        <time>2013-05-01T10:49:17Z</time>
      </trkpt>
      <trkpt lat="59.8490145" lon="17.7382948">
        <ele>23.6896</ele>
        <time>2013-05-01T10:49:18Z</time>
      </trkpt>
      <trkpt lat="59.8489475" lon="17.7383281">
        <ele>23.6896</ele>
        <time>2013-05-01T10:49:19Z</time>
      </trkpt>
      <trkpt lat="59.8488801" lon="17.7383603">
        <ele>23.6896</ele>
        <time>2013-05-01T10:49:20Z</time>
      </trkpt>
      <trkpt lat="59.8488126" lon="17.7383975">
        <ele>23.6896</ele>
        <time>2013-05-01T10:49:21Z</time>
      </trkpt>
      <trkpt lat="59.8487465" lon="17.7384415">
        <ele>23.6896</ele>
        <time>2013-05-01T10:49:22Z</time>
      </trkpt>
      <trkpt lat="59.8486814" lon="17.7384877">
        <ele>23.6896</ele>
        <time>2013-05-01T10:49:23Z</time>
      </trkpt>
      <trkpt lat="59.8486165" lon="17.7385325">
        <ele>23.6896</ele>
        <time>2013-05-01T10:49:24Z</time>
      </trkpt>
      <trkpt lat="59.8485508" lon="17.738573">
        <ele>23.6896</ele>
        <time>2013-05-01T10:49:25Z</time>
      </trkpt>
      <trkpt lat="59.8484847" lon="17.7386103">
        <ele>23.6896</ele>
        <time>2013-05-01T10:49:26Z</time>
      </trkpt>
      <trkpt lat="59.8484188" lon="17.7386431">
        <ele>23.6896</ele>
        <time>2013-05-01T10:49:27Z</time>
      </trkpt>
      <trkpt lat="59.8483524" lon="17.7386752">
        <ele>23.209</ele>
        <time>2013-05-01T10:49:28Z</time>
      </trkpt>
      <trkpt lat="59.8482857" lon="17.7387072">
        <ele>23.209</ele>
        <time>2013-05-01T10:49:29Z</time>
      </trkpt>
      <trkpt lat="59.8482194" lon="17.738741">
        <ele>23.209</ele>
        <time>2013-05-01T10:49:30Z</time>
      </trkpt>
      <trkpt lat="59.8481537" lon="17.7387716">
        <ele>23.6896</ele>
        <time>2013-05-01T10:49:31Z</time>
      </trkpt>
      <trkpt lat="59.8480878" lon="17.7387957">
        <ele>24.1703</ele>
        <time>2013-05-01T10:49:32Z</time>
      </trkpt>
      <trkpt lat="59.8480221" lon="17.7388145">
        <ele>24.1703</ele>
        <time>2013-05-01T10:49:33Z</time>
      </trkpt>
      <trkpt lat="59.8479599" lon="17.7388455">
        <ele>24.651</ele>
        <time>2013-05-01T10:49:34Z</time>
      </trkpt>
      <trkpt lat="59.8479063" lon="17.738914">
        <ele>24.651</ele>
        <time>2013-05-01T10:49:35Z</time>
      </trkpt>
      <trkpt lat="59.8478666" lon="17.7390175">
        <ele>24.651</ele>
        <time>2013-05-01T10:49:36Z</time>
      </trkpt>
      <trkpt lat="59.8478408" lon="17.7391379">
        <ele>24.651</ele>
        <time>2013-05-01T10:49:37Z</time>
      </trkpt>
      <trkpt lat="59.8478258" lon="17.7392681">
        <ele>24.651</ele>
        <time>2013-05-01T10:49:38Z</time>
      </trkpt>
      <trkpt lat="59.8478185" lon="17.7394025">
        <ele>24.651</ele>
        <time>2013-05-01T10:49:39Z</time>
      </trkpt>
      <trkpt lat="59.8478158" lon="17.7395412">
        <ele>24.651</ele>
        <time>2013-05-01T10:49:40Z</time>
      </trkpt>
      <trkpt lat="59.8478144" lon="17.7396797">
        <ele>24.1703</ele>
        <time>2013-05-01T10:49:41Z</time>
      </trkpt>
      <trkpt lat="59.8478134" lon="17.739817">
        <ele>24.1703</ele>
        <time>2013-05-01T10:49:42Z</time>
      </trkpt>
      <trkpt lat="59.847813" lon="17.7399555">
        <ele>24.1703</ele>
        <time>2013-05-01T10:49:43Z</time>
      </trkpt>
      <trkpt lat="59.8478139" lon="17.7400956">
        <ele>23.6896</ele>
        <time>2013-05-01T10:49:44Z</time>
      </trkpt>
      <trkpt lat="59.8478159" lon="17.7402383">
        <ele>23.6896</ele>
        <time>2013-05-01T10:49:45Z</time>
      </trkpt>
      <trkpt lat="59.8478175" lon="17.7403831">
        <ele>23.6896</ele>
        <time>2013-05-01T10:49:46Z</time>
      </trkpt>
      <trkpt lat="59.8478172" lon="17.7405293">
        <ele>23.6896</ele>
        <time>2013-05-01T10:49:47Z</time>
      </trkpt>
      <trkpt lat="59.8478152" lon="17.7406768">
        <ele>23.209</ele>
        <time>2013-05-01T10:49:48Z</time>
      </trkpt>
      <trkpt lat="59.8478123" lon="17.740826">
        <ele>23.209</ele>
        <time>2013-05-01T10:49:49Z</time>
      </trkpt>
      <trkpt lat="59.8478092" lon="17.7409762">
        <ele>23.209</ele>
        <time>2013-05-01T10:49:50Z</time>
      </trkpt>
      <trkpt lat="59.847807" lon="17.7411275">
        <ele>23.209</ele>
        <time>2013-05-01T10:49:51Z</time>
      </trkpt>
      <trkpt lat="59.847806" lon="17.7412785">
        <ele>22.7283</ele>
        <time>2013-05-01T10:49:52Z</time>
      </trkpt>
      <trkpt lat="59.8478058" lon="17.7414291">
        <ele>22.7283</ele>
        <time>2013-05-01T10:49:53Z</time>
      </trkpt>
      <trkpt lat="59.8478044" lon="17.7415807">
        <ele>22.7283</ele>
        <time>2013-05-01T10:49:54Z</time>
      </trkpt>
      <trkpt lat="59.8478023" lon="17.741734">
        <ele>22.2476</ele>
        <time>2013-05-01T10:49:55Z</time>
      </trkpt>
      <trkpt lat="59.8478013" lon="17.7418887">
        <ele>22.2476</ele>
        <time>2013-05-01T10:49:56Z</time>
      </trkpt>
      <trkpt lat="59.8477993" lon="17.7420436">
        <ele>22.2476</ele>
        <time>2013-05-01T10:49:57Z</time>
      </trkpt>
      <trkpt lat="59.847796" lon="17.7421986">
        <ele>21.767</ele>
        <time>2013-05-01T10:49:58Z</time>
      </trkpt>
      <trkpt lat="59.8477941" lon="17.7423547">
        <ele>21.767</ele>
        <time>2013-05-01T10:49:59Z</time>
      </trkpt>
      <trkpt lat="59.8477933" lon="17.7425132">
        <ele>21.767</ele>
        <time>2013-05-01T10:50:00Z</time>
      </trkpt>
      <trkpt lat="59.8477918" lon="17.7426733">
        <ele>21.767</ele>
        <time>2013-05-01T10:50:01Z</time>
      </trkpt>
      <trkpt lat="59.8477895" lon="17.7428359">
        <ele>21.2864</ele>
        <time>2013-05-01T10:50:02Z</time>
      </trkpt>
      <trkpt lat="59.847788" lon="17.7430005">
        <ele>21.2864</ele>
        <time>2013-05-01T10:50:03Z</time>
      </trkpt>
      <trkpt lat="59.8477875" lon="17.7431663">
        <ele>21.2864</ele>
        <time>2013-05-01T10:50:04Z</time>
      </trkpt>
      <trkpt lat="59.8477861" lon="17.7433327">
        <ele>21.2864</ele>
        <time>2013-05-01T10:50:05Z</time>
      </trkpt>
      <trkpt lat="59.8477838" lon="17.7434994">
        <ele>20.8057</ele>
        <time>2013-05-01T10:50:06Z</time>
      </trkpt>
      <trkpt lat="59.8477811" lon="17.7436667">
        <ele>20.8057</ele>
        <time>2013-05-01T10:50:07Z</time>
      </trkpt>
      <trkpt lat="59.8477776" lon="17.7438325">
        <ele>20.8057</ele>
        <time>2013-05-01T10:50:08Z</time>
      </trkpt>
      <trkpt lat="59.8477739" lon="17.7439936">
        <ele>20.325</ele>
        <time>2013-05-01T10:50:09Z</time>
      </trkpt>
      <trkpt lat="59.8477713" lon="17.7441506">
        <ele>20.325</ele>
        <time>2013-05-01T10:50:10Z</time>
      </trkpt>
      <trkpt lat="59.8477682" lon="17.7443053">
        <ele>20.325</ele>
        <time>2013-05-01T10:50:11Z</time>
      </trkpt>
      <trkpt lat="59.8477639" lon="17.7444602">
        <ele>20.325</ele>
        <time>2013-05-01T10:50:12Z</time>
      </trkpt>
      <trkpt lat="59.8477594" lon="17.7446157">
        <ele>20.325</ele>
        <time>2013-05-01T10:50:13Z</time>
      </trkpt>
      <trkpt lat="59.8477568" lon="17.7447711">
        <ele>20.325</ele>
        <time>2013-05-01T10:50:14Z</time>
      </trkpt>
      <trkpt lat="59.8477567" lon="17.7449255">
        <ele>20.325</ele>
        <time>2013-05-01T10:50:15Z</time>
      </trkpt>
      <trkpt lat="59.8477563" lon="17.7450778">
        <ele>20.325</ele>
        <time>2013-05-01T10:50:16Z</time>
      </trkpt>
      <trkpt lat="59.8477537" lon="17.7452271">
        <ele>20.325</ele>
        <time>2013-05-01T10:50:17Z</time>
      </trkpt>
      <trkpt lat="59.84775" lon="17.7453752">
        <ele>20.325</ele>
        <time>2013-05-01T10:50:18Z</time>
      </trkpt>
      <trkpt lat="59.8477467" lon="17.7455217">
        <ele>20.325</ele>
        <time>2013-05-01T10:50:19Z</time>
      </trkpt>
      <trkpt lat="59.8477444" lon="17.7456681">
        <ele>20.325</ele>
        <time>2013-05-01T10:50:20Z</time>
      </trkpt>
      <trkpt lat="59.8477421" lon="17.7458165">
        <ele>20.325</ele>
        <time>2013-05-01T10:50:21Z</time>
      </trkpt>
      <trkpt lat="59.8477402" lon="17.745966">
        <ele>20.325</ele>
        <time>2013-05-01T10:50:22Z</time>
      </trkpt>
      <trkpt lat="59.8477391" lon="17.7461154">
        <ele>20.325</ele>
        <time>2013-05-01T10:50:23Z</time>
      </trkpt>
      <trkpt lat="59.8477362" lon="17.7462651">
        <ele>20.8057</ele>
        <time>2013-05-01T10:50:24Z</time>
      </trkpt>
      <trkpt lat="59.8477331" lon="17.7464151">
        <ele>20.8057</ele>
        <time>2013-05-01T10:50:25Z</time>
      </trkpt>
      <trkpt lat="59.8477309" lon="17.746564">
        <ele>20.8057</ele>
        <time>2013-05-01T10:50:26Z</time>
      </trkpt>
      <trkpt lat="59.8477284" lon="17.7467121">
        <ele>20.8057</ele>
        <time>2013-05-01T10:50:27Z</time>
      </trkpt>
      <trkpt lat="59.8477255" lon="17.7468586">
        <ele>21.2864</ele>
        <time>2013-05-01T10:50:28Z</time>
      </trkpt>
      <trkpt lat="59.8477232" lon="17.7470051">
        <ele>21.2864</ele>
        <time>2013-05-01T10:50:29Z</time>
      </trkpt>
      <trkpt lat="59.8477217" lon="17.7471514">
        <ele>21.767</ele>
        <time>2013-05-01T10:50:30Z</time>
      </trkpt>
      <trkpt lat="59.8477204" lon="17.7472979">
        <ele>21.767</ele>
        <time>2013-05-01T10:50:31Z</time>
      </trkpt>
      <trkpt lat="59.8477189" lon="17.7474436">
        <ele>21.767</ele>
        <time>2013-05-01T10:50:32Z</time>
      </trkpt>
      <trkpt lat="59.8477174" lon="17.7475875">
        <ele>21.767</ele>
        <time>2013-05-01T10:50:33Z</time>
      </trkpt>
      <trkpt lat="59.8477174" lon="17.7477321">
        <ele>21.767</ele>
        <time>2013-05-01T10:50:34Z</time>
      </trkpt>
      <trkpt lat="59.8477185" lon="17.7478771">
        <ele>22.2476</ele>
        <time>2013-05-01T10:50:35Z</time>
      </trkpt>
      <trkpt lat="59.8477195" lon="17.7480199">
        <ele>22.2476</ele>
        <time>2013-05-01T10:50:36Z</time>
      </trkpt>
      <trkpt lat="59.8477195" lon="17.7481642">
        <ele>22.2476</ele>
        <time>2013-05-01T10:50:37Z</time>
      </trkpt>
      <trkpt lat="59.8477195" lon="17.7483071">
        <ele>22.7283</ele>
        <time>2013-05-01T10:50:38Z</time>
      </trkpt>
      <trkpt lat="59.8477213" lon="17.7484453">
        <ele>22.7283</ele>
        <time>2013-05-01T10:50:39Z</time>
      </trkpt>
      <trkpt lat="59.8477241" lon="17.7485816">
        <ele>22.7283</ele>
        <time>2013-05-01T10:50:40Z</time>
      </trkpt>
      <trkpt lat="59.8477277" lon="17.7487177">
        <ele>22.7283</ele>
        <time>2013-05-01T10:50:41Z</time>
      </trkpt>
      <trkpt lat="59.8477327" lon="17.7488532">
        <ele>23.209</ele>
        <time>2013-05-01T10:50:42Z</time>
      </trkpt>
      <trkpt lat="59.8477386" lon="17.7489877">
        <ele>23.209</ele>
        <time>2013-05-01T10:50:43Z</time>
      </trkpt>
      <trkpt lat="59.8477447" lon="17.7491213">
        <ele>23.209</ele>
        <time>2013-05-01T10:50:44Z</time>
      </trkpt>
      <trkpt lat="59.8477509" lon="17.7492541">
        <ele>23.6896</ele>
        <time>2013-05-01T10:50:45Z</time>
      </trkpt>
      <trkpt lat="59.8477571" lon="17.7493875">
        <ele>23.6896</ele>
        <time>2013-05-01T10:50:46Z</time>
      </trkpt>
      <trkpt lat="59.8477629" lon="17.7495181">
        <ele>23.6896</ele>
        <time>2013-05-01T10:50:47Z</time>
      </trkpt>
      <trkpt lat="59.8477687" lon="17.7496503">
        <ele>23.6896</ele>
        <time>2013-05-01T10:50:48Z</time>
      </trkpt>
      <trkpt lat="59.8477757" lon="17.7497824">
        <ele>23.6896</ele>
        <time>2013-05-01T10:50:49Z</time>
      </trkpt>
      <trkpt lat="59.8477837" lon="17.7499143">
        <ele>23.6896</ele>
        <time>2013-05-01T10:50:50Z</time>
      </trkpt>
      <trkpt lat="59.8477827" lon="17.7500852">
        <ele>23.6896</ele>
        <time>2013-05-01T10:50:51Z</time>
      </trkpt>
      <trkpt lat="59.8477939" lon="17.7502253">
        <ele>23.6896</ele>
        <time>2013-05-01T10:50:52Z</time>
      </trkpt>
      <trkpt lat="59.8478018" lon="17.7503668">
        <ele>23.6896</ele>
        <time>2013-05-01T10:50:53Z</time>
      </trkpt>
      <trkpt lat="59.847817" lon="17.7505071">
        <ele>23.6896</ele>
        <time>2013-05-01T10:50:54Z</time>
      </trkpt>
      <trkpt lat="59.8478329" lon="17.7506386">
        <ele>23.6896</ele>
        <time>2013-05-01T10:50:55Z</time>
      </trkpt>
      <trkpt lat="59.8478459" lon="17.7507785">
        <ele>24.1703</ele>
        <time>2013-05-01T10:50:56Z</time>
      </trkpt>
      <trkpt lat="59.8478583" lon="17.7509197">
        <ele>23.6896</ele>
        <time>2013-05-01T10:50:57Z</time>
      </trkpt>
      <trkpt lat="59.8478718" lon="17.7510591">
        <ele>23.6896</ele>
        <time>2013-05-01T10:50:58Z</time>
      </trkpt>
      <trkpt lat="59.8478837" lon="17.7511995">
        <ele>23.209</ele>
        <time>2013-05-01T10:50:59Z</time>
      </trkpt>
      <trkpt lat="59.8478968" lon="17.751342">
        <ele>23.209</ele>
        <time>2013-05-01T10:51:00Z</time>
      </trkpt>
      <trkpt lat="59.8479115" lon="17.7514852">
        <ele>22.7283</ele>
        <time>2013-05-01T10:51:01Z</time>
      </trkpt>
      <trkpt lat="59.847928" lon="17.7516307">
        <ele>22.7283</ele>
        <time>2013-05-01T10:51:02Z</time>
      </trkpt>
      <trkpt lat="59.8479469" lon="17.7517887">
        <ele>22.7283</ele>
        <time>2013-05-01T10:51:03Z</time>
      </trkpt>
      <trkpt lat="59.8479682" lon="17.7519476">
        <ele>22.2476</ele>
        <time>2013-05-01T10:51:04Z</time>
      </trkpt>
      <trkpt lat="59.847991" lon="17.7521067">
        <ele>22.2476</ele>
        <time>2013-05-01T10:51:05Z</time>
      </trkpt>
      <trkpt lat="59.8480142" lon="17.7522694">
        <ele>21.767</ele>
        <time>2013-05-01T10:51:06Z</time>
      </trkpt>
      <trkpt lat="59.8480386" lon="17.7524339">
        <ele>21.767</ele>
        <time>2013-05-01T10:51:07Z</time>
      </trkpt>
      <trkpt lat="59.848064" lon="17.7526049">
        <ele>20.8057</ele>
        <time>2013-05-01T10:51:08Z</time>
      </trkpt>
      <trkpt lat="59.8480898" lon="17.7527801">
        <ele>20.325</ele>
        <time>2013-05-01T10:51:09Z</time>
      </trkpt>
      <trkpt lat="59.8481164" lon="17.7529558">
        <ele>19.8444</ele>
        <time>2013-05-01T10:51:10Z</time>
      </trkpt>
      <trkpt lat="59.8481432" lon="17.7531356">
        <ele>19.8444</ele>
        <time>2013-05-01T10:51:11Z</time>
      </trkpt>
      <trkpt lat="59.8481682" lon="17.7533188">
        <ele>19.8444</ele>
        <time>2013-05-01T10:51:12Z</time>
      </trkpt>
      <trkpt lat="59.848192" lon="17.7535038">
        <ele>19.3638</ele>
        <time>2013-05-01T10:51:13Z</time>
      </trkpt>
      <trkpt lat="59.8482157" lon="17.7536932">
        <ele>18.8831</ele>
        <time>2013-05-01T10:51:14Z</time>
      </trkpt>
      <trkpt lat="59.8482401" lon="17.7538855">
        <ele>18.8831</ele>
        <time>2013-05-01T10:51:15Z</time>
      </trkpt>
      <trkpt lat="59.8482648" lon="17.7540788">
        <ele>18.8831</ele>
        <time>2013-05-01T10:51:16Z</time>
      </trkpt>
      <trkpt lat="59.8482893" lon="17.7542731">
        <ele>18.4023</ele>
        <time>2013-05-01T10:51:17Z</time>
      </trkpt>
      <trkpt lat="59.8483136" lon="17.7544681">
        <ele>18.4023</ele>
        <time>2013-05-01T10:51:18Z</time>
      </trkpt>
      <trkpt lat="59.848338" lon="17.7546632">
        <ele>18.4023</ele>
        <time>2013-05-01T10:51:19Z</time>
      </trkpt>
      <trkpt lat="59.8483621" lon="17.7548589">
        <ele>18.4023</ele>
        <time>2013-05-01T10:51:20Z</time>
      </trkpt>
      <trkpt lat="59.8483842" lon="17.7550563">
        <ele>18.4023</ele>
        <time>2013-05-01T10:51:21Z</time>
      </trkpt>
      <trkpt lat="59.8484052" lon="17.7552549">
        <ele>17.9218</ele>
        <time>2013-05-01T10:51:22Z</time>
      </trkpt>
      <trkpt lat="59.848425" lon="17.7554536">
        <ele>17.9218</ele>
        <time>2013-05-01T10:51:23Z</time>
      </trkpt>
      <trkpt lat="59.8484435" lon="17.7556521">
        <ele>17.9218</ele>
        <time>2013-05-01T10:51:24Z</time>
      </trkpt>
      <trkpt lat="59.84846" lon="17.7558497">
        <ele>17.9218</ele>
        <time>2013-05-01T10:51:25Z</time>
      </trkpt>
      <trkpt lat="59.8484742" lon="17.7560467">
        <ele>17.9218</ele>
        <time>2013-05-01T10:51:26Z</time>
      </trkpt>
      <trkpt lat="59.8484859" lon="17.7562435">
        <ele>17.9218</ele>
        <time>2013-05-01T10:51:27Z</time>
      </trkpt>
      <trkpt lat="59.848496" lon="17.7564392">
        <ele>17.9218</ele>
        <time>2013-05-01T10:51:28Z</time>
      </trkpt>
      <trkpt lat="59.8485049" lon="17.7566339">
        <ele>17.9218</ele>
        <time>2013-05-01T10:51:29Z</time>
      </trkpt>
      <trkpt lat="59.8485124" lon="17.7568278">
        <ele>17.9218</ele>
        <time>2013-05-01T10:51:30Z</time>
      </trkpt>
      <trkpt lat="59.8485167" lon="17.7570206">
        <ele>17.9218</ele>
        <time>2013-05-01T10:51:31Z</time>
      </trkpt>
      <trkpt lat="59.8485186" lon="17.7572112">
        <ele>17.9218</ele>
        <time>2013-05-01T10:51:32Z</time>
      </trkpt>
      <trkpt lat="59.8485186" lon="17.7573991">
        <ele>17.9218</ele>
        <time>2013-05-01T10:51:33Z</time>
      </trkpt>
      <trkpt lat="59.8485171" lon="17.7575846">
        <ele>17.9218</ele>
        <time>2013-05-01T10:51:34Z</time>
      </trkpt>
      <trkpt lat="59.8485145" lon="17.7577685">
        <ele>17.9218</ele>
        <time>2013-05-01T10:51:35Z</time>
      </trkpt>
      <trkpt lat="59.8485101" lon="17.757951">
        <ele>17.9218</ele>
        <time>2013-05-01T10:51:36Z</time>
      </trkpt>
      <trkpt lat="59.8485051" lon="17.7581327">
        <ele>17.9218</ele>
        <time>2013-05-01T10:51:37Z</time>
      </trkpt>
      <trkpt lat="59.848501" lon="17.7583143">
        <ele>17.9218</ele>
        <time>2013-05-01T10:51:38Z</time>
      </trkpt>
      <trkpt lat="59.8484975" lon="17.7584954">
        <ele>17.9218</ele>
        <time>2013-05-01T10:51:39Z</time>
      </trkpt>
      <trkpt lat="59.8484932" lon="17.7586765">
        <ele>17.9218</ele>
        <time>2013-05-01T10:51:40Z</time>
      </trkpt>
      <trkpt lat="59.8484878" lon="17.7588577">
        <ele>17.9218</ele>
        <time>2013-05-01T10:51:41Z</time>
      </trkpt>
      <trkpt lat="59.8484815" lon="17.7590383">
        <ele>17.9218</ele>
        <time>2013-05-01T10:51:42Z</time>
      </trkpt>
      <trkpt lat="59.8484745" lon="17.7592174">
        <ele>17.4412</ele>
        <time>2013-05-01T10:51:43Z</time>
      </trkpt>
      <trkpt lat="59.8484688" lon="17.7593942">
        <ele>17.4412</ele>
        <time>2013-05-01T10:51:44Z</time>
      </trkpt>
      <trkpt lat="59.8484658" lon="17.7595691">
        <ele>17.4412</ele>
        <time>2013-05-01T10:51:45Z</time>
      </trkpt>
      <trkpt lat="59.8484627" lon="17.7597422">
        <ele>17.4412</ele>
        <time>2013-05-01T10:51:46Z</time>
      </trkpt>
      <trkpt lat="59.8484583" lon="17.7599136">
        <ele>17.4412</ele>
        <time>2013-05-01T10:51:47Z</time>
      </trkpt>
      <trkpt lat="59.8484544" lon="17.7600844">
        <ele>17.4412</ele>
        <time>2013-05-01T10:51:48Z</time>
      </trkpt>
      <trkpt lat="59.8484494" lon="17.760255">
        <ele>17.4412</ele>
        <time>2013-05-01T10:51:49Z</time>
      </trkpt>
      <trkpt lat="59.8484437" lon="17.7604254">
        <ele>17.4412</ele>
        <time>2013-05-01T10:51:50Z</time>
      </trkpt>
      <trkpt lat="59.8484391" lon="17.7605962">
        <ele>17.4412</ele>
        <time>2013-05-01T10:51:51Z</time>
      </trkpt>
      <trkpt lat="59.8484352" lon="17.7607669">
        <ele>17.4412</ele>
        <time>2013-05-01T10:51:52Z</time>
      </trkpt>
      <trkpt lat="59.8484313" lon="17.7609378">
        <ele>17.4412</ele>
        <time>2013-05-01T10:51:53Z</time>
      </trkpt>
      <trkpt lat="59.8484272" lon="17.761109">
        <ele>17.4412</ele>
        <time>2013-05-01T10:51:54Z</time>
      </trkpt>
      <trkpt lat="59.8484227" lon="17.7612812">
        <ele>17.4412</ele>
        <time>2013-05-01T10:51:55Z</time>
      </trkpt>
      <trkpt lat="59.8484186" lon="17.761455">
        <ele>16.9604</ele>
        <time>2013-05-01T10:51:56Z</time>
      </trkpt>
      <trkpt lat="59.8484145" lon="17.7616287">
        <ele>16.9604</ele>
        <time>2013-05-01T10:51:57Z</time>
      </trkpt>
      <trkpt lat="59.8484099" lon="17.7618033">
        <ele>16.9604</ele>
        <time>2013-05-01T10:51:58Z</time>
      </trkpt>
      <trkpt lat="59.8484049" lon="17.761977">
        <ele>16.9604</ele>
        <time>2013-05-01T10:51:59Z</time>
      </trkpt>
      <trkpt lat="59.8484006" lon="17.7621474">
        <ele>16.9604</ele>
        <time>2013-05-01T10:52:00Z</time>
      </trkpt>
      <trkpt lat="59.848397" lon="17.7623141">
        <ele>16.9604</ele>
        <time>2013-05-01T10:52:01Z</time>
      </trkpt>
      <trkpt lat="59.8483935" lon="17.7624772">
        <ele>16.9604</ele>
        <time>2013-05-01T10:52:02Z</time>
      </trkpt>
      <trkpt lat="59.8483893" lon="17.7626374">
        <ele>16.9604</ele>
        <time>2013-05-01T10:52:03Z</time>
      </trkpt>
      <trkpt lat="59.8483813" lon="17.7627962">
        <ele>16.9604</ele>
        <time>2013-05-01T10:52:04Z</time>
      </trkpt>
      <trkpt lat="59.8483626" lon="17.7629511">
        <ele>16.9604</ele>
        <time>2013-05-01T10:52:05Z</time>
      </trkpt>
      <trkpt lat="59.8483262" lon="17.763094">
        <ele>16.4797</ele>
        <time>2013-05-01T10:52:06Z</time>
      </trkpt>
      <trkpt lat="59.8482763" lon="17.7632219">
        <ele>16.4797</ele>
        <time>2013-05-01T10:52:07Z</time>
      </trkpt>
      <trkpt lat="59.8482204" lon="17.7633388">
        <ele>16.9604</ele>
        <time>2013-05-01T10:52:08Z</time>
      </trkpt>
      <trkpt lat="59.8481634" lon="17.7634511">
        <ele>16.4797</ele>
        <time>2013-05-01T10:52:09Z</time>
      </trkpt>
      <trkpt lat="59.8481078" lon="17.7635636">
        <ele>15.999</ele>
        <time>2013-05-01T10:52:10Z</time>
      </trkpt>
      <trkpt lat="59.8480546" lon="17.7636749">
        <ele>15.5184</ele>
        <time>2013-05-01T10:52:11Z</time>
      </trkpt>
      <trkpt lat="59.8480006" lon="17.7637816">
        <ele>15.5184</ele>
        <time>2013-05-01T10:52:12Z</time>
      </trkpt>
      <trkpt lat="59.8479453" lon="17.7638882">
        <ele>15.5184</ele>
        <time>2013-05-01T10:52:13Z</time>
      </trkpt>
      <trkpt lat="59.8478914" lon="17.7639997">
        <ele>15.0377</ele>
        <time>2013-05-01T10:52:14Z</time>
      </trkpt>
      <trkpt lat="59.8478376" lon="17.7641139">
        <ele>15.0377</ele>
        <time>2013-05-01T10:52:15Z</time>
      </trkpt>
      <trkpt lat="59.8477822" lon="17.7642277">
        <ele>15.0377</ele>
        <time>2013-05-01T10:52:16Z</time>
      </trkpt>
      <trkpt lat="59.847726" lon="17.764342">
        <ele>15.0377</ele>
        <time>2013-05-01T10:52:17Z</time>
      </trkpt>
      <trkpt lat="59.8476706" lon="17.7644564">
        <ele>14.557</ele>
        <time>2013-05-01T10:52:18Z</time>
      </trkpt>
      <trkpt lat="59.8476157" lon="17.7645706">
        <ele>14.557</ele>
        <time>2013-05-01T10:52:19Z</time>
      </trkpt>
      <trkpt lat="59.8475609" lon="17.7646828">
        <ele>14.557</ele>
        <time>2013-05-01T10:52:20Z</time>
      </trkpt>
      <trkpt lat="59.8475069" lon="17.7647934">
        <ele>14.557</ele>
        <time>2013-05-01T10:52:21Z</time>
      </trkpt>
      <trkpt lat="59.8474541" lon="17.7649034">
        <ele>14.557</ele>
        <time>2013-05-01T10:52:22Z</time>
      </trkpt>
      <trkpt lat="59.8474015" lon="17.7650111">
        <ele>14.557</ele>
        <time>2013-05-01T10:52:23Z</time>
      </trkpt>
      <trkpt lat="59.8473494" lon="17.7651174">
        <ele>14.557</ele>
        <time>2013-05-01T10:52:24Z</time>
      </trkpt>
      <trkpt lat="59.8473005" lon="17.7652257">
        <ele>14.557</ele>
        <time>2013-05-01T10:52:25Z</time>
      </trkpt>
      <trkpt lat="59.8472594" lon="17.7653399">
        <ele>14.557</ele>
        <time>2013-05-01T10:52:26Z</time>
      </trkpt>
      <trkpt lat="59.8472319" lon="17.7654658">
        <ele>14.557</ele>
        <time>2013-05-01T10:52:27Z</time>
      </trkpt>
      <trkpt lat="59.8472247" lon="17.7656041">
        <ele>15.0377</ele>
        <time>2013-05-01T10:52:28Z</time>
      </trkpt>
      <trkpt lat="59.8472361" lon="17.7657428">
        <ele>15.0377</ele>
        <time>2013-05-01T10:52:29Z</time>
      </trkpt>
      <trkpt lat="59.8472573" lon="17.7658785">
        <ele>15.0377</ele>
        <time>2013-05-01T10:52:30Z</time>
      </trkpt>
      <trkpt lat="59.8472816" lon="17.7660125">
        <ele>15.0377</ele>
        <time>2013-05-01T10:52:31Z</time>
      </trkpt>
      <trkpt lat="59.8473077" lon="17.7661462">
        <ele>15.0377</ele>
        <time>2013-05-01T10:52:32Z</time>
      </trkpt>
      <trkpt lat="59.8473318" lon="17.7662813">
        <ele>15.0377</ele>
        <time>2013-05-01T10:52:33Z</time>
      </trkpt>
      <trkpt lat="59.8473533" lon="17.7664181">
        <ele>15.5184</ele>
        <time>2013-05-01T10:52:34Z</time>
      </trkpt>
      <trkpt lat="59.8473748" lon="17.7665546">
        <ele>15.5184</ele>
        <time>2013-05-01T10:52:35Z</time>
      </trkpt>
      <trkpt lat="59.8473984" lon="17.7666913">
        <ele>15.0377</ele>
        <time>2013-05-01T10:52:36Z</time>
      </trkpt>
      <trkpt lat="59.8474194" lon="17.7668304">
        <ele>15.5184</ele>
        <time>2013-05-01T10:52:37Z</time>
      </trkpt>
      <trkpt lat="59.8474408" lon="17.7669732">
        <ele>15.5184</ele>
        <time>2013-05-01T10:52:38Z</time>
      </trkpt>
      <trkpt lat="59.8474636" lon="17.7671194">
        <ele>15.5184</ele>
        <time>2013-05-01T10:52:39Z</time>
      </trkpt>
      <trkpt lat="59.8474857" lon="17.7672672">
        <ele>15.5184</ele>
        <time>2013-05-01T10:52:40Z</time>
      </trkpt>
      <trkpt lat="59.84751" lon="17.7674175">
        <ele>15.0377</ele>
        <time>2013-05-01T10:52:41Z</time>
      </trkpt>
      <trkpt lat="59.8475359" lon="17.7675683">
        <ele>14.557</ele>
        <time>2013-05-01T10:52:42Z</time>
      </trkpt>
      <trkpt lat="59.8475626" lon="17.7677209">
        <ele>14.557</ele>
        <time>2013-05-01T10:52:43Z</time>
      </trkpt>
      <trkpt lat="59.8475896" lon="17.7678737">
        <ele>14.0764</ele>
        <time>2013-05-01T10:52:44Z</time>
      </trkpt>
      <trkpt lat="59.8476173" lon="17.7680257">
        <ele>13.5958</ele>
        <time>2013-05-01T10:52:45Z</time>
      </trkpt>
      <trkpt lat="59.8476436" lon="17.7681795">
        <ele>13.5958</ele>
        <time>2013-05-01T10:52:46Z</time>
      </trkpt>
      <trkpt lat="59.8476695" lon="17.7683339">
        <ele>13.5958</ele>
        <time>2013-05-01T10:52:47Z</time>
      </trkpt>
      <trkpt lat="59.8476947" lon="17.7684906">
        <ele>13.1151</ele>
        <time>2013-05-01T10:52:48Z</time>
      </trkpt>
      <trkpt lat="59.8477195" lon="17.7686474">
        <ele>13.1151</ele>
        <time>2013-05-01T10:52:49Z</time>
      </trkpt>
      <trkpt lat="59.8477434" lon="17.7688036">
        <ele>12.6344</ele>
        <time>2013-05-01T10:52:50Z</time>
      </trkpt>
      <trkpt lat="59.8477655" lon="17.768959">
        <ele>12.6344</ele>
        <time>2013-05-01T10:52:51Z</time>
      </trkpt>
      <trkpt lat="59.8477884" lon="17.7691145">
        <ele>13.1151</ele>
        <time>2013-05-01T10:52:52Z</time>
      </trkpt>
      <trkpt lat="59.8478118" lon="17.7692695">
        <ele>13.1151</ele>
        <time>2013-05-01T10:52:53Z</time>
      </trkpt>
      <trkpt lat="59.847835" lon="17.7694244">
        <ele>13.1151</ele>
        <time>2013-05-01T10:52:54Z</time>
      </trkpt>
      <trkpt lat="59.8478607" lon="17.7695781">
        <ele>13.1151</ele>
        <time>2013-05-01T10:52:55Z</time>
      </trkpt>
      <trkpt lat="59.847889" lon="17.7697252">
        <ele>12.6344</ele>
        <time>2013-05-01T10:52:56Z</time>
      </trkpt>
      <trkpt lat="59.8479236" lon="17.7698652">
        <ele>12.1538</ele>
        <time>2013-05-01T10:52:57Z</time>
      </trkpt>
      <trkpt lat="59.847964" lon="17.7700048">
        <ele>12.1538</ele>
        <time>2013-05-01T10:52:58Z</time>
      </trkpt>
      <trkpt lat="59.848005" lon="17.7701422">
        <ele>11.6732</ele>
        <time>2013-05-01T10:52:59Z</time>
      </trkpt>
      <trkpt lat="59.8480428" lon="17.7702829">
        <ele>11.6732</ele>
        <time>2013-05-01T10:53:00Z</time>
      </trkpt>
      <trkpt lat="59.8480727" lon="17.7704316">
        <ele>11.1925</ele>
        <time>2013-05-01T10:53:01Z</time>
      </trkpt>
      <trkpt lat="59.8481014" lon="17.7705925">
        <ele>12.1538</ele>
        <time>2013-05-01T10:53:02Z</time>
      </trkpt>
      <trkpt lat="59.8481231" lon="17.7707522">
        <ele>13.1151</ele>
        <time>2013-05-01T10:53:03Z</time>
      </trkpt>
      <trkpt lat="59.8481359" lon="17.7709152">
        <ele>13.1151</ele>
        <time>2013-05-01T10:53:04Z</time>
      </trkpt>
      <trkpt lat="59.8481519" lon="17.7710778">
        <ele>13.1151</ele>
        <time>2013-05-01T10:53:05Z</time>
      </trkpt>
      <trkpt lat="59.8481751" lon="17.7712387">
        <ele>13.1151</ele>
        <time>2013-05-01T10:53:06Z</time>
      </trkpt>
      <trkpt lat="59.8482031" lon="17.771399">
        <ele>14.0764</ele>
        <time>2013-05-01T10:53:07Z</time>
      </trkpt>
      <trkpt lat="59.8482322" lon="17.7715595">
        <ele>14.557</ele>
        <time>2013-05-01T10:53:08Z</time>
      </trkpt>
      <trkpt lat="59.8482582" lon="17.7717206">
        <ele>14.557</ele>
        <time>2013-05-01T10:53:09Z</time>
      </trkpt>
      <trkpt lat="59.8482855" lon="17.7718806">
        <ele>14.557</ele>
        <time>2013-05-01T10:53:10Z</time>
      </trkpt>
      <trkpt lat="59.8483121" lon="17.772039">
        <ele>14.557</ele>
        <time>2013-05-01T10:53:11Z</time>
      </trkpt>
      <trkpt lat="59.8483396" lon="17.7721946">
        <ele>14.557</ele>
        <time>2013-05-01T10:53:12Z</time>
      </trkpt>
      <trkpt lat="59.8483685" lon="17.7723484">
        <ele>14.557</ele>
        <time>2013-05-01T10:53:13Z</time>
      </trkpt>
      <trkpt lat="59.8483959" lon="17.7725002">
        <ele>14.557</ele>
        <time>2013-05-01T10:53:14Z</time>
      </trkpt>
      <trkpt lat="59.8484199" lon="17.7726479">
        <ele>15.0377</ele>
        <time>2013-05-01T10:53:15Z</time>
      </trkpt>
      <trkpt lat="59.8484404" lon="17.7727924">
        <ele>15.0377</ele>
        <time>2013-05-01T10:53:16Z</time>
      </trkpt>
      <trkpt lat="59.8484575" lon="17.7729348">
        <ele>15.5184</ele>
        <time>2013-05-01T10:53:17Z</time>
      </trkpt>
      <trkpt lat="59.8484726" lon="17.7730711">
        <ele>15.999</ele>
        <time>2013-05-01T10:53:18Z</time>
      </trkpt>
      <trkpt lat="59.8484834" lon="17.7731995">
        <ele>15.999</ele>
        <time>2013-05-01T10:53:19Z</time>
      </trkpt>
      <trkpt lat="59.8484938" lon="17.7733257">
        <ele>16.4797</ele>
        <time>2013-05-01T10:53:20Z</time>
      </trkpt>
      <trkpt lat="59.8485037" lon="17.7734528">
        <ele>16.9604</ele>
        <time>2013-05-01T10:53:21Z</time>
      </trkpt>
      <trkpt lat="59.8485126" lon="17.7735782">
        <ele>16.4797</ele>
        <time>2013-05-01T10:53:22Z</time>
      </trkpt>
      <trkpt lat="59.8485254" lon="17.7737036">
        <ele>16.9604</ele>
        <time>2013-05-01T10:53:23Z</time>
      </trkpt>
      <trkpt lat="59.8485394" lon="17.7738294">
        <ele>16.9604</ele>
        <time>2013-05-01T10:53:24Z</time>
      </trkpt>
      <trkpt lat="59.8485536" lon="17.7739522">
        <ele>17.4412</ele>
        <time>2013-05-01T10:53:25Z</time>
      </trkpt>
      <trkpt lat="59.8485667" lon="17.7740713">
        <ele>17.4412</ele>
        <time>2013-05-01T10:53:26Z</time>
      </trkpt>
      <trkpt lat="59.8485782" lon="17.77419">
        <ele>17.9218</ele>
        <time>2013-05-01T10:53:27Z</time>
      </trkpt>
      <trkpt lat="59.84859" lon="17.774308">
        <ele>17.9218</ele>
        <time>2013-05-01T10:53:28Z</time>
      </trkpt>
      <trkpt lat="59.8486023" lon="17.7744256">
        <ele>18.4023</ele>
        <time>2013-05-01T10:53:29Z</time>
      </trkpt>
      <trkpt lat="59.8486141" lon="17.7745441">
        <ele>18.4023</ele>
        <time>2013-05-01T10:53:30Z</time>
      </trkpt>
      <trkpt lat="59.8486277" lon="17.7746643">
        <ele>19.3638</ele>
        <time>2013-05-01T10:53:31Z</time>
      </trkpt>
      <trkpt lat="59.8486415" lon="17.7747852">
        <ele>19.8444</ele>
        <time>2013-05-01T10:53:32Z</time>
      </trkpt>
      <trkpt lat="59.8486549" lon="17.7749043">
        <ele>20.325</ele>
        <time>2013-05-01T10:53:33Z</time>
      </trkpt>
      <trkpt lat="59.848667" lon="17.7750214">
        <ele>20.8057</ele>
        <time>2013-05-01T10:53:34Z</time>
      </trkpt>
      <trkpt lat="59.8486799" lon="17.7751399">
        <ele>21.2864</ele>
        <time>2013-05-01T10:53:35Z</time>
      </trkpt>
      <trkpt lat="59.8486926" lon="17.7752561">
        <ele>21.767</ele>
        <time>2013-05-01T10:53:36Z</time>
      </trkpt>
      <trkpt lat="59.8487042" lon="17.7753721">
        <ele>22.2476</ele>
        <time>2013-05-01T10:53:37Z</time>
      </trkpt>
      <trkpt lat="59.8487147" lon="17.7754885">
        <ele>22.2476</ele>
        <time>2013-05-01T10:53:38Z</time>
      </trkpt>
      <trkpt lat="59.8487239" lon="17.7756047">
        <ele>22.7283</ele>
        <time>2013-05-01T10:53:39Z</time>
      </trkpt>
      <trkpt lat="59.848733" lon="17.7757208">
        <ele>23.209</ele>
        <time>2013-05-01T10:53:40Z</time>
      </trkpt>
      <trkpt lat="59.8487435" lon="17.7758356">
        <ele>23.6896</ele>
        <time>2013-05-01T10:53:41Z</time>
      </trkpt>
      <trkpt lat="59.8487517" lon="17.7759461">
        <ele>23.6896</ele>
        <time>2013-05-01T10:53:42Z</time>
      </trkpt>
      <trkpt lat="59.8487591" lon="17.7760585">
        <ele>23.6896</ele>
        <time>2013-05-01T10:53:43Z</time>
      </trkpt>
      <trkpt lat="59.8487648" lon="17.7761678">
        <ele>23.209</ele>
        <time>2013-05-01T10:53:44Z</time>
      </trkpt>
      <trkpt lat="59.8487689" lon="17.7762792">
        <ele>23.209</ele>
        <time>2013-05-01T10:53:45Z</time>
      </trkpt>
      <trkpt lat="59.8487741" lon="17.7763916">
        <ele>23.209</ele>
        <time>2013-05-01T10:53:46Z</time>
      </trkpt>
      <trkpt lat="59.8487808" lon="17.7765027">
        <ele>23.6896</ele>
        <time>2013-05-01T10:53:47Z</time>
      </trkpt>
      <trkpt lat="59.8487887" lon="17.7766151">
        <ele>23.209</ele>
        <time>2013-05-01T10:53:48Z</time>
      </trkpt>
      <trkpt lat="59.8487969" lon="17.7767251">
        <ele>23.209</ele>
        <time>2013-05-01T10:53:49Z</time>
      </trkpt>
      <trkpt lat="59.8488048" lon="17.7768314">
        <ele>23.209</ele>
        <time>2013-05-01T10:53:50Z</time>
      </trkpt>
      <trkpt lat="59.8488125" lon="17.7769297">
        <ele>23.209</ele>
        <time>2013-05-01T10:53:51Z</time>
      </trkpt>
      <trkpt lat="59.848819" lon="17.777025">
        <ele>23.209</ele>
        <time>2013-05-01T10:53:52Z</time>
      </trkpt>
      <trkpt lat="59.8488266" lon="17.777125">
        <ele>23.209</ele>
        <time>2013-05-01T10:53:53Z</time>
      </trkpt>
      <trkpt lat="59.8488322" lon="17.7772254">
        <ele>23.209</ele>
        <time>2013-05-01T10:53:54Z</time>
      </trkpt>
      <trkpt lat="59.8488378" lon="17.777325">
        <ele>23.209</ele>
        <time>2013-05-01T10:53:55Z</time>
      </trkpt>
      <trkpt lat="59.848845" lon="17.7774221">
        <ele>23.209</ele>
        <time>2013-05-01T10:53:56Z</time>
      </trkpt>
      <trkpt lat="59.8488561" lon="17.7775192">
        <ele>23.209</ele>
        <time>2013-05-01T10:53:57Z</time>
      </trkpt>
      <trkpt lat="59.8488669" lon="17.7776156">
        <ele>23.6896</ele>
        <time>2013-05-01T10:53:58Z</time>
      </trkpt>
      <trkpt lat="59.8488756" lon="17.7777139">
        <ele>23.6896</ele>
        <time>2013-05-01T10:53:59Z</time>
      </trkpt>
      <trkpt lat="59.8488824" lon="17.7778153">
        <ele>23.6896</ele>
        <time>2013-05-01T10:54:00Z</time>
      </trkpt>
      <trkpt lat="59.8488867" lon="17.7779207">
        <ele>24.1703</ele>
        <time>2013-05-01T10:54:01Z</time>
      </trkpt>
      <trkpt lat="59.8488871" lon="17.7780296">
        <ele>23.6896</ele>
        <time>2013-05-01T10:54:02Z</time>
      </trkpt>
      <trkpt lat="59.8488863" lon="17.7781389">
        <ele>24.1703</ele>
        <time>2013-05-01T10:54:03Z</time>
      </trkpt>
      <trkpt lat="59.8488845" lon="17.7782491">
        <ele>24.1703</ele>
        <time>2013-05-01T10:54:04Z</time>
      </trkpt>
      <trkpt lat="59.848885" lon="17.7783599">
        <ele>24.1703</ele>
        <time>2013-05-01T10:54:05Z</time>
      </trkpt>
      <trkpt lat="59.8488902" lon="17.7784701">
        <ele>24.1703</ele>
        <time>2013-05-01T10:54:06Z</time>
      </trkpt>
      <trkpt lat="59.8488959" lon="17.7785838">
        <ele>24.1703</ele>
        <time>2013-05-01T10:54:07Z</time>
      </trkpt>
      <trkpt lat="59.8489011" lon="17.7786994">
        <ele>24.1703</ele>
        <time>2013-05-01T10:54:08Z</time>
      </trkpt>
      <trkpt lat="59.8489074" lon="17.7788148">
        <ele>24.1703</ele>
        <time>2013-05-01T10:54:09Z</time>
      </trkpt>
      <trkpt lat="59.8489169" lon="17.7789292">
        <ele>24.1703</ele>
        <time>2013-05-01T10:54:10Z</time>
      </trkpt>
      <trkpt lat="59.8489264" lon="17.7790447">
        <ele>24.1703</ele>
        <time>2013-05-01T10:54:11Z</time>
      </trkpt>
      <trkpt lat="59.8489347" lon="17.7791611">
        <ele>24.1703</ele>
        <time>2013-05-01T10:54:12Z</time>
      </trkpt>
      <trkpt lat="59.848943" lon="17.779278">
        <ele>24.651</ele>
        <time>2013-05-01T10:54:13Z</time>
      </trkpt>
      <trkpt lat="59.8489523" lon="17.7793958">
        <ele>24.651</ele>
        <time>2013-05-01T10:54:14Z</time>
      </trkpt>
      <trkpt lat="59.8489627" lon="17.7795151">
        <ele>24.651</ele>
        <time>2013-05-01T10:54:15Z</time>
      </trkpt>
      <trkpt lat="59.8489741" lon="17.7796361">
        <ele>25.1317</ele>
        <time>2013-05-01T10:54:16Z</time>
      </trkpt>
      <trkpt lat="59.848992" lon="17.7797559">
        <ele>25.1317</ele>
        <time>2013-05-01T10:54:17Z</time>
      </trkpt>
      <trkpt lat="59.8490181" lon="17.7798754">
        <ele>25.1317</ele>
        <time>2013-05-01T10:54:18Z</time>
      </trkpt>
      <trkpt lat="59.8490457" lon="17.7799979">
        <ele>25.1317</ele>
        <time>2013-05-01T10:54:19Z</time>
      </trkpt>
      <trkpt lat="59.8490685" lon="17.7801279">
        <ele>24.651</ele>
        <time>2013-05-01T10:54:20Z</time>
      </trkpt>
      <trkpt lat="59.8490882" lon="17.7802626">
        <ele>24.651</ele>
        <time>2013-05-01T10:54:21Z</time>
      </trkpt>
      <trkpt lat="59.8491072" lon="17.7803973">
        <ele>24.1703</ele>
        <time>2013-05-01T10:54:22Z</time>
      </trkpt>
      <trkpt lat="59.8491257" lon="17.78053">
        <ele>23.209</ele>
        <time>2013-05-01T10:54:23Z</time>
      </trkpt>
      <trkpt lat="59.8491445" lon="17.7806572">
        <ele>23.6896</ele>
        <time>2013-05-01T10:54:24Z</time>
      </trkpt>
      <trkpt lat="59.8491642" lon="17.7807853">
        <ele>23.6896</ele>
        <time>2013-05-01T10:54:25Z</time>
      </trkpt>
      <trkpt lat="59.8491856" lon="17.7809137">
        <ele>23.6896</ele>
        <time>2013-05-01T10:54:26Z</time>
      </trkpt>
      <trkpt lat="59.8492097" lon="17.7810418">
        <ele>23.6896</ele>
        <time>2013-05-01T10:54:27Z</time>
      </trkpt>
      <trkpt lat="59.8492351" lon="17.7811722">
        <ele>23.6896</ele>
        <time>2013-05-01T10:54:28Z</time>
      </trkpt>
      <trkpt lat="59.8492619" lon="17.7813051">
        <ele>23.6896</ele>
        <time>2013-05-01T10:54:29Z</time>
      </trkpt>
      <trkpt lat="59.8492896" lon="17.7814414">
        <ele>23.209</ele>
        <time>2013-05-01T10:54:30Z</time>
      </trkpt>
      <trkpt lat="59.8493176" lon="17.7815799">
        <ele>23.209</ele>
        <time>2013-05-01T10:54:31Z</time>
      </trkpt>
      <trkpt lat="59.849346" lon="17.7817208">
        <ele>23.209</ele>
        <time>2013-05-01T10:54:32Z</time>
      </trkpt>
      <trkpt lat="59.849375" lon="17.7818626">
        <ele>22.7283</ele>
        <time>2013-05-01T10:54:33Z</time>
      </trkpt>
      <trkpt lat="59.8494044" lon="17.7820005">
        <ele>23.209</ele>
        <time>2013-05-01T10:54:34Z</time>
      </trkpt>
      <trkpt lat="59.8494323" lon="17.7821441">
        <ele>23.209</ele>
        <time>2013-05-01T10:54:35Z</time>
      </trkpt>
      <trkpt lat="59.8494598" lon="17.7822842">
        <ele>23.209</ele>
        <time>2013-05-01T10:54:36Z</time>
      </trkpt>
      <trkpt lat="59.8494873" lon="17.7824222">
        <ele>23.6896</ele>
        <time>2013-05-01T10:54:37Z</time>
      </trkpt>
      <trkpt lat="59.8495145" lon="17.7825587">
        <ele>23.6896</ele>
        <time>2013-05-01T10:54:38Z</time>
      </trkpt>
      <trkpt lat="59.8495423" lon="17.782694">
        <ele>23.6896</ele>
        <time>2013-05-01T10:54:39Z</time>
      </trkpt>
      <trkpt lat="59.8495697" lon="17.7828293">
        <ele>23.6896</ele>
        <time>2013-05-01T10:54:40Z</time>
      </trkpt>
      <trkpt lat="59.8495978" lon="17.7829639">
        <ele>23.6896</ele>
        <time>2013-05-01T10:54:41Z</time>
      </trkpt>
      <trkpt lat="59.8496287" lon="17.7830982">
        <ele>23.6896</ele>
        <time>2013-05-01T10:54:42Z</time>
      </trkpt>
      <trkpt lat="59.8496605" lon="17.7832308">
        <ele>23.6896</ele>
        <time>2013-05-01T10:54:43Z</time>
      </trkpt>
      <trkpt lat="59.8496904" lon="17.783364">
        <ele>23.209</ele>
        <time>2013-05-01T10:54:44Z</time>
      </trkpt>
      <trkpt lat="59.849719" lon="17.7835002">
        <ele>23.209</ele>
        <time>2013-05-01T10:54:45Z</time>
      </trkpt>
      <trkpt lat="59.849749" lon="17.7836341">
        <ele>22.7283</ele>
        <time>2013-05-01T10:54:46Z</time>
      </trkpt>
      <trkpt lat="59.8497774" lon="17.783769">
        <ele>22.7283</ele>
        <time>2013-05-01T10:54:47Z</time>
      </trkpt>
      <trkpt lat="59.8498033" lon="17.7839046">
        <ele>23.209</ele>
        <time>2013-05-01T10:54:48Z</time>
      </trkpt>
      <trkpt lat="59.8498242" lon="17.784041">
        <ele>23.6896</ele>
        <time>2013-05-01T10:54:49Z</time>
      </trkpt>
      <trkpt lat="59.8498444" lon="17.784171">
        <ele>24.1703</ele>
        <time>2013-05-01T10:54:50Z</time>
      </trkpt>
      <trkpt lat="59.8498696" lon="17.7842904">
        <ele>24.651</ele>
        <time>2013-05-01T10:54:51Z</time>
      </trkpt>
      <trkpt lat="59.8499003" lon="17.7844051">
        <ele>25.1317</ele>
        <time>2013-05-01T10:54:52Z</time>
      </trkpt>
      <trkpt lat="59.8499333" lon="17.7845288">
        <ele>25.1317</ele>
        <time>2013-05-01T10:54:53Z</time>
      </trkpt>
      <trkpt lat="59.8499656" lon="17.7846532">
        <ele>25.6123</ele>
        <time>2013-05-01T10:54:54Z</time>
      </trkpt>
      <trkpt lat="59.8499982" lon="17.7847784">
        <ele>26.0929</ele>
        <time>2013-05-01T10:54:55Z</time>
      </trkpt>
      <trkpt lat="59.8500315" lon="17.7849019">
        <ele>26.5736</ele>
        <time>2013-05-01T10:54:56Z</time>
      </trkpt>
      <trkpt lat="59.8500653" lon="17.7850237">
        <ele>27.0543</ele>
        <time>2013-05-01T10:54:57Z</time>
      </trkpt>
      <trkpt lat="59.8501" lon="17.7851436">
        <ele>27.5349</ele>
        <time>2013-05-01T10:54:58Z</time>
      </trkpt>
      <trkpt lat="59.8501365" lon="17.785262">
        <ele>28.0155</ele>
        <time>2013-05-01T10:54:59Z</time>
      </trkpt>
      <trkpt lat="59.8501738" lon="17.7853799">
        <ele>28.9769</ele>
        <time>2013-05-01T10:55:00Z</time>
      </trkpt>
      <trkpt lat="59.8502116" lon="17.7854956">
        <ele>29.4575</ele>
        <time>2013-05-01T10:55:01Z</time>
      </trkpt>
      <trkpt lat="59.8502505" lon="17.7856055">
        <ele>29.9381</ele>
        <time>2013-05-01T10:55:02Z</time>
      </trkpt>
      <trkpt lat="59.8502904" lon="17.7857098">
        <ele>29.9381</ele>
        <time>2013-05-01T10:55:03Z</time>
      </trkpt>
      <trkpt lat="59.8503291" lon="17.7858124">
        <ele>29.4575</ele>
        <time>2013-05-01T10:55:04Z</time>
      </trkpt>
      <trkpt lat="59.850366" lon="17.785916">
        <ele>29.9381</ele>
        <time>2013-05-01T10:55:05Z</time>
      </trkpt>
      <trkpt lat="59.8504023" lon="17.7860216">
        <ele>29.9381</ele>
        <time>2013-05-01T10:55:06Z</time>
      </trkpt>
      <trkpt lat="59.8504396" lon="17.7861284">
        <ele>30.4188</ele>
        <time>2013-05-01T10:55:07Z</time>
      </trkpt>
      <trkpt lat="59.8504763" lon="17.7862361">
        <ele>30.4188</ele>
        <time>2013-05-01T10:55:08Z</time>
      </trkpt>
      <trkpt lat="59.8505155" lon="17.7863446">
        <ele>31.3801</ele>
        <time>2013-05-01T10:55:09Z</time>
      </trkpt>
      <trkpt lat="59.8505541" lon="17.7864505">
        <ele>31.3801</ele>
        <time>2013-05-01T10:55:10Z</time>
      </trkpt>
      <trkpt lat="59.850594" lon="17.7865538">
        <ele>31.3801</ele>
        <time>2013-05-01T10:55:11Z</time>
      </trkpt>
      <trkpt lat="59.8506343" lon="17.7866548">
        <ele>30.8995</ele>
        <time>2013-05-01T10:55:12Z</time>
      </trkpt>
      <trkpt lat="59.8506738" lon="17.7867527">
        <ele>30.8995</ele>
        <time>2013-05-01T10:55:13Z</time>
      </trkpt>
      <trkpt lat="59.8507125" lon="17.7868451">
        <ele>29.4575</ele>
        <time>2013-05-01T10:55:14Z</time>
      </trkpt>
      <trkpt lat="59.8507505" lon="17.7869361">
        <ele>28.0155</ele>
        <time>2013-05-01T10:55:15Z</time>
      </trkpt>
      <trkpt lat="59.8507878" lon="17.7870276">
        <ele>27.5349</ele>
        <time>2013-05-01T10:55:16Z</time>
      </trkpt>
      <trkpt lat="59.8508196" lon="17.7871185">
        <ele>28.0155</ele>
        <time>2013-05-01T10:55:17Z</time>
      </trkpt>
      <trkpt lat="59.8508559" lon="17.7872096">
        <ele>27.5349</ele>
        <time>2013-05-01T10:55:18Z</time>
      </trkpt>
      <trkpt lat="59.8508917" lon="17.7872993">
        <ele>28.4962</ele>
        <time>2013-05-01T10:55:19Z</time>
      </trkpt>
      <trkpt lat="59.8509278" lon="17.7873899">
        <ele>28.4962</ele>
        <time>2013-05-01T10:55:20Z</time>
      </trkpt>
      <trkpt lat="59.8509641" lon="17.7874785">
        <ele>27.5349</ele>
        <time>2013-05-01T10:55:21Z</time>
      </trkpt>
      <trkpt lat="59.851" lon="17.7875634">
        <ele>26.0929</ele>
        <time>2013-05-01T10:55:22Z</time>
      </trkpt>
      <trkpt lat="59.8510356" lon="17.7876499">
        <ele>25.1317</ele>
        <time>2013-05-01T10:55:23Z</time>
      </trkpt>
      <trkpt lat="59.8510704" lon="17.7877368">
        <ele>25.1317</ele>
        <time>2013-05-01T10:55:24Z</time>
      </trkpt>
      <trkpt lat="59.8511066" lon="17.7878212">
        <ele>24.1703</ele>
        <time>2013-05-01T10:55:25Z</time>
      </trkpt>
      <trkpt lat="59.8511436" lon="17.7879063">
        <ele>25.1317</ele>
        <time>2013-05-01T10:55:26Z</time>
      </trkpt>
      <trkpt lat="59.8511797" lon="17.7879908">
        <ele>26.0929</ele>
        <time>2013-05-01T10:55:27Z</time>
      </trkpt>
      <trkpt lat="59.8512153" lon="17.7880774">
        <ele>27.5349</ele>
        <time>2013-05-01T10:55:28Z</time>
      </trkpt>
      <trkpt lat="59.8512517" lon="17.7881633">
        <ele>28.4962</ele>
        <time>2013-05-01T10:55:29Z</time>
      </trkpt>
      <trkpt lat="59.8512878" lon="17.7882507">
        <ele>28.9769</ele>
        <time>2013-05-01T10:55:30Z</time>
      </trkpt>
      <trkpt lat="59.8513243" lon="17.7883372">
        <ele>28.9769</ele>
        <time>2013-05-01T10:55:31Z</time>
      </trkpt>
      <trkpt lat="59.8513611" lon="17.7884244">
        <ele>29.4575</ele>
        <time>2013-05-01T10:55:32Z</time>
      </trkpt>
      <trkpt lat="59.8513984" lon="17.7885127">
        <ele>29.4575</ele>
        <time>2013-05-01T10:55:33Z</time>
      </trkpt>
      <trkpt lat="59.8514344" lon="17.7886041">
        <ele>29.9381</ele>
        <time>2013-05-01T10:55:34Z</time>
      </trkpt>
      <trkpt lat="59.8514713" lon="17.7886953">
        <ele>29.9381</ele>
        <time>2013-05-01T10:55:35Z</time>
      </trkpt>
      <trkpt lat="59.8515086" lon="17.7887869">
        <ele>30.4188</ele>
        <time>2013-05-01T10:55:36Z</time>
      </trkpt>
      <trkpt lat="59.8515439" lon="17.7888818">
        <ele>30.4188</ele>
        <time>2013-05-01T10:55:37Z</time>
      </trkpt>
      <trkpt lat="59.8515798" lon="17.7889786">
        <ele>31.3801</ele>
        <time>2013-05-01T10:55:38Z</time>
      </trkpt>
      <trkpt lat="59.8516192" lon="17.7890708">
        <ele>31.3801</ele>
        <time>2013-05-01T10:55:39Z</time>
      </trkpt>
      <trkpt lat="59.8516583" lon="17.7891665">
        <ele>31.3801</ele>
        <time>2013-05-01T10:55:40Z</time>
      </trkpt>
      <trkpt lat="59.8516983" lon="17.7892644">
        <ele>31.3801</ele>
        <time>2013-05-01T10:55:41Z</time>
      </trkpt>
      <trkpt lat="59.8517392" lon="17.7893644">
        <ele>29.9381</ele>
        <time>2013-05-01T10:55:42Z</time>
      </trkpt>
      <trkpt lat="59.8517796" lon="17.7894711">
        <ele>28.9769</ele>
        <time>2013-05-01T10:55:43Z</time>
      </trkpt>
      <trkpt lat="59.8518211" lon="17.789578">
        <ele>28.9769</ele>
        <time>2013-05-01T10:55:44Z</time>
      </trkpt>
      <trkpt lat="59.8518631" lon="17.7896848">
        <ele>29.4575</ele>
        <time>2013-05-01T10:55:45Z</time>
      </trkpt>
      <trkpt lat="59.8519023" lon="17.7897929">
        <ele>29.4575</ele>
        <time>2013-05-01T10:55:46Z</time>
      </trkpt>
      <trkpt lat="59.8519433" lon="17.7899007">
        <ele>29.4575</ele>
        <time>2013-05-01T10:55:47Z</time>
      </trkpt>
      <trkpt lat="59.8519856" lon="17.7900091">
        <ele>29.4575</ele>
        <time>2013-05-01T10:55:48Z</time>
      </trkpt>
      <trkpt lat="59.8520273" lon="17.7901175">
        <ele>29.4575</ele>
        <time>2013-05-01T10:55:49Z</time>
      </trkpt>
      <trkpt lat="59.852069" lon="17.7902256">
        <ele>29.4575</ele>
        <time>2013-05-01T10:55:50Z</time>
      </trkpt>
      <trkpt lat="59.8521138" lon="17.7903331">
        <ele>29.9381</ele>
        <time>2013-05-01T10:55:51Z</time>
      </trkpt>
      <trkpt lat="59.8521593" lon="17.7904389">
        <ele>29.9381</ele>
        <time>2013-05-01T10:55:52Z</time>
      </trkpt>
      <trkpt lat="59.8522058" lon="17.790544">
        <ele>29.9381</ele>
        <time>2013-05-01T10:55:53Z</time>
      </trkpt>
      <trkpt lat="59.8522529" lon="17.7906495">
        <ele>29.9381</ele>
        <time>2013-05-01T10:55:54Z</time>
      </trkpt>
      <trkpt lat="59.8522992" lon="17.7907578">
        <ele>29.9381</ele>
        <time>2013-05-01T10:55:55Z</time>
      </trkpt>
      <trkpt lat="59.8523448" lon="17.7908684">
        <ele>29.9381</ele>
        <time>2013-05-01T10:55:56Z</time>
      </trkpt>
      <trkpt lat="59.8523909" lon="17.7909797">
        <ele>29.9381</ele>
        <time>2013-05-01T10:55:57Z</time>
      </trkpt>
      <trkpt lat="59.8524365" lon="17.7910915">
        <ele>29.9381</ele>
        <time>2013-05-01T10:55:58Z</time>
      </trkpt>
      <trkpt lat="59.8524826" lon="17.7912045">
        <ele>29.4575</ele>
        <time>2013-05-01T10:55:59Z</time>
      </trkpt>
      <trkpt lat="59.8525297" lon="17.7913185">
        <ele>28.9769</ele>
        <time>2013-05-01T10:56:00Z</time>
      </trkpt>
      <trkpt lat="59.8525763" lon="17.7914359">
        <ele>28.9769</ele>
        <time>2013-05-01T10:56:01Z</time>
      </trkpt>
      <trkpt lat="59.8526217" lon="17.7915577">
        <ele>29.4575</ele>
        <time>2013-05-01T10:56:02Z</time>
      </trkpt>
      <trkpt lat="59.8526665" lon="17.7916807">
        <ele>29.4575</ele>
        <time>2013-05-01T10:56:03Z</time>
      </trkpt>
      <trkpt lat="59.8527121" lon="17.7918054">
        <ele>29.4575</ele>
        <time>2013-05-01T10:56:04Z</time>
      </trkpt>
      <trkpt lat="59.852757" lon="17.7919311">
        <ele>29.4575</ele>
        <time>2013-05-01T10:56:05Z</time>
      </trkpt>
      <trkpt lat="59.8528023" lon="17.7920549">
        <ele>29.9381</ele>
        <time>2013-05-01T10:56:06Z</time>
      </trkpt>
      <trkpt lat="59.8528488" lon="17.7921779">
        <ele>30.4188</ele>
        <time>2013-05-01T10:56:07Z</time>
      </trkpt>
      <trkpt lat="59.852893" lon="17.7923001">
        <ele>30.8995</ele>
        <time>2013-05-01T10:56:08Z</time>
      </trkpt>
      <trkpt lat="59.8529358" lon="17.7924214">
        <ele>30.8995</ele>
        <time>2013-05-01T10:56:09Z</time>
      </trkpt>
      <trkpt lat="59.8529814" lon="17.7925419">
        <ele>30.8995</ele>
        <time>2013-05-01T10:56:10Z</time>
      </trkpt>
      <trkpt lat="59.8530271" lon="17.7926635">
        <ele>30.8995</ele>
        <time>2013-05-01T10:56:11Z</time>
      </trkpt>
      <trkpt lat="59.853071" lon="17.7927799">
        <ele>30.8995</ele>
        <time>2013-05-01T10:56:12Z</time>
      </trkpt>
      <trkpt lat="59.8531093" lon="17.7929">
        <ele>30.8995</ele>
        <time>2013-05-01T10:56:13Z</time>
      </trkpt>
      <trkpt lat="59.8531493" lon="17.7930181">
        <ele>30.4188</ele>
        <time>2013-05-01T10:56:14Z</time>
      </trkpt>
      <trkpt lat="59.8531871" lon="17.793137">
        <ele>29.9381</ele>
        <time>2013-05-01T10:56:15Z</time>
      </trkpt>
      <trkpt lat="59.8532279" lon="17.7932574">
        <ele>29.4575</ele>
        <time>2013-05-01T10:56:16Z</time>
      </trkpt>
      <trkpt lat="59.853269" lon="17.7933755">
        <ele>28.9769</ele>
        <time>2013-05-01T10:56:17Z</time>
      </trkpt>
      <trkpt lat="59.8533086" lon="17.793491">
        <ele>28.0155</ele>
        <time>2013-05-01T10:56:18Z</time>
      </trkpt>
      <trkpt lat="59.8533519" lon="17.7936133">
        <ele>27.5349</ele>
        <time>2013-05-01T10:56:19Z</time>
      </trkpt>
      <trkpt lat="59.8533938" lon="17.7937314">
        <ele>27.5349</ele>
        <time>2013-05-01T10:56:20Z</time>
      </trkpt>
      <trkpt lat="59.8534381" lon="17.7938479">
        <ele>27.0543</ele>
        <time>2013-05-01T10:56:21Z</time>
      </trkpt>
      <trkpt lat="59.8534761" lon="17.7939703">
        <ele>26.0929</ele>
        <time>2013-05-01T10:56:22Z</time>
      </trkpt>
      <trkpt lat="59.8535137" lon="17.7940907">
        <ele>25.1317</ele>
        <time>2013-05-01T10:56:23Z</time>
      </trkpt>
      <trkpt lat="59.8535508" lon="17.7942054">
        <ele>23.6896</ele>
        <time>2013-05-01T10:56:24Z</time>
      </trkpt>
      <trkpt lat="59.8535874" lon="17.7943212">
        <ele>22.2476</ele>
        <time>2013-05-01T10:56:25Z</time>
      </trkpt>
      <trkpt lat="59.8536269" lon="17.7944349">
        <ele>21.2864</ele>
        <time>2013-05-01T10:56:26Z</time>
      </trkpt>
      <trkpt lat="59.8536642" lon="17.7945447">
        <ele>20.325</ele>
        <time>2013-05-01T10:56:27Z</time>
      </trkpt>
      <trkpt lat="59.8537016" lon="17.7946591">
        <ele>19.3638</ele>
        <time>2013-05-01T10:56:28Z</time>
      </trkpt>
      <trkpt lat="59.8537372" lon="17.7947741">
        <ele>18.4023</ele>
        <time>2013-05-01T10:56:29Z</time>
      </trkpt>
      <trkpt lat="59.853774" lon="17.7948916">
        <ele>17.4412</ele>
        <time>2013-05-01T10:56:30Z</time>
      </trkpt>
      <trkpt lat="59.8538092" lon="17.7950123">
        <ele>17.9218</ele>
        <time>2013-05-01T10:56:31Z</time>
      </trkpt>
      <trkpt lat="59.8538443" lon="17.7951373">
        <ele>17.9218</ele>
        <time>2013-05-01T10:56:32Z</time>
      </trkpt>
      <trkpt lat="59.8538786" lon="17.795264">
        <ele>18.4023</ele>
        <time>2013-05-01T10:56:33Z</time>
      </trkpt>
      <trkpt lat="59.8539143" lon="17.795387">
        <ele>18.4023</ele>
        <time>2013-05-01T10:56:34Z</time>
      </trkpt>
      <trkpt lat="59.8539546" lon="17.7955157">
        <ele>19.3638</ele>
        <time>2013-05-01T10:56:35Z</time>
      </trkpt>
      <trkpt lat="59.8539939" lon="17.7956483">
        <ele>20.325</ele>
        <time>2013-05-01T10:56:36Z</time>
      </trkpt>
      <trkpt lat="59.854032" lon="17.7957769">
        <ele>20.8057</ele>
        <time>2013-05-01T10:56:37Z</time>
      </trkpt>
      <trkpt lat="59.8540699" lon="17.7959024">
        <ele>20.8057</ele>
        <time>2013-05-01T10:56:38Z</time>
      </trkpt>
      <trkpt lat="59.8541076" lon="17.7960302">
        <ele>20.8057</ele>
        <time>2013-05-01T10:56:39Z</time>
      </trkpt>
      <trkpt lat="59.8541412" lon="17.7961601">
        <ele>20.8057</ele>
        <time>2013-05-01T10:56:40Z</time>
      </trkpt>
      <trkpt lat="59.854178" lon="17.7962919">
        <ele>21.2864</ele>
        <time>2013-05-01T10:56:41Z</time>
      </trkpt>
      <trkpt lat="59.8542179" lon="17.7964193">
        <ele>20.325</ele>
        <time>2013-05-01T10:56:42Z</time>
      </trkpt>
      <trkpt lat="59.8542573" lon="17.796546">
        <ele>20.325</ele>
        <time>2013-05-01T10:56:43Z</time>
      </trkpt>
      <trkpt lat="59.8542913" lon="17.7966737">
        <ele>20.325</ele>
        <time>2013-05-01T10:56:44Z</time>
      </trkpt>
      <trkpt lat="59.8543303" lon="17.7967991">
        <ele>20.8057</ele>
        <time>2013-05-01T10:56:45Z</time>
      </trkpt>
      <trkpt lat="59.8543691" lon="17.7969263">
        <ele>20.325</ele>
        <time>2013-05-01T10:56:46Z</time>
      </trkpt>
      <trkpt lat="59.8544106" lon="17.7970561">
        <ele>20.325</ele>
        <time>2013-05-01T10:56:47Z</time>
      </trkpt>
      <trkpt lat="59.8544521" lon="17.7971953">
        <ele>19.8444</ele>
        <time>2013-05-01T10:56:48Z</time>
      </trkpt>
      <trkpt lat="59.8544864" lon="17.7973417">
        <ele>19.3638</ele>
        <time>2013-05-01T10:56:49Z</time>
      </trkpt>
      <trkpt lat="59.8545199" lon="17.7974864">
        <ele>18.8831</ele>
        <time>2013-05-01T10:56:50Z</time>
      </trkpt>
      <trkpt lat="59.8545535" lon="17.7976325">
        <ele>18.4023</ele>
        <time>2013-05-01T10:56:51Z</time>
      </trkpt>
      <trkpt lat="59.8545867" lon="17.7977781">
        <ele>18.4023</ele>
        <time>2013-05-01T10:56:52Z</time>
      </trkpt>
      <trkpt lat="59.8546224" lon="17.7979272">
        <ele>19.3638</ele>
        <time>2013-05-01T10:56:53Z</time>
      </trkpt>
      <trkpt lat="59.8546589" lon="17.7980716">
        <ele>19.3638</ele>
        <time>2013-05-01T10:56:54Z</time>
      </trkpt>
      <trkpt lat="59.8546944" lon="17.798208">
        <ele>19.8444</ele>
        <time>2013-05-01T10:56:55Z</time>
      </trkpt>
      <trkpt lat="59.8547256" lon="17.7983443">
        <ele>18.8831</ele>
        <time>2013-05-01T10:56:56Z</time>
      </trkpt>
      <trkpt lat="59.8547645" lon="17.7984839">
        <ele>18.4023</ele>
        <time>2013-05-01T10:56:57Z</time>
      </trkpt>
      <trkpt lat="59.8548031" lon="17.7986262">
        <ele>18.4023</ele>
        <time>2013-05-01T10:56:58Z</time>
      </trkpt>
      <trkpt lat="59.8548394" lon="17.798766">
        <ele>16.9604</ele>
        <time>2013-05-01T10:56:59Z</time>
      </trkpt>
      <trkpt lat="59.8548758" lon="17.7989051">
        <ele>16.9604</ele>
        <time>2013-05-01T10:57:00Z</time>
      </trkpt>
      <trkpt lat="59.854914" lon="17.7990429">
        <ele>17.4412</ele>
        <time>2013-05-01T10:57:01Z</time>
      </trkpt>
      <trkpt lat="59.8549493" lon="17.7991765">
        <ele>16.9604</ele>
        <time>2013-05-01T10:57:02Z</time>
      </trkpt>
      <trkpt lat="59.8549852" lon="17.7993114">
        <ele>16.4797</ele>
        <time>2013-05-01T10:57:03Z</time>
      </trkpt>
      <trkpt lat="59.8550248" lon="17.7994448">
        <ele>15.5184</ele>
        <time>2013-05-01T10:57:04Z</time>
      </trkpt>
      <trkpt lat="59.8550642" lon="17.799574">
        <ele>15.0377</ele>
        <time>2013-05-01T10:57:05Z</time>
      </trkpt>
      <trkpt lat="59.8551045" lon="17.7997061">
        <ele>15.0377</ele>
        <time>2013-05-01T10:57:06Z</time>
      </trkpt>
      <trkpt lat="59.8551435" lon="17.7998352">
        <ele>14.0764</ele>
        <time>2013-05-01T10:57:07Z</time>
      </trkpt>
      <trkpt lat="59.8551843" lon="17.7999665">
        <ele>13.1151</ele>
        <time>2013-05-01T10:57:08Z</time>
      </trkpt>
      <trkpt lat="59.8552229" lon="17.8001034">
        <ele>13.5958</ele>
        <time>2013-05-01T10:57:09Z</time>
      </trkpt>
      <trkpt lat="59.8552616" lon="17.8002381">
        <ele>13.1151</ele>
        <time>2013-05-01T10:57:10Z</time>
      </trkpt>
      <trkpt lat="59.8552983" lon="17.8003743">
        <ele>12.6344</ele>
        <time>2013-05-01T10:57:11Z</time>
      </trkpt>
      <trkpt lat="59.8553354" lon="17.8005034">
        <ele>10.7118</ele>
        <time>2013-05-01T10:57:12Z</time>
      </trkpt>
      <trkpt lat="59.8553689" lon="17.8006275">
        <ele>9.75061</ele>
        <time>2013-05-01T10:57:13Z</time>
      </trkpt>
      <trkpt lat="59.8554034" lon="17.8007478">
        <ele>8.30859</ele>
        <time>2013-05-01T10:57:14Z</time>
      </trkpt>
      <trkpt lat="59.8554399" lon="17.8008728">
        <ele>7.34717</ele>
        <time>2013-05-01T10:57:15Z</time>
      </trkpt>
      <trkpt lat="59.8554787" lon="17.800998">
        <ele>6.86646</ele>
        <time>2013-05-01T10:57:16Z</time>
      </trkpt>
      <trkpt lat="59.8555124" lon="17.8011296">
        <ele>5.90527</ele>
        <time>2013-05-01T10:57:17Z</time>
      </trkpt>
      <trkpt lat="59.8555471" lon="17.8012623">
        <ele>5.90527</ele>
        <time>2013-05-01T10:57:18Z</time>
      </trkpt>
      <trkpt lat="59.855584" lon="17.8013948">
        <ele>5.42456</ele>
        <time>2013-05-01T10:57:19Z</time>
      </trkpt>
      <trkpt lat="59.8556215" lon="17.8015275">
        <ele>4.94385</ele>
        <time>2013-05-01T10:57:20Z</time>
      </trkpt>
      <trkpt lat="59.8556549" lon="17.8016658">
        <ele>5.90527</ele>
        <time>2013-05-01T10:57:21Z</time>
      </trkpt>
      <trkpt lat="59.8556808" lon="17.8017978">
        <ele>6.38586</ele>
        <time>2013-05-01T10:57:22Z</time>
      </trkpt>
      <trkpt lat="59.8557025" lon="17.8019282">
        <ele>7.34717</ele>
        <time>2013-05-01T10:57:23Z</time>
      </trkpt>
      <trkpt lat="59.8557149" lon="17.8020593">
        <ele>7.82788</ele>
        <time>2013-05-01T10:57:24Z</time>
      </trkpt>
      <trkpt lat="59.855715" lon="17.8021895">
        <ele>8.78918</ele>
        <time>2013-05-01T10:57:25Z</time>
      </trkpt>
      <trkpt lat="59.855729" lon="17.802321">
        <ele>8.78918</ele>
        <time>2013-05-01T10:57:26Z</time>
      </trkpt>
      <trkpt lat="59.8557569" lon="17.8024546">
        <ele>7.82788</ele>
        <time>2013-05-01T10:57:27Z</time>
      </trkpt>
      <trkpt lat="59.8557927" lon="17.8025931">
        <ele>7.34717</ele>
        <time>2013-05-01T10:57:28Z</time>
      </trkpt>
      <trkpt lat="59.8558289" lon="17.8027395">
        <ele>7.34717</ele>
        <time>2013-05-01T10:57:29Z</time>
      </trkpt>
      <trkpt lat="59.8558696" lon="17.8028877">
        <ele>7.34717</ele>
        <time>2013-05-01T10:57:30Z</time>
      </trkpt>
      <trkpt lat="59.8559132" lon="17.8030388">
        <ele>7.34717</ele>
        <time>2013-05-01T10:57:31Z</time>
      </trkpt>
      <trkpt lat="59.8559569" lon="17.8031916">
        <ele>7.34717</ele>
        <time>2013-05-01T10:57:32Z</time>
      </trkpt>
      <trkpt lat="59.8560029" lon="17.8033477">
        <ele>6.86646</ele>
        <time>2013-05-01T10:57:33Z</time>
      </trkpt>
      <trkpt lat="59.8560512" lon="17.803505">
        <ele>5.90527</ele>
        <time>2013-05-01T10:57:34Z</time>
      </trkpt>
      <trkpt lat="59.8561009" lon="17.8036684">
        <ele>5.90527</ele>
        <time>2013-05-01T10:57:35Z</time>
      </trkpt>
      <trkpt lat="59.8561492" lon="17.8038337">
        <ele>5.42456</ele>
        <time>2013-05-01T10:57:36Z</time>
      </trkpt>
      <trkpt lat="59.8561975" lon="17.8039989">
        <ele>4.46326</ele>
        <time>2013-05-01T10:57:37Z</time>
      </trkpt>
      <trkpt lat="59.8562457" lon="17.8041636">
        <ele>4.46326</ele>
        <time>2013-05-01T10:57:38Z</time>
      </trkpt>
      <trkpt lat="59.856294" lon="17.8043262">
        <ele>3.98267</ele>
        <time>2013-05-01T10:57:39Z</time>
      </trkpt>
      <trkpt lat="59.8563423" lon="17.8044864">
        <ele>3.98267</ele>
        <time>2013-05-01T10:57:40Z</time>
      </trkpt>
      <trkpt lat="59.8563898" lon="17.8046453">
        <ele>3.98267</ele>
        <time>2013-05-01T10:57:41Z</time>
      </trkpt>
      <trkpt lat="59.856437" lon="17.804805">
        <ele>3.50195</ele>
        <time>2013-05-01T10:57:42Z</time>
      </trkpt>
      <trkpt lat="59.8564843" lon="17.8049664">
        <ele>3.50195</ele>
        <time>2013-05-01T10:57:43Z</time>
      </trkpt>
      <trkpt lat="59.8565324" lon="17.805128">
        <ele>3.50195</ele>
        <time>2013-05-01T10:57:44Z</time>
      </trkpt>
      <trkpt lat="59.8565812" lon="17.8052897">
        <ele>3.50195</ele>
        <time>2013-05-01T10:57:45Z</time>
      </trkpt>
      <trkpt lat="59.8566298" lon="17.8054523">
        <ele>3.50195</ele>
        <time>2013-05-01T10:57:46Z</time>
      </trkpt>
      <trkpt lat="59.8566786" lon="17.805615">
        <ele>3.50195</ele>
        <time>2013-05-01T10:57:47Z</time>
      </trkpt>
      <trkpt lat="59.8567277" lon="17.805778">
        <ele>3.50195</ele>
        <time>2013-05-01T10:57:48Z</time>
      </trkpt>
      <trkpt lat="59.856776" lon="17.8059422">
        <ele>3.50195</ele>
        <time>2013-05-01T10:57:49Z</time>
      </trkpt>
      <trkpt lat="59.8568241" lon="17.8061073">
        <ele>3.50195</ele>
        <time>2013-05-01T10:57:50Z</time>
      </trkpt>
      <trkpt lat="59.856872" lon="17.8062728">
        <ele>3.50195</ele>
        <time>2013-05-01T10:57:51Z</time>
      </trkpt>
      <trkpt lat="59.8569193" lon="17.8064381">
        <ele>3.98267</ele>
        <time>2013-05-01T10:57:52Z</time>
      </trkpt>
      <trkpt lat="59.8569674" lon="17.8066024">
        <ele>3.98267</ele>
        <time>2013-05-01T10:57:53Z</time>
      </trkpt>
      <trkpt lat="59.8570171" lon="17.8067661">
        <ele>3.98267</ele>
        <time>2013-05-01T10:57:54Z</time>
      </trkpt>
      <trkpt lat="59.8570668" lon="17.8069298">
        <ele>3.98267</ele>
        <time>2013-05-01T10:57:55Z</time>
      </trkpt>
      <trkpt lat="59.8571165" lon="17.8070934">
        <ele>4.46326</ele>
        <time>2013-05-01T10:57:56Z</time>
      </trkpt>
      <trkpt lat="59.8571657" lon="17.8072566">
        <ele>4.46326</ele>
        <time>2013-05-01T10:57:57Z</time>
      </trkpt>
      <trkpt lat="59.8572141" lon="17.8074194">
        <ele>4.46326</ele>
        <time>2013-05-01T10:57:58Z</time>
      </trkpt>
      <trkpt lat="59.8572628" lon="17.8075841">
        <ele>4.94385</ele>
        <time>2013-05-01T10:57:59Z</time>
      </trkpt>
      <trkpt lat="59.8573095" lon="17.8077467">
        <ele>4.94385</ele>
        <time>2013-05-01T10:58:00Z</time>
      </trkpt>
      <trkpt lat="59.8573565" lon="17.8079089">
        <ele>4.94385</ele>
        <time>2013-05-01T10:58:01Z</time>
      </trkpt>
      <trkpt lat="59.8574028" lon="17.8080679">
        <ele>5.42456</ele>
        <time>2013-05-01T10:58:02Z</time>
      </trkpt>
      <trkpt lat="59.8574477" lon="17.8082232">
        <ele>5.42456</ele>
        <time>2013-05-01T10:58:03Z</time>
      </trkpt>
      <trkpt lat="59.8574928" lon="17.8083693">
        <ele>4.46326</ele>
        <time>2013-05-01T10:58:04Z</time>
      </trkpt>
      <trkpt lat="59.8575323" lon="17.808521">
        <ele>3.98267</ele>
        <time>2013-05-01T10:58:05Z</time>
      </trkpt>
      <trkpt lat="59.8575678" lon="17.8086827">
        <ele>4.94385</ele>
        <time>2013-05-01T10:58:06Z</time>
      </trkpt>
      <trkpt lat="59.8576034" lon="17.8088398">
        <ele>4.94385</ele>
        <time>2013-05-01T10:58:07Z</time>
      </trkpt>
      <trkpt lat="59.8576386" lon="17.8089993">
        <ele>4.94385</ele>
        <time>2013-05-01T10:58:08Z</time>
      </trkpt>
      <trkpt lat="59.8576742" lon="17.809158">
        <ele>4.94385</ele>
        <time>2013-05-01T10:58:09Z</time>
      </trkpt>
      <trkpt lat="59.8577088" lon="17.8093178">
        <ele>5.42456</ele>
        <time>2013-05-01T10:58:10Z</time>
      </trkpt>
      <trkpt lat="59.8577419" lon="17.8094784">
        <ele>5.42456</ele>
        <time>2013-05-01T10:58:11Z</time>
      </trkpt>
      <trkpt lat="59.8577726" lon="17.8096399">
        <ele>5.42456</ele>
        <time>2013-05-01T10:58:12Z</time>
      </trkpt>
      <trkpt lat="59.8578027" lon="17.8098063">
        <ele>6.38586</ele>
        <time>2013-05-01T10:58:13Z</time>
      </trkpt>
      <trkpt lat="59.8578286" lon="17.8099709">
        <ele>6.38586</ele>
        <time>2013-05-01T10:58:14Z</time>
      </trkpt>
      <trkpt lat="59.8578495" lon="17.8101357">
        <ele>6.86646</ele>
        <time>2013-05-01T10:58:15Z</time>
      </trkpt>
      <trkpt lat="59.8578669" lon="17.810303">
        <ele>6.86646</ele>
        <time>2013-05-01T10:58:16Z</time>
      </trkpt>
      <trkpt lat="59.8578844" lon="17.8104704">
        <ele>7.34717</ele>
        <time>2013-05-01T10:58:17Z</time>
      </trkpt>
      <trkpt lat="59.857901" lon="17.8106391">
        <ele>7.34717</ele>
        <time>2013-05-01T10:58:18Z</time>
      </trkpt>
      <trkpt lat="59.8579159" lon="17.8108081">
        <ele>7.82788</ele>
        <time>2013-05-01T10:58:19Z</time>
      </trkpt>
      <trkpt lat="59.8579296" lon="17.8109776">
        <ele>8.30859</ele>
        <time>2013-05-01T10:58:20Z</time>
      </trkpt>
      <trkpt lat="59.8579414" lon="17.8111479">
        <ele>8.78918</ele>
        <time>2013-05-01T10:58:21Z</time>
      </trkpt>
      <trkpt lat="59.8579487" lon="17.8113189">
        <ele>9.2699</ele>
        <time>2013-05-01T10:58:22Z</time>
      </trkpt>
      <trkpt lat="59.8579523" lon="17.8114888">
        <ele>9.75061</ele>
        <time>2013-05-01T10:58:23Z</time>
      </trkpt>
      <trkpt lat="59.8579523" lon="17.8116581">
        <ele>10.2312</ele>
        <time>2013-05-01T10:58:24Z</time>
      </trkpt>
      <trkpt lat="59.8579543" lon="17.8118248">
        <ele>10.7118</ele>
        <time>2013-05-01T10:58:25Z</time>
      </trkpt>
      <trkpt lat="59.8579523" lon="17.8119872">
        <ele>11.1925</ele>
        <time>2013-05-01T10:58:26Z</time>
      </trkpt>
      <trkpt lat="59.8579475" lon="17.8121447">
        <ele>11.6732</ele>
        <time>2013-05-01T10:58:27Z</time>
      </trkpt>
      <trkpt lat="59.8579417" lon="17.8122979">
        <ele>12.1538</ele>
        <time>2013-05-01T10:58:28Z</time>
      </trkpt>
      <trkpt lat="59.8579346" lon="17.8124455">
        <ele>12.6344</ele>
        <time>2013-05-01T10:58:29Z</time>
      </trkpt>
      <trkpt lat="59.8579277" lon="17.812589">
        <ele>13.1151</ele>
        <time>2013-05-01T10:58:30Z</time>
      </trkpt>
      <trkpt lat="59.85792" lon="17.812729">
        <ele>13.5958</ele>
        <time>2013-05-01T10:58:31Z</time>
      </trkpt>
      <trkpt lat="59.857913" lon="17.8128663">
        <ele>14.557</ele>
        <time>2013-05-01T10:58:32Z</time>
      </trkpt>
      <trkpt lat="59.8579085" lon="17.8130029">
        <ele>15.0377</ele>
        <time>2013-05-01T10:58:33Z</time>
      </trkpt>
      <trkpt lat="59.8579051" lon="17.8131403">
        <ele>15.5184</ele>
        <time>2013-05-01T10:58:34Z</time>
      </trkpt>
      <trkpt lat="59.8579006" lon="17.8132786">
        <ele>16.4797</ele>
        <time>2013-05-01T10:58:35Z</time>
      </trkpt>
      <trkpt lat="59.8578969" lon="17.8134193">
        <ele>16.9604</ele>
        <time>2013-05-01T10:58:36Z</time>
      </trkpt>
      <trkpt lat="59.8578987" lon="17.8135617">
        <ele>17.4412</ele>
        <time>2013-05-01T10:58:37Z</time>
      </trkpt>
      <trkpt lat="59.8578992" lon="17.8137043">
        <ele>18.4023</ele>
        <time>2013-05-01T10:58:38Z</time>
      </trkpt>
      <trkpt lat="59.8578942" lon="17.8138472">
        <ele>18.8831</ele>
        <time>2013-05-01T10:58:39Z</time>
      </trkpt>
      <trkpt lat="59.8578834" lon="17.8139866">
        <ele>19.3638</ele>
        <time>2013-05-01T10:58:40Z</time>
      </trkpt>
      <trkpt lat="59.8578672" lon="17.8141182">
        <ele>19.8444</ele>
        <time>2013-05-01T10:58:41Z</time>
      </trkpt>
      <trkpt lat="59.857848" lon="17.8142413">
        <ele>19.8444</ele>
        <time>2013-05-01T10:58:42Z</time>
      </trkpt>
      <trkpt lat="59.8578233" lon="17.8143531">
        <ele>20.325</ele>
        <time>2013-05-01T10:58:43Z</time>
      </trkpt>
      <trkpt lat="59.857801" lon="17.814458">
        <ele>20.8057</ele>
        <time>2013-05-01T10:58:44Z</time>
      </trkpt>
      <trkpt lat="59.8577803" lon="17.8145598">
        <ele>21.2864</ele>
        <time>2013-05-01T10:58:45Z</time>
      </trkpt>
      <trkpt lat="59.8577588" lon="17.8146594">
        <ele>21.767</ele>
        <time>2013-05-01T10:58:46Z</time>
      </trkpt>
      <trkpt lat="59.8577466" lon="17.8147606">
        <ele>22.2476</ele>
        <time>2013-05-01T10:58:47Z</time>
      </trkpt>
      <trkpt lat="59.8577531" lon="17.8148528">
        <ele>22.7283</ele>
        <time>2013-05-01T10:58:48Z</time>
      </trkpt>
      <trkpt lat="59.8577879" lon="17.8149324">
        <ele>23.209</ele>
        <time>2013-05-01T10:58:49Z</time>
      </trkpt>
      <trkpt lat="59.8578405" lon="17.8149903">
        <ele>23.209</ele>
        <time>2013-05-01T10:58:50Z</time>
      </trkpt>
      <trkpt lat="59.8579008" lon="17.8150248">
        <ele>24.1703</ele>
        <time>2013-05-01T10:58:51Z</time>
      </trkpt>
      <trkpt lat="59.8579636" lon="17.8150521">
        <ele>24.651</ele>
        <time>2013-05-01T10:58:52Z</time>
      </trkpt>
      <trkpt lat="59.8580273" lon="17.8150851">
        <ele>25.1317</ele>
        <time>2013-05-01T10:58:53Z</time>
      </trkpt>
      <trkpt lat="59.8580916" lon="17.8151252">
        <ele>25.6123</ele>
        <time>2013-05-01T10:58:54Z</time>
      </trkpt>
      <trkpt lat="59.8581558" lon="17.8151703">
        <ele>26.0929</ele>
        <time>2013-05-01T10:58:55Z</time>
      </trkpt>
      <trkpt lat="59.8582191" lon="17.8152146">
        <ele>26.5736</ele>
        <time>2013-05-01T10:58:56Z</time>
      </trkpt>
      <trkpt lat="59.8582839" lon="17.8152583">
        <ele>27.5349</ele>
        <time>2013-05-01T10:58:57Z</time>
      </trkpt>
      <trkpt lat="59.858351" lon="17.8153086">
        <ele>27.5349</ele>
        <time>2013-05-01T10:58:58Z</time>
      </trkpt>
      <trkpt lat="59.8584167" lon="17.8153598">
        <ele>27.0543</ele>
        <time>2013-05-01T10:58:59Z</time>
      </trkpt>
      <trkpt lat="59.8584848" lon="17.8154094">
        <ele>26.5736</ele>
        <time>2013-05-01T10:59:00Z</time>
      </trkpt>
      <trkpt lat="59.858555" lon="17.8154614">
        <ele>26.5736</ele>
        <time>2013-05-01T10:59:01Z</time>
      </trkpt>
      <trkpt lat="59.8586258" lon="17.8155203">
        <ele>26.0929</ele>
        <time>2013-05-01T10:59:02Z</time>
      </trkpt>
      <trkpt lat="59.8586987" lon="17.8155863">
        <ele>25.6123</ele>
        <time>2013-05-01T10:59:03Z</time>
      </trkpt>
      <trkpt lat="59.8587723" lon="17.8156575">
        <ele>25.1317</ele>
        <time>2013-05-01T10:59:04Z</time>
      </trkpt>
      <trkpt lat="59.8588469" lon="17.8157235">
        <ele>24.651</ele>
        <time>2013-05-01T10:59:05Z</time>
      </trkpt>
      <trkpt lat="59.8589215" lon="17.8157867">
        <ele>24.651</ele>
        <time>2013-05-01T10:59:06Z</time>
      </trkpt>
      <trkpt lat="59.8590039" lon="17.8158583">
        <ele>24.1703</ele>
        <time>2013-05-01T10:59:07Z</time>
      </trkpt>
      <trkpt lat="59.8590811" lon="17.8159197">
        <ele>23.6896</ele>
        <time>2013-05-01T10:59:08Z</time>
      </trkpt>
      <trkpt lat="59.8591571" lon="17.8159818">
        <ele>23.6896</ele>
        <time>2013-05-01T10:59:09Z</time>
      </trkpt>
      <trkpt lat="59.85923" lon="17.8160465">
        <ele>23.6896</ele>
        <time>2013-05-01T10:59:10Z</time>
      </trkpt>
      <trkpt lat="59.8593023" lon="17.8161104">
        <ele>23.6896</ele>
        <time>2013-05-01T10:59:11Z</time>
      </trkpt>
      <trkpt lat="59.8593767" lon="17.8161711">
        <ele>23.6896</ele>
        <time>2013-05-01T10:59:12Z</time>
      </trkpt>
      <trkpt lat="59.8594503" lon="17.816231">
        <ele>23.209</ele>
        <time>2013-05-01T10:59:13Z</time>
      </trkpt>
      <trkpt lat="59.8595222" lon="17.8162932">
        <ele>23.6896</ele>
        <time>2013-05-01T10:59:14Z</time>
      </trkpt>
      <trkpt lat="59.8595929" lon="17.8163558">
        <ele>23.6896</ele>
        <time>2013-05-01T10:59:15Z</time>
      </trkpt>
      <trkpt lat="59.8596628" lon="17.8164156">
        <ele>23.6896</ele>
        <time>2013-05-01T10:59:16Z</time>
      </trkpt>
      <trkpt lat="59.8597325" lon="17.8164742">
        <ele>23.6896</ele>
        <time>2013-05-01T10:59:17Z</time>
      </trkpt>
      <trkpt lat="59.8598021" lon="17.8165347">
        <ele>23.209</ele>
        <time>2013-05-01T10:59:18Z</time>
      </trkpt>
      <trkpt lat="59.8598714" lon="17.816599">
        <ele>23.209</ele>
        <time>2013-05-01T10:59:19Z</time>
      </trkpt>
      <trkpt lat="59.8599396" lon="17.8166656">
        <ele>23.209</ele>
        <time>2013-05-01T10:59:20Z</time>
      </trkpt>
      <trkpt lat="59.8600071" lon="17.816732">
        <ele>23.6896</ele>
        <time>2013-05-01T10:59:21Z</time>
      </trkpt>
      <trkpt lat="59.8600725" lon="17.8168026">
        <ele>23.6896</ele>
        <time>2013-05-01T10:59:22Z</time>
      </trkpt>
      <trkpt lat="59.8601357" lon="17.8168795">
        <ele>23.6896</ele>
        <time>2013-05-01T10:59:23Z</time>
      </trkpt>
      <trkpt lat="59.8601982" lon="17.8169594">
        <ele>23.6896</ele>
        <time>2013-05-01T10:59:24Z</time>
      </trkpt>
      <trkpt lat="59.8602605" lon="17.8170397">
        <ele>23.6896</ele>
        <time>2013-05-01T10:59:25Z</time>
      </trkpt>
      <trkpt lat="59.860323" lon="17.817122">
        <ele>23.6896</ele>
        <time>2013-05-01T10:59:26Z</time>
      </trkpt>
      <trkpt lat="59.8603852" lon="17.8172067">
        <ele>24.1703</ele>
        <time>2013-05-01T10:59:27Z</time>
      </trkpt>
      <trkpt lat="59.8604465" lon="17.8172926">
        <ele>24.1703</ele>
        <time>2013-05-01T10:59:28Z</time>
      </trkpt>
      <trkpt lat="59.8605086" lon="17.817379">
        <ele>24.1703</ele>
        <time>2013-05-01T10:59:29Z</time>
      </trkpt>
      <trkpt lat="59.860569" lon="17.8174579">
        <ele>24.651</ele>
        <time>2013-05-01T10:59:30Z</time>
      </trkpt>
      <trkpt lat="59.8606735" lon="17.8176083">
        <ele>24.651</ele>
        <time>2013-05-01T10:59:32Z</time>
      </trkpt>
      <trkpt lat="59.8607324" lon="17.8176848">
        <ele>25.1317</ele>
        <time>2013-05-01T10:59:33Z</time>
      </trkpt>
      <trkpt lat="59.8607895" lon="17.8177622">
        <ele>25.1317</ele>
        <time>2013-05-01T10:59:34Z</time>
      </trkpt>
      <trkpt lat="59.8608433" lon="17.8178354">
        <ele>25.6123</ele>
        <time>2013-05-01T10:59:35Z</time>
      </trkpt>
      <trkpt lat="59.8608933" lon="17.8179117">
        <ele>25.6123</ele>
        <time>2013-05-01T10:59:36Z</time>
      </trkpt>
      <trkpt lat="59.8609495" lon="17.8179876">
        <ele>25.6123</ele>
        <time>2013-05-01T10:59:37Z</time>
      </trkpt>
      <trkpt lat="59.8610091" lon="17.8180541">
        <ele>26.0929</ele>
        <time>2013-05-01T10:59:38Z</time>
      </trkpt>
      <trkpt lat="59.8610725" lon="17.8181235">
        <ele>26.0929</ele>
        <time>2013-05-01T10:59:39Z</time>
      </trkpt>
      <trkpt lat="59.8611404" lon="17.8181876">
        <ele>25.6123</ele>
        <time>2013-05-01T10:59:40Z</time>
      </trkpt>
      <trkpt lat="59.86121" lon="17.8182488">
        <ele>25.6123</ele>
        <time>2013-05-01T10:59:41Z</time>
      </trkpt>
      <trkpt lat="59.8612795" lon="17.8183104">
        <ele>26.0929</ele>
        <time>2013-05-01T10:59:42Z</time>
      </trkpt>
      <trkpt lat="59.8613514" lon="17.8183657">
        <ele>26.5736</ele>
        <time>2013-05-01T10:59:43Z</time>
      </trkpt>
      <trkpt lat="59.8614208" lon="17.8184224">
        <ele>26.5736</ele>
        <time>2013-05-01T10:59:44Z</time>
      </trkpt>
      <trkpt lat="59.8614882" lon="17.8184532">
        <ele>26.5736</ele>
        <time>2013-05-01T10:59:45Z</time>
      </trkpt>
      <trkpt lat="59.8615452" lon="17.8184928">
        <ele>26.5736</ele>
        <time>2013-05-01T10:59:46Z</time>
      </trkpt>
      <trkpt lat="59.8616063" lon="17.8185312">
        <ele>26.5736</ele>
        <time>2013-05-01T10:59:47Z</time>
      </trkpt>
      <trkpt lat="59.861668" lon="17.8185591">
        <ele>26.5736</ele>
        <time>2013-05-01T10:59:48Z</time>
      </trkpt>
      <trkpt lat="59.8617326" lon="17.8185822">
        <ele>26.0929</ele>
        <time>2013-05-01T10:59:49Z</time>
      </trkpt>
      <trkpt lat="59.8618021" lon="17.8186237">
        <ele>25.6123</ele>
        <time>2013-05-01T10:59:50Z</time>
      </trkpt>
      <trkpt lat="59.8618741" lon="17.8186699">
        <ele>26.0929</ele>
        <time>2013-05-01T10:59:51Z</time>
      </trkpt>
      <trkpt lat="59.8619521" lon="17.8187148">
        <ele>25.6123</ele>
        <time>2013-05-01T10:59:52Z</time>
      </trkpt>
      <trkpt lat="59.8620252" lon="17.818761">
        <ele>25.1317</ele>
        <time>2013-05-01T10:59:53Z</time>
      </trkpt>
      <trkpt lat="59.8621018" lon="17.8188114">
        <ele>25.6123</ele>
        <time>2013-05-01T10:59:54Z</time>
      </trkpt>
      <trkpt lat="59.862174" lon="17.8188781">
        <ele>26.0929</ele>
        <time>2013-05-01T10:59:55Z</time>
      </trkpt>
      <trkpt lat="59.8622486" lon="17.8189661">
        <ele>27.5349</ele>
        <time>2013-05-01T10:59:56Z</time>
      </trkpt>
      <trkpt lat="59.8623134" lon="17.8190672">
        <ele>28.4962</ele>
        <time>2013-05-01T10:59:57Z</time>
      </trkpt>
      <trkpt lat="59.8623764" lon="17.8191817">
        <ele>28.9769</ele>
        <time>2013-05-01T10:59:58Z</time>
      </trkpt>
      <trkpt lat="59.8624439" lon="17.819324">
        <ele>28.0155</ele>
        <time>2013-05-01T10:59:59Z</time>
      </trkpt>
      <trkpt lat="59.862502" lon="17.8194716">
        <ele>27.0543</ele>
        <time>2013-05-01T11:00:00Z</time>
      </trkpt>
      <trkpt lat="59.8625318" lon="17.81962">
        <ele>26.5736</ele>
        <time>2013-05-01T11:00:01Z</time>
      </trkpt>
      <trkpt lat="59.86256" lon="17.8197798">
        <ele>25.6123</ele>
        <time>2013-05-01T11:00:02Z</time>
      </trkpt>
      <trkpt lat="59.8625878" lon="17.8199381">
        <ele>26.5736</ele>
        <time>2013-05-01T11:00:03Z</time>
      </trkpt>
      <trkpt lat="59.86261" lon="17.8200872">
        <ele>26.5736</ele>
        <time>2013-05-01T11:00:04Z</time>
      </trkpt>
      <trkpt lat="59.8626485" lon="17.8202412">
        <ele>28.4962</ele>
        <time>2013-05-01T11:00:05Z</time>
      </trkpt>
      <trkpt lat="59.8626781" lon="17.8203909">
        <ele>28.0155</ele>
        <time>2013-05-01T11:00:06Z</time>
      </trkpt>
      <trkpt lat="59.8627077" lon="17.8205467">
        <ele>27.5349</ele>
        <time>2013-05-01T11:00:07Z</time>
      </trkpt>
      <trkpt lat="59.8627448" lon="17.8207055">
        <ele>26.5736</ele>
        <time>2013-05-01T11:00:08Z</time>
      </trkpt>
      <trkpt lat="59.8627868" lon="17.8208632">
        <ele>25.6123</ele>
        <time>2013-05-01T11:00:09Z</time>
      </trkpt>
      <trkpt lat="59.8628308" lon="17.8210277">
        <ele>24.651</ele>
        <time>2013-05-01T11:00:10Z</time>
      </trkpt>
      <trkpt lat="59.8628764" lon="17.8211978">
        <ele>23.6896</ele>
        <time>2013-05-01T11:00:11Z</time>
      </trkpt>
      <trkpt lat="59.8629246" lon="17.8213728">
        <ele>22.2476</ele>
        <time>2013-05-01T11:00:12Z</time>
      </trkpt>
      <trkpt lat="59.8629754" lon="17.8215496">
        <ele>21.2864</ele>
        <time>2013-05-01T11:00:13Z</time>
      </trkpt>
      <trkpt lat="59.8630293" lon="17.8217284">
        <ele>20.325</ele>
        <time>2013-05-01T11:00:14Z</time>
      </trkpt>
      <trkpt lat="59.8630874" lon="17.821912">
        <ele>18.8831</ele>
        <time>2013-05-01T11:00:15Z</time>
      </trkpt>
      <trkpt lat="59.8631469" lon="17.8220961">
        <ele>18.8831</ele>
        <time>2013-05-01T11:00:16Z</time>
      </trkpt>
      <trkpt lat="59.8632057" lon="17.8222768">
        <ele>18.4023</ele>
        <time>2013-05-01T11:00:17Z</time>
      </trkpt>
      <trkpt lat="59.8632674" lon="17.8224569">
        <ele>17.9218</ele>
        <time>2013-05-01T11:00:18Z</time>
      </trkpt>
      <trkpt lat="59.8633332" lon="17.8226392">
        <ele>17.4412</ele>
        <time>2013-05-01T11:00:19Z</time>
      </trkpt>
      <trkpt lat="59.8634012" lon="17.8228218">
        <ele>17.4412</ele>
        <time>2013-05-01T11:00:20Z</time>
      </trkpt>
      <trkpt lat="59.863472" lon="17.8230026">
        <ele>17.4412</ele>
        <time>2013-05-01T11:00:21Z</time>
      </trkpt>
      <trkpt lat="59.8635451" lon="17.8231813">
        <ele>17.4412</ele>
        <time>2013-05-01T11:00:22Z</time>
      </trkpt>
      <trkpt lat="59.8636194" lon="17.8233584">
        <ele>17.4412</ele>
        <time>2013-05-01T11:00:23Z</time>
      </trkpt>
      <trkpt lat="59.8636959" lon="17.8235347">
        <ele>17.9218</ele>
        <time>2013-05-01T11:00:24Z</time>
      </trkpt>
      <trkpt lat="59.8637725" lon="17.8237079">
        <ele>18.4023</ele>
        <time>2013-05-01T11:00:25Z</time>
      </trkpt>
      <trkpt lat="59.8638488" lon="17.8238769">
        <ele>18.4023</ele>
        <time>2013-05-01T11:00:26Z</time>
      </trkpt>
      <trkpt lat="59.8639237" lon="17.824042">
        <ele>18.8831</ele>
        <time>2013-05-01T11:00:27Z</time>
      </trkpt>
      <trkpt lat="59.8639962" lon="17.8242043">
        <ele>18.8831</ele>
        <time>2013-05-01T11:00:28Z</time>
      </trkpt>
      <trkpt lat="59.8640673" lon="17.8243613">
        <ele>19.3638</ele>
        <time>2013-05-01T11:00:29Z</time>
      </trkpt>
      <trkpt lat="59.8641379" lon="17.8245142">
        <ele>19.8444</ele>
        <time>2013-05-01T11:00:30Z</time>
      </trkpt>
      <trkpt lat="59.8642063" lon="17.8246616">
        <ele>20.325</ele>
        <time>2013-05-01T11:00:31Z</time>
      </trkpt>
      <trkpt lat="59.8642704" lon="17.8248012">
        <ele>20.325</ele>
        <time>2013-05-01T11:00:32Z</time>
      </trkpt>
      <trkpt lat="59.8643324" lon="17.8249377">
        <ele>20.325</ele>
        <time>2013-05-01T11:00:33Z</time>
      </trkpt>
      <trkpt lat="59.8643912" lon="17.8250708">
        <ele>20.325</ele>
        <time>2013-05-01T11:00:34Z</time>
      </trkpt>
      <trkpt lat="59.864449" lon="17.8251996">
        <ele>20.8057</ele>
        <time>2013-05-01T11:00:35Z</time>
      </trkpt>
      <trkpt lat="59.864504" lon="17.8253207">
        <ele>20.8057</ele>
        <time>2013-05-01T11:00:36Z</time>
      </trkpt>
      <trkpt lat="59.8645565" lon="17.8254351">
        <ele>20.8057</ele>
        <time>2013-05-01T11:00:37Z</time>
      </trkpt>
      <trkpt lat="59.864604" lon="17.8255443">
        <ele>20.325</ele>
        <time>2013-05-01T11:00:38Z</time>
      </trkpt>
      <trkpt lat="59.8646382" lon="17.8256166">
        <ele>20.325</ele>
        <time>2013-05-01T11:00:39Z</time>
      </trkpt>
      <trkpt lat="59.8646813" lon="17.8257136">
        <ele>20.325</ele>
        <time>2013-05-01T11:00:40Z</time>
      </trkpt>
      <trkpt lat="59.8647259" lon="17.8258122">
        <ele>20.8057</ele>
        <time>2013-05-01T11:00:41Z</time>
      </trkpt>
      <trkpt lat="59.8647755" lon="17.8259019">
        <ele>21.2864</ele>
        <time>2013-05-01T11:00:42Z</time>
      </trkpt>
      <trkpt lat="59.8648194" lon="17.8259985">
        <ele>21.767</ele>
        <time>2013-05-01T11:00:43Z</time>
      </trkpt>
      <trkpt lat="59.8648628" lon="17.8260869">
        <ele>22.2476</ele>
        <time>2013-05-01T11:00:44Z</time>
      </trkpt>
      <trkpt lat="59.8649014" lon="17.8261734">
        <ele>21.767</ele>
        <time>2013-05-01T11:00:45Z</time>
      </trkpt>
      <trkpt lat="59.8649411" lon="17.8262555">
        <ele>22.2476</ele>
        <time>2013-05-01T11:00:46Z</time>
      </trkpt>
      <trkpt lat="59.8649847" lon="17.826337">
        <ele>22.7283</ele>
        <time>2013-05-01T11:00:47Z</time>
      </trkpt>
      <trkpt lat="59.8650323" lon="17.8264085">
        <ele>22.7283</ele>
        <time>2013-05-01T11:00:48Z</time>
      </trkpt>
      <trkpt lat="59.865083" lon="17.8264753">
        <ele>23.209</ele>
        <time>2013-05-01T11:00:49Z</time>
      </trkpt>
      <trkpt lat="59.8651395" lon="17.8265367">
        <ele>23.209</ele>
        <time>2013-05-01T11:00:50Z</time>
      </trkpt>
      <trkpt lat="59.8652018" lon="17.8265863">
        <ele>23.209</ele>
        <time>2013-05-01T11:00:51Z</time>
      </trkpt>
      <trkpt lat="59.8652718" lon="17.8266162">
        <ele>23.209</ele>
        <time>2013-05-01T11:00:52Z</time>
      </trkpt>
      <trkpt lat="59.8653425" lon="17.8266414">
        <ele>23.209</ele>
        <time>2013-05-01T11:00:53Z</time>
      </trkpt>
      <trkpt lat="59.8654152" lon="17.8266616">
        <ele>23.209</ele>
        <time>2013-05-01T11:00:54Z</time>
      </trkpt>
      <trkpt lat="59.8654903" lon="17.8266779">
        <ele>23.209</ele>
        <time>2013-05-01T11:00:55Z</time>
      </trkpt>
      <trkpt lat="59.8655675" lon="17.8266914">
        <ele>23.209</ele>
        <time>2013-05-01T11:00:56Z</time>
      </trkpt>
      <trkpt lat="59.8656463" lon="17.8267039">
        <ele>23.209</ele>
        <time>2013-05-01T11:00:57Z</time>
      </trkpt>
      <trkpt lat="59.8657258" lon="17.8267156">
        <ele>23.209</ele>
        <time>2013-05-01T11:00:58Z</time>
      </trkpt>
      <trkpt lat="59.8658063" lon="17.8267271">
        <ele>23.6896</ele>
        <time>2013-05-01T11:00:59Z</time>
      </trkpt>
      <trkpt lat="59.865886" lon="17.826736">
        <ele>24.1703</ele>
        <time>2013-05-01T11:01:00Z</time>
      </trkpt>
      <trkpt lat="59.8659653" lon="17.82674">
        <ele>24.651</ele>
        <time>2013-05-01T11:01:01Z</time>
      </trkpt>
      <trkpt lat="59.8660409" lon="17.8267378">
        <ele>25.1317</ele>
        <time>2013-05-01T11:01:02Z</time>
      </trkpt>
      <trkpt lat="59.8661114" lon="17.8267353">
        <ele>25.6123</ele>
        <time>2013-05-01T11:01:03Z</time>
      </trkpt>
      <trkpt lat="59.8661802" lon="17.8267686">
        <ele>26.5736</ele>
        <time>2013-05-01T11:01:04Z</time>
      </trkpt>
      <trkpt lat="59.8662635" lon="17.8267859">
        <ele>26.0929</ele>
        <time>2013-05-01T11:01:05Z</time>
      </trkpt>
      <trkpt lat="59.8663594" lon="17.826766">
        <ele>26.0929</ele>
        <time>2013-05-01T11:01:06Z</time>
      </trkpt>
      <trkpt lat="59.8664405" lon="17.826765">
        <ele>26.0929</ele>
        <time>2013-05-01T11:01:07Z</time>
      </trkpt>
      <trkpt lat="59.8665114" lon="17.8267536">
        <ele>26.0929</ele>
        <time>2013-05-01T11:01:08Z</time>
      </trkpt>
      <trkpt lat="59.8665803" lon="17.8267353">
        <ele>25.1317</ele>
        <time>2013-05-01T11:01:09Z</time>
      </trkpt>
      <trkpt lat="59.8666546" lon="17.8267075">
        <ele>25.1317</ele>
        <time>2013-05-01T11:01:10Z</time>
      </trkpt>
      <trkpt lat="59.8667304" lon="17.8266671">
        <ele>24.1703</ele>
        <time>2013-05-01T11:01:11Z</time>
      </trkpt>
      <trkpt lat="59.866821" lon="17.8266068">
        <ele>24.651</ele>
        <time>2013-05-01T11:01:12Z</time>
      </trkpt>
      <trkpt lat="59.8668998" lon="17.8265595">
        <ele>24.1703</ele>
        <time>2013-05-01T11:01:13Z</time>
      </trkpt>
      <trkpt lat="59.8669708" lon="17.8265186">
        <ele>23.6896</ele>
        <time>2013-05-01T11:01:14Z</time>
      </trkpt>
      <trkpt lat="59.8670416" lon="17.826472">
        <ele>23.209</ele>
        <time>2013-05-01T11:01:15Z</time>
      </trkpt>
      <trkpt lat="59.8671108" lon="17.8264189">
        <ele>22.2476</ele>
        <time>2013-05-01T11:01:16Z</time>
      </trkpt>
      <trkpt lat="59.8671815" lon="17.8263687">
        <ele>21.767</ele>
        <time>2013-05-01T11:01:17Z</time>
      </trkpt>
      <trkpt lat="59.86725" lon="17.8263183">
        <ele>21.2864</ele>
        <time>2013-05-01T11:01:18Z</time>
      </trkpt>
      <trkpt lat="59.8673162" lon="17.8262628">
        <ele>20.325</ele>
        <time>2013-05-01T11:01:19Z</time>
      </trkpt>
      <trkpt lat="59.8673829" lon="17.8262109">
        <ele>19.8444</ele>
        <time>2013-05-01T11:01:20Z</time>
      </trkpt>
      <trkpt lat="59.8674451" lon="17.8261623">
        <ele>19.3638</ele>
        <time>2013-05-01T11:01:21Z</time>
      </trkpt>
      <trkpt lat="59.8675055" lon="17.8261168">
        <ele>18.8831</ele>
        <time>2013-05-01T11:01:22Z</time>
      </trkpt>
      <trkpt lat="59.8675675" lon="17.8260714">
        <ele>18.4023</ele>
        <time>2013-05-01T11:01:23Z</time>
      </trkpt>
      <trkpt lat="59.8676198" lon="17.8260329">
        <ele>16.9604</ele>
        <time>2013-05-01T11:01:24Z</time>
      </trkpt>
      <trkpt lat="59.8676749" lon="17.8259894">
        <ele>15.999</ele>
        <time>2013-05-01T11:01:25Z</time>
      </trkpt>
      <trkpt lat="59.8677385" lon="17.8259411">
        <ele>15.5184</ele>
        <time>2013-05-01T11:01:26Z</time>
      </trkpt>
      <trkpt lat="59.8678017" lon="17.8258925">
        <ele>14.557</ele>
        <time>2013-05-01T11:01:27Z</time>
      </trkpt>
      <trkpt lat="59.867865" lon="17.8258471">
        <ele>14.557</ele>
        <time>2013-05-01T11:01:28Z</time>
      </trkpt>
      <trkpt lat="59.8679239" lon="17.8258051">
        <ele>14.0764</ele>
        <time>2013-05-01T11:01:29Z</time>
      </trkpt>
      <trkpt lat="59.867984" lon="17.8257575">
        <ele>13.1151</ele>
        <time>2013-05-01T11:01:30Z</time>
      </trkpt>
      <trkpt lat="59.8680446" lon="17.8257137">
        <ele>12.6344</ele>
        <time>2013-05-01T11:01:31Z</time>
      </trkpt>
      <trkpt lat="59.8681074" lon="17.8256729">
        <ele>12.1538</ele>
        <time>2013-05-01T11:01:32Z</time>
      </trkpt>
      <trkpt lat="59.8681731" lon="17.8256365">
        <ele>11.6732</ele>
        <time>2013-05-01T11:01:33Z</time>
      </trkpt>
      <trkpt lat="59.868242" lon="17.8256019">
        <ele>11.1925</ele>
        <time>2013-05-01T11:01:34Z</time>
      </trkpt>
      <trkpt lat="59.8683063" lon="17.82559">
        <ele>11.1925</ele>
        <time>2013-05-01T11:01:35Z</time>
      </trkpt>
      <trkpt lat="59.8683713" lon="17.8255895">
        <ele>10.7118</ele>
        <time>2013-05-01T11:01:36Z</time>
      </trkpt>
      <trkpt lat="59.8684336" lon="17.8256108">
        <ele>10.2312</ele>
        <time>2013-05-01T11:01:37Z</time>
      </trkpt>
      <trkpt lat="59.8684979" lon="17.8256558">
        <ele>11.1925</ele>
        <time>2013-05-01T11:01:38Z</time>
      </trkpt>
      <trkpt lat="59.8685611" lon="17.8257111">
        <ele>11.6732</ele>
        <time>2013-05-01T11:01:39Z</time>
      </trkpt>
      <trkpt lat="59.8686197" lon="17.8257844">
        <ele>12.1538</ele>
        <time>2013-05-01T11:01:40Z</time>
      </trkpt>
      <trkpt lat="59.8686754" lon="17.825865">
        <ele>11.1925</ele>
        <time>2013-05-01T11:01:41Z</time>
      </trkpt>
      <trkpt lat="59.8687314" lon="17.8259547">
        <ele>11.1925</ele>
        <time>2013-05-01T11:01:42Z</time>
      </trkpt>
      <trkpt lat="59.8687857" lon="17.8260494">
        <ele>11.6732</ele>
        <time>2013-05-01T11:01:43Z</time>
      </trkpt>
      <trkpt lat="59.8688387" lon="17.8261474">
        <ele>11.6732</ele>
        <time>2013-05-01T11:01:44Z</time>
      </trkpt>
      <trkpt lat="59.868892" lon="17.8262521">
        <ele>11.6732</ele>
        <time>2013-05-01T11:01:45Z</time>
      </trkpt>
      <trkpt lat="59.8689456" lon="17.8263619">
        <ele>11.6732</ele>
        <time>2013-05-01T11:01:46Z</time>
      </trkpt>
      <trkpt lat="59.8690009" lon="17.8264731">
        <ele>11.6732</ele>
        <time>2013-05-01T11:01:47Z</time>
      </trkpt>
      <trkpt lat="59.8690579" lon="17.8265819">
        <ele>11.6732</ele>
        <time>2013-05-01T11:01:48Z</time>
      </trkpt>
      <trkpt lat="59.8691219" lon="17.8266949">
        <ele>13.1151</ele>
        <time>2013-05-01T11:01:49Z</time>
      </trkpt>
      <trkpt lat="59.8691977" lon="17.8268631">
        <ele>14.0764</ele>
        <time>2013-05-01T11:01:50Z</time>
      </trkpt>
      <trkpt lat="59.8692584" lon="17.8269638">
        <ele>14.557</ele>
        <time>2013-05-01T11:01:51Z</time>
      </trkpt>
      <trkpt lat="59.8693226" lon="17.8270713">
        <ele>15.0377</ele>
        <time>2013-05-01T11:01:52Z</time>
      </trkpt>
      <trkpt lat="59.8693854" lon="17.8271767">
        <ele>15.5184</ele>
        <time>2013-05-01T11:01:53Z</time>
      </trkpt>
      <trkpt lat="59.8694459" lon="17.827286">
        <ele>15.5184</ele>
        <time>2013-05-01T11:01:54Z</time>
      </trkpt>
      <trkpt lat="59.8694987" lon="17.8273901">
        <ele>15.5184</ele>
        <time>2013-05-01T11:01:55Z</time>
      </trkpt>
      <trkpt lat="59.8695557" lon="17.8274937">
        <ele>16.4797</ele>
        <time>2013-05-01T11:01:56Z</time>
      </trkpt>
      <trkpt lat="59.8696136" lon="17.8275968">
        <ele>16.9604</ele>
        <time>2013-05-01T11:01:57Z</time>
      </trkpt>
      <trkpt lat="59.8696743" lon="17.8276976">
        <ele>16.9604</ele>
        <time>2013-05-01T11:01:58Z</time>
      </trkpt>
      <trkpt lat="59.8697358" lon="17.8277978">
        <ele>17.4412</ele>
        <time>2013-05-01T11:01:59Z</time>
      </trkpt>
      <trkpt lat="59.8697984" lon="17.8278929">
        <ele>16.9604</ele>
        <time>2013-05-01T11:02:00Z</time>
      </trkpt>
      <trkpt lat="59.8698647" lon="17.8279869">
        <ele>16.4797</ele>
        <time>2013-05-01T11:02:01Z</time>
      </trkpt>
      <trkpt lat="59.8699348" lon="17.8280775">
        <ele>16.4797</ele>
        <time>2013-05-01T11:02:02Z</time>
      </trkpt>
      <trkpt lat="59.8700082" lon="17.8281641">
        <ele>16.4797</ele>
        <time>2013-05-01T11:02:03Z</time>
      </trkpt>
      <trkpt lat="59.8700844" lon="17.8282478">
        <ele>15.999</ele>
        <time>2013-05-01T11:02:04Z</time>
      </trkpt>
      <trkpt lat="59.8701622" lon="17.8283322">
        <ele>15.999</ele>
        <time>2013-05-01T11:02:05Z</time>
      </trkpt>
      <trkpt lat="59.8702409" lon="17.8284168">
        <ele>15.5184</ele>
        <time>2013-05-01T11:02:06Z</time>
      </trkpt>
      <trkpt lat="59.8703213" lon="17.8284969">
        <ele>15.0377</ele>
        <time>2013-05-01T11:02:07Z</time>
      </trkpt>
      <trkpt lat="59.8704032" lon="17.8285743">
        <ele>15.0377</ele>
        <time>2013-05-01T11:02:08Z</time>
      </trkpt>
      <trkpt lat="59.8704858" lon="17.8286521">
        <ele>14.557</ele>
        <time>2013-05-01T11:02:09Z</time>
      </trkpt>
      <trkpt lat="59.8705689" lon="17.8287313">
        <ele>14.557</ele>
        <time>2013-05-01T11:02:10Z</time>
      </trkpt>
      <trkpt lat="59.8706518" lon="17.8288136">
        <ele>14.557</ele>
        <time>2013-05-01T11:02:11Z</time>
      </trkpt>
      <trkpt lat="59.8707345" lon="17.8288959">
        <ele>14.557</ele>
        <time>2013-05-01T11:02:12Z</time>
      </trkpt>
      <trkpt lat="59.8708165" lon="17.8289766">
        <ele>14.0764</ele>
        <time>2013-05-01T11:02:13Z</time>
      </trkpt>
      <trkpt lat="59.8708973" lon="17.8290558">
        <ele>14.0764</ele>
        <time>2013-05-01T11:02:14Z</time>
      </trkpt>
      <trkpt lat="59.8709781" lon="17.8291326">
        <ele>14.0764</ele>
        <time>2013-05-01T11:02:15Z</time>
      </trkpt>
      <trkpt lat="59.8710584" lon="17.8292074">
        <ele>14.0764</ele>
        <time>2013-05-01T11:02:16Z</time>
      </trkpt>
      <trkpt lat="59.8711375" lon="17.8292803">
        <ele>14.0764</ele>
        <time>2013-05-01T11:02:17Z</time>
      </trkpt>
      <trkpt lat="59.8712149" lon="17.8293529">
        <ele>14.0764</ele>
        <time>2013-05-01T11:02:18Z</time>
      </trkpt>
      <trkpt lat="59.8712906" lon="17.8294243">
        <ele>14.0764</ele>
        <time>2013-05-01T11:02:19Z</time>
      </trkpt>
      <trkpt lat="59.8713656" lon="17.8294936">
        <ele>14.0764</ele>
        <time>2013-05-01T11:02:20Z</time>
      </trkpt>
      <trkpt lat="59.8714397" lon="17.8295616">
        <ele>14.0764</ele>
        <time>2013-05-01T11:02:21Z</time>
      </trkpt>
      <trkpt lat="59.8715128" lon="17.8296291">
        <ele>14.0764</ele>
        <time>2013-05-01T11:02:22Z</time>
      </trkpt>
      <trkpt lat="59.8715856" lon="17.8296973">
        <ele>14.557</ele>
        <time>2013-05-01T11:02:23Z</time>
      </trkpt>
      <trkpt lat="59.8716577" lon="17.8297658">
        <ele>14.557</ele>
        <time>2013-05-01T11:02:24Z</time>
      </trkpt>
      <trkpt lat="59.8717283" lon="17.8298344">
        <ele>15.0377</ele>
        <time>2013-05-01T11:02:25Z</time>
      </trkpt>
      <trkpt lat="59.8717974" lon="17.8299018">
        <ele>15.0377</ele>
        <time>2013-05-01T11:02:26Z</time>
      </trkpt>
      <trkpt lat="59.871865" lon="17.8299663">
        <ele>15.0377</ele>
        <time>2013-05-01T11:02:27Z</time>
      </trkpt>
      <trkpt lat="59.8719302" lon="17.8300283">
        <ele>15.5184</ele>
        <time>2013-05-01T11:02:28Z</time>
      </trkpt>
      <trkpt lat="59.8719922" lon="17.8300858">
        <ele>15.5184</ele>
        <time>2013-05-01T11:02:29Z</time>
      </trkpt>
      <trkpt lat="59.8720529" lon="17.8301416">
        <ele>15.5184</ele>
        <time>2013-05-01T11:02:30Z</time>
      </trkpt>
      <trkpt lat="59.8721122" lon="17.8301977">
        <ele>15.5184</ele>
        <time>2013-05-01T11:02:31Z</time>
      </trkpt>
      <trkpt lat="59.8721725" lon="17.8302511">
        <ele>15.999</ele>
        <time>2013-05-01T11:02:32Z</time>
      </trkpt>
      <trkpt lat="59.8722316" lon="17.830306">
        <ele>15.999</ele>
        <time>2013-05-01T11:02:33Z</time>
      </trkpt>
      <trkpt lat="59.8722908" lon="17.8303599">
        <ele>16.4797</ele>
        <time>2013-05-01T11:02:34Z</time>
      </trkpt>
      <trkpt lat="59.8723487" lon="17.8304146">
        <ele>16.9604</ele>
        <time>2013-05-01T11:02:35Z</time>
      </trkpt>
      <trkpt lat="59.8724068" lon="17.8304671">
        <ele>17.4412</ele>
        <time>2013-05-01T11:02:36Z</time>
      </trkpt>
      <trkpt lat="59.8724636" lon="17.830513">
        <ele>17.9218</ele>
        <time>2013-05-01T11:02:37Z</time>
      </trkpt>
      <trkpt lat="59.8725186" lon="17.8305535">
        <ele>17.9218</ele>
        <time>2013-05-01T11:02:38Z</time>
      </trkpt>
      <trkpt lat="59.8725732" lon="17.8305894">
        <ele>18.4023</ele>
        <time>2013-05-01T11:02:39Z</time>
      </trkpt>
      <trkpt lat="59.872629" lon="17.830621">
        <ele>18.4023</ele>
        <time>2013-05-01T11:02:40Z</time>
      </trkpt>
      <trkpt lat="59.8726856" lon="17.830648">
        <ele>18.8831</ele>
        <time>2013-05-01T11:02:41Z</time>
      </trkpt>
      <trkpt lat="59.8727408" lon="17.8306734">
        <ele>18.8831</ele>
        <time>2013-05-01T11:02:42Z</time>
      </trkpt>
      <trkpt lat="59.8727949" lon="17.8306955">
        <ele>19.8444</ele>
        <time>2013-05-01T11:02:43Z</time>
      </trkpt>
      <trkpt lat="59.87285" lon="17.8307152">
        <ele>20.325</ele>
        <time>2013-05-01T11:02:44Z</time>
      </trkpt>
      <trkpt lat="59.8729051" lon="17.8307376">
        <ele>20.8057</ele>
        <time>2013-05-01T11:02:45Z</time>
      </trkpt>
      <trkpt lat="59.8729601" lon="17.8307644">
        <ele>21.2864</ele>
        <time>2013-05-01T11:02:46Z</time>
      </trkpt>
      <trkpt lat="59.8730156" lon="17.8307958">
        <ele>21.767</ele>
        <time>2013-05-01T11:02:47Z</time>
      </trkpt>
      <trkpt lat="59.8730699" lon="17.8308319">
        <ele>21.767</ele>
        <time>2013-05-01T11:02:48Z</time>
      </trkpt>
      <trkpt lat="59.8731249" lon="17.8308706">
        <ele>21.767</ele>
        <time>2013-05-01T11:02:49Z</time>
      </trkpt>
      <trkpt lat="59.8731798" lon="17.8309121">
        <ele>21.767</ele>
        <time>2013-05-01T11:02:50Z</time>
      </trkpt>
      <trkpt lat="59.8732352" lon="17.8309534">
        <ele>22.2476</ele>
        <time>2013-05-01T11:02:51Z</time>
      </trkpt>
      <trkpt lat="59.8732909" lon="17.8309954">
        <ele>22.7283</ele>
        <time>2013-05-01T11:02:52Z</time>
      </trkpt>
      <trkpt lat="59.8733465" lon="17.8310399">
        <ele>23.209</ele>
        <time>2013-05-01T11:02:53Z</time>
      </trkpt>
      <trkpt lat="59.8734018" lon="17.8310809">
        <ele>23.209</ele>
        <time>2013-05-01T11:02:54Z</time>
      </trkpt>
      <trkpt lat="59.8734578" lon="17.8311249">
        <ele>23.6896</ele>
        <time>2013-05-01T11:02:55Z</time>
      </trkpt>
      <trkpt lat="59.8735117" lon="17.8311752">
        <ele>23.6896</ele>
        <time>2013-05-01T11:02:56Z</time>
      </trkpt>
      <trkpt lat="59.8735649" lon="17.8312286">
        <ele>23.6896</ele>
        <time>2013-05-01T11:02:57Z</time>
      </trkpt>
      <trkpt lat="59.8736168" lon="17.8312834">
        <ele>24.651</ele>
        <time>2013-05-01T11:02:58Z</time>
      </trkpt>
      <trkpt lat="59.8736652" lon="17.8313419">
        <ele>25.1317</ele>
        <time>2013-05-01T11:02:59Z</time>
      </trkpt>
      <trkpt lat="59.8737132" lon="17.8314034">
        <ele>25.1317</ele>
        <time>2013-05-01T11:03:00Z</time>
      </trkpt>
      <trkpt lat="59.8737614" lon="17.8314591">
        <ele>25.6123</ele>
        <time>2013-05-01T11:03:01Z</time>
      </trkpt>
      <trkpt lat="59.873807" lon="17.8315124">
        <ele>26.0929</ele>
        <time>2013-05-01T11:03:02Z</time>
      </trkpt>
      <trkpt lat="59.8738496" lon="17.8315668">
        <ele>26.0929</ele>
        <time>2013-05-01T11:03:03Z</time>
      </trkpt>
      <trkpt lat="59.873892" lon="17.8316207">
        <ele>26.5736</ele>
        <time>2013-05-01T11:03:04Z</time>
      </trkpt>
      <trkpt lat="59.8739349" lon="17.831674">
        <ele>27.0543</ele>
        <time>2013-05-01T11:03:05Z</time>
      </trkpt>
      <trkpt lat="59.873977" lon="17.8317264">
        <ele>27.0543</ele>
        <time>2013-05-01T11:03:06Z</time>
      </trkpt>
      <trkpt lat="59.8740178" lon="17.8317828">
        <ele>27.0543</ele>
        <time>2013-05-01T11:03:07Z</time>
      </trkpt>
      <trkpt lat="59.8740582" lon="17.8318383">
        <ele>27.0543</ele>
        <time>2013-05-01T11:03:08Z</time>
      </trkpt>
      <trkpt lat="59.8741038" lon="17.8319231">
        <ele>27.0543</ele>
        <time>2013-05-01T11:03:09Z</time>
      </trkpt>
      <trkpt lat="59.8741446" lon="17.8319776">
        <ele>27.0543</ele>
        <time>2013-05-01T11:03:10Z</time>
      </trkpt>
      <trkpt lat="59.8741943" lon="17.8320393">
        <ele>27.0543</ele>
        <time>2013-05-01T11:03:11Z</time>
      </trkpt>
      <trkpt lat="59.87424" lon="17.8320767">
        <ele>26.5736</ele>
        <time>2013-05-01T11:03:12Z</time>
      </trkpt>
      <trkpt lat="59.8742881" lon="17.8321075">
        <ele>26.5736</ele>
        <time>2013-05-01T11:03:13Z</time>
      </trkpt>
      <trkpt lat="59.8743342" lon="17.8321494">
        <ele>26.0929</ele>
        <time>2013-05-01T11:03:14Z</time>
      </trkpt>
      <trkpt lat="59.8743812" lon="17.8322033">
        <ele>25.6123</ele>
        <time>2013-05-01T11:03:15Z</time>
      </trkpt>
      <trkpt lat="59.8744377" lon="17.8322512">
        <ele>25.6123</ele>
        <time>2013-05-01T11:03:16Z</time>
      </trkpt>
      <trkpt lat="59.8744992" lon="17.8322717">
        <ele>26.0929</ele>
        <time>2013-05-01T11:03:17Z</time>
      </trkpt>
      <trkpt lat="59.8745686" lon="17.832288">
        <ele>25.6123</ele>
        <time>2013-05-01T11:03:18Z</time>
      </trkpt>
      <trkpt lat="59.8746428" lon="17.8323136">
        <ele>24.1703</ele>
        <time>2013-05-01T11:03:19Z</time>
      </trkpt>
      <trkpt lat="59.8747123" lon="17.8323236">
        <ele>24.651</ele>
        <time>2013-05-01T11:03:20Z</time>
      </trkpt>
      <trkpt lat="59.874778" lon="17.8323516">
        <ele>23.6896</ele>
        <time>2013-05-01T11:03:21Z</time>
      </trkpt>
      <trkpt lat="59.8748414" lon="17.8323842">
        <ele>24.1703</ele>
        <time>2013-05-01T11:03:22Z</time>
      </trkpt>
      <trkpt lat="59.8749102" lon="17.8324034">
        <ele>24.1703</ele>
        <time>2013-05-01T11:03:23Z</time>
      </trkpt>
      <trkpt lat="59.8749795" lon="17.8324255">
        <ele>24.1703</ele>
        <time>2013-05-01T11:03:24Z</time>
      </trkpt>
      <trkpt lat="59.8750513" lon="17.8324402">
        <ele>24.1703</ele>
        <time>2013-05-01T11:03:25Z</time>
      </trkpt>
      <trkpt lat="59.8751249" lon="17.8324568">
        <ele>24.1703</ele>
        <time>2013-05-01T11:03:26Z</time>
      </trkpt>
      <trkpt lat="59.8751961" lon="17.8324771">
        <ele>24.651</ele>
        <time>2013-05-01T11:03:27Z</time>
      </trkpt>
      <trkpt lat="59.8752671" lon="17.8324992">
        <ele>24.651</ele>
        <time>2013-05-01T11:03:28Z</time>
      </trkpt>
      <trkpt lat="59.8753367" lon="17.8325262">
        <ele>24.651</ele>
        <time>2013-05-01T11:03:29Z</time>
      </trkpt>
      <trkpt lat="59.8754045" lon="17.8325588">
        <ele>25.1317</ele>
        <time>2013-05-01T11:03:30Z</time>
      </trkpt>
      <trkpt lat="59.8754687" lon="17.8325982">
        <ele>25.1317</ele>
        <time>2013-05-01T11:03:31Z</time>
      </trkpt>
      <trkpt lat="59.8755283" lon="17.8326474">
        <ele>25.6123</ele>
        <time>2013-05-01T11:03:32Z</time>
      </trkpt>
      <trkpt lat="59.8755878" lon="17.8327054">
        <ele>26.0929</ele>
        <time>2013-05-01T11:03:33Z</time>
      </trkpt>
      <trkpt lat="59.8756501" lon="17.8327655">
        <ele>26.0929</ele>
        <time>2013-05-01T11:03:34Z</time>
      </trkpt>
      <trkpt lat="59.8757113" lon="17.8328303">
        <ele>26.5736</ele>
        <time>2013-05-01T11:03:35Z</time>
      </trkpt>
      <trkpt lat="59.8757744" lon="17.8328979">
        <ele>26.0929</ele>
        <time>2013-05-01T11:03:36Z</time>
      </trkpt>
      <trkpt lat="59.8758364" lon="17.8329694">
        <ele>25.6123</ele>
        <time>2013-05-01T11:03:37Z</time>
      </trkpt>
      <trkpt lat="59.8758977" lon="17.8330415">
        <ele>25.1317</ele>
        <time>2013-05-01T11:03:38Z</time>
      </trkpt>
      <trkpt lat="59.8759602" lon="17.8331069">
        <ele>25.1317</ele>
        <time>2013-05-01T11:03:39Z</time>
      </trkpt>
      <trkpt lat="59.8760283" lon="17.8331675">
        <ele>24.651</ele>
        <time>2013-05-01T11:03:40Z</time>
      </trkpt>
      <trkpt lat="59.8760941" lon="17.8332223">
        <ele>24.651</ele>
        <time>2013-05-01T11:03:41Z</time>
      </trkpt>
      <trkpt lat="59.8761686" lon="17.8332793">
        <ele>25.1317</ele>
        <time>2013-05-01T11:03:42Z</time>
      </trkpt>
      <trkpt lat="59.8762421" lon="17.8333289">
        <ele>26.5736</ele>
        <time>2013-05-01T11:03:43Z</time>
      </trkpt>
      <trkpt lat="59.8763129" lon="17.8333716">
        <ele>27.0543</ele>
        <time>2013-05-01T11:03:44Z</time>
      </trkpt>
      <trkpt lat="59.8763825" lon="17.8334056">
        <ele>28.0155</ele>
        <time>2013-05-01T11:03:45Z</time>
      </trkpt>
      <trkpt lat="59.8764487" lon="17.8334441">
        <ele>29.4575</ele>
        <time>2013-05-01T11:03:46Z</time>
      </trkpt>
      <trkpt lat="59.8765094" lon="17.8334859">
        <ele>30.4188</ele>
        <time>2013-05-01T11:03:47Z</time>
      </trkpt>
      <trkpt lat="59.8765774" lon="17.8335258">
        <ele>30.8995</ele>
        <time>2013-05-01T11:03:48Z</time>
      </trkpt>
      <trkpt lat="59.8766462" lon="17.8335604">
        <ele>30.4188</ele>
        <time>2013-05-01T11:03:49Z</time>
      </trkpt>
      <trkpt lat="59.8767151" lon="17.8335915">
        <ele>28.9769</ele>
        <time>2013-05-01T11:03:50Z</time>
      </trkpt>
      <trkpt lat="59.876785" lon="17.8336335">
        <ele>28.4962</ele>
        <time>2013-05-01T11:03:51Z</time>
      </trkpt>
      <trkpt lat="59.8768585" lon="17.8336854">
        <ele>27.5349</ele>
        <time>2013-05-01T11:03:52Z</time>
      </trkpt>
      <trkpt lat="59.876933" lon="17.8337445">
        <ele>26.5736</ele>
        <time>2013-05-01T11:03:53Z</time>
      </trkpt>
      <trkpt lat="59.8770081" lon="17.8338016">
        <ele>26.5736</ele>
        <time>2013-05-01T11:03:54Z</time>
      </trkpt>
      <trkpt lat="59.8770818" lon="17.8338661">
        <ele>26.5736</ele>
        <time>2013-05-01T11:03:55Z</time>
      </trkpt>
      <trkpt lat="59.8771581" lon="17.8339305">
        <ele>26.5736</ele>
        <time>2013-05-01T11:03:56Z</time>
      </trkpt>
      <trkpt lat="59.877231" lon="17.8340004">
        <ele>25.6123</ele>
        <time>2013-05-01T11:03:57Z</time>
      </trkpt>
      <trkpt lat="59.8773023" lon="17.8340765">
        <ele>25.1317</ele>
        <time>2013-05-01T11:03:58Z</time>
      </trkpt>
      <trkpt lat="59.8773717" lon="17.8341569">
        <ele>24.651</ele>
        <time>2013-05-01T11:03:59Z</time>
      </trkpt>
      <trkpt lat="59.8774397" lon="17.8342396">
        <ele>23.6896</ele>
        <time>2013-05-01T11:04:00Z</time>
      </trkpt>
      <trkpt lat="59.8775039" lon="17.8343259">
        <ele>25.1317</ele>
        <time>2013-05-01T11:04:01Z</time>
      </trkpt>
      <trkpt lat="59.8775687" lon="17.8344077">
        <ele>24.651</ele>
        <time>2013-05-01T11:04:02Z</time>
      </trkpt>
      <trkpt lat="59.8776361" lon="17.8344847">
        <ele>24.1703</ele>
        <time>2013-05-01T11:04:03Z</time>
      </trkpt>
      <trkpt lat="59.8777019" lon="17.8345612">
        <ele>23.6896</ele>
        <time>2013-05-01T11:04:04Z</time>
      </trkpt>
      <trkpt lat="59.8777683" lon="17.8346327">
        <ele>23.6896</ele>
        <time>2013-05-01T11:04:05Z</time>
      </trkpt>
      <trkpt lat="59.8778324" lon="17.8347053">
        <ele>23.6896</ele>
        <time>2013-05-01T11:04:06Z</time>
      </trkpt>
      <trkpt lat="59.877897" lon="17.8347767">
        <ele>24.651</ele>
        <time>2013-05-01T11:04:07Z</time>
      </trkpt>
      <trkpt lat="59.8779615" lon="17.8348479">
        <ele>24.1703</ele>
        <time>2013-05-01T11:04:08Z</time>
      </trkpt>
      <trkpt lat="59.8780273" lon="17.8349212">
        <ele>24.1703</ele>
        <time>2013-05-01T11:04:09Z</time>
      </trkpt>
      <trkpt lat="59.8780956" lon="17.8349938">
        <ele>24.1703</ele>
        <time>2013-05-01T11:04:10Z</time>
      </trkpt>
      <trkpt lat="59.8781636" lon="17.8350675">
        <ele>24.651</ele>
        <time>2013-05-01T11:04:11Z</time>
      </trkpt>
      <trkpt lat="59.8782366" lon="17.8351333">
        <ele>25.1317</ele>
        <time>2013-05-01T11:04:12Z</time>
      </trkpt>
      <trkpt lat="59.8783104" lon="17.8352018">
        <ele>25.1317</ele>
        <time>2013-05-01T11:04:13Z</time>
      </trkpt>
      <trkpt lat="59.87838" lon="17.8352758">
        <ele>25.6123</ele>
        <time>2013-05-01T11:04:14Z</time>
      </trkpt>
      <trkpt lat="59.8784542" lon="17.8354156">
        <ele>26.0929</ele>
        <time>2013-05-01T11:04:15Z</time>
      </trkpt>
      <trkpt lat="59.8785319" lon="17.8354838">
        <ele>26.5736</ele>
        <time>2013-05-01T11:04:16Z</time>
      </trkpt>
      <trkpt lat="59.8786006" lon="17.8355473">
        <ele>26.5736</ele>
        <time>2013-05-01T11:04:17Z</time>
      </trkpt>
      <trkpt lat="59.8786773" lon="17.8355922">
        <ele>27.5349</ele>
        <time>2013-05-01T11:04:18Z</time>
      </trkpt>
      <trkpt lat="59.8787467" lon="17.8356404">
        <ele>28.0155</ele>
        <time>2013-05-01T11:04:19Z</time>
      </trkpt>
      <trkpt lat="59.8788131" lon="17.8356741">
        <ele>28.0155</ele>
        <time>2013-05-01T11:04:20Z</time>
      </trkpt>
      <trkpt lat="59.878882" lon="17.8357099">
        <ele>27.5349</ele>
        <time>2013-05-01T11:04:21Z</time>
      </trkpt>
      <trkpt lat="59.8789523" lon="17.8357309">
        <ele>27.0543</ele>
        <time>2013-05-01T11:04:22Z</time>
      </trkpt>
      <trkpt lat="59.8790363" lon="17.8357471">
        <ele>28.4962</ele>
        <time>2013-05-01T11:04:23Z</time>
      </trkpt>
      <trkpt lat="59.8791176" lon="17.8357407">
        <ele>28.4962</ele>
        <time>2013-05-01T11:04:24Z</time>
      </trkpt>
      <trkpt lat="59.879192" lon="17.8357415">
        <ele>28.9769</ele>
        <time>2013-05-01T11:04:25Z</time>
      </trkpt>
      <trkpt lat="59.879269" lon="17.8357498">
        <ele>28.4962</ele>
        <time>2013-05-01T11:04:26Z</time>
      </trkpt>
      <trkpt lat="59.8793449" lon="17.8357555">
        <ele>28.9769</ele>
        <time>2013-05-01T11:04:27Z</time>
      </trkpt>
      <trkpt lat="59.8794083" lon="17.8357669">
        <ele>28.9769</ele>
        <time>2013-05-01T11:04:28Z</time>
      </trkpt>
      <trkpt lat="59.8794722" lon="17.835774">
        <ele>29.4575</ele>
        <time>2013-05-01T11:04:29Z</time>
      </trkpt>
      <trkpt lat="59.8795422" lon="17.8357854">
        <ele>29.9381</ele>
        <time>2013-05-01T11:04:30Z</time>
      </trkpt>
      <trkpt lat="59.8796122" lon="17.8358052">
        <ele>29.4575</ele>
        <time>2013-05-01T11:04:31Z</time>
      </trkpt>
      <trkpt lat="59.8796842" lon="17.8358127">
        <ele>29.4575</ele>
        <time>2013-05-01T11:04:32Z</time>
      </trkpt>
      <trkpt lat="59.879749" lon="17.8358188">
        <ele>28.4962</ele>
        <time>2013-05-01T11:04:33Z</time>
      </trkpt>
      <trkpt lat="59.8798121" lon="17.8358322">
        <ele>29.4575</ele>
        <time>2013-05-01T11:04:34Z</time>
      </trkpt>
      <trkpt lat="59.8798732" lon="17.8358553">
        <ele>28.9769</ele>
        <time>2013-05-01T11:04:35Z</time>
      </trkpt>
      <trkpt lat="59.8799319" lon="17.8358851">
        <ele>28.9769</ele>
        <time>2013-05-01T11:04:36Z</time>
      </trkpt>
      <trkpt lat="59.8799941" lon="17.8359273">
        <ele>28.4962</ele>
        <time>2013-05-01T11:04:37Z</time>
      </trkpt>
      <trkpt lat="59.8800621" lon="17.8359803">
        <ele>28.0155</ele>
        <time>2013-05-01T11:04:38Z</time>
      </trkpt>
      <trkpt lat="59.8801324" lon="17.836045">
        <ele>27.5349</ele>
        <time>2013-05-01T11:04:39Z</time>
      </trkpt>
      <trkpt lat="59.8802044" lon="17.8361185">
        <ele>27.5349</ele>
        <time>2013-05-01T11:04:40Z</time>
      </trkpt>
      <trkpt lat="59.8802765" lon="17.8361972">
        <ele>27.5349</ele>
        <time>2013-05-01T11:04:41Z</time>
      </trkpt>
      <trkpt lat="59.8803485" lon="17.8362755">
        <ele>27.5349</ele>
        <time>2013-05-01T11:04:42Z</time>
      </trkpt>
      <trkpt lat="59.8804171" lon="17.8363592">
        <ele>27.0543</ele>
        <time>2013-05-01T11:04:43Z</time>
      </trkpt>
      <trkpt lat="59.880485" lon="17.8364471">
        <ele>26.5736</ele>
        <time>2013-05-01T11:04:44Z</time>
      </trkpt>
      <trkpt lat="59.8805458" lon="17.8365423">
        <ele>26.5736</ele>
        <time>2013-05-01T11:04:45Z</time>
      </trkpt>
      <trkpt lat="59.8806126" lon="17.8366341">
        <ele>26.5736</ele>
        <time>2013-05-01T11:04:46Z</time>
      </trkpt>
      <trkpt lat="59.8806742" lon="17.836732">
        <ele>26.5736</ele>
        <time>2013-05-01T11:04:47Z</time>
      </trkpt>
      <trkpt lat="59.8807214" lon="17.8368185">
        <ele>27.0543</ele>
        <time>2013-05-01T11:04:48Z</time>
      </trkpt>
      <trkpt lat="59.8807722" lon="17.8369058">
        <ele>27.0543</ele>
        <time>2013-05-01T11:04:49Z</time>
      </trkpt>
      <trkpt lat="59.8808269" lon="17.8369897">
        <ele>27.0543</ele>
        <time>2013-05-01T11:04:50Z</time>
      </trkpt>
      <trkpt lat="59.8808824" lon="17.8370686">
        <ele>27.5349</ele>
        <time>2013-05-01T11:04:51Z</time>
      </trkpt>
      <trkpt lat="59.8809176" lon="17.8371599">
        <ele>27.5349</ele>
        <time>2013-05-01T11:04:52Z</time>
      </trkpt>
      <trkpt lat="59.8809693" lon="17.8372728">
        <ele>27.5349</ele>
        <time>2013-05-01T11:04:53Z</time>
      </trkpt>
      <trkpt lat="59.8810152" lon="17.8373613">
        <ele>27.0543</ele>
        <time>2013-05-01T11:04:54Z</time>
      </trkpt>
      <trkpt lat="59.8810706" lon="17.8374369">
        <ele>27.0543</ele>
        <time>2013-05-01T11:04:55Z</time>
      </trkpt>
      <trkpt lat="59.8811286" lon="17.8375333">
        <ele>27.0543</ele>
        <time>2013-05-01T11:04:56Z</time>
      </trkpt>
      <trkpt lat="59.8811959" lon="17.8376156">
        <ele>27.0543</ele>
        <time>2013-05-01T11:04:57Z</time>
      </trkpt>
      <trkpt lat="59.881263" lon="17.8376985">
        <ele>27.0543</ele>
        <time>2013-05-01T11:04:58Z</time>
      </trkpt>
      <trkpt lat="59.8813295" lon="17.8377849">
        <ele>27.0543</ele>
        <time>2013-05-01T11:04:59Z</time>
      </trkpt>
      <trkpt lat="59.8813936" lon="17.8378698">
        <ele>26.5736</ele>
        <time>2013-05-01T11:05:00Z</time>
      </trkpt>
      <trkpt lat="59.8814571" lon="17.8379483">
        <ele>26.0929</ele>
        <time>2013-05-01T11:05:01Z</time>
      </trkpt>
      <trkpt lat="59.8815151" lon="17.8380341">
        <ele>26.0929</ele>
        <time>2013-05-01T11:05:02Z</time>
      </trkpt>
      <trkpt lat="59.881576" lon="17.8381189">
        <ele>25.1317</ele>
        <time>2013-05-01T11:05:03Z</time>
      </trkpt>
      <trkpt lat="59.8816339" lon="17.838203">
        <ele>24.651</ele>
        <time>2013-05-01T11:05:04Z</time>
      </trkpt>
      <trkpt lat="59.8816867" lon="17.8382818">
        <ele>23.6896</ele>
        <time>2013-05-01T11:05:05Z</time>
      </trkpt>
      <trkpt lat="59.8817417" lon="17.8383616">
        <ele>22.7283</ele>
        <time>2013-05-01T11:05:06Z</time>
      </trkpt>
      <trkpt lat="59.8817991" lon="17.8384438">
        <ele>23.209</ele>
        <time>2013-05-01T11:05:07Z</time>
      </trkpt>
      <trkpt lat="59.8818572" lon="17.8385237">
        <ele>23.6896</ele>
        <time>2013-05-01T11:05:08Z</time>
      </trkpt>
      <trkpt lat="59.8819116" lon="17.8386017">
        <ele>23.209</ele>
        <time>2013-05-01T11:05:09Z</time>
      </trkpt>
      <trkpt lat="59.8819699" lon="17.8386837">
        <ele>23.209</ele>
        <time>2013-05-01T11:05:10Z</time>
      </trkpt>
      <trkpt lat="59.882036" lon="17.8387563">
        <ele>23.6896</ele>
        <time>2013-05-01T11:05:11Z</time>
      </trkpt>
      <trkpt lat="59.882105" lon="17.8388201">
        <ele>24.1703</ele>
        <time>2013-05-01T11:05:12Z</time>
      </trkpt>
      <trkpt lat="59.882175" lon="17.8388733">
        <ele>24.1703</ele>
        <time>2013-05-01T11:05:13Z</time>
      </trkpt>
      <trkpt lat="59.8822427" lon="17.8389189">
        <ele>24.651</ele>
        <time>2013-05-01T11:05:14Z</time>
      </trkpt>
      <trkpt lat="59.8823104" lon="17.838953">
        <ele>25.1317</ele>
        <time>2013-05-01T11:05:15Z</time>
      </trkpt>
      <trkpt lat="59.8823768" lon="17.838978">
        <ele>25.1317</ele>
        <time>2013-05-01T11:05:16Z</time>
      </trkpt>
      <trkpt lat="59.882441" lon="17.8390008">
        <ele>25.1317</ele>
        <time>2013-05-01T11:05:17Z</time>
      </trkpt>
      <trkpt lat="59.8825034" lon="17.8390235">
        <ele>25.6123</ele>
        <time>2013-05-01T11:05:18Z</time>
      </trkpt>
      <trkpt lat="59.8825639" lon="17.8390448">
        <ele>25.6123</ele>
        <time>2013-05-01T11:05:19Z</time>
      </trkpt>
      <trkpt lat="59.8826225" lon="17.8390707">
        <ele>26.0929</ele>
        <time>2013-05-01T11:05:20Z</time>
      </trkpt>
      <trkpt lat="59.88268" lon="17.8390966">
        <ele>26.5736</ele>
        <time>2013-05-01T11:05:21Z</time>
      </trkpt>
      <trkpt lat="59.8827378" lon="17.8391256">
        <ele>26.5736</ele>
        <time>2013-05-01T11:05:22Z</time>
      </trkpt>
      <trkpt lat="59.8827932" lon="17.8391632">
        <ele>26.5736</ele>
        <time>2013-05-01T11:05:23Z</time>
      </trkpt>
      <trkpt lat="59.882843" lon="17.8392086">
        <ele>25.6123</ele>
        <time>2013-05-01T11:05:24Z</time>
      </trkpt>
      <trkpt lat="59.8828964" lon="17.8392672">
        <ele>25.1317</ele>
        <time>2013-05-01T11:05:25Z</time>
      </trkpt>
      <trkpt lat="59.8829523" lon="17.8393318">
        <ele>24.1703</ele>
        <time>2013-05-01T11:05:26Z</time>
      </trkpt>
      <trkpt lat="59.8830105" lon="17.8394028">
        <ele>24.1703</ele>
        <time>2013-05-01T11:05:27Z</time>
      </trkpt>
      <trkpt lat="59.8830704" lon="17.8394809">
        <ele>23.6896</ele>
        <time>2013-05-01T11:05:28Z</time>
      </trkpt>
      <trkpt lat="59.8831333" lon="17.8395633">
        <ele>22.7283</ele>
        <time>2013-05-01T11:05:29Z</time>
      </trkpt>
      <trkpt lat="59.8831985" lon="17.8396483">
        <ele>21.767</ele>
        <time>2013-05-01T11:05:30Z</time>
      </trkpt>
      <trkpt lat="59.8832658" lon="17.8397396">
        <ele>20.8057</ele>
        <time>2013-05-01T11:05:31Z</time>
      </trkpt>
      <trkpt lat="59.8833343" lon="17.839837">
        <ele>19.8444</ele>
        <time>2013-05-01T11:05:32Z</time>
      </trkpt>
      <trkpt lat="59.8834037" lon="17.8399363">
        <ele>19.3638</ele>
        <time>2013-05-01T11:05:33Z</time>
      </trkpt>
      <trkpt lat="59.8834752" lon="17.8400364">
        <ele>18.4023</ele>
        <time>2013-05-01T11:05:34Z</time>
      </trkpt>
      <trkpt lat="59.8835478" lon="17.8401362">
        <ele>17.4412</ele>
        <time>2013-05-01T11:05:35Z</time>
      </trkpt>
      <trkpt lat="59.8836239" lon="17.8402331">
        <ele>16.4797</ele>
        <time>2013-05-01T11:05:36Z</time>
      </trkpt>
      <trkpt lat="59.8836992" lon="17.8403383">
        <ele>15.999</ele>
        <time>2013-05-01T11:05:37Z</time>
      </trkpt>
      <trkpt lat="59.8837769" lon="17.8404389">
        <ele>15.0377</ele>
        <time>2013-05-01T11:05:38Z</time>
      </trkpt>
      <trkpt lat="59.8838559" lon="17.8405423">
        <ele>14.557</ele>
        <time>2013-05-01T11:05:39Z</time>
      </trkpt>
      <trkpt lat="59.8839356" lon="17.8406449">
        <ele>14.557</ele>
        <time>2013-05-01T11:05:40Z</time>
      </trkpt>
      <trkpt lat="59.8840184" lon="17.8407515">
        <ele>15.0377</ele>
        <time>2013-05-01T11:05:41Z</time>
      </trkpt>
      <trkpt lat="59.8841003" lon="17.8408562">
        <ele>15.5184</ele>
        <time>2013-05-01T11:05:42Z</time>
      </trkpt>
      <trkpt lat="59.8841827" lon="17.8409592">
        <ele>15.999</ele>
        <time>2013-05-01T11:05:43Z</time>
      </trkpt>
      <trkpt lat="59.8842659" lon="17.8410562">
        <ele>16.9604</ele>
        <time>2013-05-01T11:05:44Z</time>
      </trkpt>
      <trkpt lat="59.8843485" lon="17.8411453">
        <ele>16.9604</ele>
        <time>2013-05-01T11:05:45Z</time>
      </trkpt>
      <trkpt lat="59.8844318" lon="17.8412273">
        <ele>17.4412</ele>
        <time>2013-05-01T11:05:46Z</time>
      </trkpt>
      <trkpt lat="59.8845174" lon="17.8413002">
        <ele>17.9218</ele>
        <time>2013-05-01T11:05:47Z</time>
      </trkpt>
      <trkpt lat="59.8846059" lon="17.8413641">
        <ele>17.9218</ele>
        <time>2013-05-01T11:05:48Z</time>
      </trkpt>
      <trkpt lat="59.8846969" lon="17.8414184">
        <ele>18.4023</ele>
        <time>2013-05-01T11:05:49Z</time>
      </trkpt>
      <trkpt lat="59.8847888" lon="17.8414618">
        <ele>18.8831</ele>
        <time>2013-05-01T11:05:50Z</time>
      </trkpt>
      <trkpt lat="59.8848823" lon="17.8414928">
        <ele>18.8831</ele>
        <time>2013-05-01T11:05:51Z</time>
      </trkpt>
      <trkpt lat="59.884972" lon="17.8415148">
        <ele>18.8831</ele>
        <time>2013-05-01T11:05:52Z</time>
      </trkpt>
      <trkpt lat="59.8850642" lon="17.8415225">
        <ele>18.8831</ele>
        <time>2013-05-01T11:05:53Z</time>
      </trkpt>
      <trkpt lat="59.8851518" lon="17.8415276">
        <ele>18.8831</ele>
        <time>2013-05-01T11:05:54Z</time>
      </trkpt>
      <trkpt lat="59.8852365" lon="17.8415378">
        <ele>18.8831</ele>
        <time>2013-05-01T11:05:55Z</time>
      </trkpt>
      <trkpt lat="59.8853229" lon="17.841538">
        <ele>18.8831</ele>
        <time>2013-05-01T11:05:56Z</time>
      </trkpt>
      <trkpt lat="59.8854082" lon="17.8415279">
        <ele>18.8831</ele>
        <time>2013-05-01T11:05:57Z</time>
      </trkpt>
      <trkpt lat="59.8854913" lon="17.8415115">
        <ele>19.3638</ele>
        <time>2013-05-01T11:05:58Z</time>
      </trkpt>
      <trkpt lat="59.8855725" lon="17.8415023">
        <ele>19.3638</ele>
        <time>2013-05-01T11:05:59Z</time>
      </trkpt>
      <trkpt lat="59.8856544" lon="17.8414951">
        <ele>19.3638</ele>
        <time>2013-05-01T11:06:00Z</time>
      </trkpt>
      <trkpt lat="59.885736" lon="17.8414913">
        <ele>19.3638</ele>
        <time>2013-05-01T11:06:01Z</time>
      </trkpt>
      <trkpt lat="59.8858176" lon="17.8414875">
        <ele>19.3638</ele>
        <time>2013-05-01T11:06:02Z</time>
      </trkpt>
      <trkpt lat="59.8859009" lon="17.8414779">
        <ele>19.8444</ele>
        <time>2013-05-01T11:06:03Z</time>
      </trkpt>
      <trkpt lat="59.8859853" lon="17.8414576">
        <ele>20.325</ele>
        <time>2013-05-01T11:06:04Z</time>
      </trkpt>
      <trkpt lat="59.8860648" lon="17.8414386">
        <ele>21.767</ele>
        <time>2013-05-01T11:06:05Z</time>
      </trkpt>
      <trkpt lat="59.8861461" lon="17.8414195">
        <ele>22.7283</ele>
        <time>2013-05-01T11:06:06Z</time>
      </trkpt>
      <trkpt lat="59.8862283" lon="17.8413979">
        <ele>23.6896</ele>
        <time>2013-05-01T11:06:07Z</time>
      </trkpt>
      <trkpt lat="59.8863079" lon="17.8413664">
        <ele>24.651</ele>
        <time>2013-05-01T11:06:08Z</time>
      </trkpt>
      <trkpt lat="59.8863884" lon="17.8413237">
        <ele>25.1317</ele>
        <time>2013-05-01T11:06:09Z</time>
      </trkpt>
      <trkpt lat="59.8864676" lon="17.8412842">
        <ele>25.6123</ele>
        <time>2013-05-01T11:06:10Z</time>
      </trkpt>
      <trkpt lat="59.8865469" lon="17.8412397">
        <ele>26.0929</ele>
        <time>2013-05-01T11:06:11Z</time>
      </trkpt>
      <trkpt lat="59.8866288" lon="17.8411987">
        <ele>26.0929</ele>
        <time>2013-05-01T11:06:12Z</time>
      </trkpt>
      <trkpt lat="59.8867107" lon="17.8411659">
        <ele>26.0929</ele>
        <time>2013-05-01T11:06:13Z</time>
      </trkpt>
      <trkpt lat="59.8867941" lon="17.841149">
        <ele>26.0929</ele>
        <time>2013-05-01T11:06:14Z</time>
      </trkpt>
      <trkpt lat="59.8868811" lon="17.8411494">
        <ele>26.0929</ele>
        <time>2013-05-01T11:06:15Z</time>
      </trkpt>
      <trkpt lat="59.8869673" lon="17.841176">
        <ele>25.6123</ele>
        <time>2013-05-01T11:06:16Z</time>
      </trkpt>
      <trkpt lat="59.8870521" lon="17.8412287">
        <ele>25.6123</ele>
        <time>2013-05-01T11:06:17Z</time>
      </trkpt>
      <trkpt lat="59.8871312" lon="17.8413093">
        <ele>26.0929</ele>
        <time>2013-05-01T11:06:18Z</time>
      </trkpt>
      <trkpt lat="59.8872032" lon="17.841406">
        <ele>25.6123</ele>
        <time>2013-05-01T11:06:19Z</time>
      </trkpt>
      <trkpt lat="59.887269" lon="17.8415608">
        <ele>26.0929</ele>
        <time>2013-05-01T11:06:20Z</time>
      </trkpt>
      <trkpt lat="59.8873286" lon="17.8416794">
        <ele>26.5736</ele>
        <time>2013-05-01T11:06:21Z</time>
      </trkpt>
      <trkpt lat="59.8873773" lon="17.8418052">
        <ele>27.0543</ele>
        <time>2013-05-01T11:06:22Z</time>
      </trkpt>
      <trkpt lat="59.8874176" lon="17.8419238">
        <ele>27.0543</ele>
        <time>2013-05-01T11:06:23Z</time>
      </trkpt>
      <trkpt lat="59.8874648" lon="17.8420401">
        <ele>26.5736</ele>
        <time>2013-05-01T11:06:24Z</time>
      </trkpt>
      <trkpt lat="59.8875161" lon="17.8421553">
        <ele>26.5736</ele>
        <time>2013-05-01T11:06:25Z</time>
      </trkpt>
      <trkpt lat="59.8875739" lon="17.8422607">
        <ele>26.0929</ele>
        <time>2013-05-01T11:06:26Z</time>
      </trkpt>
      <trkpt lat="59.8876398" lon="17.8423637">
        <ele>26.5736</ele>
        <time>2013-05-01T11:06:27Z</time>
      </trkpt>
      <trkpt lat="59.8877125" lon="17.8424571">
        <ele>27.0543</ele>
        <time>2013-05-01T11:06:28Z</time>
      </trkpt>
      <trkpt lat="59.887786" lon="17.8425481">
        <ele>27.5349</ele>
        <time>2013-05-01T11:06:29Z</time>
      </trkpt>
      <trkpt lat="59.8878568" lon="17.8426367">
        <ele>27.5349</ele>
        <time>2013-05-01T11:06:30Z</time>
      </trkpt>
      <trkpt lat="59.8879295" lon="17.8427178">
        <ele>28.0155</ele>
        <time>2013-05-01T11:06:31Z</time>
      </trkpt>
      <trkpt lat="59.8880025" lon="17.8427906">
        <ele>28.0155</ele>
        <time>2013-05-01T11:06:32Z</time>
      </trkpt>
      <trkpt lat="59.8880798" lon="17.8428515">
        <ele>28.4962</ele>
        <time>2013-05-01T11:06:33Z</time>
      </trkpt>
      <trkpt lat="59.8881526" lon="17.8429147">
        <ele>28.9769</ele>
        <time>2013-05-01T11:06:34Z</time>
      </trkpt>
      <trkpt lat="59.8882251" lon="17.8429735">
        <ele>29.4575</ele>
        <time>2013-05-01T11:06:35Z</time>
      </trkpt>
      <trkpt lat="59.8882982" lon="17.8430278">
        <ele>29.4575</ele>
        <time>2013-05-01T11:06:36Z</time>
      </trkpt>
      <trkpt lat="59.8883703" lon="17.8430761">
        <ele>29.4575</ele>
        <time>2013-05-01T11:06:37Z</time>
      </trkpt>
      <trkpt lat="59.8884474" lon="17.8431105">
        <ele>29.4575</ele>
        <time>2013-05-01T11:06:38Z</time>
      </trkpt>
      <trkpt lat="59.8885263" lon="17.8431397">
        <ele>29.4575</ele>
        <time>2013-05-01T11:06:39Z</time>
      </trkpt>
      <trkpt lat="59.8886048" lon="17.8431731">
        <ele>29.4575</ele>
        <time>2013-05-01T11:06:40Z</time>
      </trkpt>
      <trkpt lat="59.8886788" lon="17.8432069">
        <ele>29.4575</ele>
        <time>2013-05-01T11:06:41Z</time>
      </trkpt>
      <trkpt lat="59.8887484" lon="17.8432283">
        <ele>29.4575</ele>
        <time>2013-05-01T11:06:42Z</time>
      </trkpt>
      <trkpt lat="59.8888164" lon="17.8432458">
        <ele>29.4575</ele>
        <time>2013-05-01T11:06:43Z</time>
      </trkpt>
      <trkpt lat="59.8888895" lon="17.8432614">
        <ele>28.9769</ele>
        <time>2013-05-01T11:06:44Z</time>
      </trkpt>
      <trkpt lat="59.8889604" lon="17.8432977">
        <ele>28.4962</ele>
        <time>2013-05-01T11:06:45Z</time>
      </trkpt>
      <trkpt lat="59.8890365" lon="17.8433271">
        <ele>28.4962</ele>
        <time>2013-05-01T11:06:46Z</time>
      </trkpt>
      <trkpt lat="59.8891063" lon="17.8434176">
        <ele>27.5349</ele>
        <time>2013-05-01T11:06:47Z</time>
      </trkpt>
      <trkpt lat="59.8891837" lon="17.8434428">
        <ele>27.0543</ele>
        <time>2013-05-01T11:06:48Z</time>
      </trkpt>
      <trkpt lat="59.8892543" lon="17.8434676">
        <ele>27.0543</ele>
        <time>2013-05-01T11:06:49Z</time>
      </trkpt>
      <trkpt lat="59.8893302" lon="17.8434803">
        <ele>26.5736</ele>
        <time>2013-05-01T11:06:50Z</time>
      </trkpt>
      <trkpt lat="59.8894103" lon="17.8434511">
        <ele>26.5736</ele>
        <time>2013-05-01T11:06:51Z</time>
      </trkpt>
      <trkpt lat="59.8894813" lon="17.8434299">
        <ele>27.0543</ele>
        <time>2013-05-01T11:06:52Z</time>
      </trkpt>
      <trkpt lat="59.8895569" lon="17.8433883">
        <ele>28.0155</ele>
        <time>2013-05-01T11:06:53Z</time>
      </trkpt>
      <trkpt lat="59.8896358" lon="17.8433364">
        <ele>29.4575</ele>
        <time>2013-05-01T11:06:54Z</time>
      </trkpt>
      <trkpt lat="59.8897019" lon="17.8432509">
        <ele>29.9381</ele>
        <time>2013-05-01T11:06:55Z</time>
      </trkpt>
      <trkpt lat="59.8897136" lon="17.8431491">
        <ele>30.4188</ele>
        <time>2013-05-01T11:06:56Z</time>
      </trkpt>
      <trkpt lat="59.8897416" lon="17.843049">
        <ele>30.8995</ele>
        <time>2013-05-01T11:06:57Z</time>
      </trkpt>
      <trkpt lat="59.8897668" lon="17.8429536">
        <ele>30.4188</ele>
        <time>2013-05-01T11:06:58Z</time>
      </trkpt>
      <trkpt lat="59.8897946" lon="17.8428521">
        <ele>29.4575</ele>
        <time>2013-05-01T11:06:59Z</time>
      </trkpt>
      <trkpt lat="59.8898138" lon="17.84273">
        <ele>28.9769</ele>
        <time>2013-05-01T11:07:00Z</time>
      </trkpt>
      <trkpt lat="59.889828" lon="17.8425849">
        <ele>28.9769</ele>
        <time>2013-05-01T11:07:01Z</time>
      </trkpt>
      <trkpt lat="59.8898387" lon="17.8423523">
        <ele>29.9381</ele>
        <time>2013-05-01T11:07:02Z</time>
      </trkpt>
      <trkpt lat="59.8898471" lon="17.8422124">
        <ele>28.9769</ele>
        <time>2013-05-01T11:07:03Z</time>
      </trkpt>
      <trkpt lat="59.8898537" lon="17.842083">
        <ele>28.9769</ele>
        <time>2013-05-01T11:07:04Z</time>
      </trkpt>
      <trkpt lat="59.8898662" lon="17.8419766">
        <ele>27.5349</ele>
        <time>2013-05-01T11:07:05Z</time>
      </trkpt>
      <trkpt lat="59.8898791" lon="17.8418587">
        <ele>26.5736</ele>
        <time>2013-05-01T11:07:06Z</time>
      </trkpt>
      <trkpt lat="59.8898855" lon="17.8417338">
        <ele>27.0543</ele>
        <time>2013-05-01T11:07:07Z</time>
      </trkpt>
      <trkpt lat="59.8898962" lon="17.8416089">
        <ele>27.5349</ele>
        <time>2013-05-01T11:07:08Z</time>
      </trkpt>
      <trkpt lat="59.8899151" lon="17.8414974">
        <ele>27.5349</ele>
        <time>2013-05-01T11:07:09Z</time>
      </trkpt>
      <trkpt lat="59.8899393" lon="17.8413905">
        <ele>27.5349</ele>
        <time>2013-05-01T11:07:10Z</time>
      </trkpt>
      <trkpt lat="59.8899654" lon="17.8412863">
        <ele>27.5349</ele>
        <time>2013-05-01T11:07:11Z</time>
      </trkpt>
      <trkpt lat="59.8899938" lon="17.8411832">
        <ele>28.4962</ele>
        <time>2013-05-01T11:07:12Z</time>
      </trkpt>
      <trkpt lat="59.890029" lon="17.841092">
        <ele>27.5349</ele>
        <time>2013-05-01T11:07:13Z</time>
      </trkpt>
      <trkpt lat="59.8900662" lon="17.8409887">
        <ele>28.9769</ele>
        <time>2013-05-01T11:07:14Z</time>
      </trkpt>
      <trkpt lat="59.8901172" lon="17.8409105">
        <ele>29.4575</ele>
        <time>2013-05-01T11:07:15Z</time>
      </trkpt>
      <trkpt lat="59.890178" lon="17.8408682">
        <ele>29.4575</ele>
        <time>2013-05-01T11:07:16Z</time>
      </trkpt>
      <trkpt lat="59.8902424" lon="17.8408692">
        <ele>29.4575</ele>
        <time>2013-05-01T11:07:17Z</time>
      </trkpt>
      <trkpt lat="59.890305" lon="17.8409102">
        <ele>29.4575</ele>
        <time>2013-05-01T11:07:18Z</time>
      </trkpt>
      <trkpt lat="59.8903636" lon="17.8409646">
        <ele>29.9381</ele>
        <time>2013-05-01T11:07:19Z</time>
      </trkpt>
      <trkpt lat="59.8904157" lon="17.8410226">
        <ele>29.9381</ele>
        <time>2013-05-01T11:07:20Z</time>
      </trkpt>
      <trkpt lat="59.8904667" lon="17.8411334">
        <ele>30.4188</ele>
        <time>2013-05-01T11:07:21Z</time>
      </trkpt>
      <trkpt lat="59.8905155" lon="17.841197">
        <ele>30.8995</ele>
        <time>2013-05-01T11:07:22Z</time>
      </trkpt>
      <trkpt lat="59.8905605" lon="17.8412738">
        <ele>30.8995</ele>
        <time>2013-05-01T11:07:23Z</time>
      </trkpt>
      <trkpt lat="59.8906045" lon="17.8413556">
        <ele>31.3801</ele>
        <time>2013-05-01T11:07:24Z</time>
      </trkpt>
      <trkpt lat="59.8906488" lon="17.8414369">
        <ele>31.3801</ele>
        <time>2013-05-01T11:07:25Z</time>
      </trkpt>
      <trkpt lat="59.8906882" lon="17.8415183">
        <ele>31.3801</ele>
        <time>2013-05-01T11:07:26Z</time>
      </trkpt>
      <trkpt lat="59.8907357" lon="17.8415827">
        <ele>31.3801</ele>
        <time>2013-05-01T11:07:27Z</time>
      </trkpt>
      <trkpt lat="59.8907859" lon="17.8416447">
        <ele>31.8607</ele>
        <time>2013-05-01T11:07:28Z</time>
      </trkpt>
      <trkpt lat="59.8908385" lon="17.8417079">
        <ele>31.8607</ele>
        <time>2013-05-01T11:07:29Z</time>
      </trkpt>
      <trkpt lat="59.8908914" lon="17.8417695">
        <ele>31.8607</ele>
        <time>2013-05-01T11:07:30Z</time>
      </trkpt>
      <trkpt lat="59.8909454" lon="17.8418277">
        <ele>31.8607</ele>
        <time>2013-05-01T11:07:31Z</time>
      </trkpt>
      <trkpt lat="59.8910003" lon="17.8418817">
        <ele>31.8607</ele>
        <time>2013-05-01T11:07:32Z</time>
      </trkpt>
      <trkpt lat="59.8910597" lon="17.8419244">
        <ele>31.8607</ele>
        <time>2013-05-01T11:07:33Z</time>
      </trkpt>
      <trkpt lat="59.8911154" lon="17.8419649">
        <ele>31.8607</ele>
        <time>2013-05-01T11:07:34Z</time>
      </trkpt>
      <trkpt lat="59.8911765" lon="17.8420052">
        <ele>32.8223</ele>
        <time>2013-05-01T11:07:35Z</time>
      </trkpt>
      <trkpt lat="59.8912375" lon="17.8420489">
        <ele>32.8223</ele>
        <time>2013-05-01T11:07:36Z</time>
      </trkpt>
      <trkpt lat="59.891298" lon="17.8420895">
        <ele>33.3029</ele>
        <time>2013-05-01T11:07:37Z</time>
      </trkpt>
      <trkpt lat="59.8913601" lon="17.8421273">
        <ele>33.3029</ele>
        <time>2013-05-01T11:07:38Z</time>
      </trkpt>
      <trkpt lat="59.8914244" lon="17.8421555">
        <ele>34.2642</ele>
        <time>2013-05-01T11:07:39Z</time>
      </trkpt>
      <trkpt lat="59.891484" lon="17.8421872">
        <ele>33.7834</ele>
        <time>2013-05-01T11:07:40Z</time>
      </trkpt>
      <trkpt lat="59.8915373" lon="17.8422128">
        <ele>33.3029</ele>
        <time>2013-05-01T11:07:41Z</time>
      </trkpt>
      <trkpt lat="59.8916007" lon="17.8422402">
        <ele>33.3029</ele>
        <time>2013-05-01T11:07:42Z</time>
      </trkpt>
      <trkpt lat="59.8916528" lon="17.8422887">
        <ele>32.8223</ele>
        <time>2013-05-01T11:07:43Z</time>
      </trkpt>
      <trkpt lat="59.8917232" lon="17.8423394">
        <ele>32.8223</ele>
        <time>2013-05-01T11:07:44Z</time>
      </trkpt>
      <trkpt lat="59.8917838" lon="17.8423663">
        <ele>32.3416</ele>
        <time>2013-05-01T11:07:45Z</time>
      </trkpt>
      <trkpt lat="59.8918581" lon="17.8423943">
        <ele>31.8607</ele>
        <time>2013-05-01T11:07:46Z</time>
      </trkpt>
      <trkpt lat="59.8919368" lon="17.8424134">
        <ele>30.8995</ele>
        <time>2013-05-01T11:07:47Z</time>
      </trkpt>
      <trkpt lat="59.8920148" lon="17.8424425">
        <ele>29.9381</ele>
        <time>2013-05-01T11:07:48Z</time>
      </trkpt>
      <trkpt lat="59.8920892" lon="17.8424845">
        <ele>28.9769</ele>
        <time>2013-05-01T11:07:49Z</time>
      </trkpt>
      <trkpt lat="59.8921658" lon="17.8425285">
        <ele>27.5349</ele>
        <time>2013-05-01T11:07:50Z</time>
      </trkpt>
      <trkpt lat="59.8922415" lon="17.8425736">
        <ele>27.0543</ele>
        <time>2013-05-01T11:07:51Z</time>
      </trkpt>
      <trkpt lat="59.892319" lon="17.842603">
        <ele>26.5736</ele>
        <time>2013-05-01T11:07:52Z</time>
      </trkpt>
      <trkpt lat="59.8924034" lon="17.8426357">
        <ele>26.5736</ele>
        <time>2013-05-01T11:07:53Z</time>
      </trkpt>
      <trkpt lat="59.8924859" lon="17.8426652">
        <ele>26.5736</ele>
        <time>2013-05-01T11:07:54Z</time>
      </trkpt>
      <trkpt lat="59.8925646" lon="17.8427096">
        <ele>26.0929</ele>
        <time>2013-05-01T11:07:55Z</time>
      </trkpt>
      <trkpt lat="59.8926497" lon="17.8427468">
        <ele>27.0543</ele>
        <time>2013-05-01T11:07:56Z</time>
      </trkpt>
      <trkpt lat="59.8927331" lon="17.8427921">
        <ele>27.0543</ele>
        <time>2013-05-01T11:07:57Z</time>
      </trkpt>
      <trkpt lat="59.8928154" lon="17.8428398">
        <ele>26.5736</ele>
        <time>2013-05-01T11:07:58Z</time>
      </trkpt>
      <trkpt lat="59.8928998" lon="17.8428859">
        <ele>26.0929</ele>
        <time>2013-05-01T11:07:59Z</time>
      </trkpt>
      <trkpt lat="59.8929814" lon="17.842936">
        <ele>24.1703</ele>
        <time>2013-05-01T11:08:00Z</time>
      </trkpt>
      <trkpt lat="59.8930666" lon="17.8429827">
        <ele>23.6896</ele>
        <time>2013-05-01T11:08:01Z</time>
      </trkpt>
      <trkpt lat="59.8931619" lon="17.8430183">
        <ele>22.7283</ele>
        <time>2013-05-01T11:08:02Z</time>
      </trkpt>
      <trkpt lat="59.8932599" lon="17.8430516">
        <ele>21.767</ele>
        <time>2013-05-01T11:08:03Z</time>
      </trkpt>
      <trkpt lat="59.8933619" lon="17.8430642">
        <ele>22.7283</ele>
        <time>2013-05-01T11:08:04Z</time>
      </trkpt>
      <trkpt lat="59.8934575" lon="17.84308">
        <ele>23.209</ele>
        <time>2013-05-01T11:08:05Z</time>
      </trkpt>
      <trkpt lat="59.8935411" lon="17.8430709">
        <ele>22.7283</ele>
        <time>2013-05-01T11:08:06Z</time>
      </trkpt>
      <trkpt lat="59.8936246" lon="17.8430982">
        <ele>21.767</ele>
        <time>2013-05-01T11:08:07Z</time>
      </trkpt>
      <trkpt lat="59.8937177" lon="17.8431061">
        <ele>22.2476</ele>
        <time>2013-05-01T11:08:08Z</time>
      </trkpt>
      <trkpt lat="59.8938028" lon="17.8431257">
        <ele>21.767</ele>
        <time>2013-05-01T11:08:09Z</time>
      </trkpt>
      <trkpt lat="59.8938835" lon="17.843131">
        <ele>22.2476</ele>
        <time>2013-05-01T11:08:10Z</time>
      </trkpt>
      <trkpt lat="59.8939651" lon="17.8431475">
        <ele>22.7283</ele>
        <time>2013-05-01T11:08:11Z</time>
      </trkpt>
      <trkpt lat="59.8940467" lon="17.8431656">
        <ele>22.7283</ele>
        <time>2013-05-01T11:08:12Z</time>
      </trkpt>
      <trkpt lat="59.8941309" lon="17.8431589">
        <ele>22.7283</ele>
        <time>2013-05-01T11:08:13Z</time>
      </trkpt>
      <trkpt lat="59.8941996" lon="17.8431845">
        <ele>22.2476</ele>
        <time>2013-05-01T11:08:14Z</time>
      </trkpt>
      <trkpt lat="59.8942835" lon="17.8431992">
        <ele>22.7283</ele>
        <time>2013-05-01T11:08:15Z</time>
      </trkpt>
      <trkpt lat="59.8943667" lon="17.8432153">
        <ele>22.7283</ele>
        <time>2013-05-01T11:08:16Z</time>
      </trkpt>
      <trkpt lat="59.8944529" lon="17.8432184">
        <ele>23.209</ele>
        <time>2013-05-01T11:08:17Z</time>
      </trkpt>
      <trkpt lat="59.8945409" lon="17.8432187">
        <ele>22.7283</ele>
        <time>2013-05-01T11:08:18Z</time>
      </trkpt>
      <trkpt lat="59.8946267" lon="17.8432189">
        <ele>22.7283</ele>
        <time>2013-05-01T11:08:19Z</time>
      </trkpt>
      <trkpt lat="59.8947097" lon="17.8432427">
        <ele>21.2864</ele>
        <time>2013-05-01T11:08:20Z</time>
      </trkpt>
      <trkpt lat="59.8947955" lon="17.8432676">
        <ele>21.767</ele>
        <time>2013-05-01T11:08:21Z</time>
      </trkpt>
      <trkpt lat="59.8948825" lon="17.8432679">
        <ele>22.2476</ele>
        <time>2013-05-01T11:08:22Z</time>
      </trkpt>
      <trkpt lat="59.8949569" lon="17.84325">
        <ele>22.2476</ele>
        <time>2013-05-01T11:08:23Z</time>
      </trkpt>
      <trkpt lat="59.8950459" lon="17.8431768">
        <ele>24.651</ele>
        <time>2013-05-01T11:08:24Z</time>
      </trkpt>
      <trkpt lat="59.8951514" lon="17.8430869">
        <ele>25.1317</ele>
        <time>2013-05-01T11:08:25Z</time>
      </trkpt>
      <trkpt lat="59.8952365" lon="17.8430791">
        <ele>24.651</ele>
        <time>2013-05-01T11:08:26Z</time>
      </trkpt>
      <trkpt lat="59.8953313" lon="17.8430229">
        <ele>25.1317</ele>
        <time>2013-05-01T11:08:27Z</time>
      </trkpt>
      <trkpt lat="59.8954091" lon="17.8429908">
        <ele>25.6123</ele>
        <time>2013-05-01T11:08:28Z</time>
      </trkpt>
      <trkpt lat="59.8954856" lon="17.8429511">
        <ele>26.0929</ele>
        <time>2013-05-01T11:08:29Z</time>
      </trkpt>
      <trkpt lat="59.8955649" lon="17.842909">
        <ele>25.6123</ele>
        <time>2013-05-01T11:08:30Z</time>
      </trkpt>
      <trkpt lat="59.8956425" lon="17.8428636">
        <ele>26.0929</ele>
        <time>2013-05-01T11:08:31Z</time>
      </trkpt>
      <trkpt lat="59.8957111" lon="17.8428206">
        <ele>26.0929</ele>
        <time>2013-05-01T11:08:32Z</time>
      </trkpt>
      <trkpt lat="59.8957872" lon="17.8427808">
        <ele>26.5736</ele>
        <time>2013-05-01T11:08:33Z</time>
      </trkpt>
      <trkpt lat="59.8958624" lon="17.8427563">
        <ele>27.0543</ele>
        <time>2013-05-01T11:08:34Z</time>
      </trkpt>
      <trkpt lat="59.8959401" lon="17.8427446">
        <ele>26.0929</ele>
        <time>2013-05-01T11:08:35Z</time>
      </trkpt>
      <trkpt lat="59.8960286" lon="17.842752">
        <ele>25.1317</ele>
        <time>2013-05-01T11:08:36Z</time>
      </trkpt>
      <trkpt lat="59.8961113" lon="17.8428133">
        <ele>24.651</ele>
        <time>2013-05-01T11:08:37Z</time>
      </trkpt>
      <trkpt lat="59.8961674" lon="17.842837">
        <ele>23.6896</ele>
        <time>2013-05-01T11:08:38Z</time>
      </trkpt>
      <trkpt lat="59.8962454" lon="17.8428609">
        <ele>23.6896</ele>
        <time>2013-05-01T11:08:39Z</time>
      </trkpt>
      <trkpt lat="59.8963211" lon="17.8428922">
        <ele>23.6896</ele>
        <time>2013-05-01T11:08:40Z</time>
      </trkpt>
      <trkpt lat="59.8964005" lon="17.8428984">
        <ele>24.1703</ele>
        <time>2013-05-01T11:08:41Z</time>
      </trkpt>
      <trkpt lat="59.8964808" lon="17.8429225">
        <ele>25.1317</ele>
        <time>2013-05-01T11:08:42Z</time>
      </trkpt>
      <trkpt lat="59.8965638" lon="17.8429226">
        <ele>24.651</ele>
        <time>2013-05-01T11:08:43Z</time>
      </trkpt>
      <trkpt lat="59.8966445" lon="17.8429299">
        <ele>25.1317</ele>
        <time>2013-05-01T11:08:44Z</time>
      </trkpt>
      <trkpt lat="59.8967031" lon="17.8429408">
        <ele>26.0929</ele>
        <time>2013-05-01T11:08:45Z</time>
      </trkpt>
      <trkpt lat="59.8967584" lon="17.8429574">
        <ele>26.0929</ele>
        <time>2013-05-01T11:08:46Z</time>
      </trkpt>
      <trkpt lat="59.8968113" lon="17.8429666">
        <ele>25.6123</ele>
        <time>2013-05-01T11:08:47Z</time>
      </trkpt>
      <trkpt lat="59.8968631" lon="17.8429678">
        <ele>25.6123</ele>
        <time>2013-05-01T11:08:48Z</time>
      </trkpt>
      <trkpt lat="59.8969102" lon="17.8429687">
        <ele>26.5736</ele>
        <time>2013-05-01T11:08:49Z</time>
      </trkpt>
      <trkpt lat="59.8969673" lon="17.8429476">
        <ele>27.0543</ele>
        <time>2013-05-01T11:08:50Z</time>
      </trkpt>
      <trkpt lat="59.8970243" lon="17.8429087">
        <ele>26.5736</ele>
        <time>2013-05-01T11:08:51Z</time>
      </trkpt>
      <trkpt lat="59.897076" lon="17.8428745">
        <ele>25.1317</ele>
        <time>2013-05-01T11:08:52Z</time>
      </trkpt>
      <trkpt lat="59.8971278" lon="17.842843">
        <ele>25.6123</ele>
        <time>2013-05-01T11:08:53Z</time>
      </trkpt>
      <trkpt lat="59.8971786" lon="17.8428017">
        <ele>26.0929</ele>
        <time>2013-05-01T11:08:54Z</time>
      </trkpt>
      <trkpt lat="59.8972261" lon="17.8427564">
        <ele>27.0543</ele>
        <time>2013-05-01T11:08:55Z</time>
      </trkpt>
      <trkpt lat="59.897277" lon="17.8427137">
        <ele>26.0929</ele>
        <time>2013-05-01T11:08:56Z</time>
      </trkpt>
      <trkpt lat="59.8973239" lon="17.8426684">
        <ele>24.651</ele>
        <time>2013-05-01T11:08:57Z</time>
      </trkpt>
      <trkpt lat="59.89737" lon="17.8426225">
        <ele>24.651</ele>
        <time>2013-05-01T11:08:58Z</time>
      </trkpt>
      <trkpt lat="59.8974213" lon="17.8425826">
        <ele>24.1703</ele>
        <time>2013-05-01T11:08:59Z</time>
      </trkpt>
      <trkpt lat="59.8974727" lon="17.8425495">
        <ele>24.1703</ele>
        <time>2013-05-01T11:09:00Z</time>
      </trkpt>
      <trkpt lat="59.8975241" lon="17.8425201">
        <ele>25.1317</ele>
        <time>2013-05-01T11:09:01Z</time>
      </trkpt>
      <trkpt lat="59.8975805" lon="17.8424926">
        <ele>26.0929</ele>
        <time>2013-05-01T11:09:02Z</time>
      </trkpt>
      <trkpt lat="59.8976422" lon="17.8424614">
        <ele>27.5349</ele>
        <time>2013-05-01T11:09:03Z</time>
      </trkpt>
      <trkpt lat="59.8977081" lon="17.8424263">
        <ele>27.5349</ele>
        <time>2013-05-01T11:09:04Z</time>
      </trkpt>
      <trkpt lat="59.8977681" lon="17.8424129">
        <ele>28.0155</ele>
        <time>2013-05-01T11:09:05Z</time>
      </trkpt>
      <trkpt lat="59.8978283" lon="17.8423907">
        <ele>28.4962</ele>
        <time>2013-05-01T11:09:06Z</time>
      </trkpt>
      <trkpt lat="59.8978834" lon="17.8423808">
        <ele>28.4962</ele>
        <time>2013-05-01T11:09:07Z</time>
      </trkpt>
      <trkpt lat="59.8979346" lon="17.8423798">
        <ele>28.4962</ele>
        <time>2013-05-01T11:09:08Z</time>
      </trkpt>
      <trkpt lat="59.8979842" lon="17.8423967">
        <ele>28.4962</ele>
        <time>2013-05-01T11:09:09Z</time>
      </trkpt>
      <trkpt lat="59.8980395" lon="17.8424125">
        <ele>28.0155</ele>
        <time>2013-05-01T11:09:10Z</time>
      </trkpt>
      <trkpt lat="59.8980973" lon="17.8424222">
        <ele>27.5349</ele>
        <time>2013-05-01T11:09:11Z</time>
      </trkpt>
      <trkpt lat="59.8981597" lon="17.8424171">
        <ele>26.0929</ele>
        <time>2013-05-01T11:09:12Z</time>
      </trkpt>
      <trkpt lat="59.898226" lon="17.8424036">
        <ele>26.5736</ele>
        <time>2013-05-01T11:09:13Z</time>
      </trkpt>
      <trkpt lat="59.8982976" lon="17.8423716">
        <ele>28.4962</ele>
        <time>2013-05-01T11:09:14Z</time>
      </trkpt>
      <trkpt lat="59.8983669" lon="17.8423384">
        <ele>28.9769</ele>
        <time>2013-05-01T11:09:15Z</time>
      </trkpt>
      <trkpt lat="59.8984327" lon="17.8423138">
        <ele>29.9381</ele>
        <time>2013-05-01T11:09:16Z</time>
      </trkpt>
      <trkpt lat="59.8984982" lon="17.8422891">
        <ele>30.4188</ele>
        <time>2013-05-01T11:09:17Z</time>
      </trkpt>
      <trkpt lat="59.8985583" lon="17.8422694">
        <ele>30.4188</ele>
        <time>2013-05-01T11:09:18Z</time>
      </trkpt>
      <trkpt lat="59.8986217" lon="17.8422333">
        <ele>30.4188</ele>
        <time>2013-05-01T11:09:19Z</time>
      </trkpt>
      <trkpt lat="59.8986822" lon="17.8421986">
        <ele>30.8995</ele>
        <time>2013-05-01T11:09:20Z</time>
      </trkpt>
      <trkpt lat="59.8987355" lon="17.8421653">
        <ele>31.8607</ele>
        <time>2013-05-01T11:09:21Z</time>
      </trkpt>
      <trkpt lat="59.8987897" lon="17.8421353">
        <ele>32.8223</ele>
        <time>2013-05-01T11:09:22Z</time>
      </trkpt>
      <trkpt lat="59.8988485" lon="17.8421035">
        <ele>33.3029</ele>
        <time>2013-05-01T11:09:23Z</time>
      </trkpt>
      <trkpt lat="59.8989046" lon="17.8420741">
        <ele>34.2642</ele>
        <time>2013-05-01T11:09:24Z</time>
      </trkpt>
      <trkpt lat="59.8989603" lon="17.8420553">
        <ele>33.7834</ele>
        <time>2013-05-01T11:09:25Z</time>
      </trkpt>
      <trkpt lat="59.8990143" lon="17.8420302">
        <ele>33.7834</ele>
        <time>2013-05-01T11:09:26Z</time>
      </trkpt>
      <trkpt lat="59.8990637" lon="17.8419955">
        <ele>33.3029</ele>
        <time>2013-05-01T11:09:27Z</time>
      </trkpt>
      <trkpt lat="59.8991088" lon="17.8419514">
        <ele>32.8223</ele>
        <time>2013-05-01T11:09:28Z</time>
      </trkpt>
      <trkpt lat="59.899161" lon="17.8418965">
        <ele>32.8223</ele>
        <time>2013-05-01T11:09:29Z</time>
      </trkpt>
      <trkpt lat="59.8992229" lon="17.8418308">
        <ele>33.3029</ele>
        <time>2013-05-01T11:09:30Z</time>
      </trkpt>
      <trkpt lat="59.8992852" lon="17.8417685">
        <ele>33.3029</ele>
        <time>2013-05-01T11:09:31Z</time>
      </trkpt>
      <trkpt lat="59.8993506" lon="17.841707">
        <ele>33.7834</ele>
        <time>2013-05-01T11:09:32Z</time>
      </trkpt>
      <trkpt lat="59.8994147" lon="17.8416526">
        <ele>34.2642</ele>
        <time>2013-05-01T11:09:33Z</time>
      </trkpt>
      <trkpt lat="59.8994815" lon="17.8416074">
        <ele>36.1868</ele>
        <time>2013-05-01T11:09:34Z</time>
      </trkpt>
      <trkpt lat="59.8995392" lon="17.8415725">
        <ele>35.7061</ele>
        <time>2013-05-01T11:09:35Z</time>
      </trkpt>
      <trkpt lat="59.8995997" lon="17.8415448">
        <ele>35.7061</ele>
        <time>2013-05-01T11:09:36Z</time>
      </trkpt>
      <trkpt lat="59.8996718" lon="17.8415302">
        <ele>36.1868</ele>
        <time>2013-05-01T11:09:37Z</time>
      </trkpt>
      <trkpt lat="59.899753" lon="17.8415114">
        <ele>36.6675</ele>
        <time>2013-05-01T11:09:38Z</time>
      </trkpt>
      <trkpt lat="59.8998612" lon="17.841439">
        <ele>37.1481</ele>
        <time>2013-05-01T11:09:39Z</time>
      </trkpt>
      <trkpt lat="59.8999811" lon="17.8414435">
        <ele>35.2255</ele>
        <time>2013-05-01T11:09:40Z</time>
      </trkpt>
      <trkpt lat="59.9000837" lon="17.8414271">
        <ele>34.2642</ele>
        <time>2013-05-01T11:09:41Z</time>
      </trkpt>
      <trkpt lat="59.90018" lon="17.8414086">
        <ele>34.2642</ele>
        <time>2013-05-01T11:09:42Z</time>
      </trkpt>
      <trkpt lat="59.9002731" lon="17.8414146">
        <ele>33.7834</ele>
        <time>2013-05-01T11:09:43Z</time>
      </trkpt>
      <trkpt lat="59.9003685" lon="17.8414223">
        <ele>33.7834</ele>
        <time>2013-05-01T11:09:44Z</time>
      </trkpt>
      <trkpt lat="59.9004653" lon="17.8414273">
        <ele>33.7834</ele>
        <time>2013-05-01T11:09:45Z</time>
      </trkpt>
      <trkpt lat="59.9005615" lon="17.8414378">
        <ele>33.7834</ele>
        <time>2013-05-01T11:09:46Z</time>
      </trkpt>
      <trkpt lat="59.9006637" lon="17.8414381">
        <ele>34.2642</ele>
        <time>2013-05-01T11:09:47Z</time>
      </trkpt>
      <trkpt lat="59.9007673" lon="17.8414428">
        <ele>34.2642</ele>
        <time>2013-05-01T11:09:48Z</time>
      </trkpt>
      <trkpt lat="59.9008663" lon="17.8414582">
        <ele>34.2642</ele>
        <time>2013-05-01T11:09:49Z</time>
      </trkpt>
      <trkpt lat="59.9009668" lon="17.8414707">
        <ele>34.2642</ele>
        <time>2013-05-01T11:09:50Z</time>
      </trkpt>
      <trkpt lat="59.9010667" lon="17.8414844">
        <ele>34.7449</ele>
        <time>2013-05-01T11:09:51Z</time>
      </trkpt>
      <trkpt lat="59.9011676" lon="17.8415047">
        <ele>35.2255</ele>
        <time>2013-05-01T11:09:52Z</time>
      </trkpt>
      <trkpt lat="59.9012639" lon="17.8415364">
        <ele>35.7061</ele>
        <time>2013-05-01T11:09:53Z</time>
      </trkpt>
      <trkpt lat="59.9013632" lon="17.8415388">
        <ele>36.6675</ele>
        <time>2013-05-01T11:09:54Z</time>
      </trkpt>
      <trkpt lat="59.9014641" lon="17.8415333">
        <ele>36.1868</ele>
        <time>2013-05-01T11:09:55Z</time>
      </trkpt>
      <trkpt lat="59.9015533" lon="17.8415514">
        <ele>36.1868</ele>
        <time>2013-05-01T11:09:56Z</time>
      </trkpt>
      <trkpt lat="59.9016443" lon="17.8415716">
        <ele>35.7061</ele>
        <time>2013-05-01T11:09:57Z</time>
      </trkpt>
      <trkpt lat="59.9017356" lon="17.8415898">
        <ele>35.2255</ele>
        <time>2013-05-01T11:09:58Z</time>
      </trkpt>
      <trkpt lat="59.9018204" lon="17.8416108">
        <ele>34.7449</ele>
        <time>2013-05-01T11:09:59Z</time>
      </trkpt>
      <trkpt lat="59.901909" lon="17.8416218">
        <ele>34.7449</ele>
        <time>2013-05-01T11:10:00Z</time>
      </trkpt>
      <trkpt lat="59.9019924" lon="17.8416376">
        <ele>34.2642</ele>
        <time>2013-05-01T11:10:01Z</time>
      </trkpt>
      <trkpt lat="59.9020722" lon="17.8416105">
        <ele>35.2255</ele>
        <time>2013-05-01T11:10:02Z</time>
      </trkpt>
      <trkpt lat="59.9021457" lon="17.8416">
        <ele>34.7449</ele>
        <time>2013-05-01T11:10:03Z</time>
      </trkpt>
      <trkpt lat="59.902226" lon="17.8415939">
        <ele>34.7449</ele>
        <time>2013-05-01T11:10:04Z</time>
      </trkpt>
      <trkpt lat="59.9023004" lon="17.8415854">
        <ele>35.2255</ele>
        <time>2013-05-01T11:10:05Z</time>
      </trkpt>
      <trkpt lat="59.9023793" lon="17.8415573">
        <ele>35.7061</ele>
        <time>2013-05-01T11:10:06Z</time>
      </trkpt>
      <trkpt lat="59.902458" lon="17.8415193">
        <ele>35.7061</ele>
        <time>2013-05-01T11:10:07Z</time>
      </trkpt>
      <trkpt lat="59.9025408" lon="17.8415058">
        <ele>35.7061</ele>
        <time>2013-05-01T11:10:08Z</time>
      </trkpt>
      <trkpt lat="59.9026218" lon="17.8415027">
        <ele>36.1868</ele>
        <time>2013-05-01T11:10:09Z</time>
      </trkpt>
      <trkpt lat="59.9027152" lon="17.841477">
        <ele>34.7449</ele>
        <time>2013-05-01T11:10:10Z</time>
      </trkpt>
      <trkpt lat="59.902801" lon="17.8414474">
        <ele>34.2642</ele>
        <time>2013-05-01T11:10:11Z</time>
      </trkpt>
      <trkpt lat="59.902888" lon="17.841411">
        <ele>33.7834</ele>
        <time>2013-05-01T11:10:12Z</time>
      </trkpt>
      <trkpt lat="59.9029773" lon="17.8413644">
        <ele>33.7834</ele>
        <time>2013-05-01T11:10:13Z</time>
      </trkpt>
      <trkpt lat="59.9030647" lon="17.8413246">
        <ele>33.7834</ele>
        <time>2013-05-01T11:10:14Z</time>
      </trkpt>
      <trkpt lat="59.903148" lon="17.8413205">
        <ele>32.8223</ele>
        <time>2013-05-01T11:10:15Z</time>
      </trkpt>
      <trkpt lat="59.903232" lon="17.8413435">
        <ele>32.8223</ele>
        <time>2013-05-01T11:10:16Z</time>
      </trkpt>
      <trkpt lat="59.9033162" lon="17.8413841">
        <ele>32.8223</ele>
        <time>2013-05-01T11:10:17Z</time>
      </trkpt>
      <trkpt lat="59.9033905" lon="17.8414525">
        <ele>32.3416</ele>
        <time>2013-05-01T11:10:18Z</time>
      </trkpt>
      <trkpt lat="59.9034574" lon="17.8415354">
        <ele>32.3416</ele>
        <time>2013-05-01T11:10:19Z</time>
      </trkpt>
      <trkpt lat="59.9035173" lon="17.8416222">
        <ele>31.3801</ele>
        <time>2013-05-01T11:10:20Z</time>
      </trkpt>
      <trkpt lat="59.9035831" lon="17.8416994">
        <ele>31.8607</ele>
        <time>2013-05-01T11:10:21Z</time>
      </trkpt>
      <trkpt lat="59.9036519" lon="17.8417785">
        <ele>31.3801</ele>
        <time>2013-05-01T11:10:22Z</time>
      </trkpt>
      <trkpt lat="59.903726" lon="17.8418623">
        <ele>31.3801</ele>
        <time>2013-05-01T11:10:23Z</time>
      </trkpt>
      <trkpt lat="59.9038056" lon="17.8419328">
        <ele>31.3801</ele>
        <time>2013-05-01T11:10:24Z</time>
      </trkpt>
      <trkpt lat="59.9038871" lon="17.8419918">
        <ele>30.4188</ele>
        <time>2013-05-01T11:10:25Z</time>
      </trkpt>
      <trkpt lat="59.9039772" lon="17.8420506">
        <ele>29.4575</ele>
        <time>2013-05-01T11:10:26Z</time>
      </trkpt>
      <trkpt lat="59.9040603" lon="17.8420586">
        <ele>26.5736</ele>
        <time>2013-05-01T11:10:27Z</time>
      </trkpt>
      <trkpt lat="59.9041623" lon="17.8420599">
        <ele>25.6123</ele>
        <time>2013-05-01T11:10:28Z</time>
      </trkpt>
      <trkpt lat="59.9042566" lon="17.8420291">
        <ele>26.0929</ele>
        <time>2013-05-01T11:10:29Z</time>
      </trkpt>
      <trkpt lat="59.9043521" lon="17.8419648">
        <ele>25.6123</ele>
        <time>2013-05-01T11:10:30Z</time>
      </trkpt>
      <trkpt lat="59.9044455" lon="17.8418817">
        <ele>25.6123</ele>
        <time>2013-05-01T11:10:31Z</time>
      </trkpt>
      <trkpt lat="59.9045553" lon="17.8417913">
        <ele>25.1317</ele>
        <time>2013-05-01T11:10:32Z</time>
      </trkpt>
      <trkpt lat="59.9046488" lon="17.8417188">
        <ele>24.651</ele>
        <time>2013-05-01T11:10:33Z</time>
      </trkpt>
      <trkpt lat="59.9047372" lon="17.841654">
        <ele>25.1317</ele>
        <time>2013-05-01T11:10:34Z</time>
      </trkpt>
      <trkpt lat="59.9048181" lon="17.8416088">
        <ele>24.651</ele>
        <time>2013-05-01T11:10:35Z</time>
      </trkpt>
      <trkpt lat="59.9048866" lon="17.841567">
        <ele>24.1703</ele>
        <time>2013-05-01T11:10:36Z</time>
      </trkpt>
      <trkpt lat="59.9049744" lon="17.841535">
        <ele>24.651</ele>
        <time>2013-05-01T11:10:37Z</time>
      </trkpt>
      <trkpt lat="59.9050651" lon="17.8415017">
        <ele>24.651</ele>
        <time>2013-05-01T11:10:38Z</time>
      </trkpt>
      <trkpt lat="59.9051549" lon="17.841466">
        <ele>23.6896</ele>
        <time>2013-05-01T11:10:39Z</time>
      </trkpt>
      <trkpt lat="59.9052493" lon="17.8414358">
        <ele>23.209</ele>
        <time>2013-05-01T11:10:40Z</time>
      </trkpt>
      <trkpt lat="59.9053486" lon="17.8414073">
        <ele>22.7283</ele>
        <time>2013-05-01T11:10:41Z</time>
      </trkpt>
      <trkpt lat="59.9054548" lon="17.8413675">
        <ele>22.7283</ele>
        <time>2013-05-01T11:10:42Z</time>
      </trkpt>
      <trkpt lat="59.9055592" lon="17.8413241">
        <ele>21.2864</ele>
        <time>2013-05-01T11:10:43Z</time>
      </trkpt>
      <trkpt lat="59.9056826" lon="17.8412607">
        <ele>22.2476</ele>
        <time>2013-05-01T11:10:44Z</time>
      </trkpt>
      <trkpt lat="59.905789" lon="17.8411764">
        <ele>21.767</ele>
        <time>2013-05-01T11:10:45Z</time>
      </trkpt>
      <trkpt lat="59.905888" lon="17.8410779">
        <ele>19.8444</ele>
        <time>2013-05-01T11:10:46Z</time>
      </trkpt>
      <trkpt lat="59.9059897" lon="17.8409609">
        <ele>21.2864</ele>
        <time>2013-05-01T11:10:47Z</time>
      </trkpt>
      <trkpt lat="59.906077" lon="17.8408428">
        <ele>20.8057</ele>
        <time>2013-05-01T11:10:48Z</time>
      </trkpt>
      <trkpt lat="59.9061617" lon="17.8407279">
        <ele>21.2864</ele>
        <time>2013-05-01T11:10:49Z</time>
      </trkpt>
      <trkpt lat="59.9062381" lon="17.8406088">
        <ele>21.2864</ele>
        <time>2013-05-01T11:10:50Z</time>
      </trkpt>
      <trkpt lat="59.9063193" lon="17.8404906">
        <ele>22.2476</ele>
        <time>2013-05-01T11:10:51Z</time>
      </trkpt>
      <trkpt lat="59.9064033" lon="17.8403853">
        <ele>22.2476</ele>
        <time>2013-05-01T11:10:52Z</time>
      </trkpt>
      <trkpt lat="59.9064855" lon="17.8402977">
        <ele>22.7283</ele>
        <time>2013-05-01T11:10:53Z</time>
      </trkpt>
      <trkpt lat="59.9065684" lon="17.8402223">
        <ele>22.2476</ele>
        <time>2013-05-01T11:10:54Z</time>
      </trkpt>
      <trkpt lat="59.9066524" lon="17.8401478">
        <ele>21.2864</ele>
        <time>2013-05-01T11:10:55Z</time>
      </trkpt>
      <trkpt lat="59.9067321" lon="17.8400772">
        <ele>21.767</ele>
        <time>2013-05-01T11:10:56Z</time>
      </trkpt>
      <trkpt lat="59.9068115" lon="17.8400141">
        <ele>21.2864</ele>
        <time>2013-05-01T11:10:57Z</time>
      </trkpt>
      <trkpt lat="59.9068905" lon="17.8399534">
        <ele>21.2864</ele>
        <time>2013-05-01T11:10:58Z</time>
      </trkpt>
      <trkpt lat="59.9069653" lon="17.8398984">
        <ele>20.8057</ele>
        <time>2013-05-01T11:10:59Z</time>
      </trkpt>
      <trkpt lat="59.9070403" lon="17.8398424">
        <ele>20.8057</ele>
        <time>2013-05-01T11:11:00Z</time>
      </trkpt>
      <trkpt lat="59.9071181" lon="17.8397893">
        <ele>21.2864</ele>
        <time>2013-05-01T11:11:01Z</time>
      </trkpt>
      <trkpt lat="59.9071954" lon="17.8397367">
        <ele>21.2864</ele>
        <time>2013-05-01T11:11:02Z</time>
      </trkpt>
      <trkpt lat="59.9072699" lon="17.8396828">
        <ele>22.2476</ele>
        <time>2013-05-01T11:11:03Z</time>
      </trkpt>
      <trkpt lat="59.9073399" lon="17.839632">
        <ele>22.7283</ele>
        <time>2013-05-01T11:11:04Z</time>
      </trkpt>
      <trkpt lat="59.9074061" lon="17.8395803">
        <ele>23.209</ele>
        <time>2013-05-01T11:11:05Z</time>
      </trkpt>
      <trkpt lat="59.9074668" lon="17.8395364">
        <ele>23.6896</ele>
        <time>2013-05-01T11:11:06Z</time>
      </trkpt>
      <trkpt lat="59.9075268" lon="17.8394973">
        <ele>24.1703</ele>
        <time>2013-05-01T11:11:07Z</time>
      </trkpt>
      <trkpt lat="59.9075838" lon="17.839442">
        <ele>25.1317</ele>
        <time>2013-05-01T11:11:08Z</time>
      </trkpt>
      <trkpt lat="59.9076392" lon="17.8393846">
        <ele>25.1317</ele>
        <time>2013-05-01T11:11:09Z</time>
      </trkpt>
      <trkpt lat="59.9076927" lon="17.8393209">
        <ele>25.1317</ele>
        <time>2013-05-01T11:11:10Z</time>
      </trkpt>
      <trkpt lat="59.9077494" lon="17.8392561">
        <ele>25.1317</ele>
        <time>2013-05-01T11:11:11Z</time>
      </trkpt>
      <trkpt lat="59.9078069" lon="17.8391934">
        <ele>25.6123</ele>
        <time>2013-05-01T11:11:12Z</time>
      </trkpt>
      <trkpt lat="59.9078657" lon="17.8391193">
        <ele>26.0929</ele>
        <time>2013-05-01T11:11:13Z</time>
      </trkpt>
      <trkpt lat="59.9079309" lon="17.8390389">
        <ele>26.5736</ele>
        <time>2013-05-01T11:11:14Z</time>
      </trkpt>
      <trkpt lat="59.9080003" lon="17.8389589">
        <ele>26.5736</ele>
        <time>2013-05-01T11:11:15Z</time>
      </trkpt>
      <trkpt lat="59.9080727" lon="17.8388826">
        <ele>26.5736</ele>
        <time>2013-05-01T11:11:16Z</time>
      </trkpt>
      <trkpt lat="59.9081425" lon="17.838805">
        <ele>26.5736</ele>
        <time>2013-05-01T11:11:17Z</time>
      </trkpt>
      <trkpt lat="59.9082146" lon="17.8387616">
        <ele>25.6123</ele>
        <time>2013-05-01T11:11:18Z</time>
      </trkpt>
      <trkpt lat="59.90829" lon="17.8387283">
        <ele>25.6123</ele>
        <time>2013-05-01T11:11:19Z</time>
      </trkpt>
      <trkpt lat="59.9083695" lon="17.838706">
        <ele>25.6123</ele>
        <time>2013-05-01T11:11:20Z</time>
      </trkpt>
      <trkpt lat="59.9084498" lon="17.8386997">
        <ele>24.651</ele>
        <time>2013-05-01T11:11:21Z</time>
      </trkpt>
      <trkpt lat="59.9085307" lon="17.8387205">
        <ele>24.651</ele>
        <time>2013-05-01T11:11:22Z</time>
      </trkpt>
      <trkpt lat="59.9086124" lon="17.8387722">
        <ele>24.1703</ele>
        <time>2013-05-01T11:11:23Z</time>
      </trkpt>
      <trkpt lat="59.9086939" lon="17.8388469">
        <ele>24.1703</ele>
        <time>2013-05-01T11:11:24Z</time>
      </trkpt>
      <trkpt lat="59.9087748" lon="17.8389429">
        <ele>23.6896</ele>
        <time>2013-05-01T11:11:25Z</time>
      </trkpt>
      <trkpt lat="59.9088524" lon="17.8390586">
        <ele>23.209</ele>
        <time>2013-05-01T11:11:26Z</time>
      </trkpt>
      <trkpt lat="59.9089234" lon="17.8391935">
        <ele>22.2476</ele>
        <time>2013-05-01T11:11:27Z</time>
      </trkpt>
      <trkpt lat="59.9089888" lon="17.8393509">
        <ele>21.2864</ele>
        <time>2013-05-01T11:11:28Z</time>
      </trkpt>
      <trkpt lat="59.9090504" lon="17.8395193">
        <ele>19.8444</ele>
        <time>2013-05-01T11:11:29Z</time>
      </trkpt>
      <trkpt lat="59.9091108" lon="17.8396938">
        <ele>18.8831</ele>
        <time>2013-05-01T11:11:30Z</time>
      </trkpt>
      <trkpt lat="59.9091668" lon="17.8398887">
        <ele>18.4023</ele>
        <time>2013-05-01T11:11:31Z</time>
      </trkpt>
      <trkpt lat="59.9092255" lon="17.8400646">
        <ele>17.9218</ele>
        <time>2013-05-01T11:11:32Z</time>
      </trkpt>
      <trkpt lat="59.9092865" lon="17.8402386">
        <ele>17.4412</ele>
        <time>2013-05-01T11:11:33Z</time>
      </trkpt>
      <trkpt lat="59.909348" lon="17.8404108">
        <ele>16.9604</ele>
        <time>2013-05-01T11:11:34Z</time>
      </trkpt>
      <trkpt lat="59.9094068" lon="17.8405812">
        <ele>16.9604</ele>
        <time>2013-05-01T11:11:35Z</time>
      </trkpt>
      <trkpt lat="59.9094626" lon="17.8407548">
        <ele>15.999</ele>
        <time>2013-05-01T11:11:36Z</time>
      </trkpt>
      <trkpt lat="59.9095155" lon="17.8409297">
        <ele>15.999</ele>
        <time>2013-05-01T11:11:37Z</time>
      </trkpt>
      <trkpt lat="59.909565" lon="17.8411137">
        <ele>15.5184</ele>
        <time>2013-05-01T11:11:38Z</time>
      </trkpt>
      <trkpt lat="59.9096004" lon="17.8413058">
        <ele>15.0377</ele>
        <time>2013-05-01T11:11:39Z</time>
      </trkpt>
      <trkpt lat="59.9096223" lon="17.8414971">
        <ele>15.0377</ele>
        <time>2013-05-01T11:11:40Z</time>
      </trkpt>
      <trkpt lat="59.9096351" lon="17.8416862">
        <ele>15.0377</ele>
        <time>2013-05-01T11:11:41Z</time>
      </trkpt>
      <trkpt lat="59.9096339" lon="17.8418662">
        <ele>15.5184</ele>
        <time>2013-05-01T11:11:42Z</time>
      </trkpt>
      <trkpt lat="59.9096154" lon="17.8420247">
        <ele>15.999</ele>
        <time>2013-05-01T11:11:43Z</time>
      </trkpt>
      <trkpt lat="59.9096174" lon="17.8422291">
        <ele>16.4797</ele>
        <time>2013-05-01T11:11:44Z</time>
      </trkpt>
      <trkpt lat="59.9096025" lon="17.8424005">
        <ele>17.4412</ele>
        <time>2013-05-01T11:11:45Z</time>
      </trkpt>
      <trkpt lat="59.9095817" lon="17.8425588">
        <ele>18.4023</ele>
        <time>2013-05-01T11:11:46Z</time>
      </trkpt>
      <trkpt lat="59.9095751" lon="17.8427061">
        <ele>18.8831</ele>
        <time>2013-05-01T11:11:47Z</time>
      </trkpt>
      <trkpt lat="59.9095787" lon="17.8428523">
        <ele>19.3638</ele>
        <time>2013-05-01T11:11:48Z</time>
      </trkpt>
      <trkpt lat="59.9096036" lon="17.8429998">
        <ele>19.8444</ele>
        <time>2013-05-01T11:11:49Z</time>
      </trkpt>
      <trkpt lat="59.9096415" lon="17.8430729">
        <ele>19.8444</ele>
        <time>2013-05-01T11:11:50Z</time>
      </trkpt>
      <trkpt lat="59.9096989" lon="17.8431076">
        <ele>20.325</ele>
        <time>2013-05-01T11:11:51Z</time>
      </trkpt>
      <trkpt lat="59.909815" lon="17.8432413">
        <ele>20.325</ele>
        <time>2013-05-01T11:11:53Z</time>
      </trkpt>
      <trkpt lat="59.9098688" lon="17.8432925">
        <ele>20.8057</ele>
        <time>2013-05-01T11:11:54Z</time>
      </trkpt>
      <trkpt lat="59.9099127" lon="17.8433696">
        <ele>20.8057</ele>
        <time>2013-05-01T11:11:55Z</time>
      </trkpt>
      <trkpt lat="59.9099765" lon="17.8434381">
        <ele>20.8057</ele>
        <time>2013-05-01T11:11:56Z</time>
      </trkpt>
      <trkpt lat="59.9100421" lon="17.8435013">
        <ele>20.8057</ele>
        <time>2013-05-01T11:11:57Z</time>
      </trkpt>
      <trkpt lat="59.9101013" lon="17.8435648">
        <ele>20.325</ele>
        <time>2013-05-01T11:11:58Z</time>
      </trkpt>
      <trkpt lat="59.9101671" lon="17.8436188">
        <ele>19.3638</ele>
        <time>2013-05-01T11:11:59Z</time>
      </trkpt>
      <trkpt lat="59.9102262" lon="17.8436653">
        <ele>18.4023</ele>
        <time>2013-05-01T11:12:00Z</time>
      </trkpt>
      <trkpt lat="59.9103038" lon="17.8437329">
        <ele>18.8831</ele>
        <time>2013-05-01T11:12:01Z</time>
      </trkpt>
      <trkpt lat="59.910379" lon="17.843783">
        <ele>18.8831</ele>
        <time>2013-05-01T11:12:02Z</time>
      </trkpt>
      <trkpt lat="59.9104633" lon="17.8438424">
        <ele>18.4023</ele>
        <time>2013-05-01T11:12:03Z</time>
      </trkpt>
      <trkpt lat="59.9105495" lon="17.8438923">
        <ele>18.8831</ele>
        <time>2013-05-01T11:12:04Z</time>
      </trkpt>
      <trkpt lat="59.9106302" lon="17.8439462">
        <ele>18.8831</ele>
        <time>2013-05-01T11:12:05Z</time>
      </trkpt>
      <trkpt lat="59.9107117" lon="17.8440063">
        <ele>18.8831</ele>
        <time>2013-05-01T11:12:06Z</time>
      </trkpt>
      <trkpt lat="59.9107953" lon="17.8440716">
        <ele>17.9218</ele>
        <time>2013-05-01T11:12:07Z</time>
      </trkpt>
      <trkpt lat="59.9108747" lon="17.8441415">
        <ele>17.9218</ele>
        <time>2013-05-01T11:12:08Z</time>
      </trkpt>
      <trkpt lat="59.9109556" lon="17.8442047">
        <ele>17.4412</ele>
        <time>2013-05-01T11:12:09Z</time>
      </trkpt>
      <trkpt lat="59.91104" lon="17.844254">
        <ele>16.9604</ele>
        <time>2013-05-01T11:12:10Z</time>
      </trkpt>
      <trkpt lat="59.9111265" lon="17.8442882">
        <ele>16.4797</ele>
        <time>2013-05-01T11:12:11Z</time>
      </trkpt>
      <trkpt lat="59.911212" lon="17.844314">
        <ele>16.9604</ele>
        <time>2013-05-01T11:12:12Z</time>
      </trkpt>
      <trkpt lat="59.911299" lon="17.8443243">
        <ele>16.4797</ele>
        <time>2013-05-01T11:12:13Z</time>
      </trkpt>
      <trkpt lat="59.9113853" lon="17.8443259">
        <ele>16.4797</ele>
        <time>2013-05-01T11:12:14Z</time>
      </trkpt>
      <trkpt lat="59.9114725" lon="17.8443258">
        <ele>16.4797</ele>
        <time>2013-05-01T11:12:15Z</time>
      </trkpt>
      <trkpt lat="59.9115555" lon="17.8443276">
        <ele>16.4797</ele>
        <time>2013-05-01T11:12:16Z</time>
      </trkpt>
      <trkpt lat="59.9116404" lon="17.8443176">
        <ele>16.4797</ele>
        <time>2013-05-01T11:12:17Z</time>
      </trkpt>
      <trkpt lat="59.9117243" lon="17.8442995">
        <ele>16.9604</ele>
        <time>2013-05-01T11:12:18Z</time>
      </trkpt>
      <trkpt lat="59.9118077" lon="17.8442748">
        <ele>17.4412</ele>
        <time>2013-05-01T11:12:19Z</time>
      </trkpt>
      <trkpt lat="59.9118911" lon="17.8442432">
        <ele>17.9218</ele>
        <time>2013-05-01T11:12:20Z</time>
      </trkpt>
      <trkpt lat="59.9119725" lon="17.8442053">
        <ele>17.9218</ele>
        <time>2013-05-01T11:12:21Z</time>
      </trkpt>
      <trkpt lat="59.9120525" lon="17.8441549">
        <ele>17.9218</ele>
        <time>2013-05-01T11:12:22Z</time>
      </trkpt>
      <trkpt lat="59.9121318" lon="17.8440871">
        <ele>17.9218</ele>
        <time>2013-05-01T11:12:23Z</time>
      </trkpt>
      <trkpt lat="59.9122069" lon="17.8440141">
        <ele>17.9218</ele>
        <time>2013-05-01T11:12:24Z</time>
      </trkpt>
      <trkpt lat="59.9122805" lon="17.8439339">
        <ele>18.4023</ele>
        <time>2013-05-01T11:12:25Z</time>
      </trkpt>
      <trkpt lat="59.9123489" lon="17.8438606">
        <ele>18.8831</ele>
        <time>2013-05-01T11:12:26Z</time>
      </trkpt>
      <trkpt lat="59.9124164" lon="17.8437855">
        <ele>18.8831</ele>
        <time>2013-05-01T11:12:27Z</time>
      </trkpt>
      <trkpt lat="59.9124814" lon="17.843712">
        <ele>18.8831</ele>
        <time>2013-05-01T11:12:28Z</time>
      </trkpt>
      <trkpt lat="59.9125465" lon="17.8436419">
        <ele>18.8831</ele>
        <time>2013-05-01T11:12:29Z</time>
      </trkpt>
      <trkpt lat="59.9126121" lon="17.8435726">
        <ele>18.8831</ele>
        <time>2013-05-01T11:12:30Z</time>
      </trkpt>
      <trkpt lat="59.912679" lon="17.8435115">
        <ele>18.4023</ele>
        <time>2013-05-01T11:12:31Z</time>
      </trkpt>
      <trkpt lat="59.9127518" lon="17.843455">
        <ele>18.8831</ele>
        <time>2013-05-01T11:12:32Z</time>
      </trkpt>
      <trkpt lat="59.9128287" lon="17.8434069">
        <ele>18.4023</ele>
        <time>2013-05-01T11:12:33Z</time>
      </trkpt>
      <trkpt lat="59.9129078" lon="17.8433701">
        <ele>17.9218</ele>
        <time>2013-05-01T11:12:34Z</time>
      </trkpt>
      <trkpt lat="59.9129887" lon="17.8433355">
        <ele>17.4412</ele>
        <time>2013-05-01T11:12:35Z</time>
      </trkpt>
      <trkpt lat="59.9130726" lon="17.843307">
        <ele>16.9604</ele>
        <time>2013-05-01T11:12:36Z</time>
      </trkpt>
      <trkpt lat="59.9131588" lon="17.8432816">
        <ele>16.9604</ele>
        <time>2013-05-01T11:12:37Z</time>
      </trkpt>
      <trkpt lat="59.9132455" lon="17.8432588">
        <ele>16.9604</ele>
        <time>2013-05-01T11:12:38Z</time>
      </trkpt>
      <trkpt lat="59.9133321" lon="17.8432345">
        <ele>16.9604</ele>
        <time>2013-05-01T11:12:39Z</time>
      </trkpt>
      <trkpt lat="59.9134208" lon="17.8431976">
        <ele>16.9604</ele>
        <time>2013-05-01T11:12:40Z</time>
      </trkpt>
      <trkpt lat="59.913532" lon="17.843166">
        <ele>18.4023</ele>
        <time>2013-05-01T11:12:41Z</time>
      </trkpt>
      <trkpt lat="59.9136212" lon="17.843121">
        <ele>18.4023</ele>
        <time>2013-05-01T11:12:42Z</time>
      </trkpt>
      <trkpt lat="59.9136996" lon="17.8430651">
        <ele>18.4023</ele>
        <time>2013-05-01T11:12:43Z</time>
      </trkpt>
      <trkpt lat="59.9137751" lon="17.8430025">
        <ele>18.4023</ele>
        <time>2013-05-01T11:12:44Z</time>
      </trkpt>
      <trkpt lat="59.9138496" lon="17.8429347">
        <ele>18.4023</ele>
        <time>2013-05-01T11:12:45Z</time>
      </trkpt>
      <trkpt lat="59.9139235" lon="17.8428661">
        <ele>18.4023</ele>
        <time>2013-05-01T11:12:46Z</time>
      </trkpt>
      <trkpt lat="59.9139974" lon="17.8427971">
        <ele>18.4023</ele>
        <time>2013-05-01T11:12:47Z</time>
      </trkpt>
      <trkpt lat="59.9140709" lon="17.8427258">
        <ele>18.4023</ele>
        <time>2013-05-01T11:12:48Z</time>
      </trkpt>
      <trkpt lat="59.9141444" lon="17.8426513">
        <ele>18.4023</ele>
        <time>2013-05-01T11:12:49Z</time>
      </trkpt>
      <trkpt lat="59.9142181" lon="17.8425751">
        <ele>18.4023</ele>
        <time>2013-05-01T11:12:50Z</time>
      </trkpt>
      <trkpt lat="59.9142905" lon="17.8424923">
        <ele>18.4023</ele>
        <time>2013-05-01T11:12:51Z</time>
      </trkpt>
      <trkpt lat="59.9143599" lon="17.8424042">
        <ele>18.4023</ele>
        <time>2013-05-01T11:12:52Z</time>
      </trkpt>
      <trkpt lat="59.9144294" lon="17.8423172">
        <ele>18.4023</ele>
        <time>2013-05-01T11:12:53Z</time>
      </trkpt>
      <trkpt lat="59.9144993" lon="17.8422326">
        <ele>18.8831</ele>
        <time>2013-05-01T11:12:54Z</time>
      </trkpt>
      <trkpt lat="59.9145701" lon="17.8421503">
        <ele>18.8831</ele>
        <time>2013-05-01T11:12:55Z</time>
      </trkpt>
      <trkpt lat="59.9146421" lon="17.8420708">
        <ele>18.8831</ele>
        <time>2013-05-01T11:12:56Z</time>
      </trkpt>
      <trkpt lat="59.9147156" lon="17.8419995">
        <ele>18.8831</ele>
        <time>2013-05-01T11:12:57Z</time>
      </trkpt>
      <trkpt lat="59.914791" lon="17.84194">
        <ele>18.8831</ele>
        <time>2013-05-01T11:12:58Z</time>
      </trkpt>
      <trkpt lat="59.9148684" lon="17.8418881">
        <ele>18.8831</ele>
        <time>2013-05-01T11:12:59Z</time>
      </trkpt>
      <trkpt lat="59.9149457" lon="17.8418439">
        <ele>18.8831</ele>
        <time>2013-05-01T11:13:00Z</time>
      </trkpt>
      <trkpt lat="59.915024" lon="17.8418056">
        <ele>18.4023</ele>
        <time>2013-05-01T11:13:01Z</time>
      </trkpt>
      <trkpt lat="59.9151048" lon="17.8417795">
        <ele>18.4023</ele>
        <time>2013-05-01T11:13:02Z</time>
      </trkpt>
      <trkpt lat="59.9151835" lon="17.8417643">
        <ele>18.4023</ele>
        <time>2013-05-01T11:13:03Z</time>
      </trkpt>
      <trkpt lat="59.9152602" lon="17.8417602">
        <ele>18.4023</ele>
        <time>2013-05-01T11:13:04Z</time>
      </trkpt>
      <trkpt lat="59.9153377" lon="17.8417597">
        <ele>18.4023</ele>
        <time>2013-05-01T11:13:05Z</time>
      </trkpt>
      <trkpt lat="59.9154135" lon="17.841768">
        <ele>18.4023</ele>
        <time>2013-05-01T11:13:06Z</time>
      </trkpt>
      <trkpt lat="59.9154911" lon="17.8417789">
        <ele>18.4023</ele>
        <time>2013-05-01T11:13:07Z</time>
      </trkpt>
      <trkpt lat="59.9155684" lon="17.8417918">
        <ele>18.4023</ele>
        <time>2013-05-01T11:13:08Z</time>
      </trkpt>
      <trkpt lat="59.9156462" lon="17.8418043">
        <ele>18.8831</ele>
        <time>2013-05-01T11:13:09Z</time>
      </trkpt>
      <trkpt lat="59.9157226" lon="17.8418197">
        <ele>18.4023</ele>
        <time>2013-05-01T11:13:10Z</time>
      </trkpt>
      <trkpt lat="59.9157982" lon="17.8418302">
        <ele>18.4023</ele>
        <time>2013-05-01T11:13:11Z</time>
      </trkpt>
      <trkpt lat="59.9158735" lon="17.8418343">
        <ele>18.8831</ele>
        <time>2013-05-01T11:13:12Z</time>
      </trkpt>
      <trkpt lat="59.9159476" lon="17.8418379">
        <ele>18.8831</ele>
        <time>2013-05-01T11:13:13Z</time>
      </trkpt>
      <trkpt lat="59.9160218" lon="17.8418498">
        <ele>18.8831</ele>
        <time>2013-05-01T11:13:14Z</time>
      </trkpt>
      <trkpt lat="59.9160937" lon="17.8418808">
        <ele>18.8831</ele>
        <time>2013-05-01T11:13:15Z</time>
      </trkpt>
      <trkpt lat="59.916163" lon="17.8419266">
        <ele>19.3638</ele>
        <time>2013-05-01T11:13:16Z</time>
      </trkpt>
      <trkpt lat="59.916228" lon="17.8419905">
        <ele>19.8444</ele>
        <time>2013-05-01T11:13:17Z</time>
      </trkpt>
      <trkpt lat="59.9162885" lon="17.8420726">
        <ele>20.325</ele>
        <time>2013-05-01T11:13:18Z</time>
      </trkpt>
      <trkpt lat="59.9163432" lon="17.8421575">
        <ele>20.8057</ele>
        <time>2013-05-01T11:13:19Z</time>
      </trkpt>
      <trkpt lat="59.9163941" lon="17.8422466">
        <ele>20.8057</ele>
        <time>2013-05-01T11:13:20Z</time>
      </trkpt>
      <trkpt lat="59.9164432" lon="17.8423353">
        <ele>21.2864</ele>
        <time>2013-05-01T11:13:21Z</time>
      </trkpt>
      <trkpt lat="59.9164936" lon="17.8424186">
        <ele>21.2864</ele>
        <time>2013-05-01T11:13:22Z</time>
      </trkpt>
      <trkpt lat="59.9165453" lon="17.8424949">
        <ele>21.767</ele>
        <time>2013-05-01T11:13:23Z</time>
      </trkpt>
      <trkpt lat="59.9165949" lon="17.8425745">
        <ele>21.767</ele>
        <time>2013-05-01T11:13:24Z</time>
      </trkpt>
      <trkpt lat="59.9166438" lon="17.8426533">
        <ele>21.767</ele>
        <time>2013-05-01T11:13:25Z</time>
      </trkpt>
      <trkpt lat="59.9166931" lon="17.8427314">
        <ele>21.2864</ele>
        <time>2013-05-01T11:13:26Z</time>
      </trkpt>
      <trkpt lat="59.9167401" lon="17.842803">
        <ele>20.8057</ele>
        <time>2013-05-01T11:13:27Z</time>
      </trkpt>
      <trkpt lat="59.9167885" lon="17.842859">
        <ele>21.2864</ele>
        <time>2013-05-01T11:13:28Z</time>
      </trkpt>
      <trkpt lat="59.9168339" lon="17.8429195">
        <ele>20.8057</ele>
        <time>2013-05-01T11:13:29Z</time>
      </trkpt>
      <trkpt lat="59.9168785" lon="17.8429751">
        <ele>20.325</ele>
        <time>2013-05-01T11:13:30Z</time>
      </trkpt>
      <trkpt lat="59.9169247" lon="17.8430174">
        <ele>20.325</ele>
        <time>2013-05-01T11:13:31Z</time>
      </trkpt>
      <trkpt lat="59.9169737" lon="17.8430405">
        <ele>20.325</ele>
        <time>2013-05-01T11:13:32Z</time>
      </trkpt>
      <trkpt lat="59.9170261" lon="17.8430367">
        <ele>20.8057</ele>
        <time>2013-05-01T11:13:33Z</time>
      </trkpt>
      <trkpt lat="59.9170785" lon="17.8430147">
        <ele>20.8057</ele>
        <time>2013-05-01T11:13:34Z</time>
      </trkpt>
      <trkpt lat="59.9171305" lon="17.8429738">
        <ele>20.8057</ele>
        <time>2013-05-01T11:13:35Z</time>
      </trkpt>
      <trkpt lat="59.9171809" lon="17.8429245">
        <ele>21.2864</ele>
        <time>2013-05-01T11:13:36Z</time>
      </trkpt>
      <trkpt lat="59.9172333" lon="17.8428796">
        <ele>21.2864</ele>
        <time>2013-05-01T11:13:37Z</time>
      </trkpt>
      <trkpt lat="59.9172876" lon="17.842844">
        <ele>21.2864</ele>
        <time>2013-05-01T11:13:38Z</time>
      </trkpt>
      <trkpt lat="59.9173426" lon="17.8428066">
        <ele>21.767</ele>
        <time>2013-05-01T11:13:39Z</time>
      </trkpt>
      <trkpt lat="59.9173981" lon="17.8427672">
        <ele>21.767</ele>
        <time>2013-05-01T11:13:40Z</time>
      </trkpt>
      <trkpt lat="59.917455" lon="17.8427303">
        <ele>22.2476</ele>
        <time>2013-05-01T11:13:41Z</time>
      </trkpt>
      <trkpt lat="59.9175121" lon="17.8426937">
        <ele>22.7283</ele>
        <time>2013-05-01T11:13:42Z</time>
      </trkpt>
      <trkpt lat="59.9175669" lon="17.842648">
        <ele>22.7283</ele>
        <time>2013-05-01T11:13:43Z</time>
      </trkpt>
      <trkpt lat="59.917619" lon="17.8425948">
        <ele>23.209</ele>
        <time>2013-05-01T11:13:44Z</time>
      </trkpt>
      <trkpt lat="59.9176699" lon="17.8425412">
        <ele>23.209</ele>
        <time>2013-05-01T11:13:45Z</time>
      </trkpt>
      <trkpt lat="59.9177195" lon="17.8424911">
        <ele>23.209</ele>
        <time>2013-05-01T11:13:46Z</time>
      </trkpt>
      <trkpt lat="59.9177714" lon="17.8424429">
        <ele>22.7283</ele>
        <time>2013-05-01T11:13:47Z</time>
      </trkpt>
      <trkpt lat="59.9178243" lon="17.8423916">
        <ele>22.7283</ele>
        <time>2013-05-01T11:13:48Z</time>
      </trkpt>
      <trkpt lat="59.9178789" lon="17.8423378">
        <ele>23.209</ele>
        <time>2013-05-01T11:13:49Z</time>
      </trkpt>
      <trkpt lat="59.9179352" lon="17.8422813">
        <ele>22.7283</ele>
        <time>2013-05-01T11:13:50Z</time>
      </trkpt>
      <trkpt lat="59.9179921" lon="17.8422213">
        <ele>22.7283</ele>
        <time>2013-05-01T11:13:51Z</time>
      </trkpt>
      <trkpt lat="59.9180497" lon="17.8421586">
        <ele>22.7283</ele>
        <time>2013-05-01T11:13:52Z</time>
      </trkpt>
      <trkpt lat="59.9181086" lon="17.8420943">
        <ele>22.7283</ele>
        <time>2013-05-01T11:13:53Z</time>
      </trkpt>
      <trkpt lat="59.9181697" lon="17.8420264">
        <ele>23.209</ele>
        <time>2013-05-01T11:13:54Z</time>
      </trkpt>
      <trkpt lat="59.918232" lon="17.8419592">
        <ele>23.209</ele>
        <time>2013-05-01T11:13:55Z</time>
      </trkpt>
      <trkpt lat="59.9182956" lon="17.8418947">
        <ele>23.209</ele>
        <time>2013-05-01T11:13:56Z</time>
      </trkpt>
      <trkpt lat="59.9183603" lon="17.8418313">
        <ele>22.7283</ele>
        <time>2013-05-01T11:13:57Z</time>
      </trkpt>
      <trkpt lat="59.9184246" lon="17.84177">
        <ele>22.7283</ele>
        <time>2013-05-01T11:13:58Z</time>
      </trkpt>
      <trkpt lat="59.9184894" lon="17.8417098">
        <ele>22.7283</ele>
        <time>2013-05-01T11:13:59Z</time>
      </trkpt>
      <trkpt lat="59.9185558" lon="17.8416487">
        <ele>22.7283</ele>
        <time>2013-05-01T11:14:00Z</time>
      </trkpt>
      <trkpt lat="59.9186232" lon="17.8415891">
        <ele>23.209</ele>
        <time>2013-05-01T11:14:01Z</time>
      </trkpt>
      <trkpt lat="59.9186914" lon="17.8415327">
        <ele>23.209</ele>
        <time>2013-05-01T11:14:02Z</time>
      </trkpt>
      <trkpt lat="59.9187594" lon="17.8414794">
        <ele>23.209</ele>
        <time>2013-05-01T11:14:03Z</time>
      </trkpt>
      <trkpt lat="59.9188266" lon="17.8414271">
        <ele>23.209</ele>
        <time>2013-05-01T11:14:04Z</time>
      </trkpt>
      <trkpt lat="59.9188934" lon="17.8413772">
        <ele>23.209</ele>
        <time>2013-05-01T11:14:05Z</time>
      </trkpt>
      <trkpt lat="59.918961" lon="17.841328">
        <ele>23.6896</ele>
        <time>2013-05-01T11:14:06Z</time>
      </trkpt>
      <trkpt lat="59.9190285" lon="17.8412768">
        <ele>23.6896</ele>
        <time>2013-05-01T11:14:07Z</time>
      </trkpt>
      <trkpt lat="59.919096" lon="17.8412276">
        <ele>23.6896</ele>
        <time>2013-05-01T11:14:08Z</time>
      </trkpt>
      <trkpt lat="59.9191643" lon="17.8411806">
        <ele>23.6896</ele>
        <time>2013-05-01T11:14:09Z</time>
      </trkpt>
      <trkpt lat="59.9192323" lon="17.8411334">
        <ele>24.1703</ele>
        <time>2013-05-01T11:14:10Z</time>
      </trkpt>
      <trkpt lat="59.9193005" lon="17.8410873">
        <ele>24.1703</ele>
        <time>2013-05-01T11:14:11Z</time>
      </trkpt>
      <trkpt lat="59.9193684" lon="17.8410412">
        <ele>24.1703</ele>
        <time>2013-05-01T11:14:12Z</time>
      </trkpt>
      <trkpt lat="59.919437" lon="17.840993">
        <ele>24.651</ele>
        <time>2013-05-01T11:14:13Z</time>
      </trkpt>
      <trkpt lat="59.9195052" lon="17.8409483">
        <ele>24.651</ele>
        <time>2013-05-01T11:14:14Z</time>
      </trkpt>
      <trkpt lat="59.919574" lon="17.8409065">
        <ele>25.1317</ele>
        <time>2013-05-01T11:14:15Z</time>
      </trkpt>
      <trkpt lat="59.9196434" lon="17.8408672">
        <ele>25.1317</ele>
        <time>2013-05-01T11:14:16Z</time>
      </trkpt>
      <trkpt lat="59.9197139" lon="17.8408273">
        <ele>25.1317</ele>
        <time>2013-05-01T11:14:17Z</time>
      </trkpt>
      <trkpt lat="59.9197823" lon="17.8407965">
        <ele>25.1317</ele>
        <time>2013-05-01T11:14:18Z</time>
      </trkpt>
      <trkpt lat="59.9198499" lon="17.8407718">
        <ele>25.6123</ele>
        <time>2013-05-01T11:14:19Z</time>
      </trkpt>
      <trkpt lat="59.9199171" lon="17.8407568">
        <ele>25.6123</ele>
        <time>2013-05-01T11:14:20Z</time>
      </trkpt>
      <trkpt lat="59.9199844" lon="17.8407494">
        <ele>25.1317</ele>
        <time>2013-05-01T11:14:21Z</time>
      </trkpt>
      <trkpt lat="59.9200513" lon="17.840748">
        <ele>25.1317</ele>
        <time>2013-05-01T11:14:22Z</time>
      </trkpt>
      <trkpt lat="59.9201179" lon="17.8407505">
        <ele>25.6123</ele>
        <time>2013-05-01T11:14:23Z</time>
      </trkpt>
      <trkpt lat="59.9201844" lon="17.8407512">
        <ele>25.1317</ele>
        <time>2013-05-01T11:14:24Z</time>
      </trkpt>
      <trkpt lat="59.9202501" lon="17.8407475">
        <ele>24.651</ele>
        <time>2013-05-01T11:14:25Z</time>
      </trkpt>
      <trkpt lat="59.9203129" lon="17.8407447">
        <ele>25.1317</ele>
        <time>2013-05-01T11:14:26Z</time>
      </trkpt>
      <trkpt lat="59.9203756" lon="17.8407452">
        <ele>24.651</ele>
        <time>2013-05-01T11:14:27Z</time>
      </trkpt>
      <trkpt lat="59.9204415" lon="17.8407438">
        <ele>23.209</ele>
        <time>2013-05-01T11:14:28Z</time>
      </trkpt>
      <trkpt lat="59.9205069" lon="17.8407435">
        <ele>22.7283</ele>
        <time>2013-05-01T11:14:29Z</time>
      </trkpt>
      <trkpt lat="59.9205745" lon="17.8407392">
        <ele>21.767</ele>
        <time>2013-05-01T11:14:30Z</time>
      </trkpt>
      <trkpt lat="59.9206421" lon="17.8407362">
        <ele>20.8057</ele>
        <time>2013-05-01T11:14:31Z</time>
      </trkpt>
      <trkpt lat="59.9207112" lon="17.8407308">
        <ele>20.8057</ele>
        <time>2013-05-01T11:14:32Z</time>
      </trkpt>
      <trkpt lat="59.9207797" lon="17.8407292">
        <ele>20.325</ele>
        <time>2013-05-01T11:14:33Z</time>
      </trkpt>
      <trkpt lat="59.9208473" lon="17.8407283">
        <ele>20.325</ele>
        <time>2013-05-01T11:14:34Z</time>
      </trkpt>
      <trkpt lat="59.9209154" lon="17.8407247">
        <ele>20.325</ele>
        <time>2013-05-01T11:14:35Z</time>
      </trkpt>
      <trkpt lat="59.9209843" lon="17.840721">
        <ele>20.325</ele>
        <time>2013-05-01T11:14:36Z</time>
      </trkpt>
      <trkpt lat="59.9210545" lon="17.8407193">
        <ele>20.325</ele>
        <time>2013-05-01T11:14:37Z</time>
      </trkpt>
      <trkpt lat="59.9211247" lon="17.8407184">
        <ele>20.325</ele>
        <time>2013-05-01T11:14:38Z</time>
      </trkpt>
      <trkpt lat="59.9211961" lon="17.8407154">
        <ele>20.325</ele>
        <time>2013-05-01T11:14:39Z</time>
      </trkpt>
      <trkpt lat="59.9212677" lon="17.8407113">
        <ele>20.8057</ele>
        <time>2013-05-01T11:14:40Z</time>
      </trkpt>
      <trkpt lat="59.9213394" lon="17.8407036">
        <ele>20.8057</ele>
        <time>2013-05-01T11:14:41Z</time>
      </trkpt>
      <trkpt lat="59.9214106" lon="17.8406938">
        <ele>20.8057</ele>
        <time>2013-05-01T11:14:42Z</time>
      </trkpt>
      <trkpt lat="59.9214819" lon="17.840682">
        <ele>21.2864</ele>
        <time>2013-05-01T11:14:43Z</time>
      </trkpt>
      <trkpt lat="59.921553" lon="17.8406675">
        <ele>21.2864</ele>
        <time>2013-05-01T11:14:44Z</time>
      </trkpt>
      <trkpt lat="59.9216241" lon="17.8406516">
        <ele>21.2864</ele>
        <time>2013-05-01T11:14:45Z</time>
      </trkpt>
      <trkpt lat="59.9216944" lon="17.840635">
        <ele>21.2864</ele>
        <time>2013-05-01T11:14:46Z</time>
      </trkpt>
      <trkpt lat="59.9217639" lon="17.8406186">
        <ele>21.767</ele>
        <time>2013-05-01T11:14:47Z</time>
      </trkpt>
      <trkpt lat="59.9218327" lon="17.8406014">
        <ele>21.767</ele>
        <time>2013-05-01T11:14:48Z</time>
      </trkpt>
      <trkpt lat="59.9219007" lon="17.8405832">
        <ele>22.2476</ele>
        <time>2013-05-01T11:14:49Z</time>
      </trkpt>
      <trkpt lat="59.9219682" lon="17.8405641">
        <ele>22.2476</ele>
        <time>2013-05-01T11:14:50Z</time>
      </trkpt>
      <trkpt lat="59.9220353" lon="17.840544">
        <ele>22.7283</ele>
        <time>2013-05-01T11:14:51Z</time>
      </trkpt>
      <trkpt lat="59.9221035" lon="17.8405253">
        <ele>22.7283</ele>
        <time>2013-05-01T11:14:52Z</time>
      </trkpt>
      <trkpt lat="59.9221716" lon="17.8405061">
        <ele>23.209</ele>
        <time>2013-05-01T11:14:53Z</time>
      </trkpt>
      <trkpt lat="59.9222393" lon="17.8404833">
        <ele>23.6896</ele>
        <time>2013-05-01T11:14:54Z</time>
      </trkpt>
      <trkpt lat="59.9223062" lon="17.8404593">
        <ele>23.6896</ele>
        <time>2013-05-01T11:14:55Z</time>
      </trkpt>
      <trkpt lat="59.922373" lon="17.8404332">
        <ele>24.1703</ele>
        <time>2013-05-01T11:14:56Z</time>
      </trkpt>
      <trkpt lat="59.9224394" lon="17.8404059">
        <ele>24.1703</ele>
        <time>2013-05-01T11:14:57Z</time>
      </trkpt>
      <trkpt lat="59.9225056" lon="17.8403772">
        <ele>24.1703</ele>
        <time>2013-05-01T11:14:58Z</time>
      </trkpt>
      <trkpt lat="59.9225709" lon="17.8403466">
        <ele>24.651</ele>
        <time>2013-05-01T11:14:59Z</time>
      </trkpt>
      <trkpt lat="59.9226355" lon="17.8403128">
        <ele>24.651</ele>
        <time>2013-05-01T11:15:00Z</time>
      </trkpt>
      <trkpt lat="59.9226994" lon="17.8402776">
        <ele>24.651</ele>
        <time>2013-05-01T11:15:01Z</time>
      </trkpt>
      <trkpt lat="59.9227637" lon="17.8402426">
        <ele>25.1317</ele>
        <time>2013-05-01T11:15:02Z</time>
      </trkpt>
      <trkpt lat="59.9228288" lon="17.8402084">
        <ele>25.1317</ele>
        <time>2013-05-01T11:15:03Z</time>
      </trkpt>
      <trkpt lat="59.9228942" lon="17.8401737">
        <ele>25.1317</ele>
        <time>2013-05-01T11:15:04Z</time>
      </trkpt>
      <trkpt lat="59.92296" lon="17.8401376">
        <ele>25.1317</ele>
        <time>2013-05-01T11:15:05Z</time>
      </trkpt>
      <trkpt lat="59.9230266" lon="17.8401005">
        <ele>25.1317</ele>
        <time>2013-05-01T11:15:06Z</time>
      </trkpt>
      <trkpt lat="59.9230939" lon="17.8400635">
        <ele>25.1317</ele>
        <time>2013-05-01T11:15:07Z</time>
      </trkpt>
      <trkpt lat="59.923161" lon="17.8400266">
        <ele>25.1317</ele>
        <time>2013-05-01T11:15:08Z</time>
      </trkpt>
      <trkpt lat="59.9232288" lon="17.8399861">
        <ele>25.1317</ele>
        <time>2013-05-01T11:15:09Z</time>
      </trkpt>
      <trkpt lat="59.9232961" lon="17.8399455">
        <ele>25.1317</ele>
        <time>2013-05-01T11:15:10Z</time>
      </trkpt>
      <trkpt lat="59.9233633" lon="17.8399053">
        <ele>25.6123</ele>
        <time>2013-05-01T11:15:11Z</time>
      </trkpt>
      <trkpt lat="59.9234303" lon="17.839867">
        <ele>25.6123</ele>
        <time>2013-05-01T11:15:12Z</time>
      </trkpt>
      <trkpt lat="59.9234972" lon="17.8398322">
        <ele>25.6123</ele>
        <time>2013-05-01T11:15:13Z</time>
      </trkpt>
      <trkpt lat="59.9235639" lon="17.8398">
        <ele>25.6123</ele>
        <time>2013-05-01T11:15:14Z</time>
      </trkpt>
      <trkpt lat="59.9236297" lon="17.8397669">
        <ele>26.0929</ele>
        <time>2013-05-01T11:15:15Z</time>
      </trkpt>
      <trkpt lat="59.9236954" lon="17.8397351">
        <ele>26.0929</ele>
        <time>2013-05-01T11:15:16Z</time>
      </trkpt>
      <trkpt lat="59.9237603" lon="17.8397062">
        <ele>26.0929</ele>
        <time>2013-05-01T11:15:17Z</time>
      </trkpt>
      <trkpt lat="59.923825" lon="17.8396787">
        <ele>26.0929</ele>
        <time>2013-05-01T11:15:18Z</time>
      </trkpt>
      <trkpt lat="59.9238897" lon="17.8396504">
        <ele>26.0929</ele>
        <time>2013-05-01T11:15:19Z</time>
      </trkpt>
      <trkpt lat="59.9239553" lon="17.839621">
        <ele>26.0929</ele>
        <time>2013-05-01T11:15:20Z</time>
      </trkpt>
      <trkpt lat="59.9240219" lon="17.8395929">
        <ele>26.0929</ele>
        <time>2013-05-01T11:15:21Z</time>
      </trkpt>
      <trkpt lat="59.9240901" lon="17.8395665">
        <ele>26.5736</ele>
        <time>2013-05-01T11:15:22Z</time>
      </trkpt>
      <trkpt lat="59.924159" lon="17.83954">
        <ele>26.5736</ele>
        <time>2013-05-01T11:15:23Z</time>
      </trkpt>
      <trkpt lat="59.9242283" lon="17.8395147">
        <ele>26.5736</ele>
        <time>2013-05-01T11:15:24Z</time>
      </trkpt>
      <trkpt lat="59.924298" lon="17.8394928">
        <ele>26.5736</ele>
        <time>2013-05-01T11:15:25Z</time>
      </trkpt>
      <trkpt lat="59.9243682" lon="17.8394706">
        <ele>27.0543</ele>
        <time>2013-05-01T11:15:26Z</time>
      </trkpt>
      <trkpt lat="59.9244386" lon="17.8394478">
        <ele>27.0543</ele>
        <time>2013-05-01T11:15:27Z</time>
      </trkpt>
      <trkpt lat="59.9245099" lon="17.8394306">
        <ele>27.5349</ele>
        <time>2013-05-01T11:15:28Z</time>
      </trkpt>
      <trkpt lat="59.9245813" lon="17.8394186">
        <ele>27.5349</ele>
        <time>2013-05-01T11:15:29Z</time>
      </trkpt>
      <trkpt lat="59.9246532" lon="17.839407">
        <ele>27.5349</ele>
        <time>2013-05-01T11:15:30Z</time>
      </trkpt>
      <trkpt lat="59.9247254" lon="17.8393958">
        <ele>27.5349</ele>
        <time>2013-05-01T11:15:31Z</time>
      </trkpt>
      <trkpt lat="59.9247976" lon="17.8393868">
        <ele>27.5349</ele>
        <time>2013-05-01T11:15:32Z</time>
      </trkpt>
      <trkpt lat="59.9248687" lon="17.8393798">
        <ele>27.5349</ele>
        <time>2013-05-01T11:15:33Z</time>
      </trkpt>
      <trkpt lat="59.9249387" lon="17.8393747">
        <ele>27.5349</ele>
        <time>2013-05-01T11:15:34Z</time>
      </trkpt>
      <trkpt lat="59.9250077" lon="17.8393722">
        <ele>27.5349</ele>
        <time>2013-05-01T11:15:35Z</time>
      </trkpt>
      <trkpt lat="59.9250755" lon="17.8393695">
        <ele>27.0543</ele>
        <time>2013-05-01T11:15:36Z</time>
      </trkpt>
      <trkpt lat="59.9251428" lon="17.8393651">
        <ele>27.0543</ele>
        <time>2013-05-01T11:15:37Z</time>
      </trkpt>
      <trkpt lat="59.9252106" lon="17.8393623">
        <ele>27.0543</ele>
        <time>2013-05-01T11:15:38Z</time>
      </trkpt>
      <trkpt lat="59.9252799" lon="17.839364">
        <ele>27.5349</ele>
        <time>2013-05-01T11:15:39Z</time>
      </trkpt>
      <trkpt lat="59.9253501" lon="17.8393673">
        <ele>27.5349</ele>
        <time>2013-05-01T11:15:40Z</time>
      </trkpt>
      <trkpt lat="59.9254206" lon="17.8393733">
        <ele>27.0543</ele>
        <time>2013-05-01T11:15:41Z</time>
      </trkpt>
      <trkpt lat="59.9254909" lon="17.8393822">
        <ele>26.5736</ele>
        <time>2013-05-01T11:15:42Z</time>
      </trkpt>
      <trkpt lat="59.9255596" lon="17.8393919">
        <ele>26.5736</ele>
        <time>2013-05-01T11:15:43Z</time>
      </trkpt>
      <trkpt lat="59.9256275" lon="17.8393992">
        <ele>26.5736</ele>
        <time>2013-05-01T11:15:44Z</time>
      </trkpt>
      <trkpt lat="59.9256946" lon="17.8394013">
        <ele>26.5736</ele>
        <time>2013-05-01T11:15:45Z</time>
      </trkpt>
      <trkpt lat="59.9257608" lon="17.8393894">
        <ele>26.5736</ele>
        <time>2013-05-01T11:15:46Z</time>
      </trkpt>
      <trkpt lat="59.925825" lon="17.8393576">
        <ele>26.5736</ele>
        <time>2013-05-01T11:15:47Z</time>
      </trkpt>
      <trkpt lat="59.9258867" lon="17.8393049">
        <ele>26.5736</ele>
        <time>2013-05-01T11:15:48Z</time>
      </trkpt>
      <trkpt lat="59.9259437" lon="17.8392348">
        <ele>26.5736</ele>
        <time>2013-05-01T11:15:49Z</time>
      </trkpt>
      <trkpt lat="59.9259959" lon="17.8391505">
        <ele>26.5736</ele>
        <time>2013-05-01T11:15:50Z</time>
      </trkpt>
      <trkpt lat="59.9260448" lon="17.8390589">
        <ele>26.5736</ele>
        <time>2013-05-01T11:15:51Z</time>
      </trkpt>
      <trkpt lat="59.9260909" lon="17.8389639">
        <ele>26.5736</ele>
        <time>2013-05-01T11:15:52Z</time>
      </trkpt>
      <trkpt lat="59.9261338" lon="17.838867">
        <ele>26.5736</ele>
        <time>2013-05-01T11:15:53Z</time>
      </trkpt>
      <trkpt lat="59.9261731" lon="17.8387723">
        <ele>27.0543</ele>
        <time>2013-05-01T11:15:54Z</time>
      </trkpt>
      <trkpt lat="59.926213" lon="17.8386821">
        <ele>27.0543</ele>
        <time>2013-05-01T11:15:55Z</time>
      </trkpt>
      <trkpt lat="59.9262558" lon="17.8385936">
        <ele>27.5349</ele>
        <time>2013-05-01T11:15:56Z</time>
      </trkpt>
      <trkpt lat="59.9262983" lon="17.8385034">
        <ele>27.5349</ele>
        <time>2013-05-01T11:15:57Z</time>
      </trkpt>
      <trkpt lat="59.926339" lon="17.8384108">
        <ele>27.5349</ele>
        <time>2013-05-01T11:15:58Z</time>
      </trkpt>
      <trkpt lat="59.9263803" lon="17.8383187">
        <ele>28.0155</ele>
        <time>2013-05-01T11:15:59Z</time>
      </trkpt>
      <trkpt lat="59.9264217" lon="17.8382295">
        <ele>28.0155</ele>
        <time>2013-05-01T11:16:00Z</time>
      </trkpt>
      <trkpt lat="59.9264638" lon="17.838145">
        <ele>28.0155</ele>
        <time>2013-05-01T11:16:01Z</time>
      </trkpt>
      <trkpt lat="59.9265073" lon="17.8380626">
        <ele>28.0155</ele>
        <time>2013-05-01T11:16:02Z</time>
      </trkpt>
      <trkpt lat="59.926554" lon="17.8379869">
        <ele>28.0155</ele>
        <time>2013-05-01T11:16:03Z</time>
      </trkpt>
      <trkpt lat="59.9266034" lon="17.8379233">
        <ele>28.4962</ele>
        <time>2013-05-01T11:16:04Z</time>
      </trkpt>
      <trkpt lat="59.926655" lon="17.8378726">
        <ele>28.4962</ele>
        <time>2013-05-01T11:16:05Z</time>
      </trkpt>
      <trkpt lat="59.9267024" lon="17.837828">
        <ele>28.0155</ele>
        <time>2013-05-01T11:16:06Z</time>
      </trkpt>
      <trkpt lat="59.9267609" lon="17.8377798">
        <ele>27.5349</ele>
        <time>2013-05-01T11:16:07Z</time>
      </trkpt>
      <trkpt lat="59.9268047" lon="17.8377415">
        <ele>28.0155</ele>
        <time>2013-05-01T11:16:08Z</time>
      </trkpt>
      <trkpt lat="59.9268564" lon="17.8377017">
        <ele>28.4962</ele>
        <time>2013-05-01T11:16:09Z</time>
      </trkpt>
      <trkpt lat="59.9269067" lon="17.8376716">
        <ele>28.4962</ele>
        <time>2013-05-01T11:16:10Z</time>
      </trkpt>
      <trkpt lat="59.9269565" lon="17.8376379">
        <ele>28.0155</ele>
        <time>2013-05-01T11:16:11Z</time>
      </trkpt>
      <trkpt lat="59.9270237" lon="17.8375871">
        <ele>28.0155</ele>
        <time>2013-05-01T11:16:12Z</time>
      </trkpt>
      <trkpt lat="59.9270634" lon="17.83754">
        <ele>28.0155</ele>
        <time>2013-05-01T11:16:13Z</time>
      </trkpt>
      <trkpt lat="59.9271056" lon="17.8374882">
        <ele>28.0155</ele>
        <time>2013-05-01T11:16:14Z</time>
      </trkpt>
      <trkpt lat="59.9271501" lon="17.8374232">
        <ele>28.0155</ele>
        <time>2013-05-01T11:16:15Z</time>
      </trkpt>
      <trkpt lat="59.9271965" lon="17.8373653">
        <ele>28.4962</ele>
        <time>2013-05-01T11:16:16Z</time>
      </trkpt>
      <trkpt lat="59.9272427" lon="17.8372935">
        <ele>28.4962</ele>
        <time>2013-05-01T11:16:17Z</time>
      </trkpt>
      <trkpt lat="59.9272904" lon="17.8372306">
        <ele>28.4962</ele>
        <time>2013-05-01T11:16:18Z</time>
      </trkpt>
      <trkpt lat="59.9273366" lon="17.837171">
        <ele>28.4962</ele>
        <time>2013-05-01T11:16:19Z</time>
      </trkpt>
      <trkpt lat="59.9273836" lon="17.8371178">
        <ele>28.4962</ele>
        <time>2013-05-01T11:16:20Z</time>
      </trkpt>
      <trkpt lat="59.9274324" lon="17.8370618">
        <ele>27.5349</ele>
        <time>2013-05-01T11:16:21Z</time>
      </trkpt>
      <trkpt lat="59.9274774" lon="17.837007">
        <ele>27.0543</ele>
        <time>2013-05-01T11:16:22Z</time>
      </trkpt>
      <trkpt lat="59.9275211" lon="17.8369561">
        <ele>27.5349</ele>
        <time>2013-05-01T11:16:23Z</time>
      </trkpt>
      <trkpt lat="59.9275551" lon="17.8368926">
        <ele>28.0155</ele>
        <time>2013-05-01T11:16:24Z</time>
      </trkpt>
      <trkpt lat="59.9275909" lon="17.8368242">
        <ele>28.4962</ele>
        <time>2013-05-01T11:16:25Z</time>
      </trkpt>
      <trkpt lat="59.9276322" lon="17.8367672">
        <ele>28.4962</ele>
        <time>2013-05-01T11:16:26Z</time>
      </trkpt>
      <trkpt lat="59.9276701" lon="17.8366993">
        <ele>28.4962</ele>
        <time>2013-05-01T11:16:27Z</time>
      </trkpt>
      <trkpt lat="59.927709" lon="17.8366417">
        <ele>28.4962</ele>
        <time>2013-05-01T11:16:28Z</time>
      </trkpt>
      <trkpt lat="59.927748" lon="17.8365734">
        <ele>28.4962</ele>
        <time>2013-05-01T11:16:29Z</time>
      </trkpt>
      <trkpt lat="59.9277908" lon="17.8365086">
        <ele>28.4962</ele>
        <time>2013-05-01T11:16:30Z</time>
      </trkpt>
      <trkpt lat="59.9278339" lon="17.8364406">
        <ele>28.4962</ele>
        <time>2013-05-01T11:16:31Z</time>
      </trkpt>
      <trkpt lat="59.9278763" lon="17.8363699">
        <ele>28.4962</ele>
        <time>2013-05-01T11:16:32Z</time>
      </trkpt>
      <trkpt lat="59.9279204" lon="17.8362883">
        <ele>28.4962</ele>
        <time>2013-05-01T11:16:33Z</time>
      </trkpt>
      <trkpt lat="59.9279618" lon="17.8362066">
        <ele>28.0155</ele>
        <time>2013-05-01T11:16:34Z</time>
      </trkpt>
      <trkpt lat="59.9280056" lon="17.8361303">
        <ele>27.5349</ele>
        <time>2013-05-01T11:16:35Z</time>
      </trkpt>
      <trkpt lat="59.9280513" lon="17.8360569">
        <ele>27.0543</ele>
        <time>2013-05-01T11:16:36Z</time>
      </trkpt>
      <trkpt lat="59.9281" lon="17.8359856">
        <ele>26.5736</ele>
        <time>2013-05-01T11:16:37Z</time>
      </trkpt>
      <trkpt lat="59.9281483" lon="17.835915">
        <ele>26.5736</ele>
        <time>2013-05-01T11:16:38Z</time>
      </trkpt>
      <trkpt lat="59.9281969" lon="17.835844">
        <ele>26.0929</ele>
        <time>2013-05-01T11:16:39Z</time>
      </trkpt>
      <trkpt lat="59.9282462" lon="17.8357731">
        <ele>26.0929</ele>
        <time>2013-05-01T11:16:40Z</time>
      </trkpt>
      <trkpt lat="59.928296" lon="17.8357001">
        <ele>25.6123</ele>
        <time>2013-05-01T11:16:41Z</time>
      </trkpt>
      <trkpt lat="59.9283461" lon="17.8356234">
        <ele>25.6123</ele>
        <time>2013-05-01T11:16:42Z</time>
      </trkpt>
      <trkpt lat="59.9283969" lon="17.835545">
        <ele>25.1317</ele>
        <time>2013-05-01T11:16:43Z</time>
      </trkpt>
      <trkpt lat="59.9284477" lon="17.8354566">
        <ele>25.1317</ele>
        <time>2013-05-01T11:16:44Z</time>
      </trkpt>
      <trkpt lat="59.9284986" lon="17.8353683">
        <ele>24.651</ele>
        <time>2013-05-01T11:16:45Z</time>
      </trkpt>
      <trkpt lat="59.9285503" lon="17.835279">
        <ele>24.651</ele>
        <time>2013-05-01T11:16:46Z</time>
      </trkpt>
      <trkpt lat="59.9286039" lon="17.8351991">
        <ele>24.651</ele>
        <time>2013-05-01T11:16:47Z</time>
      </trkpt>
      <trkpt lat="59.9286578" lon="17.8351181">
        <ele>24.651</ele>
        <time>2013-05-01T11:16:48Z</time>
      </trkpt>
      <trkpt lat="59.928712" lon="17.8350366">
        <ele>24.1703</ele>
        <time>2013-05-01T11:16:49Z</time>
      </trkpt>
      <trkpt lat="59.9287674" lon="17.8349563">
        <ele>24.1703</ele>
        <time>2013-05-01T11:16:50Z</time>
      </trkpt>
      <trkpt lat="59.9288241" lon="17.8348791">
        <ele>24.1703</ele>
        <time>2013-05-01T11:16:51Z</time>
      </trkpt>
      <trkpt lat="59.9288818" lon="17.8348044">
        <ele>24.1703</ele>
        <time>2013-05-01T11:16:52Z</time>
      </trkpt>
      <trkpt lat="59.9289406" lon="17.8347313">
        <ele>24.1703</ele>
        <time>2013-05-01T11:16:53Z</time>
      </trkpt>
      <trkpt lat="59.9289987" lon="17.8346593">
        <ele>24.1703</ele>
        <time>2013-05-01T11:16:54Z</time>
      </trkpt>
      <trkpt lat="59.9290567" lon="17.8345873">
        <ele>24.1703</ele>
        <time>2013-05-01T11:16:55Z</time>
      </trkpt>
      <trkpt lat="59.9291155" lon="17.8345167">
        <ele>24.1703</ele>
        <time>2013-05-01T11:16:56Z</time>
      </trkpt>
      <trkpt lat="59.9291741" lon="17.8344431">
        <ele>24.1703</ele>
        <time>2013-05-01T11:16:57Z</time>
      </trkpt>
      <trkpt lat="59.9292315" lon="17.8343656">
        <ele>24.1703</ele>
        <time>2013-05-01T11:16:58Z</time>
      </trkpt>
      <trkpt lat="59.9292885" lon="17.834288">
        <ele>24.1703</ele>
        <time>2013-05-01T11:16:59Z</time>
      </trkpt>
      <trkpt lat="59.9293454" lon="17.834208">
        <ele>24.651</ele>
        <time>2013-05-01T11:17:00Z</time>
      </trkpt>
      <trkpt lat="59.9294014" lon="17.8341282">
        <ele>24.651</ele>
        <time>2013-05-01T11:17:01Z</time>
      </trkpt>
      <trkpt lat="59.9294578" lon="17.8340437">
        <ele>24.651</ele>
        <time>2013-05-01T11:17:02Z</time>
      </trkpt>
      <trkpt lat="59.9295137" lon="17.8339573">
        <ele>24.651</ele>
        <time>2013-05-01T11:17:03Z</time>
      </trkpt>
      <trkpt lat="59.9295687" lon="17.8338702">
        <ele>24.651</ele>
        <time>2013-05-01T11:17:04Z</time>
      </trkpt>
      <trkpt lat="59.9296225" lon="17.833778">
        <ele>24.651</ele>
        <time>2013-05-01T11:17:05Z</time>
      </trkpt>
      <trkpt lat="59.9296762" lon="17.8336845">
        <ele>24.651</ele>
        <time>2013-05-01T11:17:06Z</time>
      </trkpt>
      <trkpt lat="59.9297319" lon="17.8335889">
        <ele>24.1703</ele>
        <time>2013-05-01T11:17:07Z</time>
      </trkpt>
      <trkpt lat="59.9297907" lon="17.833486">
        <ele>24.651</ele>
        <time>2013-05-01T11:17:08Z</time>
      </trkpt>
      <trkpt lat="59.929851" lon="17.8333814">
        <ele>24.651</ele>
        <time>2013-05-01T11:17:09Z</time>
      </trkpt>
      <trkpt lat="59.9299116" lon="17.8332788">
        <ele>24.651</ele>
        <time>2013-05-01T11:17:10Z</time>
      </trkpt>
      <trkpt lat="59.9299739" lon="17.8331782">
        <ele>24.1703</ele>
        <time>2013-05-01T11:17:11Z</time>
      </trkpt>
      <trkpt lat="59.9300371" lon="17.8330789">
        <ele>24.1703</ele>
        <time>2013-05-01T11:17:12Z</time>
      </trkpt>
      <trkpt lat="59.9301003" lon="17.8329788">
        <ele>24.1703</ele>
        <time>2013-05-01T11:17:13Z</time>
      </trkpt>
      <trkpt lat="59.9301634" lon="17.832879">
        <ele>24.651</ele>
        <time>2013-05-01T11:17:14Z</time>
      </trkpt>
      <trkpt lat="59.9302261" lon="17.8327806">
        <ele>24.651</ele>
        <time>2013-05-01T11:17:15Z</time>
      </trkpt>
      <trkpt lat="59.9302892" lon="17.8326831">
        <ele>24.651</ele>
        <time>2013-05-01T11:17:16Z</time>
      </trkpt>
      <trkpt lat="59.9303507" lon="17.8325868">
        <ele>24.651</ele>
        <time>2013-05-01T11:17:17Z</time>
      </trkpt>
      <trkpt lat="59.9304125" lon="17.8324966">
        <ele>24.651</ele>
        <time>2013-05-01T11:17:18Z</time>
      </trkpt>
      <trkpt lat="59.9304724" lon="17.8324105">
        <ele>24.651</ele>
        <time>2013-05-01T11:17:19Z</time>
      </trkpt>
      <trkpt lat="59.9305311" lon="17.8323236">
        <ele>24.651</ele>
        <time>2013-05-01T11:17:20Z</time>
      </trkpt>
      <trkpt lat="59.930589" lon="17.832238">
        <ele>24.651</ele>
        <time>2013-05-01T11:17:21Z</time>
      </trkpt>
      <trkpt lat="59.9306477" lon="17.8321537">
        <ele>24.1703</ele>
        <time>2013-05-01T11:17:22Z</time>
      </trkpt>
      <trkpt lat="59.9307094" lon="17.832064">
        <ele>24.651</ele>
        <time>2013-05-01T11:17:23Z</time>
      </trkpt>
      <trkpt lat="59.9307709" lon="17.8319766">
        <ele>24.651</ele>
        <time>2013-05-01T11:17:24Z</time>
      </trkpt>
      <trkpt lat="59.9308316" lon="17.8318867">
        <ele>24.1703</ele>
        <time>2013-05-01T11:17:25Z</time>
      </trkpt>
      <trkpt lat="59.9308916" lon="17.8317936">
        <ele>24.1703</ele>
        <time>2013-05-01T11:17:26Z</time>
      </trkpt>
      <trkpt lat="59.9309519" lon="17.8317001">
        <ele>24.1703</ele>
        <time>2013-05-01T11:17:27Z</time>
      </trkpt>
      <trkpt lat="59.9310127" lon="17.8316025">
        <ele>24.1703</ele>
        <time>2013-05-01T11:17:28Z</time>
      </trkpt>
      <trkpt lat="59.931071" lon="17.8315035">
        <ele>24.1703</ele>
        <time>2013-05-01T11:17:29Z</time>
      </trkpt>
      <trkpt lat="59.9311301" lon="17.8313999">
        <ele>24.1703</ele>
        <time>2013-05-01T11:17:30Z</time>
      </trkpt>
      <trkpt lat="59.9311888" lon="17.8312933">
        <ele>24.1703</ele>
        <time>2013-05-01T11:17:31Z</time>
      </trkpt>
      <trkpt lat="59.9312475" lon="17.8311845">
        <ele>23.6896</ele>
        <time>2013-05-01T11:17:32Z</time>
      </trkpt>
      <trkpt lat="59.931304" lon="17.8310696">
        <ele>23.6896</ele>
        <time>2013-05-01T11:17:33Z</time>
      </trkpt>
      <trkpt lat="59.93136" lon="17.830953">
        <ele>24.1703</ele>
        <time>2013-05-01T11:17:34Z</time>
      </trkpt>
      <trkpt lat="59.9314149" lon="17.8308344">
        <ele>24.1703</ele>
        <time>2013-05-01T11:17:35Z</time>
      </trkpt>
      <trkpt lat="59.9314681" lon="17.8307127">
        <ele>24.1703</ele>
        <time>2013-05-01T11:17:36Z</time>
      </trkpt>
      <trkpt lat="59.9315175" lon="17.8305896">
        <ele>24.1703</ele>
        <time>2013-05-01T11:17:37Z</time>
      </trkpt>
      <trkpt lat="59.9315628" lon="17.8304681">
        <ele>24.651</ele>
        <time>2013-05-01T11:17:38Z</time>
      </trkpt>
      <trkpt lat="59.9316023" lon="17.8303467">
        <ele>24.651</ele>
        <time>2013-05-01T11:17:39Z</time>
      </trkpt>
      <trkpt lat="59.9316418" lon="17.8302247">
        <ele>24.651</ele>
        <time>2013-05-01T11:17:40Z</time>
      </trkpt>
      <trkpt lat="59.9316784" lon="17.8301003">
        <ele>24.1703</ele>
        <time>2013-05-01T11:17:41Z</time>
      </trkpt>
      <trkpt lat="59.9317126" lon="17.8299708">
        <ele>24.1703</ele>
        <time>2013-05-01T11:17:42Z</time>
      </trkpt>
      <trkpt lat="59.931748" lon="17.8298418">
        <ele>24.1703</ele>
        <time>2013-05-01T11:17:43Z</time>
      </trkpt>
      <trkpt lat="59.9317863" lon="17.8297087">
        <ele>23.209</ele>
        <time>2013-05-01T11:17:44Z</time>
      </trkpt>
      <trkpt lat="59.9318251" lon="17.829572">
        <ele>22.7283</ele>
        <time>2013-05-01T11:17:45Z</time>
      </trkpt>
      <trkpt lat="59.9318644" lon="17.8294335">
        <ele>22.7283</ele>
        <time>2013-05-01T11:17:46Z</time>
      </trkpt>
      <trkpt lat="59.9319033" lon="17.8292892">
        <ele>21.767</ele>
        <time>2013-05-01T11:17:47Z</time>
      </trkpt>
      <trkpt lat="59.9319412" lon="17.829138">
        <ele>21.2864</ele>
        <time>2013-05-01T11:17:48Z</time>
      </trkpt>
      <trkpt lat="59.93198" lon="17.8289844">
        <ele>21.2864</ele>
        <time>2013-05-01T11:17:49Z</time>
      </trkpt>
      <trkpt lat="59.9320204" lon="17.8288312">
        <ele>20.8057</ele>
        <time>2013-05-01T11:17:50Z</time>
      </trkpt>
      <trkpt lat="59.9320632" lon="17.8286816">
        <ele>20.325</ele>
        <time>2013-05-01T11:17:51Z</time>
      </trkpt>
      <trkpt lat="59.9321088" lon="17.8285363">
        <ele>19.8444</ele>
        <time>2013-05-01T11:17:52Z</time>
      </trkpt>
      <trkpt lat="59.932156" lon="17.8283987">
        <ele>19.8444</ele>
        <time>2013-05-01T11:17:53Z</time>
      </trkpt>
      <trkpt lat="59.9322059" lon="17.828268">
        <ele>19.8444</ele>
        <time>2013-05-01T11:17:54Z</time>
      </trkpt>
      <trkpt lat="59.9322582" lon="17.8281433">
        <ele>19.8444</ele>
        <time>2013-05-01T11:17:55Z</time>
      </trkpt>
      <trkpt lat="59.9323126" lon="17.8280221">
        <ele>19.8444</ele>
        <time>2013-05-01T11:17:56Z</time>
      </trkpt>
      <trkpt lat="59.9323668" lon="17.8279035">
        <ele>19.8444</ele>
        <time>2013-05-01T11:17:57Z</time>
      </trkpt>
      <trkpt lat="59.9324208" lon="17.827791">
        <ele>20.325</ele>
        <time>2013-05-01T11:17:58Z</time>
      </trkpt>
      <trkpt lat="59.9324768" lon="17.8276852">
        <ele>20.325</ele>
        <time>2013-05-01T11:17:59Z</time>
      </trkpt>
      <trkpt lat="59.9325331" lon="17.8275818">
        <ele>20.325</ele>
        <time>2013-05-01T11:18:00Z</time>
      </trkpt>
      <trkpt lat="59.9325905" lon="17.8274788">
        <ele>19.8444</ele>
        <time>2013-05-01T11:18:01Z</time>
      </trkpt>
      <trkpt lat="59.9326494" lon="17.8273797">
        <ele>19.3638</ele>
        <time>2013-05-01T11:18:02Z</time>
      </trkpt>
      <trkpt lat="59.9327089" lon="17.8272803">
        <ele>19.3638</ele>
        <time>2013-05-01T11:18:03Z</time>
      </trkpt>
      <trkpt lat="59.9327678" lon="17.8271786">
        <ele>19.3638</ele>
        <time>2013-05-01T11:18:04Z</time>
      </trkpt>
      <trkpt lat="59.9328265" lon="17.8270752">
        <ele>19.3638</ele>
        <time>2013-05-01T11:18:05Z</time>
      </trkpt>
      <trkpt lat="59.9328851" lon="17.8269704">
        <ele>19.3638</ele>
        <time>2013-05-01T11:18:06Z</time>
      </trkpt>
      <trkpt lat="59.9329443" lon="17.8268652">
        <ele>19.3638</ele>
        <time>2013-05-01T11:18:07Z</time>
      </trkpt>
      <trkpt lat="59.9330044" lon="17.8267638">
        <ele>19.8444</ele>
        <time>2013-05-01T11:18:08Z</time>
      </trkpt>
      <trkpt lat="59.9330657" lon="17.8266683">
        <ele>19.8444</ele>
        <time>2013-05-01T11:18:09Z</time>
      </trkpt>
      <trkpt lat="59.9331275" lon="17.8265764">
        <ele>19.8444</ele>
        <time>2013-05-01T11:18:10Z</time>
      </trkpt>
      <trkpt lat="59.9331897" lon="17.8264886">
        <ele>19.8444</ele>
        <time>2013-05-01T11:18:11Z</time>
      </trkpt>
      <trkpt lat="59.9332539" lon="17.8264074">
        <ele>19.8444</ele>
        <time>2013-05-01T11:18:12Z</time>
      </trkpt>
      <trkpt lat="59.9333206" lon="17.8263329">
        <ele>20.325</ele>
        <time>2013-05-01T11:18:13Z</time>
      </trkpt>
      <trkpt lat="59.9333881" lon="17.8262639">
        <ele>20.325</ele>
        <time>2013-05-01T11:18:14Z</time>
      </trkpt>
      <trkpt lat="59.9334564" lon="17.826198">
        <ele>20.325</ele>
        <time>2013-05-01T11:18:15Z</time>
      </trkpt>
      <trkpt lat="59.9335263" lon="17.8261384">
        <ele>20.325</ele>
        <time>2013-05-01T11:18:16Z</time>
      </trkpt>
      <trkpt lat="59.9335981" lon="17.8260835">
        <ele>20.325</ele>
        <time>2013-05-01T11:18:17Z</time>
      </trkpt>
      <trkpt lat="59.9336704" lon="17.8260304">
        <ele>20.8057</ele>
        <time>2013-05-01T11:18:18Z</time>
      </trkpt>
      <trkpt lat="59.9337438" lon="17.8259822">
        <ele>20.8057</ele>
        <time>2013-05-01T11:18:19Z</time>
      </trkpt>
      <trkpt lat="59.9338182" lon="17.8259386">
        <ele>20.8057</ele>
        <time>2013-05-01T11:18:20Z</time>
      </trkpt>
      <trkpt lat="59.9338937" lon="17.8258981">
        <ele>20.8057</ele>
        <time>2013-05-01T11:18:21Z</time>
      </trkpt>
      <trkpt lat="59.9339705" lon="17.8258594">
        <ele>20.8057</ele>
        <time>2013-05-01T11:18:22Z</time>
      </trkpt>
      <trkpt lat="59.9340485" lon="17.8258231">
        <ele>20.325</ele>
        <time>2013-05-01T11:18:23Z</time>
      </trkpt>
      <trkpt lat="59.9341276" lon="17.8257896">
        <ele>20.325</ele>
        <time>2013-05-01T11:18:24Z</time>
      </trkpt>
      <trkpt lat="59.9342083" lon="17.8257548">
        <ele>20.325</ele>
        <time>2013-05-01T11:18:25Z</time>
      </trkpt>
      <trkpt lat="59.9342897" lon="17.8257185">
        <ele>19.8444</ele>
        <time>2013-05-01T11:18:26Z</time>
      </trkpt>
      <trkpt lat="59.9343709" lon="17.8256828">
        <ele>19.8444</ele>
        <time>2013-05-01T11:18:27Z</time>
      </trkpt>
      <trkpt lat="59.934452" lon="17.8256469">
        <ele>19.8444</ele>
        <time>2013-05-01T11:18:28Z</time>
      </trkpt>
      <trkpt lat="59.9345322" lon="17.8256102">
        <ele>19.8444</ele>
        <time>2013-05-01T11:18:29Z</time>
      </trkpt>
      <trkpt lat="59.9346124" lon="17.8255754">
        <ele>19.3638</ele>
        <time>2013-05-01T11:18:30Z</time>
      </trkpt>
      <trkpt lat="59.9346928" lon="17.8255401">
        <ele>19.8444</ele>
        <time>2013-05-01T11:18:31Z</time>
      </trkpt>
      <trkpt lat="59.9347742" lon="17.8255049">
        <ele>19.3638</ele>
        <time>2013-05-01T11:18:32Z</time>
      </trkpt>
      <trkpt lat="59.9348569" lon="17.8254708">
        <ele>19.3638</ele>
        <time>2013-05-01T11:18:33Z</time>
      </trkpt>
      <trkpt lat="59.93494" lon="17.8254349">
        <ele>19.3638</ele>
        <time>2013-05-01T11:18:34Z</time>
      </trkpt>
      <trkpt lat="59.9350238" lon="17.8253963">
        <ele>19.3638</ele>
        <time>2013-05-01T11:18:35Z</time>
      </trkpt>
      <trkpt lat="59.9351073" lon="17.8253586">
        <ele>19.8444</ele>
        <time>2013-05-01T11:18:36Z</time>
      </trkpt>
      <trkpt lat="59.9351912" lon="17.8253223">
        <ele>19.8444</ele>
        <time>2013-05-01T11:18:37Z</time>
      </trkpt>
      <trkpt lat="59.9352759" lon="17.8252855">
        <ele>19.8444</ele>
        <time>2013-05-01T11:18:38Z</time>
      </trkpt>
      <trkpt lat="59.9353611" lon="17.8252493">
        <ele>19.8444</ele>
        <time>2013-05-01T11:18:39Z</time>
      </trkpt>
      <trkpt lat="59.9354467" lon="17.825214">
        <ele>20.325</ele>
        <time>2013-05-01T11:18:40Z</time>
      </trkpt>
      <trkpt lat="59.9355326" lon="17.8251777">
        <ele>20.325</ele>
        <time>2013-05-01T11:18:41Z</time>
      </trkpt>
      <trkpt lat="59.9356183" lon="17.825141">
        <ele>20.8057</ele>
        <time>2013-05-01T11:18:42Z</time>
      </trkpt>
      <trkpt lat="59.9357036" lon="17.8251047">
        <ele>20.8057</ele>
        <time>2013-05-01T11:18:43Z</time>
      </trkpt>
      <trkpt lat="59.935789" lon="17.8250694">
        <ele>21.2864</ele>
        <time>2013-05-01T11:18:44Z</time>
      </trkpt>
      <trkpt lat="59.9358747" lon="17.8250335">
        <ele>21.2864</ele>
        <time>2013-05-01T11:18:45Z</time>
      </trkpt>
      <trkpt lat="59.9359604" lon="17.8249974">
        <ele>21.2864</ele>
        <time>2013-05-01T11:18:46Z</time>
      </trkpt>
      <trkpt lat="59.9360457" lon="17.8249608">
        <ele>21.767</ele>
        <time>2013-05-01T11:18:47Z</time>
      </trkpt>
      <trkpt lat="59.9361303" lon="17.8249252">
        <ele>22.2476</ele>
        <time>2013-05-01T11:18:48Z</time>
      </trkpt>
      <trkpt lat="59.9362141" lon="17.8248903">
        <ele>22.2476</ele>
        <time>2013-05-01T11:18:49Z</time>
      </trkpt>
      <trkpt lat="59.9362967" lon="17.824856">
        <ele>22.7283</ele>
        <time>2013-05-01T11:18:50Z</time>
      </trkpt>
      <trkpt lat="59.9363779" lon="17.8248213">
        <ele>23.209</ele>
        <time>2013-05-01T11:18:51Z</time>
      </trkpt>
      <trkpt lat="59.9364575" lon="17.8247808">
        <ele>23.209</ele>
        <time>2013-05-01T11:18:52Z</time>
      </trkpt>
      <trkpt lat="59.9365357" lon="17.8247326">
        <ele>23.209</ele>
        <time>2013-05-01T11:18:53Z</time>
      </trkpt>
      <trkpt lat="59.9366129" lon="17.8246729">
        <ele>23.6896</ele>
        <time>2013-05-01T11:18:54Z</time>
      </trkpt>
      <trkpt lat="59.9366876" lon="17.8246005">
        <ele>24.1703</ele>
        <time>2013-05-01T11:18:55Z</time>
      </trkpt>
      <trkpt lat="59.9367595" lon="17.8245146">
        <ele>24.1703</ele>
        <time>2013-05-01T11:18:56Z</time>
      </trkpt>
      <trkpt lat="59.9368281" lon="17.8244188">
        <ele>23.6896</ele>
        <time>2013-05-01T11:18:57Z</time>
      </trkpt>
      <trkpt lat="59.9368934" lon="17.8243183">
        <ele>23.6896</ele>
        <time>2013-05-01T11:18:58Z</time>
      </trkpt>
      <trkpt lat="59.936955" lon="17.8242091">
        <ele>24.1703</ele>
        <time>2013-05-01T11:18:59Z</time>
      </trkpt>
      <trkpt lat="59.9370124" lon="17.8240889">
        <ele>24.1703</ele>
        <time>2013-05-01T11:19:00Z</time>
      </trkpt>
      <trkpt lat="59.9370657" lon="17.8239644">
        <ele>24.651</ele>
        <time>2013-05-01T11:19:01Z</time>
      </trkpt>
      <trkpt lat="59.9371148" lon="17.8238349">
        <ele>24.651</ele>
        <time>2013-05-01T11:19:02Z</time>
      </trkpt>
      <trkpt lat="59.9371625" lon="17.8237054">
        <ele>24.651</ele>
        <time>2013-05-01T11:19:03Z</time>
      </trkpt>
      <trkpt lat="59.9372093" lon="17.8235769">
        <ele>24.651</ele>
        <time>2013-05-01T11:19:04Z</time>
      </trkpt>
      <trkpt lat="59.9372576" lon="17.8234475">
        <ele>24.651</ele>
        <time>2013-05-01T11:19:05Z</time>
      </trkpt>
      <trkpt lat="59.9373062" lon="17.823319">
        <ele>24.651</ele>
        <time>2013-05-01T11:19:06Z</time>
      </trkpt>
      <trkpt lat="59.9373542" lon="17.8231937">
        <ele>24.651</ele>
        <time>2013-05-01T11:19:07Z</time>
      </trkpt>
      <trkpt lat="59.9374036" lon="17.8230683">
        <ele>24.651</ele>
        <time>2013-05-01T11:19:08Z</time>
      </trkpt>
      <trkpt lat="59.9374523" lon="17.8229409">
        <ele>25.1317</ele>
        <time>2013-05-01T11:19:09Z</time>
      </trkpt>
      <trkpt lat="59.937499" lon="17.8228119">
        <ele>25.1317</ele>
        <time>2013-05-01T11:19:10Z</time>
      </trkpt>
      <trkpt lat="59.937545" lon="17.8226822">
        <ele>25.1317</ele>
        <time>2013-05-01T11:19:11Z</time>
      </trkpt>
      <trkpt lat="59.9375902" lon="17.8225524">
        <ele>25.1317</ele>
        <time>2013-05-01T11:19:12Z</time>
      </trkpt>
      <trkpt lat="59.9376363" lon="17.8224222">
        <ele>25.1317</ele>
        <time>2013-05-01T11:19:13Z</time>
      </trkpt>
      <trkpt lat="59.9376837" lon="17.8222935">
        <ele>24.651</ele>
        <time>2013-05-01T11:19:14Z</time>
      </trkpt>
      <trkpt lat="59.9377299" lon="17.8221669">
        <ele>24.651</ele>
        <time>2013-05-01T11:19:15Z</time>
      </trkpt>
      <trkpt lat="59.9377774" lon="17.8220405">
        <ele>24.651</ele>
        <time>2013-05-01T11:19:16Z</time>
      </trkpt>
      <trkpt lat="59.9378245" lon="17.8219163">
        <ele>24.651</ele>
        <time>2013-05-01T11:19:17Z</time>
      </trkpt>
      <trkpt lat="59.9378709" lon="17.8217934">
        <ele>24.651</ele>
        <time>2013-05-01T11:19:18Z</time>
      </trkpt>
      <trkpt lat="59.9379164" lon="17.8216683">
        <ele>24.651</ele>
        <time>2013-05-01T11:19:19Z</time>
      </trkpt>
      <trkpt lat="59.937961" lon="17.8215411">
        <ele>24.651</ele>
        <time>2013-05-01T11:19:20Z</time>
      </trkpt>
      <trkpt lat="59.9380061" lon="17.8214137">
        <ele>25.1317</ele>
        <time>2013-05-01T11:19:21Z</time>
      </trkpt>
      <trkpt lat="59.9380526" lon="17.8212922">
        <ele>25.1317</ele>
        <time>2013-05-01T11:19:22Z</time>
      </trkpt>
      <trkpt lat="59.9381011" lon="17.8211777">
        <ele>25.6123</ele>
        <time>2013-05-01T11:19:23Z</time>
      </trkpt>
      <trkpt lat="59.9381498" lon="17.8210719">
        <ele>25.6123</ele>
        <time>2013-05-01T11:19:24Z</time>
      </trkpt>
      <trkpt lat="59.9381975" lon="17.8209684">
        <ele>26.0929</ele>
        <time>2013-05-01T11:19:25Z</time>
      </trkpt>
      <trkpt lat="59.9382454" lon="17.8208625">
        <ele>26.5736</ele>
        <time>2013-05-01T11:19:26Z</time>
      </trkpt>
      <trkpt lat="59.938293" lon="17.8207555">
        <ele>26.5736</ele>
        <time>2013-05-01T11:19:27Z</time>
      </trkpt>
      <trkpt lat="59.9383402" lon="17.8206488">
        <ele>27.0543</ele>
        <time>2013-05-01T11:19:28Z</time>
      </trkpt>
      <trkpt lat="59.9383894" lon="17.820533">
        <ele>27.0543</ele>
        <time>2013-05-01T11:19:29Z</time>
      </trkpt>
      <trkpt lat="59.938437" lon="17.8204203">
        <ele>27.5349</ele>
        <time>2013-05-01T11:19:30Z</time>
      </trkpt>
      <trkpt lat="59.9384803" lon="17.8203146">
        <ele>28.0155</ele>
        <time>2013-05-01T11:19:31Z</time>
      </trkpt>
      <trkpt lat="59.9385256" lon="17.8202124">
        <ele>28.4962</ele>
        <time>2013-05-01T11:19:32Z</time>
      </trkpt>
      <trkpt lat="59.9385805" lon="17.8201044">
        <ele>28.9769</ele>
        <time>2013-05-01T11:19:33Z</time>
      </trkpt>
      <trkpt lat="59.9386254" lon="17.8200043">
        <ele>29.4575</ele>
        <time>2013-05-01T11:19:34Z</time>
      </trkpt>
      <trkpt lat="59.9386735" lon="17.8199022">
        <ele>29.4575</ele>
        <time>2013-05-01T11:19:35Z</time>
      </trkpt>
      <trkpt lat="59.9387193" lon="17.8197944">
        <ele>29.4575</ele>
        <time>2013-05-01T11:19:36Z</time>
      </trkpt>
      <trkpt lat="59.9387634" lon="17.8196852">
        <ele>29.9381</ele>
        <time>2013-05-01T11:19:37Z</time>
      </trkpt>
      <trkpt lat="59.9388057" lon="17.8195826">
        <ele>29.4575</ele>
        <time>2013-05-01T11:19:38Z</time>
      </trkpt>
      <trkpt lat="59.9388478" lon="17.8194837">
        <ele>29.4575</ele>
        <time>2013-05-01T11:19:39Z</time>
      </trkpt>
      <trkpt lat="59.9388918" lon="17.8193918">
        <ele>28.9769</ele>
        <time>2013-05-01T11:19:40Z</time>
      </trkpt>
      <trkpt lat="59.9389344" lon="17.8193013">
        <ele>29.4575</ele>
        <time>2013-05-01T11:19:41Z</time>
      </trkpt>
      <trkpt lat="59.9389777" lon="17.8192102">
        <ele>29.4575</ele>
        <time>2013-05-01T11:19:42Z</time>
      </trkpt>
      <trkpt lat="59.9390219" lon="17.819119">
        <ele>29.4575</ele>
        <time>2013-05-01T11:19:43Z</time>
      </trkpt>
      <trkpt lat="59.9390679" lon="17.8190279">
        <ele>29.4575</ele>
        <time>2013-05-01T11:19:44Z</time>
      </trkpt>
      <trkpt lat="59.9391156" lon="17.8189371">
        <ele>29.4575</ele>
        <time>2013-05-01T11:19:45Z</time>
      </trkpt>
      <trkpt lat="59.9391664" lon="17.8188486">
        <ele>29.4575</ele>
        <time>2013-05-01T11:19:46Z</time>
      </trkpt>
      <trkpt lat="59.9392213" lon="17.8187677">
        <ele>29.4575</ele>
        <time>2013-05-01T11:19:47Z</time>
      </trkpt>
      <trkpt lat="59.9392799" lon="17.8186934">
        <ele>28.9769</ele>
        <time>2013-05-01T11:19:48Z</time>
      </trkpt>
      <trkpt lat="59.9393415" lon="17.8186249">
        <ele>28.9769</ele>
        <time>2013-05-01T11:19:49Z</time>
      </trkpt>
      <trkpt lat="59.9394046" lon="17.8185618">
        <ele>28.9769</ele>
        <time>2013-05-01T11:19:50Z</time>
      </trkpt>
      <trkpt lat="59.9394695" lon="17.8185053">
        <ele>29.4575</ele>
        <time>2013-05-01T11:19:51Z</time>
      </trkpt>
      <trkpt lat="59.9395342" lon="17.8184607">
        <ele>29.4575</ele>
        <time>2013-05-01T11:19:52Z</time>
      </trkpt>
      <trkpt lat="59.9395982" lon="17.8184327">
        <ele>29.4575</ele>
        <time>2013-05-01T11:19:53Z</time>
      </trkpt>
      <trkpt lat="59.9396603" lon="17.8184247">
        <ele>28.4962</ele>
        <time>2013-05-01T11:19:54Z</time>
      </trkpt>
      <trkpt lat="59.9397233" lon="17.8184224">
        <ele>28.9769</ele>
        <time>2013-05-01T11:19:55Z</time>
      </trkpt>
      <trkpt lat="59.9397855" lon="17.8184229">
        <ele>29.4575</ele>
        <time>2013-05-01T11:19:56Z</time>
      </trkpt>
      <trkpt lat="59.9398428" lon="17.8184437">
        <ele>28.9769</ele>
        <time>2013-05-01T11:19:57Z</time>
      </trkpt>
      <trkpt lat="59.9399002" lon="17.8184758">
        <ele>28.4962</ele>
        <time>2013-05-01T11:19:58Z</time>
      </trkpt>
      <trkpt lat="59.9399598" lon="17.8185144">
        <ele>28.0155</ele>
        <time>2013-05-01T11:19:59Z</time>
      </trkpt>
      <trkpt lat="59.9400201" lon="17.8185661">
        <ele>27.5349</ele>
        <time>2013-05-01T11:20:00Z</time>
      </trkpt>
      <trkpt lat="59.9400807" lon="17.8186293">
        <ele>27.5349</ele>
        <time>2013-05-01T11:20:01Z</time>
      </trkpt>
      <trkpt lat="59.9401417" lon="17.8187005">
        <ele>27.0543</ele>
        <time>2013-05-01T11:20:02Z</time>
      </trkpt>
      <trkpt lat="59.9402034" lon="17.8187782">
        <ele>26.5736</ele>
        <time>2013-05-01T11:20:03Z</time>
      </trkpt>
      <trkpt lat="59.9402661" lon="17.8188607">
        <ele>26.0929</ele>
        <time>2013-05-01T11:20:04Z</time>
      </trkpt>
      <trkpt lat="59.9403297" lon="17.818945">
        <ele>25.6123</ele>
        <time>2013-05-01T11:20:05Z</time>
      </trkpt>
      <trkpt lat="59.940395" lon="17.8190309">
        <ele>25.6123</ele>
        <time>2013-05-01T11:20:06Z</time>
      </trkpt>
      <trkpt lat="59.9404602" lon="17.8191175">
        <ele>25.6123</ele>
        <time>2013-05-01T11:20:07Z</time>
      </trkpt>
      <trkpt lat="59.9405245" lon="17.8192044">
        <ele>25.1317</ele>
        <time>2013-05-01T11:20:08Z</time>
      </trkpt>
      <trkpt lat="59.9405903" lon="17.8192905">
        <ele>24.651</ele>
        <time>2013-05-01T11:20:09Z</time>
      </trkpt>
      <trkpt lat="59.9406577" lon="17.8193765">
        <ele>24.1703</ele>
        <time>2013-05-01T11:20:10Z</time>
      </trkpt>
      <trkpt lat="59.9407256" lon="17.8194647">
        <ele>24.1703</ele>
        <time>2013-05-01T11:20:11Z</time>
      </trkpt>
      <trkpt lat="59.9407945" lon="17.8195548">
        <ele>23.6896</ele>
        <time>2013-05-01T11:20:12Z</time>
      </trkpt>
      <trkpt lat="59.9408645" lon="17.8196459">
        <ele>23.209</ele>
        <time>2013-05-01T11:20:13Z</time>
      </trkpt>
      <trkpt lat="59.9409355" lon="17.819738">
        <ele>23.209</ele>
        <time>2013-05-01T11:20:14Z</time>
      </trkpt>
      <trkpt lat="59.9410074" lon="17.8198302">
        <ele>22.7283</ele>
        <time>2013-05-01T11:20:15Z</time>
      </trkpt>
      <trkpt lat="59.9410803" lon="17.8199219">
        <ele>22.2476</ele>
        <time>2013-05-01T11:20:16Z</time>
      </trkpt>
      <trkpt lat="59.9411539" lon="17.8200146">
        <ele>22.2476</ele>
        <time>2013-05-01T11:20:17Z</time>
      </trkpt>
      <trkpt lat="59.9412286" lon="17.8201094">
        <ele>21.767</ele>
        <time>2013-05-01T11:20:18Z</time>
      </trkpt>
      <trkpt lat="59.9413037" lon="17.8202048">
        <ele>21.767</ele>
        <time>2013-05-01T11:20:19Z</time>
      </trkpt>
      <trkpt lat="59.9413788" lon="17.8202999">
        <ele>21.767</ele>
        <time>2013-05-01T11:20:20Z</time>
      </trkpt>
      <trkpt lat="59.9414539" lon="17.8203943">
        <ele>21.767</ele>
        <time>2013-05-01T11:20:21Z</time>
      </trkpt>
      <trkpt lat="59.9415285" lon="17.8204881">
        <ele>21.2864</ele>
        <time>2013-05-01T11:20:22Z</time>
      </trkpt>
      <trkpt lat="59.9416029" lon="17.8205819">
        <ele>21.2864</ele>
        <time>2013-05-01T11:20:23Z</time>
      </trkpt>
      <trkpt lat="59.9416764" lon="17.8206749">
        <ele>21.2864</ele>
        <time>2013-05-01T11:20:24Z</time>
      </trkpt>
      <trkpt lat="59.9417487" lon="17.8207668">
        <ele>21.2864</ele>
        <time>2013-05-01T11:20:25Z</time>
      </trkpt>
      <trkpt lat="59.9418201" lon="17.8208569">
        <ele>21.767</ele>
        <time>2013-05-01T11:20:26Z</time>
      </trkpt>
      <trkpt lat="59.9418901" lon="17.820945">
        <ele>21.767</ele>
        <time>2013-05-01T11:20:27Z</time>
      </trkpt>
      <trkpt lat="59.9419594" lon="17.8210318">
        <ele>21.767</ele>
        <time>2013-05-01T11:20:28Z</time>
      </trkpt>
      <trkpt lat="59.9420278" lon="17.8211171">
        <ele>22.2476</ele>
        <time>2013-05-01T11:20:29Z</time>
      </trkpt>
      <trkpt lat="59.9420952" lon="17.821201">
        <ele>22.2476</ele>
        <time>2013-05-01T11:20:30Z</time>
      </trkpt>
      <trkpt lat="59.9421623" lon="17.8212837">
        <ele>22.2476</ele>
        <time>2013-05-01T11:20:31Z</time>
      </trkpt>
      <trkpt lat="59.9422284" lon="17.8213665">
        <ele>22.2476</ele>
        <time>2013-05-01T11:20:32Z</time>
      </trkpt>
      <trkpt lat="59.9422946" lon="17.8214475">
        <ele>22.7283</ele>
        <time>2013-05-01T11:20:33Z</time>
      </trkpt>
      <trkpt lat="59.9423603" lon="17.8215267">
        <ele>22.7283</ele>
        <time>2013-05-01T11:20:34Z</time>
      </trkpt>
      <trkpt lat="59.9424246" lon="17.8216066">
        <ele>22.7283</ele>
        <time>2013-05-01T11:20:35Z</time>
      </trkpt>
      <trkpt lat="59.9424879" lon="17.8216863">
        <ele>23.209</ele>
        <time>2013-05-01T11:20:36Z</time>
      </trkpt>
      <trkpt lat="59.9425506" lon="17.8217655">
        <ele>23.209</ele>
        <time>2013-05-01T11:20:37Z</time>
      </trkpt>
      <trkpt lat="59.9426133" lon="17.8218427">
        <ele>23.6896</ele>
        <time>2013-05-01T11:20:38Z</time>
      </trkpt>
      <trkpt lat="59.9426757" lon="17.8219189">
        <ele>23.6896</ele>
        <time>2013-05-01T11:20:39Z</time>
      </trkpt>
      <trkpt lat="59.942737" lon="17.821996">
        <ele>24.1703</ele>
        <time>2013-05-01T11:20:40Z</time>
      </trkpt>
      <trkpt lat="59.9427979" lon="17.8220734">
        <ele>24.1703</ele>
        <time>2013-05-01T11:20:41Z</time>
      </trkpt>
      <trkpt lat="59.9428589" lon="17.8221492">
        <ele>24.651</ele>
        <time>2013-05-01T11:20:42Z</time>
      </trkpt>
      <trkpt lat="59.9429195" lon="17.8222233">
        <ele>24.651</ele>
        <time>2013-05-01T11:20:43Z</time>
      </trkpt>
      <trkpt lat="59.9429785" lon="17.8222965">
        <ele>25.1317</ele>
        <time>2013-05-01T11:20:44Z</time>
      </trkpt>
      <trkpt lat="59.9430364" lon="17.822369">
        <ele>25.1317</ele>
        <time>2013-05-01T11:20:45Z</time>
      </trkpt>
      <trkpt lat="59.9430945" lon="17.8224414">
        <ele>25.6123</ele>
        <time>2013-05-01T11:20:46Z</time>
      </trkpt>
      <trkpt lat="59.9431538" lon="17.8225136">
        <ele>25.6123</ele>
        <time>2013-05-01T11:20:47Z</time>
      </trkpt>
      <trkpt lat="59.9432127" lon="17.8225871">
        <ele>26.0929</ele>
        <time>2013-05-01T11:20:48Z</time>
      </trkpt>
      <trkpt lat="59.9432716" lon="17.8226606">
        <ele>26.0929</ele>
        <time>2013-05-01T11:20:49Z</time>
      </trkpt>
      <trkpt lat="59.9433306" lon="17.8227335">
        <ele>26.5736</ele>
        <time>2013-05-01T11:20:50Z</time>
      </trkpt>
      <trkpt lat="59.9433893" lon="17.8228063">
        <ele>26.5736</ele>
        <time>2013-05-01T11:20:51Z</time>
      </trkpt>
      <trkpt lat="59.9434481" lon="17.8228792">
        <ele>27.0543</ele>
        <time>2013-05-01T11:20:52Z</time>
      </trkpt>
      <trkpt lat="59.9435064" lon="17.8229514">
        <ele>27.0543</ele>
        <time>2013-05-01T11:20:53Z</time>
      </trkpt>
      <trkpt lat="59.9435643" lon="17.8230234">
        <ele>27.5349</ele>
        <time>2013-05-01T11:20:54Z</time>
      </trkpt>
      <trkpt lat="59.9436219" lon="17.8230947">
        <ele>27.5349</ele>
        <time>2013-05-01T11:20:55Z</time>
      </trkpt>
      <trkpt lat="59.9436794" lon="17.8231645">
        <ele>27.5349</ele>
        <time>2013-05-01T11:20:56Z</time>
      </trkpt>
      <trkpt lat="59.9437357" lon="17.8232341">
        <ele>28.0155</ele>
        <time>2013-05-01T11:20:57Z</time>
      </trkpt>
      <trkpt lat="59.9437915" lon="17.8233033">
        <ele>28.0155</ele>
        <time>2013-05-01T11:20:58Z</time>
      </trkpt>
      <trkpt lat="59.9438476" lon="17.8233714">
        <ele>28.4962</ele>
        <time>2013-05-01T11:20:59Z</time>
      </trkpt>
      <trkpt lat="59.9439031" lon="17.8234408">
        <ele>28.4962</ele>
        <time>2013-05-01T11:21:00Z</time>
      </trkpt>
      <trkpt lat="59.9439583" lon="17.8235102">
        <ele>28.9769</ele>
        <time>2013-05-01T11:21:01Z</time>
      </trkpt>
      <trkpt lat="59.9440137" lon="17.8235794">
        <ele>29.4575</ele>
        <time>2013-05-01T11:21:02Z</time>
      </trkpt>
      <trkpt lat="59.9440678" lon="17.823651">
        <ele>29.4575</ele>
        <time>2013-05-01T11:21:03Z</time>
      </trkpt>
      <trkpt lat="59.944121" lon="17.8237242">
        <ele>29.9381</ele>
        <time>2013-05-01T11:21:04Z</time>
      </trkpt>
      <trkpt lat="59.9441741" lon="17.8237928">
        <ele>29.9381</ele>
        <time>2013-05-01T11:21:05Z</time>
      </trkpt>
      <trkpt lat="59.9442264" lon="17.823854">
        <ele>30.4188</ele>
        <time>2013-05-01T11:21:06Z</time>
      </trkpt>
      <trkpt lat="59.9442777" lon="17.8239113">
        <ele>30.4188</ele>
        <time>2013-05-01T11:21:07Z</time>
      </trkpt>
      <trkpt lat="59.9443283" lon="17.8239681">
        <ele>30.8995</ele>
        <time>2013-05-01T11:21:08Z</time>
      </trkpt>
      <trkpt lat="59.9443791" lon="17.8240239">
        <ele>30.8995</ele>
        <time>2013-05-01T11:21:09Z</time>
      </trkpt>
      <trkpt lat="59.9444303" lon="17.8240779">
        <ele>30.8995</ele>
        <time>2013-05-01T11:21:10Z</time>
      </trkpt>
      <trkpt lat="59.9444827" lon="17.8241298">
        <ele>30.8995</ele>
        <time>2013-05-01T11:21:11Z</time>
      </trkpt>
      <trkpt lat="59.9445349" lon="17.824181">
        <ele>30.8995</ele>
        <time>2013-05-01T11:21:12Z</time>
      </trkpt>
      <trkpt lat="59.9445875" lon="17.8242344">
        <ele>30.8995</ele>
        <time>2013-05-01T11:21:13Z</time>
      </trkpt>
      <trkpt lat="59.9446416" lon="17.8242893">
        <ele>30.8995</ele>
        <time>2013-05-01T11:21:14Z</time>
      </trkpt>
      <trkpt lat="59.9446966" lon="17.8243487">
        <ele>30.4188</ele>
        <time>2013-05-01T11:21:15Z</time>
      </trkpt>
      <trkpt lat="59.9447526" lon="17.8244093">
        <ele>30.4188</ele>
        <time>2013-05-01T11:21:16Z</time>
      </trkpt>
      <trkpt lat="59.9448097" lon="17.8244674">
        <ele>30.4188</ele>
        <time>2013-05-01T11:21:17Z</time>
      </trkpt>
      <trkpt lat="59.9448684" lon="17.8245245">
        <ele>29.9381</ele>
        <time>2013-05-01T11:21:18Z</time>
      </trkpt>
      <trkpt lat="59.9449261" lon="17.8245913">
        <ele>29.4575</ele>
        <time>2013-05-01T11:21:19Z</time>
      </trkpt>
      <trkpt lat="59.9449831" lon="17.8246596">
        <ele>28.9769</ele>
        <time>2013-05-01T11:21:20Z</time>
      </trkpt>
      <trkpt lat="59.9450555" lon="17.8246888">
        <ele>28.4962</ele>
        <time>2013-05-01T11:21:21Z</time>
      </trkpt>
      <trkpt lat="59.9451285" lon="17.8247615">
        <ele>27.5349</ele>
        <time>2013-05-01T11:21:22Z</time>
      </trkpt>
      <trkpt lat="59.9451959" lon="17.8248177">
        <ele>27.0543</ele>
        <time>2013-05-01T11:21:23Z</time>
      </trkpt>
      <trkpt lat="59.9452606" lon="17.8248875">
        <ele>26.5736</ele>
        <time>2013-05-01T11:21:24Z</time>
      </trkpt>
      <trkpt lat="59.9453236" lon="17.8249591">
        <ele>26.0929</ele>
        <time>2013-05-01T11:21:25Z</time>
      </trkpt>
      <trkpt lat="59.9453885" lon="17.8250288">
        <ele>26.0929</ele>
        <time>2013-05-01T11:21:26Z</time>
      </trkpt>
      <trkpt lat="59.945454" lon="17.8250984">
        <ele>26.0929</ele>
        <time>2013-05-01T11:21:27Z</time>
      </trkpt>
      <trkpt lat="59.9455204" lon="17.8251687">
        <ele>25.6123</ele>
        <time>2013-05-01T11:21:28Z</time>
      </trkpt>
      <trkpt lat="59.9455882" lon="17.8252419">
        <ele>25.6123</ele>
        <time>2013-05-01T11:21:29Z</time>
      </trkpt>
      <trkpt lat="59.9456595" lon="17.8253125">
        <ele>26.0929</ele>
        <time>2013-05-01T11:21:30Z</time>
      </trkpt>
      <trkpt lat="59.945729" lon="17.8253847">
        <ele>26.0929</ele>
        <time>2013-05-01T11:21:31Z</time>
      </trkpt>
      <trkpt lat="59.945799" lon="17.8254522">
        <ele>26.5736</ele>
        <time>2013-05-01T11:21:32Z</time>
      </trkpt>
      <trkpt lat="59.945868" lon="17.8255222">
        <ele>26.5736</ele>
        <time>2013-05-01T11:21:33Z</time>
      </trkpt>
      <trkpt lat="59.9459372" lon="17.825593">
        <ele>26.5736</ele>
        <time>2013-05-01T11:21:34Z</time>
      </trkpt>
      <trkpt lat="59.9460066" lon="17.8256636">
        <ele>26.0929</ele>
        <time>2013-05-01T11:21:35Z</time>
      </trkpt>
      <trkpt lat="59.9460762" lon="17.8257361">
        <ele>26.0929</ele>
        <time>2013-05-01T11:21:36Z</time>
      </trkpt>
      <trkpt lat="59.9461471" lon="17.8258092">
        <ele>26.0929</ele>
        <time>2013-05-01T11:21:37Z</time>
      </trkpt>
      <trkpt lat="59.9462196" lon="17.8258792">
        <ele>26.0929</ele>
        <time>2013-05-01T11:21:38Z</time>
      </trkpt>
      <trkpt lat="59.9462921" lon="17.8259515">
        <ele>26.0929</ele>
        <time>2013-05-01T11:21:39Z</time>
      </trkpt>
      <trkpt lat="59.9463646" lon="17.8260257">
        <ele>26.5736</ele>
        <time>2013-05-01T11:21:40Z</time>
      </trkpt>
      <trkpt lat="59.9464377" lon="17.8261004">
        <ele>26.5736</ele>
        <time>2013-05-01T11:21:41Z</time>
      </trkpt>
      <trkpt lat="59.9465105" lon="17.826178">
        <ele>26.5736</ele>
        <time>2013-05-01T11:21:42Z</time>
      </trkpt>
      <trkpt lat="59.9465853" lon="17.8262552">
        <ele>26.5736</ele>
        <time>2013-05-01T11:21:43Z</time>
      </trkpt>
      <trkpt lat="59.9466599" lon="17.8263323">
        <ele>26.5736</ele>
        <time>2013-05-01T11:21:44Z</time>
      </trkpt>
      <trkpt lat="59.9467345" lon="17.8264106">
        <ele>26.5736</ele>
        <time>2013-05-01T11:21:45Z</time>
      </trkpt>
      <trkpt lat="59.9468094" lon="17.8264903">
        <ele>26.5736</ele>
        <time>2013-05-01T11:21:46Z</time>
      </trkpt>
      <trkpt lat="59.9468833" lon="17.8265711">
        <ele>26.0929</ele>
        <time>2013-05-01T11:21:47Z</time>
      </trkpt>
      <trkpt lat="59.9469579" lon="17.8266505">
        <ele>26.0929</ele>
        <time>2013-05-01T11:21:48Z</time>
      </trkpt>
      <trkpt lat="59.9470323" lon="17.8267305">
        <ele>25.6123</ele>
        <time>2013-05-01T11:21:49Z</time>
      </trkpt>
      <trkpt lat="59.9471063" lon="17.8268108">
        <ele>25.6123</ele>
        <time>2013-05-01T11:21:50Z</time>
      </trkpt>
      <trkpt lat="59.947182" lon="17.8268912">
        <ele>25.6123</ele>
        <time>2013-05-01T11:21:51Z</time>
      </trkpt>
      <trkpt lat="59.9472578" lon="17.8269708">
        <ele>25.6123</ele>
        <time>2013-05-01T11:21:52Z</time>
      </trkpt>
      <trkpt lat="59.9473333" lon="17.8270492">
        <ele>26.0929</ele>
        <time>2013-05-01T11:21:53Z</time>
      </trkpt>
      <trkpt lat="59.9474082" lon="17.827127">
        <ele>26.0929</ele>
        <time>2013-05-01T11:21:54Z</time>
      </trkpt>
      <trkpt lat="59.9474824" lon="17.8272046">
        <ele>26.0929</ele>
        <time>2013-05-01T11:21:55Z</time>
      </trkpt>
      <trkpt lat="59.9475564" lon="17.8272813">
        <ele>26.0929</ele>
        <time>2013-05-01T11:21:56Z</time>
      </trkpt>
      <trkpt lat="59.9476302" lon="17.8273574">
        <ele>26.0929</ele>
        <time>2013-05-01T11:21:57Z</time>
      </trkpt>
      <trkpt lat="59.9477043" lon="17.8274342">
        <ele>26.0929</ele>
        <time>2013-05-01T11:21:58Z</time>
      </trkpt>
      <trkpt lat="59.9477784" lon="17.8275128">
        <ele>26.0929</ele>
        <time>2013-05-01T11:21:59Z</time>
      </trkpt>
      <trkpt lat="59.9478523" lon="17.8275911">
        <ele>26.5736</ele>
        <time>2013-05-01T11:22:00Z</time>
      </trkpt>
      <trkpt lat="59.947926" lon="17.8276678">
        <ele>26.5736</ele>
        <time>2013-05-01T11:22:01Z</time>
      </trkpt>
      <trkpt lat="59.9479958" lon="17.8277466">
        <ele>26.0929</ele>
        <time>2013-05-01T11:22:02Z</time>
      </trkpt>
      <trkpt lat="59.9480627" lon="17.8278246">
        <ele>25.6123</ele>
        <time>2013-05-01T11:22:03Z</time>
      </trkpt>
      <trkpt lat="59.9481314" lon="17.8278988">
        <ele>25.6123</ele>
        <time>2013-05-01T11:22:04Z</time>
      </trkpt>
      <trkpt lat="59.9482003" lon="17.8279483">
        <ele>25.1317</ele>
        <time>2013-05-01T11:22:05Z</time>
      </trkpt>
      <trkpt lat="59.9482777" lon="17.8280172">
        <ele>25.1317</ele>
        <time>2013-05-01T11:22:06Z</time>
      </trkpt>
      <trkpt lat="59.9483393" lon="17.8281199">
        <ele>24.651</ele>
        <time>2013-05-01T11:22:07Z</time>
      </trkpt>
      <trkpt lat="59.9484135" lon="17.828196">
        <ele>24.651</ele>
        <time>2013-05-01T11:22:08Z</time>
      </trkpt>
      <trkpt lat="59.9484858" lon="17.8282607">
        <ele>24.651</ele>
        <time>2013-05-01T11:22:09Z</time>
      </trkpt>
      <trkpt lat="59.9485553" lon="17.8283189">
        <ele>24.651</ele>
        <time>2013-05-01T11:22:10Z</time>
      </trkpt>
      <trkpt lat="59.9486295" lon="17.8283743">
        <ele>24.651</ele>
        <time>2013-05-01T11:22:11Z</time>
      </trkpt>
      <trkpt lat="59.9487076" lon="17.828419">
        <ele>24.651</ele>
        <time>2013-05-01T11:22:12Z</time>
      </trkpt>
      <trkpt lat="59.9487849" lon="17.8284608">
        <ele>24.651</ele>
        <time>2013-05-01T11:22:13Z</time>
      </trkpt>
      <trkpt lat="59.9488602" lon="17.8285143">
        <ele>24.1703</ele>
        <time>2013-05-01T11:22:14Z</time>
      </trkpt>
      <trkpt lat="59.9489319" lon="17.8285829">
        <ele>24.1703</ele>
        <time>2013-05-01T11:22:15Z</time>
      </trkpt>
      <trkpt lat="59.9490029" lon="17.8286586">
        <ele>24.1703</ele>
        <time>2013-05-01T11:22:16Z</time>
      </trkpt>
      <trkpt lat="59.9490733" lon="17.828737">
        <ele>24.1703</ele>
        <time>2013-05-01T11:22:17Z</time>
      </trkpt>
      <trkpt lat="59.9491433" lon="17.8288179">
        <ele>24.1703</ele>
        <time>2013-05-01T11:22:18Z</time>
      </trkpt>
      <trkpt lat="59.9492133" lon="17.828897">
        <ele>24.1703</ele>
        <time>2013-05-01T11:22:19Z</time>
      </trkpt>
      <trkpt lat="59.9492843" lon="17.8289689">
        <ele>24.1703</ele>
        <time>2013-05-01T11:22:20Z</time>
      </trkpt>
      <trkpt lat="59.9493554" lon="17.8290378">
        <ele>24.651</ele>
        <time>2013-05-01T11:22:21Z</time>
      </trkpt>
      <trkpt lat="59.9494241" lon="17.8291139">
        <ele>24.651</ele>
        <time>2013-05-01T11:22:22Z</time>
      </trkpt>
      <trkpt lat="59.9494897" lon="17.829198">
        <ele>24.651</ele>
        <time>2013-05-01T11:22:23Z</time>
      </trkpt>
      <trkpt lat="59.9495515" lon="17.829287">
        <ele>24.651</ele>
        <time>2013-05-01T11:22:24Z</time>
      </trkpt>
      <trkpt lat="59.94961" lon="17.8293786">
        <ele>25.1317</ele>
        <time>2013-05-01T11:22:25Z</time>
      </trkpt>
      <trkpt lat="59.949666" lon="17.8294676">
        <ele>24.651</ele>
        <time>2013-05-01T11:22:26Z</time>
      </trkpt>
      <trkpt lat="59.9497193" lon="17.8295518">
        <ele>25.1317</ele>
        <time>2013-05-01T11:22:27Z</time>
      </trkpt>
      <trkpt lat="59.9497696" lon="17.8296346">
        <ele>25.1317</ele>
        <time>2013-05-01T11:22:28Z</time>
      </trkpt>
      <trkpt lat="59.9498196" lon="17.8297117">
        <ele>25.1317</ele>
        <time>2013-05-01T11:22:29Z</time>
      </trkpt>
      <trkpt lat="59.9498732" lon="17.8297696">
        <ele>25.1317</ele>
        <time>2013-05-01T11:22:30Z</time>
      </trkpt>
      <trkpt lat="59.9499316" lon="17.8297619">
        <ele>25.1317</ele>
        <time>2013-05-01T11:22:31Z</time>
      </trkpt>
      <trkpt lat="59.9499986" lon="17.8296593">
        <ele>25.6123</ele>
        <time>2013-05-01T11:22:32Z</time>
      </trkpt>
      <trkpt lat="59.9500575" lon="17.8295471">
        <ele>25.6123</ele>
        <time>2013-05-01T11:22:33Z</time>
      </trkpt>
      <trkpt lat="59.9500881" lon="17.8294184">
        <ele>25.6123</ele>
        <time>2013-05-01T11:22:34Z</time>
      </trkpt>
      <trkpt lat="59.9501051" lon="17.8292797">
        <ele>25.6123</ele>
        <time>2013-05-01T11:22:35Z</time>
      </trkpt>
      <trkpt lat="59.9501145" lon="17.8291335">
        <ele>25.1317</ele>
        <time>2013-05-01T11:22:36Z</time>
      </trkpt>
      <trkpt lat="59.9501191" lon="17.8289872">
        <ele>24.651</ele>
        <time>2013-05-01T11:22:37Z</time>
      </trkpt>
      <trkpt lat="59.9501202" lon="17.8288438">
        <ele>24.651</ele>
        <time>2013-05-01T11:22:38Z</time>
      </trkpt>
      <trkpt lat="59.9501122" lon="17.828707">
        <ele>24.1703</ele>
        <time>2013-05-01T11:22:39Z</time>
      </trkpt>
      <trkpt lat="59.9501071" lon="17.8285665">
        <ele>23.209</ele>
        <time>2013-05-01T11:22:40Z</time>
      </trkpt>
      <trkpt lat="59.9501027" lon="17.8284233">
        <ele>22.7283</ele>
        <time>2013-05-01T11:22:41Z</time>
      </trkpt>
      <trkpt lat="59.9500975" lon="17.8282775">
        <ele>22.7283</ele>
        <time>2013-05-01T11:22:42Z</time>
      </trkpt>
      <trkpt lat="59.9500926" lon="17.8281284">
        <ele>22.2476</ele>
        <time>2013-05-01T11:22:43Z</time>
      </trkpt>
      <trkpt lat="59.9500891" lon="17.827977">
        <ele>21.767</ele>
        <time>2013-05-01T11:22:44Z</time>
      </trkpt>
      <trkpt lat="59.9500871" lon="17.8278246">
        <ele>21.767</ele>
        <time>2013-05-01T11:22:45Z</time>
      </trkpt>
      <trkpt lat="59.9500848" lon="17.8276708">
        <ele>21.2864</ele>
        <time>2013-05-01T11:22:46Z</time>
      </trkpt>
      <trkpt lat="59.9500818" lon="17.8275155">
        <ele>20.8057</ele>
        <time>2013-05-01T11:22:47Z</time>
      </trkpt>
      <trkpt lat="59.9500798" lon="17.8273595">
        <ele>20.8057</ele>
        <time>2013-05-01T11:22:48Z</time>
      </trkpt>
      <trkpt lat="59.9500812" lon="17.8272036">
        <ele>20.8057</ele>
        <time>2013-05-01T11:22:49Z</time>
      </trkpt>
      <trkpt lat="59.9500846" lon="17.8270482">
        <ele>20.325</ele>
        <time>2013-05-01T11:22:50Z</time>
      </trkpt>
      <trkpt lat="59.9500895" lon="17.8268929">
        <ele>20.325</ele>
        <time>2013-05-01T11:22:51Z</time>
      </trkpt>
      <trkpt lat="59.9500967" lon="17.8267378">
        <ele>20.325</ele>
        <time>2013-05-01T11:22:52Z</time>
      </trkpt>
      <trkpt lat="59.9501071" lon="17.8265834">
        <ele>19.8444</ele>
        <time>2013-05-01T11:22:53Z</time>
      </trkpt>
      <trkpt lat="59.9501248" lon="17.8264251">
        <ele>19.8444</ele>
        <time>2013-05-01T11:22:54Z</time>
      </trkpt>
      <trkpt lat="59.9501439" lon="17.82627">
        <ele>19.3638</ele>
        <time>2013-05-01T11:22:55Z</time>
      </trkpt>
      <trkpt lat="59.9501668" lon="17.8261169">
        <ele>19.3638</ele>
        <time>2013-05-01T11:22:56Z</time>
      </trkpt>
      <trkpt lat="59.9501933" lon="17.8259667">
        <ele>19.8444</ele>
        <time>2013-05-01T11:22:57Z</time>
      </trkpt>
      <trkpt lat="59.9502237" lon="17.8258204">
        <ele>19.8444</ele>
        <time>2013-05-01T11:22:58Z</time>
      </trkpt>
      <trkpt lat="59.9502574" lon="17.8256765">
        <ele>19.8444</ele>
        <time>2013-05-01T11:22:59Z</time>
      </trkpt>
      <trkpt lat="59.9502863" lon="17.8255305">
        <ele>20.325</ele>
        <time>2013-05-01T11:23:00Z</time>
      </trkpt>
      <trkpt lat="59.9503146" lon="17.825384">
        <ele>20.325</ele>
        <time>2013-05-01T11:23:01Z</time>
      </trkpt>
      <trkpt lat="59.9503436" lon="17.8252388">
        <ele>20.8057</ele>
        <time>2013-05-01T11:23:02Z</time>
      </trkpt>
      <trkpt lat="59.9503795" lon="17.8250926">
        <ele>20.325</ele>
        <time>2013-05-01T11:23:03Z</time>
      </trkpt>
      <trkpt lat="59.9504144" lon="17.8249464">
        <ele>20.325</ele>
        <time>2013-05-01T11:23:04Z</time>
      </trkpt>
      <trkpt lat="59.9504479" lon="17.8247993">
        <ele>20.8057</ele>
        <time>2013-05-01T11:23:05Z</time>
      </trkpt>
      <trkpt lat="59.9504795" lon="17.8246533">
        <ele>20.8057</ele>
        <time>2013-05-01T11:23:06Z</time>
      </trkpt>
      <trkpt lat="59.9505135" lon="17.8245098">
        <ele>20.8057</ele>
        <time>2013-05-01T11:23:07Z</time>
      </trkpt>
      <trkpt lat="59.9505498" lon="17.8243679">
        <ele>20.8057</ele>
        <time>2013-05-01T11:23:08Z</time>
      </trkpt>
      <trkpt lat="59.9505814" lon="17.8242207">
        <ele>20.325</ele>
        <time>2013-05-01T11:23:09Z</time>
      </trkpt>
      <trkpt lat="59.9506086" lon="17.8240773">
        <ele>19.8444</ele>
        <time>2013-05-01T11:23:10Z</time>
      </trkpt>
      <trkpt lat="59.9506351" lon="17.8239303">
        <ele>19.3638</ele>
        <time>2013-05-01T11:23:11Z</time>
      </trkpt>
      <trkpt lat="59.9506599" lon="17.8237822">
        <ele>18.8831</ele>
        <time>2013-05-01T11:23:12Z</time>
      </trkpt>
      <trkpt lat="59.9506852" lon="17.8236377">
        <ele>18.8831</ele>
        <time>2013-05-01T11:23:13Z</time>
      </trkpt>
      <trkpt lat="59.9507059" lon="17.8234925">
        <ele>18.4023</ele>
        <time>2013-05-01T11:23:14Z</time>
      </trkpt>
      <trkpt lat="59.9507259" lon="17.8233427">
        <ele>18.4023</ele>
        <time>2013-05-01T11:23:15Z</time>
      </trkpt>
      <trkpt lat="59.950743" lon="17.8231911">
        <ele>18.4023</ele>
        <time>2013-05-01T11:23:16Z</time>
      </trkpt>
      <trkpt lat="59.950759" lon="17.8230391">
        <ele>17.9218</ele>
        <time>2013-05-01T11:23:17Z</time>
      </trkpt>
      <trkpt lat="59.9507764" lon="17.822887">
        <ele>17.9218</ele>
        <time>2013-05-01T11:23:18Z</time>
      </trkpt>
      <trkpt lat="59.9507929" lon="17.8227343">
        <ele>17.4412</ele>
        <time>2013-05-01T11:23:19Z</time>
      </trkpt>
      <trkpt lat="59.9508107" lon="17.8225949">
        <ele>16.4797</ele>
        <time>2013-05-01T11:23:20Z</time>
      </trkpt>
      <trkpt lat="59.950823" lon="17.8224498">
        <ele>16.9604</ele>
        <time>2013-05-01T11:23:21Z</time>
      </trkpt>
      <trkpt lat="59.9508378" lon="17.8223094">
        <ele>17.4412</ele>
        <time>2013-05-01T11:23:22Z</time>
      </trkpt>
      <trkpt lat="59.9508521" lon="17.8221705">
        <ele>17.9218</ele>
        <time>2013-05-01T11:23:23Z</time>
      </trkpt>
      <trkpt lat="59.9508599" lon="17.8220286">
        <ele>18.8831</ele>
        <time>2013-05-01T11:23:24Z</time>
      </trkpt>
      <trkpt lat="59.9508717" lon="17.8218938">
        <ele>19.3638</ele>
        <time>2013-05-01T11:23:25Z</time>
      </trkpt>
      <trkpt lat="59.9508843" lon="17.8217641">
        <ele>19.8444</ele>
        <time>2013-05-01T11:23:26Z</time>
      </trkpt>
      <trkpt lat="59.9508962" lon="17.821636">
        <ele>20.325</ele>
        <time>2013-05-01T11:23:27Z</time>
      </trkpt>
      <trkpt lat="59.9509077" lon="17.8215036">
        <ele>20.325</ele>
        <time>2013-05-01T11:23:28Z</time>
      </trkpt>
      <trkpt lat="59.9509189" lon="17.8213687">
        <ele>20.325</ele>
        <time>2013-05-01T11:23:29Z</time>
      </trkpt>
      <trkpt lat="59.9509303" lon="17.8212309">
        <ele>20.325</ele>
        <time>2013-05-01T11:23:30Z</time>
      </trkpt>
      <trkpt lat="59.9509423" lon="17.8210917">
        <ele>20.8057</ele>
        <time>2013-05-01T11:23:31Z</time>
      </trkpt>
      <trkpt lat="59.9509537" lon="17.8209527">
        <ele>20.8057</ele>
        <time>2013-05-01T11:23:32Z</time>
      </trkpt>
      <trkpt lat="59.950964" lon="17.820812">
        <ele>21.2864</ele>
        <time>2013-05-01T11:23:33Z</time>
      </trkpt>
      <trkpt lat="59.9509735" lon="17.8206689">
        <ele>21.767</ele>
        <time>2013-05-01T11:23:34Z</time>
      </trkpt>
      <trkpt lat="59.9509815" lon="17.820525">
        <ele>21.2864</ele>
        <time>2013-05-01T11:23:35Z</time>
      </trkpt>
      <trkpt lat="59.950989" lon="17.8203809">
        <ele>21.2864</ele>
        <time>2013-05-01T11:23:36Z</time>
      </trkpt>
      <trkpt lat="59.9509966" lon="17.8202368">
        <ele>21.2864</ele>
        <time>2013-05-01T11:23:37Z</time>
      </trkpt>
      <trkpt lat="59.9510028" lon="17.8200919">
        <ele>21.2864</ele>
        <time>2013-05-01T11:23:38Z</time>
      </trkpt>
      <trkpt lat="59.9510077" lon="17.8199475">
        <ele>21.767</ele>
        <time>2013-05-01T11:23:39Z</time>
      </trkpt>
      <trkpt lat="59.9510131" lon="17.8198039">
        <ele>22.2476</ele>
        <time>2013-05-01T11:23:40Z</time>
      </trkpt>
      <trkpt lat="59.951016" lon="17.8196613">
        <ele>22.2476</ele>
        <time>2013-05-01T11:23:41Z</time>
      </trkpt>
      <trkpt lat="59.951016" lon="17.8195174">
        <ele>22.2476</ele>
        <time>2013-05-01T11:23:42Z</time>
      </trkpt>
      <trkpt lat="59.9510153" lon="17.819373">
        <ele>22.7283</ele>
        <time>2013-05-01T11:23:43Z</time>
      </trkpt>
      <trkpt lat="59.9510177" lon="17.8192298">
        <ele>22.7283</ele>
        <time>2013-05-01T11:23:44Z</time>
      </trkpt>
      <trkpt lat="59.951021" lon="17.8190862">
        <ele>22.2476</ele>
        <time>2013-05-01T11:23:45Z</time>
      </trkpt>
      <trkpt lat="59.951026" lon="17.818942">
        <ele>22.2476</ele>
        <time>2013-05-01T11:23:46Z</time>
      </trkpt>
      <trkpt lat="59.9510345" lon="17.8187998">
        <ele>22.7283</ele>
        <time>2013-05-01T11:23:47Z</time>
      </trkpt>
      <trkpt lat="59.9510459" lon="17.818659">
        <ele>23.209</ele>
        <time>2013-05-01T11:23:48Z</time>
      </trkpt>
      <trkpt lat="59.9510593" lon="17.8185207">
        <ele>23.209</ele>
        <time>2013-05-01T11:23:49Z</time>
      </trkpt>
      <trkpt lat="59.9510718" lon="17.8183833">
        <ele>23.209</ele>
        <time>2013-05-01T11:23:50Z</time>
      </trkpt>
      <trkpt lat="59.9510879" lon="17.8182487">
        <ele>24.1703</ele>
        <time>2013-05-01T11:23:51Z</time>
      </trkpt>
      <trkpt lat="59.9511087" lon="17.818111">
        <ele>24.1703</ele>
        <time>2013-05-01T11:23:52Z</time>
      </trkpt>
      <trkpt lat="59.9511272" lon="17.8179696">
        <ele>24.1703</ele>
        <time>2013-05-01T11:23:53Z</time>
      </trkpt>
      <trkpt lat="59.9511433" lon="17.8178241">
        <ele>24.1703</ele>
        <time>2013-05-01T11:23:54Z</time>
      </trkpt>
      <trkpt lat="59.9511636" lon="17.8176769">
        <ele>23.6896</ele>
        <time>2013-05-01T11:23:55Z</time>
      </trkpt>
      <trkpt lat="59.9511804" lon="17.8175296">
        <ele>23.6896</ele>
        <time>2013-05-01T11:23:56Z</time>
      </trkpt>
      <trkpt lat="59.9511981" lon="17.8173835">
        <ele>23.6896</ele>
        <time>2013-05-01T11:23:57Z</time>
      </trkpt>
      <trkpt lat="59.9512178" lon="17.8172355">
        <ele>23.209</ele>
        <time>2013-05-01T11:23:58Z</time>
      </trkpt>
      <trkpt lat="59.951235" lon="17.8170874">
        <ele>22.7283</ele>
        <time>2013-05-01T11:23:59Z</time>
      </trkpt>
      <trkpt lat="59.951251" lon="17.8169385">
        <ele>22.2476</ele>
        <time>2013-05-01T11:24:00Z</time>
      </trkpt>
      <trkpt lat="59.9512676" lon="17.816788">
        <ele>21.767</ele>
        <time>2013-05-01T11:24:01Z</time>
      </trkpt>
      <trkpt lat="59.9512846" lon="17.8166371">
        <ele>21.2864</ele>
        <time>2013-05-01T11:24:02Z</time>
      </trkpt>
      <trkpt lat="59.9513005" lon="17.8164854">
        <ele>20.8057</ele>
        <time>2013-05-01T11:24:03Z</time>
      </trkpt>
      <trkpt lat="59.9513159" lon="17.8163332">
        <ele>20.8057</ele>
        <time>2013-05-01T11:24:04Z</time>
      </trkpt>
      <trkpt lat="59.9513308" lon="17.8161813">
        <ele>20.8057</ele>
        <time>2013-05-01T11:24:05Z</time>
      </trkpt>
      <trkpt lat="59.9513443" lon="17.8160287">
        <ele>20.325</ele>
        <time>2013-05-01T11:24:06Z</time>
      </trkpt>
      <trkpt lat="59.9513563" lon="17.8158759">
        <ele>20.325</ele>
        <time>2013-05-01T11:24:07Z</time>
      </trkpt>
      <trkpt lat="59.9513664" lon="17.8157228">
        <ele>19.8444</ele>
        <time>2013-05-01T11:24:08Z</time>
      </trkpt>
      <trkpt lat="59.9513748" lon="17.81557">
        <ele>19.8444</ele>
        <time>2013-05-01T11:24:09Z</time>
      </trkpt>
      <trkpt lat="59.9513825" lon="17.8154171">
        <ele>19.3638</ele>
        <time>2013-05-01T11:24:10Z</time>
      </trkpt>
      <trkpt lat="59.9513891" lon="17.8152638">
        <ele>18.8831</ele>
        <time>2013-05-01T11:24:11Z</time>
      </trkpt>
      <trkpt lat="59.9513935" lon="17.8151102">
        <ele>18.4023</ele>
        <time>2013-05-01T11:24:12Z</time>
      </trkpt>
      <trkpt lat="59.9513981" lon="17.8149577">
        <ele>18.4023</ele>
        <time>2013-05-01T11:24:13Z</time>
      </trkpt>
      <trkpt lat="59.9514029" lon="17.8148045">
        <ele>17.9218</ele>
        <time>2013-05-01T11:24:14Z</time>
      </trkpt>
      <trkpt lat="59.9514075" lon="17.8146512">
        <ele>17.4412</ele>
        <time>2013-05-01T11:24:15Z</time>
      </trkpt>
      <trkpt lat="59.9514091" lon="17.8145">
        <ele>17.4412</ele>
        <time>2013-05-01T11:24:16Z</time>
      </trkpt>
      <trkpt lat="59.9514094" lon="17.8143478">
        <ele>17.9218</ele>
        <time>2013-05-01T11:24:17Z</time>
      </trkpt>
      <trkpt lat="59.9514083" lon="17.8141929">
        <ele>17.9218</ele>
        <time>2013-05-01T11:24:18Z</time>
      </trkpt>
      <trkpt lat="59.9514064" lon="17.814038">
        <ele>17.9218</ele>
        <time>2013-05-01T11:24:19Z</time>
      </trkpt>
      <trkpt lat="59.9514049" lon="17.8138843">
        <ele>17.9218</ele>
        <time>2013-05-01T11:24:20Z</time>
      </trkpt>
      <trkpt lat="59.9514047" lon="17.81373">
        <ele>17.9218</ele>
        <time>2013-05-01T11:24:21Z</time>
      </trkpt>
      <trkpt lat="59.951404" lon="17.8135759">
        <ele>18.4023</ele>
        <time>2013-05-01T11:24:22Z</time>
      </trkpt>
      <trkpt lat="59.9514021" lon="17.8134231">
        <ele>18.4023</ele>
        <time>2013-05-01T11:24:23Z</time>
      </trkpt>
      <trkpt lat="59.9513992" lon="17.813271">
        <ele>18.8831</ele>
        <time>2013-05-01T11:24:24Z</time>
      </trkpt>
      <trkpt lat="59.9513966" lon="17.813119">
        <ele>18.8831</ele>
        <time>2013-05-01T11:24:25Z</time>
      </trkpt>
      <trkpt lat="59.9513938" lon="17.8129667">
        <ele>19.3638</ele>
        <time>2013-05-01T11:24:26Z</time>
      </trkpt>
      <trkpt lat="59.9513924" lon="17.8128144">
        <ele>19.8444</ele>
        <time>2013-05-01T11:24:27Z</time>
      </trkpt>
      <trkpt lat="59.9513914" lon="17.8126631">
        <ele>20.325</ele>
        <time>2013-05-01T11:24:28Z</time>
      </trkpt>
      <trkpt lat="59.9513893" lon="17.8125129">
        <ele>20.325</ele>
        <time>2013-05-01T11:24:29Z</time>
      </trkpt>
      <trkpt lat="59.9513862" lon="17.8123638">
        <ele>20.8057</ele>
        <time>2013-05-01T11:24:30Z</time>
      </trkpt>
      <trkpt lat="59.9513857" lon="17.8122174">
        <ele>20.8057</ele>
        <time>2013-05-01T11:24:31Z</time>
      </trkpt>
      <trkpt lat="59.9513883" lon="17.8120723">
        <ele>21.2864</ele>
        <time>2013-05-01T11:24:32Z</time>
      </trkpt>
      <trkpt lat="59.9513934" lon="17.8119274">
        <ele>21.2864</ele>
        <time>2013-05-01T11:24:33Z</time>
      </trkpt>
      <trkpt lat="59.9514006" lon="17.8117846">
        <ele>21.767</ele>
        <time>2013-05-01T11:24:34Z</time>
      </trkpt>
      <trkpt lat="59.9514101" lon="17.8116429">
        <ele>22.2476</ele>
        <time>2013-05-01T11:24:35Z</time>
      </trkpt>
      <trkpt lat="59.9514215" lon="17.8115022">
        <ele>22.2476</ele>
        <time>2013-05-01T11:24:36Z</time>
      </trkpt>
      <trkpt lat="59.9514349" lon="17.8113643">
        <ele>22.7283</ele>
        <time>2013-05-01T11:24:37Z</time>
      </trkpt>
      <trkpt lat="59.9514513" lon="17.811227">
        <ele>23.209</ele>
        <time>2013-05-01T11:24:38Z</time>
      </trkpt>
      <trkpt lat="59.9514686" lon="17.8110899">
        <ele>23.6896</ele>
        <time>2013-05-01T11:24:39Z</time>
      </trkpt>
      <trkpt lat="59.9514882" lon="17.8109529">
        <ele>23.6896</ele>
        <time>2013-05-01T11:24:40Z</time>
      </trkpt>
      <trkpt lat="59.9515106" lon="17.8108174">
        <ele>24.1703</ele>
        <time>2013-05-01T11:24:41Z</time>
      </trkpt>
      <trkpt lat="59.9515354" lon="17.8106834">
        <ele>24.651</ele>
        <time>2013-05-01T11:24:42Z</time>
      </trkpt>
      <trkpt lat="59.9515613" lon="17.8105497">
        <ele>24.651</ele>
        <time>2013-05-01T11:24:43Z</time>
      </trkpt>
      <trkpt lat="59.9515889" lon="17.810418">
        <ele>25.1317</ele>
        <time>2013-05-01T11:24:44Z</time>
      </trkpt>
      <trkpt lat="59.9516174" lon="17.810287">
        <ele>25.1317</ele>
        <time>2013-05-01T11:24:45Z</time>
      </trkpt>
      <trkpt lat="59.9516478" lon="17.8101583">
        <ele>25.6123</ele>
        <time>2013-05-01T11:24:46Z</time>
      </trkpt>
      <trkpt lat="59.9516805" lon="17.8100311">
        <ele>26.0929</ele>
        <time>2013-05-01T11:24:47Z</time>
      </trkpt>
      <trkpt lat="59.9517145" lon="17.8099052">
        <ele>26.0929</ele>
        <time>2013-05-01T11:24:48Z</time>
      </trkpt>
      <trkpt lat="59.9517491" lon="17.8097802">
        <ele>26.5736</ele>
        <time>2013-05-01T11:24:49Z</time>
      </trkpt>
      <trkpt lat="59.9517829" lon="17.8096545">
        <ele>26.5736</ele>
        <time>2013-05-01T11:24:50Z</time>
      </trkpt>
      <trkpt lat="59.9518181" lon="17.8095289">
        <ele>26.5736</ele>
        <time>2013-05-01T11:24:51Z</time>
      </trkpt>
      <trkpt lat="59.9518523" lon="17.8094012">
        <ele>27.0543</ele>
        <time>2013-05-01T11:24:52Z</time>
      </trkpt>
      <trkpt lat="59.9518862" lon="17.8092736">
        <ele>27.0543</ele>
        <time>2013-05-01T11:24:53Z</time>
      </trkpt>
      <trkpt lat="59.9519212" lon="17.8091462">
        <ele>27.0543</ele>
        <time>2013-05-01T11:24:54Z</time>
      </trkpt>
      <trkpt lat="59.9519565" lon="17.8090187">
        <ele>27.5349</ele>
        <time>2013-05-01T11:24:55Z</time>
      </trkpt>
      <trkpt lat="59.9519922" lon="17.8088904">
        <ele>27.5349</ele>
        <time>2013-05-01T11:24:56Z</time>
      </trkpt>
      <trkpt lat="59.9520278" lon="17.8087624">
        <ele>27.5349</ele>
        <time>2013-05-01T11:24:57Z</time>
      </trkpt>
      <trkpt lat="59.9520618" lon="17.8086354">
        <ele>28.0155</ele>
        <time>2013-05-01T11:24:58Z</time>
      </trkpt>
      <trkpt lat="59.9520964" lon="17.8085097">
        <ele>28.0155</ele>
        <time>2013-05-01T11:24:59Z</time>
      </trkpt>
      <trkpt lat="59.952131" lon="17.8083838">
        <ele>28.0155</ele>
        <time>2013-05-01T11:25:00Z</time>
      </trkpt>
      <trkpt lat="59.9521639" lon="17.8082604">
        <ele>28.4962</ele>
        <time>2013-05-01T11:25:01Z</time>
      </trkpt>
      <trkpt lat="59.9521957" lon="17.8081396">
        <ele>28.4962</ele>
        <time>2013-05-01T11:25:02Z</time>
      </trkpt>
      <trkpt lat="59.9522283" lon="17.8080215">
        <ele>28.4962</ele>
        <time>2013-05-01T11:25:03Z</time>
      </trkpt>
      <trkpt lat="59.9522599" lon="17.8079046">
        <ele>28.9769</ele>
        <time>2013-05-01T11:25:04Z</time>
      </trkpt>
      <trkpt lat="59.9522925" lon="17.8077891">
        <ele>28.9769</ele>
        <time>2013-05-01T11:25:05Z</time>
      </trkpt>
      <trkpt lat="59.9523227" lon="17.8076771">
        <ele>29.4575</ele>
        <time>2013-05-01T11:25:06Z</time>
      </trkpt>
      <trkpt lat="59.9523523" lon="17.807567">
        <ele>29.4575</ele>
        <time>2013-05-01T11:25:07Z</time>
      </trkpt>
      <trkpt lat="59.9523832" lon="17.8074612">
        <ele>29.4575</ele>
        <time>2013-05-01T11:25:08Z</time>
      </trkpt>
      <trkpt lat="59.9524122" lon="17.8073561">
        <ele>29.4575</ele>
        <time>2013-05-01T11:25:09Z</time>
      </trkpt>
      <trkpt lat="59.9524405" lon="17.8072521">
        <ele>29.4575</ele>
        <time>2013-05-01T11:25:10Z</time>
      </trkpt>
      <trkpt lat="59.9524721" lon="17.8071479">
        <ele>28.9769</ele>
        <time>2013-05-01T11:25:11Z</time>
      </trkpt>
      <trkpt lat="59.9525015" lon="17.8070479">
        <ele>28.0155</ele>
        <time>2013-05-01T11:25:12Z</time>
      </trkpt>
      <trkpt lat="59.9525277" lon="17.8069532">
        <ele>27.5349</ele>
        <time>2013-05-01T11:25:13Z</time>
      </trkpt>
      <trkpt lat="59.9525545" lon="17.8068604">
        <ele>27.5349</ele>
        <time>2013-05-01T11:25:14Z</time>
      </trkpt>
      <trkpt lat="59.9525807" lon="17.8067724">
        <ele>27.5349</ele>
        <time>2013-05-01T11:25:15Z</time>
      </trkpt>
      <trkpt lat="59.9526057" lon="17.8066796">
        <ele>27.0543</ele>
        <time>2013-05-01T11:25:16Z</time>
      </trkpt>
      <trkpt lat="59.9526293" lon="17.8065838">
        <ele>27.0543</ele>
        <time>2013-05-01T11:25:17Z</time>
      </trkpt>
      <trkpt lat="59.9526522" lon="17.8064888">
        <ele>26.5736</ele>
        <time>2013-05-01T11:25:18Z</time>
      </trkpt>
      <trkpt lat="59.9526761" lon="17.8063927">
        <ele>26.5736</ele>
        <time>2013-05-01T11:25:19Z</time>
      </trkpt>
      <trkpt lat="59.9526985" lon="17.8062901">
        <ele>25.6123</ele>
        <time>2013-05-01T11:25:20Z</time>
      </trkpt>
      <trkpt lat="59.9527215" lon="17.8061859">
        <ele>25.6123</ele>
        <time>2013-05-01T11:25:21Z</time>
      </trkpt>
      <trkpt lat="59.9527432" lon="17.8060765">
        <ele>25.6123</ele>
        <time>2013-05-01T11:25:22Z</time>
      </trkpt>
      <trkpt lat="59.952763" lon="17.8059598">
        <ele>25.6123</ele>
        <time>2013-05-01T11:25:23Z</time>
      </trkpt>
      <trkpt lat="59.9527812" lon="17.8058358">
        <ele>25.6123</ele>
        <time>2013-05-01T11:25:24Z</time>
      </trkpt>
      <trkpt lat="59.952795" lon="17.8057175">
        <ele>26.0929</ele>
        <time>2013-05-01T11:25:25Z</time>
      </trkpt>
      <trkpt lat="59.9528062" lon="17.8056006">
        <ele>26.5736</ele>
        <time>2013-05-01T11:25:26Z</time>
      </trkpt>
      <trkpt lat="59.9528186" lon="17.8054887">
        <ele>27.0543</ele>
        <time>2013-05-01T11:25:27Z</time>
      </trkpt>
      <trkpt lat="59.9528292" lon="17.8053748">
        <ele>27.0543</ele>
        <time>2013-05-01T11:25:28Z</time>
      </trkpt>
      <trkpt lat="59.9528408" lon="17.8052654">
        <ele>27.5349</ele>
        <time>2013-05-01T11:25:29Z</time>
      </trkpt>
      <trkpt lat="59.9528522" lon="17.8051546">
        <ele>28.0155</ele>
        <time>2013-05-01T11:25:30Z</time>
      </trkpt>
      <trkpt lat="59.9528634" lon="17.8050421">
        <ele>28.4962</ele>
        <time>2013-05-01T11:25:31Z</time>
      </trkpt>
      <trkpt lat="59.952875" lon="17.8049323">
        <ele>29.4575</ele>
        <time>2013-05-01T11:25:32Z</time>
      </trkpt>
      <trkpt lat="59.9528875" lon="17.8048223">
        <ele>30.4188</ele>
        <time>2013-05-01T11:25:33Z</time>
      </trkpt>
      <trkpt lat="59.9529015" lon="17.8047122">
        <ele>31.8607</ele>
        <time>2013-05-01T11:25:34Z</time>
      </trkpt>
      <trkpt lat="59.9529221" lon="17.8046133">
        <ele>31.3801</ele>
        <time>2013-05-01T11:25:35Z</time>
      </trkpt>
      <trkpt lat="59.9529481" lon="17.8045225">
        <ele>31.3801</ele>
        <time>2013-05-01T11:25:36Z</time>
      </trkpt>
      <trkpt lat="59.9529773" lon="17.8044319">
        <ele>31.3801</ele>
        <time>2013-05-01T11:25:37Z</time>
      </trkpt>
      <trkpt lat="59.9530066" lon="17.8043444">
        <ele>31.3801</ele>
        <time>2013-05-01T11:25:38Z</time>
      </trkpt>
      <trkpt lat="59.9530391" lon="17.8042637">
        <ele>31.8607</ele>
        <time>2013-05-01T11:25:39Z</time>
      </trkpt>
      <trkpt lat="59.953076" lon="17.8041859">
        <ele>32.3416</ele>
        <time>2013-05-01T11:25:40Z</time>
      </trkpt>
      <trkpt lat="59.9531116" lon="17.8041155">
        <ele>32.3416</ele>
        <time>2013-05-01T11:25:41Z</time>
      </trkpt>
      <trkpt lat="59.9531526" lon="17.8040439">
        <ele>33.3029</ele>
        <time>2013-05-01T11:25:42Z</time>
      </trkpt>
      <trkpt lat="59.953192" lon="17.8039651">
        <ele>33.7834</ele>
        <time>2013-05-01T11:25:43Z</time>
      </trkpt>
      <trkpt lat="59.9532298" lon="17.803886">
        <ele>34.7449</ele>
        <time>2013-05-01T11:25:44Z</time>
      </trkpt>
      <trkpt lat="59.9532676" lon="17.8038184">
        <ele>35.2255</ele>
        <time>2013-05-01T11:25:45Z</time>
      </trkpt>
      <trkpt lat="59.953305" lon="17.8037461">
        <ele>35.2255</ele>
        <time>2013-05-01T11:25:46Z</time>
      </trkpt>
      <trkpt lat="59.9533417" lon="17.803671">
        <ele>35.7061</ele>
        <time>2013-05-01T11:25:47Z</time>
      </trkpt>
      <trkpt lat="59.9533765" lon="17.8035961">
        <ele>36.1868</ele>
        <time>2013-05-01T11:25:48Z</time>
      </trkpt>
      <trkpt lat="59.953409" lon="17.8035123">
        <ele>36.1868</ele>
        <time>2013-05-01T11:25:49Z</time>
      </trkpt>
      <trkpt lat="59.9534386" lon="17.8034207">
        <ele>36.1868</ele>
        <time>2013-05-01T11:25:50Z</time>
      </trkpt>
      <trkpt lat="59.9534698" lon="17.8033285">
        <ele>36.1868</ele>
        <time>2013-05-01T11:25:51Z</time>
      </trkpt>
      <trkpt lat="59.9535" lon="17.8032322">
        <ele>35.7061</ele>
        <time>2013-05-01T11:25:52Z</time>
      </trkpt>
      <trkpt lat="59.9535251" lon="17.8031327">
        <ele>36.1868</ele>
        <time>2013-05-01T11:25:53Z</time>
      </trkpt>
      <trkpt lat="59.953552" lon="17.8030321">
        <ele>35.2255</ele>
        <time>2013-05-01T11:25:54Z</time>
      </trkpt>
      <trkpt lat="59.9535791" lon="17.8029312">
        <ele>35.2255</ele>
        <time>2013-05-01T11:25:55Z</time>
      </trkpt>
      <trkpt lat="59.9536052" lon="17.8028302">
        <ele>35.2255</ele>
        <time>2013-05-01T11:25:56Z</time>
      </trkpt>
      <trkpt lat="59.9536261" lon="17.802723">
        <ele>35.2255</ele>
        <time>2013-05-01T11:25:57Z</time>
      </trkpt>
      <trkpt lat="59.9536475" lon="17.8026054">
        <ele>35.2255</ele>
        <time>2013-05-01T11:25:58Z</time>
      </trkpt>
      <trkpt lat="59.9536677" lon="17.8024852">
        <ele>33.3029</ele>
        <time>2013-05-01T11:25:59Z</time>
      </trkpt>
      <trkpt lat="59.9536893" lon="17.8023609">
        <ele>33.3029</ele>
        <time>2013-05-01T11:26:00Z</time>
      </trkpt>
      <trkpt lat="59.9537156" lon="17.8022408">
        <ele>33.3029</ele>
        <time>2013-05-01T11:26:01Z</time>
      </trkpt>
      <trkpt lat="59.9537406" lon="17.8021144">
        <ele>32.8223</ele>
        <time>2013-05-01T11:26:02Z</time>
      </trkpt>
      <trkpt lat="59.953769" lon="17.8019879">
        <ele>32.3416</ele>
        <time>2013-05-01T11:26:03Z</time>
      </trkpt>
      <trkpt lat="59.9538219" lon="17.8018041">
        <ele>31.3801</ele>
        <time>2013-05-01T11:26:04Z</time>
      </trkpt>
      <trkpt lat="59.9538664" lon="17.8016985">
        <ele>30.8995</ele>
        <time>2013-05-01T11:26:05Z</time>
      </trkpt>
      <trkpt lat="59.9539053" lon="17.8016009">
        <ele>30.4188</ele>
        <time>2013-05-01T11:26:06Z</time>
      </trkpt>
      <trkpt lat="59.9539414" lon="17.8014736">
        <ele>29.4575</ele>
        <time>2013-05-01T11:26:07Z</time>
      </trkpt>
      <trkpt lat="59.9539867" lon="17.801332">
        <ele>28.4962</ele>
        <time>2013-05-01T11:26:08Z</time>
      </trkpt>
      <trkpt lat="59.9540396" lon="17.801215">
        <ele>28.0155</ele>
        <time>2013-05-01T11:26:09Z</time>
      </trkpt>
      <trkpt lat="59.9540901" lon="17.801068">
        <ele>28.4962</ele>
        <time>2013-05-01T11:26:10Z</time>
      </trkpt>
      <trkpt lat="59.9541404" lon="17.8009313">
        <ele>28.4962</ele>
        <time>2013-05-01T11:26:11Z</time>
      </trkpt>
      <trkpt lat="59.9541937" lon="17.8008043">
        <ele>28.0155</ele>
        <time>2013-05-01T11:26:12Z</time>
      </trkpt>
      <trkpt lat="59.9542445" lon="17.8006805">
        <ele>28.4962</ele>
        <time>2013-05-01T11:26:13Z</time>
      </trkpt>
      <trkpt lat="59.9542941" lon="17.8005635">
        <ele>28.4962</ele>
        <time>2013-05-01T11:26:14Z</time>
      </trkpt>
      <trkpt lat="59.9543459" lon="17.8004546">
        <ele>28.0155</ele>
        <time>2013-05-01T11:26:15Z</time>
      </trkpt>
      <trkpt lat="59.9543993" lon="17.800342">
        <ele>28.0155</ele>
        <time>2013-05-01T11:26:16Z</time>
      </trkpt>
      <trkpt lat="59.9544521" lon="17.8002184">
        <ele>28.4962</ele>
        <time>2013-05-01T11:26:17Z</time>
      </trkpt>
      <trkpt lat="59.9545047" lon="17.800092">
        <ele>28.0155</ele>
        <time>2013-05-01T11:26:18Z</time>
      </trkpt>
      <trkpt lat="59.9545571" lon="17.7999589">
        <ele>28.0155</ele>
        <time>2013-05-01T11:26:19Z</time>
      </trkpt>
      <trkpt lat="59.9546084" lon="17.7998276">
        <ele>28.0155</ele>
        <time>2013-05-01T11:26:20Z</time>
      </trkpt>
      <trkpt lat="59.9546622" lon="17.7996989">
        <ele>28.4962</ele>
        <time>2013-05-01T11:26:21Z</time>
      </trkpt>
      <trkpt lat="59.954717" lon="17.7995735">
        <ele>28.9769</ele>
        <time>2013-05-01T11:26:22Z</time>
      </trkpt>
      <trkpt lat="59.9547735" lon="17.7994544">
        <ele>29.4575</ele>
        <time>2013-05-01T11:26:23Z</time>
      </trkpt>
      <trkpt lat="59.9548278" lon="17.7993378">
        <ele>30.4188</ele>
        <time>2013-05-01T11:26:24Z</time>
      </trkpt>
      <trkpt lat="59.9548875" lon="17.7992238">
        <ele>30.8995</ele>
        <time>2013-05-01T11:26:25Z</time>
      </trkpt>
      <trkpt lat="59.9549476" lon="17.7991117">
        <ele>31.3801</ele>
        <time>2013-05-01T11:26:26Z</time>
      </trkpt>
      <trkpt lat="59.9550071" lon="17.7989979">
        <ele>31.8607</ele>
        <time>2013-05-01T11:26:27Z</time>
      </trkpt>
      <trkpt lat="59.9550637" lon="17.7988824">
        <ele>31.8607</ele>
        <time>2013-05-01T11:26:28Z</time>
      </trkpt>
      <trkpt lat="59.9551173" lon="17.7987631">
        <ele>31.8607</ele>
        <time>2013-05-01T11:26:29Z</time>
      </trkpt>
      <trkpt lat="59.9551681" lon="17.7986447">
        <ele>31.3801</ele>
        <time>2013-05-01T11:26:30Z</time>
      </trkpt>
      <trkpt lat="59.9552199" lon="17.7985217">
        <ele>31.3801</ele>
        <time>2013-05-01T11:26:31Z</time>
      </trkpt>
      <trkpt lat="59.9552697" lon="17.7983944">
        <ele>31.3801</ele>
        <time>2013-05-01T11:26:32Z</time>
      </trkpt>
      <trkpt lat="59.955317" lon="17.7982644">
        <ele>30.8995</ele>
        <time>2013-05-01T11:26:33Z</time>
      </trkpt>
      <trkpt lat="59.9553623" lon="17.7981297">
        <ele>30.8995</ele>
        <time>2013-05-01T11:26:34Z</time>
      </trkpt>
      <trkpt lat="59.9554061" lon="17.7979915">
        <ele>30.8995</ele>
        <time>2013-05-01T11:26:35Z</time>
      </trkpt>
      <trkpt lat="59.955448" lon="17.7978496">
        <ele>30.8995</ele>
        <time>2013-05-01T11:26:36Z</time>
      </trkpt>
      <trkpt lat="59.9554892" lon="17.7977056">
        <ele>30.4188</ele>
        <time>2013-05-01T11:26:37Z</time>
      </trkpt>
      <trkpt lat="59.9555298" lon="17.7975588">
        <ele>30.8995</ele>
        <time>2013-05-01T11:26:38Z</time>
      </trkpt>
      <trkpt lat="59.955571" lon="17.7974108">
        <ele>30.4188</ele>
        <time>2013-05-01T11:26:39Z</time>
      </trkpt>
      <trkpt lat="59.9556111" lon="17.7972611">
        <ele>29.9381</ele>
        <time>2013-05-01T11:26:40Z</time>
      </trkpt>
      <trkpt lat="59.9556531" lon="17.7971119">
        <ele>29.4575</ele>
        <time>2013-05-01T11:26:41Z</time>
      </trkpt>
      <trkpt lat="59.9556922" lon="17.7969576">
        <ele>28.4962</ele>
        <time>2013-05-01T11:26:42Z</time>
      </trkpt>
      <trkpt lat="59.9557283" lon="17.7967996">
        <ele>28.0155</ele>
        <time>2013-05-01T11:26:43Z</time>
      </trkpt>
      <trkpt lat="59.9557613" lon="17.7966382">
        <ele>28.4962</ele>
        <time>2013-05-01T11:26:44Z</time>
      </trkpt>
      <trkpt lat="59.9557918" lon="17.7964769">
        <ele>28.4962</ele>
        <time>2013-05-01T11:26:45Z</time>
      </trkpt>
      <trkpt lat="59.9558199" lon="17.7963174">
        <ele>28.4962</ele>
        <time>2013-05-01T11:26:46Z</time>
      </trkpt>
      <trkpt lat="59.9558468" lon="17.7961593">
        <ele>28.4962</ele>
        <time>2013-05-01T11:26:47Z</time>
      </trkpt>
      <trkpt lat="59.9558731" lon="17.7960023">
        <ele>28.4962</ele>
        <time>2013-05-01T11:26:48Z</time>
      </trkpt>
      <trkpt lat="59.9558986" lon="17.7958467">
        <ele>28.4962</ele>
        <time>2013-05-01T11:26:49Z</time>
      </trkpt>
      <trkpt lat="59.955925" lon="17.7956947">
        <ele>28.4962</ele>
        <time>2013-05-01T11:26:50Z</time>
      </trkpt>
      <trkpt lat="59.9559515" lon="17.7955429">
        <ele>28.0155</ele>
        <time>2013-05-01T11:26:51Z</time>
      </trkpt>
      <trkpt lat="59.9559801" lon="17.7953956">
        <ele>28.0155</ele>
        <time>2013-05-01T11:26:52Z</time>
      </trkpt>
      <trkpt lat="59.9560126" lon="17.7952528">
        <ele>28.0155</ele>
        <time>2013-05-01T11:26:53Z</time>
      </trkpt>
      <trkpt lat="59.9560476" lon="17.7951115">
        <ele>27.5349</ele>
        <time>2013-05-01T11:26:54Z</time>
      </trkpt>
      <trkpt lat="59.9560835" lon="17.794971">
        <ele>27.0543</ele>
        <time>2013-05-01T11:26:55Z</time>
      </trkpt>
      <trkpt lat="59.9561207" lon="17.7948322">
        <ele>26.5736</ele>
        <time>2013-05-01T11:26:56Z</time>
      </trkpt>
      <trkpt lat="59.9561569" lon="17.7946952">
        <ele>26.0929</ele>
        <time>2013-05-01T11:26:57Z</time>
      </trkpt>
      <trkpt lat="59.9561926" lon="17.7945251">
        <ele>26.0929</ele>
        <time>2013-05-01T11:26:58Z</time>
      </trkpt>
      <trkpt lat="59.956227" lon="17.7943602">
        <ele>25.6123</ele>
        <time>2013-05-01T11:26:59Z</time>
      </trkpt>
      <trkpt lat="59.9562561" lon="17.7942219">
        <ele>25.1317</ele>
        <time>2013-05-01T11:27:00Z</time>
      </trkpt>
      <trkpt lat="59.9562901" lon="17.794062">
        <ele>25.1317</ele>
        <time>2013-05-01T11:27:01Z</time>
      </trkpt>
      <trkpt lat="59.9563222" lon="17.7939075">
        <ele>25.1317</ele>
        <time>2013-05-01T11:27:02Z</time>
      </trkpt>
      <trkpt lat="59.956354" lon="17.7937566">
        <ele>25.1317</ele>
        <time>2013-05-01T11:27:03Z</time>
      </trkpt>
      <trkpt lat="59.9563855" lon="17.7936024">
        <ele>25.1317</ele>
        <time>2013-05-01T11:27:04Z</time>
      </trkpt>
      <trkpt lat="59.9564161" lon="17.7934549">
        <ele>25.1317</ele>
        <time>2013-05-01T11:27:05Z</time>
      </trkpt>
      <trkpt lat="59.9564463" lon="17.7933082">
        <ele>25.6123</ele>
        <time>2013-05-01T11:27:06Z</time>
      </trkpt>
      <trkpt lat="59.9564758" lon="17.7931646">
        <ele>25.6123</ele>
        <time>2013-05-01T11:27:07Z</time>
      </trkpt>
      <trkpt lat="59.9565046" lon="17.7930226">
        <ele>25.6123</ele>
        <time>2013-05-01T11:27:08Z</time>
      </trkpt>
      <trkpt lat="59.9565332" lon="17.7928809">
        <ele>26.0929</ele>
        <time>2013-05-01T11:27:09Z</time>
      </trkpt>
      <trkpt lat="59.9565602" lon="17.7927371">
        <ele>26.0929</ele>
        <time>2013-05-01T11:27:10Z</time>
      </trkpt>
      <trkpt lat="59.9565854" lon="17.7925903">
        <ele>26.0929</ele>
        <time>2013-05-01T11:27:11Z</time>
      </trkpt>
      <trkpt lat="59.9566109" lon="17.792442">
        <ele>26.0929</ele>
        <time>2013-05-01T11:27:12Z</time>
      </trkpt>
      <trkpt lat="59.9566369" lon="17.7922924">
        <ele>26.0929</ele>
        <time>2013-05-01T11:27:13Z</time>
      </trkpt>
      <trkpt lat="59.9566627" lon="17.7921407">
        <ele>26.0929</ele>
        <time>2013-05-01T11:27:14Z</time>
      </trkpt>
      <trkpt lat="59.9566844" lon="17.7919888">
        <ele>26.0929</ele>
        <time>2013-05-01T11:27:15Z</time>
      </trkpt>
      <trkpt lat="59.9567077" lon="17.7918351">
        <ele>26.0929</ele>
        <time>2013-05-01T11:27:16Z</time>
      </trkpt>
      <trkpt lat="59.956733" lon="17.7916794">
        <ele>26.5736</ele>
        <time>2013-05-01T11:27:17Z</time>
      </trkpt>
      <trkpt lat="59.9567547" lon="17.791516">
        <ele>26.5736</ele>
        <time>2013-05-01T11:27:18Z</time>
      </trkpt>
      <trkpt lat="59.9567679" lon="17.7913548">
        <ele>26.5736</ele>
        <time>2013-05-01T11:27:19Z</time>
      </trkpt>
      <trkpt lat="59.9567793" lon="17.7912074">
        <ele>27.0543</ele>
        <time>2013-05-01T11:27:20Z</time>
      </trkpt>
      <trkpt lat="59.9567751" lon="17.791059">
        <ele>27.0543</ele>
        <time>2013-05-01T11:27:21Z</time>
      </trkpt>
      <trkpt lat="59.9567547" lon="17.790912">
        <ele>27.0543</ele>
        <time>2013-05-01T11:27:22Z</time>
      </trkpt>
      <trkpt lat="59.9567254" lon="17.7907631">
        <ele>26.5736</ele>
        <time>2013-05-01T11:27:23Z</time>
      </trkpt>
      <trkpt lat="59.9566933" lon="17.790611">
        <ele>26.0929</ele>
        <time>2013-05-01T11:27:24Z</time>
      </trkpt>
      <trkpt lat="59.9566596" lon="17.7904548">
        <ele>25.1317</ele>
        <time>2013-05-01T11:27:25Z</time>
      </trkpt>
      <trkpt lat="59.9566242" lon="17.7902959">
        <ele>24.1703</ele>
        <time>2013-05-01T11:27:26Z</time>
      </trkpt>
      <trkpt lat="59.9565959" lon="17.7901329">
        <ele>23.6896</ele>
        <time>2013-05-01T11:27:27Z</time>
      </trkpt>
      <trkpt lat="59.9565876" lon="17.7899666">
        <ele>23.209</ele>
        <time>2013-05-01T11:27:28Z</time>
      </trkpt>
      <trkpt lat="59.9566076" lon="17.7897929">
        <ele>22.7283</ele>
        <time>2013-05-01T11:27:29Z</time>
      </trkpt>
      <trkpt lat="59.9566444" lon="17.7896159">
        <ele>22.7283</ele>
        <time>2013-05-01T11:27:30Z</time>
      </trkpt>
      <trkpt lat="59.9566854" lon="17.7894609">
        <ele>22.7283</ele>
        <time>2013-05-01T11:27:31Z</time>
      </trkpt>
      <trkpt lat="59.9567645" lon="17.7893478">
        <ele>22.7283</ele>
        <time>2013-05-01T11:27:32Z</time>
      </trkpt>
      <trkpt lat="59.956856" lon="17.7892426">
        <ele>22.7283</ele>
        <time>2013-05-01T11:27:33Z</time>
      </trkpt>
      <trkpt lat="59.9569518" lon="17.7891573">
        <ele>21.767</ele>
        <time>2013-05-01T11:27:34Z</time>
      </trkpt>
      <trkpt lat="59.9570274" lon="17.7890765">
        <ele>22.2476</ele>
        <time>2013-05-01T11:27:35Z</time>
      </trkpt>
      <trkpt lat="59.9570946" lon="17.7889744">
        <ele>22.7283</ele>
        <time>2013-05-01T11:27:36Z</time>
      </trkpt>
      <trkpt lat="59.9571573" lon="17.7888652">
        <ele>23.209</ele>
        <time>2013-05-01T11:27:37Z</time>
      </trkpt>
      <trkpt lat="59.9572121" lon="17.7887465">
        <ele>23.6896</ele>
        <time>2013-05-01T11:27:38Z</time>
      </trkpt>
      <trkpt lat="59.9572585" lon="17.7886289">
        <ele>24.1703</ele>
        <time>2013-05-01T11:27:39Z</time>
      </trkpt>
      <trkpt lat="59.9572967" lon="17.7885026">
        <ele>24.651</ele>
        <time>2013-05-01T11:27:40Z</time>
      </trkpt>
      <trkpt lat="59.9573448" lon="17.7883952">
        <ele>26.0929</ele>
        <time>2013-05-01T11:27:41Z</time>
      </trkpt>
      <trkpt lat="59.9573993" lon="17.7882918">
        <ele>27.5349</ele>
        <time>2013-05-01T11:27:42Z</time>
      </trkpt>
      <trkpt lat="59.9574388" lon="17.7881413">
        <ele>28.9769</ele>
        <time>2013-05-01T11:27:43Z</time>
      </trkpt>
      <trkpt lat="59.957478" lon="17.7879883">
        <ele>30.4188</ele>
        <time>2013-05-01T11:27:44Z</time>
      </trkpt>
      <trkpt lat="59.9575051" lon="17.7878111">
        <ele>31.8607</ele>
        <time>2013-05-01T11:27:45Z</time>
      </trkpt>
      <trkpt lat="59.9575307" lon="17.7876265">
        <ele>31.8607</ele>
        <time>2013-05-01T11:27:46Z</time>
      </trkpt>
      <trkpt lat="59.9575665" lon="17.7874708">
        <ele>31.8607</ele>
        <time>2013-05-01T11:27:47Z</time>
      </trkpt>
      <trkpt lat="59.9576063" lon="17.7873139">
        <ele>31.3801</ele>
        <time>2013-05-01T11:27:48Z</time>
      </trkpt>
      <trkpt lat="59.9576369" lon="17.7871664">
        <ele>31.3801</ele>
        <time>2013-05-01T11:27:49Z</time>
      </trkpt>
      <trkpt lat="59.9576676" lon="17.7870207">
        <ele>31.3801</ele>
        <time>2013-05-01T11:27:50Z</time>
      </trkpt>
      <trkpt lat="59.9576988" lon="17.7868733">
        <ele>30.8995</ele>
        <time>2013-05-01T11:27:51Z</time>
      </trkpt>
      <trkpt lat="59.9577358" lon="17.7867396">
        <ele>29.9381</ele>
        <time>2013-05-01T11:27:52Z</time>
      </trkpt>
      <trkpt lat="59.9577805" lon="17.7866056">
        <ele>29.4575</ele>
        <time>2013-05-01T11:27:53Z</time>
      </trkpt>
      <trkpt lat="59.9578375" lon="17.7864894">
        <ele>28.9769</ele>
        <time>2013-05-01T11:27:54Z</time>
      </trkpt>
      <trkpt lat="59.9579044" lon="17.7863844">
        <ele>28.4962</ele>
        <time>2013-05-01T11:27:55Z</time>
      </trkpt>
      <trkpt lat="59.9579747" lon="17.7862938">
        <ele>28.4962</ele>
        <time>2013-05-01T11:27:56Z</time>
      </trkpt>
      <trkpt lat="59.9580458" lon="17.786213">
        <ele>28.4962</ele>
        <time>2013-05-01T11:27:57Z</time>
      </trkpt>
      <trkpt lat="59.9581153" lon="17.7861359">
        <ele>28.0155</ele>
        <time>2013-05-01T11:27:58Z</time>
      </trkpt>
      <trkpt lat="59.9581833" lon="17.7860631">
        <ele>28.0155</ele>
        <time>2013-05-01T11:27:59Z</time>
      </trkpt>
      <trkpt lat="59.9582503" lon="17.7859923">
        <ele>28.0155</ele>
        <time>2013-05-01T11:28:00Z</time>
      </trkpt>
      <trkpt lat="59.958316" lon="17.7859182">
        <ele>28.0155</ele>
        <time>2013-05-01T11:28:01Z</time>
      </trkpt>
      <trkpt lat="59.9583815" lon="17.7858446">
        <ele>28.0155</ele>
        <time>2013-05-01T11:28:02Z</time>
      </trkpt>
      <trkpt lat="59.9584467" lon="17.7857735">
        <ele>27.5349</ele>
        <time>2013-05-01T11:28:03Z</time>
      </trkpt>
      <trkpt lat="59.9585103" lon="17.7857065">
        <ele>27.5349</ele>
        <time>2013-05-01T11:28:04Z</time>
      </trkpt>
      <trkpt lat="59.9585824" lon="17.7856214">
        <ele>28.0155</ele>
        <time>2013-05-01T11:28:05Z</time>
      </trkpt>
      <trkpt lat="59.958645" lon="17.7855313">
        <ele>28.0155</ele>
        <time>2013-05-01T11:28:06Z</time>
      </trkpt>
      <trkpt lat="59.95871" lon="17.7854737">
        <ele>28.0155</ele>
        <time>2013-05-01T11:28:07Z</time>
      </trkpt>
      <trkpt lat="59.9587716" lon="17.7854215">
        <ele>28.4962</ele>
        <time>2013-05-01T11:28:08Z</time>
      </trkpt>
      <trkpt lat="59.9588327" lon="17.7853711">
        <ele>28.4962</ele>
        <time>2013-05-01T11:28:09Z</time>
      </trkpt>
      <trkpt lat="59.9588947" lon="17.7853287">
        <ele>28.9769</ele>
        <time>2013-05-01T11:28:10Z</time>
      </trkpt>
      <trkpt lat="59.9589564" lon="17.7852889">
        <ele>28.9769</ele>
        <time>2013-05-01T11:28:11Z</time>
      </trkpt>
      <trkpt lat="59.9590203" lon="17.7852456">
        <ele>29.4575</ele>
        <time>2013-05-01T11:28:12Z</time>
      </trkpt>
      <trkpt lat="59.9590863" lon="17.7851996">
        <ele>29.4575</ele>
        <time>2013-05-01T11:28:13Z</time>
      </trkpt>
      <trkpt lat="59.9591526" lon="17.7851473">
        <ele>29.9381</ele>
        <time>2013-05-01T11:28:14Z</time>
      </trkpt>
      <trkpt lat="59.9592175" lon="17.78509">
        <ele>30.4188</ele>
        <time>2013-05-01T11:28:15Z</time>
      </trkpt>
      <trkpt lat="59.959279" lon="17.7850273">
        <ele>30.8995</ele>
        <time>2013-05-01T11:28:16Z</time>
      </trkpt>
      <trkpt lat="59.9593398" lon="17.784955">
        <ele>31.3801</ele>
        <time>2013-05-01T11:28:17Z</time>
      </trkpt>
      <trkpt lat="59.9594004" lon="17.7848759">
        <ele>31.8607</ele>
        <time>2013-05-01T11:28:18Z</time>
      </trkpt>
      <trkpt lat="59.9594594" lon="17.784793">
        <ele>32.3416</ele>
        <time>2013-05-01T11:28:19Z</time>
      </trkpt>
      <trkpt lat="59.9595158" lon="17.7847056">
        <ele>32.3416</ele>
        <time>2013-05-01T11:28:20Z</time>
      </trkpt>
      <trkpt lat="59.9595717" lon="17.7846164">
        <ele>32.3416</ele>
        <time>2013-05-01T11:28:21Z</time>
      </trkpt>
      <trkpt lat="59.9596282" lon="17.7845088">
        <ele>31.8607</ele>
        <time>2013-05-01T11:28:22Z</time>
      </trkpt>
      <trkpt lat="59.9596898" lon="17.7844232">
        <ele>31.8607</ele>
        <time>2013-05-01T11:28:23Z</time>
      </trkpt>
      <trkpt lat="59.9597473" lon="17.7843262">
        <ele>31.8607</ele>
        <time>2013-05-01T11:28:24Z</time>
      </trkpt>
      <trkpt lat="59.9598059" lon="17.7842264">
        <ele>31.3801</ele>
        <time>2013-05-01T11:28:25Z</time>
      </trkpt>
      <trkpt lat="59.9598586" lon="17.7841264">
        <ele>31.3801</ele>
        <time>2013-05-01T11:28:26Z</time>
      </trkpt>
      <trkpt lat="59.9599097" lon="17.784018">
        <ele>31.3801</ele>
        <time>2013-05-01T11:28:27Z</time>
      </trkpt>
      <trkpt lat="59.9599583" lon="17.7839035">
        <ele>31.3801</ele>
        <time>2013-05-01T11:28:28Z</time>
      </trkpt>
      <trkpt lat="59.9600049" lon="17.7837934">
        <ele>31.3801</ele>
        <time>2013-05-01T11:28:29Z</time>
      </trkpt>
      <trkpt lat="59.9600509" lon="17.7836768">
        <ele>31.3801</ele>
        <time>2013-05-01T11:28:30Z</time>
      </trkpt>
      <trkpt lat="59.9600959" lon="17.7835582">
        <ele>31.3801</ele>
        <time>2013-05-01T11:28:31Z</time>
      </trkpt>
      <trkpt lat="59.960138" lon="17.7834364">
        <ele>31.3801</ele>
        <time>2013-05-01T11:28:32Z</time>
      </trkpt>
      <trkpt lat="59.9601754" lon="17.7833054">
        <ele>31.3801</ele>
        <time>2013-05-01T11:28:33Z</time>
      </trkpt>
      <trkpt lat="59.9602162" lon="17.7831817">
        <ele>30.8995</ele>
        <time>2013-05-01T11:28:34Z</time>
      </trkpt>
      <trkpt lat="59.9602588" lon="17.7830633">
        <ele>30.4188</ele>
        <time>2013-05-01T11:28:35Z</time>
      </trkpt>
      <trkpt lat="59.9602999" lon="17.7829469">
        <ele>30.8995</ele>
        <time>2013-05-01T11:28:36Z</time>
      </trkpt>
      <trkpt lat="59.9603384" lon="17.7828288">
        <ele>30.8995</ele>
        <time>2013-05-01T11:28:37Z</time>
      </trkpt>
      <trkpt lat="59.9603756" lon="17.7827097">
        <ele>31.3801</ele>
        <time>2013-05-01T11:28:38Z</time>
      </trkpt>
      <trkpt lat="59.9604115" lon="17.7825862">
        <ele>31.3801</ele>
        <time>2013-05-01T11:28:39Z</time>
      </trkpt>
      <trkpt lat="59.9604481" lon="17.78246">
        <ele>31.3801</ele>
        <time>2013-05-01T11:28:40Z</time>
      </trkpt>
      <trkpt lat="59.9604891" lon="17.7823305">
        <ele>30.8995</ele>
        <time>2013-05-01T11:28:41Z</time>
      </trkpt>
      <trkpt lat="59.9605286" lon="17.7821979">
        <ele>30.8995</ele>
        <time>2013-05-01T11:28:42Z</time>
      </trkpt>
      <trkpt lat="59.9605714" lon="17.7820648">
        <ele>30.8995</ele>
        <time>2013-05-01T11:28:43Z</time>
      </trkpt>
      <trkpt lat="59.9606213" lon="17.7819372">
        <ele>30.8995</ele>
        <time>2013-05-01T11:28:44Z</time>
      </trkpt>
      <trkpt lat="59.9606777" lon="17.7818165">
        <ele>30.4188</ele>
        <time>2013-05-01T11:28:45Z</time>
      </trkpt>
      <trkpt lat="59.9607384" lon="17.7817072">
        <ele>29.4575</ele>
        <time>2013-05-01T11:28:46Z</time>
      </trkpt>
      <trkpt lat="59.960801" lon="17.7815981">
        <ele>28.4962</ele>
        <time>2013-05-01T11:28:47Z</time>
      </trkpt>
      <trkpt lat="59.9608615" lon="17.7814881">
        <ele>28.4962</ele>
        <time>2013-05-01T11:28:48Z</time>
      </trkpt>
      <trkpt lat="59.9609215" lon="17.781379">
        <ele>28.4962</ele>
        <time>2013-05-01T11:28:49Z</time>
      </trkpt>
      <trkpt lat="59.9609818" lon="17.7812727">
        <ele>28.4962</ele>
        <time>2013-05-01T11:28:50Z</time>
      </trkpt>
      <trkpt lat="59.9610405" lon="17.7811681">
        <ele>28.4962</ele>
        <time>2013-05-01T11:28:51Z</time>
      </trkpt>
      <trkpt lat="59.961098" lon="17.7810648">
        <ele>28.4962</ele>
        <time>2013-05-01T11:28:52Z</time>
      </trkpt>
      <trkpt lat="59.9611544" lon="17.7809631">
        <ele>28.4962</ele>
        <time>2013-05-01T11:28:53Z</time>
      </trkpt>
      <trkpt lat="59.9612111" lon="17.7808612">
        <ele>28.4962</ele>
        <time>2013-05-01T11:28:54Z</time>
      </trkpt>
      <trkpt lat="59.9612667" lon="17.7807577">
        <ele>28.9769</ele>
        <time>2013-05-01T11:28:55Z</time>
      </trkpt>
      <trkpt lat="59.9613221" lon="17.7806547">
        <ele>28.9769</ele>
        <time>2013-05-01T11:28:56Z</time>
      </trkpt>
      <trkpt lat="59.9613781" lon="17.7805527">
        <ele>28.9769</ele>
        <time>2013-05-01T11:28:57Z</time>
      </trkpt>
      <trkpt lat="59.9614346" lon="17.780452">
        <ele>28.9769</ele>
        <time>2013-05-01T11:28:58Z</time>
      </trkpt>
      <trkpt lat="59.9614908" lon="17.7803508">
        <ele>29.4575</ele>
        <time>2013-05-01T11:28:59Z</time>
      </trkpt>
      <trkpt lat="59.9615444" lon="17.7802468">
        <ele>29.4575</ele>
        <time>2013-05-01T11:29:00Z</time>
      </trkpt>
      <trkpt lat="59.9615957" lon="17.7801383">
        <ele>29.4575</ele>
        <time>2013-05-01T11:29:01Z</time>
      </trkpt>
      <trkpt lat="59.961646" lon="17.7800264">
        <ele>29.9381</ele>
        <time>2013-05-01T11:29:02Z</time>
      </trkpt>
      <trkpt lat="59.9616962" lon="17.7799135">
        <ele>29.9381</ele>
        <time>2013-05-01T11:29:03Z</time>
      </trkpt>
      <trkpt lat="59.9617463" lon="17.7798011">
        <ele>29.9381</ele>
        <time>2013-05-01T11:29:04Z</time>
      </trkpt>
      <trkpt lat="59.9617955" lon="17.7796886">
        <ele>30.4188</ele>
        <time>2013-05-01T11:29:05Z</time>
      </trkpt>
      <trkpt lat="59.9618439" lon="17.7795756">
        <ele>30.4188</ele>
        <time>2013-05-01T11:29:06Z</time>
      </trkpt>
      <trkpt lat="59.9618935" lon="17.7794624">
        <ele>30.4188</ele>
        <time>2013-05-01T11:29:07Z</time>
      </trkpt>
      <trkpt lat="59.9619446" lon="17.7793493">
        <ele>30.4188</ele>
        <time>2013-05-01T11:29:08Z</time>
      </trkpt>
      <trkpt lat="59.961996" lon="17.7792359">
        <ele>30.4188</ele>
        <time>2013-05-01T11:29:09Z</time>
      </trkpt>
      <trkpt lat="59.9620479" lon="17.7791202">
        <ele>30.4188</ele>
        <time>2013-05-01T11:29:10Z</time>
      </trkpt>
      <trkpt lat="59.9621005" lon="17.7790033">
        <ele>30.4188</ele>
        <time>2013-05-01T11:29:11Z</time>
      </trkpt>
      <trkpt lat="59.9621527" lon="17.7788852">
        <ele>30.4188</ele>
        <time>2013-05-01T11:29:12Z</time>
      </trkpt>
      <trkpt lat="59.9622049" lon="17.7787649">
        <ele>29.9381</ele>
        <time>2013-05-01T11:29:13Z</time>
      </trkpt>
      <trkpt lat="59.9622567" lon="17.7786431">
        <ele>29.9381</ele>
        <time>2013-05-01T11:29:14Z</time>
      </trkpt>
      <trkpt lat="59.962307" lon="17.7785195">
        <ele>29.9381</ele>
        <time>2013-05-01T11:29:15Z</time>
      </trkpt>
      <trkpt lat="59.9623568" lon="17.7783971">
        <ele>29.9381</ele>
        <time>2013-05-01T11:29:16Z</time>
      </trkpt>
      <trkpt lat="59.9624074" lon="17.7782781">
        <ele>29.9381</ele>
        <time>2013-05-01T11:29:17Z</time>
      </trkpt>
      <trkpt lat="59.9624586" lon="17.7781632">
        <ele>29.9381</ele>
        <time>2013-05-01T11:29:18Z</time>
      </trkpt>
      <trkpt lat="59.9625088" lon="17.7780496">
        <ele>30.4188</ele>
        <time>2013-05-01T11:29:19Z</time>
      </trkpt>
      <trkpt lat="59.9625598" lon="17.7779373">
        <ele>30.4188</ele>
        <time>2013-05-01T11:29:20Z</time>
      </trkpt>
      <trkpt lat="59.9626111" lon="17.7778269">
        <ele>30.4188</ele>
        <time>2013-05-01T11:29:21Z</time>
      </trkpt>
      <trkpt lat="59.9626628" lon="17.7777181">
        <ele>30.8995</ele>
        <time>2013-05-01T11:29:22Z</time>
      </trkpt>
      <trkpt lat="59.9627141" lon="17.7776107">
        <ele>30.8995</ele>
        <time>2013-05-01T11:29:23Z</time>
      </trkpt>
      <trkpt lat="59.9627653" lon="17.7775027">
        <ele>30.8995</ele>
        <time>2013-05-01T11:29:24Z</time>
      </trkpt>
      <trkpt lat="59.9628155" lon="17.7773964">
        <ele>30.8995</ele>
        <time>2013-05-01T11:29:25Z</time>
      </trkpt>
      <trkpt lat="59.9628663" lon="17.7772891">
        <ele>30.8995</ele>
        <time>2013-05-01T11:29:26Z</time>
      </trkpt>
      <trkpt lat="59.9629165" lon="17.7771783">
        <ele>30.8995</ele>
        <time>2013-05-01T11:29:27Z</time>
      </trkpt>
      <trkpt lat="59.9629658" lon="17.7770634">
        <ele>30.8995</ele>
        <time>2013-05-01T11:29:28Z</time>
      </trkpt>
      <trkpt lat="59.9630138" lon="17.7769437">
        <ele>31.3801</ele>
        <time>2013-05-01T11:29:29Z</time>
      </trkpt>
      <trkpt lat="59.9630587" lon="17.7768194">
        <ele>31.3801</ele>
        <time>2013-05-01T11:29:30Z</time>
      </trkpt>
      <trkpt lat="59.9631001" lon="17.7766899">
        <ele>31.3801</ele>
        <time>2013-05-01T11:29:31Z</time>
      </trkpt>
      <trkpt lat="59.9631399" lon="17.7765615">
        <ele>31.8607</ele>
        <time>2013-05-01T11:29:32Z</time>
      </trkpt>
      <trkpt lat="59.9631787" lon="17.7764348">
        <ele>31.8607</ele>
        <time>2013-05-01T11:29:33Z</time>
      </trkpt>
      <trkpt lat="59.9632172" lon="17.7763097">
        <ele>31.8607</ele>
        <time>2013-05-01T11:29:34Z</time>
      </trkpt>
      <trkpt lat="59.9632555" lon="17.776186">
        <ele>31.8607</ele>
        <time>2013-05-01T11:29:35Z</time>
      </trkpt>
      <trkpt lat="59.9632936" lon="17.7760608">
        <ele>31.3801</ele>
        <time>2013-05-01T11:29:36Z</time>
      </trkpt>
      <trkpt lat="59.9633315" lon="17.7759342">
        <ele>31.3801</ele>
        <time>2013-05-01T11:29:37Z</time>
      </trkpt>
      <trkpt lat="59.9633694" lon="17.775806">
        <ele>31.3801</ele>
        <time>2013-05-01T11:29:38Z</time>
      </trkpt>
      <trkpt lat="59.9634094" lon="17.7756792">
        <ele>30.8995</ele>
        <time>2013-05-01T11:29:39Z</time>
      </trkpt>
      <trkpt lat="59.9634518" lon="17.7755499">
        <ele>30.8995</ele>
        <time>2013-05-01T11:29:40Z</time>
      </trkpt>
      <trkpt lat="59.963495" lon="17.7754192">
        <ele>30.4188</ele>
        <time>2013-05-01T11:29:41Z</time>
      </trkpt>
      <trkpt lat="59.9635346" lon="17.775284">
        <ele>30.4188</ele>
        <time>2013-05-01T11:29:42Z</time>
      </trkpt>
      <trkpt lat="59.9635709" lon="17.7751472">
        <ele>30.4188</ele>
        <time>2013-05-01T11:29:43Z</time>
      </trkpt>
      <trkpt lat="59.963605" lon="17.7750104">
        <ele>30.4188</ele>
        <time>2013-05-01T11:29:44Z</time>
      </trkpt>
      <trkpt lat="59.9636361" lon="17.7748711">
        <ele>30.4188</ele>
        <time>2013-05-01T11:29:45Z</time>
      </trkpt>
      <trkpt lat="59.9636635" lon="17.7747288">
        <ele>30.8995</ele>
        <time>2013-05-01T11:29:46Z</time>
      </trkpt>
      <trkpt lat="59.9636872" lon="17.7745846">
        <ele>30.8995</ele>
        <time>2013-05-01T11:29:47Z</time>
      </trkpt>
      <trkpt lat="59.9637092" lon="17.7744402">
        <ele>30.8995</ele>
        <time>2013-05-01T11:29:48Z</time>
      </trkpt>
      <trkpt lat="59.9637312" lon="17.7742973">
        <ele>30.8995</ele>
        <time>2013-05-01T11:29:49Z</time>
      </trkpt>
      <trkpt lat="59.9637527" lon="17.7741553">
        <ele>30.8995</ele>
        <time>2013-05-01T11:29:50Z</time>
      </trkpt>
      <trkpt lat="59.9637758" lon="17.7740136">
        <ele>30.8995</ele>
        <time>2013-05-01T11:29:51Z</time>
      </trkpt>
      <trkpt lat="59.9638006" lon="17.7738718">
        <ele>30.8995</ele>
        <time>2013-05-01T11:29:52Z</time>
      </trkpt>
      <trkpt lat="59.9638257" lon="17.7737274">
        <ele>30.8995</ele>
        <time>2013-05-01T11:29:53Z</time>
      </trkpt>
      <trkpt lat="59.9638515" lon="17.7735802">
        <ele>30.4188</ele>
        <time>2013-05-01T11:29:54Z</time>
      </trkpt>
      <trkpt lat="59.9638749" lon="17.7734295">
        <ele>30.4188</ele>
        <time>2013-05-01T11:29:55Z</time>
      </trkpt>
      <trkpt lat="59.9638944" lon="17.7732757">
        <ele>30.4188</ele>
        <time>2013-05-01T11:29:56Z</time>
      </trkpt>
      <trkpt lat="59.963909" lon="17.7731218">
        <ele>30.4188</ele>
        <time>2013-05-01T11:29:57Z</time>
      </trkpt>
      <trkpt lat="59.9639183" lon="17.772968">
        <ele>30.4188</ele>
        <time>2013-05-01T11:29:58Z</time>
      </trkpt>
      <trkpt lat="59.9639205" lon="17.7728144">
        <ele>30.4188</ele>
        <time>2013-05-01T11:29:59Z</time>
      </trkpt>
      <trkpt lat="59.9639133" lon="17.7726582">
        <ele>29.9381</ele>
        <time>2013-05-01T11:30:00Z</time>
      </trkpt>
      <trkpt lat="59.9638976" lon="17.772498">
        <ele>29.4575</ele>
        <time>2013-05-01T11:30:01Z</time>
      </trkpt>
      <trkpt lat="59.9638764" lon="17.7723392">
        <ele>29.4575</ele>
        <time>2013-05-01T11:30:02Z</time>
      </trkpt>
      <trkpt lat="59.9638509" lon="17.7721858">
        <ele>28.9769</ele>
        <time>2013-05-01T11:30:03Z</time>
      </trkpt>
      <trkpt lat="59.9638225" lon="17.7720396">
        <ele>28.9769</ele>
        <time>2013-05-01T11:30:04Z</time>
      </trkpt>
      <trkpt lat="59.9637916" lon="17.7718967">
        <ele>28.9769</ele>
        <time>2013-05-01T11:30:05Z</time>
      </trkpt>
      <trkpt lat="59.9637592" lon="17.7717584">
        <ele>28.4962</ele>
        <time>2013-05-01T11:30:06Z</time>
      </trkpt>
      <trkpt lat="59.9637256" lon="17.7716223">
        <ele>28.4962</ele>
        <time>2013-05-01T11:30:07Z</time>
      </trkpt>
      <trkpt lat="59.9636936" lon="17.7714917">
        <ele>28.4962</ele>
        <time>2013-05-01T11:30:08Z</time>
      </trkpt>
      <trkpt lat="59.9636626" lon="17.7713601">
        <ele>28.0155</ele>
        <time>2013-05-01T11:30:09Z</time>
      </trkpt>
      <trkpt lat="59.963632" lon="17.7712281">
        <ele>28.0155</ele>
        <time>2013-05-01T11:30:10Z</time>
      </trkpt>
      <trkpt lat="59.9636015" lon="17.7710949">
        <ele>27.5349</ele>
        <time>2013-05-01T11:30:11Z</time>
      </trkpt>
      <trkpt lat="59.9635723" lon="17.7709607">
        <ele>27.5349</ele>
        <time>2013-05-01T11:30:12Z</time>
      </trkpt>
      <trkpt lat="59.9635463" lon="17.7708242">
        <ele>27.0543</ele>
        <time>2013-05-01T11:30:13Z</time>
      </trkpt>
      <trkpt lat="59.9635245" lon="17.7706873">
        <ele>27.0543</ele>
        <time>2013-05-01T11:30:14Z</time>
      </trkpt>
      <trkpt lat="59.9635085" lon="17.770552">
        <ele>27.0543</ele>
        <time>2013-05-01T11:30:15Z</time>
      </trkpt>
      <trkpt lat="59.9634973" lon="17.7704145">
        <ele>27.0543</ele>
        <time>2013-05-01T11:30:16Z</time>
      </trkpt>
      <trkpt lat="59.9634894" lon="17.7702755">
        <ele>27.0543</ele>
        <time>2013-05-01T11:30:17Z</time>
      </trkpt>
      <trkpt lat="59.9634857" lon="17.7701358">
        <ele>26.5736</ele>
        <time>2013-05-01T11:30:18Z</time>
      </trkpt>
      <trkpt lat="59.9634836" lon="17.7699973">
        <ele>26.5736</ele>
        <time>2013-05-01T11:30:19Z</time>
      </trkpt>
      <trkpt lat="59.9634844" lon="17.7698572">
        <ele>26.0929</ele>
        <time>2013-05-01T11:30:20Z</time>
      </trkpt>
      <trkpt lat="59.9634915" lon="17.769718">
        <ele>25.6123</ele>
        <time>2013-05-01T11:30:21Z</time>
      </trkpt>
      <trkpt lat="59.9635064" lon="17.7695715">
        <ele>25.1317</ele>
        <time>2013-05-01T11:30:22Z</time>
      </trkpt>
      <trkpt lat="59.9635328" lon="17.7694319">
        <ele>25.1317</ele>
        <time>2013-05-01T11:30:23Z</time>
      </trkpt>
      <trkpt lat="59.9635689" lon="17.7693018">
        <ele>24.1703</ele>
        <time>2013-05-01T11:30:24Z</time>
      </trkpt>
      <trkpt lat="59.9636066" lon="17.7691713">
        <ele>24.1703</ele>
        <time>2013-05-01T11:30:25Z</time>
      </trkpt>
      <trkpt lat="59.9636444" lon="17.7690433">
        <ele>24.1703</ele>
        <time>2013-05-01T11:30:26Z</time>
      </trkpt>
      <trkpt lat="59.9636825" lon="17.7689166">
        <ele>24.1703</ele>
        <time>2013-05-01T11:30:27Z</time>
      </trkpt>
      <trkpt lat="59.963718" lon="17.7687901">
        <ele>24.1703</ele>
        <time>2013-05-01T11:30:28Z</time>
      </trkpt>
      <trkpt lat="59.9637527" lon="17.7686593">
        <ele>24.651</ele>
        <time>2013-05-01T11:30:29Z</time>
      </trkpt>
      <trkpt lat="59.9637895" lon="17.7685292">
        <ele>24.651</ele>
        <time>2013-05-01T11:30:30Z</time>
      </trkpt>
      <trkpt lat="59.9638253" lon="17.7683995">
        <ele>24.651</ele>
        <time>2013-05-01T11:30:31Z</time>
      </trkpt>
      <trkpt lat="59.9638604" lon="17.7682712">
        <ele>25.1317</ele>
        <time>2013-05-01T11:30:32Z</time>
      </trkpt>
      <trkpt lat="59.9638926" lon="17.7681462">
        <ele>25.1317</ele>
        <time>2013-05-01T11:30:33Z</time>
      </trkpt>
      <trkpt lat="59.9639239" lon="17.7680262">
        <ele>25.6123</ele>
        <time>2013-05-01T11:30:34Z</time>
      </trkpt>
      <trkpt lat="59.9639563" lon="17.7679122">
        <ele>26.0929</ele>
        <time>2013-05-01T11:30:35Z</time>
      </trkpt>
      <trkpt lat="59.9639822" lon="17.7677937">
        <ele>27.0543</ele>
        <time>2013-05-01T11:30:36Z</time>
      </trkpt>
      <trkpt lat="59.9640027" lon="17.7676634">
        <ele>27.5349</ele>
        <time>2013-05-01T11:30:37Z</time>
      </trkpt>
      <trkpt lat="59.9640251" lon="17.7675361">
        <ele>27.5349</ele>
        <time>2013-05-01T11:30:38Z</time>
      </trkpt>
      <trkpt lat="59.9640469" lon="17.7674064">
        <ele>27.5349</ele>
        <time>2013-05-01T11:30:39Z</time>
      </trkpt>
      <trkpt lat="59.9640645" lon="17.7672714">
        <ele>28.0155</ele>
        <time>2013-05-01T11:30:40Z</time>
      </trkpt>
      <trkpt lat="59.9640759" lon="17.7671352">
        <ele>28.0155</ele>
        <time>2013-05-01T11:30:41Z</time>
      </trkpt>
      <trkpt lat="59.9640835" lon="17.7669977">
        <ele>28.4962</ele>
        <time>2013-05-01T11:30:42Z</time>
      </trkpt>
      <trkpt lat="59.9640909" lon="17.7668527">
        <ele>28.4962</ele>
        <time>2013-05-01T11:30:43Z</time>
      </trkpt>
      <trkpt lat="59.9640946" lon="17.7667103">
        <ele>28.9769</ele>
        <time>2013-05-01T11:30:44Z</time>
      </trkpt>
      <trkpt lat="59.9640941" lon="17.7665693">
        <ele>28.9769</ele>
        <time>2013-05-01T11:30:45Z</time>
      </trkpt>
      <trkpt lat="59.9640941" lon="17.7664271">
        <ele>28.9769</ele>
        <time>2013-05-01T11:30:46Z</time>
      </trkpt>
      <trkpt lat="59.9640973" lon="17.7662767">
        <ele>29.4575</ele>
        <time>2013-05-01T11:30:47Z</time>
      </trkpt>
      <trkpt lat="59.9641021" lon="17.7661192">
        <ele>28.9769</ele>
        <time>2013-05-01T11:30:48Z</time>
      </trkpt>
      <trkpt lat="59.964106" lon="17.7659509">
        <ele>28.9769</ele>
        <time>2013-05-01T11:30:49Z</time>
      </trkpt>
      <trkpt lat="59.9641153" lon="17.7657837">
        <ele>27.5349</ele>
        <time>2013-05-01T11:30:50Z</time>
      </trkpt>
      <trkpt lat="59.9641355" lon="17.7655967">
        <ele>27.0543</ele>
        <time>2013-05-01T11:30:51Z</time>
      </trkpt>
      <trkpt lat="59.964146" lon="17.7654056">
        <ele>26.5736</ele>
        <time>2013-05-01T11:30:52Z</time>
      </trkpt>
      <trkpt lat="59.9641659" lon="17.7652324">
        <ele>26.0929</ele>
        <time>2013-05-01T11:30:53Z</time>
      </trkpt>
      <trkpt lat="59.9641845" lon="17.7650057">
        <ele>26.5736</ele>
        <time>2013-05-01T11:30:54Z</time>
      </trkpt>
      <trkpt lat="59.9642161" lon="17.7648186">
        <ele>26.5736</ele>
        <time>2013-05-01T11:30:55Z</time>
      </trkpt>
      <trkpt lat="59.9642467" lon="17.7645911">
        <ele>26.0929</ele>
        <time>2013-05-01T11:30:56Z</time>
      </trkpt>
      <trkpt lat="59.9642863" lon="17.7643726">
        <ele>26.0929</ele>
        <time>2013-05-01T11:30:57Z</time>
      </trkpt>
      <trkpt lat="59.9643344" lon="17.7642094">
        <ele>26.0929</ele>
        <time>2013-05-01T11:30:58Z</time>
      </trkpt>
      <trkpt lat="59.9643872" lon="17.7640551">
        <ele>26.5736</ele>
        <time>2013-05-01T11:30:59Z</time>
      </trkpt>
      <trkpt lat="59.9644392" lon="17.7639028">
        <ele>26.5736</ele>
        <time>2013-05-01T11:31:00Z</time>
      </trkpt>
      <trkpt lat="59.9644876" lon="17.7637474">
        <ele>26.0929</ele>
        <time>2013-05-01T11:31:01Z</time>
      </trkpt>
      <trkpt lat="59.964536" lon="17.7635967">
        <ele>25.6123</ele>
        <time>2013-05-01T11:31:02Z</time>
      </trkpt>
      <trkpt lat="59.96458" lon="17.7634356">
        <ele>25.1317</ele>
        <time>2013-05-01T11:31:03Z</time>
      </trkpt>
      <trkpt lat="59.964626" lon="17.7632812">
        <ele>24.1703</ele>
        <time>2013-05-01T11:31:04Z</time>
      </trkpt>
      <trkpt lat="59.9646716" lon="17.7631299">
        <ele>23.209</ele>
        <time>2013-05-01T11:31:05Z</time>
      </trkpt>
      <trkpt lat="59.9647161" lon="17.762979">
        <ele>22.7283</ele>
        <time>2013-05-01T11:31:06Z</time>
      </trkpt>
      <trkpt lat="59.9647633" lon="17.7628332">
        <ele>21.767</ele>
        <time>2013-05-01T11:31:07Z</time>
      </trkpt>
      <trkpt lat="59.9648146" lon="17.7626915">
        <ele>21.2864</ele>
        <time>2013-05-01T11:31:08Z</time>
      </trkpt>
      <trkpt lat="59.9648649" lon="17.7625509">
        <ele>20.8057</ele>
        <time>2013-05-01T11:31:09Z</time>
      </trkpt>
      <trkpt lat="59.9649165" lon="17.762416">
        <ele>19.8444</ele>
        <time>2013-05-01T11:31:10Z</time>
      </trkpt>
      <trkpt lat="59.9649695" lon="17.7622852">
        <ele>19.8444</ele>
        <time>2013-05-01T11:31:11Z</time>
      </trkpt>
      <trkpt lat="59.9650196" lon="17.7621539">
        <ele>19.3638</ele>
        <time>2013-05-01T11:31:12Z</time>
      </trkpt>
      <trkpt lat="59.9650705" lon="17.7620276">
        <ele>19.3638</ele>
        <time>2013-05-01T11:31:13Z</time>
      </trkpt>
      <trkpt lat="59.9651176" lon="17.7618935">
        <ele>19.8444</ele>
        <time>2013-05-01T11:31:14Z</time>
      </trkpt>
      <trkpt lat="59.9651647" lon="17.7617681">
        <ele>19.8444</ele>
        <time>2013-05-01T11:31:15Z</time>
      </trkpt>
      <trkpt lat="59.9652104" lon="17.7616439">
        <ele>19.8444</ele>
        <time>2013-05-01T11:31:16Z</time>
      </trkpt>
      <trkpt lat="59.9652573" lon="17.7615242">
        <ele>19.3638</ele>
        <time>2013-05-01T11:31:17Z</time>
      </trkpt>
      <trkpt lat="59.9653052" lon="17.7614058">
        <ele>19.3638</ele>
        <time>2013-05-01T11:31:18Z</time>
      </trkpt>
      <trkpt lat="59.9653507" lon="17.7612856">
        <ele>18.8831</ele>
        <time>2013-05-01T11:31:19Z</time>
      </trkpt>
      <trkpt lat="59.9653994" lon="17.7611662">
        <ele>18.8831</ele>
        <time>2013-05-01T11:31:20Z</time>
      </trkpt>
      <trkpt lat="59.9654512" lon="17.7610476">
        <ele>18.4023</ele>
        <time>2013-05-01T11:31:21Z</time>
      </trkpt>
      <trkpt lat="59.9655046" lon="17.7609325">
        <ele>18.8831</ele>
        <time>2013-05-01T11:31:22Z</time>
      </trkpt>
      <trkpt lat="59.9655445" lon="17.7607638">
        <ele>21.2864</ele>
        <time>2013-05-01T11:31:23Z</time>
      </trkpt>
      <trkpt lat="59.965603" lon="17.7606661">
        <ele>21.767</ele>
        <time>2013-05-01T11:31:24Z</time>
      </trkpt>
      <trkpt lat="59.9656625" lon="17.7605759">
        <ele>21.767</ele>
        <time>2013-05-01T11:31:25Z</time>
      </trkpt>
      <trkpt lat="59.9657223" lon="17.7604881">
        <ele>21.2864</ele>
        <time>2013-05-01T11:31:26Z</time>
      </trkpt>
      <trkpt lat="59.9657792" lon="17.7603866">
        <ele>21.767</ele>
        <time>2013-05-01T11:31:27Z</time>
      </trkpt>
      <trkpt lat="59.9658387" lon="17.7602871">
        <ele>21.2864</ele>
        <time>2013-05-01T11:31:28Z</time>
      </trkpt>
      <trkpt lat="59.9658993" lon="17.7601881">
        <ele>20.8057</ele>
        <time>2013-05-01T11:31:29Z</time>
      </trkpt>
      <trkpt lat="59.9659615" lon="17.7600907">
        <ele>20.325</ele>
        <time>2013-05-01T11:31:30Z</time>
      </trkpt>
      <trkpt lat="59.9660242" lon="17.7599939">
        <ele>19.8444</ele>
        <time>2013-05-01T11:31:31Z</time>
      </trkpt>
      <trkpt lat="59.9660852" lon="17.759894">
        <ele>19.3638</ele>
        <time>2013-05-01T11:31:32Z</time>
      </trkpt>
      <trkpt lat="59.9661473" lon="17.7597974">
        <ele>19.3638</ele>
        <time>2013-05-01T11:31:33Z</time>
      </trkpt>
      <trkpt lat="59.9662106" lon="17.7597057">
        <ele>18.8831</ele>
        <time>2013-05-01T11:31:34Z</time>
      </trkpt>
      <trkpt lat="59.9662721" lon="17.7596142">
        <ele>18.8831</ele>
        <time>2013-05-01T11:31:35Z</time>
      </trkpt>
      <trkpt lat="59.9663349" lon="17.7595261">
        <ele>18.4023</ele>
        <time>2013-05-01T11:31:36Z</time>
      </trkpt>
      <trkpt lat="59.9663966" lon="17.7594426">
        <ele>17.9218</ele>
        <time>2013-05-01T11:31:37Z</time>
      </trkpt>
      <trkpt lat="59.9664573" lon="17.7593599">
        <ele>17.4412</ele>
        <time>2013-05-01T11:31:38Z</time>
      </trkpt>
      <trkpt lat="59.9665199" lon="17.7592807">
        <ele>16.9604</ele>
        <time>2013-05-01T11:31:39Z</time>
      </trkpt>
      <trkpt lat="59.9665851" lon="17.7592068">
        <ele>16.4797</ele>
        <time>2013-05-01T11:31:40Z</time>
      </trkpt>
      <trkpt lat="59.9666503" lon="17.7591392">
        <ele>15.999</ele>
        <time>2013-05-01T11:31:41Z</time>
      </trkpt>
      <trkpt lat="59.9667168" lon="17.7590751">
        <ele>15.999</ele>
        <time>2013-05-01T11:31:42Z</time>
      </trkpt>
      <trkpt lat="59.9667867" lon="17.7590154">
        <ele>15.0377</ele>
        <time>2013-05-01T11:31:43Z</time>
      </trkpt>
      <trkpt lat="59.9668483" lon="17.75893">
        <ele>15.999</ele>
        <time>2013-05-01T11:31:44Z</time>
      </trkpt>
      <trkpt lat="59.9669111" lon="17.7588511">
        <ele>16.4797</ele>
        <time>2013-05-01T11:31:45Z</time>
      </trkpt>
      <trkpt lat="59.9669758" lon="17.7587774">
        <ele>16.9604</ele>
        <time>2013-05-01T11:31:46Z</time>
      </trkpt>
      <trkpt lat="59.9670436" lon="17.7587216">
        <ele>16.9604</ele>
        <time>2013-05-01T11:31:47Z</time>
      </trkpt>
      <trkpt lat="59.9671115" lon="17.7586668">
        <ele>16.9604</ele>
        <time>2013-05-01T11:31:48Z</time>
      </trkpt>
      <trkpt lat="59.9671791" lon="17.7586086">
        <ele>17.4412</ele>
        <time>2013-05-01T11:31:49Z</time>
      </trkpt>
      <trkpt lat="59.9672477" lon="17.7585549">
        <ele>17.4412</ele>
        <time>2013-05-01T11:31:50Z</time>
      </trkpt>
      <trkpt lat="59.9673154" lon="17.7585">
        <ele>17.4412</ele>
        <time>2013-05-01T11:31:51Z</time>
      </trkpt>
      <trkpt lat="59.9673806" lon="17.7584386">
        <ele>17.4412</ele>
        <time>2013-05-01T11:31:52Z</time>
      </trkpt>
      <trkpt lat="59.9674459" lon="17.7583813">
        <ele>17.4412</ele>
        <time>2013-05-01T11:31:53Z</time>
      </trkpt>
      <trkpt lat="59.9675119" lon="17.7583213">
        <ele>17.4412</ele>
        <time>2013-05-01T11:31:54Z</time>
      </trkpt>
      <trkpt lat="59.9675804" lon="17.7582575">
        <ele>17.4412</ele>
        <time>2013-05-01T11:31:55Z</time>
      </trkpt>
      <trkpt lat="59.9676481" lon="17.7581898">
        <ele>17.9218</ele>
        <time>2013-05-01T11:31:56Z</time>
      </trkpt>
      <trkpt lat="59.9677168" lon="17.7581273">
        <ele>17.4412</ele>
        <time>2013-05-01T11:31:57Z</time>
      </trkpt>
      <trkpt lat="59.9677839" lon="17.7580612">
        <ele>17.4412</ele>
        <time>2013-05-01T11:31:58Z</time>
      </trkpt>
      <trkpt lat="59.967835" lon="17.7579445">
        <ele>20.8057</ele>
        <time>2013-05-01T11:31:59Z</time>
      </trkpt>
      <trkpt lat="59.9678895" lon="17.7578469">
        <ele>22.7283</ele>
        <time>2013-05-01T11:32:00Z</time>
      </trkpt>
      <trkpt lat="59.9679489" lon="17.7577644">
        <ele>23.6896</ele>
        <time>2013-05-01T11:32:01Z</time>
      </trkpt>
      <trkpt lat="59.9680117" lon="17.7576912">
        <ele>23.6896</ele>
        <time>2013-05-01T11:32:02Z</time>
      </trkpt>
      <trkpt lat="59.9680708" lon="17.757612">
        <ele>24.1703</ele>
        <time>2013-05-01T11:32:03Z</time>
      </trkpt>
      <trkpt lat="59.9681284" lon="17.7575432">
        <ele>24.651</ele>
        <time>2013-05-01T11:32:04Z</time>
      </trkpt>
      <trkpt lat="59.9681832" lon="17.7574762">
        <ele>24.651</ele>
        <time>2013-05-01T11:32:05Z</time>
      </trkpt>
      <trkpt lat="59.9682305" lon="17.7573965">
        <ele>25.6123</ele>
        <time>2013-05-01T11:32:06Z</time>
      </trkpt>
      <trkpt lat="59.968279" lon="17.7573245">
        <ele>26.5736</ele>
        <time>2013-05-01T11:32:07Z</time>
      </trkpt>
      <trkpt lat="59.9683261" lon="17.7572531">
        <ele>27.0543</ele>
        <time>2013-05-01T11:32:08Z</time>
      </trkpt>
      <trkpt lat="59.9683758" lon="17.757181">
        <ele>27.0543</ele>
        <time>2013-05-01T11:32:09Z</time>
      </trkpt>
      <trkpt lat="59.9684251" lon="17.7571071">
        <ele>27.0543</ele>
        <time>2013-05-01T11:32:10Z</time>
      </trkpt>
      <trkpt lat="59.9684785" lon="17.7570312">
        <ele>27.0543</ele>
        <time>2013-05-01T11:32:11Z</time>
      </trkpt>
      <trkpt lat="59.9685363" lon="17.7569579">
        <ele>26.5736</ele>
        <time>2013-05-01T11:32:12Z</time>
      </trkpt>
      <trkpt lat="59.9685931" lon="17.7568812">
        <ele>26.0929</ele>
        <time>2013-05-01T11:32:13Z</time>
      </trkpt>
      <trkpt lat="59.968651" lon="17.7568004">
        <ele>26.0929</ele>
        <time>2013-05-01T11:32:14Z</time>
      </trkpt>
      <trkpt lat="59.9687094" lon="17.7567179">
        <ele>26.0929</ele>
        <time>2013-05-01T11:32:15Z</time>
      </trkpt>
      <trkpt lat="59.968766" lon="17.756631">
        <ele>25.6123</ele>
        <time>2013-05-01T11:32:16Z</time>
      </trkpt>
      <trkpt lat="59.9688139" lon="17.7565432">
        <ele>25.6123</ele>
        <time>2013-05-01T11:32:17Z</time>
      </trkpt>
      <trkpt lat="59.9688613" lon="17.7564562">
        <ele>25.6123</ele>
        <time>2013-05-01T11:32:18Z</time>
      </trkpt>
      <trkpt lat="59.9689084" lon="17.7563679">
        <ele>25.1317</ele>
        <time>2013-05-01T11:32:19Z</time>
      </trkpt>
      <trkpt lat="59.968951" lon="17.7562744">
        <ele>25.1317</ele>
        <time>2013-05-01T11:32:20Z</time>
      </trkpt>
      <trkpt lat="59.9689999" lon="17.7561869">
        <ele>24.651</ele>
        <time>2013-05-01T11:32:21Z</time>
      </trkpt>
      <trkpt lat="59.9690509" lon="17.7560957">
        <ele>23.6896</ele>
        <time>2013-05-01T11:32:22Z</time>
      </trkpt>
      <trkpt lat="59.9691011" lon="17.7559969">
        <ele>23.6896</ele>
        <time>2013-05-01T11:32:23Z</time>
      </trkpt>
      <trkpt lat="59.9691486" lon="17.7558911">
        <ele>23.6896</ele>
        <time>2013-05-01T11:32:24Z</time>
      </trkpt>
      <trkpt lat="59.9691959" lon="17.7557851">
        <ele>24.1703</ele>
        <time>2013-05-01T11:32:25Z</time>
      </trkpt>
      <trkpt lat="59.9692444" lon="17.7556802">
        <ele>24.1703</ele>
        <time>2013-05-01T11:32:26Z</time>
      </trkpt>
      <trkpt lat="59.9692929" lon="17.7555746">
        <ele>24.1703</ele>
        <time>2013-05-01T11:32:27Z</time>
      </trkpt>
      <trkpt lat="59.9693436" lon="17.7554678">
        <ele>24.1703</ele>
        <time>2013-05-01T11:32:28Z</time>
      </trkpt>
      <trkpt lat="59.9693947" lon="17.7553577">
        <ele>24.1703</ele>
        <time>2013-05-01T11:32:29Z</time>
      </trkpt>
      <trkpt lat="59.9694438" lon="17.7552427">
        <ele>24.651</ele>
        <time>2013-05-01T11:32:30Z</time>
      </trkpt>
      <trkpt lat="59.9694944" lon="17.7551308">
        <ele>24.651</ele>
        <time>2013-05-01T11:32:31Z</time>
      </trkpt>
      <trkpt lat="59.969544" lon="17.7550161">
        <ele>25.1317</ele>
        <time>2013-05-01T11:32:32Z</time>
      </trkpt>
      <trkpt lat="59.9695962" lon="17.754906">
        <ele>25.1317</ele>
        <time>2013-05-01T11:32:33Z</time>
      </trkpt>
      <trkpt lat="59.9696496" lon="17.7548004">
        <ele>25.1317</ele>
        <time>2013-05-01T11:32:34Z</time>
      </trkpt>
      <trkpt lat="59.9697046" lon="17.7546983">
        <ele>24.651</ele>
        <time>2013-05-01T11:32:35Z</time>
      </trkpt>
      <trkpt lat="59.9697565" lon="17.7546005">
        <ele>24.651</ele>
        <time>2013-05-01T11:32:36Z</time>
      </trkpt>
      <trkpt lat="59.9698082" lon="17.7545035">
        <ele>24.1703</ele>
        <time>2013-05-01T11:32:37Z</time>
      </trkpt>
      <trkpt lat="59.9698619" lon="17.7544005">
        <ele>24.1703</ele>
        <time>2013-05-01T11:32:38Z</time>
      </trkpt>
      <trkpt lat="59.9699113" lon="17.754285">
        <ele>24.1703</ele>
        <time>2013-05-01T11:32:39Z</time>
      </trkpt>
      <trkpt lat="59.9699611" lon="17.7541671">
        <ele>24.1703</ele>
        <time>2013-05-01T11:32:40Z</time>
      </trkpt>
      <trkpt lat="59.9700119" lon="17.7540509">
        <ele>24.651</ele>
        <time>2013-05-01T11:32:41Z</time>
      </trkpt>
      <trkpt lat="59.9700619" lon="17.7539354">
        <ele>24.651</ele>
        <time>2013-05-01T11:32:42Z</time>
      </trkpt>
      <trkpt lat="59.9701112" lon="17.7538202">
        <ele>24.1703</ele>
        <time>2013-05-01T11:32:43Z</time>
      </trkpt>
      <trkpt lat="59.9701593" lon="17.7536808">
        <ele>23.6896</ele>
        <time>2013-05-01T11:32:44Z</time>
      </trkpt>
      <trkpt lat="59.9702128" lon="17.7535357">
        <ele>23.209</ele>
        <time>2013-05-01T11:32:45Z</time>
      </trkpt>
      <trkpt lat="59.9702501" lon="17.7533875">
        <ele>23.209</ele>
        <time>2013-05-01T11:32:46Z</time>
      </trkpt>
      <trkpt lat="59.9702848" lon="17.7532478">
        <ele>23.209</ele>
        <time>2013-05-01T11:32:47Z</time>
      </trkpt>
      <trkpt lat="59.970337" lon="17.7531342">
        <ele>22.2476</ele>
        <time>2013-05-01T11:32:48Z</time>
      </trkpt>
      <trkpt lat="59.9703825" lon="17.7530241">
        <ele>21.767</ele>
        <time>2013-05-01T11:32:49Z</time>
      </trkpt>
      <trkpt lat="59.9704298" lon="17.7529142">
        <ele>20.8057</ele>
        <time>2013-05-01T11:32:50Z</time>
      </trkpt>
      <trkpt lat="59.970475" lon="17.7528019">
        <ele>20.325</ele>
        <time>2013-05-01T11:32:51Z</time>
      </trkpt>
      <trkpt lat="59.9705162" lon="17.7526929">
        <ele>19.8444</ele>
        <time>2013-05-01T11:32:52Z</time>
      </trkpt>
      <trkpt lat="59.9705649" lon="17.7525867">
        <ele>19.3638</ele>
        <time>2013-05-01T11:32:53Z</time>
      </trkpt>
      <trkpt lat="59.9706151" lon="17.752488">
        <ele>18.8831</ele>
        <time>2013-05-01T11:32:54Z</time>
      </trkpt>
      <trkpt lat="59.9706686" lon="17.7523914">
        <ele>18.4023</ele>
        <time>2013-05-01T11:32:55Z</time>
      </trkpt>
      <trkpt lat="59.9707246" lon="17.7522973">
        <ele>17.9218</ele>
        <time>2013-05-01T11:32:56Z</time>
      </trkpt>
      <trkpt lat="59.970784" lon="17.7522097">
        <ele>17.4412</ele>
        <time>2013-05-01T11:32:57Z</time>
      </trkpt>
      <trkpt lat="59.9708443" lon="17.7521238">
        <ele>16.9604</ele>
        <time>2013-05-01T11:32:58Z</time>
      </trkpt>
      <trkpt lat="59.9709049" lon="17.7520414">
        <ele>15.999</ele>
        <time>2013-05-01T11:32:59Z</time>
      </trkpt>
      <trkpt lat="59.970967" lon="17.751961">
        <ele>15.5184</ele>
        <time>2013-05-01T11:33:00Z</time>
      </trkpt>
      <trkpt lat="59.9710305" lon="17.751886">
        <ele>15.0377</ele>
        <time>2013-05-01T11:33:01Z</time>
      </trkpt>
      <trkpt lat="59.9710953" lon="17.7518083">
        <ele>14.557</ele>
        <time>2013-05-01T11:33:02Z</time>
      </trkpt>
      <trkpt lat="59.9711614" lon="17.7517348">
        <ele>14.557</ele>
        <time>2013-05-01T11:33:03Z</time>
      </trkpt>
      <trkpt lat="59.9712269" lon="17.7516625">
        <ele>14.0764</ele>
        <time>2013-05-01T11:33:04Z</time>
      </trkpt>
      <trkpt lat="59.9712926" lon="17.7515965">
        <ele>14.0764</ele>
        <time>2013-05-01T11:33:05Z</time>
      </trkpt>
      <trkpt lat="59.9713576" lon="17.7515316">
        <ele>13.5958</ele>
        <time>2013-05-01T11:33:06Z</time>
      </trkpt>
      <trkpt lat="59.9714218" lon="17.7514722">
        <ele>13.5958</ele>
        <time>2013-05-01T11:33:07Z</time>
      </trkpt>
      <trkpt lat="59.9714856" lon="17.7514132">
        <ele>13.1151</ele>
        <time>2013-05-01T11:33:08Z</time>
      </trkpt>
      <trkpt lat="59.9715487" lon="17.7513577">
        <ele>12.6344</ele>
        <time>2013-05-01T11:33:09Z</time>
      </trkpt>
      <trkpt lat="59.9716118" lon="17.7513083">
        <ele>12.1538</ele>
        <time>2013-05-01T11:33:10Z</time>
      </trkpt>
      <trkpt lat="59.9716744" lon="17.7512547">
        <ele>11.6732</ele>
        <time>2013-05-01T11:33:11Z</time>
      </trkpt>
      <trkpt lat="59.9717284" lon="17.7511892">
        <ele>12.1538</ele>
        <time>2013-05-01T11:33:12Z</time>
      </trkpt>
      <trkpt lat="59.971787" lon="17.7511331">
        <ele>11.6732</ele>
        <time>2013-05-01T11:33:13Z</time>
      </trkpt>
      <trkpt lat="59.9718434" lon="17.7510682">
        <ele>11.1925</ele>
        <time>2013-05-01T11:33:14Z</time>
      </trkpt>
      <trkpt lat="59.9719016" lon="17.7509893">
        <ele>10.7118</ele>
        <time>2013-05-01T11:33:15Z</time>
      </trkpt>
      <trkpt lat="59.9719612" lon="17.7509204">
        <ele>9.2699</ele>
        <time>2013-05-01T11:33:16Z</time>
      </trkpt>
      <trkpt lat="59.9720186" lon="17.7508446">
        <ele>8.30859</ele>
        <time>2013-05-01T11:33:17Z</time>
      </trkpt>
      <trkpt lat="59.9720764" lon="17.7507679">
        <ele>7.34717</ele>
        <time>2013-05-01T11:33:18Z</time>
      </trkpt>
      <trkpt lat="59.9721345" lon="17.7506952">
        <ele>6.38586</ele>
        <time>2013-05-01T11:33:19Z</time>
      </trkpt>
      <trkpt lat="59.9721972" lon="17.7505904">
        <ele>6.38586</ele>
        <time>2013-05-01T11:33:20Z</time>
      </trkpt>
      <trkpt lat="59.9722408" lon="17.7505024">
        <ele>6.86646</ele>
        <time>2013-05-01T11:33:21Z</time>
      </trkpt>
      <trkpt lat="59.9722976" lon="17.7504149">
        <ele>6.38586</ele>
        <time>2013-05-01T11:33:22Z</time>
      </trkpt>
      <trkpt lat="59.9723356" lon="17.7503174">
        <ele>6.38586</ele>
        <time>2013-05-01T11:33:23Z</time>
      </trkpt>
      <trkpt lat="59.9724003" lon="17.7501852">
        <ele>5.42456</ele>
        <time>2013-05-01T11:33:24Z</time>
      </trkpt>
      <trkpt lat="59.9724462" lon="17.7501181">
        <ele>4.94385</ele>
        <time>2013-05-01T11:33:25Z</time>
      </trkpt>
      <trkpt lat="59.97243" lon="17.7497911">
        <ele>8.78918</ele>
        <time>2013-05-01T11:33:26Z</time>
      </trkpt>
      <trkpt lat="59.972446" lon="17.7496568">
        <ele>9.2699</ele>
        <time>2013-05-01T11:33:27Z</time>
      </trkpt>
      <trkpt lat="59.9724431" lon="17.7493969">
        <ele>15.999</ele>
        <time>2013-05-01T11:33:28Z</time>
      </trkpt>
      <trkpt lat="59.9724717" lon="17.7492492">
        <ele>18.8831</ele>
        <time>2013-05-01T11:33:29Z</time>
      </trkpt>
      <trkpt lat="59.9725157" lon="17.7491455">
        <ele>19.8444</ele>
        <time>2013-05-01T11:33:30Z</time>
      </trkpt>
      <trkpt lat="59.9725635" lon="17.7490116">
        <ele>21.2864</ele>
        <time>2013-05-01T11:33:31Z</time>
      </trkpt>
      <trkpt lat="59.9726064" lon="17.7489013">
        <ele>22.2476</ele>
        <time>2013-05-01T11:33:32Z</time>
      </trkpt>
      <trkpt lat="59.9726515" lon="17.7487966">
        <ele>23.209</ele>
        <time>2013-05-01T11:33:33Z</time>
      </trkpt>
      <trkpt lat="59.972696" lon="17.7486936">
        <ele>23.6896</ele>
        <time>2013-05-01T11:33:34Z</time>
      </trkpt>
      <trkpt lat="59.9727384" lon="17.7485863">
        <ele>24.1703</ele>
        <time>2013-05-01T11:33:35Z</time>
      </trkpt>
      <trkpt lat="59.9727656" lon="17.7484878">
        <ele>24.1703</ele>
        <time>2013-05-01T11:33:36Z</time>
      </trkpt>
      <trkpt lat="59.9728029" lon="17.7483835">
        <ele>24.1703</ele>
        <time>2013-05-01T11:33:37Z</time>
      </trkpt>
      <trkpt lat="59.972852" lon="17.7482701">
        <ele>24.651</ele>
        <time>2013-05-01T11:33:38Z</time>
      </trkpt>
      <trkpt lat="59.9729105" lon="17.7481574">
        <ele>24.1703</ele>
        <time>2013-05-01T11:33:39Z</time>
      </trkpt>
      <trkpt lat="59.9729757" lon="17.7480637">
        <ele>23.209</ele>
        <time>2013-05-01T11:33:40Z</time>
      </trkpt>
      <trkpt lat="59.9730422" lon="17.7479673">
        <ele>23.209</ele>
        <time>2013-05-01T11:33:41Z</time>
      </trkpt>
      <trkpt lat="59.973109" lon="17.7478788">
        <ele>23.209</ele>
        <time>2013-05-01T11:33:42Z</time>
      </trkpt>
      <trkpt lat="59.9731777" lon="17.7477949">
        <ele>23.209</ele>
        <time>2013-05-01T11:33:43Z</time>
      </trkpt>
      <trkpt lat="59.9732462" lon="17.7477165">
        <ele>22.7283</ele>
        <time>2013-05-01T11:33:44Z</time>
      </trkpt>
      <trkpt lat="59.9733132" lon="17.7476405">
        <ele>23.209</ele>
        <time>2013-05-01T11:33:45Z</time>
      </trkpt>
      <trkpt lat="59.9733836" lon="17.7475679">
        <ele>23.209</ele>
        <time>2013-05-01T11:33:46Z</time>
      </trkpt>
      <trkpt lat="59.9734514" lon="17.7474959">
        <ele>23.209</ele>
        <time>2013-05-01T11:33:47Z</time>
      </trkpt>
      <trkpt lat="59.9735229" lon="17.7474266">
        <ele>22.7283</ele>
        <time>2013-05-01T11:33:48Z</time>
      </trkpt>
      <trkpt lat="59.9735948" lon="17.7473569">
        <ele>22.7283</ele>
        <time>2013-05-01T11:33:49Z</time>
      </trkpt>
      <trkpt lat="59.9736669" lon="17.7472835">
        <ele>23.6896</ele>
        <time>2013-05-01T11:33:50Z</time>
      </trkpt>
      <trkpt lat="59.9737307" lon="17.7472126">
        <ele>24.1703</ele>
        <time>2013-05-01T11:33:51Z</time>
      </trkpt>
      <trkpt lat="59.9737948" lon="17.7471401">
        <ele>25.1317</ele>
        <time>2013-05-01T11:33:52Z</time>
      </trkpt>
      <trkpt lat="59.9738621" lon="17.7470628">
        <ele>26.0929</ele>
        <time>2013-05-01T11:33:53Z</time>
      </trkpt>
      <trkpt lat="59.9739228" lon="17.7469919">
        <ele>26.0929</ele>
        <time>2013-05-01T11:33:54Z</time>
      </trkpt>
      <trkpt lat="59.9739865" lon="17.7469157">
        <ele>26.5736</ele>
        <time>2013-05-01T11:33:55Z</time>
      </trkpt>
      <trkpt lat="59.9740459" lon="17.7468422">
        <ele>26.5736</ele>
        <time>2013-05-01T11:33:56Z</time>
      </trkpt>
      <trkpt lat="59.9741077" lon="17.7467655">
        <ele>27.0543</ele>
        <time>2013-05-01T11:33:57Z</time>
      </trkpt>
      <trkpt lat="59.9741723" lon="17.746686">
        <ele>27.0543</ele>
        <time>2013-05-01T11:33:58Z</time>
      </trkpt>
      <trkpt lat="59.9742367" lon="17.7466054">
        <ele>27.0543</ele>
        <time>2013-05-01T11:33:59Z</time>
      </trkpt>
      <trkpt lat="59.9743014" lon="17.7465273">
        <ele>27.0543</ele>
        <time>2013-05-01T11:34:00Z</time>
      </trkpt>
      <trkpt lat="59.9743635" lon="17.7464484">
        <ele>27.5349</ele>
        <time>2013-05-01T11:34:01Z</time>
      </trkpt>
      <trkpt lat="59.9744238" lon="17.7463664">
        <ele>28.4962</ele>
        <time>2013-05-01T11:34:02Z</time>
      </trkpt>
      <trkpt lat="59.9744843" lon="17.7462841">
        <ele>28.9769</ele>
        <time>2013-05-01T11:34:03Z</time>
      </trkpt>
      <trkpt lat="59.9745419" lon="17.7462009">
        <ele>28.9769</ele>
        <time>2013-05-01T11:34:04Z</time>
      </trkpt>
      <trkpt lat="59.9745934" lon="17.746119">
        <ele>29.4575</ele>
        <time>2013-05-01T11:34:05Z</time>
      </trkpt>
      <trkpt lat="59.974645" lon="17.7460315">
        <ele>29.9381</ele>
        <time>2013-05-01T11:34:06Z</time>
      </trkpt>
      <trkpt lat="59.9746963" lon="17.7459455">
        <ele>29.9381</ele>
        <time>2013-05-01T11:34:07Z</time>
      </trkpt>
      <trkpt lat="59.974748" lon="17.7458532">
        <ele>29.4575</ele>
        <time>2013-05-01T11:34:08Z</time>
      </trkpt>
      <trkpt lat="59.9748008" lon="17.7457507">
        <ele>29.4575</ele>
        <time>2013-05-01T11:34:09Z</time>
      </trkpt>
      <trkpt lat="59.9748515" lon="17.7456419">
        <ele>29.4575</ele>
        <time>2013-05-01T11:34:10Z</time>
      </trkpt>
      <trkpt lat="59.9749008" lon="17.745529">
        <ele>28.9769</ele>
        <time>2013-05-01T11:34:11Z</time>
      </trkpt>
      <trkpt lat="59.9749484" lon="17.7454139">
        <ele>28.9769</ele>
        <time>2013-05-01T11:34:12Z</time>
      </trkpt>
      <trkpt lat="59.9749946" lon="17.7452889">
        <ele>28.4962</ele>
        <time>2013-05-01T11:34:13Z</time>
      </trkpt>
      <trkpt lat="59.9750394" lon="17.7451616">
        <ele>28.4962</ele>
        <time>2013-05-01T11:34:14Z</time>
      </trkpt>
      <trkpt lat="59.9750834" lon="17.7450325">
        <ele>28.4962</ele>
        <time>2013-05-01T11:34:15Z</time>
      </trkpt>
      <trkpt lat="59.9751272" lon="17.7449037">
        <ele>28.4962</ele>
        <time>2013-05-01T11:34:16Z</time>
      </trkpt>
      <trkpt lat="59.9751679" lon="17.7447722">
        <ele>28.4962</ele>
        <time>2013-05-01T11:34:17Z</time>
      </trkpt>
      <trkpt lat="59.975205" lon="17.7446338">
        <ele>28.9769</ele>
        <time>2013-05-01T11:34:18Z</time>
      </trkpt>
      <trkpt lat="59.9752412" lon="17.7444945">
        <ele>29.4575</ele>
        <time>2013-05-01T11:34:19Z</time>
      </trkpt>
      <trkpt lat="59.9752748" lon="17.7443542">
        <ele>29.4575</ele>
        <time>2013-05-01T11:34:20Z</time>
      </trkpt>
      <trkpt lat="59.9753052" lon="17.7442123">
        <ele>29.4575</ele>
        <time>2013-05-01T11:34:21Z</time>
      </trkpt>
      <trkpt lat="59.9753292" lon="17.7440685">
        <ele>30.4188</ele>
        <time>2013-05-01T11:34:22Z</time>
      </trkpt>
      <trkpt lat="59.9753524" lon="17.7439271">
        <ele>30.8995</ele>
        <time>2013-05-01T11:34:23Z</time>
      </trkpt>
      <trkpt lat="59.9753761" lon="17.7437854">
        <ele>31.3801</ele>
        <time>2013-05-01T11:34:24Z</time>
      </trkpt>
      <trkpt lat="59.9753999" lon="17.7436418">
        <ele>31.8607</ele>
        <time>2013-05-01T11:34:25Z</time>
      </trkpt>
      <trkpt lat="59.9754219" lon="17.7434972">
        <ele>32.8223</ele>
        <time>2013-05-01T11:34:26Z</time>
      </trkpt>
      <trkpt lat="59.9754463" lon="17.7433513">
        <ele>33.3029</ele>
        <time>2013-05-01T11:34:27Z</time>
      </trkpt>
      <trkpt lat="59.9754768" lon="17.7432065">
        <ele>33.7834</ele>
        <time>2013-05-01T11:34:28Z</time>
      </trkpt>
      <trkpt lat="59.9755131" lon="17.7430653">
        <ele>34.2642</ele>
        <time>2013-05-01T11:34:29Z</time>
      </trkpt>
      <trkpt lat="59.9755519" lon="17.7429273">
        <ele>34.7449</ele>
        <time>2013-05-01T11:34:30Z</time>
      </trkpt>
      <trkpt lat="59.9755921" lon="17.7427835">
        <ele>34.7449</ele>
        <time>2013-05-01T11:34:31Z</time>
      </trkpt>
      <trkpt lat="59.9756265" lon="17.7426489">
        <ele>35.2255</ele>
        <time>2013-05-01T11:34:32Z</time>
      </trkpt>
      <trkpt lat="59.9756647" lon="17.7425129">
        <ele>35.2255</ele>
        <time>2013-05-01T11:34:33Z</time>
      </trkpt>
      <trkpt lat="59.9756997" lon="17.7423747">
        <ele>35.2255</ele>
        <time>2013-05-01T11:34:34Z</time>
      </trkpt>
      <trkpt lat="59.9757352" lon="17.7422267">
        <ele>35.2255</ele>
        <time>2013-05-01T11:34:35Z</time>
      </trkpt>
      <trkpt lat="59.9757665" lon="17.7420804">
        <ele>35.2255</ele>
        <time>2013-05-01T11:34:36Z</time>
      </trkpt>
      <trkpt lat="59.9757969" lon="17.7419313">
        <ele>35.7061</ele>
        <time>2013-05-01T11:34:37Z</time>
      </trkpt>
      <trkpt lat="59.9758283" lon="17.7417834">
        <ele>35.7061</ele>
        <time>2013-05-01T11:34:38Z</time>
      </trkpt>
      <trkpt lat="59.9758641" lon="17.7416336">
        <ele>35.7061</ele>
        <time>2013-05-01T11:34:39Z</time>
      </trkpt>
      <trkpt lat="59.9758983" lon="17.7414811">
        <ele>35.2255</ele>
        <time>2013-05-01T11:34:40Z</time>
      </trkpt>
      <trkpt lat="59.9759337" lon="17.7413264">
        <ele>34.7449</ele>
        <time>2013-05-01T11:34:41Z</time>
      </trkpt>
      <trkpt lat="59.9759731" lon="17.7411741">
        <ele>34.7449</ele>
        <time>2013-05-01T11:34:42Z</time>
      </trkpt>
      <trkpt lat="59.9760114" lon="17.7410188">
        <ele>34.2642</ele>
        <time>2013-05-01T11:34:43Z</time>
      </trkpt>
      <trkpt lat="59.9760516" lon="17.7408686">
        <ele>34.2642</ele>
        <time>2013-05-01T11:34:44Z</time>
      </trkpt>
      <trkpt lat="59.9760943" lon="17.7407229">
        <ele>33.7834</ele>
        <time>2013-05-01T11:34:45Z</time>
      </trkpt>
      <trkpt lat="59.9761388" lon="17.7405885">
        <ele>33.3029</ele>
        <time>2013-05-01T11:34:46Z</time>
      </trkpt>
      <trkpt lat="59.9761838" lon="17.7404523">
        <ele>33.3029</ele>
        <time>2013-05-01T11:34:47Z</time>
      </trkpt>
      <trkpt lat="59.9762287" lon="17.7403203">
        <ele>33.3029</ele>
        <time>2013-05-01T11:34:48Z</time>
      </trkpt>
      <trkpt lat="59.9762715" lon="17.7401892">
        <ele>32.8223</ele>
        <time>2013-05-01T11:34:49Z</time>
      </trkpt>
      <trkpt lat="59.9763137" lon="17.7400552">
        <ele>32.3416</ele>
        <time>2013-05-01T11:34:50Z</time>
      </trkpt>
      <trkpt lat="59.9763559" lon="17.7399203">
        <ele>31.8607</ele>
        <time>2013-05-01T11:34:51Z</time>
      </trkpt>
      <trkpt lat="59.9764041" lon="17.7397915">
        <ele>31.3801</ele>
        <time>2013-05-01T11:34:52Z</time>
      </trkpt>
      <trkpt lat="59.9764606" lon="17.7396763">
        <ele>31.3801</ele>
        <time>2013-05-01T11:34:53Z</time>
      </trkpt>
      <trkpt lat="59.9765247" lon="17.7395797">
        <ele>30.8995</ele>
        <time>2013-05-01T11:34:54Z</time>
      </trkpt>
      <trkpt lat="59.9765956" lon="17.7395015">
        <ele>30.8995</ele>
        <time>2013-05-01T11:34:55Z</time>
      </trkpt>
      <trkpt lat="59.9766687" lon="17.7394392">
        <ele>30.8995</ele>
        <time>2013-05-01T11:34:56Z</time>
      </trkpt>
      <trkpt lat="59.9767413" lon="17.7393928">
        <ele>30.8995</ele>
        <time>2013-05-01T11:34:57Z</time>
      </trkpt>
      <trkpt lat="59.9768122" lon="17.7393595">
        <ele>30.8995</ele>
        <time>2013-05-01T11:34:58Z</time>
      </trkpt>
      <trkpt lat="59.9768805" lon="17.7393352">
        <ele>30.8995</ele>
        <time>2013-05-01T11:34:59Z</time>
      </trkpt>
      <trkpt lat="59.9769446" lon="17.7393216">
        <ele>31.3801</ele>
        <time>2013-05-01T11:35:00Z</time>
      </trkpt>
      <trkpt lat="59.9770074" lon="17.7393111">
        <ele>31.3801</ele>
        <time>2013-05-01T11:35:01Z</time>
      </trkpt>
      <trkpt lat="59.9770692" lon="17.7393004">
        <ele>31.3801</ele>
        <time>2013-05-01T11:35:02Z</time>
      </trkpt>
      <trkpt lat="59.9771308" lon="17.7392751">
        <ele>30.8995</ele>
        <time>2013-05-01T11:35:03Z</time>
      </trkpt>
      <trkpt lat="59.9771902" lon="17.7392355">
        <ele>31.3801</ele>
        <time>2013-05-01T11:35:04Z</time>
      </trkpt>
      <trkpt lat="59.977252" lon="17.7391953">
        <ele>31.3801</ele>
        <time>2013-05-01T11:35:05Z</time>
      </trkpt>
      <trkpt lat="59.9773126" lon="17.7391564">
        <ele>31.8607</ele>
        <time>2013-05-01T11:35:06Z</time>
      </trkpt>
      <trkpt lat="59.9773738" lon="17.7391217">
        <ele>31.8607</ele>
        <time>2013-05-01T11:35:07Z</time>
      </trkpt>
      <trkpt lat="59.9774349" lon="17.7390927">
        <ele>32.3416</ele>
        <time>2013-05-01T11:35:08Z</time>
      </trkpt>
      <trkpt lat="59.9774961" lon="17.7390678">
        <ele>32.3416</ele>
        <time>2013-05-01T11:35:09Z</time>
      </trkpt>
      <trkpt lat="59.9775571" lon="17.7390471">
        <ele>32.8223</ele>
        <time>2013-05-01T11:35:10Z</time>
      </trkpt>
      <trkpt lat="59.9776153" lon="17.7390333">
        <ele>32.8223</ele>
        <time>2013-05-01T11:35:11Z</time>
      </trkpt>
      <trkpt lat="59.977672" lon="17.7390274">
        <ele>33.3029</ele>
        <time>2013-05-01T11:35:12Z</time>
      </trkpt>
      <trkpt lat="59.977727" lon="17.7390305">
        <ele>33.7834</ele>
        <time>2013-05-01T11:35:13Z</time>
      </trkpt>
      <trkpt lat="59.9777799" lon="17.7390409">
        <ele>34.2642</ele>
        <time>2013-05-01T11:35:14Z</time>
      </trkpt>
      <trkpt lat="59.9778306" lon="17.739061">
        <ele>34.7449</ele>
        <time>2013-05-01T11:35:15Z</time>
      </trkpt>
      <trkpt lat="59.9778815" lon="17.739086">
        <ele>35.2255</ele>
        <time>2013-05-01T11:35:16Z</time>
      </trkpt>
      <trkpt lat="59.9779322" lon="17.7391159">
        <ele>35.7061</ele>
        <time>2013-05-01T11:35:17Z</time>
      </trkpt>
      <trkpt lat="59.977981" lon="17.7391529">
        <ele>36.1868</ele>
        <time>2013-05-01T11:35:18Z</time>
      </trkpt>
      <trkpt lat="59.9780309" lon="17.7391901">
        <ele>36.6675</ele>
        <time>2013-05-01T11:35:19Z</time>
      </trkpt>
      <trkpt lat="59.9780802" lon="17.739221">
        <ele>37.1481</ele>
        <time>2013-05-01T11:35:20Z</time>
      </trkpt>
      <trkpt lat="59.9781275" lon="17.7392436">
        <ele>36.6675</ele>
        <time>2013-05-01T11:35:21Z</time>
      </trkpt>
      <trkpt lat="59.9781723" lon="17.7392564">
        <ele>36.6675</ele>
        <time>2013-05-01T11:35:22Z</time>
      </trkpt>
      <trkpt lat="59.9782166" lon="17.7392637">
        <ele>35.7061</ele>
        <time>2013-05-01T11:35:23Z</time>
      </trkpt>
      <trkpt lat="59.9782585" lon="17.7392745">
        <ele>35.7061</ele>
        <time>2013-05-01T11:35:24Z</time>
      </trkpt>
      <trkpt lat="59.9783005" lon="17.7392915">
        <ele>35.2255</ele>
        <time>2013-05-01T11:35:25Z</time>
      </trkpt>
      <trkpt lat="59.9783481" lon="17.7393033">
        <ele>35.2255</ele>
        <time>2013-05-01T11:35:26Z</time>
      </trkpt>
      <trkpt lat="59.9783954" lon="17.7393134">
        <ele>35.7061</ele>
        <time>2013-05-01T11:35:27Z</time>
      </trkpt>
      <trkpt lat="59.9784424" lon="17.7393227">
        <ele>36.1868</ele>
        <time>2013-05-01T11:35:28Z</time>
      </trkpt>
      <trkpt lat="59.9784911" lon="17.7393292">
        <ele>36.1868</ele>
        <time>2013-05-01T11:35:29Z</time>
      </trkpt>
      <trkpt lat="59.9785373" lon="17.7393384">
        <ele>36.1868</ele>
        <time>2013-05-01T11:35:30Z</time>
      </trkpt>
      <trkpt lat="59.978586" lon="17.7393397">
        <ele>36.6675</ele>
        <time>2013-05-01T11:35:31Z</time>
      </trkpt>
      <trkpt lat="59.9786341" lon="17.739338">
        <ele>36.6675</ele>
        <time>2013-05-01T11:35:32Z</time>
      </trkpt>
      <trkpt lat="59.9786841" lon="17.7393363">
        <ele>36.1868</ele>
        <time>2013-05-01T11:35:33Z</time>
      </trkpt>
      <trkpt lat="59.9787356" lon="17.7393377">
        <ele>36.1868</ele>
        <time>2013-05-01T11:35:34Z</time>
      </trkpt>
      <trkpt lat="59.9787844" lon="17.7393433">
        <ele>35.7061</ele>
        <time>2013-05-01T11:35:35Z</time>
      </trkpt>
      <trkpt lat="59.9788341" lon="17.7393445">
        <ele>35.7061</ele>
        <time>2013-05-01T11:35:36Z</time>
      </trkpt>
    </trkseg>
  </trk>
</gpx>